<?xml version="1.0" encoding="UTF-8" standalone="no" ?>
<gpx xmlns="http://www.topografix.com/GPX/1/1" xmlns:xsi="http://www.w3.org/2001/XMLSchema-instance" xsi:schemaLocation="http://www.topografix.com/GPX/1/1 http://www.topografix.com/GPX/1/1/gpx.xsd" version="1.1" creator="VisuGPX - https://www.visugpx.com">
  <metadata>
    <name>Sens saligny </name>
    <desc><![CDATA[sortie du 4/5/2014]]></desc>
  </metadata>
  <trk>
    <name><![CDATA[ ]]></name>
    <desc><![CDATA[]]></desc>
    <trkseg>
      <trkpt lat="48.20336" lon="3.27101">
        <ele>64</ele>
        <time>2014-05-04T07:36:52.474Z</time>
      </trkpt>
      <trkpt lat="48.20343" lon="3.27206">
        <ele>65</ele>
        <time>2014-05-04T07:36:53.464Z</time>
      </trkpt>
      <trkpt lat="48.20353" lon="3.2721">
        <ele>66</ele>
        <time>2014-05-04T07:36:55.000Z</time>
      </trkpt>
      <trkpt lat="48.20353" lon="3.2721">
        <ele>66</ele>
        <time>2014-05-04T07:36:56.000Z</time>
      </trkpt>
      <trkpt lat="48.20363" lon="3.27217">
        <ele>66</ele>
        <time>2014-05-04T07:36:57.000Z</time>
      </trkpt>
      <trkpt lat="48.20363" lon="3.27217">
        <ele>66</ele>
        <time>2014-05-04T07:36:59.000Z</time>
      </trkpt>
      <trkpt lat="48.20369" lon="3.27199">
        <ele>65</ele>
        <time>2014-05-04T07:37:00.000Z</time>
      </trkpt>
      <trkpt lat="48.20373" lon="3.27187">
        <ele>65</ele>
        <time>2014-05-04T07:37:01.000Z</time>
      </trkpt>
      <trkpt lat="48.20373" lon="3.27187">
        <ele>65</ele>
        <time>2014-05-04T07:37:02.000Z</time>
      </trkpt>
      <trkpt lat="48.20386" lon="3.2715">
        <ele>65</ele>
        <time>2014-05-04T07:37:03.000Z</time>
      </trkpt>
      <trkpt lat="48.20394" lon="3.27129">
        <ele>65</ele>
        <time>2014-05-04T07:37:04.000Z</time>
      </trkpt>
      <trkpt lat="48.20405" lon="3.27105">
        <ele>64</ele>
        <time>2014-05-04T07:37:05.000Z</time>
      </trkpt>
      <trkpt lat="48.2041" lon="3.27086">
        <ele>64</ele>
        <time>2014-05-04T07:37:06.000Z</time>
      </trkpt>
      <trkpt lat="48.20413" lon="3.27073">
        <ele>64</ele>
        <time>2014-05-04T07:37:07.000Z</time>
      </trkpt>
      <trkpt lat="48.20413" lon="3.27073">
        <ele>64</ele>
        <time>2014-05-04T07:37:08.000Z</time>
      </trkpt>
      <trkpt lat="48.20416" lon="3.27051">
        <ele>64</ele>
        <time>2014-05-04T07:37:09.000Z</time>
      </trkpt>
      <trkpt lat="48.20416" lon="3.27051">
        <ele>64</ele>
        <time>2014-05-04T07:37:10.000Z</time>
      </trkpt>
      <trkpt lat="48.20417" lon="3.27036">
        <ele>64</ele>
        <time>2014-05-04T07:37:11.000Z</time>
      </trkpt>
      <trkpt lat="48.20417" lon="3.27036">
        <ele>64</ele>
        <time>2014-05-04T07:37:12.000Z</time>
      </trkpt>
      <trkpt lat="48.20419" lon="3.27021">
        <ele>65</ele>
        <time>2014-05-04T07:37:13.000Z</time>
      </trkpt>
      <trkpt lat="48.20419" lon="3.27021">
        <ele>65</ele>
        <time>2014-05-04T07:37:15.000Z</time>
      </trkpt>
      <trkpt lat="48.20424" lon="3.27004">
        <ele>64</ele>
        <time>2014-05-04T07:37:16.000Z</time>
      </trkpt>
      <trkpt lat="48.20426" lon="3.27">
        <ele>64</ele>
        <time>2014-05-04T07:37:17.000Z</time>
      </trkpt>
      <trkpt lat="48.20428" lon="3.26993">
        <ele>65</ele>
        <time>2014-05-04T07:37:18.000Z</time>
      </trkpt>
      <trkpt lat="48.20431" lon="3.26989">
        <ele>65</ele>
        <time>2014-05-04T07:37:19.000Z</time>
      </trkpt>
      <trkpt lat="48.20434" lon="3.26985">
        <ele>65</ele>
        <time>2014-05-04T07:37:20.000Z</time>
      </trkpt>
      <trkpt lat="48.20436" lon="3.26981">
        <ele>65</ele>
        <time>2014-05-04T07:37:21.000Z</time>
      </trkpt>
      <trkpt lat="48.20442" lon="3.26976">
        <ele>65</ele>
        <time>2014-05-04T07:37:22.000Z</time>
      </trkpt>
      <trkpt lat="48.20448" lon="3.26972">
        <ele>65</ele>
        <time>2014-05-04T07:37:23.000Z</time>
      </trkpt>
      <trkpt lat="48.20454" lon="3.26968">
        <ele>65</ele>
        <time>2014-05-04T07:37:24.000Z</time>
      </trkpt>
      <trkpt lat="48.20461" lon="3.26963">
        <ele>65</ele>
        <time>2014-05-04T07:37:25.000Z</time>
      </trkpt>
      <trkpt lat="48.20467" lon="3.26959">
        <ele>65</ele>
        <time>2014-05-04T07:37:26.000Z</time>
      </trkpt>
      <trkpt lat="48.20474" lon="3.26955">
        <ele>65</ele>
        <time>2014-05-04T07:37:27.000Z</time>
      </trkpt>
      <trkpt lat="48.2048" lon="3.26951">
        <ele>65</ele>
        <time>2014-05-04T07:37:28.000Z</time>
      </trkpt>
      <trkpt lat="48.20485" lon="3.26946">
        <ele>66</ele>
        <time>2014-05-04T07:37:29.000Z</time>
      </trkpt>
      <trkpt lat="48.20492" lon="3.26942">
        <ele>66</ele>
        <time>2014-05-04T07:37:30.000Z</time>
      </trkpt>
      <trkpt lat="48.20497" lon="3.26938">
        <ele>66</ele>
        <time>2014-05-04T07:37:31.000Z</time>
      </trkpt>
      <trkpt lat="48.20504" lon="3.26936">
        <ele>66</ele>
        <time>2014-05-04T07:37:32.000Z</time>
      </trkpt>
      <trkpt lat="48.20509" lon="3.26931">
        <ele>66</ele>
        <time>2014-05-04T07:37:33.000Z</time>
      </trkpt>
      <trkpt lat="48.20618" lon="3.27058">
        <ele>67</ele>
        <time>2014-05-04T07:37:34.001Z</time>
      </trkpt>
      <trkpt lat="48.20602" lon="3.27084">
        <ele>66</ele>
        <time>2014-05-04T07:37:35.000Z</time>
      </trkpt>
      <trkpt lat="48.20606" lon="3.27081">
        <ele>67</ele>
        <time>2014-05-04T07:37:36.000Z</time>
      </trkpt>
      <trkpt lat="48.20612" lon="3.27081">
        <ele>67</ele>
        <time>2014-05-04T07:37:37.000Z</time>
      </trkpt>
      <trkpt lat="48.20616" lon="3.27079">
        <ele>67</ele>
        <time>2014-05-04T07:37:38.000Z</time>
      </trkpt>
      <trkpt lat="48.20621" lon="3.27075">
        <ele>67</ele>
        <time>2014-05-04T07:37:39.000Z</time>
      </trkpt>
      <trkpt lat="48.20625" lon="3.27073">
        <ele>67</ele>
        <time>2014-05-04T07:37:40.000Z</time>
      </trkpt>
      <trkpt lat="48.2063" lon="3.27073">
        <ele>67</ele>
        <time>2014-05-04T07:37:41.000Z</time>
      </trkpt>
      <trkpt lat="48.20636" lon="3.27071">
        <ele>67</ele>
        <time>2014-05-04T07:37:42.000Z</time>
      </trkpt>
      <trkpt lat="48.20641" lon="3.27071">
        <ele>67</ele>
        <time>2014-05-04T07:37:43.000Z</time>
      </trkpt>
      <trkpt lat="48.20645" lon="3.27069">
        <ele>66</ele>
        <time>2014-05-04T07:37:44.000Z</time>
      </trkpt>
      <trkpt lat="48.20652" lon="3.27066">
        <ele>66</ele>
        <time>2014-05-04T07:37:45.000Z</time>
      </trkpt>
      <trkpt lat="48.20657" lon="3.27066">
        <ele>66</ele>
        <time>2014-05-04T07:37:46.000Z</time>
      </trkpt>
      <trkpt lat="48.20662" lon="3.27064">
        <ele>66</ele>
        <time>2014-05-04T07:37:47.000Z</time>
      </trkpt>
      <trkpt lat="48.20667" lon="3.27062">
        <ele>66</ele>
        <time>2014-05-04T07:37:48.000Z</time>
      </trkpt>
      <trkpt lat="48.20671" lon="3.2706">
        <ele>65</ele>
        <time>2014-05-04T07:37:49.000Z</time>
      </trkpt>
      <trkpt lat="48.20676" lon="3.27058">
        <ele>65</ele>
        <time>2014-05-04T07:37:50.000Z</time>
      </trkpt>
      <trkpt lat="48.20681" lon="3.27054">
        <ele>65</ele>
        <time>2014-05-04T07:37:51.000Z</time>
      </trkpt>
      <trkpt lat="48.20685" lon="3.27051">
        <ele>65</ele>
        <time>2014-05-04T07:37:52.000Z</time>
      </trkpt>
      <trkpt lat="48.2069" lon="3.27049">
        <ele>65</ele>
        <time>2014-05-04T07:37:53.000Z</time>
      </trkpt>
      <trkpt lat="48.20695" lon="3.27047">
        <ele>65</ele>
        <time>2014-05-04T07:37:54.000Z</time>
      </trkpt>
      <trkpt lat="48.20699" lon="3.27043">
        <ele>65</ele>
        <time>2014-05-04T07:37:55.000Z</time>
      </trkpt>
      <trkpt lat="48.20703" lon="3.27041">
        <ele>65</ele>
        <time>2014-05-04T07:37:56.000Z</time>
      </trkpt>
      <trkpt lat="48.20707" lon="3.27036">
        <ele>65</ele>
        <time>2014-05-04T07:37:57.000Z</time>
      </trkpt>
      <trkpt lat="48.20712" lon="3.27034">
        <ele>65</ele>
        <time>2014-05-04T07:37:58.000Z</time>
      </trkpt>
      <trkpt lat="48.20716" lon="3.2703">
        <ele>65</ele>
        <time>2014-05-04T07:37:59.000Z</time>
      </trkpt>
      <trkpt lat="48.2072" lon="3.27026">
        <ele>64</ele>
        <time>2014-05-04T07:38:00.000Z</time>
      </trkpt>
      <trkpt lat="48.20726" lon="3.27024">
        <ele>64</ele>
        <time>2014-05-04T07:38:01.000Z</time>
      </trkpt>
      <trkpt lat="48.2073" lon="3.27017">
        <ele>64</ele>
        <time>2014-05-04T07:38:02.000Z</time>
      </trkpt>
      <trkpt lat="48.20734" lon="3.27013">
        <ele>64</ele>
        <time>2014-05-04T07:38:03.000Z</time>
      </trkpt>
      <trkpt lat="48.2074" lon="3.27008">
        <ele>64</ele>
        <time>2014-05-04T07:38:04.000Z</time>
      </trkpt>
      <trkpt lat="48.20744" lon="3.27004">
        <ele>63</ele>
        <time>2014-05-04T07:38:05.000Z</time>
      </trkpt>
      <trkpt lat="48.20749" lon="3.27">
        <ele>63</ele>
        <time>2014-05-04T07:38:06.000Z</time>
      </trkpt>
      <trkpt lat="48.20754" lon="3.26993">
        <ele>63</ele>
        <time>2014-05-04T07:38:07.000Z</time>
      </trkpt>
      <trkpt lat="48.20759" lon="3.26989">
        <ele>64</ele>
        <time>2014-05-04T07:38:08.000Z</time>
      </trkpt>
      <trkpt lat="48.20763" lon="3.26983">
        <ele>64</ele>
        <time>2014-05-04T07:38:09.000Z</time>
      </trkpt>
      <trkpt lat="48.20768" lon="3.26978">
        <ele>64</ele>
        <time>2014-05-04T07:38:10.000Z</time>
      </trkpt>
      <trkpt lat="48.20772" lon="3.26974">
        <ele>64</ele>
        <time>2014-05-04T07:38:11.000Z</time>
      </trkpt>
      <trkpt lat="48.20776" lon="3.26968">
        <ele>64</ele>
        <time>2014-05-04T07:38:12.000Z</time>
      </trkpt>
      <trkpt lat="48.2078" lon="3.26963">
        <ele>64</ele>
        <time>2014-05-04T07:38:13.000Z</time>
      </trkpt>
      <trkpt lat="48.20785" lon="3.26957">
        <ele>64</ele>
        <time>2014-05-04T07:38:14.000Z</time>
      </trkpt>
      <trkpt lat="48.20789" lon="3.26951">
        <ele>64</ele>
        <time>2014-05-04T07:38:15.000Z</time>
      </trkpt>
      <trkpt lat="48.20793" lon="3.26946">
        <ele>64</ele>
        <time>2014-05-04T07:38:16.000Z</time>
      </trkpt>
      <trkpt lat="48.20798" lon="3.2694">
        <ele>65</ele>
        <time>2014-05-04T07:38:17.000Z</time>
      </trkpt>
      <trkpt lat="48.20801" lon="3.26933">
        <ele>65</ele>
        <time>2014-05-04T07:38:18.000Z</time>
      </trkpt>
      <trkpt lat="48.20805" lon="3.26929">
        <ele>65</ele>
        <time>2014-05-04T07:38:19.000Z</time>
      </trkpt>
      <trkpt lat="48.20808" lon="3.26923">
        <ele>65</ele>
        <time>2014-05-04T07:38:20.000Z</time>
      </trkpt>
      <trkpt lat="48.20813" lon="3.26918">
        <ele>65</ele>
        <time>2014-05-04T07:38:21.000Z</time>
      </trkpt>
      <trkpt lat="48.20816" lon="3.26912">
        <ele>66</ele>
        <time>2014-05-04T07:38:22.000Z</time>
      </trkpt>
      <trkpt lat="48.2082" lon="3.26908">
        <ele>66</ele>
        <time>2014-05-04T07:38:23.000Z</time>
      </trkpt>
      <trkpt lat="48.20823" lon="3.26901">
        <ele>66</ele>
        <time>2014-05-04T07:38:24.000Z</time>
      </trkpt>
      <trkpt lat="48.20828" lon="3.26895">
        <ele>66</ele>
        <time>2014-05-04T07:38:25.000Z</time>
      </trkpt>
      <trkpt lat="48.20832" lon="3.2689">
        <ele>66</ele>
        <time>2014-05-04T07:38:26.000Z</time>
      </trkpt>
      <trkpt lat="48.20835" lon="3.26884">
        <ele>65</ele>
        <time>2014-05-04T07:38:27.000Z</time>
      </trkpt>
      <trkpt lat="48.20839" lon="3.2688">
        <ele>65</ele>
        <time>2014-05-04T07:38:28.000Z</time>
      </trkpt>
      <trkpt lat="48.20844" lon="3.26875">
        <ele>65</ele>
        <time>2014-05-04T07:38:29.000Z</time>
      </trkpt>
      <trkpt lat="48.20847" lon="3.26869">
        <ele>65</ele>
        <time>2014-05-04T07:38:30.000Z</time>
      </trkpt>
      <trkpt lat="48.20851" lon="3.26865">
        <ele>65</ele>
        <time>2014-05-04T07:38:31.000Z</time>
      </trkpt>
      <trkpt lat="48.20854" lon="3.26858">
        <ele>65</ele>
        <time>2014-05-04T07:38:32.000Z</time>
      </trkpt>
      <trkpt lat="48.20859" lon="3.26852">
        <ele>65</ele>
        <time>2014-05-04T07:38:33.000Z</time>
      </trkpt>
      <trkpt lat="48.20863" lon="3.26848">
        <ele>65</ele>
        <time>2014-05-04T07:38:34.000Z</time>
      </trkpt>
      <trkpt lat="48.20866" lon="3.26841">
        <ele>65</ele>
        <time>2014-05-04T07:38:35.000Z</time>
      </trkpt>
      <trkpt lat="48.20871" lon="3.26835">
        <ele>65</ele>
        <time>2014-05-04T07:38:36.000Z</time>
      </trkpt>
      <trkpt lat="48.20874" lon="3.2683">
        <ele>65</ele>
        <time>2014-05-04T07:38:37.000Z</time>
      </trkpt>
      <trkpt lat="48.20878" lon="3.26824">
        <ele>64</ele>
        <time>2014-05-04T07:38:38.000Z</time>
      </trkpt>
      <trkpt lat="48.20881" lon="3.2682">
        <ele>64</ele>
        <time>2014-05-04T07:38:39.000Z</time>
      </trkpt>
      <trkpt lat="48.20886" lon="3.26813">
        <ele>64</ele>
        <time>2014-05-04T07:38:40.000Z</time>
      </trkpt>
      <trkpt lat="48.2089" lon="3.26809">
        <ele>64</ele>
        <time>2014-05-04T07:38:41.000Z</time>
      </trkpt>
      <trkpt lat="48.20893" lon="3.26802">
        <ele>64</ele>
        <time>2014-05-04T07:38:42.000Z</time>
      </trkpt>
      <trkpt lat="48.20897" lon="3.26798">
        <ele>64</ele>
        <time>2014-05-04T07:38:43.000Z</time>
      </trkpt>
      <trkpt lat="48.20902" lon="3.26792">
        <ele>64</ele>
        <time>2014-05-04T07:38:44.000Z</time>
      </trkpt>
      <trkpt lat="48.20905" lon="3.26785">
        <ele>64</ele>
        <time>2014-05-04T07:38:45.000Z</time>
      </trkpt>
      <trkpt lat="48.20909" lon="3.26781">
        <ele>64</ele>
        <time>2014-05-04T07:38:46.000Z</time>
      </trkpt>
      <trkpt lat="48.20912" lon="3.26777">
        <ele>64</ele>
        <time>2014-05-04T07:38:47.000Z</time>
      </trkpt>
      <trkpt lat="48.20917" lon="3.2677">
        <ele>64</ele>
        <time>2014-05-04T07:38:48.000Z</time>
      </trkpt>
      <trkpt lat="48.20921" lon="3.26766">
        <ele>64</ele>
        <time>2014-05-04T07:38:49.000Z</time>
      </trkpt>
      <trkpt lat="48.20924" lon="3.2676">
        <ele>64</ele>
        <time>2014-05-04T07:38:50.000Z</time>
      </trkpt>
      <trkpt lat="48.20927" lon="3.26755">
        <ele>64</ele>
        <time>2014-05-04T07:38:51.000Z</time>
      </trkpt>
      <trkpt lat="48.20932" lon="3.26749">
        <ele>64</ele>
        <time>2014-05-04T07:38:52.000Z</time>
      </trkpt>
      <trkpt lat="48.20935" lon="3.26745">
        <ele>64</ele>
        <time>2014-05-04T07:38:53.000Z</time>
      </trkpt>
      <trkpt lat="48.20939" lon="3.26738">
        <ele>64</ele>
        <time>2014-05-04T07:38:54.000Z</time>
      </trkpt>
      <trkpt lat="48.20942" lon="3.26734">
        <ele>65</ele>
        <time>2014-05-04T07:38:55.000Z</time>
      </trkpt>
      <trkpt lat="48.20947" lon="3.2673">
        <ele>65</ele>
        <time>2014-05-04T07:38:56.000Z</time>
      </trkpt>
      <trkpt lat="48.2095" lon="3.26723">
        <ele>65</ele>
        <time>2014-05-04T07:38:57.000Z</time>
      </trkpt>
      <trkpt lat="48.20954" lon="3.26719">
        <ele>65</ele>
        <time>2014-05-04T07:38:58.000Z</time>
      </trkpt>
      <trkpt lat="48.20957" lon="3.26712">
        <ele>65</ele>
        <time>2014-05-04T07:38:59.000Z</time>
      </trkpt>
      <trkpt lat="48.20961" lon="3.26706">
        <ele>65</ele>
        <time>2014-05-04T07:39:00.000Z</time>
      </trkpt>
      <trkpt lat="48.20964" lon="3.26699">
        <ele>65</ele>
        <time>2014-05-04T07:39:01.000Z</time>
      </trkpt>
      <trkpt lat="48.20967" lon="3.26695">
        <ele>65</ele>
        <time>2014-05-04T07:39:02.000Z</time>
      </trkpt>
      <trkpt lat="48.2097" lon="3.26687">
        <ele>65</ele>
        <time>2014-05-04T07:39:03.000Z</time>
      </trkpt>
      <trkpt lat="48.20971" lon="3.2668">
        <ele>65</ele>
        <time>2014-05-04T07:39:04.000Z</time>
      </trkpt>
      <trkpt lat="48.20974" lon="3.26674">
        <ele>65</ele>
        <time>2014-05-04T07:39:05.000Z</time>
      </trkpt>
      <trkpt lat="48.20975" lon="3.26665">
        <ele>65</ele>
        <time>2014-05-04T07:39:06.000Z</time>
      </trkpt>
      <trkpt lat="48.20976" lon="3.26657">
        <ele>65</ele>
        <time>2014-05-04T07:39:07.000Z</time>
      </trkpt>
      <trkpt lat="48.20976" lon="3.2665">
        <ele>65</ele>
        <time>2014-05-04T07:39:08.000Z</time>
      </trkpt>
      <trkpt lat="48.20976" lon="3.26642">
        <ele>65</ele>
        <time>2014-05-04T07:39:09.000Z</time>
      </trkpt>
      <trkpt lat="48.20976" lon="3.26635">
        <ele>65</ele>
        <time>2014-05-04T07:39:10.000Z</time>
      </trkpt>
      <trkpt lat="48.20976" lon="3.26627">
        <ele>65</ele>
        <time>2014-05-04T07:39:11.000Z</time>
      </trkpt>
      <trkpt lat="48.20976" lon="3.2662">
        <ele>65</ele>
        <time>2014-05-04T07:39:12.000Z</time>
      </trkpt>
      <trkpt lat="48.20976" lon="3.26614">
        <ele>65</ele>
        <time>2014-05-04T07:39:13.000Z</time>
      </trkpt>
      <trkpt lat="48.20976" lon="3.26605">
        <ele>65</ele>
        <time>2014-05-04T07:39:14.000Z</time>
      </trkpt>
      <trkpt lat="48.20976" lon="3.26599">
        <ele>65</ele>
        <time>2014-05-04T07:39:15.000Z</time>
      </trkpt>
      <trkpt lat="48.20977" lon="3.26592">
        <ele>65</ele>
        <time>2014-05-04T07:39:16.000Z</time>
      </trkpt>
      <trkpt lat="48.20977" lon="3.26586">
        <ele>65</ele>
        <time>2014-05-04T07:39:17.000Z</time>
      </trkpt>
      <trkpt lat="48.20977" lon="3.26579">
        <ele>65</ele>
        <time>2014-05-04T07:39:18.000Z</time>
      </trkpt>
      <trkpt lat="48.20978" lon="3.26573">
        <ele>65</ele>
        <time>2014-05-04T07:39:19.000Z</time>
      </trkpt>
      <trkpt lat="48.20978" lon="3.26569">
        <ele>65</ele>
        <time>2014-05-04T07:39:20.000Z</time>
      </trkpt>
      <trkpt lat="48.20979" lon="3.26564">
        <ele>65</ele>
        <time>2014-05-04T07:39:21.000Z</time>
      </trkpt>
      <trkpt lat="48.20981" lon="3.26562">
        <ele>65</ele>
        <time>2014-05-04T07:39:22.000Z</time>
      </trkpt>
      <trkpt lat="48.20984" lon="3.26558">
        <ele>65</ele>
        <time>2014-05-04T07:39:23.000Z</time>
      </trkpt>
      <trkpt lat="48.20987" lon="3.26558">
        <ele>65</ele>
        <time>2014-05-04T07:39:24.000Z</time>
      </trkpt>
      <trkpt lat="48.20991" lon="3.26556">
        <ele>65</ele>
        <time>2014-05-04T07:39:25.000Z</time>
      </trkpt>
      <trkpt lat="48.20995" lon="3.26558">
        <ele>65</ele>
        <time>2014-05-04T07:39:26.000Z</time>
      </trkpt>
      <trkpt lat="48.20999" lon="3.2656">
        <ele>65</ele>
        <time>2014-05-04T07:39:27.000Z</time>
      </trkpt>
      <trkpt lat="48.21004" lon="3.26564">
        <ele>66</ele>
        <time>2014-05-04T07:39:28.000Z</time>
      </trkpt>
      <trkpt lat="48.21008" lon="3.26569">
        <ele>66</ele>
        <time>2014-05-04T07:39:29.000Z</time>
      </trkpt>
      <trkpt lat="48.21012" lon="3.26571">
        <ele>66</ele>
        <time>2014-05-04T07:39:30.000Z</time>
      </trkpt>
      <trkpt lat="48.21015" lon="3.26575">
        <ele>66</ele>
        <time>2014-05-04T07:39:31.000Z</time>
      </trkpt>
      <trkpt lat="48.2102" lon="3.26577">
        <ele>66</ele>
        <time>2014-05-04T07:39:32.000Z</time>
      </trkpt>
      <trkpt lat="48.21024" lon="3.26579">
        <ele>66</ele>
        <time>2014-05-04T07:39:33.000Z</time>
      </trkpt>
      <trkpt lat="48.21029" lon="3.26581">
        <ele>66</ele>
        <time>2014-05-04T07:39:34.000Z</time>
      </trkpt>
      <trkpt lat="48.21034" lon="3.26584">
        <ele>65</ele>
        <time>2014-05-04T07:39:35.000Z</time>
      </trkpt>
      <trkpt lat="48.21039" lon="3.26586">
        <ele>65</ele>
        <time>2014-05-04T07:39:36.000Z</time>
      </trkpt>
      <trkpt lat="48.21043" lon="3.26588">
        <ele>65</ele>
        <time>2014-05-04T07:39:37.000Z</time>
      </trkpt>
      <trkpt lat="48.21048" lon="3.2659">
        <ele>65</ele>
        <time>2014-05-04T07:39:38.000Z</time>
      </trkpt>
      <trkpt lat="48.21053" lon="3.26592">
        <ele>65</ele>
        <time>2014-05-04T07:39:39.000Z</time>
      </trkpt>
      <trkpt lat="48.21057" lon="3.26592">
        <ele>65</ele>
        <time>2014-05-04T07:39:40.000Z</time>
      </trkpt>
      <trkpt lat="48.21063" lon="3.26592">
        <ele>65</ele>
        <time>2014-05-04T07:39:41.000Z</time>
      </trkpt>
      <trkpt lat="48.21068" lon="3.26594">
        <ele>65</ele>
        <time>2014-05-04T07:39:42.000Z</time>
      </trkpt>
      <trkpt lat="48.21072" lon="3.26594">
        <ele>65</ele>
        <time>2014-05-04T07:39:43.000Z</time>
      </trkpt>
      <trkpt lat="48.21077" lon="3.26594">
        <ele>65</ele>
        <time>2014-05-04T07:39:44.000Z</time>
      </trkpt>
      <trkpt lat="48.21082" lon="3.26594">
        <ele>65</ele>
        <time>2014-05-04T07:39:45.000Z</time>
      </trkpt>
      <trkpt lat="48.21086" lon="3.26596">
        <ele>65</ele>
        <time>2014-05-04T07:39:46.000Z</time>
      </trkpt>
      <trkpt lat="48.21092" lon="3.26596">
        <ele>65</ele>
        <time>2014-05-04T07:39:47.000Z</time>
      </trkpt>
      <trkpt lat="48.21096" lon="3.26594">
        <ele>65</ele>
        <time>2014-05-04T07:39:48.000Z</time>
      </trkpt>
      <trkpt lat="48.211" lon="3.26594">
        <ele>65</ele>
        <time>2014-05-04T07:39:49.000Z</time>
      </trkpt>
      <trkpt lat="48.21104" lon="3.26594">
        <ele>65</ele>
        <time>2014-05-04T07:39:50.000Z</time>
      </trkpt>
      <trkpt lat="48.21109" lon="3.26594">
        <ele>65</ele>
        <time>2014-05-04T07:39:51.000Z</time>
      </trkpt>
      <trkpt lat="48.21113" lon="3.26592">
        <ele>65</ele>
        <time>2014-05-04T07:39:52.000Z</time>
      </trkpt>
      <trkpt lat="48.21117" lon="3.26592">
        <ele>65</ele>
        <time>2014-05-04T07:39:53.000Z</time>
      </trkpt>
      <trkpt lat="48.21122" lon="3.2659">
        <ele>65</ele>
        <time>2014-05-04T07:39:54.000Z</time>
      </trkpt>
      <trkpt lat="48.21126" lon="3.2659">
        <ele>65</ele>
        <time>2014-05-04T07:39:55.000Z</time>
      </trkpt>
      <trkpt lat="48.21129" lon="3.26588">
        <ele>65</ele>
        <time>2014-05-04T07:39:56.000Z</time>
      </trkpt>
      <trkpt lat="48.21133" lon="3.26588">
        <ele>65</ele>
        <time>2014-05-04T07:39:57.000Z</time>
      </trkpt>
      <trkpt lat="48.21138" lon="3.26586">
        <ele>65</ele>
        <time>2014-05-04T07:39:58.000Z</time>
      </trkpt>
      <trkpt lat="48.21141" lon="3.26584">
        <ele>65</ele>
        <time>2014-05-04T07:39:59.000Z</time>
      </trkpt>
      <trkpt lat="48.21145" lon="3.26581">
        <ele>66</ele>
        <time>2014-05-04T07:40:00.000Z</time>
      </trkpt>
      <trkpt lat="48.21149" lon="3.26579">
        <ele>66</ele>
        <time>2014-05-04T07:40:01.000Z</time>
      </trkpt>
      <trkpt lat="48.21153" lon="3.26577">
        <ele>66</ele>
        <time>2014-05-04T07:40:02.000Z</time>
      </trkpt>
      <trkpt lat="48.21157" lon="3.26575">
        <ele>66</ele>
        <time>2014-05-04T07:40:03.000Z</time>
      </trkpt>
      <trkpt lat="48.2116" lon="3.26571">
        <ele>66</ele>
        <time>2014-05-04T07:40:04.000Z</time>
      </trkpt>
      <trkpt lat="48.21164" lon="3.26569">
        <ele>66</ele>
        <time>2014-05-04T07:40:05.000Z</time>
      </trkpt>
      <trkpt lat="48.21168" lon="3.26564">
        <ele>66</ele>
        <time>2014-05-04T07:40:06.000Z</time>
      </trkpt>
      <trkpt lat="48.21172" lon="3.26562">
        <ele>66</ele>
        <time>2014-05-04T07:40:07.000Z</time>
      </trkpt>
      <trkpt lat="48.21175" lon="3.26558">
        <ele>66</ele>
        <time>2014-05-04T07:40:08.000Z</time>
      </trkpt>
      <trkpt lat="48.2118" lon="3.26556">
        <ele>66</ele>
        <time>2014-05-04T07:40:09.000Z</time>
      </trkpt>
      <trkpt lat="48.21183" lon="3.26551">
        <ele>66</ele>
        <time>2014-05-04T07:40:10.000Z</time>
      </trkpt>
      <trkpt lat="48.21186" lon="3.26547">
        <ele>66</ele>
        <time>2014-05-04T07:40:11.000Z</time>
      </trkpt>
      <trkpt lat="48.2119" lon="3.26543">
        <ele>66</ele>
        <time>2014-05-04T07:40:12.000Z</time>
      </trkpt>
      <trkpt lat="48.21193" lon="3.26539">
        <ele>66</ele>
        <time>2014-05-04T07:40:13.000Z</time>
      </trkpt>
      <trkpt lat="48.21197" lon="3.26536">
        <ele>66</ele>
        <time>2014-05-04T07:40:14.000Z</time>
      </trkpt>
      <trkpt lat="48.21201" lon="3.26532">
        <ele>66</ele>
        <time>2014-05-04T07:40:15.000Z</time>
      </trkpt>
      <trkpt lat="48.21204" lon="3.26528">
        <ele>66</ele>
        <time>2014-05-04T07:40:16.000Z</time>
      </trkpt>
      <trkpt lat="48.21206" lon="3.26521">
        <ele>67</ele>
        <time>2014-05-04T07:40:17.000Z</time>
      </trkpt>
      <trkpt lat="48.2121" lon="3.26517">
        <ele>67</ele>
        <time>2014-05-04T07:40:18.000Z</time>
      </trkpt>
      <trkpt lat="48.21212" lon="3.26513">
        <ele>67</ele>
        <time>2014-05-04T07:40:19.000Z</time>
      </trkpt>
      <trkpt lat="48.21214" lon="3.26506">
        <ele>67</ele>
        <time>2014-05-04T07:40:20.000Z</time>
      </trkpt>
      <trkpt lat="48.21217" lon="3.26502">
        <ele>67</ele>
        <time>2014-05-04T07:40:21.000Z</time>
      </trkpt>
      <trkpt lat="48.21219" lon="3.26498">
        <ele>72</ele>
        <time>2014-05-04T07:40:22.000Z</time>
      </trkpt>
      <trkpt lat="48.21221" lon="3.26494">
        <ele>72</ele>
        <time>2014-05-04T07:40:23.000Z</time>
      </trkpt>
      <trkpt lat="48.21223" lon="3.26489">
        <ele>72</ele>
        <time>2014-05-04T07:40:24.000Z</time>
      </trkpt>
      <trkpt lat="48.21227" lon="3.26485">
        <ele>73</ele>
        <time>2014-05-04T07:40:25.000Z</time>
      </trkpt>
      <trkpt lat="48.21229" lon="3.26481">
        <ele>73</ele>
        <time>2014-05-04T07:40:26.000Z</time>
      </trkpt>
      <trkpt lat="48.21231" lon="3.26478">
        <ele>73</ele>
        <time>2014-05-04T07:40:27.000Z</time>
      </trkpt>
      <trkpt lat="48.21233" lon="3.26474">
        <ele>73</ele>
        <time>2014-05-04T07:40:28.000Z</time>
      </trkpt>
      <trkpt lat="48.21235" lon="3.2647">
        <ele>74</ele>
        <time>2014-05-04T07:40:29.000Z</time>
      </trkpt>
      <trkpt lat="48.21237" lon="3.26468">
        <ele>74</ele>
        <time>2014-05-04T07:40:30.000Z</time>
      </trkpt>
      <trkpt lat="48.2124" lon="3.26463">
        <ele>75</ele>
        <time>2014-05-04T07:40:31.000Z</time>
      </trkpt>
      <trkpt lat="48.21242" lon="3.26459">
        <ele>75</ele>
        <time>2014-05-04T07:40:32.000Z</time>
      </trkpt>
      <trkpt lat="48.21244" lon="3.26455">
        <ele>76</ele>
        <time>2014-05-04T07:40:33.000Z</time>
      </trkpt>
      <trkpt lat="48.21246" lon="3.26451">
        <ele>76</ele>
        <time>2014-05-04T07:40:34.000Z</time>
      </trkpt>
      <trkpt lat="48.21249" lon="3.26448">
        <ele>76</ele>
        <time>2014-05-04T07:40:35.000Z</time>
      </trkpt>
      <trkpt lat="48.21251" lon="3.26444">
        <ele>74</ele>
        <time>2014-05-04T07:40:36.000Z</time>
      </trkpt>
      <trkpt lat="48.21254" lon="3.2644">
        <ele>75</ele>
        <time>2014-05-04T07:40:37.000Z</time>
      </trkpt>
      <trkpt lat="48.21256" lon="3.26436">
        <ele>75</ele>
        <time>2014-05-04T07:40:38.000Z</time>
      </trkpt>
      <trkpt lat="48.21258" lon="3.26433">
        <ele>76</ele>
        <time>2014-05-04T07:40:39.000Z</time>
      </trkpt>
      <trkpt lat="48.2126" lon="3.26429">
        <ele>76</ele>
        <time>2014-05-04T07:40:40.000Z</time>
      </trkpt>
      <trkpt lat="48.21262" lon="3.26427">
        <ele>76</ele>
        <time>2014-05-04T07:40:41.000Z</time>
      </trkpt>
      <trkpt lat="48.21265" lon="3.26423">
        <ele>76</ele>
        <time>2014-05-04T07:40:42.000Z</time>
      </trkpt>
      <trkpt lat="48.21267" lon="3.26421">
        <ele>76</ele>
        <time>2014-05-04T07:40:43.000Z</time>
      </trkpt>
      <trkpt lat="48.21271" lon="3.26418">
        <ele>76</ele>
        <time>2014-05-04T07:40:44.000Z</time>
      </trkpt>
      <trkpt lat="48.21274" lon="3.26414">
        <ele>83</ele>
        <time>2014-05-04T07:40:45.000Z</time>
      </trkpt>
      <trkpt lat="48.21277" lon="3.26412">
        <ele>83</ele>
        <time>2014-05-04T07:40:46.000Z</time>
      </trkpt>
      <trkpt lat="48.2128" lon="3.2641">
        <ele>83</ele>
        <time>2014-05-04T07:40:47.000Z</time>
      </trkpt>
      <trkpt lat="48.21285" lon="3.26406">
        <ele>83</ele>
        <time>2014-05-04T07:40:48.000Z</time>
      </trkpt>
      <trkpt lat="48.21289" lon="3.26406">
        <ele>83</ele>
        <time>2014-05-04T07:40:49.000Z</time>
      </trkpt>
      <trkpt lat="48.21293" lon="3.26403">
        <ele>83</ele>
        <time>2014-05-04T07:40:50.000Z</time>
      </trkpt>
      <trkpt lat="48.21299" lon="3.26403">
        <ele>82</ele>
        <time>2014-05-04T07:40:51.000Z</time>
      </trkpt>
      <trkpt lat="48.21304" lon="3.26403">
        <ele>82</ele>
        <time>2014-05-04T07:40:52.000Z</time>
      </trkpt>
      <trkpt lat="48.21309" lon="3.26403">
        <ele>81</ele>
        <time>2014-05-04T07:40:53.000Z</time>
      </trkpt>
      <trkpt lat="48.21315" lon="3.26403">
        <ele>80</ele>
        <time>2014-05-04T07:40:54.000Z</time>
      </trkpt>
      <trkpt lat="48.2132" lon="3.26403">
        <ele>79</ele>
        <time>2014-05-04T07:40:55.000Z</time>
      </trkpt>
      <trkpt lat="48.21325" lon="3.26403">
        <ele>79</ele>
        <time>2014-05-04T07:40:56.000Z</time>
      </trkpt>
      <trkpt lat="48.21331" lon="3.26403">
        <ele>78</ele>
        <time>2014-05-04T07:40:57.000Z</time>
      </trkpt>
      <trkpt lat="48.21336" lon="3.26406">
        <ele>75</ele>
        <time>2014-05-04T07:40:58.000Z</time>
      </trkpt>
      <trkpt lat="48.2134" lon="3.26406">
        <ele>75</ele>
        <time>2014-05-04T07:40:59.000Z</time>
      </trkpt>
      <trkpt lat="48.21346" lon="3.26406">
        <ele>75</ele>
        <time>2014-05-04T07:41:00.000Z</time>
      </trkpt>
      <trkpt lat="48.21351" lon="3.26406">
        <ele>76</ele>
        <time>2014-05-04T07:41:01.000Z</time>
      </trkpt>
      <trkpt lat="48.21358" lon="3.26406">
        <ele>76</ele>
        <time>2014-05-04T07:41:02.000Z</time>
      </trkpt>
      <trkpt lat="48.21363" lon="3.26406">
        <ele>76</ele>
        <time>2014-05-04T07:41:03.000Z</time>
      </trkpt>
      <trkpt lat="48.21368" lon="3.26406">
        <ele>76</ele>
        <time>2014-05-04T07:41:04.000Z</time>
      </trkpt>
      <trkpt lat="48.21374" lon="3.26403">
        <ele>76</ele>
        <time>2014-05-04T07:41:05.000Z</time>
      </trkpt>
      <trkpt lat="48.21379" lon="3.26403">
        <ele>76</ele>
        <time>2014-05-04T07:41:06.000Z</time>
      </trkpt>
      <trkpt lat="48.21384" lon="3.26401">
        <ele>76</ele>
        <time>2014-05-04T07:41:07.000Z</time>
      </trkpt>
      <trkpt lat="48.21391" lon="3.26401">
        <ele>75</ele>
        <time>2014-05-04T07:41:08.000Z</time>
      </trkpt>
      <trkpt lat="48.21396" lon="3.26399">
        <ele>75</ele>
        <time>2014-05-04T07:41:09.000Z</time>
      </trkpt>
      <trkpt lat="48.21402" lon="3.26399">
        <ele>74</ele>
        <time>2014-05-04T07:41:10.000Z</time>
      </trkpt>
      <trkpt lat="48.21407" lon="3.26397">
        <ele>74</ele>
        <time>2014-05-04T07:41:11.000Z</time>
      </trkpt>
      <trkpt lat="48.21412" lon="3.26397">
        <ele>74</ele>
        <time>2014-05-04T07:41:12.000Z</time>
      </trkpt>
      <trkpt lat="48.21418" lon="3.26395">
        <ele>71</ele>
        <time>2014-05-04T07:41:13.000Z</time>
      </trkpt>
      <trkpt lat="48.21423" lon="3.26395">
        <ele>71</ele>
        <time>2014-05-04T07:41:14.000Z</time>
      </trkpt>
      <trkpt lat="48.21428" lon="3.26393">
        <ele>71</ele>
        <time>2014-05-04T07:41:15.000Z</time>
      </trkpt>
      <trkpt lat="48.21434" lon="3.26393">
        <ele>71</ele>
        <time>2014-05-04T07:41:16.000Z</time>
      </trkpt>
      <trkpt lat="48.21438" lon="3.26391">
        <ele>71</ele>
        <time>2014-05-04T07:41:17.000Z</time>
      </trkpt>
      <trkpt lat="48.21443" lon="3.26391">
        <ele>71</ele>
        <time>2014-05-04T07:41:18.000Z</time>
      </trkpt>
      <trkpt lat="48.21449" lon="3.26391">
        <ele>71</ele>
        <time>2014-05-04T07:41:19.000Z</time>
      </trkpt>
      <trkpt lat="48.21454" lon="3.26391">
        <ele>71</ele>
        <time>2014-05-04T07:41:20.000Z</time>
      </trkpt>
      <trkpt lat="48.2146" lon="3.26391">
        <ele>71</ele>
        <time>2014-05-04T07:41:21.000Z</time>
      </trkpt>
      <trkpt lat="48.21464" lon="3.26388">
        <ele>71</ele>
        <time>2014-05-04T07:41:22.000Z</time>
      </trkpt>
      <trkpt lat="48.21469" lon="3.26388">
        <ele>71</ele>
        <time>2014-05-04T07:41:23.000Z</time>
      </trkpt>
      <trkpt lat="48.21475" lon="3.26388">
        <ele>71</ele>
        <time>2014-05-04T07:41:24.000Z</time>
      </trkpt>
      <trkpt lat="48.2148" lon="3.26386">
        <ele>71</ele>
        <time>2014-05-04T07:41:25.000Z</time>
      </trkpt>
      <trkpt lat="48.21485" lon="3.26386">
        <ele>70</ele>
        <time>2014-05-04T07:41:26.000Z</time>
      </trkpt>
      <trkpt lat="48.21491" lon="3.26386">
        <ele>70</ele>
        <time>2014-05-04T07:41:27.000Z</time>
      </trkpt>
      <trkpt lat="48.21495" lon="3.26386">
        <ele>70</ele>
        <time>2014-05-04T07:41:28.000Z</time>
      </trkpt>
      <trkpt lat="48.215" lon="3.26386">
        <ele>67</ele>
        <time>2014-05-04T07:41:29.000Z</time>
      </trkpt>
      <trkpt lat="48.21506" lon="3.26384">
        <ele>67</ele>
        <time>2014-05-04T07:41:30.000Z</time>
      </trkpt>
      <trkpt lat="48.21511" lon="3.26384">
        <ele>67</ele>
        <time>2014-05-04T07:41:31.000Z</time>
      </trkpt>
      <trkpt lat="48.21516" lon="3.26382">
        <ele>67</ele>
        <time>2014-05-04T07:41:32.000Z</time>
      </trkpt>
      <trkpt lat="48.21521" lon="3.2638">
        <ele>67</ele>
        <time>2014-05-04T07:41:33.000Z</time>
      </trkpt>
      <trkpt lat="48.21526" lon="3.26378">
        <ele>67</ele>
        <time>2014-05-04T07:41:34.000Z</time>
      </trkpt>
      <trkpt lat="48.21531" lon="3.26375">
        <ele>67</ele>
        <time>2014-05-04T07:41:35.000Z</time>
      </trkpt>
      <trkpt lat="48.21537" lon="3.26373">
        <ele>67</ele>
        <time>2014-05-04T07:41:36.000Z</time>
      </trkpt>
      <trkpt lat="48.21542" lon="3.26371">
        <ele>67</ele>
        <time>2014-05-04T07:41:37.000Z</time>
      </trkpt>
      <trkpt lat="48.21548" lon="3.26369">
        <ele>67</ele>
        <time>2014-05-04T07:41:38.000Z</time>
      </trkpt>
      <trkpt lat="48.21552" lon="3.26365">
        <ele>67</ele>
        <time>2014-05-04T07:41:39.000Z</time>
      </trkpt>
      <trkpt lat="48.21557" lon="3.2636">
        <ele>66</ele>
        <time>2014-05-04T07:41:40.000Z</time>
      </trkpt>
      <trkpt lat="48.21563" lon="3.26358">
        <ele>66</ele>
        <time>2014-05-04T07:41:41.000Z</time>
      </trkpt>
      <trkpt lat="48.21568" lon="3.26354">
        <ele>66</ele>
        <time>2014-05-04T07:41:42.000Z</time>
      </trkpt>
      <trkpt lat="48.21573" lon="3.2635">
        <ele>66</ele>
        <time>2014-05-04T07:41:43.000Z</time>
      </trkpt>
      <trkpt lat="48.21579" lon="3.26345">
        <ele>65</ele>
        <time>2014-05-04T07:41:44.000Z</time>
      </trkpt>
      <trkpt lat="48.21585" lon="3.26343">
        <ele>64</ele>
        <time>2014-05-04T07:41:45.000Z</time>
      </trkpt>
      <trkpt lat="48.2159" lon="3.26339">
        <ele>64</ele>
        <time>2014-05-04T07:41:46.000Z</time>
      </trkpt>
      <trkpt lat="48.21596" lon="3.26339">
        <ele>65</ele>
        <time>2014-05-04T07:41:47.000Z</time>
      </trkpt>
      <trkpt lat="48.21602" lon="3.26339">
        <ele>65</ele>
        <time>2014-05-04T07:41:48.000Z</time>
      </trkpt>
      <trkpt lat="48.21608" lon="3.26339">
        <ele>65</ele>
        <time>2014-05-04T07:41:49.000Z</time>
      </trkpt>
      <trkpt lat="48.21613" lon="3.26337">
        <ele>65</ele>
        <time>2014-05-04T07:41:50.000Z</time>
      </trkpt>
      <trkpt lat="48.21618" lon="3.26335">
        <ele>65</ele>
        <time>2014-05-04T07:41:51.000Z</time>
      </trkpt>
      <trkpt lat="48.21623" lon="3.26328">
        <ele>65</ele>
        <time>2014-05-04T07:41:52.000Z</time>
      </trkpt>
      <trkpt lat="48.21626" lon="3.26322">
        <ele>65</ele>
        <time>2014-05-04T07:41:53.000Z</time>
      </trkpt>
      <trkpt lat="48.21626" lon="3.26315">
        <ele>65</ele>
        <time>2014-05-04T07:41:54.000Z</time>
      </trkpt>
      <trkpt lat="48.21626" lon="3.26309">
        <ele>65</ele>
        <time>2014-05-04T07:41:55.000Z</time>
      </trkpt>
      <trkpt lat="48.21625" lon="3.26305">
        <ele>65</ele>
        <time>2014-05-04T07:41:56.000Z</time>
      </trkpt>
      <trkpt lat="48.21623" lon="3.263">
        <ele>65</ele>
        <time>2014-05-04T07:41:57.000Z</time>
      </trkpt>
      <trkpt lat="48.21617" lon="3.26303">
        <ele>65</ele>
        <time>2014-05-04T07:41:58.000Z</time>
      </trkpt>
      <trkpt lat="48.21612" lon="3.26307">
        <ele>65</ele>
        <time>2014-05-04T07:41:59.000Z</time>
      </trkpt>
      <trkpt lat="48.21608" lon="3.26311">
        <ele>65</ele>
        <time>2014-05-04T07:42:00.000Z</time>
      </trkpt>
      <trkpt lat="48.21603" lon="3.26315">
        <ele>65</ele>
        <time>2014-05-04T07:42:01.000Z</time>
      </trkpt>
      <trkpt lat="48.21599" lon="3.26318">
        <ele>65</ele>
        <time>2014-05-04T07:42:02.000Z</time>
      </trkpt>
      <trkpt lat="48.21594" lon="3.26322">
        <ele>64</ele>
        <time>2014-05-04T07:42:03.000Z</time>
      </trkpt>
      <trkpt lat="48.21589" lon="3.26324">
        <ele>64</ele>
        <time>2014-05-04T07:42:04.000Z</time>
      </trkpt>
      <trkpt lat="48.21584" lon="3.26326">
        <ele>64</ele>
        <time>2014-05-04T07:42:05.000Z</time>
      </trkpt>
      <trkpt lat="48.2158" lon="3.26328">
        <ele>65</ele>
        <time>2014-05-04T07:42:06.000Z</time>
      </trkpt>
      <trkpt lat="48.21575" lon="3.2633">
        <ele>65</ele>
        <time>2014-05-04T07:42:07.000Z</time>
      </trkpt>
      <trkpt lat="48.21571" lon="3.26333">
        <ele>65</ele>
        <time>2014-05-04T07:42:08.000Z</time>
      </trkpt>
      <trkpt lat="48.21567" lon="3.26335">
        <ele>65</ele>
        <time>2014-05-04T07:42:09.000Z</time>
      </trkpt>
      <trkpt lat="48.21563" lon="3.26335">
        <ele>66</ele>
        <time>2014-05-04T07:42:10.000Z</time>
      </trkpt>
      <trkpt lat="48.21558" lon="3.26337">
        <ele>66</ele>
        <time>2014-05-04T07:42:11.000Z</time>
      </trkpt>
      <trkpt lat="48.21554" lon="3.26339">
        <ele>66</ele>
        <time>2014-05-04T07:42:12.000Z</time>
      </trkpt>
      <trkpt lat="48.2155" lon="3.26341">
        <ele>66</ele>
        <time>2014-05-04T07:42:13.000Z</time>
      </trkpt>
      <trkpt lat="48.21545" lon="3.26343">
        <ele>67</ele>
        <time>2014-05-04T07:42:14.000Z</time>
      </trkpt>
      <trkpt lat="48.21541" lon="3.26345">
        <ele>67</ele>
        <time>2014-05-04T07:42:15.000Z</time>
      </trkpt>
      <trkpt lat="48.21537" lon="3.26348">
        <ele>67</ele>
        <time>2014-05-04T07:42:16.000Z</time>
      </trkpt>
      <trkpt lat="48.21531" lon="3.2635">
        <ele>67</ele>
        <time>2014-05-04T07:42:17.000Z</time>
      </trkpt>
      <trkpt lat="48.21527" lon="3.26352">
        <ele>67</ele>
        <time>2014-05-04T07:42:18.000Z</time>
      </trkpt>
      <trkpt lat="48.21523" lon="3.26352">
        <ele>68</ele>
        <time>2014-05-04T07:42:19.000Z</time>
      </trkpt>
      <trkpt lat="48.21517" lon="3.26354">
        <ele>68</ele>
        <time>2014-05-04T07:42:20.000Z</time>
      </trkpt>
      <trkpt lat="48.21513" lon="3.26356">
        <ele>68</ele>
        <time>2014-05-04T07:42:21.000Z</time>
      </trkpt>
      <trkpt lat="48.21509" lon="3.26358">
        <ele>68</ele>
        <time>2014-05-04T07:42:22.000Z</time>
      </trkpt>
      <trkpt lat="48.21504" lon="3.2636">
        <ele>68</ele>
        <time>2014-05-04T07:42:23.000Z</time>
      </trkpt>
      <trkpt lat="48.21499" lon="3.2636">
        <ele>71</ele>
        <time>2014-05-04T07:42:24.000Z</time>
      </trkpt>
      <trkpt lat="48.21494" lon="3.26363">
        <ele>71</ele>
        <time>2014-05-04T07:42:25.000Z</time>
      </trkpt>
      <trkpt lat="48.21488" lon="3.26365">
        <ele>71</ele>
        <time>2014-05-04T07:42:26.000Z</time>
      </trkpt>
      <trkpt lat="48.21483" lon="3.26367">
        <ele>71</ele>
        <time>2014-05-04T07:42:27.000Z</time>
      </trkpt>
      <trkpt lat="48.21478" lon="3.26367">
        <ele>71</ele>
        <time>2014-05-04T07:42:28.000Z</time>
      </trkpt>
      <trkpt lat="48.21472" lon="3.26369">
        <ele>71</ele>
        <time>2014-05-04T07:42:29.000Z</time>
      </trkpt>
      <trkpt lat="48.21467" lon="3.26369">
        <ele>72</ele>
        <time>2014-05-04T07:42:30.000Z</time>
      </trkpt>
      <trkpt lat="48.21462" lon="3.26371">
        <ele>72</ele>
        <time>2014-05-04T07:42:31.000Z</time>
      </trkpt>
      <trkpt lat="48.21455" lon="3.26373">
        <ele>72</ele>
        <time>2014-05-04T07:42:32.000Z</time>
      </trkpt>
      <trkpt lat="48.2145" lon="3.26375">
        <ele>72</ele>
        <time>2014-05-04T07:42:33.000Z</time>
      </trkpt>
      <trkpt lat="48.21445" lon="3.26375">
        <ele>72</ele>
        <time>2014-05-04T07:42:34.000Z</time>
      </trkpt>
      <trkpt lat="48.21438" lon="3.26378">
        <ele>72</ele>
        <time>2014-05-04T07:42:35.000Z</time>
      </trkpt>
      <trkpt lat="48.21433" lon="3.2638">
        <ele>72</ele>
        <time>2014-05-04T07:42:36.000Z</time>
      </trkpt>
      <trkpt lat="48.21426" lon="3.26382">
        <ele>72</ele>
        <time>2014-05-04T07:42:37.000Z</time>
      </trkpt>
      <trkpt lat="48.21419" lon="3.26382">
        <ele>72</ele>
        <time>2014-05-04T07:42:38.000Z</time>
      </trkpt>
      <trkpt lat="48.21412" lon="3.26382">
        <ele>76</ele>
        <time>2014-05-04T07:42:39.000Z</time>
      </trkpt>
      <trkpt lat="48.21406" lon="3.26384">
        <ele>76</ele>
        <time>2014-05-04T07:42:40.000Z</time>
      </trkpt>
      <trkpt lat="48.21399" lon="3.26384">
        <ele>76</ele>
        <time>2014-05-04T07:42:41.000Z</time>
      </trkpt>
      <trkpt lat="48.21393" lon="3.26384">
        <ele>77</ele>
        <time>2014-05-04T07:42:42.000Z</time>
      </trkpt>
      <trkpt lat="48.21387" lon="3.26384">
        <ele>77</ele>
        <time>2014-05-04T07:42:43.000Z</time>
      </trkpt>
      <trkpt lat="48.2138" lon="3.26384">
        <ele>77</ele>
        <time>2014-05-04T07:42:44.000Z</time>
      </trkpt>
      <trkpt lat="48.21374" lon="3.26384">
        <ele>77</ele>
        <time>2014-05-04T07:42:45.000Z</time>
      </trkpt>
      <trkpt lat="48.21367" lon="3.26384">
        <ele>77</ele>
        <time>2014-05-04T07:42:46.000Z</time>
      </trkpt>
      <trkpt lat="48.21361" lon="3.26384">
        <ele>78</ele>
        <time>2014-05-04T07:42:47.000Z</time>
      </trkpt>
      <trkpt lat="48.21355" lon="3.26386">
        <ele>78</ele>
        <time>2014-05-04T07:42:48.000Z</time>
      </trkpt>
      <trkpt lat="48.21349" lon="3.26384">
        <ele>78</ele>
        <time>2014-05-04T07:42:49.000Z</time>
      </trkpt>
      <trkpt lat="48.21343" lon="3.26384">
        <ele>78</ele>
        <time>2014-05-04T07:42:50.000Z</time>
      </trkpt>
      <trkpt lat="48.21337" lon="3.26384">
        <ele>78</ele>
        <time>2014-05-04T07:42:51.000Z</time>
      </trkpt>
      <trkpt lat="48.21331" lon="3.26384">
        <ele>82</ele>
        <time>2014-05-04T07:42:52.000Z</time>
      </trkpt>
      <trkpt lat="48.21325" lon="3.26382">
        <ele>83</ele>
        <time>2014-05-04T07:42:53.000Z</time>
      </trkpt>
      <trkpt lat="48.21319" lon="3.2638">
        <ele>83</ele>
        <time>2014-05-04T07:42:54.000Z</time>
      </trkpt>
      <trkpt lat="48.21314" lon="3.2638">
        <ele>84</ele>
        <time>2014-05-04T07:42:55.000Z</time>
      </trkpt>
      <trkpt lat="48.21308" lon="3.26378">
        <ele>84</ele>
        <time>2014-05-04T07:42:56.000Z</time>
      </trkpt>
      <trkpt lat="48.21302" lon="3.26375">
        <ele>85</ele>
        <time>2014-05-04T07:42:57.000Z</time>
      </trkpt>
      <trkpt lat="48.21296" lon="3.26375">
        <ele>85</ele>
        <time>2014-05-04T07:42:58.000Z</time>
      </trkpt>
      <trkpt lat="48.2129" lon="3.26373">
        <ele>86</ele>
        <time>2014-05-04T07:42:59.000Z</time>
      </trkpt>
      <trkpt lat="48.21285" lon="3.26373">
        <ele>86</ele>
        <time>2014-05-04T07:43:00.000Z</time>
      </trkpt>
      <trkpt lat="48.21278" lon="3.26373">
        <ele>86</ele>
        <time>2014-05-04T07:43:01.000Z</time>
      </trkpt>
      <trkpt lat="48.21273" lon="3.26373">
        <ele>86</ele>
        <time>2014-05-04T07:43:02.000Z</time>
      </trkpt>
      <trkpt lat="48.21266" lon="3.26375">
        <ele>86</ele>
        <time>2014-05-04T07:43:03.000Z</time>
      </trkpt>
      <trkpt lat="48.21261" lon="3.26378">
        <ele>86</ele>
        <time>2014-05-04T07:43:04.000Z</time>
      </trkpt>
      <trkpt lat="48.21256" lon="3.2638">
        <ele>86</ele>
        <time>2014-05-04T07:43:05.000Z</time>
      </trkpt>
      <trkpt lat="48.2125" lon="3.26384">
        <ele>86</ele>
        <time>2014-05-04T07:43:06.000Z</time>
      </trkpt>
      <trkpt lat="48.21245" lon="3.26386">
        <ele>90</ele>
        <time>2014-05-04T07:43:07.000Z</time>
      </trkpt>
      <trkpt lat="48.21241" lon="3.26388">
        <ele>89</ele>
        <time>2014-05-04T07:43:08.000Z</time>
      </trkpt>
      <trkpt lat="48.21236" lon="3.26391">
        <ele>89</ele>
        <time>2014-05-04T07:43:09.000Z</time>
      </trkpt>
      <trkpt lat="48.21234" lon="3.26395">
        <ele>89</ele>
        <time>2014-05-04T07:43:10.000Z</time>
      </trkpt>
      <trkpt lat="48.21232" lon="3.26401">
        <ele>88</ele>
        <time>2014-05-04T07:43:11.000Z</time>
      </trkpt>
      <trkpt lat="48.21231" lon="3.26408">
        <ele>87</ele>
        <time>2014-05-04T07:43:14.000Z</time>
      </trkpt>
      <trkpt lat="48.21228" lon="3.26421">
        <ele>79</ele>
        <time>2014-05-04T07:43:15.000Z</time>
      </trkpt>
      <trkpt lat="48.21228" lon="3.26421">
        <ele>79</ele>
        <time>2014-05-04T07:43:18.000Z</time>
      </trkpt>
      <trkpt lat="48.21225" lon="3.26433">
        <ele>78</ele>
        <time>2014-05-04T07:43:19.000Z</time>
      </trkpt>
      <trkpt lat="48.21225" lon="3.26433">
        <ele>78</ele>
        <time>2014-05-04T07:43:23.000Z</time>
      </trkpt>
      <trkpt lat="48.21229" lon="3.26446">
        <ele>77</ele>
        <time>2014-05-04T07:43:24.000Z</time>
      </trkpt>
      <trkpt lat="48.21229" lon="3.26446">
        <ele>77</ele>
        <time>2014-05-04T07:43:29.000Z</time>
      </trkpt>
      <trkpt lat="48.21239" lon="3.2644">
        <ele>77</ele>
        <time>2014-05-04T07:43:30.000Z</time>
      </trkpt>
      <trkpt lat="48.21239" lon="3.2644">
        <ele>77</ele>
        <time>2014-05-04T07:43:34.000Z</time>
      </trkpt>
      <trkpt lat="48.21247" lon="3.26429">
        <ele>79</ele>
        <time>2014-05-04T07:43:35.000Z</time>
      </trkpt>
      <trkpt lat="48.21249" lon="3.26425">
        <ele>80</ele>
        <time>2014-05-04T07:44:05.000Z</time>
      </trkpt>
      <trkpt lat="48.21252" lon="3.26427">
        <ele>78</ele>
        <time>2014-05-04T07:44:06.000Z</time>
      </trkpt>
      <trkpt lat="48.21255" lon="3.26425">
        <ele>78</ele>
        <time>2014-05-04T07:44:07.000Z</time>
      </trkpt>
      <trkpt lat="48.21258" lon="3.26425">
        <ele>77</ele>
        <time>2014-05-04T07:44:08.000Z</time>
      </trkpt>
      <trkpt lat="48.2126" lon="3.26423">
        <ele>77</ele>
        <time>2014-05-04T07:44:09.000Z</time>
      </trkpt>
      <trkpt lat="48.21263" lon="3.26418">
        <ele>77</ele>
        <time>2014-05-04T07:44:10.000Z</time>
      </trkpt>
      <trkpt lat="48.21265" lon="3.26416">
        <ele>83</ele>
        <time>2014-05-04T07:44:11.000Z</time>
      </trkpt>
      <trkpt lat="48.2127" lon="3.26414">
        <ele>83</ele>
        <time>2014-05-04T07:44:12.000Z</time>
      </trkpt>
      <trkpt lat="48.21273" lon="3.26412">
        <ele>83</ele>
        <time>2014-05-04T07:44:13.000Z</time>
      </trkpt>
      <trkpt lat="48.21277" lon="3.2641">
        <ele>83</ele>
        <time>2014-05-04T07:44:14.000Z</time>
      </trkpt>
      <trkpt lat="48.21281" lon="3.26408">
        <ele>83</ele>
        <time>2014-05-04T07:44:15.000Z</time>
      </trkpt>
      <trkpt lat="48.21286" lon="3.26406">
        <ele>83</ele>
        <time>2014-05-04T07:44:16.000Z</time>
      </trkpt>
      <trkpt lat="48.21291" lon="3.26406">
        <ele>83</ele>
        <time>2014-05-04T07:44:17.000Z</time>
      </trkpt>
      <trkpt lat="48.21295" lon="3.26406">
        <ele>82</ele>
        <time>2014-05-04T07:44:18.000Z</time>
      </trkpt>
      <trkpt lat="48.21301" lon="3.26406">
        <ele>82</ele>
        <time>2014-05-04T07:44:19.000Z</time>
      </trkpt>
      <trkpt lat="48.21304" lon="3.26406">
        <ele>82</ele>
        <time>2014-05-04T07:44:20.000Z</time>
      </trkpt>
      <trkpt lat="48.21308" lon="3.26406">
        <ele>81</ele>
        <time>2014-05-04T07:44:21.000Z</time>
      </trkpt>
      <trkpt lat="48.21311" lon="3.26406">
        <ele>81</ele>
        <time>2014-05-04T07:44:22.000Z</time>
      </trkpt>
      <trkpt lat="48.21315" lon="3.26406">
        <ele>80</ele>
        <time>2014-05-04T07:44:23.000Z</time>
      </trkpt>
      <trkpt lat="48.21317" lon="3.26406">
        <ele>80</ele>
        <time>2014-05-04T07:44:37.000Z</time>
      </trkpt>
      <trkpt lat="48.21314" lon="3.26393">
        <ele>82</ele>
        <time>2014-05-04T07:44:38.000Z</time>
      </trkpt>
      <trkpt lat="48.21314" lon="3.26393">
        <ele>82</ele>
        <time>2014-05-04T07:44:48.000Z</time>
      </trkpt>
      <trkpt lat="48.21306" lon="3.26401">
        <ele>82</ele>
        <time>2014-05-04T07:44:49.000Z</time>
      </trkpt>
      <trkpt lat="48.21306" lon="3.26401">
        <ele>82</ele>
        <time>2014-05-04T07:45:03.000Z</time>
      </trkpt>
      <trkpt lat="48.21299" lon="3.26408">
        <ele>82</ele>
        <time>2014-05-04T07:45:04.000Z</time>
      </trkpt>
      <trkpt lat="48.21299" lon="3.26408">
        <ele>82</ele>
        <time>2014-05-04T07:46:28.000Z</time>
      </trkpt>
      <trkpt lat="48.2129" lon="3.2641">
        <ele>83</ele>
        <time>2014-05-04T07:46:29.000Z</time>
      </trkpt>
      <trkpt lat="48.2129" lon="3.2641">
        <ele>83</ele>
        <time>2014-05-04T07:46:33.000Z</time>
      </trkpt>
      <trkpt lat="48.2128" lon="3.26399">
        <ele>84</ele>
        <time>2014-05-04T07:46:34.000Z</time>
      </trkpt>
      <trkpt lat="48.2128" lon="3.26399">
        <ele>84</ele>
        <time>2014-05-04T07:46:35.000Z</time>
      </trkpt>
      <trkpt lat="48.21271" lon="3.26395">
        <ele>84</ele>
        <time>2014-05-04T07:46:36.000Z</time>
      </trkpt>
      <trkpt lat="48.21266" lon="3.26393">
        <ele>84</ele>
        <time>2014-05-04T07:46:37.000Z</time>
      </trkpt>
      <trkpt lat="48.21262" lon="3.26395">
        <ele>84</ele>
        <time>2014-05-04T07:46:38.000Z</time>
      </trkpt>
      <trkpt lat="48.21258" lon="3.26395">
        <ele>84</ele>
        <time>2014-05-04T07:46:39.000Z</time>
      </trkpt>
      <trkpt lat="48.21255" lon="3.26397">
        <ele>84</ele>
        <time>2014-05-04T07:46:40.000Z</time>
      </trkpt>
      <trkpt lat="48.21251" lon="3.26399">
        <ele>84</ele>
        <time>2014-05-04T07:46:41.000Z</time>
      </trkpt>
      <trkpt lat="48.21247" lon="3.26401">
        <ele>86</ele>
        <time>2014-05-04T07:46:42.000Z</time>
      </trkpt>
      <trkpt lat="48.21244" lon="3.26406">
        <ele>86</ele>
        <time>2014-05-04T07:46:43.000Z</time>
      </trkpt>
      <trkpt lat="48.21241" lon="3.26408">
        <ele>86</ele>
        <time>2014-05-04T07:46:44.000Z</time>
      </trkpt>
      <trkpt lat="48.21237" lon="3.26412">
        <ele>86</ele>
        <time>2014-05-04T07:46:45.000Z</time>
      </trkpt>
      <trkpt lat="48.21234" lon="3.26414">
        <ele>86</ele>
        <time>2014-05-04T07:46:46.000Z</time>
      </trkpt>
      <trkpt lat="48.2123" lon="3.26418">
        <ele>79</ele>
        <time>2014-05-04T07:46:47.000Z</time>
      </trkpt>
      <trkpt lat="48.21227" lon="3.26423">
        <ele>78</ele>
        <time>2014-05-04T07:46:48.000Z</time>
      </trkpt>
      <trkpt lat="48.21222" lon="3.26427">
        <ele>78</ele>
        <time>2014-05-04T07:46:49.000Z</time>
      </trkpt>
      <trkpt lat="48.21217" lon="3.26433">
        <ele>78</ele>
        <time>2014-05-04T07:46:50.000Z</time>
      </trkpt>
      <trkpt lat="48.21212" lon="3.2644">
        <ele>77</ele>
        <time>2014-05-04T07:46:51.000Z</time>
      </trkpt>
      <trkpt lat="48.21206" lon="3.26446">
        <ele>77</ele>
        <time>2014-05-04T07:46:52.000Z</time>
      </trkpt>
      <trkpt lat="48.21201" lon="3.26453">
        <ele>77</ele>
        <time>2014-05-04T07:46:53.000Z</time>
      </trkpt>
      <trkpt lat="48.21196" lon="3.26459">
        <ele>76</ele>
        <time>2014-05-04T07:46:54.000Z</time>
      </trkpt>
      <trkpt lat="48.21189" lon="3.26468">
        <ele>75</ele>
        <time>2014-05-04T07:46:55.000Z</time>
      </trkpt>
      <trkpt lat="48.21182" lon="3.26472">
        <ele>74</ele>
        <time>2014-05-04T07:46:56.000Z</time>
      </trkpt>
      <trkpt lat="48.21174" lon="3.26478">
        <ele>73</ele>
        <time>2014-05-04T07:46:57.000Z</time>
      </trkpt>
      <trkpt lat="48.21167" lon="3.26485">
        <ele>73</ele>
        <time>2014-05-04T07:46:58.000Z</time>
      </trkpt>
      <trkpt lat="48.21159" lon="3.26491">
        <ele>72</ele>
        <time>2014-05-04T07:46:59.000Z</time>
      </trkpt>
      <trkpt lat="48.21151" lon="3.26498">
        <ele>73</ele>
        <time>2014-05-04T07:47:00.000Z</time>
      </trkpt>
      <trkpt lat="48.21141" lon="3.26504">
        <ele>67</ele>
        <time>2014-05-04T07:47:01.000Z</time>
      </trkpt>
      <trkpt lat="48.21132" lon="3.26509">
        <ele>67</ele>
        <time>2014-05-04T07:47:02.000Z</time>
      </trkpt>
      <trkpt lat="48.21124" lon="3.26515">
        <ele>67</ele>
        <time>2014-05-04T07:47:03.000Z</time>
      </trkpt>
      <trkpt lat="48.21114" lon="3.26519">
        <ele>67</ele>
        <time>2014-05-04T07:47:04.000Z</time>
      </trkpt>
      <trkpt lat="48.21105" lon="3.26524">
        <ele>67</ele>
        <time>2014-05-04T07:47:05.000Z</time>
      </trkpt>
      <trkpt lat="48.21095" lon="3.26528">
        <ele>67</ele>
        <time>2014-05-04T07:47:06.000Z</time>
      </trkpt>
      <trkpt lat="48.21085" lon="3.26532">
        <ele>67</ele>
        <time>2014-05-04T07:47:07.000Z</time>
      </trkpt>
      <trkpt lat="48.21075" lon="3.26536">
        <ele>67</ele>
        <time>2014-05-04T07:47:08.000Z</time>
      </trkpt>
      <trkpt lat="48.21066" lon="3.26541">
        <ele>67</ele>
        <time>2014-05-04T07:47:09.000Z</time>
      </trkpt>
      <trkpt lat="48.21055" lon="3.26545">
        <ele>67</ele>
        <time>2014-05-04T07:47:10.000Z</time>
      </trkpt>
      <trkpt lat="48.21045" lon="3.26547">
        <ele>66</ele>
        <time>2014-05-04T07:47:11.000Z</time>
      </trkpt>
      <trkpt lat="48.21036" lon="3.26551">
        <ele>66</ele>
        <time>2014-05-04T07:47:12.000Z</time>
      </trkpt>
      <trkpt lat="48.21025" lon="3.26554">
        <ele>66</ele>
        <time>2014-05-04T07:47:13.000Z</time>
      </trkpt>
      <trkpt lat="48.21015" lon="3.26554">
        <ele>66</ele>
        <time>2014-05-04T07:47:14.000Z</time>
      </trkpt>
      <trkpt lat="48.21007" lon="3.26556">
        <ele>66</ele>
        <time>2014-05-04T07:47:15.000Z</time>
      </trkpt>
      <trkpt lat="48.20997" lon="3.26556">
        <ele>65</ele>
        <time>2014-05-04T07:47:16.000Z</time>
      </trkpt>
      <trkpt lat="48.20989" lon="3.26556">
        <ele>65</ele>
        <time>2014-05-04T07:47:17.000Z</time>
      </trkpt>
      <trkpt lat="48.20979" lon="3.26556">
        <ele>65</ele>
        <time>2014-05-04T07:47:18.000Z</time>
      </trkpt>
      <trkpt lat="48.20971" lon="3.26556">
        <ele>65</ele>
        <time>2014-05-04T07:47:19.000Z</time>
      </trkpt>
      <trkpt lat="48.20963" lon="3.26556">
        <ele>65</ele>
        <time>2014-05-04T07:47:20.000Z</time>
      </trkpt>
      <trkpt lat="48.20956" lon="3.26558">
        <ele>65</ele>
        <time>2014-05-04T07:47:21.000Z</time>
      </trkpt>
      <trkpt lat="48.2095" lon="3.26562">
        <ele>65</ele>
        <time>2014-05-04T07:47:22.000Z</time>
      </trkpt>
      <trkpt lat="48.20945" lon="3.26569">
        <ele>65</ele>
        <time>2014-05-04T07:47:23.000Z</time>
      </trkpt>
      <trkpt lat="48.2094" lon="3.26575">
        <ele>65</ele>
        <time>2014-05-04T07:47:24.000Z</time>
      </trkpt>
      <trkpt lat="48.20936" lon="3.26584">
        <ele>65</ele>
        <time>2014-05-04T07:47:25.000Z</time>
      </trkpt>
      <trkpt lat="48.20934" lon="3.26594">
        <ele>65</ele>
        <time>2014-05-04T07:47:26.000Z</time>
      </trkpt>
      <trkpt lat="48.20933" lon="3.26607">
        <ele>65</ele>
        <time>2014-05-04T07:47:27.000Z</time>
      </trkpt>
      <trkpt lat="48.20932" lon="3.2662">
        <ele>65</ele>
        <time>2014-05-04T07:47:28.000Z</time>
      </trkpt>
      <trkpt lat="48.20931" lon="3.26631">
        <ele>65</ele>
        <time>2014-05-04T07:47:29.000Z</time>
      </trkpt>
      <trkpt lat="48.20931" lon="3.26642">
        <ele>65</ele>
        <time>2014-05-04T07:47:30.000Z</time>
      </trkpt>
      <trkpt lat="48.20931" lon="3.26652">
        <ele>65</ele>
        <time>2014-05-04T07:47:31.000Z</time>
      </trkpt>
      <trkpt lat="48.20931" lon="3.26663">
        <ele>66</ele>
        <time>2014-05-04T07:47:32.000Z</time>
      </trkpt>
      <trkpt lat="48.2093" lon="3.26672">
        <ele>65</ele>
        <time>2014-05-04T07:47:33.000Z</time>
      </trkpt>
      <trkpt lat="48.20931" lon="3.2668">
        <ele>65</ele>
        <time>2014-05-04T07:47:34.000Z</time>
      </trkpt>
      <trkpt lat="48.2093" lon="3.26689">
        <ele>65</ele>
        <time>2014-05-04T07:47:35.000Z</time>
      </trkpt>
      <trkpt lat="48.20928" lon="3.26695">
        <ele>65</ele>
        <time>2014-05-04T07:47:36.000Z</time>
      </trkpt>
      <trkpt lat="48.20926" lon="3.26704">
        <ele>65</ele>
        <time>2014-05-04T07:47:37.000Z</time>
      </trkpt>
      <trkpt lat="48.20924" lon="3.2671">
        <ele>65</ele>
        <time>2014-05-04T07:47:38.000Z</time>
      </trkpt>
      <trkpt lat="48.20922" lon="3.26717">
        <ele>65</ele>
        <time>2014-05-04T07:47:39.000Z</time>
      </trkpt>
      <trkpt lat="48.20919" lon="3.26723">
        <ele>65</ele>
        <time>2014-05-04T07:47:40.000Z</time>
      </trkpt>
      <trkpt lat="48.20916" lon="3.2673">
        <ele>65</ele>
        <time>2014-05-04T07:47:41.000Z</time>
      </trkpt>
      <trkpt lat="48.20912" lon="3.26736">
        <ele>64</ele>
        <time>2014-05-04T07:47:42.000Z</time>
      </trkpt>
      <trkpt lat="48.20908" lon="3.26742">
        <ele>64</ele>
        <time>2014-05-04T07:47:43.000Z</time>
      </trkpt>
      <trkpt lat="48.20904" lon="3.26749">
        <ele>64</ele>
        <time>2014-05-04T07:47:44.000Z</time>
      </trkpt>
      <trkpt lat="48.20899" lon="3.26753">
        <ele>64</ele>
        <time>2014-05-04T07:47:45.000Z</time>
      </trkpt>
      <trkpt lat="48.20895" lon="3.2676">
        <ele>64</ele>
        <time>2014-05-04T07:47:46.000Z</time>
      </trkpt>
      <trkpt lat="48.20891" lon="3.26766">
        <ele>64</ele>
        <time>2014-05-04T07:47:47.000Z</time>
      </trkpt>
      <trkpt lat="48.20888" lon="3.2677">
        <ele>64</ele>
        <time>2014-05-04T07:47:48.000Z</time>
      </trkpt>
      <trkpt lat="48.20883" lon="3.26777">
        <ele>64</ele>
        <time>2014-05-04T07:47:49.000Z</time>
      </trkpt>
      <trkpt lat="48.20879" lon="3.26781">
        <ele>64</ele>
        <time>2014-05-04T07:47:50.000Z</time>
      </trkpt>
      <trkpt lat="48.20875" lon="3.26787">
        <ele>65</ele>
        <time>2014-05-04T07:47:51.000Z</time>
      </trkpt>
      <trkpt lat="48.20871" lon="3.26792">
        <ele>65</ele>
        <time>2014-05-04T07:47:52.000Z</time>
      </trkpt>
      <trkpt lat="48.20866" lon="3.26798">
        <ele>65</ele>
        <time>2014-05-04T07:47:53.000Z</time>
      </trkpt>
      <trkpt lat="48.20862" lon="3.26802">
        <ele>65</ele>
        <time>2014-05-04T07:47:54.000Z</time>
      </trkpt>
      <trkpt lat="48.20858" lon="3.26809">
        <ele>65</ele>
        <time>2014-05-04T07:47:55.000Z</time>
      </trkpt>
      <trkpt lat="48.20854" lon="3.26815">
        <ele>65</ele>
        <time>2014-05-04T07:47:56.000Z</time>
      </trkpt>
      <trkpt lat="48.2085" lon="3.26822">
        <ele>65</ele>
        <time>2014-05-04T07:47:57.000Z</time>
      </trkpt>
      <trkpt lat="48.20846" lon="3.26828">
        <ele>65</ele>
        <time>2014-05-04T07:47:58.000Z</time>
      </trkpt>
      <trkpt lat="48.20842" lon="3.26835">
        <ele>65</ele>
        <time>2014-05-04T07:47:59.000Z</time>
      </trkpt>
      <trkpt lat="48.20838" lon="3.26841">
        <ele>65</ele>
        <time>2014-05-04T07:48:00.000Z</time>
      </trkpt>
      <trkpt lat="48.20834" lon="3.2685">
        <ele>65</ele>
        <time>2014-05-04T07:48:01.000Z</time>
      </trkpt>
      <trkpt lat="48.2083" lon="3.26856">
        <ele>65</ele>
        <time>2014-05-04T07:48:02.000Z</time>
      </trkpt>
      <trkpt lat="48.20825" lon="3.26863">
        <ele>65</ele>
        <time>2014-05-04T07:48:03.000Z</time>
      </trkpt>
      <trkpt lat="48.20821" lon="3.26869">
        <ele>65</ele>
        <time>2014-05-04T07:48:04.000Z</time>
      </trkpt>
      <trkpt lat="48.20816" lon="3.26878">
        <ele>66</ele>
        <time>2014-05-04T07:48:05.000Z</time>
      </trkpt>
      <trkpt lat="48.20812" lon="3.26884">
        <ele>66</ele>
        <time>2014-05-04T07:48:06.000Z</time>
      </trkpt>
      <trkpt lat="48.20806" lon="3.2689">
        <ele>66</ele>
        <time>2014-05-04T07:48:07.000Z</time>
      </trkpt>
      <trkpt lat="48.20802" lon="3.26897">
        <ele>66</ele>
        <time>2014-05-04T07:48:08.000Z</time>
      </trkpt>
      <trkpt lat="48.20796" lon="3.26905">
        <ele>66</ele>
        <time>2014-05-04T07:48:09.000Z</time>
      </trkpt>
      <trkpt lat="48.20791" lon="3.26912">
        <ele>65</ele>
        <time>2014-05-04T07:48:10.000Z</time>
      </trkpt>
      <trkpt lat="48.20787" lon="3.26918">
        <ele>65</ele>
        <time>2014-05-04T07:48:11.000Z</time>
      </trkpt>
      <trkpt lat="48.20781" lon="3.26925">
        <ele>65</ele>
        <time>2014-05-04T07:48:12.000Z</time>
      </trkpt>
      <trkpt lat="48.20776" lon="3.26933">
        <ele>65</ele>
        <time>2014-05-04T07:48:13.000Z</time>
      </trkpt>
      <trkpt lat="48.20771" lon="3.2694">
        <ele>64</ele>
        <time>2014-05-04T07:48:14.000Z</time>
      </trkpt>
      <trkpt lat="48.20764" lon="3.26948">
        <ele>64</ele>
        <time>2014-05-04T07:48:15.000Z</time>
      </trkpt>
      <trkpt lat="48.20759" lon="3.26955">
        <ele>64</ele>
        <time>2014-05-04T07:48:16.000Z</time>
      </trkpt>
      <trkpt lat="48.20754" lon="3.26961">
        <ele>64</ele>
        <time>2014-05-04T07:48:17.000Z</time>
      </trkpt>
      <trkpt lat="48.20748" lon="3.2697">
        <ele>64</ele>
        <time>2014-05-04T07:48:18.000Z</time>
      </trkpt>
      <trkpt lat="48.20742" lon="3.26976">
        <ele>64</ele>
        <time>2014-05-04T07:48:19.000Z</time>
      </trkpt>
      <trkpt lat="48.20736" lon="3.26983">
        <ele>64</ele>
        <time>2014-05-04T07:48:20.000Z</time>
      </trkpt>
      <trkpt lat="48.2073" lon="3.26989">
        <ele>64</ele>
        <time>2014-05-04T07:48:21.000Z</time>
      </trkpt>
      <trkpt lat="48.20724" lon="3.26996">
        <ele>64</ele>
        <time>2014-05-04T07:48:22.000Z</time>
      </trkpt>
      <trkpt lat="48.20718" lon="3.27002">
        <ele>64</ele>
        <time>2014-05-04T07:48:23.000Z</time>
      </trkpt>
      <trkpt lat="48.20712" lon="3.27008">
        <ele>65</ele>
        <time>2014-05-04T07:48:24.000Z</time>
      </trkpt>
      <trkpt lat="48.20705" lon="3.27013">
        <ele>65</ele>
        <time>2014-05-04T07:48:25.000Z</time>
      </trkpt>
      <trkpt lat="48.207" lon="3.27019">
        <ele>65</ele>
        <time>2014-05-04T07:48:26.000Z</time>
      </trkpt>
      <trkpt lat="48.20693" lon="3.27026">
        <ele>65</ele>
        <time>2014-05-04T07:48:27.000Z</time>
      </trkpt>
      <trkpt lat="48.20688" lon="3.27032">
        <ele>65</ele>
        <time>2014-05-04T07:48:28.000Z</time>
      </trkpt>
      <trkpt lat="48.20683" lon="3.27039">
        <ele>65</ele>
        <time>2014-05-04T07:48:29.000Z</time>
      </trkpt>
      <trkpt lat="48.20677" lon="3.27043">
        <ele>65</ele>
        <time>2014-05-04T07:48:30.000Z</time>
      </trkpt>
      <trkpt lat="48.20671" lon="3.27049">
        <ele>65</ele>
        <time>2014-05-04T07:48:31.000Z</time>
      </trkpt>
      <trkpt lat="48.20666" lon="3.27054">
        <ele>66</ele>
        <time>2014-05-04T07:48:32.000Z</time>
      </trkpt>
      <trkpt lat="48.2066" lon="3.2706">
        <ele>66</ele>
        <time>2014-05-04T07:48:33.000Z</time>
      </trkpt>
      <trkpt lat="48.20656" lon="3.27064">
        <ele>66</ele>
        <time>2014-05-04T07:48:34.000Z</time>
      </trkpt>
      <trkpt lat="48.20652" lon="3.27071">
        <ele>66</ele>
        <time>2014-05-04T07:48:35.000Z</time>
      </trkpt>
      <trkpt lat="48.20647" lon="3.27075">
        <ele>66</ele>
        <time>2014-05-04T07:48:36.000Z</time>
      </trkpt>
      <trkpt lat="48.20643" lon="3.27079">
        <ele>66</ele>
        <time>2014-05-04T07:48:37.000Z</time>
      </trkpt>
      <trkpt lat="48.20639" lon="3.27084">
        <ele>66</ele>
        <time>2014-05-04T07:48:38.000Z</time>
      </trkpt>
      <trkpt lat="48.20634" lon="3.27088">
        <ele>66</ele>
        <time>2014-05-04T07:48:39.000Z</time>
      </trkpt>
      <trkpt lat="48.20629" lon="3.2709">
        <ele>66</ele>
        <time>2014-05-04T07:48:40.000Z</time>
      </trkpt>
      <trkpt lat="48.20624" lon="3.27094">
        <ele>66</ele>
        <time>2014-05-04T07:48:41.000Z</time>
      </trkpt>
      <trkpt lat="48.20618" lon="3.27096">
        <ele>66</ele>
        <time>2014-05-04T07:48:42.000Z</time>
      </trkpt>
      <trkpt lat="48.20612" lon="3.27099">
        <ele>66</ele>
        <time>2014-05-04T07:48:43.000Z</time>
      </trkpt>
      <trkpt lat="48.20606" lon="3.27101">
        <ele>66</ele>
        <time>2014-05-04T07:48:44.000Z</time>
      </trkpt>
      <trkpt lat="48.20599" lon="3.27103">
        <ele>66</ele>
        <time>2014-05-04T07:48:45.000Z</time>
      </trkpt>
      <trkpt lat="48.20593" lon="3.27105">
        <ele>66</ele>
        <time>2014-05-04T07:48:46.000Z</time>
      </trkpt>
      <trkpt lat="48.20586" lon="3.27107">
        <ele>66</ele>
        <time>2014-05-04T07:48:47.000Z</time>
      </trkpt>
      <trkpt lat="48.2058" lon="3.27109">
        <ele>66</ele>
        <time>2014-05-04T07:48:48.000Z</time>
      </trkpt>
      <trkpt lat="48.20573" lon="3.27111">
        <ele>66</ele>
        <time>2014-05-04T07:48:49.000Z</time>
      </trkpt>
      <trkpt lat="48.20567" lon="3.27114">
        <ele>66</ele>
        <time>2014-05-04T07:48:50.000Z</time>
      </trkpt>
      <trkpt lat="48.20559" lon="3.27116">
        <ele>66</ele>
        <time>2014-05-04T07:48:51.000Z</time>
      </trkpt>
      <trkpt lat="48.20553" lon="3.27116">
        <ele>66</ele>
        <time>2014-05-04T07:48:52.000Z</time>
      </trkpt>
      <trkpt lat="48.20547" lon="3.27118">
        <ele>66</ele>
        <time>2014-05-04T07:48:53.000Z</time>
      </trkpt>
      <trkpt lat="48.2054" lon="3.2712">
        <ele>66</ele>
        <time>2014-05-04T07:48:54.000Z</time>
      </trkpt>
      <trkpt lat="48.20534" lon="3.27122">
        <ele>66</ele>
        <time>2014-05-04T07:48:55.000Z</time>
      </trkpt>
      <trkpt lat="48.20527" lon="3.27122">
        <ele>66</ele>
        <time>2014-05-04T07:48:56.000Z</time>
      </trkpt>
      <trkpt lat="48.20521" lon="3.27124">
        <ele>66</ele>
        <time>2014-05-04T07:48:57.000Z</time>
      </trkpt>
      <trkpt lat="48.20514" lon="3.27127">
        <ele>65</ele>
        <time>2014-05-04T07:48:58.000Z</time>
      </trkpt>
      <trkpt lat="48.20509" lon="3.27129">
        <ele>65</ele>
        <time>2014-05-04T07:48:59.000Z</time>
      </trkpt>
      <trkpt lat="48.20503" lon="3.27131">
        <ele>65</ele>
        <time>2014-05-04T07:49:00.000Z</time>
      </trkpt>
      <trkpt lat="48.20496" lon="3.27133">
        <ele>65</ele>
        <time>2014-05-04T07:49:01.000Z</time>
      </trkpt>
      <trkpt lat="48.2049" lon="3.27135">
        <ele>65</ele>
        <time>2014-05-04T07:49:02.000Z</time>
      </trkpt>
      <trkpt lat="48.20483" lon="3.27135">
        <ele>65</ele>
        <time>2014-05-04T07:49:03.000Z</time>
      </trkpt>
      <trkpt lat="48.20477" lon="3.27137">
        <ele>65</ele>
        <time>2014-05-04T07:49:04.000Z</time>
      </trkpt>
      <trkpt lat="48.2047" lon="3.27139">
        <ele>65</ele>
        <time>2014-05-04T07:49:05.000Z</time>
      </trkpt>
      <trkpt lat="48.20464" lon="3.27142">
        <ele>65</ele>
        <time>2014-05-04T07:49:06.000Z</time>
      </trkpt>
      <trkpt lat="48.20457" lon="3.27144">
        <ele>65</ele>
        <time>2014-05-04T07:49:07.000Z</time>
      </trkpt>
      <trkpt lat="48.20451" lon="3.27146">
        <ele>65</ele>
        <time>2014-05-04T07:49:08.000Z</time>
      </trkpt>
      <trkpt lat="48.20446" lon="3.27148">
        <ele>65</ele>
        <time>2014-05-04T07:49:09.000Z</time>
      </trkpt>
      <trkpt lat="48.20439" lon="3.2715">
        <ele>65</ele>
        <time>2014-05-04T07:49:10.000Z</time>
      </trkpt>
      <trkpt lat="48.20433" lon="3.27152">
        <ele>65</ele>
        <time>2014-05-04T07:49:11.000Z</time>
      </trkpt>
      <trkpt lat="48.20426" lon="3.27157">
        <ele>65</ele>
        <time>2014-05-04T07:49:12.000Z</time>
      </trkpt>
      <trkpt lat="48.20421" lon="3.27161">
        <ele>65</ele>
        <time>2014-05-04T07:49:13.000Z</time>
      </trkpt>
      <trkpt lat="48.20417" lon="3.27165">
        <ele>65</ele>
        <time>2014-05-04T07:49:14.000Z</time>
      </trkpt>
      <trkpt lat="48.20412" lon="3.27172">
        <ele>65</ele>
        <time>2014-05-04T07:49:15.000Z</time>
      </trkpt>
      <trkpt lat="48.2041" lon="3.2718">
        <ele>65</ele>
        <time>2014-05-04T07:49:16.000Z</time>
      </trkpt>
      <trkpt lat="48.20411" lon="3.27193">
        <ele>65</ele>
        <time>2014-05-04T07:49:17.000Z</time>
      </trkpt>
      <trkpt lat="48.20413" lon="3.27202">
        <ele>65</ele>
        <time>2014-05-04T07:49:18.000Z</time>
      </trkpt>
      <trkpt lat="48.20416" lon="3.27212">
        <ele>66</ele>
        <time>2014-05-04T07:49:19.000Z</time>
      </trkpt>
      <trkpt lat="48.20418" lon="3.27221">
        <ele>66</ele>
        <time>2014-05-04T07:49:20.000Z</time>
      </trkpt>
      <trkpt lat="48.20419" lon="3.27229">
        <ele>66</ele>
        <time>2014-05-04T07:49:21.000Z</time>
      </trkpt>
      <trkpt lat="48.20421" lon="3.27238">
        <ele>66</ele>
        <time>2014-05-04T07:49:22.000Z</time>
      </trkpt>
      <trkpt lat="48.20423" lon="3.27247">
        <ele>66</ele>
        <time>2014-05-04T07:49:23.000Z</time>
      </trkpt>
      <trkpt lat="48.20424" lon="3.27255">
        <ele>66</ele>
        <time>2014-05-04T07:49:24.000Z</time>
      </trkpt>
      <trkpt lat="48.20426" lon="3.27264">
        <ele>66</ele>
        <time>2014-05-04T07:49:25.000Z</time>
      </trkpt>
      <trkpt lat="48.20427" lon="3.27272">
        <ele>66</ele>
        <time>2014-05-04T07:49:26.000Z</time>
      </trkpt>
      <trkpt lat="48.20428" lon="3.27283">
        <ele>66</ele>
        <time>2014-05-04T07:49:27.000Z</time>
      </trkpt>
      <trkpt lat="48.2043" lon="3.27292">
        <ele>66</ele>
        <time>2014-05-04T07:49:28.000Z</time>
      </trkpt>
      <trkpt lat="48.20431" lon="3.273">
        <ele>66</ele>
        <time>2014-05-04T07:49:29.000Z</time>
      </trkpt>
      <trkpt lat="48.20432" lon="3.27307">
        <ele>66</ele>
        <time>2014-05-04T07:49:30.000Z</time>
      </trkpt>
      <trkpt lat="48.20433" lon="3.27315">
        <ele>67</ele>
        <time>2014-05-04T07:49:31.000Z</time>
      </trkpt>
      <trkpt lat="48.20434" lon="3.27324">
        <ele>67</ele>
        <time>2014-05-04T07:49:32.000Z</time>
      </trkpt>
      <trkpt lat="48.20434" lon="3.2733">
        <ele>67</ele>
        <time>2014-05-04T07:49:33.000Z</time>
      </trkpt>
      <trkpt lat="48.20435" lon="3.27339">
        <ele>67</ele>
        <time>2014-05-04T07:49:34.000Z</time>
      </trkpt>
      <trkpt lat="48.20436" lon="3.27345">
        <ele>67</ele>
        <time>2014-05-04T07:49:35.000Z</time>
      </trkpt>
      <trkpt lat="48.20437" lon="3.27354">
        <ele>67</ele>
        <time>2014-05-04T07:49:36.000Z</time>
      </trkpt>
      <trkpt lat="48.20438" lon="3.2736">
        <ele>67</ele>
        <time>2014-05-04T07:49:37.000Z</time>
      </trkpt>
      <trkpt lat="48.20439" lon="3.27369">
        <ele>67</ele>
        <time>2014-05-04T07:49:38.000Z</time>
      </trkpt>
      <trkpt lat="48.20441" lon="3.27375">
        <ele>67</ele>
        <time>2014-05-04T07:49:39.000Z</time>
      </trkpt>
      <trkpt lat="48.20442" lon="3.27382">
        <ele>67</ele>
        <time>2014-05-04T07:49:40.000Z</time>
      </trkpt>
      <trkpt lat="48.20444" lon="3.2739">
        <ele>67</ele>
        <time>2014-05-04T07:49:41.000Z</time>
      </trkpt>
      <trkpt lat="48.20445" lon="3.27397">
        <ele>67</ele>
        <time>2014-05-04T07:49:42.000Z</time>
      </trkpt>
      <trkpt lat="48.20446" lon="3.27405">
        <ele>67</ele>
        <time>2014-05-04T07:49:43.000Z</time>
      </trkpt>
      <trkpt lat="48.20447" lon="3.27412">
        <ele>67</ele>
        <time>2014-05-04T07:49:44.000Z</time>
      </trkpt>
      <trkpt lat="48.20448" lon="3.2742">
        <ele>67</ele>
        <time>2014-05-04T07:49:45.000Z</time>
      </trkpt>
      <trkpt lat="48.20449" lon="3.27429">
        <ele>67</ele>
        <time>2014-05-04T07:49:46.000Z</time>
      </trkpt>
      <trkpt lat="48.2045" lon="3.27435">
        <ele>67</ele>
        <time>2014-05-04T07:49:47.000Z</time>
      </trkpt>
      <trkpt lat="48.20451" lon="3.27444">
        <ele>67</ele>
        <time>2014-05-04T07:49:48.000Z</time>
      </trkpt>
      <trkpt lat="48.20452" lon="3.27453">
        <ele>67</ele>
        <time>2014-05-04T07:49:49.000Z</time>
      </trkpt>
      <trkpt lat="48.20454" lon="3.27459">
        <ele>67</ele>
        <time>2014-05-04T07:49:50.000Z</time>
      </trkpt>
      <trkpt lat="48.20455" lon="3.27468">
        <ele>67</ele>
        <time>2014-05-04T07:49:51.000Z</time>
      </trkpt>
      <trkpt lat="48.20457" lon="3.27476">
        <ele>67</ele>
        <time>2014-05-04T07:49:52.000Z</time>
      </trkpt>
      <trkpt lat="48.2046" lon="3.27485">
        <ele>67</ele>
        <time>2014-05-04T07:49:53.000Z</time>
      </trkpt>
      <trkpt lat="48.20462" lon="3.27491">
        <ele>66</ele>
        <time>2014-05-04T07:49:54.000Z</time>
      </trkpt>
      <trkpt lat="48.20464" lon="3.275">
        <ele>66</ele>
        <time>2014-05-04T07:49:55.000Z</time>
      </trkpt>
      <trkpt lat="48.20466" lon="3.27508">
        <ele>66</ele>
        <time>2014-05-04T07:49:56.000Z</time>
      </trkpt>
      <trkpt lat="48.20467" lon="3.27517">
        <ele>66</ele>
        <time>2014-05-04T07:49:57.000Z</time>
      </trkpt>
      <trkpt lat="48.20469" lon="3.27526">
        <ele>66</ele>
        <time>2014-05-04T07:49:58.000Z</time>
      </trkpt>
      <trkpt lat="48.20471" lon="3.27534">
        <ele>66</ele>
        <time>2014-05-04T07:49:59.000Z</time>
      </trkpt>
      <trkpt lat="48.20472" lon="3.27543">
        <ele>66</ele>
        <time>2014-05-04T07:50:00.000Z</time>
      </trkpt>
      <trkpt lat="48.20475" lon="3.27551">
        <ele>66</ele>
        <time>2014-05-04T07:50:01.000Z</time>
      </trkpt>
      <trkpt lat="48.20477" lon="3.2756">
        <ele>66</ele>
        <time>2014-05-04T07:50:02.000Z</time>
      </trkpt>
      <trkpt lat="48.20478" lon="3.27569">
        <ele>65</ele>
        <time>2014-05-04T07:50:03.000Z</time>
      </trkpt>
      <trkpt lat="48.2048" lon="3.27577">
        <ele>65</ele>
        <time>2014-05-04T07:50:04.000Z</time>
      </trkpt>
      <trkpt lat="48.20481" lon="3.27586">
        <ele>65</ele>
        <time>2014-05-04T07:50:05.000Z</time>
      </trkpt>
      <trkpt lat="48.20482" lon="3.27594">
        <ele>65</ele>
        <time>2014-05-04T07:50:06.000Z</time>
      </trkpt>
      <trkpt lat="48.20484" lon="3.27603">
        <ele>65</ele>
        <time>2014-05-04T07:50:07.000Z</time>
      </trkpt>
      <trkpt lat="48.20486" lon="3.27614">
        <ele>65</ele>
        <time>2014-05-04T07:50:08.000Z</time>
      </trkpt>
      <trkpt lat="48.20487" lon="3.27622">
        <ele>65</ele>
        <time>2014-05-04T07:50:09.000Z</time>
      </trkpt>
      <trkpt lat="48.2049" lon="3.27633">
        <ele>65</ele>
        <time>2014-05-04T07:50:10.000Z</time>
      </trkpt>
      <trkpt lat="48.20492" lon="3.27644">
        <ele>65</ele>
        <time>2014-05-04T07:50:11.000Z</time>
      </trkpt>
      <trkpt lat="48.20494" lon="3.27654">
        <ele>65</ele>
        <time>2014-05-04T07:50:12.000Z</time>
      </trkpt>
      <trkpt lat="48.20496" lon="3.27667">
        <ele>64</ele>
        <time>2014-05-04T07:50:13.000Z</time>
      </trkpt>
      <trkpt lat="48.20497" lon="3.27678">
        <ele>64</ele>
        <time>2014-05-04T07:50:14.000Z</time>
      </trkpt>
      <trkpt lat="48.20499" lon="3.27691">
        <ele>65</ele>
        <time>2014-05-04T07:50:15.000Z</time>
      </trkpt>
      <trkpt lat="48.20501" lon="3.27702">
        <ele>65</ele>
        <time>2014-05-04T07:50:16.000Z</time>
      </trkpt>
      <trkpt lat="48.20503" lon="3.27712">
        <ele>65</ele>
        <time>2014-05-04T07:50:17.000Z</time>
      </trkpt>
      <trkpt lat="48.20503" lon="3.27725">
        <ele>65</ele>
        <time>2014-05-04T07:50:18.000Z</time>
      </trkpt>
      <trkpt lat="48.20501" lon="3.27736">
        <ele>64</ele>
        <time>2014-05-04T07:50:19.000Z</time>
      </trkpt>
      <trkpt lat="48.205" lon="3.27744">
        <ele>64</ele>
        <time>2014-05-04T07:50:20.000Z</time>
      </trkpt>
      <trkpt lat="48.20499" lon="3.27751">
        <ele>64</ele>
        <time>2014-05-04T07:50:21.000Z</time>
      </trkpt>
      <trkpt lat="48.20498" lon="3.2776">
        <ele>64</ele>
        <time>2014-05-04T07:50:22.000Z</time>
      </trkpt>
      <trkpt lat="48.20497" lon="3.27768">
        <ele>64</ele>
        <time>2014-05-04T07:50:23.000Z</time>
      </trkpt>
      <trkpt lat="48.20497" lon="3.27777">
        <ele>64</ele>
        <time>2014-05-04T07:50:24.000Z</time>
      </trkpt>
      <trkpt lat="48.20501" lon="3.27783">
        <ele>64</ele>
        <time>2014-05-04T07:50:25.000Z</time>
      </trkpt>
      <trkpt lat="48.20507" lon="3.27787">
        <ele>64</ele>
        <time>2014-05-04T07:50:26.000Z</time>
      </trkpt>
      <trkpt lat="48.20512" lon="3.27792">
        <ele>65</ele>
        <time>2014-05-04T07:50:27.000Z</time>
      </trkpt>
      <trkpt lat="48.2052" lon="3.27796">
        <ele>65</ele>
        <time>2014-05-04T07:50:28.000Z</time>
      </trkpt>
      <trkpt lat="48.20526" lon="3.27798">
        <ele>65</ele>
        <time>2014-05-04T07:50:29.000Z</time>
      </trkpt>
      <trkpt lat="48.20533" lon="3.27802">
        <ele>65</ele>
        <time>2014-05-04T07:50:30.000Z</time>
      </trkpt>
      <trkpt lat="48.20538" lon="3.27802">
        <ele>65</ele>
        <time>2014-05-04T07:50:31.000Z</time>
      </trkpt>
      <trkpt lat="48.20542" lon="3.278">
        <ele>65</ele>
        <time>2014-05-04T07:50:32.000Z</time>
      </trkpt>
      <trkpt lat="48.20545" lon="3.27798">
        <ele>65</ele>
        <time>2014-05-04T07:50:33.000Z</time>
      </trkpt>
      <trkpt lat="48.2055" lon="3.27796">
        <ele>65</ele>
        <time>2014-05-04T07:50:34.000Z</time>
      </trkpt>
      <trkpt lat="48.20554" lon="3.27794">
        <ele>65</ele>
        <time>2014-05-04T07:50:35.000Z</time>
      </trkpt>
      <trkpt lat="48.20558" lon="3.27792">
        <ele>65</ele>
        <time>2014-05-04T07:50:36.000Z</time>
      </trkpt>
      <trkpt lat="48.20565" lon="3.2779">
        <ele>65</ele>
        <time>2014-05-04T07:50:37.000Z</time>
      </trkpt>
      <trkpt lat="48.20571" lon="3.27787">
        <ele>65</ele>
        <time>2014-05-04T07:50:38.000Z</time>
      </trkpt>
      <trkpt lat="48.20577" lon="3.27785">
        <ele>65</ele>
        <time>2014-05-04T07:50:39.000Z</time>
      </trkpt>
      <trkpt lat="48.20582" lon="3.27783">
        <ele>65</ele>
        <time>2014-05-04T07:50:40.000Z</time>
      </trkpt>
      <trkpt lat="48.20588" lon="3.27781">
        <ele>65</ele>
        <time>2014-05-04T07:50:41.000Z</time>
      </trkpt>
      <trkpt lat="48.20595" lon="3.27779">
        <ele>65</ele>
        <time>2014-05-04T07:50:42.000Z</time>
      </trkpt>
      <trkpt lat="48.206" lon="3.27779">
        <ele>65</ele>
        <time>2014-05-04T07:50:43.000Z</time>
      </trkpt>
      <trkpt lat="48.20607" lon="3.27777">
        <ele>65</ele>
        <time>2014-05-04T07:50:44.000Z</time>
      </trkpt>
      <trkpt lat="48.20612" lon="3.27775">
        <ele>65</ele>
        <time>2014-05-04T07:50:45.000Z</time>
      </trkpt>
      <trkpt lat="48.20618" lon="3.27772">
        <ele>65</ele>
        <time>2014-05-04T07:50:46.000Z</time>
      </trkpt>
      <trkpt lat="48.20624" lon="3.2777">
        <ele>65</ele>
        <time>2014-05-04T07:50:47.000Z</time>
      </trkpt>
      <trkpt lat="48.2063" lon="3.2777">
        <ele>65</ele>
        <time>2014-05-04T07:50:48.000Z</time>
      </trkpt>
      <trkpt lat="48.20636" lon="3.27768">
        <ele>65</ele>
        <time>2014-05-04T07:50:49.000Z</time>
      </trkpt>
      <trkpt lat="48.20641" lon="3.27768">
        <ele>65</ele>
        <time>2014-05-04T07:50:50.000Z</time>
      </trkpt>
      <trkpt lat="48.20647" lon="3.27766">
        <ele>66</ele>
        <time>2014-05-04T07:50:51.000Z</time>
      </trkpt>
      <trkpt lat="48.20653" lon="3.27764">
        <ele>66</ele>
        <time>2014-05-04T07:50:52.000Z</time>
      </trkpt>
      <trkpt lat="48.20658" lon="3.27764">
        <ele>66</ele>
        <time>2014-05-04T07:50:53.000Z</time>
      </trkpt>
      <trkpt lat="48.20665" lon="3.27762">
        <ele>66</ele>
        <time>2014-05-04T07:50:54.000Z</time>
      </trkpt>
      <trkpt lat="48.2067" lon="3.2776">
        <ele>65</ele>
        <time>2014-05-04T07:50:55.000Z</time>
      </trkpt>
      <trkpt lat="48.20675" lon="3.27757">
        <ele>65</ele>
        <time>2014-05-04T07:50:56.000Z</time>
      </trkpt>
      <trkpt lat="48.20682" lon="3.27757">
        <ele>65</ele>
        <time>2014-05-04T07:50:57.000Z</time>
      </trkpt>
      <trkpt lat="48.20687" lon="3.27755">
        <ele>65</ele>
        <time>2014-05-04T07:50:58.000Z</time>
      </trkpt>
      <trkpt lat="48.20693" lon="3.27753">
        <ele>64</ele>
        <time>2014-05-04T07:50:59.000Z</time>
      </trkpt>
      <trkpt lat="48.20699" lon="3.27753">
        <ele>64</ele>
        <time>2014-05-04T07:51:00.000Z</time>
      </trkpt>
      <trkpt lat="48.20704" lon="3.27751">
        <ele>64</ele>
        <time>2014-05-04T07:51:01.000Z</time>
      </trkpt>
      <trkpt lat="48.2071" lon="3.27749">
        <ele>64</ele>
        <time>2014-05-04T07:51:02.000Z</time>
      </trkpt>
      <trkpt lat="48.20716" lon="3.27747">
        <ele>64</ele>
        <time>2014-05-04T07:51:03.000Z</time>
      </trkpt>
      <trkpt lat="48.20721" lon="3.27744">
        <ele>64</ele>
        <time>2014-05-04T07:51:04.000Z</time>
      </trkpt>
      <trkpt lat="48.20727" lon="3.27744">
        <ele>63</ele>
        <time>2014-05-04T07:51:05.000Z</time>
      </trkpt>
      <trkpt lat="48.20732" lon="3.27742">
        <ele>63</ele>
        <time>2014-05-04T07:51:06.000Z</time>
      </trkpt>
      <trkpt lat="48.20737" lon="3.2774">
        <ele>63</ele>
        <time>2014-05-04T07:51:07.000Z</time>
      </trkpt>
      <trkpt lat="48.20743" lon="3.2774">
        <ele>63</ele>
        <time>2014-05-04T07:51:08.000Z</time>
      </trkpt>
      <trkpt lat="48.20748" lon="3.27738">
        <ele>63</ele>
        <time>2014-05-04T07:51:09.000Z</time>
      </trkpt>
      <trkpt lat="48.20754" lon="3.27736">
        <ele>63</ele>
        <time>2014-05-04T07:51:10.000Z</time>
      </trkpt>
      <trkpt lat="48.20759" lon="3.27736">
        <ele>63</ele>
        <time>2014-05-04T07:51:11.000Z</time>
      </trkpt>
      <trkpt lat="48.20764" lon="3.27734">
        <ele>63</ele>
        <time>2014-05-04T07:51:12.000Z</time>
      </trkpt>
      <trkpt lat="48.2077" lon="3.27732">
        <ele>63</ele>
        <time>2014-05-04T07:51:13.000Z</time>
      </trkpt>
      <trkpt lat="48.20775" lon="3.27729">
        <ele>64</ele>
        <time>2014-05-04T07:51:14.000Z</time>
      </trkpt>
      <trkpt lat="48.2078" lon="3.27729">
        <ele>64</ele>
        <time>2014-05-04T07:51:15.000Z</time>
      </trkpt>
      <trkpt lat="48.20786" lon="3.27727">
        <ele>64</ele>
        <time>2014-05-04T07:51:16.000Z</time>
      </trkpt>
      <trkpt lat="48.20791" lon="3.27727">
        <ele>64</ele>
        <time>2014-05-04T07:51:17.000Z</time>
      </trkpt>
      <trkpt lat="48.20796" lon="3.27727">
        <ele>64</ele>
        <time>2014-05-04T07:51:18.000Z</time>
      </trkpt>
      <trkpt lat="48.20802" lon="3.27725">
        <ele>64</ele>
        <time>2014-05-04T07:51:19.000Z</time>
      </trkpt>
      <trkpt lat="48.20807" lon="3.27725">
        <ele>64</ele>
        <time>2014-05-04T07:51:20.000Z</time>
      </trkpt>
      <trkpt lat="48.2081" lon="3.27727">
        <ele>64</ele>
        <time>2014-05-04T07:51:21.000Z</time>
      </trkpt>
      <trkpt lat="48.20814" lon="3.27729">
        <ele>65</ele>
        <time>2014-05-04T07:51:22.000Z</time>
      </trkpt>
      <trkpt lat="48.20816" lon="3.27734">
        <ele>65</ele>
        <time>2014-05-04T07:51:23.000Z</time>
      </trkpt>
      <trkpt lat="48.20819" lon="3.27738">
        <ele>65</ele>
        <time>2014-05-04T07:51:24.000Z</time>
      </trkpt>
      <trkpt lat="48.20822" lon="3.27742">
        <ele>65</ele>
        <time>2014-05-04T07:51:25.000Z</time>
      </trkpt>
      <trkpt lat="48.20825" lon="3.27747">
        <ele>65</ele>
        <time>2014-05-04T07:51:26.000Z</time>
      </trkpt>
      <trkpt lat="48.20828" lon="3.27751">
        <ele>66</ele>
        <time>2014-05-04T07:51:27.000Z</time>
      </trkpt>
      <trkpt lat="48.2083" lon="3.27757">
        <ele>66</ele>
        <time>2014-05-04T07:51:28.000Z</time>
      </trkpt>
      <trkpt lat="48.20832" lon="3.27764">
        <ele>65</ele>
        <time>2014-05-04T07:51:29.000Z</time>
      </trkpt>
      <trkpt lat="48.20834" lon="3.27768">
        <ele>66</ele>
        <time>2014-05-04T07:51:30.000Z</time>
      </trkpt>
      <trkpt lat="48.20836" lon="3.27772">
        <ele>66</ele>
        <time>2014-05-04T07:51:31.000Z</time>
      </trkpt>
      <trkpt lat="48.20838" lon="3.27777">
        <ele>66</ele>
        <time>2014-05-04T07:51:32.000Z</time>
      </trkpt>
      <trkpt lat="48.2084" lon="3.27781">
        <ele>66</ele>
        <time>2014-05-04T07:51:33.000Z</time>
      </trkpt>
      <trkpt lat="48.2084" lon="3.27787">
        <ele>66</ele>
        <time>2014-05-04T07:51:34.000Z</time>
      </trkpt>
      <trkpt lat="48.20842" lon="3.27792">
        <ele>66</ele>
        <time>2014-05-04T07:51:35.000Z</time>
      </trkpt>
      <trkpt lat="48.20842" lon="3.27798">
        <ele>66</ele>
        <time>2014-05-04T07:51:36.000Z</time>
      </trkpt>
      <trkpt lat="48.20842" lon="3.27802">
        <ele>66</ele>
        <time>2014-05-04T07:51:37.000Z</time>
      </trkpt>
      <trkpt lat="48.20843" lon="3.27809">
        <ele>66</ele>
        <time>2014-05-04T07:51:38.000Z</time>
      </trkpt>
      <trkpt lat="48.20844" lon="3.27815">
        <ele>66</ele>
        <time>2014-05-04T07:51:39.000Z</time>
      </trkpt>
      <trkpt lat="48.20845" lon="3.2782">
        <ele>66</ele>
        <time>2014-05-04T07:51:40.000Z</time>
      </trkpt>
      <trkpt lat="48.20846" lon="3.27826">
        <ele>66</ele>
        <time>2014-05-04T07:51:41.000Z</time>
      </trkpt>
      <trkpt lat="48.20847" lon="3.27832">
        <ele>66</ele>
        <time>2014-05-04T07:51:42.000Z</time>
      </trkpt>
      <trkpt lat="48.20847" lon="3.27839">
        <ele>66</ele>
        <time>2014-05-04T07:51:43.000Z</time>
      </trkpt>
      <trkpt lat="48.20848" lon="3.27843">
        <ele>66</ele>
        <time>2014-05-04T07:51:44.000Z</time>
      </trkpt>
      <trkpt lat="48.20849" lon="3.27852">
        <ele>66</ele>
        <time>2014-05-04T07:51:45.000Z</time>
      </trkpt>
      <trkpt lat="48.2085" lon="3.27858">
        <ele>66</ele>
        <time>2014-05-04T07:51:46.000Z</time>
      </trkpt>
      <trkpt lat="48.20851" lon="3.27865">
        <ele>66</ele>
        <time>2014-05-04T07:51:47.000Z</time>
      </trkpt>
      <trkpt lat="48.20852" lon="3.27871">
        <ele>66</ele>
        <time>2014-05-04T07:51:48.000Z</time>
      </trkpt>
      <trkpt lat="48.20854" lon="3.2788">
        <ele>65</ele>
        <time>2014-05-04T07:51:49.000Z</time>
      </trkpt>
      <trkpt lat="48.20855" lon="3.27888">
        <ele>65</ele>
        <time>2014-05-04T07:51:50.000Z</time>
      </trkpt>
      <trkpt lat="48.20857" lon="3.27897">
        <ele>65</ele>
        <time>2014-05-04T07:51:51.000Z</time>
      </trkpt>
      <trkpt lat="48.20858" lon="3.27903">
        <ele>65</ele>
        <time>2014-05-04T07:51:52.000Z</time>
      </trkpt>
      <trkpt lat="48.2086" lon="3.27912">
        <ele>65</ele>
        <time>2014-05-04T07:51:53.000Z</time>
      </trkpt>
      <trkpt lat="48.20861" lon="3.2792">
        <ele>65</ele>
        <time>2014-05-04T07:51:54.000Z</time>
      </trkpt>
      <trkpt lat="48.20862" lon="3.27929">
        <ele>65</ele>
        <time>2014-05-04T07:51:55.000Z</time>
      </trkpt>
      <trkpt lat="48.20864" lon="3.27938">
        <ele>65</ele>
        <time>2014-05-04T07:51:56.000Z</time>
      </trkpt>
      <trkpt lat="48.20865" lon="3.27944">
        <ele>65</ele>
        <time>2014-05-04T07:51:57.000Z</time>
      </trkpt>
      <trkpt lat="48.20866" lon="3.27953">
        <ele>65</ele>
        <time>2014-05-04T07:51:58.000Z</time>
      </trkpt>
      <trkpt lat="48.20868" lon="3.27961">
        <ele>65</ele>
        <time>2014-05-04T07:51:59.000Z</time>
      </trkpt>
      <trkpt lat="48.20869" lon="3.27968">
        <ele>65</ele>
        <time>2014-05-04T07:52:00.000Z</time>
      </trkpt>
      <trkpt lat="48.20871" lon="3.27976">
        <ele>65</ele>
        <time>2014-05-04T07:52:01.000Z</time>
      </trkpt>
      <trkpt lat="48.20873" lon="3.27983">
        <ele>65</ele>
        <time>2014-05-04T07:52:02.000Z</time>
      </trkpt>
      <trkpt lat="48.20875" lon="3.27991">
        <ele>65</ele>
        <time>2014-05-04T07:52:03.000Z</time>
      </trkpt>
      <trkpt lat="48.20877" lon="3.27998">
        <ele>65</ele>
        <time>2014-05-04T07:52:04.000Z</time>
      </trkpt>
      <trkpt lat="48.20879" lon="3.28004">
        <ele>66</ele>
        <time>2014-05-04T07:52:05.000Z</time>
      </trkpt>
      <trkpt lat="48.2088" lon="3.28013">
        <ele>66</ele>
        <time>2014-05-04T07:52:06.000Z</time>
      </trkpt>
      <trkpt lat="48.20882" lon="3.28021">
        <ele>66</ele>
        <time>2014-05-04T07:52:07.000Z</time>
      </trkpt>
      <trkpt lat="48.20883" lon="3.28028">
        <ele>66</ele>
        <time>2014-05-04T07:52:08.000Z</time>
      </trkpt>
      <trkpt lat="48.20886" lon="3.28036">
        <ele>66</ele>
        <time>2014-05-04T07:52:09.000Z</time>
      </trkpt>
      <trkpt lat="48.20887" lon="3.28043">
        <ele>66</ele>
        <time>2014-05-04T07:52:10.000Z</time>
      </trkpt>
      <trkpt lat="48.20888" lon="3.28051">
        <ele>66</ele>
        <time>2014-05-04T07:52:11.000Z</time>
      </trkpt>
      <trkpt lat="48.20889" lon="3.2806">
        <ele>66</ele>
        <time>2014-05-04T07:52:12.000Z</time>
      </trkpt>
      <trkpt lat="48.20891" lon="3.28068">
        <ele>66</ele>
        <time>2014-05-04T07:52:13.000Z</time>
      </trkpt>
      <trkpt lat="48.20892" lon="3.28075">
        <ele>66</ele>
        <time>2014-05-04T07:52:14.000Z</time>
      </trkpt>
      <trkpt lat="48.20893" lon="3.28084">
        <ele>67</ele>
        <time>2014-05-04T07:52:15.000Z</time>
      </trkpt>
      <trkpt lat="48.20894" lon="3.28092">
        <ele>67</ele>
        <time>2014-05-04T07:52:16.000Z</time>
      </trkpt>
      <trkpt lat="48.20895" lon="3.28101">
        <ele>67</ele>
        <time>2014-05-04T07:52:17.000Z</time>
      </trkpt>
      <trkpt lat="48.20897" lon="3.28109">
        <ele>67</ele>
        <time>2014-05-04T07:52:18.000Z</time>
      </trkpt>
      <trkpt lat="48.20898" lon="3.28118">
        <ele>67</ele>
        <time>2014-05-04T07:52:19.000Z</time>
      </trkpt>
      <trkpt lat="48.20901" lon="3.28126">
        <ele>67</ele>
        <time>2014-05-04T07:52:20.000Z</time>
      </trkpt>
      <trkpt lat="48.20903" lon="3.28135">
        <ele>67</ele>
        <time>2014-05-04T07:52:21.000Z</time>
      </trkpt>
      <trkpt lat="48.20904" lon="3.28144">
        <ele>67</ele>
        <time>2014-05-04T07:52:22.000Z</time>
      </trkpt>
      <trkpt lat="48.20906" lon="3.28154">
        <ele>67</ele>
        <time>2014-05-04T07:52:23.000Z</time>
      </trkpt>
      <trkpt lat="48.20907" lon="3.28163">
        <ele>67</ele>
        <time>2014-05-04T07:52:24.000Z</time>
      </trkpt>
      <trkpt lat="48.20909" lon="3.28171">
        <ele>67</ele>
        <time>2014-05-04T07:52:25.000Z</time>
      </trkpt>
      <trkpt lat="48.20911" lon="3.2818">
        <ele>67</ele>
        <time>2014-05-04T07:52:26.000Z</time>
      </trkpt>
      <trkpt lat="48.20912" lon="3.28189">
        <ele>68</ele>
        <time>2014-05-04T07:52:27.000Z</time>
      </trkpt>
      <trkpt lat="48.20915" lon="3.28197">
        <ele>68</ele>
        <time>2014-05-04T07:52:28.000Z</time>
      </trkpt>
      <trkpt lat="48.20916" lon="3.28206">
        <ele>68</ele>
        <time>2014-05-04T07:52:29.000Z</time>
      </trkpt>
      <trkpt lat="48.20917" lon="3.28217">
        <ele>67</ele>
        <time>2014-05-04T07:52:30.000Z</time>
      </trkpt>
      <trkpt lat="48.20918" lon="3.28225">
        <ele>66</ele>
        <time>2014-05-04T07:52:31.000Z</time>
      </trkpt>
      <trkpt lat="48.20919" lon="3.28234">
        <ele>66</ele>
        <time>2014-05-04T07:52:32.000Z</time>
      </trkpt>
      <trkpt lat="48.2092" lon="3.28242">
        <ele>66</ele>
        <time>2014-05-04T07:52:33.000Z</time>
      </trkpt>
      <trkpt lat="48.2092" lon="3.28251">
        <ele>66</ele>
        <time>2014-05-04T07:52:34.000Z</time>
      </trkpt>
      <trkpt lat="48.20919" lon="3.28262">
        <ele>66</ele>
        <time>2014-05-04T07:52:35.000Z</time>
      </trkpt>
      <trkpt lat="48.20919" lon="3.2827">
        <ele>66</ele>
        <time>2014-05-04T07:52:36.000Z</time>
      </trkpt>
      <trkpt lat="48.20919" lon="3.28279">
        <ele>65</ele>
        <time>2014-05-04T07:52:37.000Z</time>
      </trkpt>
      <trkpt lat="48.20918" lon="3.2829">
        <ele>65</ele>
        <time>2014-05-04T07:52:38.000Z</time>
      </trkpt>
      <trkpt lat="48.20918" lon="3.28298">
        <ele>65</ele>
        <time>2014-05-04T07:52:39.000Z</time>
      </trkpt>
      <trkpt lat="48.20917" lon="3.28309">
        <ele>67</ele>
        <time>2014-05-04T07:52:40.000Z</time>
      </trkpt>
      <trkpt lat="48.20917" lon="3.28317">
        <ele>67</ele>
        <time>2014-05-04T07:52:41.000Z</time>
      </trkpt>
      <trkpt lat="48.20916" lon="3.28328">
        <ele>66</ele>
        <time>2014-05-04T07:52:42.000Z</time>
      </trkpt>
      <trkpt lat="48.20915" lon="3.28337">
        <ele>66</ele>
        <time>2014-05-04T07:52:43.000Z</time>
      </trkpt>
      <trkpt lat="48.20915" lon="3.28347">
        <ele>67</ele>
        <time>2014-05-04T07:52:44.000Z</time>
      </trkpt>
      <trkpt lat="48.20913" lon="3.28356">
        <ele>67</ele>
        <time>2014-05-04T07:52:45.000Z</time>
      </trkpt>
      <trkpt lat="48.20912" lon="3.28367">
        <ele>67</ele>
        <time>2014-05-04T07:52:46.000Z</time>
      </trkpt>
      <trkpt lat="48.20911" lon="3.28375">
        <ele>67</ele>
        <time>2014-05-04T07:52:47.000Z</time>
      </trkpt>
      <trkpt lat="48.2091" lon="3.28386">
        <ele>67</ele>
        <time>2014-05-04T07:52:48.000Z</time>
      </trkpt>
      <trkpt lat="48.20909" lon="3.28397">
        <ele>67</ele>
        <time>2014-05-04T07:52:49.000Z</time>
      </trkpt>
      <trkpt lat="48.20907" lon="3.28405">
        <ele>67</ele>
        <time>2014-05-04T07:52:50.000Z</time>
      </trkpt>
      <trkpt lat="48.20906" lon="3.28416">
        <ele>67</ele>
        <time>2014-05-04T07:52:51.000Z</time>
      </trkpt>
      <trkpt lat="48.20905" lon="3.28427">
        <ele>67</ele>
        <time>2014-05-04T07:52:52.000Z</time>
      </trkpt>
      <trkpt lat="48.20903" lon="3.28438">
        <ele>67</ele>
        <time>2014-05-04T07:52:53.000Z</time>
      </trkpt>
      <trkpt lat="48.20902" lon="3.28448">
        <ele>66</ele>
        <time>2014-05-04T07:52:54.000Z</time>
      </trkpt>
      <trkpt lat="48.20899" lon="3.28457">
        <ele>66</ele>
        <time>2014-05-04T07:52:55.000Z</time>
      </trkpt>
      <trkpt lat="48.20898" lon="3.28468">
        <ele>66</ele>
        <time>2014-05-04T07:52:56.000Z</time>
      </trkpt>
      <trkpt lat="48.20897" lon="3.28478">
        <ele>66</ele>
        <time>2014-05-04T07:52:57.000Z</time>
      </trkpt>
      <trkpt lat="48.20895" lon="3.28489">
        <ele>66</ele>
        <time>2014-05-04T07:52:58.000Z</time>
      </trkpt>
      <trkpt lat="48.20894" lon="3.28498">
        <ele>66</ele>
        <time>2014-05-04T07:52:59.000Z</time>
      </trkpt>
      <trkpt lat="48.20892" lon="3.28508">
        <ele>66</ele>
        <time>2014-05-04T07:53:00.000Z</time>
      </trkpt>
      <trkpt lat="48.2089" lon="3.28517">
        <ele>66</ele>
        <time>2014-05-04T07:53:01.000Z</time>
      </trkpt>
      <trkpt lat="48.20888" lon="3.28526">
        <ele>67</ele>
        <time>2014-05-04T07:53:02.000Z</time>
      </trkpt>
      <trkpt lat="48.20887" lon="3.28534">
        <ele>67</ele>
        <time>2014-05-04T07:53:03.000Z</time>
      </trkpt>
      <trkpt lat="48.20884" lon="3.28543">
        <ele>67</ele>
        <time>2014-05-04T07:53:04.000Z</time>
      </trkpt>
      <trkpt lat="48.20883" lon="3.28551">
        <ele>67</ele>
        <time>2014-05-04T07:53:05.000Z</time>
      </trkpt>
      <trkpt lat="48.20881" lon="3.28558">
        <ele>67</ele>
        <time>2014-05-04T07:53:06.000Z</time>
      </trkpt>
      <trkpt lat="48.2088" lon="3.28564">
        <ele>67</ele>
        <time>2014-05-04T07:53:07.000Z</time>
      </trkpt>
      <trkpt lat="48.20878" lon="3.28571">
        <ele>67</ele>
        <time>2014-05-04T07:53:08.000Z</time>
      </trkpt>
      <trkpt lat="48.20876" lon="3.28577">
        <ele>67</ele>
        <time>2014-05-04T07:53:09.000Z</time>
      </trkpt>
      <trkpt lat="48.20874" lon="3.28581">
        <ele>67</ele>
        <time>2014-05-04T07:53:10.000Z</time>
      </trkpt>
      <trkpt lat="48.20872" lon="3.28586">
        <ele>68</ele>
        <time>2014-05-04T07:53:11.000Z</time>
      </trkpt>
      <trkpt lat="48.20869" lon="3.2859">
        <ele>68</ele>
        <time>2014-05-04T07:53:12.000Z</time>
      </trkpt>
      <trkpt lat="48.20868" lon="3.28596">
        <ele>68</ele>
        <time>2014-05-04T07:53:13.000Z</time>
      </trkpt>
      <trkpt lat="48.20866" lon="3.28601">
        <ele>68</ele>
        <time>2014-05-04T07:53:14.000Z</time>
      </trkpt>
      <trkpt lat="48.20865" lon="3.28605">
        <ele>68</ele>
        <time>2014-05-04T07:53:15.000Z</time>
      </trkpt>
      <trkpt lat="48.20864" lon="3.28609">
        <ele>68</ele>
        <time>2014-05-04T07:53:16.000Z</time>
      </trkpt>
      <trkpt lat="48.20863" lon="3.28614">
        <ele>68</ele>
        <time>2014-05-04T07:53:17.000Z</time>
      </trkpt>
      <trkpt lat="48.20862" lon="3.28616">
        <ele>68</ele>
        <time>2014-05-04T07:53:18.000Z</time>
      </trkpt>
      <trkpt lat="48.20861" lon="3.28622">
        <ele>68</ele>
        <time>2014-05-04T07:53:19.000Z</time>
      </trkpt>
      <trkpt lat="48.2086" lon="3.28626">
        <ele>68</ele>
        <time>2014-05-04T07:53:20.000Z</time>
      </trkpt>
      <trkpt lat="48.2086" lon="3.28631">
        <ele>68</ele>
        <time>2014-05-04T07:53:21.000Z</time>
      </trkpt>
      <trkpt lat="48.20859" lon="3.28635">
        <ele>68</ele>
        <time>2014-05-04T07:53:22.000Z</time>
      </trkpt>
      <trkpt lat="48.20859" lon="3.28641">
        <ele>68</ele>
        <time>2014-05-04T07:53:23.000Z</time>
      </trkpt>
      <trkpt lat="48.20859" lon="3.28646">
        <ele>68</ele>
        <time>2014-05-04T07:53:24.000Z</time>
      </trkpt>
      <trkpt lat="48.20858" lon="3.2865">
        <ele>68</ele>
        <time>2014-05-04T07:53:25.000Z</time>
      </trkpt>
      <trkpt lat="48.20858" lon="3.28656">
        <ele>68</ele>
        <time>2014-05-04T07:53:26.000Z</time>
      </trkpt>
      <trkpt lat="48.20857" lon="3.28661">
        <ele>68</ele>
        <time>2014-05-04T07:53:27.000Z</time>
      </trkpt>
      <trkpt lat="48.20855" lon="3.28665">
        <ele>68</ele>
        <time>2014-05-04T07:53:28.000Z</time>
      </trkpt>
      <trkpt lat="48.20854" lon="3.28671">
        <ele>68</ele>
        <time>2014-05-04T07:53:29.000Z</time>
      </trkpt>
      <trkpt lat="48.20854" lon="3.28676">
        <ele>68</ele>
        <time>2014-05-04T07:53:30.000Z</time>
      </trkpt>
      <trkpt lat="48.20853" lon="3.28682">
        <ele>68</ele>
        <time>2014-05-04T07:53:31.000Z</time>
      </trkpt>
      <trkpt lat="48.20853" lon="3.28686">
        <ele>68</ele>
        <time>2014-05-04T07:53:32.000Z</time>
      </trkpt>
      <trkpt lat="48.20853" lon="3.28693">
        <ele>68</ele>
        <time>2014-05-04T07:53:33.000Z</time>
      </trkpt>
      <trkpt lat="48.20853" lon="3.28699">
        <ele>68</ele>
        <time>2014-05-04T07:53:34.000Z</time>
      </trkpt>
      <trkpt lat="48.20854" lon="3.28706">
        <ele>68</ele>
        <time>2014-05-04T07:53:35.000Z</time>
      </trkpt>
      <trkpt lat="48.20857" lon="3.28712">
        <ele>68</ele>
        <time>2014-05-04T07:53:36.000Z</time>
      </trkpt>
      <trkpt lat="48.20858" lon="3.28719">
        <ele>68</ele>
        <time>2014-05-04T07:53:37.000Z</time>
      </trkpt>
      <trkpt lat="48.2086" lon="3.28725">
        <ele>68</ele>
        <time>2014-05-04T07:53:38.000Z</time>
      </trkpt>
      <trkpt lat="48.20861" lon="3.28729">
        <ele>68</ele>
        <time>2014-05-04T07:53:39.000Z</time>
      </trkpt>
      <trkpt lat="48.20863" lon="3.28736">
        <ele>68</ele>
        <time>2014-05-04T07:53:40.000Z</time>
      </trkpt>
      <trkpt lat="48.20865" lon="3.28742">
        <ele>68</ele>
        <time>2014-05-04T07:53:41.000Z</time>
      </trkpt>
      <trkpt lat="48.20867" lon="3.28749">
        <ele>68</ele>
        <time>2014-05-04T07:53:42.000Z</time>
      </trkpt>
      <trkpt lat="48.20869" lon="3.28755">
        <ele>68</ele>
        <time>2014-05-04T07:53:43.000Z</time>
      </trkpt>
      <trkpt lat="48.20871" lon="3.28762">
        <ele>68</ele>
        <time>2014-05-04T07:53:44.000Z</time>
      </trkpt>
      <trkpt lat="48.20873" lon="3.28768">
        <ele>68</ele>
        <time>2014-05-04T07:53:45.000Z</time>
      </trkpt>
      <trkpt lat="48.20875" lon="3.28772">
        <ele>68</ele>
        <time>2014-05-04T07:53:46.000Z</time>
      </trkpt>
      <trkpt lat="48.20876" lon="3.28779">
        <ele>68</ele>
        <time>2014-05-04T07:53:47.000Z</time>
      </trkpt>
      <trkpt lat="48.20877" lon="3.28785">
        <ele>68</ele>
        <time>2014-05-04T07:53:48.000Z</time>
      </trkpt>
      <trkpt lat="48.20878" lon="3.28789">
        <ele>68</ele>
        <time>2014-05-04T07:53:49.000Z</time>
      </trkpt>
      <trkpt lat="48.20879" lon="3.28796">
        <ele>68</ele>
        <time>2014-05-04T07:53:50.000Z</time>
      </trkpt>
      <trkpt lat="48.2088" lon="3.28802">
        <ele>68</ele>
        <time>2014-05-04T07:53:51.000Z</time>
      </trkpt>
      <trkpt lat="48.20879" lon="3.28809">
        <ele>68</ele>
        <time>2014-05-04T07:53:52.000Z</time>
      </trkpt>
      <trkpt lat="48.20877" lon="3.28813">
        <ele>68</ele>
        <time>2014-05-04T07:53:53.000Z</time>
      </trkpt>
      <trkpt lat="48.20876" lon="3.2882">
        <ele>68</ele>
        <time>2014-05-04T07:53:54.000Z</time>
      </trkpt>
      <trkpt lat="48.20875" lon="3.28826">
        <ele>68</ele>
        <time>2014-05-04T07:53:55.000Z</time>
      </trkpt>
      <trkpt lat="48.20873" lon="3.2883">
        <ele>68</ele>
        <time>2014-05-04T07:53:56.000Z</time>
      </trkpt>
      <trkpt lat="48.20871" lon="3.28837">
        <ele>69</ele>
        <time>2014-05-04T07:53:57.000Z</time>
      </trkpt>
      <trkpt lat="48.20867" lon="3.28841">
        <ele>69</ele>
        <time>2014-05-04T07:53:58.000Z</time>
      </trkpt>
      <trkpt lat="48.20864" lon="3.28845">
        <ele>69</ele>
        <time>2014-05-04T07:53:59.000Z</time>
      </trkpt>
      <trkpt lat="48.20861" lon="3.2885">
        <ele>69</ele>
        <time>2014-05-04T07:54:00.000Z</time>
      </trkpt>
      <trkpt lat="48.20858" lon="3.28854">
        <ele>69</ele>
        <time>2014-05-04T07:54:01.000Z</time>
      </trkpt>
      <trkpt lat="48.20854" lon="3.28856">
        <ele>69</ele>
        <time>2014-05-04T07:54:02.000Z</time>
      </trkpt>
      <trkpt lat="48.20851" lon="3.2886">
        <ele>69</ele>
        <time>2014-05-04T07:54:03.000Z</time>
      </trkpt>
      <trkpt lat="48.20847" lon="3.28865">
        <ele>69</ele>
        <time>2014-05-04T07:54:04.000Z</time>
      </trkpt>
      <trkpt lat="48.20844" lon="3.28867">
        <ele>69</ele>
        <time>2014-05-04T07:54:05.000Z</time>
      </trkpt>
      <trkpt lat="48.20839" lon="3.28871">
        <ele>69</ele>
        <time>2014-05-04T07:54:06.000Z</time>
      </trkpt>
      <trkpt lat="48.20835" lon="3.28873">
        <ele>69</ele>
        <time>2014-05-04T07:54:07.000Z</time>
      </trkpt>
      <trkpt lat="48.20832" lon="3.28877">
        <ele>69</ele>
        <time>2014-05-04T07:54:08.000Z</time>
      </trkpt>
      <trkpt lat="48.20828" lon="3.2888">
        <ele>69</ele>
        <time>2014-05-04T07:54:09.000Z</time>
      </trkpt>
      <trkpt lat="48.20824" lon="3.28884">
        <ele>69</ele>
        <time>2014-05-04T07:54:10.000Z</time>
      </trkpt>
      <trkpt lat="48.2082" lon="3.28888">
        <ele>69</ele>
        <time>2014-05-04T07:54:11.000Z</time>
      </trkpt>
      <trkpt lat="48.20816" lon="3.28892">
        <ele>69</ele>
        <time>2014-05-04T07:54:12.000Z</time>
      </trkpt>
      <trkpt lat="48.20813" lon="3.28897">
        <ele>69</ele>
        <time>2014-05-04T07:54:13.000Z</time>
      </trkpt>
      <trkpt lat="48.20808" lon="3.28901">
        <ele>69</ele>
        <time>2014-05-04T07:54:14.000Z</time>
      </trkpt>
      <trkpt lat="48.20805" lon="3.28905">
        <ele>69</ele>
        <time>2014-05-04T07:54:15.000Z</time>
      </trkpt>
      <trkpt lat="48.20802" lon="3.2891">
        <ele>69</ele>
        <time>2014-05-04T07:54:16.000Z</time>
      </trkpt>
      <trkpt lat="48.20798" lon="3.28912">
        <ele>69</ele>
        <time>2014-05-04T07:54:17.000Z</time>
      </trkpt>
      <trkpt lat="48.20794" lon="3.28916">
        <ele>69</ele>
        <time>2014-05-04T07:54:18.000Z</time>
      </trkpt>
      <trkpt lat="48.20791" lon="3.28918">
        <ele>70</ele>
        <time>2014-05-04T07:54:19.000Z</time>
      </trkpt>
      <trkpt lat="48.20787" lon="3.28923">
        <ele>70</ele>
        <time>2014-05-04T07:54:20.000Z</time>
      </trkpt>
      <trkpt lat="48.20784" lon="3.28925">
        <ele>70</ele>
        <time>2014-05-04T07:54:21.000Z</time>
      </trkpt>
      <trkpt lat="48.20781" lon="3.28927">
        <ele>70</ele>
        <time>2014-05-04T07:54:22.000Z</time>
      </trkpt>
      <trkpt lat="48.20778" lon="3.28929">
        <ele>70</ele>
        <time>2014-05-04T07:54:30.000Z</time>
      </trkpt>
      <trkpt lat="48.20788" lon="3.28935">
        <ele>70</ele>
        <time>2014-05-04T07:54:31.000Z</time>
      </trkpt>
      <trkpt lat="48.20788" lon="3.28935">
        <ele>70</ele>
        <time>2014-05-04T07:54:36.000Z</time>
      </trkpt>
      <trkpt lat="48.20798" lon="3.28938">
        <ele>70</ele>
        <time>2014-05-04T07:54:37.000Z</time>
      </trkpt>
      <trkpt lat="48.20798" lon="3.28938">
        <ele>70</ele>
        <time>2014-05-04T07:54:43.000Z</time>
      </trkpt>
      <trkpt lat="48.20789" lon="3.28946">
        <ele>70</ele>
        <time>2014-05-04T07:54:44.000Z</time>
      </trkpt>
      <trkpt lat="48.20789" lon="3.28946">
        <ele>70</ele>
        <time>2014-05-04T07:54:46.000Z</time>
      </trkpt>
      <trkpt lat="48.2078" lon="3.28953">
        <ele>70</ele>
        <time>2014-05-04T07:54:47.000Z</time>
      </trkpt>
      <trkpt lat="48.2078" lon="3.28953">
        <ele>70</ele>
        <time>2014-05-04T07:54:48.000Z</time>
      </trkpt>
      <trkpt lat="48.20774" lon="3.28955">
        <ele>70</ele>
        <time>2014-05-04T07:54:49.000Z</time>
      </trkpt>
      <trkpt lat="48.2077" lon="3.28957">
        <ele>70</ele>
        <time>2014-05-04T07:54:50.000Z</time>
      </trkpt>
      <trkpt lat="48.20766" lon="3.28959">
        <ele>70</ele>
        <time>2014-05-04T07:54:51.000Z</time>
      </trkpt>
      <trkpt lat="48.20762" lon="3.28961">
        <ele>70</ele>
        <time>2014-05-04T07:54:52.000Z</time>
      </trkpt>
      <trkpt lat="48.20758" lon="3.28963">
        <ele>70</ele>
        <time>2014-05-04T07:54:53.000Z</time>
      </trkpt>
      <trkpt lat="48.20755" lon="3.28965">
        <ele>70</ele>
        <time>2014-05-04T07:54:54.000Z</time>
      </trkpt>
      <trkpt lat="48.2075" lon="3.28965">
        <ele>70</ele>
        <time>2014-05-04T07:54:55.000Z</time>
      </trkpt>
      <trkpt lat="48.20746" lon="3.28968">
        <ele>69</ele>
        <time>2014-05-04T07:54:56.000Z</time>
      </trkpt>
      <trkpt lat="48.20742" lon="3.2897">
        <ele>69</ele>
        <time>2014-05-04T07:54:57.000Z</time>
      </trkpt>
      <trkpt lat="48.20739" lon="3.28972">
        <ele>69</ele>
        <time>2014-05-04T07:54:58.000Z</time>
      </trkpt>
      <trkpt lat="48.20734" lon="3.28972">
        <ele>69</ele>
        <time>2014-05-04T07:54:59.000Z</time>
      </trkpt>
      <trkpt lat="48.20731" lon="3.28974">
        <ele>69</ele>
        <time>2014-05-04T07:55:00.000Z</time>
      </trkpt>
      <trkpt lat="48.20727" lon="3.28976">
        <ele>69</ele>
        <time>2014-05-04T07:55:01.000Z</time>
      </trkpt>
      <trkpt lat="48.20724" lon="3.2898">
        <ele>69</ele>
        <time>2014-05-04T07:55:02.000Z</time>
      </trkpt>
      <trkpt lat="48.20719" lon="3.28983">
        <ele>69</ele>
        <time>2014-05-04T07:55:03.000Z</time>
      </trkpt>
      <trkpt lat="48.20716" lon="3.28987">
        <ele>69</ele>
        <time>2014-05-04T07:55:04.000Z</time>
      </trkpt>
      <trkpt lat="48.20712" lon="3.28989">
        <ele>69</ele>
        <time>2014-05-04T07:55:05.000Z</time>
      </trkpt>
      <trkpt lat="48.20709" lon="3.28991">
        <ele>69</ele>
        <time>2014-05-04T07:55:06.000Z</time>
      </trkpt>
      <trkpt lat="48.20704" lon="3.28995">
        <ele>69</ele>
        <time>2014-05-04T07:55:07.000Z</time>
      </trkpt>
      <trkpt lat="48.20701" lon="3.29">
        <ele>69</ele>
        <time>2014-05-04T07:55:08.000Z</time>
      </trkpt>
      <trkpt lat="48.20698" lon="3.29002">
        <ele>69</ele>
        <time>2014-05-04T07:55:09.000Z</time>
      </trkpt>
      <trkpt lat="48.20695" lon="3.29006">
        <ele>69</ele>
        <time>2014-05-04T07:55:10.000Z</time>
      </trkpt>
      <trkpt lat="48.20691" lon="3.2901">
        <ele>69</ele>
        <time>2014-05-04T07:55:11.000Z</time>
      </trkpt>
      <trkpt lat="48.20687" lon="3.29017">
        <ele>69</ele>
        <time>2014-05-04T07:55:12.000Z</time>
      </trkpt>
      <trkpt lat="48.20684" lon="3.29021">
        <ele>69</ele>
        <time>2014-05-04T07:55:13.000Z</time>
      </trkpt>
      <trkpt lat="48.20681" lon="3.29028">
        <ele>69</ele>
        <time>2014-05-04T07:55:14.000Z</time>
      </trkpt>
      <trkpt lat="48.20677" lon="3.29032">
        <ele>69</ele>
        <time>2014-05-04T07:55:15.000Z</time>
      </trkpt>
      <trkpt lat="48.20673" lon="3.29038">
        <ele>69</ele>
        <time>2014-05-04T07:55:16.000Z</time>
      </trkpt>
      <trkpt lat="48.20671" lon="3.29041">
        <ele>69</ele>
        <time>2014-05-04T07:55:17.000Z</time>
      </trkpt>
      <trkpt lat="48.20668" lon="3.29045">
        <ele>69</ele>
        <time>2014-05-04T07:55:18.000Z</time>
      </trkpt>
      <trkpt lat="48.20666" lon="3.29047">
        <ele>68</ele>
        <time>2014-05-04T07:55:19.000Z</time>
      </trkpt>
      <trkpt lat="48.20662" lon="3.29049">
        <ele>68</ele>
        <time>2014-05-04T07:55:20.000Z</time>
      </trkpt>
      <trkpt lat="48.2066" lon="3.29053">
        <ele>68</ele>
        <time>2014-05-04T07:55:21.000Z</time>
      </trkpt>
      <trkpt lat="48.20658" lon="3.29056">
        <ele>68</ele>
        <time>2014-05-04T07:55:22.000Z</time>
      </trkpt>
      <trkpt lat="48.20657" lon="3.2906">
        <ele>68</ele>
        <time>2014-05-04T07:55:23.000Z</time>
      </trkpt>
      <trkpt lat="48.20656" lon="3.29064">
        <ele>68</ele>
        <time>2014-05-04T07:55:24.000Z</time>
      </trkpt>
      <trkpt lat="48.20656" lon="3.29064">
        <ele>68</ele>
        <time>2014-05-04T07:55:29.000Z</time>
      </trkpt>
      <trkpt lat="48.20662" lon="3.29075">
        <ele>68</ele>
        <time>2014-05-04T07:55:30.000Z</time>
      </trkpt>
      <trkpt lat="48.20662" lon="3.29075">
        <ele>68</ele>
        <time>2014-05-04T07:55:35.000Z</time>
      </trkpt>
      <trkpt lat="48.20673" lon="3.29073">
        <ele>69</ele>
        <time>2014-05-04T07:55:36.000Z</time>
      </trkpt>
      <trkpt lat="48.20673" lon="3.29073">
        <ele>69</ele>
        <time>2014-05-04T07:55:44.000Z</time>
      </trkpt>
      <trkpt lat="48.20682" lon="3.29068">
        <ele>69</ele>
        <time>2014-05-04T07:55:45.000Z</time>
      </trkpt>
      <trkpt lat="48.20682" lon="3.29068">
        <ele>69</ele>
        <time>2014-05-04T07:55:58.000Z</time>
      </trkpt>
      <trkpt lat="48.2069" lon="3.29064">
        <ele>69</ele>
        <time>2014-05-04T07:55:59.000Z</time>
      </trkpt>
      <trkpt lat="48.2069" lon="3.29064">
        <ele>69</ele>
        <time>2014-05-04T07:56:04.000Z</time>
      </trkpt>
      <trkpt lat="48.207" lon="3.29071">
        <ele>69</ele>
        <time>2014-05-04T07:56:05.000Z</time>
      </trkpt>
      <trkpt lat="48.207" lon="3.29071">
        <ele>69</ele>
        <time>2014-05-04T07:56:08.000Z</time>
      </trkpt>
      <trkpt lat="48.2071" lon="3.29075">
        <ele>70</ele>
        <time>2014-05-04T07:56:09.000Z</time>
      </trkpt>
      <trkpt lat="48.2071" lon="3.29075">
        <ele>70</ele>
        <time>2014-05-04T07:56:10.000Z</time>
      </trkpt>
      <trkpt lat="48.20714" lon="3.29079">
        <ele>70</ele>
        <time>2014-05-04T07:56:11.000Z</time>
      </trkpt>
      <trkpt lat="48.20714" lon="3.29079">
        <ele>70</ele>
        <time>2014-05-04T07:56:17.000Z</time>
      </trkpt>
      <trkpt lat="48.20724" lon="3.29083">
        <ele>70</ele>
        <time>2014-05-04T07:56:18.000Z</time>
      </trkpt>
      <trkpt lat="48.20724" lon="3.29083">
        <ele>70</ele>
        <time>2014-05-04T07:56:20.000Z</time>
      </trkpt>
      <trkpt lat="48.20729" lon="3.29088">
        <ele>70</ele>
        <time>2014-05-04T07:56:21.000Z</time>
      </trkpt>
      <trkpt lat="48.20729" lon="3.29088">
        <ele>70</ele>
        <time>2014-05-04T07:56:22.000Z</time>
      </trkpt>
      <trkpt lat="48.20734" lon="3.29094">
        <ele>70</ele>
        <time>2014-05-04T07:56:23.000Z</time>
      </trkpt>
      <trkpt lat="48.20737" lon="3.29096">
        <ele>70</ele>
        <time>2014-05-04T07:56:24.000Z</time>
      </trkpt>
      <trkpt lat="48.2074" lon="3.29098">
        <ele>70</ele>
        <time>2014-05-04T07:56:25.000Z</time>
      </trkpt>
      <trkpt lat="48.20743" lon="3.29103">
        <ele>70</ele>
        <time>2014-05-04T07:56:26.000Z</time>
      </trkpt>
      <trkpt lat="48.20745" lon="3.29105">
        <ele>70</ele>
        <time>2014-05-04T07:56:27.000Z</time>
      </trkpt>
      <trkpt lat="48.20747" lon="3.29107">
        <ele>70</ele>
        <time>2014-05-04T07:56:28.000Z</time>
      </trkpt>
      <trkpt lat="48.20749" lon="3.29109">
        <ele>70</ele>
        <time>2014-05-04T07:56:29.000Z</time>
      </trkpt>
      <trkpt lat="48.20751" lon="3.29111">
        <ele>71</ele>
        <time>2014-05-04T07:56:30.000Z</time>
      </trkpt>
      <trkpt lat="48.20754" lon="3.29113">
        <ele>71</ele>
        <time>2014-05-04T07:56:31.000Z</time>
      </trkpt>
      <trkpt lat="48.20754" lon="3.29113">
        <ele>71</ele>
        <time>2014-05-04T07:56:35.000Z</time>
      </trkpt>
      <trkpt lat="48.20762" lon="3.29122">
        <ele>71</ele>
        <time>2014-05-04T07:56:36.000Z</time>
      </trkpt>
      <trkpt lat="48.20765" lon="3.29126">
        <ele>71</ele>
        <time>2014-05-04T07:56:38.000Z</time>
      </trkpt>
      <trkpt lat="48.20768" lon="3.29129">
        <ele>71</ele>
        <time>2014-05-04T07:56:39.000Z</time>
      </trkpt>
      <trkpt lat="48.2077" lon="3.29131">
        <ele>71</ele>
        <time>2014-05-04T07:56:44.000Z</time>
      </trkpt>
      <trkpt lat="48.20773" lon="3.29146">
        <ele>71</ele>
        <time>2014-05-04T07:56:45.000Z</time>
      </trkpt>
      <trkpt lat="48.20773" lon="3.29146">
        <ele>71</ele>
        <time>2014-05-04T07:56:46.000Z</time>
      </trkpt>
      <trkpt lat="48.20773" lon="3.29154">
        <ele>71</ele>
        <time>2014-05-04T07:56:47.000Z</time>
      </trkpt>
      <trkpt lat="48.20774" lon="3.29159">
        <ele>71</ele>
        <time>2014-05-04T07:56:48.000Z</time>
      </trkpt>
      <trkpt lat="48.20775" lon="3.29163">
        <ele>71</ele>
        <time>2014-05-04T07:56:49.000Z</time>
      </trkpt>
      <trkpt lat="48.20774" lon="3.29169">
        <ele>70</ele>
        <time>2014-05-04T07:56:50.000Z</time>
      </trkpt>
      <trkpt lat="48.20774" lon="3.29176">
        <ele>70</ele>
        <time>2014-05-04T07:56:51.000Z</time>
      </trkpt>
      <trkpt lat="48.20774" lon="3.29182">
        <ele>70</ele>
        <time>2014-05-04T07:56:52.000Z</time>
      </trkpt>
      <trkpt lat="48.20773" lon="3.29186">
        <ele>70</ele>
        <time>2014-05-04T07:56:53.000Z</time>
      </trkpt>
      <trkpt lat="48.20773" lon="3.29191">
        <ele>70</ele>
        <time>2014-05-04T07:56:54.000Z</time>
      </trkpt>
      <trkpt lat="48.20773" lon="3.29195">
        <ele>70</ele>
        <time>2014-05-04T07:56:55.000Z</time>
      </trkpt>
      <trkpt lat="48.20773" lon="3.29199">
        <ele>71</ele>
        <time>2014-05-04T07:56:56.000Z</time>
      </trkpt>
      <trkpt lat="48.20773" lon="3.29204">
        <ele>71</ele>
        <time>2014-05-04T07:56:57.000Z</time>
      </trkpt>
      <trkpt lat="48.20773" lon="3.29208">
        <ele>71</ele>
        <time>2014-05-04T07:56:58.000Z</time>
      </trkpt>
      <trkpt lat="48.20772" lon="3.29212">
        <ele>71</ele>
        <time>2014-05-04T07:56:59.000Z</time>
      </trkpt>
      <trkpt lat="48.20772" lon="3.29219">
        <ele>71</ele>
        <time>2014-05-04T07:57:01.000Z</time>
      </trkpt>
      <trkpt lat="48.20772" lon="3.29223">
        <ele>71</ele>
        <time>2014-05-04T07:57:02.000Z</time>
      </trkpt>
      <trkpt lat="48.20771" lon="3.29229">
        <ele>71</ele>
        <time>2014-05-04T07:57:04.000Z</time>
      </trkpt>
      <trkpt lat="48.20771" lon="3.29232">
        <ele>71</ele>
        <time>2014-05-04T07:57:05.000Z</time>
      </trkpt>
      <trkpt lat="48.20771" lon="3.29232">
        <ele>71</ele>
        <time>2014-05-04T07:57:10.000Z</time>
      </trkpt>
      <trkpt lat="48.20766" lon="3.29247">
        <ele>71</ele>
        <time>2014-05-04T07:57:11.000Z</time>
      </trkpt>
      <trkpt lat="48.20766" lon="3.29247">
        <ele>71</ele>
        <time>2014-05-04T07:57:17.000Z</time>
      </trkpt>
      <trkpt lat="48.20761" lon="3.29259">
        <ele>72</ele>
        <time>2014-05-04T07:57:18.000Z</time>
      </trkpt>
      <trkpt lat="48.20761" lon="3.29259">
        <ele>72</ele>
        <time>2014-05-04T07:57:27.000Z</time>
      </trkpt>
      <trkpt lat="48.20757" lon="3.2927">
        <ele>72</ele>
        <time>2014-05-04T07:57:28.000Z</time>
      </trkpt>
      <trkpt lat="48.20757" lon="3.2927">
        <ele>72</ele>
        <time>2014-05-04T07:57:33.000Z</time>
      </trkpt>
      <trkpt lat="48.20753" lon="3.29283">
        <ele>72</ele>
        <time>2014-05-04T07:57:34.000Z</time>
      </trkpt>
      <trkpt lat="48.20753" lon="3.29283">
        <ele>72</ele>
        <time>2014-05-04T07:57:35.000Z</time>
      </trkpt>
      <trkpt lat="48.20755" lon="3.29292">
        <ele>72</ele>
        <time>2014-05-04T07:57:36.000Z</time>
      </trkpt>
      <trkpt lat="48.20758" lon="3.29296">
        <ele>72</ele>
        <time>2014-05-04T07:57:37.000Z</time>
      </trkpt>
      <trkpt lat="48.2076" lon="3.293">
        <ele>72</ele>
        <time>2014-05-04T07:57:38.000Z</time>
      </trkpt>
      <trkpt lat="48.20763" lon="3.29304">
        <ele>72</ele>
        <time>2014-05-04T07:57:39.000Z</time>
      </trkpt>
      <trkpt lat="48.20765" lon="3.29309">
        <ele>72</ele>
        <time>2014-05-04T07:57:40.000Z</time>
      </trkpt>
      <trkpt lat="48.20769" lon="3.29313">
        <ele>72</ele>
        <time>2014-05-04T07:57:41.000Z</time>
      </trkpt>
      <trkpt lat="48.20771" lon="3.29317">
        <ele>72</ele>
        <time>2014-05-04T07:57:42.000Z</time>
      </trkpt>
      <trkpt lat="48.20774" lon="3.29322">
        <ele>72</ele>
        <time>2014-05-04T07:57:43.000Z</time>
      </trkpt>
      <trkpt lat="48.20776" lon="3.29326">
        <ele>72</ele>
        <time>2014-05-04T07:57:44.000Z</time>
      </trkpt>
      <trkpt lat="48.20779" lon="3.2933">
        <ele>71</ele>
        <time>2014-05-04T07:57:45.000Z</time>
      </trkpt>
      <trkpt lat="48.20781" lon="3.29332">
        <ele>71</ele>
        <time>2014-05-04T07:57:46.000Z</time>
      </trkpt>
      <trkpt lat="48.20785" lon="3.29337">
        <ele>72</ele>
        <time>2014-05-04T07:57:47.000Z</time>
      </trkpt>
      <trkpt lat="48.20788" lon="3.29341">
        <ele>72</ele>
        <time>2014-05-04T07:57:48.000Z</time>
      </trkpt>
      <trkpt lat="48.20791" lon="3.29343">
        <ele>72</ele>
        <time>2014-05-04T07:57:49.000Z</time>
      </trkpt>
      <trkpt lat="48.20793" lon="3.29347">
        <ele>72</ele>
        <time>2014-05-04T07:57:50.000Z</time>
      </trkpt>
      <trkpt lat="48.20796" lon="3.29352">
        <ele>72</ele>
        <time>2014-05-04T07:57:51.000Z</time>
      </trkpt>
      <trkpt lat="48.20801" lon="3.29356">
        <ele>72</ele>
        <time>2014-05-04T07:57:52.000Z</time>
      </trkpt>
      <trkpt lat="48.20804" lon="3.29358">
        <ele>72</ele>
        <time>2014-05-04T07:57:53.000Z</time>
      </trkpt>
      <trkpt lat="48.20806" lon="3.29362">
        <ele>72</ele>
        <time>2014-05-04T07:57:54.000Z</time>
      </trkpt>
      <trkpt lat="48.20808" lon="3.29369">
        <ele>72</ele>
        <time>2014-05-04T07:57:55.000Z</time>
      </trkpt>
      <trkpt lat="48.20812" lon="3.29373">
        <ele>72</ele>
        <time>2014-05-04T07:57:56.000Z</time>
      </trkpt>
      <trkpt lat="48.20815" lon="3.2938">
        <ele>72</ele>
        <time>2014-05-04T07:57:57.000Z</time>
      </trkpt>
      <trkpt lat="48.20817" lon="3.29384">
        <ele>72</ele>
        <time>2014-05-04T07:57:58.000Z</time>
      </trkpt>
      <trkpt lat="48.2082" lon="3.29388">
        <ele>72</ele>
        <time>2014-05-04T07:57:59.000Z</time>
      </trkpt>
      <trkpt lat="48.20822" lon="3.29395">
        <ele>71</ele>
        <time>2014-05-04T07:58:00.000Z</time>
      </trkpt>
      <trkpt lat="48.20824" lon="3.29401">
        <ele>71</ele>
        <time>2014-05-04T07:58:01.000Z</time>
      </trkpt>
      <trkpt lat="48.20828" lon="3.29405">
        <ele>71</ele>
        <time>2014-05-04T07:58:02.000Z</time>
      </trkpt>
      <trkpt lat="48.2083" lon="3.29412">
        <ele>71</ele>
        <time>2014-05-04T07:58:03.000Z</time>
      </trkpt>
      <trkpt lat="48.20833" lon="3.29416">
        <ele>71</ele>
        <time>2014-05-04T07:58:04.000Z</time>
      </trkpt>
      <trkpt lat="48.20835" lon="3.29422">
        <ele>71</ele>
        <time>2014-05-04T07:58:05.000Z</time>
      </trkpt>
      <trkpt lat="48.20838" lon="3.29427">
        <ele>71</ele>
        <time>2014-05-04T07:58:06.000Z</time>
      </trkpt>
      <trkpt lat="48.2084" lon="3.29433">
        <ele>72</ele>
        <time>2014-05-04T07:58:07.000Z</time>
      </trkpt>
      <trkpt lat="48.20844" lon="3.29437">
        <ele>72</ele>
        <time>2014-05-04T07:58:08.000Z</time>
      </trkpt>
      <trkpt lat="48.20846" lon="3.29442">
        <ele>72</ele>
        <time>2014-05-04T07:58:09.000Z</time>
      </trkpt>
      <trkpt lat="48.20849" lon="3.29446">
        <ele>72</ele>
        <time>2014-05-04T07:58:10.000Z</time>
      </trkpt>
      <trkpt lat="48.20853" lon="3.2945">
        <ele>72</ele>
        <time>2014-05-04T07:58:11.000Z</time>
      </trkpt>
      <trkpt lat="48.20857" lon="3.29455">
        <ele>72</ele>
        <time>2014-05-04T07:58:12.000Z</time>
      </trkpt>
      <trkpt lat="48.2086" lon="3.29459">
        <ele>72</ele>
        <time>2014-05-04T07:58:13.000Z</time>
      </trkpt>
      <trkpt lat="48.20863" lon="3.29463">
        <ele>72</ele>
        <time>2014-05-04T07:58:14.000Z</time>
      </trkpt>
      <trkpt lat="48.20867" lon="3.29468">
        <ele>72</ele>
        <time>2014-05-04T07:58:15.000Z</time>
      </trkpt>
      <trkpt lat="48.20871" lon="3.29472">
        <ele>72</ele>
        <time>2014-05-04T07:58:16.000Z</time>
      </trkpt>
      <trkpt lat="48.20874" lon="3.29476">
        <ele>72</ele>
        <time>2014-05-04T07:58:17.000Z</time>
      </trkpt>
      <trkpt lat="48.20877" lon="3.2948">
        <ele>72</ele>
        <time>2014-05-04T07:58:18.000Z</time>
      </trkpt>
      <trkpt lat="48.20879" lon="3.29485">
        <ele>72</ele>
        <time>2014-05-04T07:58:19.000Z</time>
      </trkpt>
      <trkpt lat="48.20882" lon="3.29491">
        <ele>72</ele>
        <time>2014-05-04T07:58:20.000Z</time>
      </trkpt>
      <trkpt lat="48.20886" lon="3.29495">
        <ele>72</ele>
        <time>2014-05-04T07:58:21.000Z</time>
      </trkpt>
      <trkpt lat="48.20889" lon="3.29502">
        <ele>73</ele>
        <time>2014-05-04T07:58:22.000Z</time>
      </trkpt>
      <trkpt lat="48.20892" lon="3.29506">
        <ele>73</ele>
        <time>2014-05-04T07:58:23.000Z</time>
      </trkpt>
      <trkpt lat="48.20894" lon="3.29513">
        <ele>73</ele>
        <time>2014-05-04T07:58:24.000Z</time>
      </trkpt>
      <trkpt lat="48.20897" lon="3.29517">
        <ele>73</ele>
        <time>2014-05-04T07:58:25.000Z</time>
      </trkpt>
      <trkpt lat="48.20901" lon="3.29523">
        <ele>73</ele>
        <time>2014-05-04T07:58:26.000Z</time>
      </trkpt>
      <trkpt lat="48.20904" lon="3.29528">
        <ele>73</ele>
        <time>2014-05-04T07:58:27.000Z</time>
      </trkpt>
      <trkpt lat="48.20907" lon="3.29532">
        <ele>73</ele>
        <time>2014-05-04T07:58:28.000Z</time>
      </trkpt>
      <trkpt lat="48.20909" lon="3.29538">
        <ele>73</ele>
        <time>2014-05-04T07:58:29.000Z</time>
      </trkpt>
      <trkpt lat="48.20912" lon="3.29543">
        <ele>73</ele>
        <time>2014-05-04T07:58:30.000Z</time>
      </trkpt>
      <trkpt lat="48.20916" lon="3.29549">
        <ele>74</ele>
        <time>2014-05-04T07:58:31.000Z</time>
      </trkpt>
      <trkpt lat="48.20918" lon="3.29553">
        <ele>73</ele>
        <time>2014-05-04T07:58:32.000Z</time>
      </trkpt>
      <trkpt lat="48.20921" lon="3.2956">
        <ele>73</ele>
        <time>2014-05-04T07:58:33.000Z</time>
      </trkpt>
      <trkpt lat="48.20923" lon="3.29564">
        <ele>73</ele>
        <time>2014-05-04T07:58:34.000Z</time>
      </trkpt>
      <trkpt lat="48.20926" lon="3.29571">
        <ele>73</ele>
        <time>2014-05-04T07:58:35.000Z</time>
      </trkpt>
      <trkpt lat="48.2093" lon="3.29575">
        <ele>73</ele>
        <time>2014-05-04T07:58:36.000Z</time>
      </trkpt>
      <trkpt lat="48.20932" lon="3.29581">
        <ele>73</ele>
        <time>2014-05-04T07:58:37.000Z</time>
      </trkpt>
      <trkpt lat="48.20935" lon="3.29586">
        <ele>74</ele>
        <time>2014-05-04T07:58:38.000Z</time>
      </trkpt>
      <trkpt lat="48.20937" lon="3.2959">
        <ele>74</ele>
        <time>2014-05-04T07:58:39.000Z</time>
      </trkpt>
      <trkpt lat="48.2094" lon="3.29596">
        <ele>74</ele>
        <time>2014-05-04T07:58:40.000Z</time>
      </trkpt>
      <trkpt lat="48.20942" lon="3.29601">
        <ele>74</ele>
        <time>2014-05-04T07:58:41.000Z</time>
      </trkpt>
      <trkpt lat="48.20946" lon="3.29605">
        <ele>74</ele>
        <time>2014-05-04T07:58:42.000Z</time>
      </trkpt>
      <trkpt lat="48.20949" lon="3.29609">
        <ele>74</ele>
        <time>2014-05-04T07:58:43.000Z</time>
      </trkpt>
      <trkpt lat="48.20951" lon="3.29613">
        <ele>74</ele>
        <time>2014-05-04T07:58:44.000Z</time>
      </trkpt>
      <trkpt lat="48.20954" lon="3.29618">
        <ele>74</ele>
        <time>2014-05-04T07:58:45.000Z</time>
      </trkpt>
      <trkpt lat="48.20957" lon="3.29624">
        <ele>74</ele>
        <time>2014-05-04T07:58:46.000Z</time>
      </trkpt>
      <trkpt lat="48.20961" lon="3.29628">
        <ele>73</ele>
        <time>2014-05-04T07:58:47.000Z</time>
      </trkpt>
      <trkpt lat="48.20964" lon="3.29633">
        <ele>73</ele>
        <time>2014-05-04T07:58:48.000Z</time>
      </trkpt>
      <trkpt lat="48.20966" lon="3.29637">
        <ele>73</ele>
        <time>2014-05-04T07:58:49.000Z</time>
      </trkpt>
      <trkpt lat="48.20969" lon="3.29641">
        <ele>73</ele>
        <time>2014-05-04T07:58:50.000Z</time>
      </trkpt>
      <trkpt lat="48.20972" lon="3.29646">
        <ele>73</ele>
        <time>2014-05-04T07:58:51.000Z</time>
      </trkpt>
      <trkpt lat="48.20975" lon="3.29652">
        <ele>73</ele>
        <time>2014-05-04T07:58:52.000Z</time>
      </trkpt>
      <trkpt lat="48.20977" lon="3.29656">
        <ele>73</ele>
        <time>2014-05-04T07:58:53.000Z</time>
      </trkpt>
      <trkpt lat="48.2098" lon="3.29663">
        <ele>73</ele>
        <time>2014-05-04T07:58:54.000Z</time>
      </trkpt>
      <trkpt lat="48.20982" lon="3.29667">
        <ele>73</ele>
        <time>2014-05-04T07:58:55.000Z</time>
      </trkpt>
      <trkpt lat="48.20985" lon="3.29671">
        <ele>73</ele>
        <time>2014-05-04T07:58:56.000Z</time>
      </trkpt>
      <trkpt lat="48.20989" lon="3.29676">
        <ele>73</ele>
        <time>2014-05-04T07:58:57.000Z</time>
      </trkpt>
      <trkpt lat="48.20991" lon="3.29682">
        <ele>73</ele>
        <time>2014-05-04T07:58:58.000Z</time>
      </trkpt>
      <trkpt lat="48.20994" lon="3.29686">
        <ele>73</ele>
        <time>2014-05-04T07:58:59.000Z</time>
      </trkpt>
      <trkpt lat="48.20996" lon="3.29691">
        <ele>73</ele>
        <time>2014-05-04T07:59:00.000Z</time>
      </trkpt>
      <trkpt lat="48.20999" lon="3.29697">
        <ele>73</ele>
        <time>2014-05-04T07:59:01.000Z</time>
      </trkpt>
      <trkpt lat="48.21001" lon="3.29701">
        <ele>73</ele>
        <time>2014-05-04T07:59:02.000Z</time>
      </trkpt>
      <trkpt lat="48.21005" lon="3.29706">
        <ele>73</ele>
        <time>2014-05-04T07:59:03.000Z</time>
      </trkpt>
      <trkpt lat="48.21007" lon="3.29712">
        <ele>73</ele>
        <time>2014-05-04T07:59:04.000Z</time>
      </trkpt>
      <trkpt lat="48.2101" lon="3.29716">
        <ele>73</ele>
        <time>2014-05-04T07:59:05.000Z</time>
      </trkpt>
      <trkpt lat="48.21013" lon="3.29723">
        <ele>73</ele>
        <time>2014-05-04T07:59:06.000Z</time>
      </trkpt>
      <trkpt lat="48.21016" lon="3.29727">
        <ele>73</ele>
        <time>2014-05-04T07:59:07.000Z</time>
      </trkpt>
      <trkpt lat="48.21019" lon="3.29731">
        <ele>73</ele>
        <time>2014-05-04T07:59:08.000Z</time>
      </trkpt>
      <trkpt lat="48.21022" lon="3.29736">
        <ele>73</ele>
        <time>2014-05-04T07:59:09.000Z</time>
      </trkpt>
      <trkpt lat="48.21025" lon="3.2974">
        <ele>73</ele>
        <time>2014-05-04T07:59:10.000Z</time>
      </trkpt>
      <trkpt lat="48.21028" lon="3.29746">
        <ele>73</ele>
        <time>2014-05-04T07:59:11.000Z</time>
      </trkpt>
      <trkpt lat="48.2103" lon="3.29751">
        <ele>73</ele>
        <time>2014-05-04T07:59:12.000Z</time>
      </trkpt>
      <trkpt lat="48.21034" lon="3.29755">
        <ele>73</ele>
        <time>2014-05-04T07:59:13.000Z</time>
      </trkpt>
      <trkpt lat="48.21037" lon="3.29759">
        <ele>73</ele>
        <time>2014-05-04T07:59:14.000Z</time>
      </trkpt>
      <trkpt lat="48.2104" lon="3.29766">
        <ele>73</ele>
        <time>2014-05-04T07:59:15.000Z</time>
      </trkpt>
      <trkpt lat="48.21042" lon="3.2977">
        <ele>74</ele>
        <time>2014-05-04T07:59:16.000Z</time>
      </trkpt>
      <trkpt lat="48.21045" lon="3.29777">
        <ele>74</ele>
        <time>2014-05-04T07:59:17.000Z</time>
      </trkpt>
      <trkpt lat="48.21049" lon="3.29781">
        <ele>74</ele>
        <time>2014-05-04T07:59:18.000Z</time>
      </trkpt>
      <trkpt lat="48.21052" lon="3.29787">
        <ele>74</ele>
        <time>2014-05-04T07:59:19.000Z</time>
      </trkpt>
      <trkpt lat="48.21056" lon="3.29789">
        <ele>74</ele>
        <time>2014-05-04T07:59:20.000Z</time>
      </trkpt>
      <trkpt lat="48.21059" lon="3.29794">
        <ele>74</ele>
        <time>2014-05-04T07:59:21.000Z</time>
      </trkpt>
      <trkpt lat="48.21064" lon="3.29798">
        <ele>74</ele>
        <time>2014-05-04T07:59:22.000Z</time>
      </trkpt>
      <trkpt lat="48.21067" lon="3.29802">
        <ele>74</ele>
        <time>2014-05-04T07:59:23.000Z</time>
      </trkpt>
      <trkpt lat="48.2107" lon="3.29807">
        <ele>74</ele>
        <time>2014-05-04T07:59:24.000Z</time>
      </trkpt>
      <trkpt lat="48.21074" lon="3.29811">
        <ele>74</ele>
        <time>2014-05-04T07:59:25.000Z</time>
      </trkpt>
      <trkpt lat="48.21078" lon="3.29815">
        <ele>74</ele>
        <time>2014-05-04T07:59:26.000Z</time>
      </trkpt>
      <trkpt lat="48.21081" lon="3.29819">
        <ele>74</ele>
        <time>2014-05-04T07:59:27.000Z</time>
      </trkpt>
      <trkpt lat="48.21085" lon="3.29824">
        <ele>74</ele>
        <time>2014-05-04T07:59:28.000Z</time>
      </trkpt>
      <trkpt lat="48.21088" lon="3.29828">
        <ele>74</ele>
        <time>2014-05-04T07:59:29.000Z</time>
      </trkpt>
      <trkpt lat="48.21093" lon="3.2983">
        <ele>74</ele>
        <time>2014-05-04T07:59:30.000Z</time>
      </trkpt>
      <trkpt lat="48.21097" lon="3.29834">
        <ele>74</ele>
        <time>2014-05-04T07:59:31.000Z</time>
      </trkpt>
      <trkpt lat="48.21101" lon="3.29837">
        <ele>74</ele>
        <time>2014-05-04T07:59:32.000Z</time>
      </trkpt>
      <trkpt lat="48.21105" lon="3.29841">
        <ele>74</ele>
        <time>2014-05-04T07:59:33.000Z</time>
      </trkpt>
      <trkpt lat="48.2111" lon="3.29845">
        <ele>74</ele>
        <time>2014-05-04T07:59:34.000Z</time>
      </trkpt>
      <trkpt lat="48.21114" lon="3.29849">
        <ele>74</ele>
        <time>2014-05-04T07:59:35.000Z</time>
      </trkpt>
      <trkpt lat="48.21118" lon="3.29854">
        <ele>74</ele>
        <time>2014-05-04T07:59:36.000Z</time>
      </trkpt>
      <trkpt lat="48.21123" lon="3.29858">
        <ele>74</ele>
        <time>2014-05-04T07:59:37.000Z</time>
      </trkpt>
      <trkpt lat="48.21127" lon="3.29862">
        <ele>73</ele>
        <time>2014-05-04T07:59:38.000Z</time>
      </trkpt>
      <trkpt lat="48.21131" lon="3.29867">
        <ele>73</ele>
        <time>2014-05-04T07:59:39.000Z</time>
      </trkpt>
      <trkpt lat="48.21134" lon="3.29871">
        <ele>73</ele>
        <time>2014-05-04T07:59:40.000Z</time>
      </trkpt>
      <trkpt lat="48.21139" lon="3.29877">
        <ele>73</ele>
        <time>2014-05-04T07:59:41.000Z</time>
      </trkpt>
      <trkpt lat="48.21143" lon="3.29882">
        <ele>73</ele>
        <time>2014-05-04T07:59:42.000Z</time>
      </trkpt>
      <trkpt lat="48.21147" lon="3.29888">
        <ele>73</ele>
        <time>2014-05-04T07:59:43.000Z</time>
      </trkpt>
      <trkpt lat="48.21152" lon="3.29892">
        <ele>73</ele>
        <time>2014-05-04T07:59:44.000Z</time>
      </trkpt>
      <trkpt lat="48.21155" lon="3.29899">
        <ele>73</ele>
        <time>2014-05-04T07:59:45.000Z</time>
      </trkpt>
      <trkpt lat="48.21159" lon="3.29903">
        <ele>73</ele>
        <time>2014-05-04T07:59:46.000Z</time>
      </trkpt>
      <trkpt lat="48.21163" lon="3.2991">
        <ele>73</ele>
        <time>2014-05-04T07:59:47.000Z</time>
      </trkpt>
      <trkpt lat="48.21168" lon="3.29914">
        <ele>73</ele>
        <time>2014-05-04T07:59:48.000Z</time>
      </trkpt>
      <trkpt lat="48.21171" lon="3.2992">
        <ele>73</ele>
        <time>2014-05-04T07:59:49.000Z</time>
      </trkpt>
      <trkpt lat="48.21175" lon="3.29925">
        <ele>73</ele>
        <time>2014-05-04T07:59:50.000Z</time>
      </trkpt>
      <trkpt lat="48.21178" lon="3.29931">
        <ele>72</ele>
        <time>2014-05-04T07:59:51.000Z</time>
      </trkpt>
      <trkpt lat="48.21182" lon="3.29937">
        <ele>72</ele>
        <time>2014-05-04T07:59:52.000Z</time>
      </trkpt>
      <trkpt lat="48.21185" lon="3.29942">
        <ele>72</ele>
        <time>2014-05-04T07:59:53.000Z</time>
      </trkpt>
      <trkpt lat="48.21189" lon="3.29948">
        <ele>72</ele>
        <time>2014-05-04T07:59:54.000Z</time>
      </trkpt>
      <trkpt lat="48.21192" lon="3.29955">
        <ele>72</ele>
        <time>2014-05-04T07:59:55.000Z</time>
      </trkpt>
      <trkpt lat="48.21196" lon="3.29959">
        <ele>72</ele>
        <time>2014-05-04T07:59:56.000Z</time>
      </trkpt>
      <trkpt lat="48.21199" lon="3.29965">
        <ele>72</ele>
        <time>2014-05-04T07:59:57.000Z</time>
      </trkpt>
      <trkpt lat="48.21202" lon="3.29972">
        <ele>72</ele>
        <time>2014-05-04T07:59:58.000Z</time>
      </trkpt>
      <trkpt lat="48.21206" lon="3.29976">
        <ele>72</ele>
        <time>2014-05-04T07:59:59.000Z</time>
      </trkpt>
      <trkpt lat="48.2121" lon="3.29983">
        <ele>72</ele>
        <time>2014-05-04T08:00:00.000Z</time>
      </trkpt>
      <trkpt lat="48.21214" lon="3.29987">
        <ele>72</ele>
        <time>2014-05-04T08:00:01.000Z</time>
      </trkpt>
      <trkpt lat="48.21217" lon="3.29991">
        <ele>72</ele>
        <time>2014-05-04T08:00:02.000Z</time>
      </trkpt>
      <trkpt lat="48.21221" lon="3.29998">
        <ele>72</ele>
        <time>2014-05-04T08:00:03.000Z</time>
      </trkpt>
      <trkpt lat="48.21225" lon="3.30002">
        <ele>71</ele>
        <time>2014-05-04T08:00:04.000Z</time>
      </trkpt>
      <trkpt lat="48.21229" lon="3.30008">
        <ele>71</ele>
        <time>2014-05-04T08:00:05.000Z</time>
      </trkpt>
      <trkpt lat="48.21232" lon="3.30013">
        <ele>71</ele>
        <time>2014-05-04T08:00:06.000Z</time>
      </trkpt>
      <trkpt lat="48.21236" lon="3.30019">
        <ele>71</ele>
        <time>2014-05-04T08:00:07.000Z</time>
      </trkpt>
      <trkpt lat="48.2124" lon="3.30023">
        <ele>71</ele>
        <time>2014-05-04T08:00:08.000Z</time>
      </trkpt>
      <trkpt lat="48.21244" lon="3.30028">
        <ele>71</ele>
        <time>2014-05-04T08:00:09.000Z</time>
      </trkpt>
      <trkpt lat="48.21247" lon="3.30034">
        <ele>71</ele>
        <time>2014-05-04T08:00:10.000Z</time>
      </trkpt>
      <trkpt lat="48.21251" lon="3.30038">
        <ele>71</ele>
        <time>2014-05-04T08:00:11.000Z</time>
      </trkpt>
      <trkpt lat="48.21256" lon="3.30043">
        <ele>72</ele>
        <time>2014-05-04T08:00:12.000Z</time>
      </trkpt>
      <trkpt lat="48.21259" lon="3.30047">
        <ele>72</ele>
        <time>2014-05-04T08:00:13.000Z</time>
      </trkpt>
      <trkpt lat="48.21263" lon="3.30051">
        <ele>72</ele>
        <time>2014-05-04T08:00:14.000Z</time>
      </trkpt>
      <trkpt lat="48.21266" lon="3.30058">
        <ele>72</ele>
        <time>2014-05-04T08:00:15.000Z</time>
      </trkpt>
      <trkpt lat="48.2127" lon="3.30062">
        <ele>72</ele>
        <time>2014-05-04T08:00:16.000Z</time>
      </trkpt>
      <trkpt lat="48.21274" lon="3.30066">
        <ele>72</ele>
        <time>2014-05-04T08:00:17.000Z</time>
      </trkpt>
      <trkpt lat="48.21277" lon="3.3007">
        <ele>72</ele>
        <time>2014-05-04T08:00:18.000Z</time>
      </trkpt>
      <trkpt lat="48.2128" lon="3.30075">
        <ele>72</ele>
        <time>2014-05-04T08:00:19.000Z</time>
      </trkpt>
      <trkpt lat="48.21283" lon="3.30079">
        <ele>72</ele>
        <time>2014-05-04T08:00:20.000Z</time>
      </trkpt>
      <trkpt lat="48.21286" lon="3.30083">
        <ele>72</ele>
        <time>2014-05-04T08:00:21.000Z</time>
      </trkpt>
      <trkpt lat="48.21288" lon="3.30086">
        <ele>72</ele>
        <time>2014-05-04T08:00:22.000Z</time>
      </trkpt>
      <trkpt lat="48.21291" lon="3.3009">
        <ele>72</ele>
        <time>2014-05-04T08:00:23.000Z</time>
      </trkpt>
      <trkpt lat="48.21293" lon="3.30092">
        <ele>73</ele>
        <time>2014-05-04T08:00:24.000Z</time>
      </trkpt>
      <trkpt lat="48.21296" lon="3.30096">
        <ele>73</ele>
        <time>2014-05-04T08:00:25.000Z</time>
      </trkpt>
      <trkpt lat="48.213" lon="3.30101">
        <ele>73</ele>
        <time>2014-05-04T08:00:26.000Z</time>
      </trkpt>
      <trkpt lat="48.21303" lon="3.30103">
        <ele>73</ele>
        <time>2014-05-04T08:00:27.000Z</time>
      </trkpt>
      <trkpt lat="48.21306" lon="3.30107">
        <ele>73</ele>
        <time>2014-05-04T08:00:28.000Z</time>
      </trkpt>
      <trkpt lat="48.21309" lon="3.30111">
        <ele>73</ele>
        <time>2014-05-04T08:00:29.000Z</time>
      </trkpt>
      <trkpt lat="48.21313" lon="3.30113">
        <ele>73</ele>
        <time>2014-05-04T08:00:30.000Z</time>
      </trkpt>
      <trkpt lat="48.21316" lon="3.30118">
        <ele>73</ele>
        <time>2014-05-04T08:00:31.000Z</time>
      </trkpt>
      <trkpt lat="48.21319" lon="3.30122">
        <ele>73</ele>
        <time>2014-05-04T08:00:32.000Z</time>
      </trkpt>
      <trkpt lat="48.21321" lon="3.30124">
        <ele>73</ele>
        <time>2014-05-04T08:00:33.000Z</time>
      </trkpt>
      <trkpt lat="48.21324" lon="3.30126">
        <ele>73</ele>
        <time>2014-05-04T08:00:34.000Z</time>
      </trkpt>
      <trkpt lat="48.21325" lon="3.30128">
        <ele>73</ele>
        <time>2014-05-04T08:00:35.000Z</time>
      </trkpt>
      <trkpt lat="48.21325" lon="3.30128">
        <ele>73</ele>
        <time>2014-05-04T08:00:39.000Z</time>
      </trkpt>
      <trkpt lat="48.21324" lon="3.30141">
        <ele>73</ele>
        <time>2014-05-04T08:00:40.000Z</time>
      </trkpt>
      <trkpt lat="48.21324" lon="3.30141">
        <ele>73</ele>
        <time>2014-05-04T08:00:41.000Z</time>
      </trkpt>
      <trkpt lat="48.21321" lon="3.3015">
        <ele>74</ele>
        <time>2014-05-04T08:00:42.000Z</time>
      </trkpt>
      <trkpt lat="48.21319" lon="3.30154">
        <ele>74</ele>
        <time>2014-05-04T08:00:43.000Z</time>
      </trkpt>
      <trkpt lat="48.21317" lon="3.30161">
        <ele>74</ele>
        <time>2014-05-04T08:00:44.000Z</time>
      </trkpt>
      <trkpt lat="48.21314" lon="3.30167">
        <ele>75</ele>
        <time>2014-05-04T08:00:45.000Z</time>
      </trkpt>
      <trkpt lat="48.2131" lon="3.30173">
        <ele>75</ele>
        <time>2014-05-04T08:00:46.000Z</time>
      </trkpt>
      <trkpt lat="48.21305" lon="3.3018">
        <ele>74</ele>
        <time>2014-05-04T08:00:47.000Z</time>
      </trkpt>
      <trkpt lat="48.21301" lon="3.30186">
        <ele>74</ele>
        <time>2014-05-04T08:00:48.000Z</time>
      </trkpt>
      <trkpt lat="48.21295" lon="3.30195">
        <ele>74</ele>
        <time>2014-05-04T08:00:49.000Z</time>
      </trkpt>
      <trkpt lat="48.21291" lon="3.30204">
        <ele>74</ele>
        <time>2014-05-04T08:00:50.000Z</time>
      </trkpt>
      <trkpt lat="48.21286" lon="3.30212">
        <ele>74</ele>
        <time>2014-05-04T08:00:51.000Z</time>
      </trkpt>
      <trkpt lat="48.2128" lon="3.30219">
        <ele>75</ele>
        <time>2014-05-04T08:00:52.000Z</time>
      </trkpt>
      <trkpt lat="48.21275" lon="3.30227">
        <ele>75</ele>
        <time>2014-05-04T08:00:53.000Z</time>
      </trkpt>
      <trkpt lat="48.21271" lon="3.30236">
        <ele>75</ele>
        <time>2014-05-04T08:00:54.000Z</time>
      </trkpt>
      <trkpt lat="48.21265" lon="3.30242">
        <ele>75</ele>
        <time>2014-05-04T08:00:55.000Z</time>
      </trkpt>
      <trkpt lat="48.21261" lon="3.30251">
        <ele>76</ele>
        <time>2014-05-04T08:00:56.000Z</time>
      </trkpt>
      <trkpt lat="48.21257" lon="3.30259">
        <ele>76</ele>
        <time>2014-05-04T08:00:57.000Z</time>
      </trkpt>
      <trkpt lat="48.21252" lon="3.30266">
        <ele>76</ele>
        <time>2014-05-04T08:00:58.000Z</time>
      </trkpt>
      <trkpt lat="48.21249" lon="3.30274">
        <ele>75</ele>
        <time>2014-05-04T08:00:59.000Z</time>
      </trkpt>
      <trkpt lat="48.21245" lon="3.30281">
        <ele>75</ele>
        <time>2014-05-04T08:01:00.000Z</time>
      </trkpt>
      <trkpt lat="48.21242" lon="3.30287">
        <ele>75</ele>
        <time>2014-05-04T08:01:01.000Z</time>
      </trkpt>
      <trkpt lat="48.21239" lon="3.30294">
        <ele>75</ele>
        <time>2014-05-04T08:01:02.000Z</time>
      </trkpt>
      <trkpt lat="48.21235" lon="3.30302">
        <ele>75</ele>
        <time>2014-05-04T08:01:03.000Z</time>
      </trkpt>
      <trkpt lat="48.21231" lon="3.30309">
        <ele>75</ele>
        <time>2014-05-04T08:01:04.000Z</time>
      </trkpt>
      <trkpt lat="48.21228" lon="3.30315">
        <ele>76</ele>
        <time>2014-05-04T08:01:05.000Z</time>
      </trkpt>
      <trkpt lat="48.21225" lon="3.30322">
        <ele>76</ele>
        <time>2014-05-04T08:01:06.000Z</time>
      </trkpt>
      <trkpt lat="48.21222" lon="3.3033">
        <ele>76</ele>
        <time>2014-05-04T08:01:07.000Z</time>
      </trkpt>
      <trkpt lat="48.21218" lon="3.30337">
        <ele>76</ele>
        <time>2014-05-04T08:01:08.000Z</time>
      </trkpt>
      <trkpt lat="48.21215" lon="3.30343">
        <ele>76</ele>
        <time>2014-05-04T08:01:09.000Z</time>
      </trkpt>
      <trkpt lat="48.21212" lon="3.30349">
        <ele>76</ele>
        <time>2014-05-04T08:01:10.000Z</time>
      </trkpt>
      <trkpt lat="48.21208" lon="3.30354">
        <ele>76</ele>
        <time>2014-05-04T08:01:11.000Z</time>
      </trkpt>
      <trkpt lat="48.21205" lon="3.3036">
        <ele>76</ele>
        <time>2014-05-04T08:01:12.000Z</time>
      </trkpt>
      <trkpt lat="48.21204" lon="3.30369">
        <ele>76</ele>
        <time>2014-05-04T08:01:13.000Z</time>
      </trkpt>
      <trkpt lat="48.21203" lon="3.30375">
        <ele>76</ele>
        <time>2014-05-04T08:01:14.000Z</time>
      </trkpt>
      <trkpt lat="48.21202" lon="3.30384">
        <ele>76</ele>
        <time>2014-05-04T08:01:15.000Z</time>
      </trkpt>
      <trkpt lat="48.21202" lon="3.3039">
        <ele>76</ele>
        <time>2014-05-04T08:01:16.000Z</time>
      </trkpt>
      <trkpt lat="48.21201" lon="3.30397">
        <ele>76</ele>
        <time>2014-05-04T08:01:17.000Z</time>
      </trkpt>
      <trkpt lat="48.21201" lon="3.30405">
        <ele>76</ele>
        <time>2014-05-04T08:01:18.000Z</time>
      </trkpt>
      <trkpt lat="48.21201" lon="3.30412">
        <ele>76</ele>
        <time>2014-05-04T08:01:19.000Z</time>
      </trkpt>
      <trkpt lat="48.21201" lon="3.3042">
        <ele>76</ele>
        <time>2014-05-04T08:01:20.000Z</time>
      </trkpt>
      <trkpt lat="48.21201" lon="3.30429">
        <ele>76</ele>
        <time>2014-05-04T08:01:21.000Z</time>
      </trkpt>
      <trkpt lat="48.21201" lon="3.30435">
        <ele>76</ele>
        <time>2014-05-04T08:01:22.000Z</time>
      </trkpt>
      <trkpt lat="48.21202" lon="3.30444">
        <ele>76</ele>
        <time>2014-05-04T08:01:23.000Z</time>
      </trkpt>
      <trkpt lat="48.21202" lon="3.30452">
        <ele>76</ele>
        <time>2014-05-04T08:01:24.000Z</time>
      </trkpt>
      <trkpt lat="48.21202" lon="3.30461">
        <ele>76</ele>
        <time>2014-05-04T08:01:25.000Z</time>
      </trkpt>
      <trkpt lat="48.21203" lon="3.3047">
        <ele>76</ele>
        <time>2014-05-04T08:01:26.000Z</time>
      </trkpt>
      <trkpt lat="48.21203" lon="3.30476">
        <ele>76</ele>
        <time>2014-05-04T08:01:27.000Z</time>
      </trkpt>
      <trkpt lat="48.21204" lon="3.30485">
        <ele>76</ele>
        <time>2014-05-04T08:01:28.000Z</time>
      </trkpt>
      <trkpt lat="48.21205" lon="3.30493">
        <ele>76</ele>
        <time>2014-05-04T08:01:29.000Z</time>
      </trkpt>
      <trkpt lat="48.21205" lon="3.30502">
        <ele>76</ele>
        <time>2014-05-04T08:01:30.000Z</time>
      </trkpt>
      <trkpt lat="48.21206" lon="3.3051">
        <ele>76</ele>
        <time>2014-05-04T08:01:31.000Z</time>
      </trkpt>
      <trkpt lat="48.21207" lon="3.30517">
        <ele>76</ele>
        <time>2014-05-04T08:01:32.000Z</time>
      </trkpt>
      <trkpt lat="48.21208" lon="3.30525">
        <ele>76</ele>
        <time>2014-05-04T08:01:33.000Z</time>
      </trkpt>
      <trkpt lat="48.2121" lon="3.30534">
        <ele>76</ele>
        <time>2014-05-04T08:01:34.000Z</time>
      </trkpt>
      <trkpt lat="48.21211" lon="3.30543">
        <ele>76</ele>
        <time>2014-05-04T08:01:35.000Z</time>
      </trkpt>
      <trkpt lat="48.21212" lon="3.30551">
        <ele>76</ele>
        <time>2014-05-04T08:01:36.000Z</time>
      </trkpt>
      <trkpt lat="48.21213" lon="3.30558">
        <ele>76</ele>
        <time>2014-05-04T08:01:37.000Z</time>
      </trkpt>
      <trkpt lat="48.21214" lon="3.30566">
        <ele>76</ele>
        <time>2014-05-04T08:01:38.000Z</time>
      </trkpt>
      <trkpt lat="48.21215" lon="3.30575">
        <ele>76</ele>
        <time>2014-05-04T08:01:39.000Z</time>
      </trkpt>
      <trkpt lat="48.21216" lon="3.30583">
        <ele>76</ele>
        <time>2014-05-04T08:01:40.000Z</time>
      </trkpt>
      <trkpt lat="48.21217" lon="3.30592">
        <ele>76</ele>
        <time>2014-05-04T08:01:41.000Z</time>
      </trkpt>
      <trkpt lat="48.21218" lon="3.30601">
        <ele>76</ele>
        <time>2014-05-04T08:01:42.000Z</time>
      </trkpt>
      <trkpt lat="48.21219" lon="3.30609">
        <ele>76</ele>
        <time>2014-05-04T08:01:43.000Z</time>
      </trkpt>
      <trkpt lat="48.2122" lon="3.3062">
        <ele>76</ele>
        <time>2014-05-04T08:01:44.000Z</time>
      </trkpt>
      <trkpt lat="48.21221" lon="3.30628">
        <ele>76</ele>
        <time>2014-05-04T08:01:45.000Z</time>
      </trkpt>
      <trkpt lat="48.21222" lon="3.30637">
        <ele>77</ele>
        <time>2014-05-04T08:01:46.000Z</time>
      </trkpt>
      <trkpt lat="48.21225" lon="3.30646">
        <ele>77</ele>
        <time>2014-05-04T08:01:47.000Z</time>
      </trkpt>
      <trkpt lat="48.21226" lon="3.30654">
        <ele>77</ele>
        <time>2014-05-04T08:01:48.000Z</time>
      </trkpt>
      <trkpt lat="48.21226" lon="3.30665">
        <ele>77</ele>
        <time>2014-05-04T08:01:49.000Z</time>
      </trkpt>
      <trkpt lat="48.21227" lon="3.30673">
        <ele>77</ele>
        <time>2014-05-04T08:01:50.000Z</time>
      </trkpt>
      <trkpt lat="48.21228" lon="3.30684">
        <ele>77</ele>
        <time>2014-05-04T08:01:51.000Z</time>
      </trkpt>
      <trkpt lat="48.21229" lon="3.30693">
        <ele>77</ele>
        <time>2014-05-04T08:01:52.000Z</time>
      </trkpt>
      <trkpt lat="48.21229" lon="3.30703">
        <ele>77</ele>
        <time>2014-05-04T08:01:53.000Z</time>
      </trkpt>
      <trkpt lat="48.21231" lon="3.30712">
        <ele>77</ele>
        <time>2014-05-04T08:01:54.000Z</time>
      </trkpt>
      <trkpt lat="48.21232" lon="3.30721">
        <ele>77</ele>
        <time>2014-05-04T08:01:55.000Z</time>
      </trkpt>
      <trkpt lat="48.21233" lon="3.30731">
        <ele>77</ele>
        <time>2014-05-04T08:01:56.000Z</time>
      </trkpt>
      <trkpt lat="48.21233" lon="3.3074">
        <ele>77</ele>
        <time>2014-05-04T08:01:57.000Z</time>
      </trkpt>
      <trkpt lat="48.21234" lon="3.30749">
        <ele>78</ele>
        <time>2014-05-04T08:01:58.000Z</time>
      </trkpt>
      <trkpt lat="48.21235" lon="3.30757">
        <ele>78</ele>
        <time>2014-05-04T08:01:59.000Z</time>
      </trkpt>
      <trkpt lat="48.21236" lon="3.30766">
        <ele>77</ele>
        <time>2014-05-04T08:02:00.000Z</time>
      </trkpt>
      <trkpt lat="48.21237" lon="3.30776">
        <ele>77</ele>
        <time>2014-05-04T08:02:01.000Z</time>
      </trkpt>
      <trkpt lat="48.21239" lon="3.30785">
        <ele>77</ele>
        <time>2014-05-04T08:02:02.000Z</time>
      </trkpt>
      <trkpt lat="48.2124" lon="3.30794">
        <ele>77</ele>
        <time>2014-05-04T08:02:03.000Z</time>
      </trkpt>
      <trkpt lat="48.21241" lon="3.30802">
        <ele>78</ele>
        <time>2014-05-04T08:02:04.000Z</time>
      </trkpt>
      <trkpt lat="48.21241" lon="3.30811">
        <ele>78</ele>
        <time>2014-05-04T08:02:05.000Z</time>
      </trkpt>
      <trkpt lat="48.21242" lon="3.30819">
        <ele>78</ele>
        <time>2014-05-04T08:02:06.000Z</time>
      </trkpt>
      <trkpt lat="48.21243" lon="3.30828">
        <ele>78</ele>
        <time>2014-05-04T08:02:07.000Z</time>
      </trkpt>
      <trkpt lat="48.21243" lon="3.30839">
        <ele>78</ele>
        <time>2014-05-04T08:02:08.000Z</time>
      </trkpt>
      <trkpt lat="48.21244" lon="3.30847">
        <ele>78</ele>
        <time>2014-05-04T08:02:09.000Z</time>
      </trkpt>
      <trkpt lat="48.21244" lon="3.30856">
        <ele>78</ele>
        <time>2014-05-04T08:02:10.000Z</time>
      </trkpt>
      <trkpt lat="48.21245" lon="3.30864">
        <ele>77</ele>
        <time>2014-05-04T08:02:11.000Z</time>
      </trkpt>
      <trkpt lat="48.21246" lon="3.30875">
        <ele>77</ele>
        <time>2014-05-04T08:02:12.000Z</time>
      </trkpt>
      <trkpt lat="48.21246" lon="3.30884">
        <ele>77</ele>
        <time>2014-05-04T08:02:13.000Z</time>
      </trkpt>
      <trkpt lat="48.21247" lon="3.30894">
        <ele>77</ele>
        <time>2014-05-04T08:02:14.000Z</time>
      </trkpt>
      <trkpt lat="48.21247" lon="3.30903">
        <ele>76</ele>
        <time>2014-05-04T08:02:15.000Z</time>
      </trkpt>
      <trkpt lat="48.21248" lon="3.30912">
        <ele>76</ele>
        <time>2014-05-04T08:02:16.000Z</time>
      </trkpt>
      <trkpt lat="48.21249" lon="3.30922">
        <ele>76</ele>
        <time>2014-05-04T08:02:17.000Z</time>
      </trkpt>
      <trkpt lat="48.2125" lon="3.30933">
        <ele>77</ele>
        <time>2014-05-04T08:02:18.000Z</time>
      </trkpt>
      <trkpt lat="48.21251" lon="3.30942">
        <ele>77</ele>
        <time>2014-05-04T08:02:19.000Z</time>
      </trkpt>
      <trkpt lat="48.21252" lon="3.3095">
        <ele>78</ele>
        <time>2014-05-04T08:02:20.000Z</time>
      </trkpt>
      <trkpt lat="48.21254" lon="3.30961">
        <ele>78</ele>
        <time>2014-05-04T08:02:21.000Z</time>
      </trkpt>
      <trkpt lat="48.21256" lon="3.30972">
        <ele>77</ele>
        <time>2014-05-04T08:02:22.000Z</time>
      </trkpt>
      <trkpt lat="48.21257" lon="3.3098">
        <ele>77</ele>
        <time>2014-05-04T08:02:23.000Z</time>
      </trkpt>
      <trkpt lat="48.21258" lon="3.30991">
        <ele>77</ele>
        <time>2014-05-04T08:02:24.000Z</time>
      </trkpt>
      <trkpt lat="48.21259" lon="3.31">
        <ele>77</ele>
        <time>2014-05-04T08:02:25.000Z</time>
      </trkpt>
      <trkpt lat="48.21259" lon="3.31008">
        <ele>77</ele>
        <time>2014-05-04T08:02:26.000Z</time>
      </trkpt>
      <trkpt lat="48.2126" lon="3.31019">
        <ele>77</ele>
        <time>2014-05-04T08:02:27.000Z</time>
      </trkpt>
      <trkpt lat="48.21261" lon="3.31028">
        <ele>77</ele>
        <time>2014-05-04T08:02:28.000Z</time>
      </trkpt>
      <trkpt lat="48.21262" lon="3.31036">
        <ele>77</ele>
        <time>2014-05-04T08:02:29.000Z</time>
      </trkpt>
      <trkpt lat="48.21262" lon="3.31045">
        <ele>77</ele>
        <time>2014-05-04T08:02:30.000Z</time>
      </trkpt>
      <trkpt lat="48.21263" lon="3.31053">
        <ele>77</ele>
        <time>2014-05-04T08:02:31.000Z</time>
      </trkpt>
      <trkpt lat="48.21265" lon="3.31062">
        <ele>77</ele>
        <time>2014-05-04T08:02:32.000Z</time>
      </trkpt>
      <trkpt lat="48.21266" lon="3.3107">
        <ele>77</ele>
        <time>2014-05-04T08:02:33.000Z</time>
      </trkpt>
      <trkpt lat="48.21267" lon="3.31079">
        <ele>77</ele>
        <time>2014-05-04T08:02:34.000Z</time>
      </trkpt>
      <trkpt lat="48.2127" lon="3.31088">
        <ele>77</ele>
        <time>2014-05-04T08:02:35.000Z</time>
      </trkpt>
      <trkpt lat="48.21271" lon="3.31096">
        <ele>77</ele>
        <time>2014-05-04T08:02:36.000Z</time>
      </trkpt>
      <trkpt lat="48.21272" lon="3.31105">
        <ele>77</ele>
        <time>2014-05-04T08:02:37.000Z</time>
      </trkpt>
      <trkpt lat="48.21273" lon="3.31113">
        <ele>78</ele>
        <time>2014-05-04T08:02:38.000Z</time>
      </trkpt>
      <trkpt lat="48.21274" lon="3.31122">
        <ele>78</ele>
        <time>2014-05-04T08:02:39.000Z</time>
      </trkpt>
      <trkpt lat="48.21275" lon="3.31131">
        <ele>78</ele>
        <time>2014-05-04T08:02:40.000Z</time>
      </trkpt>
      <trkpt lat="48.21276" lon="3.31139">
        <ele>78</ele>
        <time>2014-05-04T08:02:41.000Z</time>
      </trkpt>
      <trkpt lat="48.21277" lon="3.31148">
        <ele>78</ele>
        <time>2014-05-04T08:02:42.000Z</time>
      </trkpt>
      <trkpt lat="48.21278" lon="3.31154">
        <ele>78</ele>
        <time>2014-05-04T08:02:43.000Z</time>
      </trkpt>
      <trkpt lat="48.21279" lon="3.31163">
        <ele>78</ele>
        <time>2014-05-04T08:02:44.000Z</time>
      </trkpt>
      <trkpt lat="48.21281" lon="3.31171">
        <ele>78</ele>
        <time>2014-05-04T08:02:45.000Z</time>
      </trkpt>
      <trkpt lat="48.21283" lon="3.3118">
        <ele>78</ele>
        <time>2014-05-04T08:02:46.000Z</time>
      </trkpt>
      <trkpt lat="48.21285" lon="3.31188">
        <ele>78</ele>
        <time>2014-05-04T08:02:47.000Z</time>
      </trkpt>
      <trkpt lat="48.21288" lon="3.31197">
        <ele>78</ele>
        <time>2014-05-04T08:02:48.000Z</time>
      </trkpt>
      <trkpt lat="48.21291" lon="3.31206">
        <ele>78</ele>
        <time>2014-05-04T08:02:49.000Z</time>
      </trkpt>
      <trkpt lat="48.21295" lon="3.31212">
        <ele>78</ele>
        <time>2014-05-04T08:02:50.000Z</time>
      </trkpt>
      <trkpt lat="48.21299" lon="3.31221">
        <ele>78</ele>
        <time>2014-05-04T08:02:51.000Z</time>
      </trkpt>
      <trkpt lat="48.21302" lon="3.31227">
        <ele>78</ele>
        <time>2014-05-04T08:02:52.000Z</time>
      </trkpt>
      <trkpt lat="48.21306" lon="3.31236">
        <ele>78</ele>
        <time>2014-05-04T08:02:53.000Z</time>
      </trkpt>
      <trkpt lat="48.21309" lon="3.31244">
        <ele>78</ele>
        <time>2014-05-04T08:02:54.000Z</time>
      </trkpt>
      <trkpt lat="48.21313" lon="3.31251">
        <ele>79</ele>
        <time>2014-05-04T08:02:55.000Z</time>
      </trkpt>
      <trkpt lat="48.21316" lon="3.31259">
        <ele>79</ele>
        <time>2014-05-04T08:02:56.000Z</time>
      </trkpt>
      <trkpt lat="48.21319" lon="3.31268">
        <ele>79</ele>
        <time>2014-05-04T08:02:57.000Z</time>
      </trkpt>
      <trkpt lat="48.21322" lon="3.31276">
        <ele>79</ele>
        <time>2014-05-04T08:02:58.000Z</time>
      </trkpt>
      <trkpt lat="48.21325" lon="3.31285">
        <ele>79</ele>
        <time>2014-05-04T08:02:59.000Z</time>
      </trkpt>
      <trkpt lat="48.21328" lon="3.31291">
        <ele>79</ele>
        <time>2014-05-04T08:03:00.000Z</time>
      </trkpt>
      <trkpt lat="48.21331" lon="3.313">
        <ele>79</ele>
        <time>2014-05-04T08:03:01.000Z</time>
      </trkpt>
      <trkpt lat="48.21333" lon="3.31309">
        <ele>79</ele>
        <time>2014-05-04T08:03:02.000Z</time>
      </trkpt>
      <trkpt lat="48.21335" lon="3.31317">
        <ele>81</ele>
        <time>2014-05-04T08:03:03.000Z</time>
      </trkpt>
      <trkpt lat="48.21336" lon="3.31328">
        <ele>80</ele>
        <time>2014-05-04T08:03:04.000Z</time>
      </trkpt>
      <trkpt lat="48.21338" lon="3.31336">
        <ele>80</ele>
        <time>2014-05-04T08:03:05.000Z</time>
      </trkpt>
      <trkpt lat="48.2134" lon="3.31345">
        <ele>80</ele>
        <time>2014-05-04T08:03:06.000Z</time>
      </trkpt>
      <trkpt lat="48.21342" lon="3.31354">
        <ele>81</ele>
        <time>2014-05-04T08:03:07.000Z</time>
      </trkpt>
      <trkpt lat="48.21344" lon="3.31362">
        <ele>81</ele>
        <time>2014-05-04T08:03:08.000Z</time>
      </trkpt>
      <trkpt lat="48.21345" lon="3.31371">
        <ele>81</ele>
        <time>2014-05-04T08:03:09.000Z</time>
      </trkpt>
      <trkpt lat="48.21347" lon="3.31379">
        <ele>81</ele>
        <time>2014-05-04T08:03:10.000Z</time>
      </trkpt>
      <trkpt lat="48.21348" lon="3.31388">
        <ele>80</ele>
        <time>2014-05-04T08:03:11.000Z</time>
      </trkpt>
      <trkpt lat="48.2135" lon="3.31397">
        <ele>80</ele>
        <time>2014-05-04T08:03:12.000Z</time>
      </trkpt>
      <trkpt lat="48.21351" lon="3.31405">
        <ele>80</ele>
        <time>2014-05-04T08:03:13.000Z</time>
      </trkpt>
      <trkpt lat="48.21353" lon="3.31414">
        <ele>80</ele>
        <time>2014-05-04T08:03:14.000Z</time>
      </trkpt>
      <trkpt lat="48.21354" lon="3.31422">
        <ele>80</ele>
        <time>2014-05-04T08:03:15.000Z</time>
      </trkpt>
      <trkpt lat="48.21355" lon="3.31431">
        <ele>80</ele>
        <time>2014-05-04T08:03:16.000Z</time>
      </trkpt>
      <trkpt lat="48.21357" lon="3.31439">
        <ele>81</ele>
        <time>2014-05-04T08:03:17.000Z</time>
      </trkpt>
      <trkpt lat="48.21358" lon="3.31448">
        <ele>81</ele>
        <time>2014-05-04T08:03:18.000Z</time>
      </trkpt>
      <trkpt lat="48.21359" lon="3.31457">
        <ele>81</ele>
        <time>2014-05-04T08:03:19.000Z</time>
      </trkpt>
      <trkpt lat="48.2136" lon="3.31465">
        <ele>81</ele>
        <time>2014-05-04T08:03:20.000Z</time>
      </trkpt>
      <trkpt lat="48.2136" lon="3.31474">
        <ele>81</ele>
        <time>2014-05-04T08:03:21.000Z</time>
      </trkpt>
      <trkpt lat="48.21361" lon="3.31482">
        <ele>81</ele>
        <time>2014-05-04T08:03:22.000Z</time>
      </trkpt>
      <trkpt lat="48.21361" lon="3.31491">
        <ele>81</ele>
        <time>2014-05-04T08:03:23.000Z</time>
      </trkpt>
      <trkpt lat="48.21361" lon="3.315">
        <ele>81</ele>
        <time>2014-05-04T08:03:24.000Z</time>
      </trkpt>
      <trkpt lat="48.21361" lon="3.31508">
        <ele>82</ele>
        <time>2014-05-04T08:03:25.000Z</time>
      </trkpt>
      <trkpt lat="48.21361" lon="3.31517">
        <ele>82</ele>
        <time>2014-05-04T08:03:26.000Z</time>
      </trkpt>
      <trkpt lat="48.21362" lon="3.31525">
        <ele>82</ele>
        <time>2014-05-04T08:03:27.000Z</time>
      </trkpt>
      <trkpt lat="48.21362" lon="3.31534">
        <ele>83</ele>
        <time>2014-05-04T08:03:28.000Z</time>
      </trkpt>
      <trkpt lat="48.21362" lon="3.31542">
        <ele>83</ele>
        <time>2014-05-04T08:03:29.000Z</time>
      </trkpt>
      <trkpt lat="48.21361" lon="3.31549">
        <ele>83</ele>
        <time>2014-05-04T08:03:30.000Z</time>
      </trkpt>
      <trkpt lat="48.21361" lon="3.31558">
        <ele>83</ele>
        <time>2014-05-04T08:03:31.000Z</time>
      </trkpt>
      <trkpt lat="48.2136" lon="3.31566">
        <ele>83</ele>
        <time>2014-05-04T08:03:32.000Z</time>
      </trkpt>
      <trkpt lat="48.21359" lon="3.31575">
        <ele>82</ele>
        <time>2014-05-04T08:03:33.000Z</time>
      </trkpt>
      <trkpt lat="48.21358" lon="3.31581">
        <ele>82</ele>
        <time>2014-05-04T08:03:34.000Z</time>
      </trkpt>
      <trkpt lat="48.21357" lon="3.3159">
        <ele>83</ele>
        <time>2014-05-04T08:03:35.000Z</time>
      </trkpt>
      <trkpt lat="48.21355" lon="3.31596">
        <ele>83</ele>
        <time>2014-05-04T08:03:36.000Z</time>
      </trkpt>
      <trkpt lat="48.21354" lon="3.31605">
        <ele>84</ele>
        <time>2014-05-04T08:03:37.000Z</time>
      </trkpt>
      <trkpt lat="48.21353" lon="3.31613">
        <ele>84</ele>
        <time>2014-05-04T08:03:38.000Z</time>
      </trkpt>
      <trkpt lat="48.21352" lon="3.31622">
        <ele>84</ele>
        <time>2014-05-04T08:03:39.000Z</time>
      </trkpt>
      <trkpt lat="48.21351" lon="3.3163">
        <ele>84</ele>
        <time>2014-05-04T08:03:40.000Z</time>
      </trkpt>
      <trkpt lat="48.2135" lon="3.31639">
        <ele>84</ele>
        <time>2014-05-04T08:03:41.000Z</time>
      </trkpt>
      <trkpt lat="48.2135" lon="3.31648">
        <ele>84</ele>
        <time>2014-05-04T08:03:42.000Z</time>
      </trkpt>
      <trkpt lat="48.21348" lon="3.31654">
        <ele>84</ele>
        <time>2014-05-04T08:03:43.000Z</time>
      </trkpt>
      <trkpt lat="48.21347" lon="3.31663">
        <ele>83</ele>
        <time>2014-05-04T08:03:44.000Z</time>
      </trkpt>
      <trkpt lat="48.21346" lon="3.31669">
        <ele>84</ele>
        <time>2014-05-04T08:03:45.000Z</time>
      </trkpt>
      <trkpt lat="48.21345" lon="3.31678">
        <ele>85</ele>
        <time>2014-05-04T08:03:46.000Z</time>
      </trkpt>
      <trkpt lat="48.21344" lon="3.31684">
        <ele>85</ele>
        <time>2014-05-04T08:03:47.000Z</time>
      </trkpt>
      <trkpt lat="48.21343" lon="3.31693">
        <ele>86</ele>
        <time>2014-05-04T08:03:48.000Z</time>
      </trkpt>
      <trkpt lat="48.21342" lon="3.31699">
        <ele>86</ele>
        <time>2014-05-04T08:03:49.000Z</time>
      </trkpt>
      <trkpt lat="48.21339" lon="3.31708">
        <ele>86</ele>
        <time>2014-05-04T08:03:50.000Z</time>
      </trkpt>
      <trkpt lat="48.21338" lon="3.31714">
        <ele>86</ele>
        <time>2014-05-04T08:03:51.000Z</time>
      </trkpt>
      <trkpt lat="48.21336" lon="3.31721">
        <ele>86</ele>
        <time>2014-05-04T08:03:52.000Z</time>
      </trkpt>
      <trkpt lat="48.21335" lon="3.31727">
        <ele>86</ele>
        <time>2014-05-04T08:03:53.000Z</time>
      </trkpt>
      <trkpt lat="48.21333" lon="3.31736">
        <ele>83</ele>
        <time>2014-05-04T08:03:54.000Z</time>
      </trkpt>
      <trkpt lat="48.21331" lon="3.31742">
        <ele>83</ele>
        <time>2014-05-04T08:03:55.000Z</time>
      </trkpt>
      <trkpt lat="48.21328" lon="3.31748">
        <ele>83</ele>
        <time>2014-05-04T08:03:56.000Z</time>
      </trkpt>
      <trkpt lat="48.21325" lon="3.31755">
        <ele>84</ele>
        <time>2014-05-04T08:03:57.000Z</time>
      </trkpt>
      <trkpt lat="48.21322" lon="3.31761">
        <ele>83</ele>
        <time>2014-05-04T08:03:58.000Z</time>
      </trkpt>
      <trkpt lat="48.2132" lon="3.31768">
        <ele>83</ele>
        <time>2014-05-04T08:03:59.000Z</time>
      </trkpt>
      <trkpt lat="48.21317" lon="3.31774">
        <ele>83</ele>
        <time>2014-05-04T08:04:00.000Z</time>
      </trkpt>
      <trkpt lat="48.21314" lon="3.31781">
        <ele>83</ele>
        <time>2014-05-04T08:04:01.000Z</time>
      </trkpt>
      <trkpt lat="48.2131" lon="3.31787">
        <ele>83</ele>
        <time>2014-05-04T08:04:02.000Z</time>
      </trkpt>
      <trkpt lat="48.21307" lon="3.31791">
        <ele>83</ele>
        <time>2014-05-04T08:04:03.000Z</time>
      </trkpt>
      <trkpt lat="48.21304" lon="3.31798">
        <ele>83</ele>
        <time>2014-05-04T08:04:04.000Z</time>
      </trkpt>
      <trkpt lat="48.213" lon="3.31804">
        <ele>83</ele>
        <time>2014-05-04T08:04:05.000Z</time>
      </trkpt>
      <trkpt lat="48.21296" lon="3.31811">
        <ele>83</ele>
        <time>2014-05-04T08:04:06.000Z</time>
      </trkpt>
      <trkpt lat="48.21292" lon="3.31817">
        <ele>83</ele>
        <time>2014-05-04T08:04:07.000Z</time>
      </trkpt>
      <trkpt lat="48.21289" lon="3.31824">
        <ele>83</ele>
        <time>2014-05-04T08:04:08.000Z</time>
      </trkpt>
      <trkpt lat="48.21286" lon="3.3183">
        <ele>83</ele>
        <time>2014-05-04T08:04:09.000Z</time>
      </trkpt>
      <trkpt lat="48.21283" lon="3.31836">
        <ele>84</ele>
        <time>2014-05-04T08:04:10.000Z</time>
      </trkpt>
      <trkpt lat="48.21279" lon="3.31845">
        <ele>84</ele>
        <time>2014-05-04T08:04:11.000Z</time>
      </trkpt>
      <trkpt lat="48.21277" lon="3.31851">
        <ele>84</ele>
        <time>2014-05-04T08:04:12.000Z</time>
      </trkpt>
      <trkpt lat="48.21274" lon="3.3186">
        <ele>84</ele>
        <time>2014-05-04T08:04:13.000Z</time>
      </trkpt>
      <trkpt lat="48.21271" lon="3.31869">
        <ele>84</ele>
        <time>2014-05-04T08:04:14.000Z</time>
      </trkpt>
      <trkpt lat="48.21269" lon="3.31875">
        <ele>84</ele>
        <time>2014-05-04T08:04:15.000Z</time>
      </trkpt>
      <trkpt lat="48.21265" lon="3.31884">
        <ele>84</ele>
        <time>2014-05-04T08:04:16.000Z</time>
      </trkpt>
      <trkpt lat="48.21262" lon="3.31892">
        <ele>84</ele>
        <time>2014-05-04T08:04:17.000Z</time>
      </trkpt>
      <trkpt lat="48.21259" lon="3.31899">
        <ele>84</ele>
        <time>2014-05-04T08:04:18.000Z</time>
      </trkpt>
      <trkpt lat="48.21256" lon="3.31907">
        <ele>83</ele>
        <time>2014-05-04T08:04:19.000Z</time>
      </trkpt>
      <trkpt lat="48.21252" lon="3.31916">
        <ele>82</ele>
        <time>2014-05-04T08:04:20.000Z</time>
      </trkpt>
      <trkpt lat="48.21248" lon="3.31924">
        <ele>82</ele>
        <time>2014-05-04T08:04:21.000Z</time>
      </trkpt>
      <trkpt lat="48.21244" lon="3.31933">
        <ele>82</ele>
        <time>2014-05-04T08:04:22.000Z</time>
      </trkpt>
      <trkpt lat="48.21239" lon="3.31942">
        <ele>83</ele>
        <time>2014-05-04T08:04:23.000Z</time>
      </trkpt>
      <trkpt lat="48.21234" lon="3.3195">
        <ele>83</ele>
        <time>2014-05-04T08:04:24.000Z</time>
      </trkpt>
      <trkpt lat="48.21229" lon="3.31961">
        <ele>83</ele>
        <time>2014-05-04T08:04:25.000Z</time>
      </trkpt>
      <trkpt lat="48.21223" lon="3.31972">
        <ele>83</ele>
        <time>2014-05-04T08:04:26.000Z</time>
      </trkpt>
      <trkpt lat="48.21218" lon="3.3198">
        <ele>83</ele>
        <time>2014-05-04T08:04:27.000Z</time>
      </trkpt>
      <trkpt lat="48.21213" lon="3.31991">
        <ele>83</ele>
        <time>2014-05-04T08:04:28.000Z</time>
      </trkpt>
      <trkpt lat="48.21207" lon="3.32002">
        <ele>85</ele>
        <time>2014-05-04T08:04:29.000Z</time>
      </trkpt>
      <trkpt lat="48.21202" lon="3.32012">
        <ele>84</ele>
        <time>2014-05-04T08:04:30.000Z</time>
      </trkpt>
      <trkpt lat="48.21198" lon="3.32023">
        <ele>84</ele>
        <time>2014-05-04T08:04:31.000Z</time>
      </trkpt>
      <trkpt lat="48.21192" lon="3.32032">
        <ele>84</ele>
        <time>2014-05-04T08:04:32.000Z</time>
      </trkpt>
      <trkpt lat="48.21187" lon="3.32042">
        <ele>85</ele>
        <time>2014-05-04T08:04:33.000Z</time>
      </trkpt>
      <trkpt lat="48.21183" lon="3.32051">
        <ele>85</ele>
        <time>2014-05-04T08:04:34.000Z</time>
      </trkpt>
      <trkpt lat="48.21177" lon="3.3206">
        <ele>84</ele>
        <time>2014-05-04T08:04:35.000Z</time>
      </trkpt>
      <trkpt lat="48.21173" lon="3.32068">
        <ele>84</ele>
        <time>2014-05-04T08:04:36.000Z</time>
      </trkpt>
      <trkpt lat="48.21168" lon="3.32077">
        <ele>84</ele>
        <time>2014-05-04T08:04:37.000Z</time>
      </trkpt>
      <trkpt lat="48.21163" lon="3.32085">
        <ele>83</ele>
        <time>2014-05-04T08:04:38.000Z</time>
      </trkpt>
      <trkpt lat="48.21159" lon="3.32094">
        <ele>83</ele>
        <time>2014-05-04T08:04:39.000Z</time>
      </trkpt>
      <trkpt lat="48.21155" lon="3.32103">
        <ele>84</ele>
        <time>2014-05-04T08:04:40.000Z</time>
      </trkpt>
      <trkpt lat="48.21151" lon="3.32111">
        <ele>84</ele>
        <time>2014-05-04T08:04:41.000Z</time>
      </trkpt>
      <trkpt lat="48.21146" lon="3.3212">
        <ele>84</ele>
        <time>2014-05-04T08:04:42.000Z</time>
      </trkpt>
      <trkpt lat="48.21142" lon="3.32128">
        <ele>84</ele>
        <time>2014-05-04T08:04:43.000Z</time>
      </trkpt>
      <trkpt lat="48.21138" lon="3.32137">
        <ele>84</ele>
        <time>2014-05-04T08:04:44.000Z</time>
      </trkpt>
      <trkpt lat="48.21133" lon="3.32143">
        <ele>84</ele>
        <time>2014-05-04T08:04:45.000Z</time>
      </trkpt>
      <trkpt lat="48.21129" lon="3.32152">
        <ele>84</ele>
        <time>2014-05-04T08:04:46.000Z</time>
      </trkpt>
      <trkpt lat="48.21126" lon="3.3216">
        <ele>84</ele>
        <time>2014-05-04T08:04:47.000Z</time>
      </trkpt>
      <trkpt lat="48.21122" lon="3.32169">
        <ele>86</ele>
        <time>2014-05-04T08:04:48.000Z</time>
      </trkpt>
      <trkpt lat="48.21118" lon="3.32178">
        <ele>86</ele>
        <time>2014-05-04T08:04:49.000Z</time>
      </trkpt>
      <trkpt lat="48.21114" lon="3.32186">
        <ele>86</ele>
        <time>2014-05-04T08:04:50.000Z</time>
      </trkpt>
      <trkpt lat="48.21111" lon="3.32195">
        <ele>86</ele>
        <time>2014-05-04T08:04:51.000Z</time>
      </trkpt>
      <trkpt lat="48.21108" lon="3.32201">
        <ele>86</ele>
        <time>2014-05-04T08:04:52.000Z</time>
      </trkpt>
      <trkpt lat="48.21104" lon="3.3221">
        <ele>86</ele>
        <time>2014-05-04T08:04:53.000Z</time>
      </trkpt>
      <trkpt lat="48.21101" lon="3.32218">
        <ele>86</ele>
        <time>2014-05-04T08:04:54.000Z</time>
      </trkpt>
      <trkpt lat="48.21098" lon="3.32227">
        <ele>86</ele>
        <time>2014-05-04T08:04:55.000Z</time>
      </trkpt>
      <trkpt lat="48.21096" lon="3.32236">
        <ele>86</ele>
        <time>2014-05-04T08:04:56.000Z</time>
      </trkpt>
      <trkpt lat="48.21093" lon="3.32244">
        <ele>86</ele>
        <time>2014-05-04T08:04:57.000Z</time>
      </trkpt>
      <trkpt lat="48.21089" lon="3.32253">
        <ele>86</ele>
        <time>2014-05-04T08:04:58.000Z</time>
      </trkpt>
      <trkpt lat="48.21088" lon="3.32261">
        <ele>87</ele>
        <time>2014-05-04T08:04:59.000Z</time>
      </trkpt>
      <trkpt lat="48.21088" lon="3.32272">
        <ele>88</ele>
        <time>2014-05-04T08:05:00.000Z</time>
      </trkpt>
      <trkpt lat="48.21087" lon="3.32281">
        <ele>88</ele>
        <time>2014-05-04T08:05:01.000Z</time>
      </trkpt>
      <trkpt lat="48.21087" lon="3.32289">
        <ele>89</ele>
        <time>2014-05-04T08:05:02.000Z</time>
      </trkpt>
      <trkpt lat="48.21087" lon="3.323">
        <ele>89</ele>
        <time>2014-05-04T08:05:03.000Z</time>
      </trkpt>
      <trkpt lat="48.21088" lon="3.32306">
        <ele>89</ele>
        <time>2014-05-04T08:05:04.000Z</time>
      </trkpt>
      <trkpt lat="48.21089" lon="3.32315">
        <ele>89</ele>
        <time>2014-05-04T08:05:05.000Z</time>
      </trkpt>
      <trkpt lat="48.2109" lon="3.32324">
        <ele>89</ele>
        <time>2014-05-04T08:05:06.000Z</time>
      </trkpt>
      <trkpt lat="48.21092" lon="3.3233">
        <ele>89</ele>
        <time>2014-05-04T08:05:07.000Z</time>
      </trkpt>
      <trkpt lat="48.21093" lon="3.32339">
        <ele>89</ele>
        <time>2014-05-04T08:05:08.000Z</time>
      </trkpt>
      <trkpt lat="48.21095" lon="3.32345">
        <ele>90</ele>
        <time>2014-05-04T08:05:09.000Z</time>
      </trkpt>
      <trkpt lat="48.21096" lon="3.32354">
        <ele>90</ele>
        <time>2014-05-04T08:05:10.000Z</time>
      </trkpt>
      <trkpt lat="48.21097" lon="3.3236">
        <ele>90</ele>
        <time>2014-05-04T08:05:11.000Z</time>
      </trkpt>
      <trkpt lat="48.21098" lon="3.32366">
        <ele>90</ele>
        <time>2014-05-04T08:05:12.000Z</time>
      </trkpt>
      <trkpt lat="48.21099" lon="3.32375">
        <ele>90</ele>
        <time>2014-05-04T08:05:13.000Z</time>
      </trkpt>
      <trkpt lat="48.211" lon="3.32381">
        <ele>91</ele>
        <time>2014-05-04T08:05:14.000Z</time>
      </trkpt>
      <trkpt lat="48.21101" lon="3.3239">
        <ele>91</ele>
        <time>2014-05-04T08:05:15.000Z</time>
      </trkpt>
      <trkpt lat="48.21103" lon="3.32397">
        <ele>91</ele>
        <time>2014-05-04T08:05:16.000Z</time>
      </trkpt>
      <trkpt lat="48.21104" lon="3.32403">
        <ele>90</ele>
        <time>2014-05-04T08:05:17.000Z</time>
      </trkpt>
      <trkpt lat="48.21105" lon="3.32412">
        <ele>90</ele>
        <time>2014-05-04T08:05:18.000Z</time>
      </trkpt>
      <trkpt lat="48.21107" lon="3.32418">
        <ele>91</ele>
        <time>2014-05-04T08:05:19.000Z</time>
      </trkpt>
      <trkpt lat="48.21108" lon="3.32424">
        <ele>91</ele>
        <time>2014-05-04T08:05:20.000Z</time>
      </trkpt>
      <trkpt lat="48.2111" lon="3.32433">
        <ele>91</ele>
        <time>2014-05-04T08:05:21.000Z</time>
      </trkpt>
      <trkpt lat="48.21111" lon="3.32439">
        <ele>91</ele>
        <time>2014-05-04T08:05:22.000Z</time>
      </trkpt>
      <trkpt lat="48.21113" lon="3.32446">
        <ele>91</ele>
        <time>2014-05-04T08:05:23.000Z</time>
      </trkpt>
      <trkpt lat="48.21114" lon="3.32454">
        <ele>91</ele>
        <time>2014-05-04T08:05:24.000Z</time>
      </trkpt>
      <trkpt lat="48.21116" lon="3.32461">
        <ele>91</ele>
        <time>2014-05-04T08:05:25.000Z</time>
      </trkpt>
      <trkpt lat="48.21117" lon="3.32469">
        <ele>91</ele>
        <time>2014-05-04T08:05:26.000Z</time>
      </trkpt>
      <trkpt lat="48.21119" lon="3.32476">
        <ele>91</ele>
        <time>2014-05-04T08:05:27.000Z</time>
      </trkpt>
      <trkpt lat="48.21121" lon="3.32482">
        <ele>91</ele>
        <time>2014-05-04T08:05:28.000Z</time>
      </trkpt>
      <trkpt lat="48.21123" lon="3.32491">
        <ele>91</ele>
        <time>2014-05-04T08:05:29.000Z</time>
      </trkpt>
      <trkpt lat="48.21124" lon="3.32497">
        <ele>91</ele>
        <time>2014-05-04T08:05:30.000Z</time>
      </trkpt>
      <trkpt lat="48.21126" lon="3.32504">
        <ele>91</ele>
        <time>2014-05-04T08:05:31.000Z</time>
      </trkpt>
      <trkpt lat="48.21128" lon="3.32512">
        <ele>91</ele>
        <time>2014-05-04T08:05:32.000Z</time>
      </trkpt>
      <trkpt lat="48.2113" lon="3.32519">
        <ele>91</ele>
        <time>2014-05-04T08:05:33.000Z</time>
      </trkpt>
      <trkpt lat="48.21132" lon="3.32523">
        <ele>91</ele>
        <time>2014-05-04T08:05:34.000Z</time>
      </trkpt>
      <trkpt lat="48.21134" lon="3.3253">
        <ele>91</ele>
        <time>2014-05-04T08:05:35.000Z</time>
      </trkpt>
      <trkpt lat="48.21137" lon="3.32534">
        <ele>91</ele>
        <time>2014-05-04T08:05:36.000Z</time>
      </trkpt>
      <trkpt lat="48.21139" lon="3.32536">
        <ele>91</ele>
        <time>2014-05-04T08:05:37.000Z</time>
      </trkpt>
      <trkpt lat="48.21141" lon="3.3254">
        <ele>91</ele>
        <time>2014-05-04T08:05:39.000Z</time>
      </trkpt>
      <trkpt lat="48.21143" lon="3.32542">
        <ele>91</ele>
        <time>2014-05-04T08:05:40.000Z</time>
      </trkpt>
      <trkpt lat="48.21146" lon="3.32542">
        <ele>91</ele>
        <time>2014-05-04T08:05:41.000Z</time>
      </trkpt>
      <trkpt lat="48.21148" lon="3.32545">
        <ele>91</ele>
        <time>2014-05-04T08:05:42.000Z</time>
      </trkpt>
      <trkpt lat="48.21151" lon="3.32545">
        <ele>91</ele>
        <time>2014-05-04T08:05:43.000Z</time>
      </trkpt>
      <trkpt lat="48.21154" lon="3.32545">
        <ele>91</ele>
        <time>2014-05-04T08:05:44.000Z</time>
      </trkpt>
      <trkpt lat="48.21157" lon="3.3254">
        <ele>91</ele>
        <time>2014-05-04T08:05:45.000Z</time>
      </trkpt>
      <trkpt lat="48.2116" lon="3.32538">
        <ele>91</ele>
        <time>2014-05-04T08:05:46.000Z</time>
      </trkpt>
      <trkpt lat="48.21164" lon="3.32536">
        <ele>91</ele>
        <time>2014-05-04T08:05:47.000Z</time>
      </trkpt>
      <trkpt lat="48.21169" lon="3.32534">
        <ele>93</ele>
        <time>2014-05-04T08:05:48.000Z</time>
      </trkpt>
      <trkpt lat="48.21172" lon="3.32532">
        <ele>93</ele>
        <time>2014-05-04T08:05:49.000Z</time>
      </trkpt>
      <trkpt lat="48.21176" lon="3.3253">
        <ele>93</ele>
        <time>2014-05-04T08:05:50.000Z</time>
      </trkpt>
      <trkpt lat="48.2118" lon="3.3253">
        <ele>93</ele>
        <time>2014-05-04T08:05:51.000Z</time>
      </trkpt>
      <trkpt lat="48.21183" lon="3.32527">
        <ele>93</ele>
        <time>2014-05-04T08:05:52.000Z</time>
      </trkpt>
      <trkpt lat="48.21187" lon="3.32525">
        <ele>93</ele>
        <time>2014-05-04T08:05:53.000Z</time>
      </trkpt>
      <trkpt lat="48.21191" lon="3.32523">
        <ele>93</ele>
        <time>2014-05-04T08:05:54.000Z</time>
      </trkpt>
      <trkpt lat="48.21195" lon="3.32521">
        <ele>93</ele>
        <time>2014-05-04T08:05:55.000Z</time>
      </trkpt>
      <trkpt lat="48.21199" lon="3.32521">
        <ele>93</ele>
        <time>2014-05-04T08:05:56.000Z</time>
      </trkpt>
      <trkpt lat="48.21202" lon="3.32519">
        <ele>93</ele>
        <time>2014-05-04T08:05:57.000Z</time>
      </trkpt>
      <trkpt lat="48.21205" lon="3.32517">
        <ele>93</ele>
        <time>2014-05-04T08:05:58.000Z</time>
      </trkpt>
      <trkpt lat="48.21208" lon="3.32515">
        <ele>94</ele>
        <time>2014-05-04T08:05:59.000Z</time>
      </trkpt>
      <trkpt lat="48.21212" lon="3.32515">
        <ele>94</ele>
        <time>2014-05-04T08:06:00.000Z</time>
      </trkpt>
      <trkpt lat="48.21215" lon="3.32515">
        <ele>94</ele>
        <time>2014-05-04T08:06:01.000Z</time>
      </trkpt>
      <trkpt lat="48.21218" lon="3.32512">
        <ele>94</ele>
        <time>2014-05-04T08:06:02.000Z</time>
      </trkpt>
      <trkpt lat="48.21222" lon="3.32512">
        <ele>94</ele>
        <time>2014-05-04T08:06:03.000Z</time>
      </trkpt>
      <trkpt lat="48.21226" lon="3.3251">
        <ele>94</ele>
        <time>2014-05-04T08:06:04.000Z</time>
      </trkpt>
      <trkpt lat="48.21229" lon="3.32508">
        <ele>94</ele>
        <time>2014-05-04T08:06:05.000Z</time>
      </trkpt>
      <trkpt lat="48.21232" lon="3.32508">
        <ele>94</ele>
        <time>2014-05-04T08:06:06.000Z</time>
      </trkpt>
      <trkpt lat="48.21235" lon="3.32506">
        <ele>94</ele>
        <time>2014-05-04T08:06:07.000Z</time>
      </trkpt>
      <trkpt lat="48.21239" lon="3.32506">
        <ele>94</ele>
        <time>2014-05-04T08:06:08.000Z</time>
      </trkpt>
      <trkpt lat="48.21241" lon="3.32504">
        <ele>95</ele>
        <time>2014-05-04T08:06:09.000Z</time>
      </trkpt>
      <trkpt lat="48.21244" lon="3.32502">
        <ele>95</ele>
        <time>2014-05-04T08:06:10.000Z</time>
      </trkpt>
      <trkpt lat="48.21247" lon="3.325">
        <ele>95</ele>
        <time>2014-05-04T08:06:11.000Z</time>
      </trkpt>
      <trkpt lat="48.2125" lon="3.325">
        <ele>95</ele>
        <time>2014-05-04T08:06:12.000Z</time>
      </trkpt>
      <trkpt lat="48.21254" lon="3.32497">
        <ele>96</ele>
        <time>2014-05-04T08:06:13.000Z</time>
      </trkpt>
      <trkpt lat="48.21257" lon="3.32497">
        <ele>96</ele>
        <time>2014-05-04T08:06:14.000Z</time>
      </trkpt>
      <trkpt lat="48.21259" lon="3.32495">
        <ele>96</ele>
        <time>2014-05-04T08:06:15.000Z</time>
      </trkpt>
      <trkpt lat="48.21262" lon="3.32493">
        <ele>97</ele>
        <time>2014-05-04T08:06:16.000Z</time>
      </trkpt>
      <trkpt lat="48.21264" lon="3.32493">
        <ele>97</ele>
        <time>2014-05-04T08:06:17.000Z</time>
      </trkpt>
      <trkpt lat="48.21267" lon="3.32491">
        <ele>97</ele>
        <time>2014-05-04T08:06:18.000Z</time>
      </trkpt>
      <trkpt lat="48.21271" lon="3.32489">
        <ele>97</ele>
        <time>2014-05-04T08:06:19.000Z</time>
      </trkpt>
      <trkpt lat="48.21273" lon="3.32487">
        <ele>97</ele>
        <time>2014-05-04T08:06:20.000Z</time>
      </trkpt>
      <trkpt lat="48.21276" lon="3.32487">
        <ele>98</ele>
        <time>2014-05-04T08:06:21.000Z</time>
      </trkpt>
      <trkpt lat="48.21279" lon="3.32484">
        <ele>98</ele>
        <time>2014-05-04T08:06:22.000Z</time>
      </trkpt>
      <trkpt lat="48.21283" lon="3.32484">
        <ele>98</ele>
        <time>2014-05-04T08:06:23.000Z</time>
      </trkpt>
      <trkpt lat="48.21286" lon="3.32482">
        <ele>98</ele>
        <time>2014-05-04T08:06:24.000Z</time>
      </trkpt>
      <trkpt lat="48.21289" lon="3.3248">
        <ele>98</ele>
        <time>2014-05-04T08:06:25.000Z</time>
      </trkpt>
      <trkpt lat="48.21291" lon="3.3248">
        <ele>98</ele>
        <time>2014-05-04T08:06:26.000Z</time>
      </trkpt>
      <trkpt lat="48.21294" lon="3.32478">
        <ele>99</ele>
        <time>2014-05-04T08:06:27.000Z</time>
      </trkpt>
      <trkpt lat="48.21298" lon="3.32478">
        <ele>99</ele>
        <time>2014-05-04T08:06:28.000Z</time>
      </trkpt>
      <trkpt lat="48.21301" lon="3.32478">
        <ele>99</ele>
        <time>2014-05-04T08:06:29.000Z</time>
      </trkpt>
      <trkpt lat="48.21303" lon="3.32476">
        <ele>99</ele>
        <time>2014-05-04T08:06:30.000Z</time>
      </trkpt>
      <trkpt lat="48.21306" lon="3.32476">
        <ele>99</ele>
        <time>2014-05-04T08:06:31.000Z</time>
      </trkpt>
      <trkpt lat="48.21309" lon="3.32474">
        <ele>99</ele>
        <time>2014-05-04T08:06:32.000Z</time>
      </trkpt>
      <trkpt lat="48.21311" lon="3.32474">
        <ele>99</ele>
        <time>2014-05-04T08:06:33.000Z</time>
      </trkpt>
      <trkpt lat="48.21315" lon="3.32472">
        <ele>99</ele>
        <time>2014-05-04T08:06:34.000Z</time>
      </trkpt>
      <trkpt lat="48.21318" lon="3.32469">
        <ele>99</ele>
        <time>2014-05-04T08:06:35.000Z</time>
      </trkpt>
      <trkpt lat="48.21321" lon="3.32469">
        <ele>100</ele>
        <time>2014-05-04T08:06:36.000Z</time>
      </trkpt>
      <trkpt lat="48.21323" lon="3.32467">
        <ele>100</ele>
        <time>2014-05-04T08:06:37.000Z</time>
      </trkpt>
      <trkpt lat="48.21326" lon="3.32467">
        <ele>100</ele>
        <time>2014-05-04T08:06:38.000Z</time>
      </trkpt>
      <trkpt lat="48.21329" lon="3.32465">
        <ele>100</ele>
        <time>2014-05-04T08:06:39.000Z</time>
      </trkpt>
      <trkpt lat="48.21332" lon="3.32465">
        <ele>100</ele>
        <time>2014-05-04T08:06:40.000Z</time>
      </trkpt>
      <trkpt lat="48.21334" lon="3.32465">
        <ele>103</ele>
        <time>2014-05-04T08:06:41.000Z</time>
      </trkpt>
      <trkpt lat="48.21337" lon="3.32463">
        <ele>103</ele>
        <time>2014-05-04T08:06:42.000Z</time>
      </trkpt>
      <trkpt lat="48.21339" lon="3.32463">
        <ele>103</ele>
        <time>2014-05-04T08:06:43.000Z</time>
      </trkpt>
      <trkpt lat="48.21343" lon="3.32461">
        <ele>103</ele>
        <time>2014-05-04T08:06:44.000Z</time>
      </trkpt>
      <trkpt lat="48.21346" lon="3.32459">
        <ele>103</ele>
        <time>2014-05-04T08:06:45.000Z</time>
      </trkpt>
      <trkpt lat="48.21348" lon="3.32457">
        <ele>103</ele>
        <time>2014-05-04T08:06:46.000Z</time>
      </trkpt>
      <trkpt lat="48.21351" lon="3.32452">
        <ele>103</ele>
        <time>2014-05-04T08:06:47.000Z</time>
      </trkpt>
      <trkpt lat="48.21354" lon="3.32452">
        <ele>103</ele>
        <time>2014-05-04T08:06:48.000Z</time>
      </trkpt>
      <trkpt lat="48.21358" lon="3.32448">
        <ele>103</ele>
        <time>2014-05-04T08:06:49.000Z</time>
      </trkpt>
      <trkpt lat="48.21361" lon="3.32448">
        <ele>103</ele>
        <time>2014-05-04T08:06:50.000Z</time>
      </trkpt>
      <trkpt lat="48.21364" lon="3.32446">
        <ele>103</ele>
        <time>2014-05-04T08:06:51.000Z</time>
      </trkpt>
      <trkpt lat="48.21367" lon="3.32444">
        <ele>103</ele>
        <time>2014-05-04T08:06:52.000Z</time>
      </trkpt>
      <trkpt lat="48.2137" lon="3.32442">
        <ele>103</ele>
        <time>2014-05-04T08:06:53.000Z</time>
      </trkpt>
      <trkpt lat="48.21374" lon="3.32439">
        <ele>104</ele>
        <time>2014-05-04T08:06:54.000Z</time>
      </trkpt>
      <trkpt lat="48.21377" lon="3.32439">
        <ele>104</ele>
        <time>2014-05-04T08:06:55.000Z</time>
      </trkpt>
      <trkpt lat="48.2138" lon="3.32437">
        <ele>104</ele>
        <time>2014-05-04T08:06:56.000Z</time>
      </trkpt>
      <trkpt lat="48.21384" lon="3.32435">
        <ele>104</ele>
        <time>2014-05-04T08:06:57.000Z</time>
      </trkpt>
      <trkpt lat="48.21388" lon="3.32433">
        <ele>104</ele>
        <time>2014-05-04T08:06:58.000Z</time>
      </trkpt>
      <trkpt lat="48.21391" lon="3.32431">
        <ele>104</ele>
        <time>2014-05-04T08:06:59.000Z</time>
      </trkpt>
      <trkpt lat="48.21395" lon="3.32429">
        <ele>104</ele>
        <time>2014-05-04T08:07:00.000Z</time>
      </trkpt>
      <trkpt lat="48.21398" lon="3.32429">
        <ele>104</ele>
        <time>2014-05-04T08:07:01.000Z</time>
      </trkpt>
      <trkpt lat="48.21403" lon="3.32427">
        <ele>104</ele>
        <time>2014-05-04T08:07:02.000Z</time>
      </trkpt>
      <trkpt lat="48.21406" lon="3.32424">
        <ele>104</ele>
        <time>2014-05-04T08:07:03.000Z</time>
      </trkpt>
      <trkpt lat="48.2141" lon="3.32422">
        <ele>105</ele>
        <time>2014-05-04T08:07:04.000Z</time>
      </trkpt>
      <trkpt lat="48.21413" lon="3.3242">
        <ele>105</ele>
        <time>2014-05-04T08:07:05.000Z</time>
      </trkpt>
      <trkpt lat="48.21418" lon="3.32418">
        <ele>105</ele>
        <time>2014-05-04T08:07:06.000Z</time>
      </trkpt>
      <trkpt lat="48.21422" lon="3.32416">
        <ele>105</ele>
        <time>2014-05-04T08:07:07.000Z</time>
      </trkpt>
      <trkpt lat="48.21427" lon="3.32414">
        <ele>104</ele>
        <time>2014-05-04T08:07:08.000Z</time>
      </trkpt>
      <trkpt lat="48.21432" lon="3.32414">
        <ele>104</ele>
        <time>2014-05-04T08:07:09.000Z</time>
      </trkpt>
      <trkpt lat="48.21437" lon="3.32412">
        <ele>104</ele>
        <time>2014-05-04T08:07:10.000Z</time>
      </trkpt>
      <trkpt lat="48.21442" lon="3.32409">
        <ele>104</ele>
        <time>2014-05-04T08:07:11.000Z</time>
      </trkpt>
      <trkpt lat="48.21447" lon="3.32407">
        <ele>104</ele>
        <time>2014-05-04T08:07:12.000Z</time>
      </trkpt>
      <trkpt lat="48.21453" lon="3.32405">
        <ele>104</ele>
        <time>2014-05-04T08:07:13.000Z</time>
      </trkpt>
      <trkpt lat="48.2146" lon="3.32403">
        <ele>104</ele>
        <time>2014-05-04T08:07:14.000Z</time>
      </trkpt>
      <trkpt lat="48.21465" lon="3.32399">
        <ele>104</ele>
        <time>2014-05-04T08:07:15.000Z</time>
      </trkpt>
      <trkpt lat="48.21471" lon="3.32394">
        <ele>104</ele>
        <time>2014-05-04T08:07:16.000Z</time>
      </trkpt>
      <trkpt lat="48.21477" lon="3.3239">
        <ele>104</ele>
        <time>2014-05-04T08:07:17.000Z</time>
      </trkpt>
      <trkpt lat="48.21482" lon="3.32384">
        <ele>103</ele>
        <time>2014-05-04T08:07:18.000Z</time>
      </trkpt>
      <trkpt lat="48.21487" lon="3.32379">
        <ele>103</ele>
        <time>2014-05-04T08:07:19.000Z</time>
      </trkpt>
      <trkpt lat="48.21494" lon="3.32373">
        <ele>103</ele>
        <time>2014-05-04T08:07:20.000Z</time>
      </trkpt>
      <trkpt lat="48.21499" lon="3.32369">
        <ele>103</ele>
        <time>2014-05-04T08:07:21.000Z</time>
      </trkpt>
      <trkpt lat="48.21505" lon="3.32364">
        <ele>103</ele>
        <time>2014-05-04T08:07:22.000Z</time>
      </trkpt>
      <trkpt lat="48.21511" lon="3.3236">
        <ele>103</ele>
        <time>2014-05-04T08:07:23.000Z</time>
      </trkpt>
      <trkpt lat="48.21516" lon="3.32356">
        <ele>103</ele>
        <time>2014-05-04T08:07:24.000Z</time>
      </trkpt>
      <trkpt lat="48.21523" lon="3.32354">
        <ele>103</ele>
        <time>2014-05-04T08:07:25.000Z</time>
      </trkpt>
      <trkpt lat="48.21529" lon="3.32349">
        <ele>103</ele>
        <time>2014-05-04T08:07:26.000Z</time>
      </trkpt>
      <trkpt lat="48.21537" lon="3.32347">
        <ele>103</ele>
        <time>2014-05-04T08:07:27.000Z</time>
      </trkpt>
      <trkpt lat="48.21544" lon="3.32343">
        <ele>104</ele>
        <time>2014-05-04T08:07:28.000Z</time>
      </trkpt>
      <trkpt lat="48.21552" lon="3.32341">
        <ele>104</ele>
        <time>2014-05-04T08:07:29.000Z</time>
      </trkpt>
      <trkpt lat="48.21559" lon="3.32339">
        <ele>104</ele>
        <time>2014-05-04T08:07:30.000Z</time>
      </trkpt>
      <trkpt lat="48.21566" lon="3.32336">
        <ele>104</ele>
        <time>2014-05-04T08:07:31.000Z</time>
      </trkpt>
      <trkpt lat="48.21573" lon="3.32334">
        <ele>104</ele>
        <time>2014-05-04T08:07:32.000Z</time>
      </trkpt>
      <trkpt lat="48.2158" lon="3.32332">
        <ele>104</ele>
        <time>2014-05-04T08:07:33.000Z</time>
      </trkpt>
      <trkpt lat="48.21586" lon="3.32332">
        <ele>104</ele>
        <time>2014-05-04T08:07:34.000Z</time>
      </trkpt>
      <trkpt lat="48.21593" lon="3.3233">
        <ele>103</ele>
        <time>2014-05-04T08:07:35.000Z</time>
      </trkpt>
      <trkpt lat="48.216" lon="3.3233">
        <ele>103</ele>
        <time>2014-05-04T08:07:36.000Z</time>
      </trkpt>
      <trkpt lat="48.21607" lon="3.3233">
        <ele>103</ele>
        <time>2014-05-04T08:07:37.000Z</time>
      </trkpt>
      <trkpt lat="48.21613" lon="3.32328">
        <ele>103</ele>
        <time>2014-05-04T08:07:38.000Z</time>
      </trkpt>
      <trkpt lat="48.21618" lon="3.3233">
        <ele>103</ele>
        <time>2014-05-04T08:07:39.000Z</time>
      </trkpt>
      <trkpt lat="48.21625" lon="3.3233">
        <ele>103</ele>
        <time>2014-05-04T08:07:40.000Z</time>
      </trkpt>
      <trkpt lat="48.21631" lon="3.3233">
        <ele>103</ele>
        <time>2014-05-04T08:07:41.000Z</time>
      </trkpt>
      <trkpt lat="48.21637" lon="3.32332">
        <ele>103</ele>
        <time>2014-05-04T08:07:42.000Z</time>
      </trkpt>
      <trkpt lat="48.21643" lon="3.32334">
        <ele>104</ele>
        <time>2014-05-04T08:07:43.000Z</time>
      </trkpt>
      <trkpt lat="48.21648" lon="3.32334">
        <ele>104</ele>
        <time>2014-05-04T08:07:44.000Z</time>
      </trkpt>
      <trkpt lat="48.21653" lon="3.32339">
        <ele>104</ele>
        <time>2014-05-04T08:07:45.000Z</time>
      </trkpt>
      <trkpt lat="48.21658" lon="3.32341">
        <ele>104</ele>
        <time>2014-05-04T08:07:46.000Z</time>
      </trkpt>
      <trkpt lat="48.21662" lon="3.32343">
        <ele>104</ele>
        <time>2014-05-04T08:07:47.000Z</time>
      </trkpt>
      <trkpt lat="48.21667" lon="3.32347">
        <ele>104</ele>
        <time>2014-05-04T08:07:48.000Z</time>
      </trkpt>
      <trkpt lat="48.2167" lon="3.32349">
        <ele>105</ele>
        <time>2014-05-04T08:07:49.000Z</time>
      </trkpt>
      <trkpt lat="48.21673" lon="3.32349">
        <ele>105</ele>
        <time>2014-05-04T08:07:50.000Z</time>
      </trkpt>
      <trkpt lat="48.21675" lon="3.32354">
        <ele>105</ele>
        <time>2014-05-04T08:07:51.000Z</time>
      </trkpt>
      <trkpt lat="48.21677" lon="3.32356">
        <ele>105</ele>
        <time>2014-05-04T08:07:52.000Z</time>
      </trkpt>
      <trkpt lat="48.21679" lon="3.32358">
        <ele>105</ele>
        <time>2014-05-04T08:07:53.000Z</time>
      </trkpt>
      <trkpt lat="48.21683" lon="3.3236">
        <ele>105</ele>
        <time>2014-05-04T08:07:54.000Z</time>
      </trkpt>
      <trkpt lat="48.21685" lon="3.32364">
        <ele>105</ele>
        <time>2014-05-04T08:07:55.000Z</time>
      </trkpt>
      <trkpt lat="48.21686" lon="3.32369">
        <ele>105</ele>
        <time>2014-05-04T08:07:56.000Z</time>
      </trkpt>
      <trkpt lat="48.21687" lon="3.32373">
        <ele>105</ele>
        <time>2014-05-04T08:07:57.000Z</time>
      </trkpt>
      <trkpt lat="48.21689" lon="3.32379">
        <ele>105</ele>
        <time>2014-05-04T08:07:58.000Z</time>
      </trkpt>
      <trkpt lat="48.2169" lon="3.32384">
        <ele>105</ele>
        <time>2014-05-04T08:07:59.000Z</time>
      </trkpt>
      <trkpt lat="48.21691" lon="3.3239">
        <ele>105</ele>
        <time>2014-05-04T08:08:00.000Z</time>
      </trkpt>
      <trkpt lat="48.21692" lon="3.32394">
        <ele>105</ele>
        <time>2014-05-04T08:08:01.000Z</time>
      </trkpt>
      <trkpt lat="48.21693" lon="3.32401">
        <ele>105</ele>
        <time>2014-05-04T08:08:02.000Z</time>
      </trkpt>
      <trkpt lat="48.21694" lon="3.32407">
        <ele>106</ele>
        <time>2014-05-04T08:08:03.000Z</time>
      </trkpt>
      <trkpt lat="48.21696" lon="3.32414">
        <ele>106</ele>
        <time>2014-05-04T08:08:04.000Z</time>
      </trkpt>
      <trkpt lat="48.21696" lon="3.3242">
        <ele>107</ele>
        <time>2014-05-04T08:08:05.000Z</time>
      </trkpt>
      <trkpt lat="48.21698" lon="3.32427">
        <ele>107</ele>
        <time>2014-05-04T08:08:06.000Z</time>
      </trkpt>
      <trkpt lat="48.21698" lon="3.32433">
        <ele>107</ele>
        <time>2014-05-04T08:08:07.000Z</time>
      </trkpt>
      <trkpt lat="48.21699" lon="3.32439">
        <ele>107</ele>
        <time>2014-05-04T08:08:08.000Z</time>
      </trkpt>
      <trkpt lat="48.21699" lon="3.32448">
        <ele>107</ele>
        <time>2014-05-04T08:08:09.000Z</time>
      </trkpt>
      <trkpt lat="48.217" lon="3.32454">
        <ele>107</ele>
        <time>2014-05-04T08:08:10.000Z</time>
      </trkpt>
      <trkpt lat="48.217" lon="3.32461">
        <ele>107</ele>
        <time>2014-05-04T08:08:11.000Z</time>
      </trkpt>
      <trkpt lat="48.21701" lon="3.32467">
        <ele>107</ele>
        <time>2014-05-04T08:08:12.000Z</time>
      </trkpt>
      <trkpt lat="48.21701" lon="3.32476">
        <ele>107</ele>
        <time>2014-05-04T08:08:13.000Z</time>
      </trkpt>
      <trkpt lat="48.21702" lon="3.32482">
        <ele>107</ele>
        <time>2014-05-04T08:08:14.000Z</time>
      </trkpt>
      <trkpt lat="48.21703" lon="3.32489">
        <ele>107</ele>
        <time>2014-05-04T08:08:15.000Z</time>
      </trkpt>
      <trkpt lat="48.21703" lon="3.32495">
        <ele>107</ele>
        <time>2014-05-04T08:08:16.000Z</time>
      </trkpt>
      <trkpt lat="48.21704" lon="3.32502">
        <ele>109</ele>
        <time>2014-05-04T08:08:17.000Z</time>
      </trkpt>
      <trkpt lat="48.21705" lon="3.32508">
        <ele>109</ele>
        <time>2014-05-04T08:08:18.000Z</time>
      </trkpt>
      <trkpt lat="48.21706" lon="3.32515">
        <ele>109</ele>
        <time>2014-05-04T08:08:19.000Z</time>
      </trkpt>
      <trkpt lat="48.21707" lon="3.32521">
        <ele>109</ele>
        <time>2014-05-04T08:08:20.000Z</time>
      </trkpt>
      <trkpt lat="48.21708" lon="3.32527">
        <ele>109</ele>
        <time>2014-05-04T08:08:21.000Z</time>
      </trkpt>
      <trkpt lat="48.2171" lon="3.32532">
        <ele>109</ele>
        <time>2014-05-04T08:08:22.000Z</time>
      </trkpt>
      <trkpt lat="48.21711" lon="3.32538">
        <ele>109</ele>
        <time>2014-05-04T08:08:23.000Z</time>
      </trkpt>
      <trkpt lat="48.21712" lon="3.32545">
        <ele>109</ele>
        <time>2014-05-04T08:08:24.000Z</time>
      </trkpt>
      <trkpt lat="48.21713" lon="3.32551">
        <ele>109</ele>
        <time>2014-05-04T08:08:25.000Z</time>
      </trkpt>
      <trkpt lat="48.21715" lon="3.32557">
        <ele>110</ele>
        <time>2014-05-04T08:08:26.000Z</time>
      </trkpt>
      <trkpt lat="48.21716" lon="3.32564">
        <ele>110</ele>
        <time>2014-05-04T08:08:27.000Z</time>
      </trkpt>
      <trkpt lat="48.21718" lon="3.32568">
        <ele>110</ele>
        <time>2014-05-04T08:08:28.000Z</time>
      </trkpt>
      <trkpt lat="48.21719" lon="3.32575">
        <ele>110</ele>
        <time>2014-05-04T08:08:29.000Z</time>
      </trkpt>
      <trkpt lat="48.21721" lon="3.32581">
        <ele>110</ele>
        <time>2014-05-04T08:08:30.000Z</time>
      </trkpt>
      <trkpt lat="48.21722" lon="3.32587">
        <ele>111</ele>
        <time>2014-05-04T08:08:31.000Z</time>
      </trkpt>
      <trkpt lat="48.21725" lon="3.32594">
        <ele>112</ele>
        <time>2014-05-04T08:08:32.000Z</time>
      </trkpt>
      <trkpt lat="48.21726" lon="3.326">
        <ele>112</ele>
        <time>2014-05-04T08:08:33.000Z</time>
      </trkpt>
      <trkpt lat="48.21728" lon="3.32607">
        <ele>112</ele>
        <time>2014-05-04T08:08:34.000Z</time>
      </trkpt>
      <trkpt lat="48.21729" lon="3.32613">
        <ele>112</ele>
        <time>2014-05-04T08:08:35.000Z</time>
      </trkpt>
      <trkpt lat="48.21729" lon="3.3262">
        <ele>112</ele>
        <time>2014-05-04T08:08:36.000Z</time>
      </trkpt>
      <trkpt lat="48.21729" lon="3.32628">
        <ele>112</ele>
        <time>2014-05-04T08:08:37.000Z</time>
      </trkpt>
      <trkpt lat="48.21729" lon="3.32635">
        <ele>112</ele>
        <time>2014-05-04T08:08:38.000Z</time>
      </trkpt>
      <trkpt lat="48.2173" lon="3.32641">
        <ele>112</ele>
        <time>2014-05-04T08:08:39.000Z</time>
      </trkpt>
      <trkpt lat="48.21731" lon="3.3265">
        <ele>112</ele>
        <time>2014-05-04T08:08:40.000Z</time>
      </trkpt>
      <trkpt lat="48.21733" lon="3.32656">
        <ele>113</ele>
        <time>2014-05-04T08:08:41.000Z</time>
      </trkpt>
      <trkpt lat="48.21734" lon="3.32663">
        <ele>113</ele>
        <time>2014-05-04T08:08:42.000Z</time>
      </trkpt>
      <trkpt lat="48.21735" lon="3.32669">
        <ele>114</ele>
        <time>2014-05-04T08:08:43.000Z</time>
      </trkpt>
      <trkpt lat="48.21737" lon="3.32673">
        <ele>114</ele>
        <time>2014-05-04T08:08:44.000Z</time>
      </trkpt>
      <trkpt lat="48.21738" lon="3.3268">
        <ele>114</ele>
        <time>2014-05-04T08:08:45.000Z</time>
      </trkpt>
      <trkpt lat="48.2174" lon="3.32686">
        <ele>114</ele>
        <time>2014-05-04T08:08:46.000Z</time>
      </trkpt>
      <trkpt lat="48.21742" lon="3.32693">
        <ele>114</ele>
        <time>2014-05-04T08:08:47.000Z</time>
      </trkpt>
      <trkpt lat="48.21743" lon="3.32697">
        <ele>115</ele>
        <time>2014-05-04T08:08:48.000Z</time>
      </trkpt>
      <trkpt lat="48.21744" lon="3.32703">
        <ele>115</ele>
        <time>2014-05-04T08:08:49.000Z</time>
      </trkpt>
      <trkpt lat="48.21745" lon="3.3271">
        <ele>115</ele>
        <time>2014-05-04T08:08:50.000Z</time>
      </trkpt>
      <trkpt lat="48.21746" lon="3.32714">
        <ele>115</ele>
        <time>2014-05-04T08:08:51.000Z</time>
      </trkpt>
      <trkpt lat="48.21748" lon="3.32721">
        <ele>115</ele>
        <time>2014-05-04T08:08:52.000Z</time>
      </trkpt>
      <trkpt lat="48.21749" lon="3.32725">
        <ele>115</ele>
        <time>2014-05-04T08:08:53.000Z</time>
      </trkpt>
      <trkpt lat="48.21748" lon="3.32731">
        <ele>115</ele>
        <time>2014-05-04T08:08:54.000Z</time>
      </trkpt>
      <trkpt lat="48.21748" lon="3.32738">
        <ele>116</ele>
        <time>2014-05-04T08:08:55.000Z</time>
      </trkpt>
      <trkpt lat="48.21748" lon="3.32742">
        <ele>116</ele>
        <time>2014-05-04T08:08:56.000Z</time>
      </trkpt>
      <trkpt lat="48.21749" lon="3.32748">
        <ele>116</ele>
        <time>2014-05-04T08:08:57.000Z</time>
      </trkpt>
      <trkpt lat="48.21749" lon="3.32755">
        <ele>116</ele>
        <time>2014-05-04T08:08:58.000Z</time>
      </trkpt>
      <trkpt lat="48.2175" lon="3.32761">
        <ele>117</ele>
        <time>2014-05-04T08:08:59.000Z</time>
      </trkpt>
      <trkpt lat="48.21751" lon="3.32768">
        <ele>117</ele>
        <time>2014-05-04T08:09:00.000Z</time>
      </trkpt>
      <trkpt lat="48.21755" lon="3.32772">
        <ele>117</ele>
        <time>2014-05-04T08:09:01.000Z</time>
      </trkpt>
      <trkpt lat="48.21757" lon="3.32774">
        <ele>117</ele>
        <time>2014-05-04T08:09:02.000Z</time>
      </trkpt>
      <trkpt lat="48.21759" lon="3.32778">
        <ele>117</ele>
        <time>2014-05-04T08:09:03.000Z</time>
      </trkpt>
      <trkpt lat="48.21761" lon="3.32783">
        <ele>117</ele>
        <time>2014-05-04T08:09:04.000Z</time>
      </trkpt>
      <trkpt lat="48.21763" lon="3.32787">
        <ele>117</ele>
        <time>2014-05-04T08:09:05.000Z</time>
      </trkpt>
      <trkpt lat="48.21765" lon="3.32791">
        <ele>117</ele>
        <time>2014-05-04T08:09:06.000Z</time>
      </trkpt>
      <trkpt lat="48.21766" lon="3.32796">
        <ele>118</ele>
        <time>2014-05-04T08:09:07.000Z</time>
      </trkpt>
      <trkpt lat="48.21769" lon="3.328">
        <ele>118</ele>
        <time>2014-05-04T08:09:08.000Z</time>
      </trkpt>
      <trkpt lat="48.2177" lon="3.32804">
        <ele>118</ele>
        <time>2014-05-04T08:09:09.000Z</time>
      </trkpt>
      <trkpt lat="48.21771" lon="3.32806">
        <ele>118</ele>
        <time>2014-05-04T08:09:10.000Z</time>
      </trkpt>
      <trkpt lat="48.21772" lon="3.32811">
        <ele>118</ele>
        <time>2014-05-04T08:09:11.000Z</time>
      </trkpt>
      <trkpt lat="48.21773" lon="3.32815">
        <ele>118</ele>
        <time>2014-05-04T08:09:12.000Z</time>
      </trkpt>
      <trkpt lat="48.21774" lon="3.32819">
        <ele>118</ele>
        <time>2014-05-04T08:09:13.000Z</time>
      </trkpt>
      <trkpt lat="48.21775" lon="3.32821">
        <ele>118</ele>
        <time>2014-05-04T08:09:14.000Z</time>
      </trkpt>
      <trkpt lat="48.21776" lon="3.32826">
        <ele>118</ele>
        <time>2014-05-04T08:09:15.000Z</time>
      </trkpt>
      <trkpt lat="48.21778" lon="3.3283">
        <ele>118</ele>
        <time>2014-05-04T08:09:16.000Z</time>
      </trkpt>
      <trkpt lat="48.21779" lon="3.32836">
        <ele>120</ele>
        <time>2014-05-04T08:09:17.000Z</time>
      </trkpt>
      <trkpt lat="48.21779" lon="3.32841">
        <ele>120</ele>
        <time>2014-05-04T08:09:18.000Z</time>
      </trkpt>
      <trkpt lat="48.2178" lon="3.32845">
        <ele>120</ele>
        <time>2014-05-04T08:09:19.000Z</time>
      </trkpt>
      <trkpt lat="48.21781" lon="3.32849">
        <ele>120</ele>
        <time>2014-05-04T08:09:20.000Z</time>
      </trkpt>
      <trkpt lat="48.21784" lon="3.32854">
        <ele>120</ele>
        <time>2014-05-04T08:09:21.000Z</time>
      </trkpt>
      <trkpt lat="48.21786" lon="3.32858">
        <ele>120</ele>
        <time>2014-05-04T08:09:22.000Z</time>
      </trkpt>
      <trkpt lat="48.21787" lon="3.32862">
        <ele>120</ele>
        <time>2014-05-04T08:09:23.000Z</time>
      </trkpt>
      <trkpt lat="48.21789" lon="3.32866">
        <ele>120</ele>
        <time>2014-05-04T08:09:24.000Z</time>
      </trkpt>
      <trkpt lat="48.21791" lon="3.32871">
        <ele>120</ele>
        <time>2014-05-04T08:09:25.000Z</time>
      </trkpt>
      <trkpt lat="48.21792" lon="3.32875">
        <ele>121</ele>
        <time>2014-05-04T08:09:26.000Z</time>
      </trkpt>
      <trkpt lat="48.21795" lon="3.32877">
        <ele>121</ele>
        <time>2014-05-04T08:09:27.000Z</time>
      </trkpt>
      <trkpt lat="48.21797" lon="3.32881">
        <ele>121</ele>
        <time>2014-05-04T08:09:28.000Z</time>
      </trkpt>
      <trkpt lat="48.218" lon="3.32886">
        <ele>121</ele>
        <time>2014-05-04T08:09:29.000Z</time>
      </trkpt>
      <trkpt lat="48.21802" lon="3.3289">
        <ele>121</ele>
        <time>2014-05-04T08:09:30.000Z</time>
      </trkpt>
      <trkpt lat="48.21804" lon="3.32892">
        <ele>121</ele>
        <time>2014-05-04T08:09:31.000Z</time>
      </trkpt>
      <trkpt lat="48.21807" lon="3.32896">
        <ele>121</ele>
        <time>2014-05-04T08:09:32.000Z</time>
      </trkpt>
      <trkpt lat="48.2181" lon="3.32899">
        <ele>121</ele>
        <time>2014-05-04T08:09:33.000Z</time>
      </trkpt>
      <trkpt lat="48.21813" lon="3.32903">
        <ele>121</ele>
        <time>2014-05-04T08:09:34.000Z</time>
      </trkpt>
      <trkpt lat="48.21816" lon="3.32905">
        <ele>122</ele>
        <time>2014-05-04T08:09:35.000Z</time>
      </trkpt>
      <trkpt lat="48.21818" lon="3.32909">
        <ele>122</ele>
        <time>2014-05-04T08:09:36.000Z</time>
      </trkpt>
      <trkpt lat="48.21821" lon="3.32911">
        <ele>122</ele>
        <time>2014-05-04T08:09:37.000Z</time>
      </trkpt>
      <trkpt lat="48.21823" lon="3.32916">
        <ele>122</ele>
        <time>2014-05-04T08:09:38.000Z</time>
      </trkpt>
      <trkpt lat="48.21826" lon="3.32918">
        <ele>123</ele>
        <time>2014-05-04T08:09:39.000Z</time>
      </trkpt>
      <trkpt lat="48.21829" lon="3.32922">
        <ele>123</ele>
        <time>2014-05-04T08:09:40.000Z</time>
      </trkpt>
      <trkpt lat="48.21832" lon="3.32924">
        <ele>123</ele>
        <time>2014-05-04T08:09:41.000Z</time>
      </trkpt>
      <trkpt lat="48.21834" lon="3.32929">
        <ele>124</ele>
        <time>2014-05-04T08:09:42.000Z</time>
      </trkpt>
      <trkpt lat="48.21836" lon="3.32931">
        <ele>124</ele>
        <time>2014-05-04T08:09:43.000Z</time>
      </trkpt>
      <trkpt lat="48.21839" lon="3.32935">
        <ele>125</ele>
        <time>2014-05-04T08:09:44.000Z</time>
      </trkpt>
      <trkpt lat="48.21841" lon="3.32939">
        <ele>125</ele>
        <time>2014-05-04T08:09:45.000Z</time>
      </trkpt>
      <trkpt lat="48.21844" lon="3.32944">
        <ele>125</ele>
        <time>2014-05-04T08:09:46.000Z</time>
      </trkpt>
      <trkpt lat="48.21846" lon="3.32946">
        <ele>125</ele>
        <time>2014-05-04T08:09:47.000Z</time>
      </trkpt>
      <trkpt lat="48.21849" lon="3.3295">
        <ele>125</ele>
        <time>2014-05-04T08:09:48.000Z</time>
      </trkpt>
      <trkpt lat="48.21851" lon="3.32954">
        <ele>125</ele>
        <time>2014-05-04T08:09:49.000Z</time>
      </trkpt>
      <trkpt lat="48.21852" lon="3.32959">
        <ele>126</ele>
        <time>2014-05-04T08:09:50.000Z</time>
      </trkpt>
      <trkpt lat="48.21854" lon="3.32963">
        <ele>126</ele>
        <time>2014-05-04T08:09:51.000Z</time>
      </trkpt>
      <trkpt lat="48.21856" lon="3.32967">
        <ele>126</ele>
        <time>2014-05-04T08:09:52.000Z</time>
      </trkpt>
      <trkpt lat="48.21859" lon="3.32972">
        <ele>126</ele>
        <time>2014-05-04T08:09:53.000Z</time>
      </trkpt>
      <trkpt lat="48.2186" lon="3.32976">
        <ele>126</ele>
        <time>2014-05-04T08:09:54.000Z</time>
      </trkpt>
      <trkpt lat="48.21862" lon="3.3298">
        <ele>126</ele>
        <time>2014-05-04T08:09:55.000Z</time>
      </trkpt>
      <trkpt lat="48.21863" lon="3.32984">
        <ele>126</ele>
        <time>2014-05-04T08:09:56.000Z</time>
      </trkpt>
      <trkpt lat="48.21865" lon="3.32989">
        <ele>126</ele>
        <time>2014-05-04T08:09:57.000Z</time>
      </trkpt>
      <trkpt lat="48.21866" lon="3.32993">
        <ele>126</ele>
        <time>2014-05-04T08:09:58.000Z</time>
      </trkpt>
      <trkpt lat="48.21868" lon="3.32995">
        <ele>126</ele>
        <time>2014-05-04T08:09:59.000Z</time>
      </trkpt>
      <trkpt lat="48.21869" lon="3.32999">
        <ele>126</ele>
        <time>2014-05-04T08:10:00.000Z</time>
      </trkpt>
      <trkpt lat="48.21872" lon="3.33004">
        <ele>128</ele>
        <time>2014-05-04T08:10:01.000Z</time>
      </trkpt>
      <trkpt lat="48.21873" lon="3.33008">
        <ele>128</ele>
        <time>2014-05-04T08:10:02.000Z</time>
      </trkpt>
      <trkpt lat="48.21874" lon="3.3301">
        <ele>128</ele>
        <time>2014-05-04T08:10:03.000Z</time>
      </trkpt>
      <trkpt lat="48.21876" lon="3.33014">
        <ele>128</ele>
        <time>2014-05-04T08:10:04.000Z</time>
      </trkpt>
      <trkpt lat="48.21877" lon="3.33019">
        <ele>128</ele>
        <time>2014-05-04T08:10:05.000Z</time>
      </trkpt>
      <trkpt lat="48.21879" lon="3.33023">
        <ele>128</ele>
        <time>2014-05-04T08:10:06.000Z</time>
      </trkpt>
      <trkpt lat="48.2188" lon="3.33025">
        <ele>128</ele>
        <time>2014-05-04T08:10:07.000Z</time>
      </trkpt>
      <trkpt lat="48.21882" lon="3.3303">
        <ele>128</ele>
        <time>2014-05-04T08:10:08.000Z</time>
      </trkpt>
      <trkpt lat="48.21883" lon="3.33034">
        <ele>128</ele>
        <time>2014-05-04T08:10:09.000Z</time>
      </trkpt>
      <trkpt lat="48.21884" lon="3.33038">
        <ele>129</ele>
        <time>2014-05-04T08:10:10.000Z</time>
      </trkpt>
      <trkpt lat="48.21885" lon="3.3304">
        <ele>129</ele>
        <time>2014-05-04T08:10:11.000Z</time>
      </trkpt>
      <trkpt lat="48.21887" lon="3.33045">
        <ele>129</ele>
        <time>2014-05-04T08:10:12.000Z</time>
      </trkpt>
      <trkpt lat="48.21888" lon="3.33049">
        <ele>129</ele>
        <time>2014-05-04T08:10:13.000Z</time>
      </trkpt>
      <trkpt lat="48.21889" lon="3.33053">
        <ele>129</ele>
        <time>2014-05-04T08:10:14.000Z</time>
      </trkpt>
      <trkpt lat="48.2189" lon="3.33055">
        <ele>129</ele>
        <time>2014-05-04T08:10:15.000Z</time>
      </trkpt>
      <trkpt lat="48.21891" lon="3.3306">
        <ele>129</ele>
        <time>2014-05-04T08:10:16.000Z</time>
      </trkpt>
      <trkpt lat="48.21894" lon="3.33064">
        <ele>129</ele>
        <time>2014-05-04T08:10:30.000Z</time>
      </trkpt>
      <trkpt lat="48.21898" lon="3.33079">
        <ele>129</ele>
        <time>2014-05-04T08:10:31.000Z</time>
      </trkpt>
      <trkpt lat="48.21899" lon="3.33083">
        <ele>129</ele>
        <time>2014-05-04T08:10:32.000Z</time>
      </trkpt>
      <trkpt lat="48.219" lon="3.33085">
        <ele>130</ele>
        <time>2014-05-04T08:10:33.000Z</time>
      </trkpt>
      <trkpt lat="48.21903" lon="3.33087">
        <ele>130</ele>
        <time>2014-05-04T08:10:34.000Z</time>
      </trkpt>
      <trkpt lat="48.21904" lon="3.33092">
        <ele>130</ele>
        <time>2014-05-04T08:10:35.000Z</time>
      </trkpt>
      <trkpt lat="48.21906" lon="3.33094">
        <ele>130</ele>
        <time>2014-05-04T08:10:36.000Z</time>
      </trkpt>
      <trkpt lat="48.21907" lon="3.33098">
        <ele>130</ele>
        <time>2014-05-04T08:10:37.000Z</time>
      </trkpt>
      <trkpt lat="48.21909" lon="3.331">
        <ele>130</ele>
        <time>2014-05-04T08:10:38.000Z</time>
      </trkpt>
      <trkpt lat="48.21911" lon="3.33102">
        <ele>130</ele>
        <time>2014-05-04T08:10:39.000Z</time>
      </trkpt>
      <trkpt lat="48.21912" lon="3.33107">
        <ele>130</ele>
        <time>2014-05-04T08:10:40.000Z</time>
      </trkpt>
      <trkpt lat="48.21913" lon="3.33111">
        <ele>130</ele>
        <time>2014-05-04T08:10:41.000Z</time>
      </trkpt>
      <trkpt lat="48.21914" lon="3.33113">
        <ele>130</ele>
        <time>2014-05-04T08:10:42.000Z</time>
      </trkpt>
      <trkpt lat="48.21917" lon="3.33117">
        <ele>131</ele>
        <time>2014-05-04T08:10:43.000Z</time>
      </trkpt>
      <trkpt lat="48.21918" lon="3.33122">
        <ele>131</ele>
        <time>2014-05-04T08:10:44.000Z</time>
      </trkpt>
      <trkpt lat="48.21919" lon="3.33126">
        <ele>132</ele>
        <time>2014-05-04T08:10:45.000Z</time>
      </trkpt>
      <trkpt lat="48.21921" lon="3.3313">
        <ele>132</ele>
        <time>2014-05-04T08:10:46.000Z</time>
      </trkpt>
      <trkpt lat="48.21922" lon="3.33133">
        <ele>132</ele>
        <time>2014-05-04T08:10:47.000Z</time>
      </trkpt>
      <trkpt lat="48.21924" lon="3.33137">
        <ele>132</ele>
        <time>2014-05-04T08:10:48.000Z</time>
      </trkpt>
      <trkpt lat="48.21925" lon="3.33141">
        <ele>132</ele>
        <time>2014-05-04T08:10:49.000Z</time>
      </trkpt>
      <trkpt lat="48.21926" lon="3.33145">
        <ele>132</ele>
        <time>2014-05-04T08:10:50.000Z</time>
      </trkpt>
      <trkpt lat="48.21928" lon="3.3315">
        <ele>132</ele>
        <time>2014-05-04T08:10:51.000Z</time>
      </trkpt>
      <trkpt lat="48.21929" lon="3.33154">
        <ele>132</ele>
        <time>2014-05-04T08:10:52.000Z</time>
      </trkpt>
      <trkpt lat="48.21932" lon="3.33158">
        <ele>132</ele>
        <time>2014-05-04T08:10:53.000Z</time>
      </trkpt>
      <trkpt lat="48.21933" lon="3.33163">
        <ele>132</ele>
        <time>2014-05-04T08:10:54.000Z</time>
      </trkpt>
      <trkpt lat="48.21935" lon="3.33167">
        <ele>133</ele>
        <time>2014-05-04T08:10:55.000Z</time>
      </trkpt>
      <trkpt lat="48.21937" lon="3.33171">
        <ele>133</ele>
        <time>2014-05-04T08:10:56.000Z</time>
      </trkpt>
      <trkpt lat="48.21939" lon="3.33173">
        <ele>133</ele>
        <time>2014-05-04T08:10:57.000Z</time>
      </trkpt>
      <trkpt lat="48.21941" lon="3.33178">
        <ele>133</ele>
        <time>2014-05-04T08:10:58.000Z</time>
      </trkpt>
      <trkpt lat="48.21943" lon="3.3318">
        <ele>133</ele>
        <time>2014-05-04T08:10:59.000Z</time>
      </trkpt>
      <trkpt lat="48.21946" lon="3.33184">
        <ele>134</ele>
        <time>2014-05-04T08:11:00.000Z</time>
      </trkpt>
      <trkpt lat="48.21948" lon="3.33186">
        <ele>134</ele>
        <time>2014-05-04T08:11:01.000Z</time>
      </trkpt>
      <trkpt lat="48.2195" lon="3.3319">
        <ele>134</ele>
        <time>2014-05-04T08:11:02.000Z</time>
      </trkpt>
      <trkpt lat="48.21952" lon="3.33195">
        <ele>134</ele>
        <time>2014-05-04T08:11:03.000Z</time>
      </trkpt>
      <trkpt lat="48.21954" lon="3.33199">
        <ele>134</ele>
        <time>2014-05-04T08:11:04.000Z</time>
      </trkpt>
      <trkpt lat="48.21956" lon="3.33201">
        <ele>134</ele>
        <time>2014-05-04T08:11:05.000Z</time>
      </trkpt>
      <trkpt lat="48.21958" lon="3.33205">
        <ele>134</ele>
        <time>2014-05-04T08:11:06.000Z</time>
      </trkpt>
      <trkpt lat="48.21959" lon="3.3321">
        <ele>134</ele>
        <time>2014-05-04T08:11:07.000Z</time>
      </trkpt>
      <trkpt lat="48.21962" lon="3.33214">
        <ele>134</ele>
        <time>2014-05-04T08:11:08.000Z</time>
      </trkpt>
      <trkpt lat="48.21964" lon="3.33218">
        <ele>134</ele>
        <time>2014-05-04T08:11:09.000Z</time>
      </trkpt>
      <trkpt lat="48.21966" lon="3.33223">
        <ele>134</ele>
        <time>2014-05-04T08:11:10.000Z</time>
      </trkpt>
      <trkpt lat="48.21968" lon="3.33227">
        <ele>134</ele>
        <time>2014-05-04T08:11:11.000Z</time>
      </trkpt>
      <trkpt lat="48.2197" lon="3.33231">
        <ele>134</ele>
        <time>2014-05-04T08:11:12.000Z</time>
      </trkpt>
      <trkpt lat="48.21971" lon="3.33236">
        <ele>134</ele>
        <time>2014-05-04T08:11:13.000Z</time>
      </trkpt>
      <trkpt lat="48.21973" lon="3.3324">
        <ele>134</ele>
        <time>2014-05-04T08:11:14.000Z</time>
      </trkpt>
      <trkpt lat="48.21976" lon="3.33244">
        <ele>134</ele>
        <time>2014-05-04T08:11:15.000Z</time>
      </trkpt>
      <trkpt lat="48.21978" lon="3.33248">
        <ele>134</ele>
        <time>2014-05-04T08:11:16.000Z</time>
      </trkpt>
      <trkpt lat="48.2198" lon="3.33253">
        <ele>134</ele>
        <time>2014-05-04T08:11:17.000Z</time>
      </trkpt>
      <trkpt lat="48.21982" lon="3.33257">
        <ele>134</ele>
        <time>2014-05-04T08:11:18.000Z</time>
      </trkpt>
      <trkpt lat="48.21984" lon="3.33263">
        <ele>134</ele>
        <time>2014-05-04T08:11:19.000Z</time>
      </trkpt>
      <trkpt lat="48.21986" lon="3.33268">
        <ele>134</ele>
        <time>2014-05-04T08:11:20.000Z</time>
      </trkpt>
      <trkpt lat="48.21988" lon="3.33272">
        <ele>134</ele>
        <time>2014-05-04T08:11:21.000Z</time>
      </trkpt>
      <trkpt lat="48.21991" lon="3.33276">
        <ele>134</ele>
        <time>2014-05-04T08:11:22.000Z</time>
      </trkpt>
      <trkpt lat="48.21993" lon="3.33281">
        <ele>134</ele>
        <time>2014-05-04T08:11:23.000Z</time>
      </trkpt>
      <trkpt lat="48.21995" lon="3.33287">
        <ele>134</ele>
        <time>2014-05-04T08:11:24.000Z</time>
      </trkpt>
      <trkpt lat="48.21996" lon="3.33291">
        <ele>134</ele>
        <time>2014-05-04T08:11:25.000Z</time>
      </trkpt>
      <trkpt lat="48.21998" lon="3.33296">
        <ele>134</ele>
        <time>2014-05-04T08:11:26.000Z</time>
      </trkpt>
      <trkpt lat="48.21999" lon="3.33302">
        <ele>134</ele>
        <time>2014-05-04T08:11:27.000Z</time>
      </trkpt>
      <trkpt lat="48.22" lon="3.33306">
        <ele>135</ele>
        <time>2014-05-04T08:11:28.000Z</time>
      </trkpt>
      <trkpt lat="48.22002" lon="3.33313">
        <ele>135</ele>
        <time>2014-05-04T08:11:29.000Z</time>
      </trkpt>
      <trkpt lat="48.22003" lon="3.33317">
        <ele>135</ele>
        <time>2014-05-04T08:11:30.000Z</time>
      </trkpt>
      <trkpt lat="48.22005" lon="3.33323">
        <ele>135</ele>
        <time>2014-05-04T08:11:31.000Z</time>
      </trkpt>
      <trkpt lat="48.22007" lon="3.3333">
        <ele>135</ele>
        <time>2014-05-04T08:11:32.000Z</time>
      </trkpt>
      <trkpt lat="48.22008" lon="3.33334">
        <ele>135</ele>
        <time>2014-05-04T08:11:33.000Z</time>
      </trkpt>
      <trkpt lat="48.2201" lon="3.33338">
        <ele>135</ele>
        <time>2014-05-04T08:11:34.000Z</time>
      </trkpt>
      <trkpt lat="48.22013" lon="3.33343">
        <ele>136</ele>
        <time>2014-05-04T08:11:35.000Z</time>
      </trkpt>
      <trkpt lat="48.22015" lon="3.33347">
        <ele>136</ele>
        <time>2014-05-04T08:11:36.000Z</time>
      </trkpt>
      <trkpt lat="48.22017" lon="3.33351">
        <ele>136</ele>
        <time>2014-05-04T08:11:37.000Z</time>
      </trkpt>
      <trkpt lat="48.2202" lon="3.33356">
        <ele>136</ele>
        <time>2014-05-04T08:11:38.000Z</time>
      </trkpt>
      <trkpt lat="48.22022" lon="3.3336">
        <ele>136</ele>
        <time>2014-05-04T08:11:39.000Z</time>
      </trkpt>
      <trkpt lat="48.22023" lon="3.33366">
        <ele>136</ele>
        <time>2014-05-04T08:11:40.000Z</time>
      </trkpt>
      <trkpt lat="48.22025" lon="3.33371">
        <ele>136</ele>
        <time>2014-05-04T08:11:41.000Z</time>
      </trkpt>
      <trkpt lat="48.22027" lon="3.33375">
        <ele>136</ele>
        <time>2014-05-04T08:11:42.000Z</time>
      </trkpt>
      <trkpt lat="48.22029" lon="3.33379">
        <ele>136</ele>
        <time>2014-05-04T08:11:43.000Z</time>
      </trkpt>
      <trkpt lat="48.22031" lon="3.33384">
        <ele>136</ele>
        <time>2014-05-04T08:11:44.000Z</time>
      </trkpt>
      <trkpt lat="48.22034" lon="3.33388">
        <ele>136</ele>
        <time>2014-05-04T08:11:45.000Z</time>
      </trkpt>
      <trkpt lat="48.22035" lon="3.33392">
        <ele>136</ele>
        <time>2014-05-04T08:11:46.000Z</time>
      </trkpt>
      <trkpt lat="48.22037" lon="3.33396">
        <ele>136</ele>
        <time>2014-05-04T08:11:47.000Z</time>
      </trkpt>
      <trkpt lat="48.22039" lon="3.33401">
        <ele>136</ele>
        <time>2014-05-04T08:11:48.000Z</time>
      </trkpt>
      <trkpt lat="48.22041" lon="3.33405">
        <ele>136</ele>
        <time>2014-05-04T08:11:49.000Z</time>
      </trkpt>
      <trkpt lat="48.22043" lon="3.33409">
        <ele>137</ele>
        <time>2014-05-04T08:11:50.000Z</time>
      </trkpt>
      <trkpt lat="48.22045" lon="3.33414">
        <ele>137</ele>
        <time>2014-05-04T08:11:51.000Z</time>
      </trkpt>
      <trkpt lat="48.22047" lon="3.33418">
        <ele>138</ele>
        <time>2014-05-04T08:11:52.000Z</time>
      </trkpt>
      <trkpt lat="48.2205" lon="3.33424">
        <ele>138</ele>
        <time>2014-05-04T08:11:53.000Z</time>
      </trkpt>
      <trkpt lat="48.22052" lon="3.33429">
        <ele>138</ele>
        <time>2014-05-04T08:11:54.000Z</time>
      </trkpt>
      <trkpt lat="48.22054" lon="3.33433">
        <ele>138</ele>
        <time>2014-05-04T08:11:55.000Z</time>
      </trkpt>
      <trkpt lat="48.22056" lon="3.33437">
        <ele>138</ele>
        <time>2014-05-04T08:11:56.000Z</time>
      </trkpt>
      <trkpt lat="48.22058" lon="3.33441">
        <ele>138</ele>
        <time>2014-05-04T08:11:57.000Z</time>
      </trkpt>
      <trkpt lat="48.2206" lon="3.33448">
        <ele>138</ele>
        <time>2014-05-04T08:11:58.000Z</time>
      </trkpt>
      <trkpt lat="48.22062" lon="3.33452">
        <ele>138</ele>
        <time>2014-05-04T08:11:59.000Z</time>
      </trkpt>
      <trkpt lat="48.22065" lon="3.33457">
        <ele>138</ele>
        <time>2014-05-04T08:12:00.000Z</time>
      </trkpt>
      <trkpt lat="48.22067" lon="3.33461">
        <ele>138</ele>
        <time>2014-05-04T08:12:01.000Z</time>
      </trkpt>
      <trkpt lat="48.22069" lon="3.33465">
        <ele>139</ele>
        <time>2014-05-04T08:12:02.000Z</time>
      </trkpt>
      <trkpt lat="48.22071" lon="3.33472">
        <ele>139</ele>
        <time>2014-05-04T08:12:03.000Z</time>
      </trkpt>
      <trkpt lat="48.22073" lon="3.33476">
        <ele>139</ele>
        <time>2014-05-04T08:12:04.000Z</time>
      </trkpt>
      <trkpt lat="48.22075" lon="3.3348">
        <ele>139</ele>
        <time>2014-05-04T08:12:05.000Z</time>
      </trkpt>
      <trkpt lat="48.22078" lon="3.33487">
        <ele>140</ele>
        <time>2014-05-04T08:12:06.000Z</time>
      </trkpt>
      <trkpt lat="48.2208" lon="3.33491">
        <ele>140</ele>
        <time>2014-05-04T08:12:07.000Z</time>
      </trkpt>
      <trkpt lat="48.22081" lon="3.33497">
        <ele>141</ele>
        <time>2014-05-04T08:12:08.000Z</time>
      </trkpt>
      <trkpt lat="48.22083" lon="3.33502">
        <ele>141</ele>
        <time>2014-05-04T08:12:09.000Z</time>
      </trkpt>
      <trkpt lat="48.22083" lon="3.33508">
        <ele>141</ele>
        <time>2014-05-04T08:12:10.000Z</time>
      </trkpt>
      <trkpt lat="48.22083" lon="3.33514">
        <ele>141</ele>
        <time>2014-05-04T08:12:11.000Z</time>
      </trkpt>
      <trkpt lat="48.22084" lon="3.33521">
        <ele>143</ele>
        <time>2014-05-04T08:12:12.000Z</time>
      </trkpt>
      <trkpt lat="48.22085" lon="3.33525">
        <ele>143</ele>
        <time>2014-05-04T08:12:13.000Z</time>
      </trkpt>
      <trkpt lat="48.22086" lon="3.33532">
        <ele>143</ele>
        <time>2014-05-04T08:12:14.000Z</time>
      </trkpt>
      <trkpt lat="48.22088" lon="3.33536">
        <ele>144</ele>
        <time>2014-05-04T08:12:15.000Z</time>
      </trkpt>
      <trkpt lat="48.22089" lon="3.3354">
        <ele>144</ele>
        <time>2014-05-04T08:12:16.000Z</time>
      </trkpt>
      <trkpt lat="48.2209" lon="3.33544">
        <ele>144</ele>
        <time>2014-05-04T08:12:17.000Z</time>
      </trkpt>
      <trkpt lat="48.22091" lon="3.33551">
        <ele>144</ele>
        <time>2014-05-04T08:12:18.000Z</time>
      </trkpt>
      <trkpt lat="48.22094" lon="3.33555">
        <ele>144</ele>
        <time>2014-05-04T08:12:19.000Z</time>
      </trkpt>
      <trkpt lat="48.22095" lon="3.3356">
        <ele>145</ele>
        <time>2014-05-04T08:12:20.000Z</time>
      </trkpt>
      <trkpt lat="48.22096" lon="3.33564">
        <ele>145</ele>
        <time>2014-05-04T08:12:21.000Z</time>
      </trkpt>
      <trkpt lat="48.22097" lon="3.33568">
        <ele>145</ele>
        <time>2014-05-04T08:12:22.000Z</time>
      </trkpt>
      <trkpt lat="48.22098" lon="3.33572">
        <ele>145</ele>
        <time>2014-05-04T08:12:23.000Z</time>
      </trkpt>
      <trkpt lat="48.22099" lon="3.33577">
        <ele>145</ele>
        <time>2014-05-04T08:12:24.000Z</time>
      </trkpt>
      <trkpt lat="48.22101" lon="3.33581">
        <ele>145</ele>
        <time>2014-05-04T08:12:25.000Z</time>
      </trkpt>
      <trkpt lat="48.22102" lon="3.33585">
        <ele>148</ele>
        <time>2014-05-04T08:12:26.000Z</time>
      </trkpt>
      <trkpt lat="48.22104" lon="3.3359">
        <ele>148</ele>
        <time>2014-05-04T08:12:27.000Z</time>
      </trkpt>
      <trkpt lat="48.22105" lon="3.33594">
        <ele>148</ele>
        <time>2014-05-04T08:12:28.000Z</time>
      </trkpt>
      <trkpt lat="48.22106" lon="3.33598">
        <ele>148</ele>
        <time>2014-05-04T08:12:29.000Z</time>
      </trkpt>
      <trkpt lat="48.22108" lon="3.33602">
        <ele>148</ele>
        <time>2014-05-04T08:12:30.000Z</time>
      </trkpt>
      <trkpt lat="48.22109" lon="3.33607">
        <ele>148</ele>
        <time>2014-05-04T08:12:31.000Z</time>
      </trkpt>
      <trkpt lat="48.2211" lon="3.33611">
        <ele>148</ele>
        <time>2014-05-04T08:12:32.000Z</time>
      </trkpt>
      <trkpt lat="48.22112" lon="3.33615">
        <ele>149</ele>
        <time>2014-05-04T08:12:33.000Z</time>
      </trkpt>
      <trkpt lat="48.22113" lon="3.3362">
        <ele>149</ele>
        <time>2014-05-04T08:12:34.000Z</time>
      </trkpt>
      <trkpt lat="48.22114" lon="3.33624">
        <ele>149</ele>
        <time>2014-05-04T08:12:35.000Z</time>
      </trkpt>
      <trkpt lat="48.22116" lon="3.33628">
        <ele>149</ele>
        <time>2014-05-04T08:12:36.000Z</time>
      </trkpt>
      <trkpt lat="48.22117" lon="3.3363">
        <ele>149</ele>
        <time>2014-05-04T08:12:37.000Z</time>
      </trkpt>
      <trkpt lat="48.22119" lon="3.33635">
        <ele>149</ele>
        <time>2014-05-04T08:12:38.000Z</time>
      </trkpt>
      <trkpt lat="48.2212" lon="3.33639">
        <ele>149</ele>
        <time>2014-05-04T08:12:39.000Z</time>
      </trkpt>
      <trkpt lat="48.22122" lon="3.33641">
        <ele>149</ele>
        <time>2014-05-04T08:12:40.000Z</time>
      </trkpt>
      <trkpt lat="48.22123" lon="3.33645">
        <ele>149</ele>
        <time>2014-05-04T08:12:41.000Z</time>
      </trkpt>
      <trkpt lat="48.22125" lon="3.3365">
        <ele>150</ele>
        <time>2014-05-04T08:12:42.000Z</time>
      </trkpt>
      <trkpt lat="48.22126" lon="3.33652">
        <ele>150</ele>
        <time>2014-05-04T08:12:43.000Z</time>
      </trkpt>
      <trkpt lat="48.22127" lon="3.33656">
        <ele>150</ele>
        <time>2014-05-04T08:12:44.000Z</time>
      </trkpt>
      <trkpt lat="48.22128" lon="3.33658">
        <ele>150</ele>
        <time>2014-05-04T08:12:45.000Z</time>
      </trkpt>
      <trkpt lat="48.22129" lon="3.33663">
        <ele>150</ele>
        <time>2014-05-04T08:12:46.000Z</time>
      </trkpt>
      <trkpt lat="48.2213" lon="3.33665">
        <ele>150</ele>
        <time>2014-05-04T08:12:47.000Z</time>
      </trkpt>
      <trkpt lat="48.22131" lon="3.33669">
        <ele>153</ele>
        <time>2014-05-04T08:12:48.000Z</time>
      </trkpt>
      <trkpt lat="48.22132" lon="3.33675">
        <ele>153</ele>
        <time>2014-05-04T08:12:50.000Z</time>
      </trkpt>
      <trkpt lat="48.22133" lon="3.33678">
        <ele>153</ele>
        <time>2014-05-04T08:12:51.000Z</time>
      </trkpt>
      <trkpt lat="48.22134" lon="3.33682">
        <ele>153</ele>
        <time>2014-05-04T08:12:52.000Z</time>
      </trkpt>
      <trkpt lat="48.22135" lon="3.33684">
        <ele>153</ele>
        <time>2014-05-04T08:12:53.000Z</time>
      </trkpt>
      <trkpt lat="48.22137" lon="3.33688">
        <ele>153</ele>
        <time>2014-05-04T08:12:54.000Z</time>
      </trkpt>
      <trkpt lat="48.22138" lon="3.3369">
        <ele>153</ele>
        <time>2014-05-04T08:12:55.000Z</time>
      </trkpt>
      <trkpt lat="48.22139" lon="3.33697">
        <ele>154</ele>
        <time>2014-05-04T08:12:57.000Z</time>
      </trkpt>
      <trkpt lat="48.2214" lon="3.33701">
        <ele>154</ele>
        <time>2014-05-04T08:12:58.000Z</time>
      </trkpt>
      <trkpt lat="48.22141" lon="3.33708">
        <ele>154</ele>
        <time>2014-05-04T08:13:00.000Z</time>
      </trkpt>
      <trkpt lat="48.22142" lon="3.3371">
        <ele>154</ele>
        <time>2014-05-04T08:13:01.000Z</time>
      </trkpt>
      <trkpt lat="48.22143" lon="3.33716">
        <ele>154</ele>
        <time>2014-05-04T08:13:03.000Z</time>
      </trkpt>
      <trkpt lat="48.22144" lon="3.3372">
        <ele>155</ele>
        <time>2014-05-04T08:13:04.000Z</time>
      </trkpt>
      <trkpt lat="48.22145" lon="3.33725">
        <ele>155</ele>
        <time>2014-05-04T08:13:06.000Z</time>
      </trkpt>
      <trkpt lat="48.22145" lon="3.33729">
        <ele>155</ele>
        <time>2014-05-04T08:13:07.000Z</time>
      </trkpt>
      <trkpt lat="48.22147" lon="3.33733">
        <ele>155</ele>
        <time>2014-05-04T08:13:09.000Z</time>
      </trkpt>
      <trkpt lat="48.22148" lon="3.33735">
        <ele>155</ele>
        <time>2014-05-04T08:13:10.000Z</time>
      </trkpt>
      <trkpt lat="48.22149" lon="3.33742">
        <ele>156</ele>
        <time>2014-05-04T08:13:12.000Z</time>
      </trkpt>
      <trkpt lat="48.2215" lon="3.33744">
        <ele>156</ele>
        <time>2014-05-04T08:13:13.000Z</time>
      </trkpt>
      <trkpt lat="48.2215" lon="3.33744">
        <ele>156</ele>
        <time>2014-05-04T08:13:15.000Z</time>
      </trkpt>
      <trkpt lat="48.22152" lon="3.33753">
        <ele>159</ele>
        <time>2014-05-04T08:13:16.000Z</time>
      </trkpt>
      <trkpt lat="48.22153" lon="3.33759">
        <ele>159</ele>
        <time>2014-05-04T08:13:19.000Z</time>
      </trkpt>
      <trkpt lat="48.22153" lon="3.33763">
        <ele>159</ele>
        <time>2014-05-04T08:13:20.000Z</time>
      </trkpt>
      <trkpt lat="48.22154" lon="3.33766">
        <ele>159</ele>
        <time>2014-05-04T08:13:24.000Z</time>
      </trkpt>
      <trkpt lat="48.22155" lon="3.33778">
        <ele>160</ele>
        <time>2014-05-04T08:13:25.000Z</time>
      </trkpt>
      <trkpt lat="48.22155" lon="3.33783">
        <ele>160</ele>
        <time>2014-05-04T08:13:27.000Z</time>
      </trkpt>
      <trkpt lat="48.22155" lon="3.33787">
        <ele>160</ele>
        <time>2014-05-04T08:13:28.000Z</time>
      </trkpt>
      <trkpt lat="48.22156" lon="3.33793">
        <ele>161</ele>
        <time>2014-05-04T08:13:30.000Z</time>
      </trkpt>
      <trkpt lat="48.22156" lon="3.33796">
        <ele>161</ele>
        <time>2014-05-04T08:13:31.000Z</time>
      </trkpt>
      <trkpt lat="48.22156" lon="3.33796">
        <ele>161</ele>
        <time>2014-05-04T08:13:35.000Z</time>
      </trkpt>
      <trkpt lat="48.22158" lon="3.33811">
        <ele>162</ele>
        <time>2014-05-04T08:13:36.000Z</time>
      </trkpt>
      <trkpt lat="48.22158" lon="3.33811">
        <ele>162</ele>
        <time>2014-05-04T08:13:40.000Z</time>
      </trkpt>
      <trkpt lat="48.22161" lon="3.33823">
        <ele>163</ele>
        <time>2014-05-04T08:13:41.000Z</time>
      </trkpt>
      <trkpt lat="48.22161" lon="3.33823">
        <ele>163</ele>
        <time>2014-05-04T08:13:45.000Z</time>
      </trkpt>
      <trkpt lat="48.22165" lon="3.33836">
        <ele>165</ele>
        <time>2014-05-04T08:13:46.000Z</time>
      </trkpt>
      <trkpt lat="48.22165" lon="3.33836">
        <ele>165</ele>
        <time>2014-05-04T08:13:50.000Z</time>
      </trkpt>
      <trkpt lat="48.2217" lon="3.33849">
        <ele>167</ele>
        <time>2014-05-04T08:13:51.000Z</time>
      </trkpt>
      <trkpt lat="48.2217" lon="3.33849">
        <ele>167</ele>
        <time>2014-05-04T08:13:55.000Z</time>
      </trkpt>
      <trkpt lat="48.22172" lon="3.33864">
        <ele>168</ele>
        <time>2014-05-04T08:13:56.000Z</time>
      </trkpt>
      <trkpt lat="48.22172" lon="3.33864">
        <ele>168</ele>
        <time>2014-05-04T08:14:01.000Z</time>
      </trkpt>
      <trkpt lat="48.22172" lon="3.33879">
        <ele>169</ele>
        <time>2014-05-04T08:14:02.000Z</time>
      </trkpt>
      <trkpt lat="48.22172" lon="3.33879">
        <ele>169</ele>
        <time>2014-05-04T08:14:07.000Z</time>
      </trkpt>
      <trkpt lat="48.22174" lon="3.33894">
        <ele>170</ele>
        <time>2014-05-04T08:14:08.000Z</time>
      </trkpt>
      <trkpt lat="48.22174" lon="3.33894">
        <ele>170</ele>
        <time>2014-05-04T08:14:11.000Z</time>
      </trkpt>
      <trkpt lat="48.22176" lon="3.33907">
        <ele>171</ele>
        <time>2014-05-04T08:14:12.000Z</time>
      </trkpt>
      <trkpt lat="48.22176" lon="3.33907">
        <ele>171</ele>
        <time>2014-05-04T08:14:15.000Z</time>
      </trkpt>
      <trkpt lat="48.22179" lon="3.33922">
        <ele>174</ele>
        <time>2014-05-04T08:14:16.000Z</time>
      </trkpt>
      <trkpt lat="48.22179" lon="3.33922">
        <ele>174</ele>
        <time>2014-05-04T08:14:19.000Z</time>
      </trkpt>
      <trkpt lat="48.22185" lon="3.33935">
        <ele>175</ele>
        <time>2014-05-04T08:14:20.000Z</time>
      </trkpt>
      <trkpt lat="48.22185" lon="3.33935">
        <ele>175</ele>
        <time>2014-05-04T08:14:23.000Z</time>
      </trkpt>
      <trkpt lat="48.22191" lon="3.33948">
        <ele>176</ele>
        <time>2014-05-04T08:14:24.000Z</time>
      </trkpt>
      <trkpt lat="48.22191" lon="3.33948">
        <ele>176</ele>
        <time>2014-05-04T08:14:27.000Z</time>
      </trkpt>
      <trkpt lat="48.22199" lon="3.33954">
        <ele>176</ele>
        <time>2014-05-04T08:14:28.000Z</time>
      </trkpt>
      <trkpt lat="48.22199" lon="3.33954">
        <ele>176</ele>
        <time>2014-05-04T08:14:32.000Z</time>
      </trkpt>
      <trkpt lat="48.22205" lon="3.33967">
        <ele>177</ele>
        <time>2014-05-04T08:14:33.000Z</time>
      </trkpt>
      <trkpt lat="48.22205" lon="3.33967">
        <ele>177</ele>
        <time>2014-05-04T08:14:37.000Z</time>
      </trkpt>
      <trkpt lat="48.22212" lon="3.33978">
        <ele>177</ele>
        <time>2014-05-04T08:14:38.000Z</time>
      </trkpt>
      <trkpt lat="48.22212" lon="3.33978">
        <ele>177</ele>
        <time>2014-05-04T08:14:42.000Z</time>
      </trkpt>
      <trkpt lat="48.22218" lon="3.33989">
        <ele>178</ele>
        <time>2014-05-04T08:14:43.000Z</time>
      </trkpt>
      <trkpt lat="48.22218" lon="3.33989">
        <ele>178</ele>
        <time>2014-05-04T08:14:48.000Z</time>
      </trkpt>
      <trkpt lat="48.22223" lon="3.34002">
        <ele>182</ele>
        <time>2014-05-04T08:14:49.000Z</time>
      </trkpt>
      <trkpt lat="48.22223" lon="3.34002">
        <ele>182</ele>
        <time>2014-05-04T08:14:54.000Z</time>
      </trkpt>
      <trkpt lat="48.22231" lon="3.34012">
        <ele>182</ele>
        <time>2014-05-04T08:14:55.000Z</time>
      </trkpt>
      <trkpt lat="48.22231" lon="3.34012">
        <ele>182</ele>
        <time>2014-05-04T08:15:00.000Z</time>
      </trkpt>
      <trkpt lat="48.22238" lon="3.34023">
        <ele>182</ele>
        <time>2014-05-04T08:15:01.000Z</time>
      </trkpt>
      <trkpt lat="48.22238" lon="3.34023">
        <ele>182</ele>
        <time>2014-05-04T08:15:06.000Z</time>
      </trkpt>
      <trkpt lat="48.22245" lon="3.34034">
        <ele>183</ele>
        <time>2014-05-04T08:15:07.000Z</time>
      </trkpt>
      <trkpt lat="48.22245" lon="3.34034">
        <ele>183</ele>
        <time>2014-05-04T08:15:11.000Z</time>
      </trkpt>
      <trkpt lat="48.22249" lon="3.3404">
        <ele>183</ele>
        <time>2014-05-04T08:15:12.000Z</time>
      </trkpt>
      <trkpt lat="48.2225" lon="3.34044">
        <ele>187</ele>
        <time>2014-05-04T08:15:14.000Z</time>
      </trkpt>
      <trkpt lat="48.22251" lon="3.34047">
        <ele>187</ele>
        <time>2014-05-04T08:15:15.000Z</time>
      </trkpt>
      <trkpt lat="48.22253" lon="3.34051">
        <ele>187</ele>
        <time>2014-05-04T08:15:18.000Z</time>
      </trkpt>
      <trkpt lat="48.22255" lon="3.34053">
        <ele>187</ele>
        <time>2014-05-04T08:15:19.000Z</time>
      </trkpt>
      <trkpt lat="48.22258" lon="3.34057">
        <ele>187</ele>
        <time>2014-05-04T08:15:22.000Z</time>
      </trkpt>
      <trkpt lat="48.2226" lon="3.34059">
        <ele>187</ele>
        <time>2014-05-04T08:15:23.000Z</time>
      </trkpt>
      <trkpt lat="48.22262" lon="3.34062">
        <ele>187</ele>
        <time>2014-05-04T08:15:25.000Z</time>
      </trkpt>
      <trkpt lat="48.22264" lon="3.34064">
        <ele>188</ele>
        <time>2014-05-04T08:15:26.000Z</time>
      </trkpt>
      <trkpt lat="48.22267" lon="3.34066">
        <ele>188</ele>
        <time>2014-05-04T08:15:28.000Z</time>
      </trkpt>
      <trkpt lat="48.22268" lon="3.34068">
        <ele>188</ele>
        <time>2014-05-04T08:15:29.000Z</time>
      </trkpt>
      <trkpt lat="48.22272" lon="3.34072">
        <ele>188</ele>
        <time>2014-05-04T08:15:32.000Z</time>
      </trkpt>
      <trkpt lat="48.22274" lon="3.34074">
        <ele>188</ele>
        <time>2014-05-04T08:15:33.000Z</time>
      </trkpt>
      <trkpt lat="48.22277" lon="3.34079">
        <ele>188</ele>
        <time>2014-05-04T08:15:36.000Z</time>
      </trkpt>
      <trkpt lat="48.22278" lon="3.34081">
        <ele>188</ele>
        <time>2014-05-04T08:15:37.000Z</time>
      </trkpt>
      <trkpt lat="48.2228" lon="3.34085">
        <ele>191</ele>
        <time>2014-05-04T08:15:39.000Z</time>
      </trkpt>
      <trkpt lat="48.22281" lon="3.34087">
        <ele>191</ele>
        <time>2014-05-04T08:15:40.000Z</time>
      </trkpt>
      <trkpt lat="48.22284" lon="3.34092">
        <ele>191</ele>
        <time>2014-05-04T08:15:42.000Z</time>
      </trkpt>
      <trkpt lat="48.22285" lon="3.34094">
        <ele>191</ele>
        <time>2014-05-04T08:15:43.000Z</time>
      </trkpt>
      <trkpt lat="48.22287" lon="3.34098">
        <ele>191</ele>
        <time>2014-05-04T08:15:45.000Z</time>
      </trkpt>
      <trkpt lat="48.22288" lon="3.34102">
        <ele>192</ele>
        <time>2014-05-04T08:15:46.000Z</time>
      </trkpt>
      <trkpt lat="48.2229" lon="3.34107">
        <ele>192</ele>
        <time>2014-05-04T08:15:48.000Z</time>
      </trkpt>
      <trkpt lat="48.22291" lon="3.34109">
        <ele>192</ele>
        <time>2014-05-04T08:15:49.000Z</time>
      </trkpt>
      <trkpt lat="48.22292" lon="3.34115">
        <ele>192</ele>
        <time>2014-05-04T08:15:51.000Z</time>
      </trkpt>
      <trkpt lat="48.22293" lon="3.34117">
        <ele>192</ele>
        <time>2014-05-04T08:15:52.000Z</time>
      </trkpt>
      <trkpt lat="48.22294" lon="3.34122">
        <ele>192</ele>
        <time>2014-05-04T08:15:54.000Z</time>
      </trkpt>
      <trkpt lat="48.22295" lon="3.34126">
        <ele>192</ele>
        <time>2014-05-04T08:15:55.000Z</time>
      </trkpt>
      <trkpt lat="48.22296" lon="3.3413">
        <ele>193</ele>
        <time>2014-05-04T08:15:57.000Z</time>
      </trkpt>
      <trkpt lat="48.22297" lon="3.34132">
        <ele>193</ele>
        <time>2014-05-04T08:15:58.000Z</time>
      </trkpt>
      <trkpt lat="48.22299" lon="3.34139">
        <ele>193</ele>
        <time>2014-05-04T08:16:00.000Z</time>
      </trkpt>
      <trkpt lat="48.223" lon="3.34141">
        <ele>193</ele>
        <time>2014-05-04T08:16:01.000Z</time>
      </trkpt>
      <trkpt lat="48.22301" lon="3.34147">
        <ele>193</ele>
        <time>2014-05-04T08:16:03.000Z</time>
      </trkpt>
      <trkpt lat="48.22302" lon="3.3415">
        <ele>193</ele>
        <time>2014-05-04T08:16:04.000Z</time>
      </trkpt>
      <trkpt lat="48.22302" lon="3.34152">
        <ele>193</ele>
        <time>2014-05-04T08:16:05.000Z</time>
      </trkpt>
      <trkpt lat="48.22303" lon="3.34156">
        <ele>193</ele>
        <time>2014-05-04T08:16:06.000Z</time>
      </trkpt>
      <trkpt lat="48.22304" lon="3.3416">
        <ele>194</ele>
        <time>2014-05-04T08:16:08.000Z</time>
      </trkpt>
      <trkpt lat="48.22305" lon="3.34162">
        <ele>194</ele>
        <time>2014-05-04T08:16:09.000Z</time>
      </trkpt>
      <trkpt lat="48.22306" lon="3.34165">
        <ele>194</ele>
        <time>2014-05-04T08:16:10.000Z</time>
      </trkpt>
      <trkpt lat="48.22307" lon="3.34169">
        <ele>195</ele>
        <time>2014-05-04T08:16:11.000Z</time>
      </trkpt>
      <trkpt lat="48.22308" lon="3.34173">
        <ele>195</ele>
        <time>2014-05-04T08:16:13.000Z</time>
      </trkpt>
      <trkpt lat="48.22309" lon="3.34175">
        <ele>195</ele>
        <time>2014-05-04T08:16:14.000Z</time>
      </trkpt>
      <trkpt lat="48.22311" lon="3.3418">
        <ele>195</ele>
        <time>2014-05-04T08:16:16.000Z</time>
      </trkpt>
      <trkpt lat="48.22312" lon="3.34182">
        <ele>195</ele>
        <time>2014-05-04T08:16:17.000Z</time>
      </trkpt>
      <trkpt lat="48.22312" lon="3.34186">
        <ele>195</ele>
        <time>2014-05-04T08:16:18.000Z</time>
      </trkpt>
      <trkpt lat="48.22314" lon="3.34188">
        <ele>195</ele>
        <time>2014-05-04T08:16:19.000Z</time>
      </trkpt>
      <trkpt lat="48.22315" lon="3.34193">
        <ele>195</ele>
        <time>2014-05-04T08:16:21.000Z</time>
      </trkpt>
      <trkpt lat="48.22316" lon="3.34195">
        <ele>195</ele>
        <time>2014-05-04T08:16:22.000Z</time>
      </trkpt>
      <trkpt lat="48.22318" lon="3.34199">
        <ele>195</ele>
        <time>2014-05-04T08:16:24.000Z</time>
      </trkpt>
      <trkpt lat="48.22319" lon="3.34201">
        <ele>195</ele>
        <time>2014-05-04T08:16:25.000Z</time>
      </trkpt>
      <trkpt lat="48.22323" lon="3.34201">
        <ele>195</ele>
        <time>2014-05-04T08:16:27.000Z</time>
      </trkpt>
      <trkpt lat="48.22325" lon="3.34201">
        <ele>195</ele>
        <time>2014-05-04T08:16:28.000Z</time>
      </trkpt>
      <trkpt lat="48.22329" lon="3.34201">
        <ele>195</ele>
        <time>2014-05-04T08:16:29.000Z</time>
      </trkpt>
      <trkpt lat="48.22331" lon="3.34201">
        <ele>195</ele>
        <time>2014-05-04T08:16:30.000Z</time>
      </trkpt>
      <trkpt lat="48.22334" lon="3.34199">
        <ele>198</ele>
        <time>2014-05-04T08:16:31.000Z</time>
      </trkpt>
      <trkpt lat="48.22337" lon="3.34199">
        <ele>198</ele>
        <time>2014-05-04T08:16:32.000Z</time>
      </trkpt>
      <trkpt lat="48.22339" lon="3.34199">
        <ele>198</ele>
        <time>2014-05-04T08:16:33.000Z</time>
      </trkpt>
      <trkpt lat="48.22343" lon="3.34197">
        <ele>198</ele>
        <time>2014-05-04T08:16:34.000Z</time>
      </trkpt>
      <trkpt lat="48.22347" lon="3.34197">
        <ele>198</ele>
        <time>2014-05-04T08:16:36.000Z</time>
      </trkpt>
      <trkpt lat="48.22349" lon="3.34197">
        <ele>198</ele>
        <time>2014-05-04T08:16:37.000Z</time>
      </trkpt>
      <trkpt lat="48.22353" lon="3.34197">
        <ele>198</ele>
        <time>2014-05-04T08:16:39.000Z</time>
      </trkpt>
      <trkpt lat="48.22354" lon="3.34199">
        <ele>198</ele>
        <time>2014-05-04T08:16:40.000Z</time>
      </trkpt>
      <trkpt lat="48.22358" lon="3.34199">
        <ele>198</ele>
        <time>2014-05-04T08:16:42.000Z</time>
      </trkpt>
      <trkpt lat="48.2236" lon="3.34199">
        <ele>198</ele>
        <time>2014-05-04T08:16:43.000Z</time>
      </trkpt>
      <trkpt lat="48.22363" lon="3.34201">
        <ele>198</ele>
        <time>2014-05-04T08:16:45.000Z</time>
      </trkpt>
      <trkpt lat="48.22364" lon="3.34201">
        <ele>198</ele>
        <time>2014-05-04T08:16:46.000Z</time>
      </trkpt>
      <trkpt lat="48.22367" lon="3.34203">
        <ele>198</ele>
        <time>2014-05-04T08:16:49.000Z</time>
      </trkpt>
      <trkpt lat="48.22368" lon="3.34205">
        <ele>198</ele>
        <time>2014-05-04T08:16:50.000Z</time>
      </trkpt>
      <trkpt lat="48.2237" lon="3.3421">
        <ele>198</ele>
        <time>2014-05-04T08:16:53.000Z</time>
      </trkpt>
      <trkpt lat="48.22371" lon="3.34212">
        <ele>199</ele>
        <time>2014-05-04T08:16:54.000Z</time>
      </trkpt>
      <trkpt lat="48.22373" lon="3.34218">
        <ele>199</ele>
        <time>2014-05-04T08:16:57.000Z</time>
      </trkpt>
      <trkpt lat="48.22374" lon="3.3422">
        <ele>199</ele>
        <time>2014-05-04T08:16:58.000Z</time>
      </trkpt>
      <trkpt lat="48.22375" lon="3.34227">
        <ele>199</ele>
        <time>2014-05-04T08:17:03.000Z</time>
      </trkpt>
      <trkpt lat="48.22375" lon="3.34229">
        <ele>199</ele>
        <time>2014-05-04T08:17:04.000Z</time>
      </trkpt>
      <trkpt lat="48.22375" lon="3.34235">
        <ele>199</ele>
        <time>2014-05-04T08:17:09.000Z</time>
      </trkpt>
      <trkpt lat="48.22375" lon="3.34238">
        <ele>199</ele>
        <time>2014-05-04T08:17:10.000Z</time>
      </trkpt>
      <trkpt lat="48.22375" lon="3.34244">
        <ele>199</ele>
        <time>2014-05-04T08:17:15.000Z</time>
      </trkpt>
      <trkpt lat="48.22375" lon="3.34246">
        <ele>199</ele>
        <time>2014-05-04T08:17:16.000Z</time>
      </trkpt>
      <trkpt lat="48.22375" lon="3.34253">
        <ele>200</ele>
        <time>2014-05-04T08:17:21.000Z</time>
      </trkpt>
      <trkpt lat="48.22375" lon="3.34255">
        <ele>200</ele>
        <time>2014-05-04T08:17:22.000Z</time>
      </trkpt>
      <trkpt lat="48.22376" lon="3.34261">
        <ele>201</ele>
        <time>2014-05-04T08:17:24.000Z</time>
      </trkpt>
      <trkpt lat="48.22376" lon="3.34263">
        <ele>201</ele>
        <time>2014-05-04T08:17:25.000Z</time>
      </trkpt>
      <trkpt lat="48.22377" lon="3.34268">
        <ele>201</ele>
        <time>2014-05-04T08:17:26.000Z</time>
      </trkpt>
      <trkpt lat="48.22378" lon="3.3427">
        <ele>201</ele>
        <time>2014-05-04T08:17:27.000Z</time>
      </trkpt>
      <trkpt lat="48.22379" lon="3.34274">
        <ele>201</ele>
        <time>2014-05-04T08:17:28.000Z</time>
      </trkpt>
      <trkpt lat="48.2238" lon="3.34278">
        <ele>201</ele>
        <time>2014-05-04T08:17:29.000Z</time>
      </trkpt>
      <trkpt lat="48.22381" lon="3.34283">
        <ele>201</ele>
        <time>2014-05-04T08:17:30.000Z</time>
      </trkpt>
      <trkpt lat="48.22383" lon="3.34287">
        <ele>201</ele>
        <time>2014-05-04T08:17:31.000Z</time>
      </trkpt>
      <trkpt lat="48.22385" lon="3.34293">
        <ele>201</ele>
        <time>2014-05-04T08:17:32.000Z</time>
      </trkpt>
      <trkpt lat="48.22387" lon="3.34298">
        <ele>201</ele>
        <time>2014-05-04T08:17:33.000Z</time>
      </trkpt>
      <trkpt lat="48.22389" lon="3.34304">
        <ele>201</ele>
        <time>2014-05-04T08:17:34.000Z</time>
      </trkpt>
      <trkpt lat="48.22391" lon="3.34311">
        <ele>201</ele>
        <time>2014-05-04T08:17:35.000Z</time>
      </trkpt>
      <trkpt lat="48.22393" lon="3.34315">
        <ele>202</ele>
        <time>2014-05-04T08:17:36.000Z</time>
      </trkpt>
      <trkpt lat="48.22395" lon="3.34321">
        <ele>202</ele>
        <time>2014-05-04T08:17:37.000Z</time>
      </trkpt>
      <trkpt lat="48.22397" lon="3.34326">
        <ele>202</ele>
        <time>2014-05-04T08:17:38.000Z</time>
      </trkpt>
      <trkpt lat="48.22399" lon="3.34332">
        <ele>202</ele>
        <time>2014-05-04T08:17:39.000Z</time>
      </trkpt>
      <trkpt lat="48.22402" lon="3.34336">
        <ele>203</ele>
        <time>2014-05-04T08:17:40.000Z</time>
      </trkpt>
      <trkpt lat="48.22404" lon="3.34341">
        <ele>203</ele>
        <time>2014-05-04T08:17:41.000Z</time>
      </trkpt>
      <trkpt lat="48.22405" lon="3.34347">
        <ele>203</ele>
        <time>2014-05-04T08:17:42.000Z</time>
      </trkpt>
      <trkpt lat="48.22407" lon="3.34351">
        <ele>203</ele>
        <time>2014-05-04T08:17:43.000Z</time>
      </trkpt>
      <trkpt lat="48.22409" lon="3.34356">
        <ele>203</ele>
        <time>2014-05-04T08:17:44.000Z</time>
      </trkpt>
      <trkpt lat="48.22411" lon="3.34362">
        <ele>203</ele>
        <time>2014-05-04T08:17:45.000Z</time>
      </trkpt>
      <trkpt lat="48.22413" lon="3.34366">
        <ele>203</ele>
        <time>2014-05-04T08:17:46.000Z</time>
      </trkpt>
      <trkpt lat="48.22415" lon="3.34371">
        <ele>203</ele>
        <time>2014-05-04T08:17:47.000Z</time>
      </trkpt>
      <trkpt lat="48.22418" lon="3.34375">
        <ele>204</ele>
        <time>2014-05-04T08:17:48.000Z</time>
      </trkpt>
      <trkpt lat="48.22421" lon="3.34377">
        <ele>204</ele>
        <time>2014-05-04T08:17:49.000Z</time>
      </trkpt>
      <trkpt lat="48.22423" lon="3.34381">
        <ele>204</ele>
        <time>2014-05-04T08:17:50.000Z</time>
      </trkpt>
      <trkpt lat="48.22425" lon="3.34386">
        <ele>204</ele>
        <time>2014-05-04T08:17:51.000Z</time>
      </trkpt>
      <trkpt lat="48.22427" lon="3.3439">
        <ele>204</ele>
        <time>2014-05-04T08:17:52.000Z</time>
      </trkpt>
      <trkpt lat="48.22429" lon="3.34394">
        <ele>204</ele>
        <time>2014-05-04T08:17:53.000Z</time>
      </trkpt>
      <trkpt lat="48.22432" lon="3.34399">
        <ele>204</ele>
        <time>2014-05-04T08:17:54.000Z</time>
      </trkpt>
      <trkpt lat="48.22434" lon="3.34403">
        <ele>204</ele>
        <time>2014-05-04T08:17:55.000Z</time>
      </trkpt>
      <trkpt lat="48.22436" lon="3.34407">
        <ele>204</ele>
        <time>2014-05-04T08:17:56.000Z</time>
      </trkpt>
      <trkpt lat="48.22439" lon="3.34411">
        <ele>204</ele>
        <time>2014-05-04T08:17:57.000Z</time>
      </trkpt>
      <trkpt lat="48.22441" lon="3.34416">
        <ele>204</ele>
        <time>2014-05-04T08:17:58.000Z</time>
      </trkpt>
      <trkpt lat="48.22443" lon="3.3442">
        <ele>205</ele>
        <time>2014-05-04T08:17:59.000Z</time>
      </trkpt>
      <trkpt lat="48.22446" lon="3.34422">
        <ele>205</ele>
        <time>2014-05-04T08:18:00.000Z</time>
      </trkpt>
      <trkpt lat="48.22448" lon="3.34426">
        <ele>205</ele>
        <time>2014-05-04T08:18:01.000Z</time>
      </trkpt>
      <trkpt lat="48.2245" lon="3.34431">
        <ele>205</ele>
        <time>2014-05-04T08:18:02.000Z</time>
      </trkpt>
      <trkpt lat="48.22452" lon="3.34435">
        <ele>205</ele>
        <time>2014-05-04T08:18:03.000Z</time>
      </trkpt>
      <trkpt lat="48.22455" lon="3.34439">
        <ele>205</ele>
        <time>2014-05-04T08:18:04.000Z</time>
      </trkpt>
      <trkpt lat="48.22457" lon="3.34444">
        <ele>205</ele>
        <time>2014-05-04T08:18:05.000Z</time>
      </trkpt>
      <trkpt lat="48.22459" lon="3.34448">
        <ele>205</ele>
        <time>2014-05-04T08:18:06.000Z</time>
      </trkpt>
      <trkpt lat="48.22462" lon="3.3445">
        <ele>205</ele>
        <time>2014-05-04T08:18:07.000Z</time>
      </trkpt>
      <trkpt lat="48.22464" lon="3.34454">
        <ele>205</ele>
        <time>2014-05-04T08:18:08.000Z</time>
      </trkpt>
      <trkpt lat="48.22466" lon="3.34459">
        <ele>205</ele>
        <time>2014-05-04T08:18:09.000Z</time>
      </trkpt>
      <trkpt lat="48.22469" lon="3.34463">
        <ele>205</ele>
        <time>2014-05-04T08:18:10.000Z</time>
      </trkpt>
      <trkpt lat="48.22471" lon="3.34465">
        <ele>205</ele>
        <time>2014-05-04T08:18:11.000Z</time>
      </trkpt>
      <trkpt lat="48.22473" lon="3.34469">
        <ele>205</ele>
        <time>2014-05-04T08:18:12.000Z</time>
      </trkpt>
      <trkpt lat="48.22474" lon="3.34474">
        <ele>205</ele>
        <time>2014-05-04T08:18:13.000Z</time>
      </trkpt>
      <trkpt lat="48.22477" lon="3.34478">
        <ele>205</ele>
        <time>2014-05-04T08:18:14.000Z</time>
      </trkpt>
      <trkpt lat="48.22479" lon="3.3448">
        <ele>206</ele>
        <time>2014-05-04T08:18:15.000Z</time>
      </trkpt>
      <trkpt lat="48.22481" lon="3.34484">
        <ele>206</ele>
        <time>2014-05-04T08:18:16.000Z</time>
      </trkpt>
      <trkpt lat="48.22483" lon="3.34486">
        <ele>206</ele>
        <time>2014-05-04T08:18:17.000Z</time>
      </trkpt>
      <trkpt lat="48.22485" lon="3.34491">
        <ele>206</ele>
        <time>2014-05-04T08:18:18.000Z</time>
      </trkpt>
      <trkpt lat="48.22487" lon="3.34495">
        <ele>206</ele>
        <time>2014-05-04T08:18:19.000Z</time>
      </trkpt>
      <trkpt lat="48.22488" lon="3.34497">
        <ele>206</ele>
        <time>2014-05-04T08:18:20.000Z</time>
      </trkpt>
      <trkpt lat="48.22491" lon="3.34502">
        <ele>207</ele>
        <time>2014-05-04T08:18:21.000Z</time>
      </trkpt>
      <trkpt lat="48.22492" lon="3.34506">
        <ele>207</ele>
        <time>2014-05-04T08:18:22.000Z</time>
      </trkpt>
      <trkpt lat="48.22494" lon="3.3451">
        <ele>207</ele>
        <time>2014-05-04T08:18:23.000Z</time>
      </trkpt>
      <trkpt lat="48.22495" lon="3.34514">
        <ele>207</ele>
        <time>2014-05-04T08:18:24.000Z</time>
      </trkpt>
      <trkpt lat="48.22497" lon="3.34519">
        <ele>207</ele>
        <time>2014-05-04T08:18:25.000Z</time>
      </trkpt>
      <trkpt lat="48.22498" lon="3.34521">
        <ele>207</ele>
        <time>2014-05-04T08:18:26.000Z</time>
      </trkpt>
      <trkpt lat="48.225" lon="3.34525">
        <ele>207</ele>
        <time>2014-05-04T08:18:27.000Z</time>
      </trkpt>
      <trkpt lat="48.22501" lon="3.34529">
        <ele>207</ele>
        <time>2014-05-04T08:18:28.000Z</time>
      </trkpt>
      <trkpt lat="48.22503" lon="3.34534">
        <ele>207</ele>
        <time>2014-05-04T08:18:29.000Z</time>
      </trkpt>
      <trkpt lat="48.22505" lon="3.34538">
        <ele>207</ele>
        <time>2014-05-04T08:18:30.000Z</time>
      </trkpt>
      <trkpt lat="48.22507" lon="3.3454">
        <ele>207</ele>
        <time>2014-05-04T08:18:31.000Z</time>
      </trkpt>
      <trkpt lat="48.22509" lon="3.34544">
        <ele>208</ele>
        <time>2014-05-04T08:18:32.000Z</time>
      </trkpt>
      <trkpt lat="48.22511" lon="3.34547">
        <ele>208</ele>
        <time>2014-05-04T08:18:33.000Z</time>
      </trkpt>
      <trkpt lat="48.22513" lon="3.34551">
        <ele>208</ele>
        <time>2014-05-04T08:18:34.000Z</time>
      </trkpt>
      <trkpt lat="48.22514" lon="3.34555">
        <ele>208</ele>
        <time>2014-05-04T08:18:35.000Z</time>
      </trkpt>
      <trkpt lat="48.22516" lon="3.34557">
        <ele>208</ele>
        <time>2014-05-04T08:18:36.000Z</time>
      </trkpt>
      <trkpt lat="48.22518" lon="3.34562">
        <ele>208</ele>
        <time>2014-05-04T08:18:37.000Z</time>
      </trkpt>
      <trkpt lat="48.22521" lon="3.34566">
        <ele>208</ele>
        <time>2014-05-04T08:18:38.000Z</time>
      </trkpt>
      <trkpt lat="48.22523" lon="3.34568">
        <ele>208</ele>
        <time>2014-05-04T08:18:39.000Z</time>
      </trkpt>
      <trkpt lat="48.22526" lon="3.34572">
        <ele>208</ele>
        <time>2014-05-04T08:18:40.000Z</time>
      </trkpt>
      <trkpt lat="48.22528" lon="3.34577">
        <ele>208</ele>
        <time>2014-05-04T08:18:41.000Z</time>
      </trkpt>
      <trkpt lat="48.2253" lon="3.34579">
        <ele>208</ele>
        <time>2014-05-04T08:18:42.000Z</time>
      </trkpt>
      <trkpt lat="48.22532" lon="3.34583">
        <ele>208</ele>
        <time>2014-05-04T08:18:43.000Z</time>
      </trkpt>
      <trkpt lat="48.22536" lon="3.34587">
        <ele>209</ele>
        <time>2014-05-04T08:18:44.000Z</time>
      </trkpt>
      <trkpt lat="48.22538" lon="3.34589">
        <ele>209</ele>
        <time>2014-05-04T08:18:45.000Z</time>
      </trkpt>
      <trkpt lat="48.22541" lon="3.34594">
        <ele>209</ele>
        <time>2014-05-04T08:18:46.000Z</time>
      </trkpt>
      <trkpt lat="48.22543" lon="3.34596">
        <ele>209</ele>
        <time>2014-05-04T08:18:47.000Z</time>
      </trkpt>
      <trkpt lat="48.22545" lon="3.346">
        <ele>209</ele>
        <time>2014-05-04T08:18:48.000Z</time>
      </trkpt>
      <trkpt lat="48.22549" lon="3.34602">
        <ele>209</ele>
        <time>2014-05-04T08:18:49.000Z</time>
      </trkpt>
      <trkpt lat="48.22551" lon="3.34607">
        <ele>209</ele>
        <time>2014-05-04T08:18:50.000Z</time>
      </trkpt>
      <trkpt lat="48.22553" lon="3.34611">
        <ele>209</ele>
        <time>2014-05-04T08:18:51.000Z</time>
      </trkpt>
      <trkpt lat="48.22555" lon="3.34615">
        <ele>209</ele>
        <time>2014-05-04T08:18:52.000Z</time>
      </trkpt>
      <trkpt lat="48.22557" lon="3.3462">
        <ele>209</ele>
        <time>2014-05-04T08:18:53.000Z</time>
      </trkpt>
      <trkpt lat="48.22559" lon="3.34624">
        <ele>209</ele>
        <time>2014-05-04T08:18:54.000Z</time>
      </trkpt>
      <trkpt lat="48.22561" lon="3.34628">
        <ele>209</ele>
        <time>2014-05-04T08:18:55.000Z</time>
      </trkpt>
      <trkpt lat="48.22564" lon="3.34632">
        <ele>209</ele>
        <time>2014-05-04T08:18:56.000Z</time>
      </trkpt>
      <trkpt lat="48.22566" lon="3.34637">
        <ele>209</ele>
        <time>2014-05-04T08:18:57.000Z</time>
      </trkpt>
      <trkpt lat="48.22568" lon="3.34641">
        <ele>209</ele>
        <time>2014-05-04T08:18:58.000Z</time>
      </trkpt>
      <trkpt lat="48.22569" lon="3.34645">
        <ele>210</ele>
        <time>2014-05-04T08:18:59.000Z</time>
      </trkpt>
      <trkpt lat="48.22571" lon="3.3465">
        <ele>210</ele>
        <time>2014-05-04T08:19:00.000Z</time>
      </trkpt>
      <trkpt lat="48.22573" lon="3.34654">
        <ele>210</ele>
        <time>2014-05-04T08:19:01.000Z</time>
      </trkpt>
      <trkpt lat="48.22575" lon="3.34658">
        <ele>210</ele>
        <time>2014-05-04T08:19:02.000Z</time>
      </trkpt>
      <trkpt lat="48.22577" lon="3.34662">
        <ele>210</ele>
        <time>2014-05-04T08:19:03.000Z</time>
      </trkpt>
      <trkpt lat="48.2258" lon="3.34667">
        <ele>210</ele>
        <time>2014-05-04T08:19:04.000Z</time>
      </trkpt>
      <trkpt lat="48.22582" lon="3.34671">
        <ele>210</ele>
        <time>2014-05-04T08:19:05.000Z</time>
      </trkpt>
      <trkpt lat="48.22584" lon="3.34675">
        <ele>209</ele>
        <time>2014-05-04T08:19:06.000Z</time>
      </trkpt>
      <trkpt lat="48.22586" lon="3.3468">
        <ele>209</ele>
        <time>2014-05-04T08:19:07.000Z</time>
      </trkpt>
      <trkpt lat="48.22588" lon="3.34684">
        <ele>209</ele>
        <time>2014-05-04T08:19:08.000Z</time>
      </trkpt>
      <trkpt lat="48.2259" lon="3.3469">
        <ele>208</ele>
        <time>2014-05-04T08:19:09.000Z</time>
      </trkpt>
      <trkpt lat="48.22591" lon="3.34695">
        <ele>208</ele>
        <time>2014-05-04T08:19:10.000Z</time>
      </trkpt>
      <trkpt lat="48.22594" lon="3.34699">
        <ele>208</ele>
        <time>2014-05-04T08:19:11.000Z</time>
      </trkpt>
      <trkpt lat="48.22596" lon="3.34703">
        <ele>208</ele>
        <time>2014-05-04T08:19:12.000Z</time>
      </trkpt>
      <trkpt lat="48.22598" lon="3.34707">
        <ele>208</ele>
        <time>2014-05-04T08:19:13.000Z</time>
      </trkpt>
      <trkpt lat="48.226" lon="3.34712">
        <ele>208</ele>
        <time>2014-05-04T08:19:14.000Z</time>
      </trkpt>
      <trkpt lat="48.22602" lon="3.34718">
        <ele>208</ele>
        <time>2014-05-04T08:19:15.000Z</time>
      </trkpt>
      <trkpt lat="48.22604" lon="3.34723">
        <ele>208</ele>
        <time>2014-05-04T08:19:16.000Z</time>
      </trkpt>
      <trkpt lat="48.22608" lon="3.34727">
        <ele>208</ele>
        <time>2014-05-04T08:19:17.000Z</time>
      </trkpt>
      <trkpt lat="48.2261" lon="3.34733">
        <ele>208</ele>
        <time>2014-05-04T08:19:18.000Z</time>
      </trkpt>
      <trkpt lat="48.22613" lon="3.34738">
        <ele>208</ele>
        <time>2014-05-04T08:19:19.000Z</time>
      </trkpt>
      <trkpt lat="48.22615" lon="3.34744">
        <ele>208</ele>
        <time>2014-05-04T08:19:20.000Z</time>
      </trkpt>
      <trkpt lat="48.22618" lon="3.34748">
        <ele>207</ele>
        <time>2014-05-04T08:19:21.000Z</time>
      </trkpt>
      <trkpt lat="48.22621" lon="3.34753">
        <ele>207</ele>
        <time>2014-05-04T08:19:22.000Z</time>
      </trkpt>
      <trkpt lat="48.22625" lon="3.34759">
        <ele>207</ele>
        <time>2014-05-04T08:19:23.000Z</time>
      </trkpt>
      <trkpt lat="48.22628" lon="3.34763">
        <ele>207</ele>
        <time>2014-05-04T08:19:24.000Z</time>
      </trkpt>
      <trkpt lat="48.2263" lon="3.34768">
        <ele>207</ele>
        <time>2014-05-04T08:19:25.000Z</time>
      </trkpt>
      <trkpt lat="48.22633" lon="3.34774">
        <ele>207</ele>
        <time>2014-05-04T08:19:26.000Z</time>
      </trkpt>
      <trkpt lat="48.22636" lon="3.34778">
        <ele>207</ele>
        <time>2014-05-04T08:19:27.000Z</time>
      </trkpt>
      <trkpt lat="48.22639" lon="3.34785">
        <ele>207</ele>
        <time>2014-05-04T08:19:28.000Z</time>
      </trkpt>
      <trkpt lat="48.22642" lon="3.34789">
        <ele>207</ele>
        <time>2014-05-04T08:19:29.000Z</time>
      </trkpt>
      <trkpt lat="48.22644" lon="3.34793">
        <ele>207</ele>
        <time>2014-05-04T08:19:30.000Z</time>
      </trkpt>
      <trkpt lat="48.22647" lon="3.348">
        <ele>207</ele>
        <time>2014-05-04T08:19:31.000Z</time>
      </trkpt>
      <trkpt lat="48.22649" lon="3.34804">
        <ele>208</ele>
        <time>2014-05-04T08:19:32.000Z</time>
      </trkpt>
      <trkpt lat="48.22653" lon="3.3481">
        <ele>208</ele>
        <time>2014-05-04T08:19:33.000Z</time>
      </trkpt>
      <trkpt lat="48.22655" lon="3.34815">
        <ele>208</ele>
        <time>2014-05-04T08:19:34.000Z</time>
      </trkpt>
      <trkpt lat="48.22657" lon="3.34819">
        <ele>208</ele>
        <time>2014-05-04T08:19:35.000Z</time>
      </trkpt>
      <trkpt lat="48.22659" lon="3.34826">
        <ele>208</ele>
        <time>2014-05-04T08:19:36.000Z</time>
      </trkpt>
      <trkpt lat="48.22661" lon="3.3483">
        <ele>208</ele>
        <time>2014-05-04T08:19:37.000Z</time>
      </trkpt>
      <trkpt lat="48.22663" lon="3.34836">
        <ele>208</ele>
        <time>2014-05-04T08:19:38.000Z</time>
      </trkpt>
      <trkpt lat="48.22665" lon="3.34841">
        <ele>208</ele>
        <time>2014-05-04T08:19:39.000Z</time>
      </trkpt>
      <trkpt lat="48.22669" lon="3.34847">
        <ele>207</ele>
        <time>2014-05-04T08:19:40.000Z</time>
      </trkpt>
      <trkpt lat="48.22671" lon="3.34851">
        <ele>207</ele>
        <time>2014-05-04T08:19:41.000Z</time>
      </trkpt>
      <trkpt lat="48.22673" lon="3.34858">
        <ele>207</ele>
        <time>2014-05-04T08:19:42.000Z</time>
      </trkpt>
      <trkpt lat="48.22675" lon="3.34864">
        <ele>206</ele>
        <time>2014-05-04T08:19:43.000Z</time>
      </trkpt>
      <trkpt lat="48.22678" lon="3.34879">
        <ele>206</ele>
        <time>2014-05-04T08:19:44.000Z</time>
      </trkpt>
      <trkpt lat="48.2268" lon="3.34886">
        <ele>206</ele>
        <time>2014-05-04T08:19:45.000Z</time>
      </trkpt>
      <trkpt lat="48.22682" lon="3.34892">
        <ele>206</ele>
        <time>2014-05-04T08:19:46.000Z</time>
      </trkpt>
      <trkpt lat="48.22684" lon="3.34898">
        <ele>206</ele>
        <time>2014-05-04T08:19:47.000Z</time>
      </trkpt>
      <trkpt lat="48.22685" lon="3.34905">
        <ele>207</ele>
        <time>2014-05-04T08:19:48.000Z</time>
      </trkpt>
      <trkpt lat="48.22687" lon="3.34911">
        <ele>207</ele>
        <time>2014-05-04T08:19:49.000Z</time>
      </trkpt>
      <trkpt lat="48.22688" lon="3.34916">
        <ele>207</ele>
        <time>2014-05-04T08:19:50.000Z</time>
      </trkpt>
      <trkpt lat="48.2269" lon="3.34922">
        <ele>208</ele>
        <time>2014-05-04T08:19:51.000Z</time>
      </trkpt>
      <trkpt lat="48.22692" lon="3.34929">
        <ele>208</ele>
        <time>2014-05-04T08:19:52.000Z</time>
      </trkpt>
      <trkpt lat="48.22694" lon="3.34935">
        <ele>208</ele>
        <time>2014-05-04T08:19:53.000Z</time>
      </trkpt>
      <trkpt lat="48.22695" lon="3.34939">
        <ele>208</ele>
        <time>2014-05-04T08:19:54.000Z</time>
      </trkpt>
      <trkpt lat="48.22698" lon="3.34946">
        <ele>208</ele>
        <time>2014-05-04T08:19:55.000Z</time>
      </trkpt>
      <trkpt lat="48.227" lon="3.3495">
        <ele>208</ele>
        <time>2014-05-04T08:19:56.000Z</time>
      </trkpt>
      <trkpt lat="48.22701" lon="3.34956">
        <ele>208</ele>
        <time>2014-05-04T08:19:57.000Z</time>
      </trkpt>
      <trkpt lat="48.22702" lon="3.34963">
        <ele>208</ele>
        <time>2014-05-04T08:19:58.000Z</time>
      </trkpt>
      <trkpt lat="48.22703" lon="3.34967">
        <ele>208</ele>
        <time>2014-05-04T08:19:59.000Z</time>
      </trkpt>
      <trkpt lat="48.22704" lon="3.34974">
        <ele>208</ele>
        <time>2014-05-04T08:20:00.000Z</time>
      </trkpt>
      <trkpt lat="48.22705" lon="3.3498">
        <ele>208</ele>
        <time>2014-05-04T08:20:01.000Z</time>
      </trkpt>
      <trkpt lat="48.22706" lon="3.34984">
        <ele>208</ele>
        <time>2014-05-04T08:20:02.000Z</time>
      </trkpt>
      <trkpt lat="48.22707" lon="3.34991">
        <ele>208</ele>
        <time>2014-05-04T08:20:03.000Z</time>
      </trkpt>
      <trkpt lat="48.22708" lon="3.34997">
        <ele>208</ele>
        <time>2014-05-04T08:20:04.000Z</time>
      </trkpt>
      <trkpt lat="48.22708" lon="3.35001">
        <ele>210</ele>
        <time>2014-05-04T08:20:05.000Z</time>
      </trkpt>
      <trkpt lat="48.22709" lon="3.35006">
        <ele>209</ele>
        <time>2014-05-04T08:20:06.000Z</time>
      </trkpt>
      <trkpt lat="48.22709" lon="3.35012">
        <ele>209</ele>
        <time>2014-05-04T08:20:07.000Z</time>
      </trkpt>
      <trkpt lat="48.22711" lon="3.35016">
        <ele>209</ele>
        <time>2014-05-04T08:20:08.000Z</time>
      </trkpt>
      <trkpt lat="48.22712" lon="3.35021">
        <ele>209</ele>
        <time>2014-05-04T08:20:09.000Z</time>
      </trkpt>
      <trkpt lat="48.22712" lon="3.35025">
        <ele>209</ele>
        <time>2014-05-04T08:20:10.000Z</time>
      </trkpt>
      <trkpt lat="48.22713" lon="3.35032">
        <ele>209</ele>
        <time>2014-05-04T08:20:11.000Z</time>
      </trkpt>
      <trkpt lat="48.22714" lon="3.35036">
        <ele>209</ele>
        <time>2014-05-04T08:20:12.000Z</time>
      </trkpt>
      <trkpt lat="48.22715" lon="3.35042">
        <ele>209</ele>
        <time>2014-05-04T08:20:13.000Z</time>
      </trkpt>
      <trkpt lat="48.22716" lon="3.35047">
        <ele>209</ele>
        <time>2014-05-04T08:20:14.000Z</time>
      </trkpt>
      <trkpt lat="48.22717" lon="3.35053">
        <ele>209</ele>
        <time>2014-05-04T08:20:15.000Z</time>
      </trkpt>
      <trkpt lat="48.22718" lon="3.35057">
        <ele>209</ele>
        <time>2014-05-04T08:20:16.000Z</time>
      </trkpt>
      <trkpt lat="48.22718" lon="3.35064">
        <ele>209</ele>
        <time>2014-05-04T08:20:17.000Z</time>
      </trkpt>
      <trkpt lat="48.22719" lon="3.35068">
        <ele>209</ele>
        <time>2014-05-04T08:20:18.000Z</time>
      </trkpt>
      <trkpt lat="48.2272" lon="3.35074">
        <ele>209</ele>
        <time>2014-05-04T08:20:19.000Z</time>
      </trkpt>
      <trkpt lat="48.2272" lon="3.35081">
        <ele>209</ele>
        <time>2014-05-04T08:20:20.000Z</time>
      </trkpt>
      <trkpt lat="48.22721" lon="3.35085">
        <ele>209</ele>
        <time>2014-05-04T08:20:21.000Z</time>
      </trkpt>
      <trkpt lat="48.22723" lon="3.35092">
        <ele>209</ele>
        <time>2014-05-04T08:20:22.000Z</time>
      </trkpt>
      <trkpt lat="48.22724" lon="3.35098">
        <ele>209</ele>
        <time>2014-05-04T08:20:23.000Z</time>
      </trkpt>
      <trkpt lat="48.22726" lon="3.35102">
        <ele>209</ele>
        <time>2014-05-04T08:20:24.000Z</time>
      </trkpt>
      <trkpt lat="48.22727" lon="3.35109">
        <ele>209</ele>
        <time>2014-05-04T08:20:25.000Z</time>
      </trkpt>
      <trkpt lat="48.22727" lon="3.35115">
        <ele>209</ele>
        <time>2014-05-04T08:20:26.000Z</time>
      </trkpt>
      <trkpt lat="48.22728" lon="3.35122">
        <ele>208</ele>
        <time>2014-05-04T08:20:27.000Z</time>
      </trkpt>
      <trkpt lat="48.22729" lon="3.35128">
        <ele>208</ele>
        <time>2014-05-04T08:20:28.000Z</time>
      </trkpt>
      <trkpt lat="48.2273" lon="3.35135">
        <ele>208</ele>
        <time>2014-05-04T08:20:29.000Z</time>
      </trkpt>
      <trkpt lat="48.22731" lon="3.35139">
        <ele>208</ele>
        <time>2014-05-04T08:20:30.000Z</time>
      </trkpt>
      <trkpt lat="48.22733" lon="3.35145">
        <ele>208</ele>
        <time>2014-05-04T08:20:31.000Z</time>
      </trkpt>
      <trkpt lat="48.22734" lon="3.35147">
        <ele>208</ele>
        <time>2014-05-04T08:20:32.000Z</time>
      </trkpt>
      <trkpt lat="48.22735" lon="3.35152">
        <ele>208</ele>
        <time>2014-05-04T08:20:33.000Z</time>
      </trkpt>
      <trkpt lat="48.22736" lon="3.35156">
        <ele>208</ele>
        <time>2014-05-04T08:20:38.000Z</time>
      </trkpt>
      <trkpt lat="48.22731" lon="3.3516">
        <ele>208</ele>
        <time>2014-05-04T08:20:39.000Z</time>
      </trkpt>
      <trkpt lat="48.22727" lon="3.3516">
        <ele>208</ele>
        <time>2014-05-04T08:20:40.000Z</time>
      </trkpt>
      <trkpt lat="48.22723" lon="3.35162">
        <ele>208</ele>
        <time>2014-05-04T08:20:41.000Z</time>
      </trkpt>
      <trkpt lat="48.22719" lon="3.35162">
        <ele>208</ele>
        <time>2014-05-04T08:20:42.000Z</time>
      </trkpt>
      <trkpt lat="48.22714" lon="3.35162">
        <ele>208</ele>
        <time>2014-05-04T08:20:43.000Z</time>
      </trkpt>
      <trkpt lat="48.22709" lon="3.35162">
        <ele>208</ele>
        <time>2014-05-04T08:20:44.000Z</time>
      </trkpt>
      <trkpt lat="48.22704" lon="3.35162">
        <ele>208</ele>
        <time>2014-05-04T08:20:45.000Z</time>
      </trkpt>
      <trkpt lat="48.22699" lon="3.35162">
        <ele>208</ele>
        <time>2014-05-04T08:20:46.000Z</time>
      </trkpt>
      <trkpt lat="48.22694" lon="3.35162">
        <ele>208</ele>
        <time>2014-05-04T08:20:47.000Z</time>
      </trkpt>
      <trkpt lat="48.22689" lon="3.35162">
        <ele>208</ele>
        <time>2014-05-04T08:20:48.000Z</time>
      </trkpt>
      <trkpt lat="48.22685" lon="3.35162">
        <ele>208</ele>
        <time>2014-05-04T08:20:49.000Z</time>
      </trkpt>
      <trkpt lat="48.22679" lon="3.35162">
        <ele>208</ele>
        <time>2014-05-04T08:20:50.000Z</time>
      </trkpt>
      <trkpt lat="48.22675" lon="3.35165">
        <ele>208</ele>
        <time>2014-05-04T08:20:51.000Z</time>
      </trkpt>
      <trkpt lat="48.2267" lon="3.35165">
        <ele>208</ele>
        <time>2014-05-04T08:20:52.000Z</time>
      </trkpt>
      <trkpt lat="48.22665" lon="3.35165">
        <ele>208</ele>
        <time>2014-05-04T08:20:53.000Z</time>
      </trkpt>
      <trkpt lat="48.2266" lon="3.35165">
        <ele>208</ele>
        <time>2014-05-04T08:20:54.000Z</time>
      </trkpt>
      <trkpt lat="48.22656" lon="3.35167">
        <ele>208</ele>
        <time>2014-05-04T08:20:55.000Z</time>
      </trkpt>
      <trkpt lat="48.2265" lon="3.35167">
        <ele>208</ele>
        <time>2014-05-04T08:20:56.000Z</time>
      </trkpt>
      <trkpt lat="48.22646" lon="3.35167">
        <ele>208</ele>
        <time>2014-05-04T08:20:57.000Z</time>
      </trkpt>
      <trkpt lat="48.22641" lon="3.35167">
        <ele>208</ele>
        <time>2014-05-04T08:20:58.000Z</time>
      </trkpt>
      <trkpt lat="48.22636" lon="3.35169">
        <ele>207</ele>
        <time>2014-05-04T08:20:59.000Z</time>
      </trkpt>
      <trkpt lat="48.22632" lon="3.35169">
        <ele>207</ele>
        <time>2014-05-04T08:21:00.000Z</time>
      </trkpt>
      <trkpt lat="48.22627" lon="3.35171">
        <ele>207</ele>
        <time>2014-05-04T08:21:01.000Z</time>
      </trkpt>
      <trkpt lat="48.22623" lon="3.35171">
        <ele>207</ele>
        <time>2014-05-04T08:21:02.000Z</time>
      </trkpt>
      <trkpt lat="48.22618" lon="3.35171">
        <ele>207</ele>
        <time>2014-05-04T08:21:03.000Z</time>
      </trkpt>
      <trkpt lat="48.22613" lon="3.35171">
        <ele>207</ele>
        <time>2014-05-04T08:21:04.000Z</time>
      </trkpt>
      <trkpt lat="48.22609" lon="3.35173">
        <ele>207</ele>
        <time>2014-05-04T08:21:05.000Z</time>
      </trkpt>
      <trkpt lat="48.22603" lon="3.35173">
        <ele>207</ele>
        <time>2014-05-04T08:21:06.000Z</time>
      </trkpt>
      <trkpt lat="48.22598" lon="3.35173">
        <ele>207</ele>
        <time>2014-05-04T08:21:07.000Z</time>
      </trkpt>
      <trkpt lat="48.22592" lon="3.35173">
        <ele>207</ele>
        <time>2014-05-04T08:21:08.000Z</time>
      </trkpt>
      <trkpt lat="48.22587" lon="3.35175">
        <ele>207</ele>
        <time>2014-05-04T08:21:09.000Z</time>
      </trkpt>
      <trkpt lat="48.22582" lon="3.35175">
        <ele>206</ele>
        <time>2014-05-04T08:21:10.000Z</time>
      </trkpt>
      <trkpt lat="48.22576" lon="3.35175">
        <ele>206</ele>
        <time>2014-05-04T08:21:11.000Z</time>
      </trkpt>
      <trkpt lat="48.22571" lon="3.35175">
        <ele>206</ele>
        <time>2014-05-04T08:21:12.000Z</time>
      </trkpt>
      <trkpt lat="48.22566" lon="3.35175">
        <ele>206</ele>
        <time>2014-05-04T08:21:13.000Z</time>
      </trkpt>
      <trkpt lat="48.2256" lon="3.35177">
        <ele>206</ele>
        <time>2014-05-04T08:21:14.000Z</time>
      </trkpt>
      <trkpt lat="48.22555" lon="3.35177">
        <ele>206</ele>
        <time>2014-05-04T08:21:15.000Z</time>
      </trkpt>
      <trkpt lat="48.22549" lon="3.3518">
        <ele>205</ele>
        <time>2014-05-04T08:21:16.000Z</time>
      </trkpt>
      <trkpt lat="48.22542" lon="3.35182">
        <ele>205</ele>
        <time>2014-05-04T08:21:17.000Z</time>
      </trkpt>
      <trkpt lat="48.22536" lon="3.35184">
        <ele>205</ele>
        <time>2014-05-04T08:21:18.000Z</time>
      </trkpt>
      <trkpt lat="48.22529" lon="3.35184">
        <ele>205</ele>
        <time>2014-05-04T08:21:19.000Z</time>
      </trkpt>
      <trkpt lat="48.22523" lon="3.35186">
        <ele>205</ele>
        <time>2014-05-04T08:21:20.000Z</time>
      </trkpt>
      <trkpt lat="48.22516" lon="3.35188">
        <ele>205</ele>
        <time>2014-05-04T08:21:21.000Z</time>
      </trkpt>
      <trkpt lat="48.22511" lon="3.3519">
        <ele>204</ele>
        <time>2014-05-04T08:21:22.000Z</time>
      </trkpt>
      <trkpt lat="48.22506" lon="3.35192">
        <ele>204</ele>
        <time>2014-05-04T08:21:23.000Z</time>
      </trkpt>
      <trkpt lat="48.22501" lon="3.35195">
        <ele>204</ele>
        <time>2014-05-04T08:21:24.000Z</time>
      </trkpt>
      <trkpt lat="48.22497" lon="3.35195">
        <ele>202</ele>
        <time>2014-05-04T08:21:25.000Z</time>
      </trkpt>
      <trkpt lat="48.22493" lon="3.35195">
        <ele>202</ele>
        <time>2014-05-04T08:21:26.000Z</time>
      </trkpt>
      <trkpt lat="48.22488" lon="3.35195">
        <ele>202</ele>
        <time>2014-05-04T08:21:27.000Z</time>
      </trkpt>
      <trkpt lat="48.22485" lon="3.35192">
        <ele>202</ele>
        <time>2014-05-04T08:21:28.000Z</time>
      </trkpt>
      <trkpt lat="48.22482" lon="3.3519">
        <ele>202</ele>
        <time>2014-05-04T08:21:29.000Z</time>
      </trkpt>
      <trkpt lat="48.2248" lon="3.35188">
        <ele>202</ele>
        <time>2014-05-04T08:21:30.000Z</time>
      </trkpt>
      <trkpt lat="48.22477" lon="3.35186">
        <ele>201</ele>
        <time>2014-05-04T08:21:31.000Z</time>
      </trkpt>
      <trkpt lat="48.22474" lon="3.35184">
        <ele>201</ele>
        <time>2014-05-04T08:21:32.000Z</time>
      </trkpt>
      <trkpt lat="48.22471" lon="3.3518">
        <ele>201</ele>
        <time>2014-05-04T08:21:33.000Z</time>
      </trkpt>
      <trkpt lat="48.22469" lon="3.35177">
        <ele>201</ele>
        <time>2014-05-04T08:21:34.000Z</time>
      </trkpt>
      <trkpt lat="48.22467" lon="3.35173">
        <ele>201</ele>
        <time>2014-05-04T08:21:35.000Z</time>
      </trkpt>
      <trkpt lat="48.22465" lon="3.35169">
        <ele>201</ele>
        <time>2014-05-04T08:21:36.000Z</time>
      </trkpt>
      <trkpt lat="48.22464" lon="3.35165">
        <ele>200</ele>
        <time>2014-05-04T08:21:37.000Z</time>
      </trkpt>
      <trkpt lat="48.22462" lon="3.3516">
        <ele>200</ele>
        <time>2014-05-04T08:21:38.000Z</time>
      </trkpt>
      <trkpt lat="48.22459" lon="3.35154">
        <ele>200</ele>
        <time>2014-05-04T08:21:39.000Z</time>
      </trkpt>
      <trkpt lat="48.22457" lon="3.3515">
        <ele>200</ele>
        <time>2014-05-04T08:21:40.000Z</time>
      </trkpt>
      <trkpt lat="48.22456" lon="3.35143">
        <ele>200</ele>
        <time>2014-05-04T08:21:41.000Z</time>
      </trkpt>
      <trkpt lat="48.22454" lon="3.35137">
        <ele>200</ele>
        <time>2014-05-04T08:21:42.000Z</time>
      </trkpt>
      <trkpt lat="48.22453" lon="3.3513">
        <ele>200</ele>
        <time>2014-05-04T08:21:43.000Z</time>
      </trkpt>
      <trkpt lat="48.22451" lon="3.35124">
        <ele>200</ele>
        <time>2014-05-04T08:21:44.000Z</time>
      </trkpt>
      <trkpt lat="48.22451" lon="3.35115">
        <ele>200</ele>
        <time>2014-05-04T08:21:45.000Z</time>
      </trkpt>
      <trkpt lat="48.2245" lon="3.35107">
        <ele>200</ele>
        <time>2014-05-04T08:21:46.000Z</time>
      </trkpt>
      <trkpt lat="48.22449" lon="3.351">
        <ele>200</ele>
        <time>2014-05-04T08:21:47.000Z</time>
      </trkpt>
      <trkpt lat="48.22448" lon="3.35092">
        <ele>200</ele>
        <time>2014-05-04T08:21:48.000Z</time>
      </trkpt>
      <trkpt lat="48.22447" lon="3.35085">
        <ele>200</ele>
        <time>2014-05-04T08:21:49.000Z</time>
      </trkpt>
      <trkpt lat="48.22447" lon="3.35077">
        <ele>201</ele>
        <time>2014-05-04T08:21:50.000Z</time>
      </trkpt>
      <trkpt lat="48.22446" lon="3.3507">
        <ele>201</ele>
        <time>2014-05-04T08:21:51.000Z</time>
      </trkpt>
      <trkpt lat="48.22444" lon="3.35062">
        <ele>201</ele>
        <time>2014-05-04T08:21:52.000Z</time>
      </trkpt>
      <trkpt lat="48.22443" lon="3.35055">
        <ele>201</ele>
        <time>2014-05-04T08:21:53.000Z</time>
      </trkpt>
      <trkpt lat="48.22441" lon="3.35049">
        <ele>202</ele>
        <time>2014-05-04T08:21:54.000Z</time>
      </trkpt>
      <trkpt lat="48.2244" lon="3.3504">
        <ele>202</ele>
        <time>2014-05-04T08:21:55.000Z</time>
      </trkpt>
      <trkpt lat="48.22439" lon="3.35034">
        <ele>202</ele>
        <time>2014-05-04T08:21:56.000Z</time>
      </trkpt>
      <trkpt lat="48.22437" lon="3.35025">
        <ele>202</ele>
        <time>2014-05-04T08:21:57.000Z</time>
      </trkpt>
      <trkpt lat="48.22436" lon="3.35019">
        <ele>202</ele>
        <time>2014-05-04T08:21:58.000Z</time>
      </trkpt>
      <trkpt lat="48.22434" lon="3.3501">
        <ele>202</ele>
        <time>2014-05-04T08:21:59.000Z</time>
      </trkpt>
      <trkpt lat="48.22433" lon="3.35004">
        <ele>202</ele>
        <time>2014-05-04T08:22:00.000Z</time>
      </trkpt>
      <trkpt lat="48.2243" lon="3.34995">
        <ele>202</ele>
        <time>2014-05-04T08:22:01.000Z</time>
      </trkpt>
      <trkpt lat="48.22427" lon="3.34989">
        <ele>202</ele>
        <time>2014-05-04T08:22:02.000Z</time>
      </trkpt>
      <trkpt lat="48.22425" lon="3.3498">
        <ele>203</ele>
        <time>2014-05-04T08:22:03.000Z</time>
      </trkpt>
      <trkpt lat="48.22423" lon="3.34974">
        <ele>203</ele>
        <time>2014-05-04T08:22:04.000Z</time>
      </trkpt>
      <trkpt lat="48.2242" lon="3.34965">
        <ele>203</ele>
        <time>2014-05-04T08:22:05.000Z</time>
      </trkpt>
      <trkpt lat="48.22418" lon="3.34959">
        <ele>203</ele>
        <time>2014-05-04T08:22:06.000Z</time>
      </trkpt>
      <trkpt lat="48.22415" lon="3.3495">
        <ele>200</ele>
        <time>2014-05-04T08:22:07.000Z</time>
      </trkpt>
      <trkpt lat="48.22412" lon="3.34944">
        <ele>200</ele>
        <time>2014-05-04T08:22:08.000Z</time>
      </trkpt>
      <trkpt lat="48.22409" lon="3.34937">
        <ele>200</ele>
        <time>2014-05-04T08:22:09.000Z</time>
      </trkpt>
      <trkpt lat="48.22406" lon="3.34931">
        <ele>200</ele>
        <time>2014-05-04T08:22:10.000Z</time>
      </trkpt>
      <trkpt lat="48.22403" lon="3.34922">
        <ele>200</ele>
        <time>2014-05-04T08:22:11.000Z</time>
      </trkpt>
      <trkpt lat="48.22399" lon="3.34916">
        <ele>202</ele>
        <time>2014-05-04T08:22:12.000Z</time>
      </trkpt>
      <trkpt lat="48.22396" lon="3.34909">
        <ele>202</ele>
        <time>2014-05-04T08:22:13.000Z</time>
      </trkpt>
      <trkpt lat="48.22393" lon="3.34903">
        <ele>202</ele>
        <time>2014-05-04T08:22:14.000Z</time>
      </trkpt>
      <trkpt lat="48.22389" lon="3.34896">
        <ele>202</ele>
        <time>2014-05-04T08:22:15.000Z</time>
      </trkpt>
      <trkpt lat="48.22385" lon="3.3489">
        <ele>202</ele>
        <time>2014-05-04T08:22:16.000Z</time>
      </trkpt>
      <trkpt lat="48.22382" lon="3.34883">
        <ele>202</ele>
        <time>2014-05-04T08:22:17.000Z</time>
      </trkpt>
      <trkpt lat="48.22378" lon="3.34877">
        <ele>202</ele>
        <time>2014-05-04T08:22:18.000Z</time>
      </trkpt>
      <trkpt lat="48.22375" lon="3.34871">
        <ele>202</ele>
        <time>2014-05-04T08:22:19.000Z</time>
      </trkpt>
      <trkpt lat="48.22371" lon="3.34864">
        <ele>202</ele>
        <time>2014-05-04T08:22:20.000Z</time>
      </trkpt>
      <trkpt lat="48.22368" lon="3.34858">
        <ele>202</ele>
        <time>2014-05-04T08:22:21.000Z</time>
      </trkpt>
      <trkpt lat="48.22366" lon="3.34851">
        <ele>202</ele>
        <time>2014-05-04T08:22:22.000Z</time>
      </trkpt>
      <trkpt lat="48.22363" lon="3.34847">
        <ele>202</ele>
        <time>2014-05-04T08:22:23.000Z</time>
      </trkpt>
      <trkpt lat="48.2236" lon="3.34841">
        <ele>202</ele>
        <time>2014-05-04T08:22:24.000Z</time>
      </trkpt>
      <trkpt lat="48.22356" lon="3.34836">
        <ele>202</ele>
        <time>2014-05-04T08:22:25.000Z</time>
      </trkpt>
      <trkpt lat="48.22353" lon="3.34832">
        <ele>204</ele>
        <time>2014-05-04T08:22:26.000Z</time>
      </trkpt>
      <trkpt lat="48.22351" lon="3.34826">
        <ele>204</ele>
        <time>2014-05-04T08:22:27.000Z</time>
      </trkpt>
      <trkpt lat="48.22348" lon="3.34821">
        <ele>204</ele>
        <time>2014-05-04T08:22:28.000Z</time>
      </trkpt>
      <trkpt lat="48.22345" lon="3.34817">
        <ele>204</ele>
        <time>2014-05-04T08:22:29.000Z</time>
      </trkpt>
      <trkpt lat="48.22343" lon="3.34813">
        <ele>204</ele>
        <time>2014-05-04T08:22:30.000Z</time>
      </trkpt>
      <trkpt lat="48.22339" lon="3.34808">
        <ele>204</ele>
        <time>2014-05-04T08:22:31.000Z</time>
      </trkpt>
      <trkpt lat="48.22336" lon="3.34802">
        <ele>205</ele>
        <time>2014-05-04T08:22:32.000Z</time>
      </trkpt>
      <trkpt lat="48.22334" lon="3.34798">
        <ele>205</ele>
        <time>2014-05-04T08:22:33.000Z</time>
      </trkpt>
      <trkpt lat="48.22331" lon="3.34793">
        <ele>203</ele>
        <time>2014-05-04T08:22:34.000Z</time>
      </trkpt>
      <trkpt lat="48.22327" lon="3.34789">
        <ele>203</ele>
        <time>2014-05-04T08:22:35.000Z</time>
      </trkpt>
      <trkpt lat="48.22324" lon="3.34785">
        <ele>203</ele>
        <time>2014-05-04T08:22:36.000Z</time>
      </trkpt>
      <trkpt lat="48.22321" lon="3.3478">
        <ele>203</ele>
        <time>2014-05-04T08:22:37.000Z</time>
      </trkpt>
      <trkpt lat="48.22318" lon="3.34774">
        <ele>203</ele>
        <time>2014-05-04T08:22:38.000Z</time>
      </trkpt>
      <trkpt lat="48.22315" lon="3.3477">
        <ele>203</ele>
        <time>2014-05-04T08:22:39.000Z</time>
      </trkpt>
      <trkpt lat="48.2231" lon="3.34765">
        <ele>203</ele>
        <time>2014-05-04T08:22:40.000Z</time>
      </trkpt>
      <trkpt lat="48.22307" lon="3.34761">
        <ele>203</ele>
        <time>2014-05-04T08:22:41.000Z</time>
      </trkpt>
      <trkpt lat="48.22304" lon="3.34757">
        <ele>203</ele>
        <time>2014-05-04T08:22:42.000Z</time>
      </trkpt>
      <trkpt lat="48.22299" lon="3.34755">
        <ele>203</ele>
        <time>2014-05-04T08:22:43.000Z</time>
      </trkpt>
      <trkpt lat="48.22293" lon="3.34753">
        <ele>203</ele>
        <time>2014-05-04T08:22:44.000Z</time>
      </trkpt>
      <trkpt lat="48.22288" lon="3.3475">
        <ele>202</ele>
        <time>2014-05-04T08:22:45.000Z</time>
      </trkpt>
      <trkpt lat="48.22282" lon="3.34748">
        <ele>202</ele>
        <time>2014-05-04T08:22:46.000Z</time>
      </trkpt>
      <trkpt lat="48.22277" lon="3.34748">
        <ele>202</ele>
        <time>2014-05-04T08:22:47.000Z</time>
      </trkpt>
      <trkpt lat="48.22272" lon="3.34746">
        <ele>202</ele>
        <time>2014-05-04T08:22:48.000Z</time>
      </trkpt>
      <trkpt lat="48.22266" lon="3.34744">
        <ele>201</ele>
        <time>2014-05-04T08:22:49.000Z</time>
      </trkpt>
      <trkpt lat="48.22262" lon="3.3474">
        <ele>201</ele>
        <time>2014-05-04T08:22:50.000Z</time>
      </trkpt>
      <trkpt lat="48.22258" lon="3.34738">
        <ele>201</ele>
        <time>2014-05-04T08:22:51.000Z</time>
      </trkpt>
      <trkpt lat="48.22253" lon="3.34733">
        <ele>201</ele>
        <time>2014-05-04T08:22:52.000Z</time>
      </trkpt>
      <trkpt lat="48.22249" lon="3.34729">
        <ele>199</ele>
        <time>2014-05-04T08:22:53.000Z</time>
      </trkpt>
      <trkpt lat="48.22244" lon="3.34725">
        <ele>199</ele>
        <time>2014-05-04T08:22:54.000Z</time>
      </trkpt>
      <trkpt lat="48.2224" lon="3.3472">
        <ele>198</ele>
        <time>2014-05-04T08:22:55.000Z</time>
      </trkpt>
      <trkpt lat="48.22234" lon="3.34714">
        <ele>198</ele>
        <time>2014-05-04T08:22:56.000Z</time>
      </trkpt>
      <trkpt lat="48.2223" lon="3.3471">
        <ele>198</ele>
        <time>2014-05-04T08:22:57.000Z</time>
      </trkpt>
      <trkpt lat="48.22224" lon="3.34703">
        <ele>198</ele>
        <time>2014-05-04T08:22:58.000Z</time>
      </trkpt>
      <trkpt lat="48.2222" lon="3.34697">
        <ele>197</ele>
        <time>2014-05-04T08:22:59.000Z</time>
      </trkpt>
      <trkpt lat="48.22215" lon="3.34692">
        <ele>197</ele>
        <time>2014-05-04T08:23:00.000Z</time>
      </trkpt>
      <trkpt lat="48.22209" lon="3.34686">
        <ele>197</ele>
        <time>2014-05-04T08:23:01.000Z</time>
      </trkpt>
      <trkpt lat="48.22205" lon="3.3468">
        <ele>197</ele>
        <time>2014-05-04T08:23:02.000Z</time>
      </trkpt>
      <trkpt lat="48.222" lon="3.34675">
        <ele>197</ele>
        <time>2014-05-04T08:23:03.000Z</time>
      </trkpt>
      <trkpt lat="48.22196" lon="3.34669">
        <ele>197</ele>
        <time>2014-05-04T08:23:04.000Z</time>
      </trkpt>
      <trkpt lat="48.2219" lon="3.34662">
        <ele>196</ele>
        <time>2014-05-04T08:23:05.000Z</time>
      </trkpt>
      <trkpt lat="48.22186" lon="3.34658">
        <ele>196</ele>
        <time>2014-05-04T08:23:06.000Z</time>
      </trkpt>
      <trkpt lat="48.22181" lon="3.34652">
        <ele>196</ele>
        <time>2014-05-04T08:23:07.000Z</time>
      </trkpt>
      <trkpt lat="48.22175" lon="3.34647">
        <ele>196</ele>
        <time>2014-05-04T08:23:08.000Z</time>
      </trkpt>
      <trkpt lat="48.22171" lon="3.34641">
        <ele>196</ele>
        <time>2014-05-04T08:23:09.000Z</time>
      </trkpt>
      <trkpt lat="48.22165" lon="3.34637">
        <ele>194</ele>
        <time>2014-05-04T08:23:10.000Z</time>
      </trkpt>
      <trkpt lat="48.2216" lon="3.34632">
        <ele>194</ele>
        <time>2014-05-04T08:23:11.000Z</time>
      </trkpt>
      <trkpt lat="48.22155" lon="3.34626">
        <ele>193</ele>
        <time>2014-05-04T08:23:12.000Z</time>
      </trkpt>
      <trkpt lat="48.22148" lon="3.3462">
        <ele>193</ele>
        <time>2014-05-04T08:23:13.000Z</time>
      </trkpt>
      <trkpt lat="48.22143" lon="3.34615">
        <ele>193</ele>
        <time>2014-05-04T08:23:14.000Z</time>
      </trkpt>
      <trkpt lat="48.22138" lon="3.34609">
        <ele>193</ele>
        <time>2014-05-04T08:23:15.000Z</time>
      </trkpt>
      <trkpt lat="48.22131" lon="3.34605">
        <ele>192</ele>
        <time>2014-05-04T08:23:16.000Z</time>
      </trkpt>
      <trkpt lat="48.22126" lon="3.34598">
        <ele>192</ele>
        <time>2014-05-04T08:23:17.000Z</time>
      </trkpt>
      <trkpt lat="48.22119" lon="3.34594">
        <ele>192</ele>
        <time>2014-05-04T08:23:18.000Z</time>
      </trkpt>
      <trkpt lat="48.22114" lon="3.34589">
        <ele>191</ele>
        <time>2014-05-04T08:23:19.000Z</time>
      </trkpt>
      <trkpt lat="48.22108" lon="3.34583">
        <ele>189</ele>
        <time>2014-05-04T08:23:20.000Z</time>
      </trkpt>
      <trkpt lat="48.22102" lon="3.34579">
        <ele>188</ele>
        <time>2014-05-04T08:23:21.000Z</time>
      </trkpt>
      <trkpt lat="48.22096" lon="3.34574">
        <ele>188</ele>
        <time>2014-05-04T08:23:22.000Z</time>
      </trkpt>
      <trkpt lat="48.22089" lon="3.34568">
        <ele>188</ele>
        <time>2014-05-04T08:23:23.000Z</time>
      </trkpt>
      <trkpt lat="48.22082" lon="3.34564">
        <ele>186</ele>
        <time>2014-05-04T08:23:24.000Z</time>
      </trkpt>
      <trkpt lat="48.22075" lon="3.34559">
        <ele>186</ele>
        <time>2014-05-04T08:23:25.000Z</time>
      </trkpt>
      <trkpt lat="48.22069" lon="3.34553">
        <ele>185</ele>
        <time>2014-05-04T08:23:26.000Z</time>
      </trkpt>
      <trkpt lat="48.22062" lon="3.34544">
        <ele>185</ele>
        <time>2014-05-04T08:23:27.000Z</time>
      </trkpt>
      <trkpt lat="48.22055" lon="3.34538">
        <ele>185</ele>
        <time>2014-05-04T08:23:28.000Z</time>
      </trkpt>
      <trkpt lat="48.22045" lon="3.34529">
        <ele>184</ele>
        <time>2014-05-04T08:23:29.000Z</time>
      </trkpt>
      <trkpt lat="48.22036" lon="3.34519">
        <ele>184</ele>
        <time>2014-05-04T08:23:30.000Z</time>
      </trkpt>
      <trkpt lat="48.22025" lon="3.34508">
        <ele>184</ele>
        <time>2014-05-04T08:23:31.000Z</time>
      </trkpt>
      <trkpt lat="48.22014" lon="3.34499">
        <ele>182</ele>
        <time>2014-05-04T08:23:32.000Z</time>
      </trkpt>
      <trkpt lat="48.22003" lon="3.34489">
        <ele>182</ele>
        <time>2014-05-04T08:23:33.000Z</time>
      </trkpt>
      <trkpt lat="48.21993" lon="3.3448">
        <ele>181</ele>
        <time>2014-05-04T08:23:34.000Z</time>
      </trkpt>
      <trkpt lat="48.21983" lon="3.34471">
        <ele>181</ele>
        <time>2014-05-04T08:23:35.000Z</time>
      </trkpt>
      <trkpt lat="48.21975" lon="3.34461">
        <ele>181</ele>
        <time>2014-05-04T08:23:36.000Z</time>
      </trkpt>
      <trkpt lat="48.21965" lon="3.34452">
        <ele>180</ele>
        <time>2014-05-04T08:23:37.000Z</time>
      </trkpt>
      <trkpt lat="48.21957" lon="3.34444">
        <ele>180</ele>
        <time>2014-05-04T08:23:38.000Z</time>
      </trkpt>
      <trkpt lat="48.21949" lon="3.34435">
        <ele>180</ele>
        <time>2014-05-04T08:23:39.000Z</time>
      </trkpt>
      <trkpt lat="48.21941" lon="3.34429">
        <ele>180</ele>
        <time>2014-05-04T08:23:40.000Z</time>
      </trkpt>
      <trkpt lat="48.21934" lon="3.3442">
        <ele>180</ele>
        <time>2014-05-04T08:23:41.000Z</time>
      </trkpt>
      <trkpt lat="48.21927" lon="3.34414">
        <ele>178</ele>
        <time>2014-05-04T08:23:42.000Z</time>
      </trkpt>
      <trkpt lat="48.2192" lon="3.34407">
        <ele>178</ele>
        <time>2014-05-04T08:23:43.000Z</time>
      </trkpt>
      <trkpt lat="48.21912" lon="3.34401">
        <ele>178</ele>
        <time>2014-05-04T08:23:44.000Z</time>
      </trkpt>
      <trkpt lat="48.21906" lon="3.34394">
        <ele>178</ele>
        <time>2014-05-04T08:23:45.000Z</time>
      </trkpt>
      <trkpt lat="48.21898" lon="3.34388">
        <ele>177</ele>
        <time>2014-05-04T08:23:46.000Z</time>
      </trkpt>
      <trkpt lat="48.21889" lon="3.34383">
        <ele>177</ele>
        <time>2014-05-04T08:23:47.000Z</time>
      </trkpt>
      <trkpt lat="48.21878" lon="3.34381">
        <ele>177</ele>
        <time>2014-05-04T08:23:48.000Z</time>
      </trkpt>
      <trkpt lat="48.21868" lon="3.34379">
        <ele>177</ele>
        <time>2014-05-04T08:23:49.000Z</time>
      </trkpt>
      <trkpt lat="48.21859" lon="3.34379">
        <ele>177</ele>
        <time>2014-05-04T08:23:50.000Z</time>
      </trkpt>
      <trkpt lat="48.21849" lon="3.34379">
        <ele>177</ele>
        <time>2014-05-04T08:23:51.000Z</time>
      </trkpt>
      <trkpt lat="48.21839" lon="3.34377">
        <ele>177</ele>
        <time>2014-05-04T08:23:52.000Z</time>
      </trkpt>
      <trkpt lat="48.21831" lon="3.34379">
        <ele>176</ele>
        <time>2014-05-04T08:23:53.000Z</time>
      </trkpt>
      <trkpt lat="48.21822" lon="3.34379">
        <ele>176</ele>
        <time>2014-05-04T08:23:54.000Z</time>
      </trkpt>
      <trkpt lat="48.21814" lon="3.34377">
        <ele>176</ele>
        <time>2014-05-04T08:23:55.000Z</time>
      </trkpt>
      <trkpt lat="48.21806" lon="3.34377">
        <ele>176</ele>
        <time>2014-05-04T08:23:56.000Z</time>
      </trkpt>
      <trkpt lat="48.21797" lon="3.34377">
        <ele>176</ele>
        <time>2014-05-04T08:23:57.000Z</time>
      </trkpt>
      <trkpt lat="48.2179" lon="3.34377">
        <ele>176</ele>
        <time>2014-05-04T08:23:58.000Z</time>
      </trkpt>
      <trkpt lat="48.21781" lon="3.34379">
        <ele>176</ele>
        <time>2014-05-04T08:23:59.000Z</time>
      </trkpt>
      <trkpt lat="48.21774" lon="3.34379">
        <ele>176</ele>
        <time>2014-05-04T08:24:00.000Z</time>
      </trkpt>
      <trkpt lat="48.21765" lon="3.34381">
        <ele>175</ele>
        <time>2014-05-04T08:24:01.000Z</time>
      </trkpt>
      <trkpt lat="48.21757" lon="3.34386">
        <ele>175</ele>
        <time>2014-05-04T08:24:02.000Z</time>
      </trkpt>
      <trkpt lat="48.21747" lon="3.34396">
        <ele>174</ele>
        <time>2014-05-04T08:24:03.000Z</time>
      </trkpt>
      <trkpt lat="48.21736" lon="3.34407">
        <ele>174</ele>
        <time>2014-05-04T08:24:04.000Z</time>
      </trkpt>
      <trkpt lat="48.21726" lon="3.34418">
        <ele>172</ele>
        <time>2014-05-04T08:24:05.000Z</time>
      </trkpt>
      <trkpt lat="48.21715" lon="3.34433">
        <ele>171</ele>
        <time>2014-05-04T08:24:06.000Z</time>
      </trkpt>
      <trkpt lat="48.21704" lon="3.34446">
        <ele>171</ele>
        <time>2014-05-04T08:24:07.000Z</time>
      </trkpt>
      <trkpt lat="48.21693" lon="3.34459">
        <ele>170</ele>
        <time>2014-05-04T08:24:08.000Z</time>
      </trkpt>
      <trkpt lat="48.21683" lon="3.34471">
        <ele>169</ele>
        <time>2014-05-04T08:24:09.000Z</time>
      </trkpt>
      <trkpt lat="48.21673" lon="3.34482">
        <ele>168</ele>
        <time>2014-05-04T08:24:10.000Z</time>
      </trkpt>
      <trkpt lat="48.21663" lon="3.34493">
        <ele>165</ele>
        <time>2014-05-04T08:24:11.000Z</time>
      </trkpt>
      <trkpt lat="48.21654" lon="3.34504">
        <ele>162</ele>
        <time>2014-05-04T08:24:12.000Z</time>
      </trkpt>
      <trkpt lat="48.21645" lon="3.34512">
        <ele>160</ele>
        <time>2014-05-04T08:24:13.000Z</time>
      </trkpt>
      <trkpt lat="48.21635" lon="3.34519">
        <ele>158</ele>
        <time>2014-05-04T08:24:14.000Z</time>
      </trkpt>
      <trkpt lat="48.21628" lon="3.34525">
        <ele>158</ele>
        <time>2014-05-04T08:24:15.000Z</time>
      </trkpt>
      <trkpt lat="48.2162" lon="3.34532">
        <ele>157</ele>
        <time>2014-05-04T08:24:16.000Z</time>
      </trkpt>
      <trkpt lat="48.21613" lon="3.34536">
        <ele>156</ele>
        <time>2014-05-04T08:24:17.000Z</time>
      </trkpt>
      <trkpt lat="48.21608" lon="3.3454">
        <ele>156</ele>
        <time>2014-05-04T08:24:18.000Z</time>
      </trkpt>
      <trkpt lat="48.21602" lon="3.34544">
        <ele>155</ele>
        <time>2014-05-04T08:24:19.000Z</time>
      </trkpt>
      <trkpt lat="48.21598" lon="3.34547">
        <ele>155</ele>
        <time>2014-05-04T08:24:20.000Z</time>
      </trkpt>
      <trkpt lat="48.21596" lon="3.34549">
        <ele>155</ele>
        <time>2014-05-04T08:24:28.000Z</time>
      </trkpt>
      <trkpt lat="48.21605" lon="3.34544">
        <ele>156</ele>
        <time>2014-05-04T08:24:29.000Z</time>
      </trkpt>
      <trkpt lat="48.21605" lon="3.34544">
        <ele>156</ele>
        <time>2014-05-04T08:24:43.000Z</time>
      </trkpt>
      <trkpt lat="48.216" lon="3.3454">
        <ele>156</ele>
        <time>2014-05-04T08:24:44.000Z</time>
      </trkpt>
      <trkpt lat="48.21597" lon="3.34542">
        <ele>155</ele>
        <time>2014-05-04T08:24:45.000Z</time>
      </trkpt>
      <trkpt lat="48.21593" lon="3.34544">
        <ele>155</ele>
        <time>2014-05-04T08:24:46.000Z</time>
      </trkpt>
      <trkpt lat="48.21588" lon="3.34547">
        <ele>155</ele>
        <time>2014-05-04T08:24:47.000Z</time>
      </trkpt>
      <trkpt lat="48.21583" lon="3.34549">
        <ele>148</ele>
        <time>2014-05-04T08:24:48.000Z</time>
      </trkpt>
      <trkpt lat="48.21579" lon="3.34551">
        <ele>148</ele>
        <time>2014-05-04T08:24:49.000Z</time>
      </trkpt>
      <trkpt lat="48.21574" lon="3.34553">
        <ele>148</ele>
        <time>2014-05-04T08:24:50.000Z</time>
      </trkpt>
      <trkpt lat="48.21567" lon="3.34553">
        <ele>147</ele>
        <time>2014-05-04T08:24:51.000Z</time>
      </trkpt>
      <trkpt lat="48.2156" lon="3.34553">
        <ele>147</ele>
        <time>2014-05-04T08:24:52.000Z</time>
      </trkpt>
      <trkpt lat="48.21553" lon="3.34551">
        <ele>147</ele>
        <time>2014-05-04T08:24:53.000Z</time>
      </trkpt>
      <trkpt lat="48.21545" lon="3.34551">
        <ele>146</ele>
        <time>2014-05-04T08:24:54.000Z</time>
      </trkpt>
      <trkpt lat="48.21539" lon="3.34549">
        <ele>146</ele>
        <time>2014-05-04T08:24:55.000Z</time>
      </trkpt>
      <trkpt lat="48.2153" lon="3.34547">
        <ele>145</ele>
        <time>2014-05-04T08:24:56.000Z</time>
      </trkpt>
      <trkpt lat="48.21522" lon="3.34542">
        <ele>145</ele>
        <time>2014-05-04T08:24:57.000Z</time>
      </trkpt>
      <trkpt lat="48.21513" lon="3.34538">
        <ele>144</ele>
        <time>2014-05-04T08:24:58.000Z</time>
      </trkpt>
      <trkpt lat="48.21506" lon="3.34538">
        <ele>144</ele>
        <time>2014-05-04T08:24:59.000Z</time>
      </trkpt>
      <trkpt lat="48.21497" lon="3.34538">
        <ele>137</ele>
        <time>2014-05-04T08:25:00.000Z</time>
      </trkpt>
      <trkpt lat="48.21487" lon="3.34542">
        <ele>137</ele>
        <time>2014-05-04T08:25:01.000Z</time>
      </trkpt>
      <trkpt lat="48.21479" lon="3.34544">
        <ele>136</ele>
        <time>2014-05-04T08:25:02.000Z</time>
      </trkpt>
      <trkpt lat="48.21469" lon="3.34549">
        <ele>136</ele>
        <time>2014-05-04T08:25:03.000Z</time>
      </trkpt>
      <trkpt lat="48.21454" lon="3.34562">
        <ele>134</ele>
        <time>2014-05-04T08:25:04.000Z</time>
      </trkpt>
      <trkpt lat="48.21437" lon="3.34579">
        <ele>132</ele>
        <time>2014-05-04T08:25:05.000Z</time>
      </trkpt>
      <trkpt lat="48.21421" lon="3.34594">
        <ele>130</ele>
        <time>2014-05-04T08:25:06.000Z</time>
      </trkpt>
      <trkpt lat="48.21407" lon="3.34605">
        <ele>125</ele>
        <time>2014-05-04T08:25:07.000Z</time>
      </trkpt>
      <trkpt lat="48.21394" lon="3.34613">
        <ele>124</ele>
        <time>2014-05-04T08:25:08.000Z</time>
      </trkpt>
      <trkpt lat="48.21382" lon="3.34622">
        <ele>123</ele>
        <time>2014-05-04T08:25:09.000Z</time>
      </trkpt>
      <trkpt lat="48.21372" lon="3.34628">
        <ele>122</ele>
        <time>2014-05-04T08:25:10.000Z</time>
      </trkpt>
      <trkpt lat="48.21363" lon="3.34632">
        <ele>122</ele>
        <time>2014-05-04T08:25:11.000Z</time>
      </trkpt>
      <trkpt lat="48.21357" lon="3.34637">
        <ele>121</ele>
        <time>2014-05-04T08:25:12.000Z</time>
      </trkpt>
      <trkpt lat="48.2135" lon="3.34641">
        <ele>121</ele>
        <time>2014-05-04T08:25:13.000Z</time>
      </trkpt>
      <trkpt lat="48.21348" lon="3.34652">
        <ele>120</ele>
        <time>2014-05-04T08:25:14.000Z</time>
      </trkpt>
      <trkpt lat="48.21345" lon="3.3466">
        <ele>119</ele>
        <time>2014-05-04T08:25:15.000Z</time>
      </trkpt>
      <trkpt lat="48.21344" lon="3.34671">
        <ele>118</ele>
        <time>2014-05-04T08:25:16.000Z</time>
      </trkpt>
      <trkpt lat="48.21343" lon="3.34684">
        <ele>118</ele>
        <time>2014-05-04T08:25:17.000Z</time>
      </trkpt>
      <trkpt lat="48.21342" lon="3.34695">
        <ele>118</ele>
        <time>2014-05-04T08:25:18.000Z</time>
      </trkpt>
      <trkpt lat="48.2134" lon="3.34705">
        <ele>118</ele>
        <time>2014-05-04T08:25:19.000Z</time>
      </trkpt>
      <trkpt lat="48.21338" lon="3.34716">
        <ele>118</ele>
        <time>2014-05-04T08:25:20.000Z</time>
      </trkpt>
      <trkpt lat="48.21335" lon="3.34727">
        <ele>117</ele>
        <time>2014-05-04T08:25:21.000Z</time>
      </trkpt>
      <trkpt lat="48.21334" lon="3.3474">
        <ele>116</ele>
        <time>2014-05-04T08:25:22.000Z</time>
      </trkpt>
      <trkpt lat="48.21332" lon="3.3475">
        <ele>114</ele>
        <time>2014-05-04T08:25:23.000Z</time>
      </trkpt>
      <trkpt lat="48.21331" lon="3.34763">
        <ele>111</ele>
        <time>2014-05-04T08:25:24.000Z</time>
      </trkpt>
      <trkpt lat="48.2133" lon="3.34774">
        <ele>110</ele>
        <time>2014-05-04T08:25:25.000Z</time>
      </trkpt>
      <trkpt lat="48.21329" lon="3.3478">
        <ele>110</ele>
        <time>2014-05-04T08:25:26.000Z</time>
      </trkpt>
      <trkpt lat="48.21329" lon="3.34785">
        <ele>109</ele>
        <time>2014-05-04T08:25:27.000Z</time>
      </trkpt>
      <trkpt lat="48.21328" lon="3.34791">
        <ele>109</ele>
        <time>2014-05-04T08:25:29.000Z</time>
      </trkpt>
      <trkpt lat="48.21328" lon="3.34793">
        <ele>109</ele>
        <time>2014-05-04T08:25:30.000Z</time>
      </trkpt>
      <trkpt lat="48.21326" lon="3.34795">
        <ele>109</ele>
        <time>2014-05-04T08:26:01.000Z</time>
      </trkpt>
      <trkpt lat="48.21321" lon="3.34808">
        <ele>109</ele>
        <time>2014-05-04T08:26:02.000Z</time>
      </trkpt>
      <trkpt lat="48.21321" lon="3.34808">
        <ele>109</ele>
        <time>2014-05-04T08:26:07.000Z</time>
      </trkpt>
      <trkpt lat="48.21311" lon="3.34817">
        <ele>108</ele>
        <time>2014-05-04T08:26:08.000Z</time>
      </trkpt>
      <trkpt lat="48.21311" lon="3.34817">
        <ele>108</ele>
        <time>2014-05-04T08:26:11.000Z</time>
      </trkpt>
      <trkpt lat="48.21307" lon="3.3483">
        <ele>108</ele>
        <time>2014-05-04T08:26:12.000Z</time>
      </trkpt>
      <trkpt lat="48.21308" lon="3.34834">
        <ele>107</ele>
        <time>2014-05-04T08:26:13.000Z</time>
      </trkpt>
      <trkpt lat="48.21308" lon="3.34838">
        <ele>107</ele>
        <time>2014-05-04T08:26:14.000Z</time>
      </trkpt>
      <trkpt lat="48.21308" lon="3.34845">
        <ele>107</ele>
        <time>2014-05-04T08:26:15.000Z</time>
      </trkpt>
      <trkpt lat="48.21309" lon="3.34849">
        <ele>107</ele>
        <time>2014-05-04T08:26:16.000Z</time>
      </trkpt>
      <trkpt lat="48.2131" lon="3.34856">
        <ele>107</ele>
        <time>2014-05-04T08:26:17.000Z</time>
      </trkpt>
      <trkpt lat="48.21311" lon="3.34862">
        <ele>107</ele>
        <time>2014-05-04T08:26:18.000Z</time>
      </trkpt>
      <trkpt lat="48.21313" lon="3.34871">
        <ele>106</ele>
        <time>2014-05-04T08:26:19.000Z</time>
      </trkpt>
      <trkpt lat="48.21314" lon="3.34877">
        <ele>106</ele>
        <time>2014-05-04T08:26:20.000Z</time>
      </trkpt>
      <trkpt lat="48.21316" lon="3.34883">
        <ele>107</ele>
        <time>2014-05-04T08:26:21.000Z</time>
      </trkpt>
      <trkpt lat="48.21317" lon="3.34892">
        <ele>107</ele>
        <time>2014-05-04T08:26:22.000Z</time>
      </trkpt>
      <trkpt lat="48.21319" lon="3.34898">
        <ele>107</ele>
        <time>2014-05-04T08:26:23.000Z</time>
      </trkpt>
      <trkpt lat="48.21322" lon="3.34907">
        <ele>107</ele>
        <time>2014-05-04T08:26:24.000Z</time>
      </trkpt>
      <trkpt lat="48.21324" lon="3.34913">
        <ele>108</ele>
        <time>2014-05-04T08:26:25.000Z</time>
      </trkpt>
      <trkpt lat="48.21328" lon="3.34922">
        <ele>108</ele>
        <time>2014-05-04T08:26:26.000Z</time>
      </trkpt>
      <trkpt lat="48.2133" lon="3.34931">
        <ele>107</ele>
        <time>2014-05-04T08:26:27.000Z</time>
      </trkpt>
      <trkpt lat="48.21333" lon="3.34939">
        <ele>106</ele>
        <time>2014-05-04T08:26:28.000Z</time>
      </trkpt>
      <trkpt lat="48.21336" lon="3.34948">
        <ele>109</ele>
        <time>2014-05-04T08:26:29.000Z</time>
      </trkpt>
      <trkpt lat="48.21339" lon="3.34956">
        <ele>109</ele>
        <time>2014-05-04T08:26:30.000Z</time>
      </trkpt>
      <trkpt lat="48.21342" lon="3.34965">
        <ele>109</ele>
        <time>2014-05-04T08:26:31.000Z</time>
      </trkpt>
      <trkpt lat="48.21345" lon="3.34974">
        <ele>109</ele>
        <time>2014-05-04T08:26:32.000Z</time>
      </trkpt>
      <trkpt lat="48.21348" lon="3.34982">
        <ele>109</ele>
        <time>2014-05-04T08:26:33.000Z</time>
      </trkpt>
      <trkpt lat="48.21351" lon="3.34991">
        <ele>108</ele>
        <time>2014-05-04T08:26:34.000Z</time>
      </trkpt>
      <trkpt lat="48.21354" lon="3.34999">
        <ele>109</ele>
        <time>2014-05-04T08:26:35.000Z</time>
      </trkpt>
      <trkpt lat="48.21357" lon="3.35008">
        <ele>107</ele>
        <time>2014-05-04T08:26:36.000Z</time>
      </trkpt>
      <trkpt lat="48.21359" lon="3.35016">
        <ele>107</ele>
        <time>2014-05-04T08:26:37.000Z</time>
      </trkpt>
      <trkpt lat="48.21362" lon="3.35025">
        <ele>107</ele>
        <time>2014-05-04T08:26:38.000Z</time>
      </trkpt>
      <trkpt lat="48.21364" lon="3.35036">
        <ele>107</ele>
        <time>2014-05-04T08:26:39.000Z</time>
      </trkpt>
      <trkpt lat="48.21365" lon="3.35044">
        <ele>107</ele>
        <time>2014-05-04T08:26:40.000Z</time>
      </trkpt>
      <trkpt lat="48.21367" lon="3.35053">
        <ele>107</ele>
        <time>2014-05-04T08:26:41.000Z</time>
      </trkpt>
      <trkpt lat="48.21368" lon="3.35064">
        <ele>107</ele>
        <time>2014-05-04T08:26:42.000Z</time>
      </trkpt>
      <trkpt lat="48.2137" lon="3.35072">
        <ele>107</ele>
        <time>2014-05-04T08:26:43.000Z</time>
      </trkpt>
      <trkpt lat="48.21373" lon="3.35081">
        <ele>107</ele>
        <time>2014-05-04T08:26:44.000Z</time>
      </trkpt>
      <trkpt lat="48.21375" lon="3.35089">
        <ele>106</ele>
        <time>2014-05-04T08:26:45.000Z</time>
      </trkpt>
      <trkpt lat="48.21376" lon="3.35098">
        <ele>105</ele>
        <time>2014-05-04T08:26:46.000Z</time>
      </trkpt>
      <trkpt lat="48.21378" lon="3.35107">
        <ele>105</ele>
        <time>2014-05-04T08:26:47.000Z</time>
      </trkpt>
      <trkpt lat="48.2138" lon="3.35115">
        <ele>105</ele>
        <time>2014-05-04T08:26:48.000Z</time>
      </trkpt>
      <trkpt lat="48.21381" lon="3.35122">
        <ele>105</ele>
        <time>2014-05-04T08:26:49.000Z</time>
      </trkpt>
      <trkpt lat="48.21383" lon="3.3513">
        <ele>105</ele>
        <time>2014-05-04T08:26:50.000Z</time>
      </trkpt>
      <trkpt lat="48.21386" lon="3.35139">
        <ele>105</ele>
        <time>2014-05-04T08:26:51.000Z</time>
      </trkpt>
      <trkpt lat="48.21387" lon="3.35147">
        <ele>105</ele>
        <time>2014-05-04T08:26:52.000Z</time>
      </trkpt>
      <trkpt lat="48.21389" lon="3.35156">
        <ele>106</ele>
        <time>2014-05-04T08:26:53.000Z</time>
      </trkpt>
      <trkpt lat="48.2139" lon="3.35165">
        <ele>106</ele>
        <time>2014-05-04T08:26:54.000Z</time>
      </trkpt>
      <trkpt lat="48.21392" lon="3.35173">
        <ele>105</ele>
        <time>2014-05-04T08:26:55.000Z</time>
      </trkpt>
      <trkpt lat="48.21394" lon="3.35182">
        <ele>105</ele>
        <time>2014-05-04T08:26:56.000Z</time>
      </trkpt>
      <trkpt lat="48.21395" lon="3.3519">
        <ele>105</ele>
        <time>2014-05-04T08:26:57.000Z</time>
      </trkpt>
      <trkpt lat="48.21397" lon="3.35201">
        <ele>105</ele>
        <time>2014-05-04T08:26:58.000Z</time>
      </trkpt>
      <trkpt lat="48.21399" lon="3.3521">
        <ele>105</ele>
        <time>2014-05-04T08:26:59.000Z</time>
      </trkpt>
      <trkpt lat="48.21402" lon="3.35216">
        <ele>104</ele>
        <time>2014-05-04T08:27:00.000Z</time>
      </trkpt>
      <trkpt lat="48.21404" lon="3.35225">
        <ele>104</ele>
        <time>2014-05-04T08:27:01.000Z</time>
      </trkpt>
      <trkpt lat="48.21405" lon="3.35231">
        <ele>105</ele>
        <time>2014-05-04T08:27:02.000Z</time>
      </trkpt>
      <trkpt lat="48.21407" lon="3.35238">
        <ele>105</ele>
        <time>2014-05-04T08:27:03.000Z</time>
      </trkpt>
      <trkpt lat="48.21409" lon="3.35242">
        <ele>105</ele>
        <time>2014-05-04T08:27:04.000Z</time>
      </trkpt>
      <trkpt lat="48.21406" lon="3.35246">
        <ele>105</ele>
        <time>2014-05-04T08:27:05.000Z</time>
      </trkpt>
      <trkpt lat="48.21403" lon="3.3525">
        <ele>104</ele>
        <time>2014-05-04T08:27:06.000Z</time>
      </trkpt>
      <trkpt lat="48.21399" lon="3.35253">
        <ele>104</ele>
        <time>2014-05-04T08:27:07.000Z</time>
      </trkpt>
      <trkpt lat="48.21394" lon="3.35255">
        <ele>104</ele>
        <time>2014-05-04T08:27:08.000Z</time>
      </trkpt>
      <trkpt lat="48.2139" lon="3.35255">
        <ele>104</ele>
        <time>2014-05-04T08:27:09.000Z</time>
      </trkpt>
      <trkpt lat="48.21384" lon="3.35257">
        <ele>104</ele>
        <time>2014-05-04T08:27:10.000Z</time>
      </trkpt>
      <trkpt lat="48.21378" lon="3.35259">
        <ele>104</ele>
        <time>2014-05-04T08:27:11.000Z</time>
      </trkpt>
      <trkpt lat="48.21373" lon="3.35259">
        <ele>103</ele>
        <time>2014-05-04T08:27:12.000Z</time>
      </trkpt>
      <trkpt lat="48.21366" lon="3.35261">
        <ele>103</ele>
        <time>2014-05-04T08:27:13.000Z</time>
      </trkpt>
      <trkpt lat="48.21361" lon="3.35263">
        <ele>103</ele>
        <time>2014-05-04T08:27:14.000Z</time>
      </trkpt>
      <trkpt lat="48.21355" lon="3.35265">
        <ele>103</ele>
        <time>2014-05-04T08:27:15.000Z</time>
      </trkpt>
      <trkpt lat="48.21349" lon="3.35268">
        <ele>103</ele>
        <time>2014-05-04T08:27:16.000Z</time>
      </trkpt>
      <trkpt lat="48.21344" lon="3.3527">
        <ele>103</ele>
        <time>2014-05-04T08:27:17.000Z</time>
      </trkpt>
      <trkpt lat="48.21338" lon="3.35272">
        <ele>103</ele>
        <time>2014-05-04T08:27:18.000Z</time>
      </trkpt>
      <trkpt lat="48.21333" lon="3.35274">
        <ele>102</ele>
        <time>2014-05-04T08:27:19.000Z</time>
      </trkpt>
      <trkpt lat="48.21328" lon="3.35276">
        <ele>102</ele>
        <time>2014-05-04T08:27:20.000Z</time>
      </trkpt>
      <trkpt lat="48.21322" lon="3.35278">
        <ele>102</ele>
        <time>2014-05-04T08:27:21.000Z</time>
      </trkpt>
      <trkpt lat="48.21317" lon="3.3528">
        <ele>102</ele>
        <time>2014-05-04T08:27:22.000Z</time>
      </trkpt>
      <trkpt lat="48.21311" lon="3.35283">
        <ele>102</ele>
        <time>2014-05-04T08:27:23.000Z</time>
      </trkpt>
      <trkpt lat="48.21306" lon="3.35285">
        <ele>102</ele>
        <time>2014-05-04T08:27:24.000Z</time>
      </trkpt>
      <trkpt lat="48.21301" lon="3.35287">
        <ele>102</ele>
        <time>2014-05-04T08:27:25.000Z</time>
      </trkpt>
      <trkpt lat="48.21294" lon="3.35289">
        <ele>102</ele>
        <time>2014-05-04T08:27:26.000Z</time>
      </trkpt>
      <trkpt lat="48.21289" lon="3.35291">
        <ele>102</ele>
        <time>2014-05-04T08:27:27.000Z</time>
      </trkpt>
      <trkpt lat="48.21284" lon="3.35293">
        <ele>102</ele>
        <time>2014-05-04T08:27:28.000Z</time>
      </trkpt>
      <trkpt lat="48.21277" lon="3.35295">
        <ele>102</ele>
        <time>2014-05-04T08:27:29.000Z</time>
      </trkpt>
      <trkpt lat="48.21272" lon="3.35298">
        <ele>102</ele>
        <time>2014-05-04T08:27:30.000Z</time>
      </trkpt>
      <trkpt lat="48.21266" lon="3.35298">
        <ele>102</ele>
        <time>2014-05-04T08:27:31.000Z</time>
      </trkpt>
      <trkpt lat="48.21261" lon="3.353">
        <ele>102</ele>
        <time>2014-05-04T08:27:32.000Z</time>
      </trkpt>
      <trkpt lat="48.21256" lon="3.35302">
        <ele>102</ele>
        <time>2014-05-04T08:27:33.000Z</time>
      </trkpt>
      <trkpt lat="48.2125" lon="3.35304">
        <ele>102</ele>
        <time>2014-05-04T08:27:34.000Z</time>
      </trkpt>
      <trkpt lat="48.21245" lon="3.35306">
        <ele>102</ele>
        <time>2014-05-04T08:27:35.000Z</time>
      </trkpt>
      <trkpt lat="48.2124" lon="3.35308">
        <ele>102</ele>
        <time>2014-05-04T08:27:36.000Z</time>
      </trkpt>
      <trkpt lat="48.21234" lon="3.3531">
        <ele>102</ele>
        <time>2014-05-04T08:27:37.000Z</time>
      </trkpt>
      <trkpt lat="48.21229" lon="3.35313">
        <ele>102</ele>
        <time>2014-05-04T08:27:38.000Z</time>
      </trkpt>
      <trkpt lat="48.21223" lon="3.35315">
        <ele>102</ele>
        <time>2014-05-04T08:27:39.000Z</time>
      </trkpt>
      <trkpt lat="48.21219" lon="3.35317">
        <ele>102</ele>
        <time>2014-05-04T08:27:40.000Z</time>
      </trkpt>
      <trkpt lat="48.21214" lon="3.35317">
        <ele>102</ele>
        <time>2014-05-04T08:27:41.000Z</time>
      </trkpt>
      <trkpt lat="48.2121" lon="3.35319">
        <ele>102</ele>
        <time>2014-05-04T08:27:42.000Z</time>
      </trkpt>
      <trkpt lat="48.21204" lon="3.35323">
        <ele>102</ele>
        <time>2014-05-04T08:27:43.000Z</time>
      </trkpt>
      <trkpt lat="48.212" lon="3.35325">
        <ele>102</ele>
        <time>2014-05-04T08:27:44.000Z</time>
      </trkpt>
      <trkpt lat="48.21196" lon="3.35328">
        <ele>102</ele>
        <time>2014-05-04T08:27:45.000Z</time>
      </trkpt>
      <trkpt lat="48.21191" lon="3.35332">
        <ele>102</ele>
        <time>2014-05-04T08:27:46.000Z</time>
      </trkpt>
      <trkpt lat="48.21186" lon="3.35334">
        <ele>103</ele>
        <time>2014-05-04T08:27:47.000Z</time>
      </trkpt>
      <trkpt lat="48.21182" lon="3.35336">
        <ele>103</ele>
        <time>2014-05-04T08:27:48.000Z</time>
      </trkpt>
      <trkpt lat="48.21177" lon="3.3534">
        <ele>103</ele>
        <time>2014-05-04T08:27:49.000Z</time>
      </trkpt>
      <trkpt lat="48.21172" lon="3.35343">
        <ele>103</ele>
        <time>2014-05-04T08:27:50.000Z</time>
      </trkpt>
      <trkpt lat="48.21168" lon="3.35345">
        <ele>103</ele>
        <time>2014-05-04T08:27:51.000Z</time>
      </trkpt>
      <trkpt lat="48.21163" lon="3.35347">
        <ele>104</ele>
        <time>2014-05-04T08:27:52.000Z</time>
      </trkpt>
      <trkpt lat="48.21159" lon="3.35349">
        <ele>104</ele>
        <time>2014-05-04T08:27:53.000Z</time>
      </trkpt>
      <trkpt lat="48.21155" lon="3.35351">
        <ele>104</ele>
        <time>2014-05-04T08:27:54.000Z</time>
      </trkpt>
      <trkpt lat="48.21151" lon="3.35353">
        <ele>104</ele>
        <time>2014-05-04T08:27:55.000Z</time>
      </trkpt>
      <trkpt lat="48.21147" lon="3.35358">
        <ele>104</ele>
        <time>2014-05-04T08:27:56.000Z</time>
      </trkpt>
      <trkpt lat="48.21144" lon="3.3536">
        <ele>104</ele>
        <time>2014-05-04T08:27:57.000Z</time>
      </trkpt>
      <trkpt lat="48.21141" lon="3.35364">
        <ele>104</ele>
        <time>2014-05-04T08:27:58.000Z</time>
      </trkpt>
      <trkpt lat="48.21139" lon="3.35366">
        <ele>104</ele>
        <time>2014-05-04T08:27:59.000Z</time>
      </trkpt>
      <trkpt lat="48.21136" lon="3.35371">
        <ele>105</ele>
        <time>2014-05-04T08:28:04.000Z</time>
      </trkpt>
      <trkpt lat="48.21132" lon="3.35377">
        <ele>105</ele>
        <time>2014-05-04T08:28:05.000Z</time>
      </trkpt>
      <trkpt lat="48.21132" lon="3.35377">
        <ele>105</ele>
        <time>2014-05-04T08:28:06.000Z</time>
      </trkpt>
      <trkpt lat="48.21132" lon="3.35386">
        <ele>105</ele>
        <time>2014-05-04T08:28:07.000Z</time>
      </trkpt>
      <trkpt lat="48.21133" lon="3.3539">
        <ele>105</ele>
        <time>2014-05-04T08:28:08.000Z</time>
      </trkpt>
      <trkpt lat="48.21134" lon="3.35396">
        <ele>105</ele>
        <time>2014-05-04T08:28:09.000Z</time>
      </trkpt>
      <trkpt lat="48.21137" lon="3.35403">
        <ele>105</ele>
        <time>2014-05-04T08:28:10.000Z</time>
      </trkpt>
      <trkpt lat="48.21138" lon="3.35407">
        <ele>105</ele>
        <time>2014-05-04T08:28:11.000Z</time>
      </trkpt>
      <trkpt lat="48.21139" lon="3.35413">
        <ele>105</ele>
        <time>2014-05-04T08:28:12.000Z</time>
      </trkpt>
      <trkpt lat="48.21141" lon="3.3542">
        <ele>106</ele>
        <time>2014-05-04T08:28:13.000Z</time>
      </trkpt>
      <trkpt lat="48.21142" lon="3.35424">
        <ele>106</ele>
        <time>2014-05-04T08:28:14.000Z</time>
      </trkpt>
      <trkpt lat="48.21143" lon="3.35431">
        <ele>106</ele>
        <time>2014-05-04T08:28:15.000Z</time>
      </trkpt>
      <trkpt lat="48.21144" lon="3.35435">
        <ele>106</ele>
        <time>2014-05-04T08:28:16.000Z</time>
      </trkpt>
      <trkpt lat="48.21145" lon="3.35441">
        <ele>106</ele>
        <time>2014-05-04T08:28:17.000Z</time>
      </trkpt>
      <trkpt lat="48.21145" lon="3.35446">
        <ele>106</ele>
        <time>2014-05-04T08:28:18.000Z</time>
      </trkpt>
      <trkpt lat="48.21146" lon="3.35452">
        <ele>106</ele>
        <time>2014-05-04T08:28:19.000Z</time>
      </trkpt>
      <trkpt lat="48.21146" lon="3.35459">
        <ele>107</ele>
        <time>2014-05-04T08:28:20.000Z</time>
      </trkpt>
      <trkpt lat="48.21145" lon="3.35463">
        <ele>107</ele>
        <time>2014-05-04T08:28:21.000Z</time>
      </trkpt>
      <trkpt lat="48.21144" lon="3.35467">
        <ele>107</ele>
        <time>2014-05-04T08:28:22.000Z</time>
      </trkpt>
      <trkpt lat="48.21142" lon="3.35471">
        <ele>107</ele>
        <time>2014-05-04T08:28:23.000Z</time>
      </trkpt>
      <trkpt lat="48.21141" lon="3.35476">
        <ele>107</ele>
        <time>2014-05-04T08:28:24.000Z</time>
      </trkpt>
      <trkpt lat="48.21138" lon="3.3548">
        <ele>107</ele>
        <time>2014-05-04T08:28:25.000Z</time>
      </trkpt>
      <trkpt lat="48.21136" lon="3.35482">
        <ele>107</ele>
        <time>2014-05-04T08:28:26.000Z</time>
      </trkpt>
      <trkpt lat="48.21133" lon="3.35486">
        <ele>107</ele>
        <time>2014-05-04T08:28:27.000Z</time>
      </trkpt>
      <trkpt lat="48.21131" lon="3.35489">
        <ele>107</ele>
        <time>2014-05-04T08:28:28.000Z</time>
      </trkpt>
      <trkpt lat="48.21129" lon="3.35491">
        <ele>107</ele>
        <time>2014-05-04T08:28:29.000Z</time>
      </trkpt>
      <trkpt lat="48.21125" lon="3.35493">
        <ele>108</ele>
        <time>2014-05-04T08:28:31.000Z</time>
      </trkpt>
      <trkpt lat="48.21122" lon="3.35493">
        <ele>108</ele>
        <time>2014-05-04T08:28:32.000Z</time>
      </trkpt>
      <trkpt lat="48.21118" lon="3.35491">
        <ele>108</ele>
        <time>2014-05-04T08:28:33.000Z</time>
      </trkpt>
      <trkpt lat="48.21115" lon="3.35491">
        <ele>108</ele>
        <time>2014-05-04T08:28:34.000Z</time>
      </trkpt>
      <trkpt lat="48.21113" lon="3.35491">
        <ele>108</ele>
        <time>2014-05-04T08:28:35.000Z</time>
      </trkpt>
      <trkpt lat="48.2111" lon="3.35491">
        <ele>108</ele>
        <time>2014-05-04T08:28:36.000Z</time>
      </trkpt>
      <trkpt lat="48.21107" lon="3.35493">
        <ele>108</ele>
        <time>2014-05-04T08:28:37.000Z</time>
      </trkpt>
      <trkpt lat="48.21103" lon="3.35493">
        <ele>109</ele>
        <time>2014-05-04T08:28:38.000Z</time>
      </trkpt>
      <trkpt lat="48.211" lon="3.35495">
        <ele>109</ele>
        <time>2014-05-04T08:28:39.000Z</time>
      </trkpt>
      <trkpt lat="48.21097" lon="3.35495">
        <ele>109</ele>
        <time>2014-05-04T08:28:40.000Z</time>
      </trkpt>
      <trkpt lat="48.21094" lon="3.35497">
        <ele>110</ele>
        <time>2014-05-04T08:28:41.000Z</time>
      </trkpt>
      <trkpt lat="48.2109" lon="3.35497">
        <ele>110</ele>
        <time>2014-05-04T08:28:42.000Z</time>
      </trkpt>
      <trkpt lat="48.21087" lon="3.35499">
        <ele>110</ele>
        <time>2014-05-04T08:28:43.000Z</time>
      </trkpt>
      <trkpt lat="48.21084" lon="3.35499">
        <ele>111</ele>
        <time>2014-05-04T08:28:44.000Z</time>
      </trkpt>
      <trkpt lat="48.21081" lon="3.35501">
        <ele>111</ele>
        <time>2014-05-04T08:28:45.000Z</time>
      </trkpt>
      <trkpt lat="48.21078" lon="3.35501">
        <ele>112</ele>
        <time>2014-05-04T08:28:46.000Z</time>
      </trkpt>
      <trkpt lat="48.21074" lon="3.35501">
        <ele>112</ele>
        <time>2014-05-04T08:28:47.000Z</time>
      </trkpt>
      <trkpt lat="48.21071" lon="3.35504">
        <ele>113</ele>
        <time>2014-05-04T08:28:48.000Z</time>
      </trkpt>
      <trkpt lat="48.21068" lon="3.35504">
        <ele>113</ele>
        <time>2014-05-04T08:28:49.000Z</time>
      </trkpt>
      <trkpt lat="48.21065" lon="3.35506">
        <ele>113</ele>
        <time>2014-05-04T08:28:50.000Z</time>
      </trkpt>
      <trkpt lat="48.21063" lon="3.35506">
        <ele>113</ele>
        <time>2014-05-04T08:28:51.000Z</time>
      </trkpt>
      <trkpt lat="48.21059" lon="3.35508">
        <ele>114</ele>
        <time>2014-05-04T08:28:52.000Z</time>
      </trkpt>
      <trkpt lat="48.21056" lon="3.35508">
        <ele>114</ele>
        <time>2014-05-04T08:28:53.000Z</time>
      </trkpt>
      <trkpt lat="48.21054" lon="3.35508">
        <ele>114</ele>
        <time>2014-05-04T08:28:54.000Z</time>
      </trkpt>
      <trkpt lat="48.21051" lon="3.3551">
        <ele>114</ele>
        <time>2014-05-04T08:28:55.000Z</time>
      </trkpt>
      <trkpt lat="48.21048" lon="3.3551">
        <ele>114</ele>
        <time>2014-05-04T08:28:56.000Z</time>
      </trkpt>
      <trkpt lat="48.21044" lon="3.35512">
        <ele>114</ele>
        <time>2014-05-04T08:28:57.000Z</time>
      </trkpt>
      <trkpt lat="48.21042" lon="3.35512">
        <ele>115</ele>
        <time>2014-05-04T08:28:58.000Z</time>
      </trkpt>
      <trkpt lat="48.21039" lon="3.35514">
        <ele>115</ele>
        <time>2014-05-04T08:28:59.000Z</time>
      </trkpt>
      <trkpt lat="48.21036" lon="3.35514">
        <ele>115</ele>
        <time>2014-05-04T08:29:00.000Z</time>
      </trkpt>
      <trkpt lat="48.21033" lon="3.35516">
        <ele>115</ele>
        <time>2014-05-04T08:29:01.000Z</time>
      </trkpt>
      <trkpt lat="48.2103" lon="3.35519">
        <ele>115</ele>
        <time>2014-05-04T08:29:02.000Z</time>
      </trkpt>
      <trkpt lat="48.21027" lon="3.35519">
        <ele>115</ele>
        <time>2014-05-04T08:29:03.000Z</time>
      </trkpt>
      <trkpt lat="48.21025" lon="3.35519">
        <ele>115</ele>
        <time>2014-05-04T08:29:04.000Z</time>
      </trkpt>
      <trkpt lat="48.21022" lon="3.35519">
        <ele>115</ele>
        <time>2014-05-04T08:29:05.000Z</time>
      </trkpt>
      <trkpt lat="48.2102" lon="3.35519">
        <ele>115</ele>
        <time>2014-05-04T08:29:06.000Z</time>
      </trkpt>
      <trkpt lat="48.21016" lon="3.35519">
        <ele>115</ele>
        <time>2014-05-04T08:29:07.000Z</time>
      </trkpt>
      <trkpt lat="48.21014" lon="3.35521">
        <ele>115</ele>
        <time>2014-05-04T08:29:08.000Z</time>
      </trkpt>
      <trkpt lat="48.2101" lon="3.35521">
        <ele>115</ele>
        <time>2014-05-04T08:29:10.000Z</time>
      </trkpt>
      <trkpt lat="48.21009" lon="3.35521">
        <ele>115</ele>
        <time>2014-05-04T08:29:11.000Z</time>
      </trkpt>
      <trkpt lat="48.21009" lon="3.35521">
        <ele>115</ele>
        <time>2014-05-04T08:29:16.000Z</time>
      </trkpt>
      <trkpt lat="48.21" lon="3.35519">
        <ele>115</ele>
        <time>2014-05-04T08:29:17.000Z</time>
      </trkpt>
      <trkpt lat="48.21" lon="3.35519">
        <ele>115</ele>
        <time>2014-05-04T08:29:19.000Z</time>
      </trkpt>
      <trkpt lat="48.20995" lon="3.35514">
        <ele>116</ele>
        <time>2014-05-04T08:29:20.000Z</time>
      </trkpt>
      <trkpt lat="48.20995" lon="3.35514">
        <ele>116</ele>
        <time>2014-05-04T08:29:22.000Z</time>
      </trkpt>
      <trkpt lat="48.2099" lon="3.3551">
        <ele>116</ele>
        <time>2014-05-04T08:29:23.000Z</time>
      </trkpt>
      <trkpt lat="48.2099" lon="3.3551">
        <ele>116</ele>
        <time>2014-05-04T08:29:24.000Z</time>
      </trkpt>
      <trkpt lat="48.20986" lon="3.35504">
        <ele>116</ele>
        <time>2014-05-04T08:29:25.000Z</time>
      </trkpt>
      <trkpt lat="48.20984" lon="3.35499">
        <ele>114</ele>
        <time>2014-05-04T08:29:26.000Z</time>
      </trkpt>
      <trkpt lat="48.20981" lon="3.35497">
        <ele>114</ele>
        <time>2014-05-04T08:29:27.000Z</time>
      </trkpt>
      <trkpt lat="48.20979" lon="3.35493">
        <ele>114</ele>
        <time>2014-05-04T08:29:28.000Z</time>
      </trkpt>
      <trkpt lat="48.20976" lon="3.35489">
        <ele>114</ele>
        <time>2014-05-04T08:29:29.000Z</time>
      </trkpt>
      <trkpt lat="48.20972" lon="3.35484">
        <ele>114</ele>
        <time>2014-05-04T08:29:30.000Z</time>
      </trkpt>
      <trkpt lat="48.20968" lon="3.35478">
        <ele>114</ele>
        <time>2014-05-04T08:29:31.000Z</time>
      </trkpt>
      <trkpt lat="48.20964" lon="3.35469">
        <ele>114</ele>
        <time>2014-05-04T08:29:32.000Z</time>
      </trkpt>
      <trkpt lat="48.20961" lon="3.35461">
        <ele>114</ele>
        <time>2014-05-04T08:29:33.000Z</time>
      </trkpt>
      <trkpt lat="48.20957" lon="3.3545">
        <ele>113</ele>
        <time>2014-05-04T08:29:34.000Z</time>
      </trkpt>
      <trkpt lat="48.20954" lon="3.35441">
        <ele>113</ele>
        <time>2014-05-04T08:29:35.000Z</time>
      </trkpt>
      <trkpt lat="48.20951" lon="3.35431">
        <ele>113</ele>
        <time>2014-05-04T08:29:36.000Z</time>
      </trkpt>
      <trkpt lat="48.20949" lon="3.35422">
        <ele>113</ele>
        <time>2014-05-04T08:29:37.000Z</time>
      </trkpt>
      <trkpt lat="48.20947" lon="3.35413">
        <ele>112</ele>
        <time>2014-05-04T08:29:38.000Z</time>
      </trkpt>
      <trkpt lat="48.20945" lon="3.35405">
        <ele>112</ele>
        <time>2014-05-04T08:29:39.000Z</time>
      </trkpt>
      <trkpt lat="48.20942" lon="3.35396">
        <ele>111</ele>
        <time>2014-05-04T08:29:40.000Z</time>
      </trkpt>
      <trkpt lat="48.2094" lon="3.35386">
        <ele>111</ele>
        <time>2014-05-04T08:29:41.000Z</time>
      </trkpt>
      <trkpt lat="48.20938" lon="3.35377">
        <ele>111</ele>
        <time>2014-05-04T08:29:42.000Z</time>
      </trkpt>
      <trkpt lat="48.20936" lon="3.35368">
        <ele>111</ele>
        <time>2014-05-04T08:29:43.000Z</time>
      </trkpt>
      <trkpt lat="48.20935" lon="3.3536">
        <ele>111</ele>
        <time>2014-05-04T08:29:44.000Z</time>
      </trkpt>
      <trkpt lat="48.20933" lon="3.35351">
        <ele>111</ele>
        <time>2014-05-04T08:29:45.000Z</time>
      </trkpt>
      <trkpt lat="48.20932" lon="3.35343">
        <ele>111</ele>
        <time>2014-05-04T08:29:46.000Z</time>
      </trkpt>
      <trkpt lat="48.2093" lon="3.35336">
        <ele>111</ele>
        <time>2014-05-04T08:29:47.000Z</time>
      </trkpt>
      <trkpt lat="48.20928" lon="3.35328">
        <ele>111</ele>
        <time>2014-05-04T08:29:48.000Z</time>
      </trkpt>
      <trkpt lat="48.20926" lon="3.35319">
        <ele>110</ele>
        <time>2014-05-04T08:29:49.000Z</time>
      </trkpt>
      <trkpt lat="48.20925" lon="3.3531">
        <ele>110</ele>
        <time>2014-05-04T08:29:50.000Z</time>
      </trkpt>
      <trkpt lat="48.20923" lon="3.35304">
        <ele>110</ele>
        <time>2014-05-04T08:29:51.000Z</time>
      </trkpt>
      <trkpt lat="48.20922" lon="3.35295">
        <ele>110</ele>
        <time>2014-05-04T08:29:52.000Z</time>
      </trkpt>
      <trkpt lat="48.20922" lon="3.35287">
        <ele>109</ele>
        <time>2014-05-04T08:29:53.000Z</time>
      </trkpt>
      <trkpt lat="48.20921" lon="3.3528">
        <ele>109</ele>
        <time>2014-05-04T08:29:54.000Z</time>
      </trkpt>
      <trkpt lat="48.20921" lon="3.35272">
        <ele>109</ele>
        <time>2014-05-04T08:29:55.000Z</time>
      </trkpt>
      <trkpt lat="48.20921" lon="3.35265">
        <ele>110</ele>
        <time>2014-05-04T08:29:56.000Z</time>
      </trkpt>
      <trkpt lat="48.2092" lon="3.35257">
        <ele>110</ele>
        <time>2014-05-04T08:29:57.000Z</time>
      </trkpt>
      <trkpt lat="48.2092" lon="3.3525">
        <ele>110</ele>
        <time>2014-05-04T08:29:58.000Z</time>
      </trkpt>
      <trkpt lat="48.20919" lon="3.35244">
        <ele>109</ele>
        <time>2014-05-04T08:29:59.000Z</time>
      </trkpt>
      <trkpt lat="48.20918" lon="3.35238">
        <ele>109</ele>
        <time>2014-05-04T08:30:00.000Z</time>
      </trkpt>
      <trkpt lat="48.20917" lon="3.35231">
        <ele>111</ele>
        <time>2014-05-04T08:30:01.000Z</time>
      </trkpt>
      <trkpt lat="48.20916" lon="3.35225">
        <ele>111</ele>
        <time>2014-05-04T08:30:02.000Z</time>
      </trkpt>
      <trkpt lat="48.20915" lon="3.35218">
        <ele>111</ele>
        <time>2014-05-04T08:30:03.000Z</time>
      </trkpt>
      <trkpt lat="48.20913" lon="3.35212">
        <ele>111</ele>
        <time>2014-05-04T08:30:04.000Z</time>
      </trkpt>
      <trkpt lat="48.20912" lon="3.35205">
        <ele>111</ele>
        <time>2014-05-04T08:30:05.000Z</time>
      </trkpt>
      <trkpt lat="48.2091" lon="3.35199">
        <ele>111</ele>
        <time>2014-05-04T08:30:06.000Z</time>
      </trkpt>
      <trkpt lat="48.20908" lon="3.35195">
        <ele>110</ele>
        <time>2014-05-04T08:30:07.000Z</time>
      </trkpt>
      <trkpt lat="48.20906" lon="3.35188">
        <ele>110</ele>
        <time>2014-05-04T08:30:08.000Z</time>
      </trkpt>
      <trkpt lat="48.20903" lon="3.35186">
        <ele>110</ele>
        <time>2014-05-04T08:30:09.000Z</time>
      </trkpt>
      <trkpt lat="48.20897" lon="3.35186">
        <ele>110</ele>
        <time>2014-05-04T08:30:10.000Z</time>
      </trkpt>
      <trkpt lat="48.20892" lon="3.35184">
        <ele>111</ele>
        <time>2014-05-04T08:30:11.000Z</time>
      </trkpt>
      <trkpt lat="48.20888" lon="3.35182">
        <ele>111</ele>
        <time>2014-05-04T08:30:12.000Z</time>
      </trkpt>
      <trkpt lat="48.20883" lon="3.35182">
        <ele>111</ele>
        <time>2014-05-04T08:30:13.000Z</time>
      </trkpt>
      <trkpt lat="48.20879" lon="3.35182">
        <ele>111</ele>
        <time>2014-05-04T08:30:14.000Z</time>
      </trkpt>
      <trkpt lat="48.20875" lon="3.35184">
        <ele>111</ele>
        <time>2014-05-04T08:30:15.000Z</time>
      </trkpt>
      <trkpt lat="48.20872" lon="3.35184">
        <ele>111</ele>
        <time>2014-05-04T08:30:16.000Z</time>
      </trkpt>
      <trkpt lat="48.20868" lon="3.35184">
        <ele>111</ele>
        <time>2014-05-04T08:30:17.000Z</time>
      </trkpt>
      <trkpt lat="48.20864" lon="3.35184">
        <ele>112</ele>
        <time>2014-05-04T08:30:18.000Z</time>
      </trkpt>
      <trkpt lat="48.2086" lon="3.35186">
        <ele>112</ele>
        <time>2014-05-04T08:30:19.000Z</time>
      </trkpt>
      <trkpt lat="48.20857" lon="3.35188">
        <ele>112</ele>
        <time>2014-05-04T08:30:20.000Z</time>
      </trkpt>
      <trkpt lat="48.20853" lon="3.3519">
        <ele>112</ele>
        <time>2014-05-04T08:30:21.000Z</time>
      </trkpt>
      <trkpt lat="48.20851" lon="3.35192">
        <ele>112</ele>
        <time>2014-05-04T08:30:22.000Z</time>
      </trkpt>
      <trkpt lat="48.20848" lon="3.35192">
        <ele>112</ele>
        <time>2014-05-04T08:30:23.000Z</time>
      </trkpt>
      <trkpt lat="48.20845" lon="3.35195">
        <ele>112</ele>
        <time>2014-05-04T08:30:24.000Z</time>
      </trkpt>
      <trkpt lat="48.20843" lon="3.35195">
        <ele>112</ele>
        <time>2014-05-04T08:30:25.000Z</time>
      </trkpt>
      <trkpt lat="48.2084" lon="3.35197">
        <ele>112</ele>
        <time>2014-05-04T08:30:26.000Z</time>
      </trkpt>
      <trkpt lat="48.20838" lon="3.35197">
        <ele>112</ele>
        <time>2014-05-04T08:30:27.000Z</time>
      </trkpt>
      <trkpt lat="48.20835" lon="3.35199">
        <ele>112</ele>
        <time>2014-05-04T08:30:28.000Z</time>
      </trkpt>
      <trkpt lat="48.20834" lon="3.35199">
        <ele>112</ele>
        <time>2014-05-04T08:30:29.000Z</time>
      </trkpt>
      <trkpt lat="48.2083" lon="3.35199">
        <ele>117</ele>
        <time>2014-05-04T08:30:31.000Z</time>
      </trkpt>
      <trkpt lat="48.20828" lon="3.35201">
        <ele>117</ele>
        <time>2014-05-04T08:30:32.000Z</time>
      </trkpt>
      <trkpt lat="48.20823" lon="3.35201">
        <ele>118</ele>
        <time>2014-05-04T08:30:34.000Z</time>
      </trkpt>
      <trkpt lat="48.20821" lon="3.35201">
        <ele>118</ele>
        <time>2014-05-04T08:30:35.000Z</time>
      </trkpt>
      <trkpt lat="48.20817" lon="3.35203">
        <ele>118</ele>
        <time>2014-05-04T08:30:37.000Z</time>
      </trkpt>
      <trkpt lat="48.20815" lon="3.35203">
        <ele>118</ele>
        <time>2014-05-04T08:30:38.000Z</time>
      </trkpt>
      <trkpt lat="48.20813" lon="3.35203">
        <ele>118</ele>
        <time>2014-05-04T08:30:39.000Z</time>
      </trkpt>
      <trkpt lat="48.2081" lon="3.35205">
        <ele>118</ele>
        <time>2014-05-04T08:30:40.000Z</time>
      </trkpt>
      <trkpt lat="48.20806" lon="3.35207">
        <ele>119</ele>
        <time>2014-05-04T08:30:42.000Z</time>
      </trkpt>
      <trkpt lat="48.20804" lon="3.35207">
        <ele>119</ele>
        <time>2014-05-04T08:30:43.000Z</time>
      </trkpt>
      <trkpt lat="48.20804" lon="3.35207">
        <ele>119</ele>
        <time>2014-05-04T08:30:47.000Z</time>
      </trkpt>
      <trkpt lat="48.20795" lon="3.35212">
        <ele>120</ele>
        <time>2014-05-04T08:30:48.000Z</time>
      </trkpt>
      <trkpt lat="48.20795" lon="3.35212">
        <ele>120</ele>
        <time>2014-05-04T08:30:53.000Z</time>
      </trkpt>
      <trkpt lat="48.20786" lon="3.35216">
        <ele>121</ele>
        <time>2014-05-04T08:30:54.000Z</time>
      </trkpt>
      <trkpt lat="48.20786" lon="3.35216">
        <ele>121</ele>
        <time>2014-05-04T08:31:02.000Z</time>
      </trkpt>
      <trkpt lat="48.20783" lon="3.35231">
        <ele>122</ele>
        <time>2014-05-04T08:31:03.000Z</time>
      </trkpt>
      <trkpt lat="48.20783" lon="3.35231">
        <ele>122</ele>
        <time>2014-05-04T08:31:07.000Z</time>
      </trkpt>
      <trkpt lat="48.20781" lon="3.35244">
        <ele>123</ele>
        <time>2014-05-04T08:31:08.000Z</time>
      </trkpt>
      <trkpt lat="48.20781" lon="3.35244">
        <ele>123</ele>
        <time>2014-05-04T08:31:13.000Z</time>
      </trkpt>
      <trkpt lat="48.20781" lon="3.35259">
        <ele>128</ele>
        <time>2014-05-04T08:31:14.000Z</time>
      </trkpt>
      <trkpt lat="48.20781" lon="3.35259">
        <ele>128</ele>
        <time>2014-05-04T08:31:18.000Z</time>
      </trkpt>
      <trkpt lat="48.20784" lon="3.35276">
        <ele>128</ele>
        <time>2014-05-04T08:31:19.000Z</time>
      </trkpt>
      <trkpt lat="48.20784" lon="3.35276">
        <ele>128</ele>
        <time>2014-05-04T08:31:22.000Z</time>
      </trkpt>
      <trkpt lat="48.20785" lon="3.35289">
        <ele>128</ele>
        <time>2014-05-04T08:31:23.000Z</time>
      </trkpt>
      <trkpt lat="48.20785" lon="3.35289">
        <ele>128</ele>
        <time>2014-05-04T08:31:26.000Z</time>
      </trkpt>
      <trkpt lat="48.20787" lon="3.35304">
        <ele>129</ele>
        <time>2014-05-04T08:31:27.000Z</time>
      </trkpt>
      <trkpt lat="48.20787" lon="3.35304">
        <ele>129</ele>
        <time>2014-05-04T08:31:52.000Z</time>
      </trkpt>
      <trkpt lat="48.20779" lon="3.35295">
        <ele>129</ele>
        <time>2014-05-04T08:31:53.000Z</time>
      </trkpt>
      <trkpt lat="48.20779" lon="3.35295">
        <ele>129</ele>
        <time>2014-05-04T08:32:00.000Z</time>
      </trkpt>
      <trkpt lat="48.20774" lon="3.35283">
        <ele>129</ele>
        <time>2014-05-04T08:32:01.000Z</time>
      </trkpt>
      <trkpt lat="48.20774" lon="3.35283">
        <ele>129</ele>
        <time>2014-05-04T08:32:07.000Z</time>
      </trkpt>
      <trkpt lat="48.20768" lon="3.35272">
        <ele>129</ele>
        <time>2014-05-04T08:32:08.000Z</time>
      </trkpt>
      <trkpt lat="48.20768" lon="3.35272">
        <ele>129</ele>
        <time>2014-05-04T08:32:13.000Z</time>
      </trkpt>
      <trkpt lat="48.20759" lon="3.35263">
        <ele>130</ele>
        <time>2014-05-04T08:32:14.000Z</time>
      </trkpt>
      <trkpt lat="48.20759" lon="3.35263">
        <ele>130</ele>
        <time>2014-05-04T08:32:17.000Z</time>
      </trkpt>
      <trkpt lat="48.2075" lon="3.35257">
        <ele>130</ele>
        <time>2014-05-04T08:32:18.000Z</time>
      </trkpt>
      <trkpt lat="48.2075" lon="3.35257">
        <ele>130</ele>
        <time>2014-05-04T08:32:21.000Z</time>
      </trkpt>
      <trkpt lat="48.20741" lon="3.3525">
        <ele>134</ele>
        <time>2014-05-04T08:32:22.000Z</time>
      </trkpt>
      <trkpt lat="48.20741" lon="3.3525">
        <ele>134</ele>
        <time>2014-05-04T08:32:25.000Z</time>
      </trkpt>
      <trkpt lat="48.20731" lon="3.35246">
        <ele>131</ele>
        <time>2014-05-04T08:32:26.000Z</time>
      </trkpt>
      <trkpt lat="48.20731" lon="3.35246">
        <ele>131</ele>
        <time>2014-05-04T08:32:29.000Z</time>
      </trkpt>
      <trkpt lat="48.20721" lon="3.35242">
        <ele>131</ele>
        <time>2014-05-04T08:32:30.000Z</time>
      </trkpt>
      <trkpt lat="48.20721" lon="3.35242">
        <ele>131</ele>
        <time>2014-05-04T08:32:33.000Z</time>
      </trkpt>
      <trkpt lat="48.20712" lon="3.35242">
        <ele>132</ele>
        <time>2014-05-04T08:32:34.000Z</time>
      </trkpt>
      <trkpt lat="48.20712" lon="3.35242">
        <ele>132</ele>
        <time>2014-05-04T08:32:37.000Z</time>
      </trkpt>
      <trkpt lat="48.20702" lon="3.3524">
        <ele>133</ele>
        <time>2014-05-04T08:32:38.000Z</time>
      </trkpt>
      <trkpt lat="48.20702" lon="3.3524">
        <ele>133</ele>
        <time>2014-05-04T08:32:41.000Z</time>
      </trkpt>
      <trkpt lat="48.20691" lon="3.3524">
        <ele>134</ele>
        <time>2014-05-04T08:32:42.000Z</time>
      </trkpt>
      <trkpt lat="48.20691" lon="3.3524">
        <ele>134</ele>
        <time>2014-05-04T08:32:45.000Z</time>
      </trkpt>
      <trkpt lat="48.20682" lon="3.3524">
        <ele>135</ele>
        <time>2014-05-04T08:32:46.000Z</time>
      </trkpt>
      <trkpt lat="48.20682" lon="3.3524">
        <ele>135</ele>
        <time>2014-05-04T08:32:50.000Z</time>
      </trkpt>
      <trkpt lat="48.20671" lon="3.35242">
        <ele>138</ele>
        <time>2014-05-04T08:32:51.000Z</time>
      </trkpt>
      <trkpt lat="48.20671" lon="3.35242">
        <ele>138</ele>
        <time>2014-05-04T08:32:55.000Z</time>
      </trkpt>
      <trkpt lat="48.20661" lon="3.35244">
        <ele>140</ele>
        <time>2014-05-04T08:32:56.000Z</time>
      </trkpt>
      <trkpt lat="48.20661" lon="3.35244">
        <ele>140</ele>
        <time>2014-05-04T08:33:01.000Z</time>
      </trkpt>
      <trkpt lat="48.20651" lon="3.35246">
        <ele>140</ele>
        <time>2014-05-04T08:33:02.000Z</time>
      </trkpt>
      <trkpt lat="48.20651" lon="3.35246">
        <ele>140</ele>
        <time>2014-05-04T08:33:06.000Z</time>
      </trkpt>
      <trkpt lat="48.20641" lon="3.35244">
        <ele>140</ele>
        <time>2014-05-04T08:33:07.000Z</time>
      </trkpt>
      <trkpt lat="48.20641" lon="3.35244">
        <ele>140</ele>
        <time>2014-05-04T08:33:11.000Z</time>
      </trkpt>
      <trkpt lat="48.20631" lon="3.35244">
        <ele>141</ele>
        <time>2014-05-04T08:33:12.000Z</time>
      </trkpt>
      <trkpt lat="48.20627" lon="3.35244">
        <ele>141</ele>
        <time>2014-05-04T08:33:14.000Z</time>
      </trkpt>
      <trkpt lat="48.20625" lon="3.35244">
        <ele>141</ele>
        <time>2014-05-04T08:33:15.000Z</time>
      </trkpt>
      <trkpt lat="48.20623" lon="3.35246">
        <ele>141</ele>
        <time>2014-05-04T08:33:16.000Z</time>
      </trkpt>
      <trkpt lat="48.20621" lon="3.35246">
        <ele>141</ele>
        <time>2014-05-04T08:33:17.000Z</time>
      </trkpt>
      <trkpt lat="48.20618" lon="3.35248">
        <ele>142</ele>
        <time>2014-05-04T08:33:18.000Z</time>
      </trkpt>
      <trkpt lat="48.20616" lon="3.3525">
        <ele>148</ele>
        <time>2014-05-04T08:33:19.000Z</time>
      </trkpt>
      <trkpt lat="48.20613" lon="3.35253">
        <ele>148</ele>
        <time>2014-05-04T08:33:21.000Z</time>
      </trkpt>
      <trkpt lat="48.20611" lon="3.35253">
        <ele>148</ele>
        <time>2014-05-04T08:33:22.000Z</time>
      </trkpt>
      <trkpt lat="48.20608" lon="3.35255">
        <ele>148</ele>
        <time>2014-05-04T08:33:24.000Z</time>
      </trkpt>
      <trkpt lat="48.20606" lon="3.35255">
        <ele>148</ele>
        <time>2014-05-04T08:33:25.000Z</time>
      </trkpt>
      <trkpt lat="48.20602" lon="3.35257">
        <ele>149</ele>
        <time>2014-05-04T08:33:27.000Z</time>
      </trkpt>
      <trkpt lat="48.206" lon="3.35257">
        <ele>149</ele>
        <time>2014-05-04T08:33:28.000Z</time>
      </trkpt>
      <trkpt lat="48.20596" lon="3.35259">
        <ele>149</ele>
        <time>2014-05-04T08:33:31.000Z</time>
      </trkpt>
      <trkpt lat="48.20594" lon="3.35259">
        <ele>149</ele>
        <time>2014-05-04T08:33:32.000Z</time>
      </trkpt>
      <trkpt lat="48.2059" lon="3.35259">
        <ele>149</ele>
        <time>2014-05-04T08:33:34.000Z</time>
      </trkpt>
      <trkpt lat="48.20588" lon="3.35261">
        <ele>149</ele>
        <time>2014-05-04T08:33:35.000Z</time>
      </trkpt>
      <trkpt lat="48.20585" lon="3.35261">
        <ele>149</ele>
        <time>2014-05-04T08:33:37.000Z</time>
      </trkpt>
      <trkpt lat="48.20583" lon="3.35261">
        <ele>151</ele>
        <time>2014-05-04T08:33:38.000Z</time>
      </trkpt>
      <trkpt lat="48.2058" lon="3.35263">
        <ele>152</ele>
        <time>2014-05-04T08:33:40.000Z</time>
      </trkpt>
      <trkpt lat="48.20578" lon="3.35263">
        <ele>152</ele>
        <time>2014-05-04T08:33:41.000Z</time>
      </trkpt>
      <trkpt lat="48.20574" lon="3.35263">
        <ele>152</ele>
        <time>2014-05-04T08:33:43.000Z</time>
      </trkpt>
      <trkpt lat="48.20572" lon="3.35265">
        <ele>153</ele>
        <time>2014-05-04T08:33:44.000Z</time>
      </trkpt>
      <trkpt lat="48.20568" lon="3.35265">
        <ele>153</ele>
        <time>2014-05-04T08:33:47.000Z</time>
      </trkpt>
      <trkpt lat="48.20566" lon="3.35268">
        <ele>153</ele>
        <time>2014-05-04T08:33:48.000Z</time>
      </trkpt>
      <trkpt lat="48.20563" lon="3.35268">
        <ele>154</ele>
        <time>2014-05-04T08:33:50.000Z</time>
      </trkpt>
      <trkpt lat="48.2056" lon="3.35268">
        <ele>154</ele>
        <time>2014-05-04T08:33:51.000Z</time>
      </trkpt>
      <trkpt lat="48.20557" lon="3.3527">
        <ele>154</ele>
        <time>2014-05-04T08:33:53.000Z</time>
      </trkpt>
      <trkpt lat="48.20555" lon="3.3527">
        <ele>154</ele>
        <time>2014-05-04T08:33:54.000Z</time>
      </trkpt>
      <trkpt lat="48.20551" lon="3.35272">
        <ele>155</ele>
        <time>2014-05-04T08:33:56.000Z</time>
      </trkpt>
      <trkpt lat="48.20549" lon="3.35272">
        <ele>155</ele>
        <time>2014-05-04T08:33:57.000Z</time>
      </trkpt>
      <trkpt lat="48.20544" lon="3.35274">
        <ele>155</ele>
        <time>2014-05-04T08:33:59.000Z</time>
      </trkpt>
      <trkpt lat="48.20542" lon="3.35274">
        <ele>155</ele>
        <time>2014-05-04T08:34:00.000Z</time>
      </trkpt>
      <trkpt lat="48.2054" lon="3.35274">
        <ele>156</ele>
        <time>2014-05-04T08:34:01.000Z</time>
      </trkpt>
      <trkpt lat="48.20538" lon="3.35276">
        <ele>156</ele>
        <time>2014-05-04T08:34:02.000Z</time>
      </trkpt>
      <trkpt lat="48.20534" lon="3.35276">
        <ele>156</ele>
        <time>2014-05-04T08:34:04.000Z</time>
      </trkpt>
      <trkpt lat="48.20531" lon="3.35276">
        <ele>156</ele>
        <time>2014-05-04T08:34:05.000Z</time>
      </trkpt>
      <trkpt lat="48.20528" lon="3.35278">
        <ele>156</ele>
        <time>2014-05-04T08:34:07.000Z</time>
      </trkpt>
      <trkpt lat="48.20526" lon="3.35278">
        <ele>156</ele>
        <time>2014-05-04T08:34:08.000Z</time>
      </trkpt>
      <trkpt lat="48.20522" lon="3.35278">
        <ele>156</ele>
        <time>2014-05-04T08:34:10.000Z</time>
      </trkpt>
      <trkpt lat="48.2052" lon="3.35278">
        <ele>156</ele>
        <time>2014-05-04T08:34:11.000Z</time>
      </trkpt>
      <trkpt lat="48.20515" lon="3.3528">
        <ele>157</ele>
        <time>2014-05-04T08:34:13.000Z</time>
      </trkpt>
      <trkpt lat="48.20514" lon="3.3528">
        <ele>157</ele>
        <time>2014-05-04T08:34:14.000Z</time>
      </trkpt>
      <trkpt lat="48.2051" lon="3.3528">
        <ele>157</ele>
        <time>2014-05-04T08:34:16.000Z</time>
      </trkpt>
      <trkpt lat="48.20508" lon="3.3528">
        <ele>157</ele>
        <time>2014-05-04T08:34:17.000Z</time>
      </trkpt>
      <trkpt lat="48.20505" lon="3.3528">
        <ele>157</ele>
        <time>2014-05-04T08:34:19.000Z</time>
      </trkpt>
      <trkpt lat="48.20503" lon="3.3528">
        <ele>157</ele>
        <time>2014-05-04T08:34:20.000Z</time>
      </trkpt>
      <trkpt lat="48.20499" lon="3.3528">
        <ele>160</ele>
        <time>2014-05-04T08:34:22.000Z</time>
      </trkpt>
      <trkpt lat="48.20497" lon="3.35278">
        <ele>160</ele>
        <time>2014-05-04T08:34:23.000Z</time>
      </trkpt>
      <trkpt lat="48.20493" lon="3.35278">
        <ele>160</ele>
        <time>2014-05-04T08:34:25.000Z</time>
      </trkpt>
      <trkpt lat="48.20491" lon="3.35278">
        <ele>160</ele>
        <time>2014-05-04T08:34:26.000Z</time>
      </trkpt>
      <trkpt lat="48.20486" lon="3.35278">
        <ele>160</ele>
        <time>2014-05-04T08:34:28.000Z</time>
      </trkpt>
      <trkpt lat="48.20484" lon="3.35278">
        <ele>160</ele>
        <time>2014-05-04T08:34:29.000Z</time>
      </trkpt>
      <trkpt lat="48.20481" lon="3.35278">
        <ele>160</ele>
        <time>2014-05-04T08:34:31.000Z</time>
      </trkpt>
      <trkpt lat="48.20479" lon="3.35278">
        <ele>161</ele>
        <time>2014-05-04T08:34:32.000Z</time>
      </trkpt>
      <trkpt lat="48.20475" lon="3.35278">
        <ele>161</ele>
        <time>2014-05-04T08:34:34.000Z</time>
      </trkpt>
      <trkpt lat="48.20472" lon="3.3528">
        <ele>161</ele>
        <time>2014-05-04T08:34:35.000Z</time>
      </trkpt>
      <trkpt lat="48.20469" lon="3.3528">
        <ele>161</ele>
        <time>2014-05-04T08:34:37.000Z</time>
      </trkpt>
      <trkpt lat="48.20467" lon="3.3528">
        <ele>161</ele>
        <time>2014-05-04T08:34:38.000Z</time>
      </trkpt>
      <trkpt lat="48.20463" lon="3.3528">
        <ele>161</ele>
        <time>2014-05-04T08:34:40.000Z</time>
      </trkpt>
      <trkpt lat="48.20461" lon="3.3528">
        <ele>161</ele>
        <time>2014-05-04T08:34:41.000Z</time>
      </trkpt>
      <trkpt lat="48.20457" lon="3.35283">
        <ele>161</ele>
        <time>2014-05-04T08:34:43.000Z</time>
      </trkpt>
      <trkpt lat="48.20455" lon="3.35283">
        <ele>162</ele>
        <time>2014-05-04T08:34:44.000Z</time>
      </trkpt>
      <trkpt lat="48.20452" lon="3.35283">
        <ele>162</ele>
        <time>2014-05-04T08:34:46.000Z</time>
      </trkpt>
      <trkpt lat="48.2045" lon="3.35283">
        <ele>162</ele>
        <time>2014-05-04T08:34:47.000Z</time>
      </trkpt>
      <trkpt lat="48.20447" lon="3.35283">
        <ele>162</ele>
        <time>2014-05-04T08:34:49.000Z</time>
      </trkpt>
      <trkpt lat="48.20445" lon="3.35285">
        <ele>162</ele>
        <time>2014-05-04T08:34:50.000Z</time>
      </trkpt>
      <trkpt lat="48.20441" lon="3.35285">
        <ele>162</ele>
        <time>2014-05-04T08:34:52.000Z</time>
      </trkpt>
      <trkpt lat="48.20439" lon="3.35285">
        <ele>162</ele>
        <time>2014-05-04T08:34:53.000Z</time>
      </trkpt>
      <trkpt lat="48.20436" lon="3.35285">
        <ele>162</ele>
        <time>2014-05-04T08:34:55.000Z</time>
      </trkpt>
      <trkpt lat="48.20435" lon="3.35287">
        <ele>162</ele>
        <time>2014-05-04T08:34:56.000Z</time>
      </trkpt>
      <trkpt lat="48.20432" lon="3.35287">
        <ele>162</ele>
        <time>2014-05-04T08:34:58.000Z</time>
      </trkpt>
      <trkpt lat="48.2043" lon="3.35287">
        <ele>162</ele>
        <time>2014-05-04T08:34:59.000Z</time>
      </trkpt>
      <trkpt lat="48.20425" lon="3.35289">
        <ele>162</ele>
        <time>2014-05-04T08:35:02.000Z</time>
      </trkpt>
      <trkpt lat="48.20424" lon="3.35289">
        <ele>162</ele>
        <time>2014-05-04T08:35:03.000Z</time>
      </trkpt>
      <trkpt lat="48.2042" lon="3.35291">
        <ele>163</ele>
        <time>2014-05-04T08:35:06.000Z</time>
      </trkpt>
      <trkpt lat="48.20418" lon="3.35291">
        <ele>163</ele>
        <time>2014-05-04T08:35:07.000Z</time>
      </trkpt>
      <trkpt lat="48.20413" lon="3.35291">
        <ele>166</ele>
        <time>2014-05-04T08:35:10.000Z</time>
      </trkpt>
      <trkpt lat="48.20411" lon="3.35293">
        <ele>166</ele>
        <time>2014-05-04T08:35:11.000Z</time>
      </trkpt>
      <trkpt lat="48.20407" lon="3.35293">
        <ele>166</ele>
        <time>2014-05-04T08:35:14.000Z</time>
      </trkpt>
      <trkpt lat="48.20406" lon="3.35293">
        <ele>166</ele>
        <time>2014-05-04T08:35:15.000Z</time>
      </trkpt>
      <trkpt lat="48.20402" lon="3.35293">
        <ele>166</ele>
        <time>2014-05-04T08:35:18.000Z</time>
      </trkpt>
      <trkpt lat="48.20401" lon="3.35293">
        <ele>166</ele>
        <time>2014-05-04T08:35:19.000Z</time>
      </trkpt>
      <trkpt lat="48.20396" lon="3.35295">
        <ele>166</ele>
        <time>2014-05-04T08:35:22.000Z</time>
      </trkpt>
      <trkpt lat="48.20394" lon="3.35295">
        <ele>166</ele>
        <time>2014-05-04T08:35:23.000Z</time>
      </trkpt>
      <trkpt lat="48.2039" lon="3.35295">
        <ele>167</ele>
        <time>2014-05-04T08:35:26.000Z</time>
      </trkpt>
      <trkpt lat="48.20389" lon="3.35295">
        <ele>167</ele>
        <time>2014-05-04T08:35:27.000Z</time>
      </trkpt>
      <trkpt lat="48.20385" lon="3.35295">
        <ele>167</ele>
        <time>2014-05-04T08:35:30.000Z</time>
      </trkpt>
      <trkpt lat="48.20383" lon="3.35295">
        <ele>167</ele>
        <time>2014-05-04T08:35:31.000Z</time>
      </trkpt>
      <trkpt lat="48.20379" lon="3.35295">
        <ele>167</ele>
        <time>2014-05-04T08:35:34.000Z</time>
      </trkpt>
      <trkpt lat="48.20378" lon="3.35295">
        <ele>167</ele>
        <time>2014-05-04T08:35:35.000Z</time>
      </trkpt>
      <trkpt lat="48.20374" lon="3.35295">
        <ele>167</ele>
        <time>2014-05-04T08:35:38.000Z</time>
      </trkpt>
      <trkpt lat="48.20372" lon="3.35295">
        <ele>167</ele>
        <time>2014-05-04T08:35:39.000Z</time>
      </trkpt>
      <trkpt lat="48.20368" lon="3.35295">
        <ele>167</ele>
        <time>2014-05-04T08:35:41.000Z</time>
      </trkpt>
      <trkpt lat="48.20367" lon="3.35298">
        <ele>167</ele>
        <time>2014-05-04T08:35:42.000Z</time>
      </trkpt>
      <trkpt lat="48.20364" lon="3.35298">
        <ele>167</ele>
        <time>2014-05-04T08:35:44.000Z</time>
      </trkpt>
      <trkpt lat="48.20362" lon="3.353">
        <ele>168</ele>
        <time>2014-05-04T08:35:45.000Z</time>
      </trkpt>
      <trkpt lat="48.20358" lon="3.35302">
        <ele>168</ele>
        <time>2014-05-04T08:35:48.000Z</time>
      </trkpt>
      <trkpt lat="48.20356" lon="3.35302">
        <ele>168</ele>
        <time>2014-05-04T08:35:49.000Z</time>
      </trkpt>
      <trkpt lat="48.20352" lon="3.35304">
        <ele>168</ele>
        <time>2014-05-04T08:35:51.000Z</time>
      </trkpt>
      <trkpt lat="48.20351" lon="3.35306">
        <ele>168</ele>
        <time>2014-05-04T08:35:52.000Z</time>
      </trkpt>
      <trkpt lat="48.20348" lon="3.35306">
        <ele>169</ele>
        <time>2014-05-04T08:35:54.000Z</time>
      </trkpt>
      <trkpt lat="48.20347" lon="3.35308">
        <ele>169</ele>
        <time>2014-05-04T08:35:55.000Z</time>
      </trkpt>
      <trkpt lat="48.20343" lon="3.35308">
        <ele>169</ele>
        <time>2014-05-04T08:35:58.000Z</time>
      </trkpt>
      <trkpt lat="48.20342" lon="3.3531">
        <ele>169</ele>
        <time>2014-05-04T08:35:59.000Z</time>
      </trkpt>
      <trkpt lat="48.20337" lon="3.3531">
        <ele>169</ele>
        <time>2014-05-04T08:36:02.000Z</time>
      </trkpt>
      <trkpt lat="48.20335" lon="3.35313">
        <ele>170</ele>
        <time>2014-05-04T08:36:03.000Z</time>
      </trkpt>
      <trkpt lat="48.20331" lon="3.35315">
        <ele>173</ele>
        <time>2014-05-04T08:36:07.000Z</time>
      </trkpt>
      <trkpt lat="48.20329" lon="3.35315">
        <ele>173</ele>
        <time>2014-05-04T08:36:08.000Z</time>
      </trkpt>
      <trkpt lat="48.20325" lon="3.35317">
        <ele>173</ele>
        <time>2014-05-04T08:36:11.000Z</time>
      </trkpt>
      <trkpt lat="48.20324" lon="3.35319">
        <ele>173</ele>
        <time>2014-05-04T08:36:12.000Z</time>
      </trkpt>
      <trkpt lat="48.2032" lon="3.35319">
        <ele>173</ele>
        <time>2014-05-04T08:36:18.000Z</time>
      </trkpt>
      <trkpt lat="48.20319" lon="3.35319">
        <ele>173</ele>
        <time>2014-05-04T08:36:19.000Z</time>
      </trkpt>
      <trkpt lat="48.20317" lon="3.35315">
        <ele>173</ele>
        <time>2014-05-04T08:36:22.000Z</time>
      </trkpt>
      <trkpt lat="48.20317" lon="3.35313">
        <ele>173</ele>
        <time>2014-05-04T08:36:23.000Z</time>
      </trkpt>
      <trkpt lat="48.20316" lon="3.35308">
        <ele>173</ele>
        <time>2014-05-04T08:36:25.000Z</time>
      </trkpt>
      <trkpt lat="48.20315" lon="3.35306">
        <ele>173</ele>
        <time>2014-05-04T08:36:26.000Z</time>
      </trkpt>
      <trkpt lat="48.20315" lon="3.353">
        <ele>173</ele>
        <time>2014-05-04T08:36:28.000Z</time>
      </trkpt>
      <trkpt lat="48.20314" lon="3.35298">
        <ele>173</ele>
        <time>2014-05-04T08:36:29.000Z</time>
      </trkpt>
      <trkpt lat="48.20314" lon="3.35291">
        <ele>172</ele>
        <time>2014-05-04T08:36:31.000Z</time>
      </trkpt>
      <trkpt lat="48.20313" lon="3.35287">
        <ele>172</ele>
        <time>2014-05-04T08:36:32.000Z</time>
      </trkpt>
      <trkpt lat="48.20312" lon="3.35283">
        <ele>172</ele>
        <time>2014-05-04T08:36:34.000Z</time>
      </trkpt>
      <trkpt lat="48.2031" lon="3.3528">
        <ele>172</ele>
        <time>2014-05-04T08:36:35.000Z</time>
      </trkpt>
      <trkpt lat="48.20308" lon="3.35276">
        <ele>172</ele>
        <time>2014-05-04T08:36:37.000Z</time>
      </trkpt>
      <trkpt lat="48.20306" lon="3.35272">
        <ele>172</ele>
        <time>2014-05-04T08:36:38.000Z</time>
      </trkpt>
      <trkpt lat="48.20304" lon="3.35268">
        <ele>172</ele>
        <time>2014-05-04T08:36:40.000Z</time>
      </trkpt>
      <trkpt lat="48.20303" lon="3.35265">
        <ele>172</ele>
        <time>2014-05-04T08:36:41.000Z</time>
      </trkpt>
      <trkpt lat="48.203" lon="3.35261">
        <ele>172</ele>
        <time>2014-05-04T08:36:43.000Z</time>
      </trkpt>
      <trkpt lat="48.20299" lon="3.35259">
        <ele>172</ele>
        <time>2014-05-04T08:36:44.000Z</time>
      </trkpt>
      <trkpt lat="48.20295" lon="3.35255">
        <ele>172</ele>
        <time>2014-05-04T08:36:46.000Z</time>
      </trkpt>
      <trkpt lat="48.20294" lon="3.35253">
        <ele>172</ele>
        <time>2014-05-04T08:36:47.000Z</time>
      </trkpt>
      <trkpt lat="48.20293" lon="3.3525">
        <ele>172</ele>
        <time>2014-05-04T08:36:48.000Z</time>
      </trkpt>
      <trkpt lat="48.20291" lon="3.35246">
        <ele>167</ele>
        <time>2014-05-04T08:36:49.000Z</time>
      </trkpt>
      <trkpt lat="48.20289" lon="3.35242">
        <ele>167</ele>
        <time>2014-05-04T08:36:51.000Z</time>
      </trkpt>
      <trkpt lat="48.20288" lon="3.3524">
        <ele>167</ele>
        <time>2014-05-04T08:36:52.000Z</time>
      </trkpt>
      <trkpt lat="48.20285" lon="3.35235">
        <ele>167</ele>
        <time>2014-05-04T08:36:54.000Z</time>
      </trkpt>
      <trkpt lat="48.20284" lon="3.35231">
        <ele>167</ele>
        <time>2014-05-04T08:36:55.000Z</time>
      </trkpt>
      <trkpt lat="48.2028" lon="3.35227">
        <ele>167</ele>
        <time>2014-05-04T08:36:57.000Z</time>
      </trkpt>
      <trkpt lat="48.20279" lon="3.35225">
        <ele>167</ele>
        <time>2014-05-04T08:36:58.000Z</time>
      </trkpt>
      <trkpt lat="48.20277" lon="3.35222">
        <ele>167</ele>
        <time>2014-05-04T08:37:00.000Z</time>
      </trkpt>
      <trkpt lat="48.20275" lon="3.3522">
        <ele>167</ele>
        <time>2014-05-04T08:37:01.000Z</time>
      </trkpt>
      <trkpt lat="48.20272" lon="3.3522">
        <ele>167</ele>
        <time>2014-05-04T08:37:03.000Z</time>
      </trkpt>
      <trkpt lat="48.20269" lon="3.3522">
        <ele>167</ele>
        <time>2014-05-04T08:37:04.000Z</time>
      </trkpt>
      <trkpt lat="48.20264" lon="3.35218">
        <ele>167</ele>
        <time>2014-05-04T08:37:06.000Z</time>
      </trkpt>
      <trkpt lat="48.20262" lon="3.3522">
        <ele>168</ele>
        <time>2014-05-04T08:37:07.000Z</time>
      </trkpt>
      <trkpt lat="48.20259" lon="3.3522">
        <ele>168</ele>
        <time>2014-05-04T08:37:09.000Z</time>
      </trkpt>
      <trkpt lat="48.20257" lon="3.3522">
        <ele>168</ele>
        <time>2014-05-04T08:37:10.000Z</time>
      </trkpt>
      <trkpt lat="48.20253" lon="3.3522">
        <ele>168</ele>
        <time>2014-05-04T08:37:12.000Z</time>
      </trkpt>
      <trkpt lat="48.2025" lon="3.3522">
        <ele>168</ele>
        <time>2014-05-04T08:37:13.000Z</time>
      </trkpt>
      <trkpt lat="48.20248" lon="3.35222">
        <ele>172</ele>
        <time>2014-05-04T08:37:14.000Z</time>
      </trkpt>
      <trkpt lat="48.20245" lon="3.35222">
        <ele>172</ele>
        <time>2014-05-04T08:37:15.000Z</time>
      </trkpt>
      <trkpt lat="48.20241" lon="3.35222">
        <ele>172</ele>
        <time>2014-05-04T08:37:17.000Z</time>
      </trkpt>
      <trkpt lat="48.20238" lon="3.35222">
        <ele>172</ele>
        <time>2014-05-04T08:37:18.000Z</time>
      </trkpt>
      <trkpt lat="48.20233" lon="3.35222">
        <ele>172</ele>
        <time>2014-05-04T08:37:20.000Z</time>
      </trkpt>
      <trkpt lat="48.20231" lon="3.35222">
        <ele>172</ele>
        <time>2014-05-04T08:37:21.000Z</time>
      </trkpt>
      <trkpt lat="48.20228" lon="3.35222">
        <ele>172</ele>
        <time>2014-05-04T08:37:22.000Z</time>
      </trkpt>
      <trkpt lat="48.20226" lon="3.35222">
        <ele>172</ele>
        <time>2014-05-04T08:37:23.000Z</time>
      </trkpt>
      <trkpt lat="48.20222" lon="3.35222">
        <ele>172</ele>
        <time>2014-05-04T08:37:25.000Z</time>
      </trkpt>
      <trkpt lat="48.2022" lon="3.35222">
        <ele>172</ele>
        <time>2014-05-04T08:37:26.000Z</time>
      </trkpt>
      <trkpt lat="48.20216" lon="3.35222">
        <ele>172</ele>
        <time>2014-05-04T08:37:28.000Z</time>
      </trkpt>
      <trkpt lat="48.20214" lon="3.35222">
        <ele>172</ele>
        <time>2014-05-04T08:37:29.000Z</time>
      </trkpt>
      <trkpt lat="48.20212" lon="3.35225">
        <ele>172</ele>
        <time>2014-05-04T08:37:30.000Z</time>
      </trkpt>
      <trkpt lat="48.2021" lon="3.35225">
        <ele>172</ele>
        <time>2014-05-04T08:37:31.000Z</time>
      </trkpt>
      <trkpt lat="48.20207" lon="3.35225">
        <ele>172</ele>
        <time>2014-05-04T08:37:32.000Z</time>
      </trkpt>
      <trkpt lat="48.20205" lon="3.35227">
        <ele>172</ele>
        <time>2014-05-04T08:37:33.000Z</time>
      </trkpt>
      <trkpt lat="48.20201" lon="3.35227">
        <ele>173</ele>
        <time>2014-05-04T08:37:35.000Z</time>
      </trkpt>
      <trkpt lat="48.20199" lon="3.35227">
        <ele>173</ele>
        <time>2014-05-04T08:37:36.000Z</time>
      </trkpt>
      <trkpt lat="48.20196" lon="3.35229">
        <ele>173</ele>
        <time>2014-05-04T08:37:38.000Z</time>
      </trkpt>
      <trkpt lat="48.20194" lon="3.35229">
        <ele>173</ele>
        <time>2014-05-04T08:37:39.000Z</time>
      </trkpt>
      <trkpt lat="48.20189" lon="3.35229">
        <ele>173</ele>
        <time>2014-05-04T08:37:41.000Z</time>
      </trkpt>
      <trkpt lat="48.20187" lon="3.35227">
        <ele>173</ele>
        <time>2014-05-04T08:37:42.000Z</time>
      </trkpt>
      <trkpt lat="48.20183" lon="3.35227">
        <ele>173</ele>
        <time>2014-05-04T08:37:44.000Z</time>
      </trkpt>
      <trkpt lat="48.20181" lon="3.35227">
        <ele>173</ele>
        <time>2014-05-04T08:37:45.000Z</time>
      </trkpt>
      <trkpt lat="48.20176" lon="3.35227">
        <ele>173</ele>
        <time>2014-05-04T08:37:47.000Z</time>
      </trkpt>
      <trkpt lat="48.20174" lon="3.35229">
        <ele>174</ele>
        <time>2014-05-04T08:37:48.000Z</time>
      </trkpt>
      <trkpt lat="48.20172" lon="3.35229">
        <ele>174</ele>
        <time>2014-05-04T08:37:49.000Z</time>
      </trkpt>
      <trkpt lat="48.2017" lon="3.35233">
        <ele>174</ele>
        <time>2014-05-04T08:37:50.000Z</time>
      </trkpt>
      <trkpt lat="48.20167" lon="3.35235">
        <ele>174</ele>
        <time>2014-05-04T08:37:51.000Z</time>
      </trkpt>
      <trkpt lat="48.20165" lon="3.3524">
        <ele>175</ele>
        <time>2014-05-04T08:37:52.000Z</time>
      </trkpt>
      <trkpt lat="48.20162" lon="3.35244">
        <ele>175</ele>
        <time>2014-05-04T08:37:53.000Z</time>
      </trkpt>
      <trkpt lat="48.20159" lon="3.3525">
        <ele>177</ele>
        <time>2014-05-04T08:37:54.000Z</time>
      </trkpt>
      <trkpt lat="48.20158" lon="3.35255">
        <ele>177</ele>
        <time>2014-05-04T08:37:55.000Z</time>
      </trkpt>
      <trkpt lat="48.20156" lon="3.35259">
        <ele>177</ele>
        <time>2014-05-04T08:37:56.000Z</time>
      </trkpt>
      <trkpt lat="48.20154" lon="3.35263">
        <ele>178</ele>
        <time>2014-05-04T08:37:57.000Z</time>
      </trkpt>
      <trkpt lat="48.20152" lon="3.35268">
        <ele>178</ele>
        <time>2014-05-04T08:37:58.000Z</time>
      </trkpt>
      <trkpt lat="48.2015" lon="3.35272">
        <ele>178</ele>
        <time>2014-05-04T08:37:59.000Z</time>
      </trkpt>
      <trkpt lat="48.20148" lon="3.35276">
        <ele>178</ele>
        <time>2014-05-04T08:38:00.000Z</time>
      </trkpt>
      <trkpt lat="48.20146" lon="3.35278">
        <ele>178</ele>
        <time>2014-05-04T08:38:01.000Z</time>
      </trkpt>
      <trkpt lat="48.20144" lon="3.35283">
        <ele>179</ele>
        <time>2014-05-04T08:38:02.000Z</time>
      </trkpt>
      <trkpt lat="48.20141" lon="3.35287">
        <ele>179</ele>
        <time>2014-05-04T08:38:04.000Z</time>
      </trkpt>
      <trkpt lat="48.20139" lon="3.35289">
        <ele>179</ele>
        <time>2014-05-04T08:38:05.000Z</time>
      </trkpt>
      <trkpt lat="48.20136" lon="3.35293">
        <ele>179</ele>
        <time>2014-05-04T08:38:07.000Z</time>
      </trkpt>
      <trkpt lat="48.20135" lon="3.35293">
        <ele>179</ele>
        <time>2014-05-04T08:38:08.000Z</time>
      </trkpt>
      <trkpt lat="48.20132" lon="3.35289">
        <ele>179</ele>
        <time>2014-05-04T08:38:38.000Z</time>
      </trkpt>
      <trkpt lat="48.20132" lon="3.35287">
        <ele>179</ele>
        <time>2014-05-04T08:38:39.000Z</time>
      </trkpt>
      <trkpt lat="48.20131" lon="3.3528">
        <ele>179</ele>
        <time>2014-05-04T08:39:22.000Z</time>
      </trkpt>
      <trkpt lat="48.2013" lon="3.3528">
        <ele>179</ele>
        <time>2014-05-04T08:39:23.000Z</time>
      </trkpt>
      <trkpt lat="48.20132" lon="3.35285">
        <ele>179</ele>
        <time>2014-05-04T08:39:28.000Z</time>
      </trkpt>
      <trkpt lat="48.20132" lon="3.35287">
        <ele>179</ele>
        <time>2014-05-04T08:39:29.000Z</time>
      </trkpt>
      <trkpt lat="48.20133" lon="3.35291">
        <ele>179</ele>
        <time>2014-05-04T08:39:40.000Z</time>
      </trkpt>
      <trkpt lat="48.20135" lon="3.35293">
        <ele>179</ele>
        <time>2014-05-04T08:39:41.000Z</time>
      </trkpt>
      <trkpt lat="48.20131" lon="3.35298">
        <ele>179</ele>
        <time>2014-05-04T08:40:23.000Z</time>
      </trkpt>
      <trkpt lat="48.2013" lon="3.35295">
        <ele>179</ele>
        <time>2014-05-04T08:40:24.000Z</time>
      </trkpt>
      <trkpt lat="48.20131" lon="3.35302">
        <ele>179</ele>
        <time>2014-05-04T08:40:48.000Z</time>
      </trkpt>
      <trkpt lat="48.20131" lon="3.35304">
        <ele>179</ele>
        <time>2014-05-04T08:40:49.000Z</time>
      </trkpt>
      <trkpt lat="48.2013" lon="3.35298">
        <ele>179</ele>
        <time>2014-05-04T08:41:27.000Z</time>
      </trkpt>
      <trkpt lat="48.20129" lon="3.35298">
        <ele>179</ele>
        <time>2014-05-04T08:41:28.000Z</time>
      </trkpt>
      <trkpt lat="48.20127" lon="3.35293">
        <ele>179</ele>
        <time>2014-05-04T08:41:37.000Z</time>
      </trkpt>
      <trkpt lat="48.20127" lon="3.35291">
        <ele>179</ele>
        <time>2014-05-04T08:41:38.000Z</time>
      </trkpt>
      <trkpt lat="48.20124" lon="3.35287">
        <ele>179</ele>
        <time>2014-05-04T08:41:54.000Z</time>
      </trkpt>
      <trkpt lat="48.20123" lon="3.35287">
        <ele>179</ele>
        <time>2014-05-04T08:41:55.000Z</time>
      </trkpt>
      <trkpt lat="48.2012" lon="3.35289">
        <ele>179</ele>
        <time>2014-05-04T08:42:09.000Z</time>
      </trkpt>
      <trkpt lat="48.20118" lon="3.35291">
        <ele>179</ele>
        <time>2014-05-04T08:42:10.000Z</time>
      </trkpt>
      <trkpt lat="48.20116" lon="3.35295">
        <ele>179</ele>
        <time>2014-05-04T08:42:13.000Z</time>
      </trkpt>
      <trkpt lat="48.20115" lon="3.35298">
        <ele>179</ele>
        <time>2014-05-04T08:42:14.000Z</time>
      </trkpt>
      <trkpt lat="48.20113" lon="3.353">
        <ele>179</ele>
        <time>2014-05-04T08:42:15.000Z</time>
      </trkpt>
      <trkpt lat="48.2011" lon="3.35302">
        <ele>179</ele>
        <time>2014-05-04T08:42:16.000Z</time>
      </trkpt>
      <trkpt lat="48.20108" lon="3.35306">
        <ele>180</ele>
        <time>2014-05-04T08:42:17.000Z</time>
      </trkpt>
      <trkpt lat="48.20106" lon="3.35308">
        <ele>180</ele>
        <time>2014-05-04T08:42:18.000Z</time>
      </trkpt>
      <trkpt lat="48.20102" lon="3.35308">
        <ele>180</ele>
        <time>2014-05-04T08:42:19.000Z</time>
      </trkpt>
      <trkpt lat="48.201" lon="3.3531">
        <ele>180</ele>
        <time>2014-05-04T08:42:20.000Z</time>
      </trkpt>
      <trkpt lat="48.20098" lon="3.35313">
        <ele>180</ele>
        <time>2014-05-04T08:42:21.000Z</time>
      </trkpt>
      <trkpt lat="48.20096" lon="3.35315">
        <ele>180</ele>
        <time>2014-05-04T08:42:22.000Z</time>
      </trkpt>
      <trkpt lat="48.20093" lon="3.35317">
        <ele>180</ele>
        <time>2014-05-04T08:42:23.000Z</time>
      </trkpt>
      <trkpt lat="48.20091" lon="3.35317">
        <ele>180</ele>
        <time>2014-05-04T08:42:24.000Z</time>
      </trkpt>
      <trkpt lat="48.20088" lon="3.35319">
        <ele>181</ele>
        <time>2014-05-04T08:42:25.000Z</time>
      </trkpt>
      <trkpt lat="48.20086" lon="3.35323">
        <ele>181</ele>
        <time>2014-05-04T08:42:26.000Z</time>
      </trkpt>
      <trkpt lat="48.20084" lon="3.35325">
        <ele>181</ele>
        <time>2014-05-04T08:42:27.000Z</time>
      </trkpt>
      <trkpt lat="48.20082" lon="3.35328">
        <ele>181</ele>
        <time>2014-05-04T08:42:28.000Z</time>
      </trkpt>
      <trkpt lat="48.2008" lon="3.35332">
        <ele>181</ele>
        <time>2014-05-04T08:42:29.000Z</time>
      </trkpt>
      <trkpt lat="48.20079" lon="3.35336">
        <ele>182</ele>
        <time>2014-05-04T08:42:30.000Z</time>
      </trkpt>
      <trkpt lat="48.20077" lon="3.35343">
        <ele>182</ele>
        <time>2014-05-04T08:42:31.000Z</time>
      </trkpt>
      <trkpt lat="48.20074" lon="3.35347">
        <ele>182</ele>
        <time>2014-05-04T08:42:32.000Z</time>
      </trkpt>
      <trkpt lat="48.20072" lon="3.35353">
        <ele>182</ele>
        <time>2014-05-04T08:42:33.000Z</time>
      </trkpt>
      <trkpt lat="48.20071" lon="3.35358">
        <ele>182</ele>
        <time>2014-05-04T08:42:34.000Z</time>
      </trkpt>
      <trkpt lat="48.2007" lon="3.35364">
        <ele>183</ele>
        <time>2014-05-04T08:42:35.000Z</time>
      </trkpt>
      <trkpt lat="48.20068" lon="3.35371">
        <ele>183</ele>
        <time>2014-05-04T08:42:36.000Z</time>
      </trkpt>
      <trkpt lat="48.20067" lon="3.35375">
        <ele>183</ele>
        <time>2014-05-04T08:42:37.000Z</time>
      </trkpt>
      <trkpt lat="48.20065" lon="3.35381">
        <ele>183</ele>
        <time>2014-05-04T08:42:38.000Z</time>
      </trkpt>
      <trkpt lat="48.20064" lon="3.35386">
        <ele>183</ele>
        <time>2014-05-04T08:42:39.000Z</time>
      </trkpt>
      <trkpt lat="48.20063" lon="3.3539">
        <ele>183</ele>
        <time>2014-05-04T08:42:40.000Z</time>
      </trkpt>
      <trkpt lat="48.2006" lon="3.35396">
        <ele>183</ele>
        <time>2014-05-04T08:42:41.000Z</time>
      </trkpt>
      <trkpt lat="48.20059" lon="3.35401">
        <ele>183</ele>
        <time>2014-05-04T08:42:42.000Z</time>
      </trkpt>
      <trkpt lat="48.20058" lon="3.35405">
        <ele>183</ele>
        <time>2014-05-04T08:42:43.000Z</time>
      </trkpt>
      <trkpt lat="48.20057" lon="3.35409">
        <ele>183</ele>
        <time>2014-05-04T08:42:44.000Z</time>
      </trkpt>
      <trkpt lat="48.20055" lon="3.35413">
        <ele>183</ele>
        <time>2014-05-04T08:42:45.000Z</time>
      </trkpt>
      <trkpt lat="48.20054" lon="3.35418">
        <ele>185</ele>
        <time>2014-05-04T08:42:46.000Z</time>
      </trkpt>
      <trkpt lat="48.20053" lon="3.35422">
        <ele>185</ele>
        <time>2014-05-04T08:42:47.000Z</time>
      </trkpt>
      <trkpt lat="48.20052" lon="3.35426">
        <ele>185</ele>
        <time>2014-05-04T08:42:48.000Z</time>
      </trkpt>
      <trkpt lat="48.2005" lon="3.35431">
        <ele>184</ele>
        <time>2014-05-04T08:42:49.000Z</time>
      </trkpt>
      <trkpt lat="48.20049" lon="3.35435">
        <ele>184</ele>
        <time>2014-05-04T08:42:50.000Z</time>
      </trkpt>
      <trkpt lat="48.20047" lon="3.35439">
        <ele>184</ele>
        <time>2014-05-04T08:42:51.000Z</time>
      </trkpt>
      <trkpt lat="48.20045" lon="3.35443">
        <ele>184</ele>
        <time>2014-05-04T08:42:52.000Z</time>
      </trkpt>
      <trkpt lat="48.20044" lon="3.35448">
        <ele>184</ele>
        <time>2014-05-04T08:42:53.000Z</time>
      </trkpt>
      <trkpt lat="48.20043" lon="3.35452">
        <ele>184</ele>
        <time>2014-05-04T08:42:54.000Z</time>
      </trkpt>
      <trkpt lat="48.20041" lon="3.35454">
        <ele>184</ele>
        <time>2014-05-04T08:42:55.000Z</time>
      </trkpt>
      <trkpt lat="48.20039" lon="3.35456">
        <ele>184</ele>
        <time>2014-05-04T08:42:56.000Z</time>
      </trkpt>
      <trkpt lat="48.20037" lon="3.35459">
        <ele>184</ele>
        <time>2014-05-04T08:42:57.000Z</time>
      </trkpt>
      <trkpt lat="48.20033" lon="3.35461">
        <ele>184</ele>
        <time>2014-05-04T08:42:59.000Z</time>
      </trkpt>
      <trkpt lat="48.2003" lon="3.35463">
        <ele>184</ele>
        <time>2014-05-04T08:43:00.000Z</time>
      </trkpt>
      <trkpt lat="48.20026" lon="3.35465">
        <ele>184</ele>
        <time>2014-05-04T08:43:02.000Z</time>
      </trkpt>
      <trkpt lat="48.20024" lon="3.35465">
        <ele>184</ele>
        <time>2014-05-04T08:43:03.000Z</time>
      </trkpt>
      <trkpt lat="48.20021" lon="3.35467">
        <ele>184</ele>
        <time>2014-05-04T08:43:05.000Z</time>
      </trkpt>
      <trkpt lat="48.20019" lon="3.35467">
        <ele>184</ele>
        <time>2014-05-04T08:43:06.000Z</time>
      </trkpt>
      <trkpt lat="48.20015" lon="3.35467">
        <ele>184</ele>
        <time>2014-05-04T08:43:08.000Z</time>
      </trkpt>
      <trkpt lat="48.20013" lon="3.35467">
        <ele>184</ele>
        <time>2014-05-04T08:43:09.000Z</time>
      </trkpt>
      <trkpt lat="48.20009" lon="3.35467">
        <ele>184</ele>
        <time>2014-05-04T08:43:11.000Z</time>
      </trkpt>
      <trkpt lat="48.20007" lon="3.35465">
        <ele>184</ele>
        <time>2014-05-04T08:43:12.000Z</time>
      </trkpt>
      <trkpt lat="48.20003" lon="3.35463">
        <ele>184</ele>
        <time>2014-05-04T08:43:15.000Z</time>
      </trkpt>
      <trkpt lat="48.2" lon="3.35461">
        <ele>184</ele>
        <time>2014-05-04T08:43:16.000Z</time>
      </trkpt>
      <trkpt lat="48.19997" lon="3.35461">
        <ele>181</ele>
        <time>2014-05-04T08:43:17.000Z</time>
      </trkpt>
      <trkpt lat="48.19993" lon="3.35459">
        <ele>181</ele>
        <time>2014-05-04T08:43:18.000Z</time>
      </trkpt>
      <trkpt lat="48.19988" lon="3.35456">
        <ele>181</ele>
        <time>2014-05-04T08:43:19.000Z</time>
      </trkpt>
      <trkpt lat="48.19983" lon="3.35456">
        <ele>181</ele>
        <time>2014-05-04T08:43:20.000Z</time>
      </trkpt>
      <trkpt lat="48.19978" lon="3.35456">
        <ele>181</ele>
        <time>2014-05-04T08:43:21.000Z</time>
      </trkpt>
      <trkpt lat="48.19973" lon="3.35454">
        <ele>181</ele>
        <time>2014-05-04T08:43:22.000Z</time>
      </trkpt>
      <trkpt lat="48.19967" lon="3.35454">
        <ele>181</ele>
        <time>2014-05-04T08:43:23.000Z</time>
      </trkpt>
      <trkpt lat="48.19962" lon="3.35454">
        <ele>180</ele>
        <time>2014-05-04T08:43:24.000Z</time>
      </trkpt>
      <trkpt lat="48.19957" lon="3.35454">
        <ele>180</ele>
        <time>2014-05-04T08:43:25.000Z</time>
      </trkpt>
      <trkpt lat="48.19952" lon="3.35452">
        <ele>180</ele>
        <time>2014-05-04T08:43:26.000Z</time>
      </trkpt>
      <trkpt lat="48.19948" lon="3.35452">
        <ele>180</ele>
        <time>2014-05-04T08:43:27.000Z</time>
      </trkpt>
      <trkpt lat="48.19942" lon="3.35452">
        <ele>180</ele>
        <time>2014-05-04T08:43:28.000Z</time>
      </trkpt>
      <trkpt lat="48.19938" lon="3.3545">
        <ele>180</ele>
        <time>2014-05-04T08:43:29.000Z</time>
      </trkpt>
      <trkpt lat="48.19934" lon="3.3545">
        <ele>179</ele>
        <time>2014-05-04T08:43:30.000Z</time>
      </trkpt>
      <trkpt lat="48.19929" lon="3.3545">
        <ele>179</ele>
        <time>2014-05-04T08:43:31.000Z</time>
      </trkpt>
      <trkpt lat="48.19924" lon="3.3545">
        <ele>179</ele>
        <time>2014-05-04T08:43:32.000Z</time>
      </trkpt>
      <trkpt lat="48.19919" lon="3.35452">
        <ele>179</ele>
        <time>2014-05-04T08:43:33.000Z</time>
      </trkpt>
      <trkpt lat="48.19915" lon="3.35452">
        <ele>174</ele>
        <time>2014-05-04T08:43:34.000Z</time>
      </trkpt>
      <trkpt lat="48.1991" lon="3.35454">
        <ele>174</ele>
        <time>2014-05-04T08:43:35.000Z</time>
      </trkpt>
      <trkpt lat="48.19906" lon="3.35454">
        <ele>174</ele>
        <time>2014-05-04T08:43:36.000Z</time>
      </trkpt>
      <trkpt lat="48.19903" lon="3.35456">
        <ele>173</ele>
        <time>2014-05-04T08:43:37.000Z</time>
      </trkpt>
      <trkpt lat="48.199" lon="3.35454">
        <ele>173</ele>
        <time>2014-05-04T08:43:38.000Z</time>
      </trkpt>
      <trkpt lat="48.19896" lon="3.35452">
        <ele>173</ele>
        <time>2014-05-04T08:43:39.000Z</time>
      </trkpt>
      <trkpt lat="48.19893" lon="3.35452">
        <ele>173</ele>
        <time>2014-05-04T08:43:40.000Z</time>
      </trkpt>
      <trkpt lat="48.1989" lon="3.3545">
        <ele>173</ele>
        <time>2014-05-04T08:43:41.000Z</time>
      </trkpt>
      <trkpt lat="48.19887" lon="3.3545">
        <ele>173</ele>
        <time>2014-05-04T08:43:42.000Z</time>
      </trkpt>
      <trkpt lat="48.19885" lon="3.35448">
        <ele>172</ele>
        <time>2014-05-04T08:43:43.000Z</time>
      </trkpt>
      <trkpt lat="48.19882" lon="3.35448">
        <ele>172</ele>
        <time>2014-05-04T08:43:56.000Z</time>
      </trkpt>
      <trkpt lat="48.19875" lon="3.35437">
        <ele>172</ele>
        <time>2014-05-04T08:43:57.000Z</time>
      </trkpt>
      <trkpt lat="48.19875" lon="3.35437">
        <ele>172</ele>
        <time>2014-05-04T08:44:03.000Z</time>
      </trkpt>
      <trkpt lat="48.19865" lon="3.35437">
        <ele>171</ele>
        <time>2014-05-04T08:44:04.000Z</time>
      </trkpt>
      <trkpt lat="48.19862" lon="3.35439">
        <ele>171</ele>
        <time>2014-05-04T08:44:05.000Z</time>
      </trkpt>
      <trkpt lat="48.19858" lon="3.35441">
        <ele>171</ele>
        <time>2014-05-04T08:44:06.000Z</time>
      </trkpt>
      <trkpt lat="48.19852" lon="3.35446">
        <ele>170</ele>
        <time>2014-05-04T08:44:07.000Z</time>
      </trkpt>
      <trkpt lat="48.19848" lon="3.3545">
        <ele>170</ele>
        <time>2014-05-04T08:44:08.000Z</time>
      </trkpt>
      <trkpt lat="48.19843" lon="3.35452">
        <ele>170</ele>
        <time>2014-05-04T08:44:09.000Z</time>
      </trkpt>
      <trkpt lat="48.19837" lon="3.35456">
        <ele>170</ele>
        <time>2014-05-04T08:44:10.000Z</time>
      </trkpt>
      <trkpt lat="48.19833" lon="3.35459">
        <ele>160</ele>
        <time>2014-05-04T08:44:11.000Z</time>
      </trkpt>
      <trkpt lat="48.19828" lon="3.35463">
        <ele>160</ele>
        <time>2014-05-04T08:44:12.000Z</time>
      </trkpt>
      <trkpt lat="48.19823" lon="3.35465">
        <ele>160</ele>
        <time>2014-05-04T08:44:13.000Z</time>
      </trkpt>
      <trkpt lat="48.19818" lon="3.35469">
        <ele>160</ele>
        <time>2014-05-04T08:44:14.000Z</time>
      </trkpt>
      <trkpt lat="48.19813" lon="3.35471">
        <ele>159</ele>
        <time>2014-05-04T08:44:15.000Z</time>
      </trkpt>
      <trkpt lat="48.19807" lon="3.35474">
        <ele>159</ele>
        <time>2014-05-04T08:44:16.000Z</time>
      </trkpt>
      <trkpt lat="48.19802" lon="3.35478">
        <ele>158</ele>
        <time>2014-05-04T08:44:17.000Z</time>
      </trkpt>
      <trkpt lat="48.19795" lon="3.35478">
        <ele>157</ele>
        <time>2014-05-04T08:44:18.000Z</time>
      </trkpt>
      <trkpt lat="48.19791" lon="3.35478">
        <ele>157</ele>
        <time>2014-05-04T08:44:19.000Z</time>
      </trkpt>
      <trkpt lat="48.19786" lon="3.35478">
        <ele>156</ele>
        <time>2014-05-04T08:44:20.000Z</time>
      </trkpt>
      <trkpt lat="48.19782" lon="3.35476">
        <ele>156</ele>
        <time>2014-05-04T08:44:21.000Z</time>
      </trkpt>
      <trkpt lat="48.19777" lon="3.35474">
        <ele>155</ele>
        <time>2014-05-04T08:44:22.000Z</time>
      </trkpt>
      <trkpt lat="48.19774" lon="3.35471">
        <ele>155</ele>
        <time>2014-05-04T08:44:23.000Z</time>
      </trkpt>
      <trkpt lat="48.1977" lon="3.35471">
        <ele>154</ele>
        <time>2014-05-04T08:44:24.000Z</time>
      </trkpt>
      <trkpt lat="48.19767" lon="3.35469">
        <ele>154</ele>
        <time>2014-05-04T08:44:25.000Z</time>
      </trkpt>
      <trkpt lat="48.19763" lon="3.35467">
        <ele>154</ele>
        <time>2014-05-04T08:44:26.000Z</time>
      </trkpt>
      <trkpt lat="48.1976" lon="3.35467">
        <ele>154</ele>
        <time>2014-05-04T08:44:28.000Z</time>
      </trkpt>
      <trkpt lat="48.19758" lon="3.35465">
        <ele>154</ele>
        <time>2014-05-04T08:44:29.000Z</time>
      </trkpt>
      <trkpt lat="48.19757" lon="3.35467">
        <ele>154</ele>
        <time>2014-05-04T08:44:34.000Z</time>
      </trkpt>
      <trkpt lat="48.19747" lon="3.35467">
        <ele>144</ele>
        <time>2014-05-04T08:44:35.000Z</time>
      </trkpt>
      <trkpt lat="48.19744" lon="3.35467">
        <ele>144</ele>
        <time>2014-05-04T08:44:36.000Z</time>
      </trkpt>
      <trkpt lat="48.19742" lon="3.35467">
        <ele>144</ele>
        <time>2014-05-04T08:44:37.000Z</time>
      </trkpt>
      <trkpt lat="48.19739" lon="3.35467">
        <ele>143</ele>
        <time>2014-05-04T08:44:38.000Z</time>
      </trkpt>
      <trkpt lat="48.19735" lon="3.35467">
        <ele>143</ele>
        <time>2014-05-04T08:44:39.000Z</time>
      </trkpt>
      <trkpt lat="48.19733" lon="3.35467">
        <ele>143</ele>
        <time>2014-05-04T08:44:44.000Z</time>
      </trkpt>
      <trkpt lat="48.1972" lon="3.35467">
        <ele>142</ele>
        <time>2014-05-04T08:44:45.000Z</time>
      </trkpt>
      <trkpt lat="48.1972" lon="3.35467">
        <ele>142</ele>
        <time>2014-05-04T08:44:49.000Z</time>
      </trkpt>
      <trkpt lat="48.19712" lon="3.35471">
        <ele>142</ele>
        <time>2014-05-04T08:44:50.000Z</time>
      </trkpt>
      <trkpt lat="48.19712" lon="3.35471">
        <ele>142</ele>
        <time>2014-05-04T08:44:54.000Z</time>
      </trkpt>
      <trkpt lat="48.197" lon="3.35478">
        <ele>140</ele>
        <time>2014-05-04T08:44:55.000Z</time>
      </trkpt>
      <trkpt lat="48.197" lon="3.35478">
        <ele>140</ele>
        <time>2014-05-04T08:44:57.000Z</time>
      </trkpt>
      <trkpt lat="48.19691" lon="3.35484">
        <ele>140</ele>
        <time>2014-05-04T08:44:58.000Z</time>
      </trkpt>
      <trkpt lat="48.19688" lon="3.35489">
        <ele>139</ele>
        <time>2014-05-04T08:45:47.000Z</time>
      </trkpt>
      <trkpt lat="48.19685" lon="3.35497">
        <ele>138</ele>
        <time>2014-05-04T08:45:48.000Z</time>
      </trkpt>
      <trkpt lat="48.19685" lon="3.35497">
        <ele>138</ele>
        <time>2014-05-04T08:45:50.000Z</time>
      </trkpt>
      <trkpt lat="48.19681" lon="3.3551">
        <ele>138</ele>
        <time>2014-05-04T08:45:51.000Z</time>
      </trkpt>
      <trkpt lat="48.19681" lon="3.3551">
        <ele>138</ele>
        <time>2014-05-04T08:45:53.000Z</time>
      </trkpt>
      <trkpt lat="48.19676" lon="3.35525">
        <ele>138</ele>
        <time>2014-05-04T08:45:54.000Z</time>
      </trkpt>
      <trkpt lat="48.19676" lon="3.35525">
        <ele>138</ele>
        <time>2014-05-04T08:45:55.000Z</time>
      </trkpt>
      <trkpt lat="48.19674" lon="3.35534">
        <ele>138</ele>
        <time>2014-05-04T08:45:56.000Z</time>
      </trkpt>
      <trkpt lat="48.19674" lon="3.35534">
        <ele>138</ele>
        <time>2014-05-04T08:45:57.000Z</time>
      </trkpt>
      <trkpt lat="48.19673" lon="3.35542">
        <ele>138</ele>
        <time>2014-05-04T08:45:58.000Z</time>
      </trkpt>
      <trkpt lat="48.19673" lon="3.35542">
        <ele>138</ele>
        <time>2014-05-04T08:46:01.000Z</time>
      </trkpt>
      <trkpt lat="48.1967" lon="3.35557">
        <ele>138</ele>
        <time>2014-05-04T08:46:02.000Z</time>
      </trkpt>
      <trkpt lat="48.1967" lon="3.35557">
        <ele>138</ele>
        <time>2014-05-04T08:46:03.000Z</time>
      </trkpt>
      <trkpt lat="48.19669" lon="3.35566">
        <ele>138</ele>
        <time>2014-05-04T08:46:04.000Z</time>
      </trkpt>
      <trkpt lat="48.19669" lon="3.35566">
        <ele>138</ele>
        <time>2014-05-04T08:46:05.000Z</time>
      </trkpt>
      <trkpt lat="48.19668" lon="3.35574">
        <ele>137</ele>
        <time>2014-05-04T08:46:06.000Z</time>
      </trkpt>
      <trkpt lat="48.19668" lon="3.35574">
        <ele>137</ele>
        <time>2014-05-04T08:46:09.000Z</time>
      </trkpt>
      <trkpt lat="48.19667" lon="3.35587">
        <ele>136</ele>
        <time>2014-05-04T08:46:10.000Z</time>
      </trkpt>
      <trkpt lat="48.19667" lon="3.35587">
        <ele>136</ele>
        <time>2014-05-04T08:46:13.000Z</time>
      </trkpt>
      <trkpt lat="48.19665" lon="3.35602">
        <ele>138</ele>
        <time>2014-05-04T08:46:14.000Z</time>
      </trkpt>
      <trkpt lat="48.19665" lon="3.35602">
        <ele>138</ele>
        <time>2014-05-04T08:46:16.000Z</time>
      </trkpt>
      <trkpt lat="48.19664" lon="3.35611">
        <ele>139</ele>
        <time>2014-05-04T08:46:17.000Z</time>
      </trkpt>
      <trkpt lat="48.19664" lon="3.35611">
        <ele>139</ele>
        <time>2014-05-04T08:46:21.000Z</time>
      </trkpt>
      <trkpt lat="48.19662" lon="3.35628">
        <ele>139</ele>
        <time>2014-05-04T08:46:22.000Z</time>
      </trkpt>
      <trkpt lat="48.19662" lon="3.35628">
        <ele>139</ele>
        <time>2014-05-04T08:46:26.000Z</time>
      </trkpt>
      <trkpt lat="48.19661" lon="3.35643">
        <ele>140</ele>
        <time>2014-05-04T08:46:27.000Z</time>
      </trkpt>
      <trkpt lat="48.19661" lon="3.35643">
        <ele>140</ele>
        <time>2014-05-04T08:46:30.000Z</time>
      </trkpt>
      <trkpt lat="48.19659" lon="3.35658">
        <ele>140</ele>
        <time>2014-05-04T08:46:31.000Z</time>
      </trkpt>
      <trkpt lat="48.19659" lon="3.35658">
        <ele>140</ele>
        <time>2014-05-04T08:46:34.000Z</time>
      </trkpt>
      <trkpt lat="48.19658" lon="3.35671">
        <ele>141</ele>
        <time>2014-05-04T08:46:35.000Z</time>
      </trkpt>
      <trkpt lat="48.19658" lon="3.35671">
        <ele>141</ele>
        <time>2014-05-04T08:46:39.000Z</time>
      </trkpt>
      <trkpt lat="48.19657" lon="3.35686">
        <ele>141</ele>
        <time>2014-05-04T08:46:40.000Z</time>
      </trkpt>
      <trkpt lat="48.19657" lon="3.35692">
        <ele>142</ele>
        <time>2014-05-04T08:46:42.000Z</time>
      </trkpt>
      <trkpt lat="48.19657" lon="3.35695">
        <ele>142</ele>
        <time>2014-05-04T08:46:43.000Z</time>
      </trkpt>
      <trkpt lat="48.19657" lon="3.35701">
        <ele>142</ele>
        <time>2014-05-04T08:46:45.000Z</time>
      </trkpt>
      <trkpt lat="48.19657" lon="3.35705">
        <ele>142</ele>
        <time>2014-05-04T08:46:46.000Z</time>
      </trkpt>
      <trkpt lat="48.19657" lon="3.35712">
        <ele>142</ele>
        <time>2014-05-04T08:46:48.000Z</time>
      </trkpt>
      <trkpt lat="48.19657" lon="3.35716">
        <ele>142</ele>
        <time>2014-05-04T08:46:49.000Z</time>
      </trkpt>
      <trkpt lat="48.19656" lon="3.35722">
        <ele>142</ele>
        <time>2014-05-04T08:46:51.000Z</time>
      </trkpt>
      <trkpt lat="48.19656" lon="3.35727">
        <ele>143</ele>
        <time>2014-05-04T08:46:52.000Z</time>
      </trkpt>
      <trkpt lat="48.19655" lon="3.35733">
        <ele>143</ele>
        <time>2014-05-04T08:46:54.000Z</time>
      </trkpt>
      <trkpt lat="48.19654" lon="3.35735">
        <ele>143</ele>
        <time>2014-05-04T08:46:55.000Z</time>
      </trkpt>
      <trkpt lat="48.19653" lon="3.35742">
        <ele>143</ele>
        <time>2014-05-04T08:46:57.000Z</time>
      </trkpt>
      <trkpt lat="48.19652" lon="3.35746">
        <ele>143</ele>
        <time>2014-05-04T08:46:58.000Z</time>
      </trkpt>
      <trkpt lat="48.19651" lon="3.35748">
        <ele>143</ele>
        <time>2014-05-04T08:46:59.000Z</time>
      </trkpt>
      <trkpt lat="48.19649" lon="3.35752">
        <ele>145</ele>
        <time>2014-05-04T08:47:00.000Z</time>
      </trkpt>
      <trkpt lat="48.19647" lon="3.35755">
        <ele>145</ele>
        <time>2014-05-04T08:47:01.000Z</time>
      </trkpt>
      <trkpt lat="48.19646" lon="3.35759">
        <ele>145</ele>
        <time>2014-05-04T08:47:02.000Z</time>
      </trkpt>
      <trkpt lat="48.19645" lon="3.35761">
        <ele>145</ele>
        <time>2014-05-04T08:47:03.000Z</time>
      </trkpt>
      <trkpt lat="48.19644" lon="3.35765">
        <ele>145</ele>
        <time>2014-05-04T08:47:04.000Z</time>
      </trkpt>
      <trkpt lat="48.19643" lon="3.35768">
        <ele>145</ele>
        <time>2014-05-04T08:47:05.000Z</time>
      </trkpt>
      <trkpt lat="48.19641" lon="3.35772">
        <ele>146</ele>
        <time>2014-05-04T08:47:06.000Z</time>
      </trkpt>
      <trkpt lat="48.1964" lon="3.35774">
        <ele>146</ele>
        <time>2014-05-04T08:47:07.000Z</time>
      </trkpt>
      <trkpt lat="48.19639" lon="3.35778">
        <ele>146</ele>
        <time>2014-05-04T08:47:08.000Z</time>
      </trkpt>
      <trkpt lat="48.19638" lon="3.3578">
        <ele>146</ele>
        <time>2014-05-04T08:47:09.000Z</time>
      </trkpt>
      <trkpt lat="48.19637" lon="3.35785">
        <ele>146</ele>
        <time>2014-05-04T08:47:10.000Z</time>
      </trkpt>
      <trkpt lat="48.19636" lon="3.35787">
        <ele>146</ele>
        <time>2014-05-04T08:47:11.000Z</time>
      </trkpt>
      <trkpt lat="48.19633" lon="3.35791">
        <ele>146</ele>
        <time>2014-05-04T08:47:12.000Z</time>
      </trkpt>
      <trkpt lat="48.19632" lon="3.35793">
        <ele>146</ele>
        <time>2014-05-04T08:47:13.000Z</time>
      </trkpt>
      <trkpt lat="48.19631" lon="3.35798">
        <ele>147</ele>
        <time>2014-05-04T08:47:14.000Z</time>
      </trkpt>
      <trkpt lat="48.1963" lon="3.358">
        <ele>147</ele>
        <time>2014-05-04T08:47:15.000Z</time>
      </trkpt>
      <trkpt lat="48.19628" lon="3.35804">
        <ele>147</ele>
        <time>2014-05-04T08:47:16.000Z</time>
      </trkpt>
      <trkpt lat="48.19627" lon="3.35806">
        <ele>147</ele>
        <time>2014-05-04T08:47:17.000Z</time>
      </trkpt>
      <trkpt lat="48.19626" lon="3.3581">
        <ele>147</ele>
        <time>2014-05-04T08:47:18.000Z</time>
      </trkpt>
      <trkpt lat="48.19625" lon="3.35813">
        <ele>147</ele>
        <time>2014-05-04T08:47:19.000Z</time>
      </trkpt>
      <trkpt lat="48.19623" lon="3.35817">
        <ele>147</ele>
        <time>2014-05-04T08:47:20.000Z</time>
      </trkpt>
      <trkpt lat="48.19622" lon="3.35819">
        <ele>147</ele>
        <time>2014-05-04T08:47:21.000Z</time>
      </trkpt>
      <trkpt lat="48.19621" lon="3.35823">
        <ele>148</ele>
        <time>2014-05-04T08:47:22.000Z</time>
      </trkpt>
      <trkpt lat="48.19617" lon="3.35828">
        <ele>148</ele>
        <time>2014-05-04T08:47:24.000Z</time>
      </trkpt>
      <trkpt lat="48.19616" lon="3.35832">
        <ele>148</ele>
        <time>2014-05-04T08:47:25.000Z</time>
      </trkpt>
      <trkpt lat="48.19615" lon="3.35834">
        <ele>150</ele>
        <time>2014-05-04T08:47:26.000Z</time>
      </trkpt>
      <trkpt lat="48.19614" lon="3.35838">
        <ele>150</ele>
        <time>2014-05-04T08:47:27.000Z</time>
      </trkpt>
      <trkpt lat="48.19612" lon="3.3584">
        <ele>150</ele>
        <time>2014-05-04T08:47:28.000Z</time>
      </trkpt>
      <trkpt lat="48.19611" lon="3.35845">
        <ele>150</ele>
        <time>2014-05-04T08:47:29.000Z</time>
      </trkpt>
      <trkpt lat="48.19609" lon="3.35849">
        <ele>150</ele>
        <time>2014-05-04T08:47:31.000Z</time>
      </trkpt>
      <trkpt lat="48.19607" lon="3.35853">
        <ele>150</ele>
        <time>2014-05-04T08:47:32.000Z</time>
      </trkpt>
      <trkpt lat="48.19606" lon="3.35855">
        <ele>150</ele>
        <time>2014-05-04T08:47:33.000Z</time>
      </trkpt>
      <trkpt lat="48.19605" lon="3.3586">
        <ele>150</ele>
        <time>2014-05-04T08:47:34.000Z</time>
      </trkpt>
      <trkpt lat="48.19601" lon="3.35864">
        <ele>150</ele>
        <time>2014-05-04T08:47:36.000Z</time>
      </trkpt>
      <trkpt lat="48.196" lon="3.35868">
        <ele>150</ele>
        <time>2014-05-04T08:47:37.000Z</time>
      </trkpt>
      <trkpt lat="48.19597" lon="3.35873">
        <ele>150</ele>
        <time>2014-05-04T08:47:39.000Z</time>
      </trkpt>
      <trkpt lat="48.19595" lon="3.35875">
        <ele>150</ele>
        <time>2014-05-04T08:47:40.000Z</time>
      </trkpt>
      <trkpt lat="48.19593" lon="3.35879">
        <ele>150</ele>
        <time>2014-05-04T08:47:41.000Z</time>
      </trkpt>
      <trkpt lat="48.19589" lon="3.35881">
        <ele>150</ele>
        <time>2014-05-04T08:47:42.000Z</time>
      </trkpt>
      <trkpt lat="48.19587" lon="3.35883">
        <ele>150</ele>
        <time>2014-05-04T08:47:43.000Z</time>
      </trkpt>
      <trkpt lat="48.19585" lon="3.35886">
        <ele>150</ele>
        <time>2014-05-04T08:47:44.000Z</time>
      </trkpt>
      <trkpt lat="48.19583" lon="3.35888">
        <ele>154</ele>
        <time>2014-05-04T08:47:45.000Z</time>
      </trkpt>
      <trkpt lat="48.19581" lon="3.35892">
        <ele>154</ele>
        <time>2014-05-04T08:47:46.000Z</time>
      </trkpt>
      <trkpt lat="48.19578" lon="3.35894">
        <ele>154</ele>
        <time>2014-05-04T08:47:47.000Z</time>
      </trkpt>
      <trkpt lat="48.19576" lon="3.35896">
        <ele>154</ele>
        <time>2014-05-04T08:47:48.000Z</time>
      </trkpt>
      <trkpt lat="48.19573" lon="3.35898">
        <ele>154</ele>
        <time>2014-05-04T08:47:49.000Z</time>
      </trkpt>
      <trkpt lat="48.19571" lon="3.35901">
        <ele>154</ele>
        <time>2014-05-04T08:47:50.000Z</time>
      </trkpt>
      <trkpt lat="48.19569" lon="3.35903">
        <ele>154</ele>
        <time>2014-05-04T08:47:51.000Z</time>
      </trkpt>
      <trkpt lat="48.19567" lon="3.35905">
        <ele>154</ele>
        <time>2014-05-04T08:47:52.000Z</time>
      </trkpt>
      <trkpt lat="48.19565" lon="3.35907">
        <ele>155</ele>
        <time>2014-05-04T08:47:53.000Z</time>
      </trkpt>
      <trkpt lat="48.19563" lon="3.35909">
        <ele>155</ele>
        <time>2014-05-04T08:47:54.000Z</time>
      </trkpt>
      <trkpt lat="48.19561" lon="3.35911">
        <ele>155</ele>
        <time>2014-05-04T08:47:55.000Z</time>
      </trkpt>
      <trkpt lat="48.19558" lon="3.35916">
        <ele>155</ele>
        <time>2014-05-04T08:47:56.000Z</time>
      </trkpt>
      <trkpt lat="48.19556" lon="3.35918">
        <ele>156</ele>
        <time>2014-05-04T08:47:57.000Z</time>
      </trkpt>
      <trkpt lat="48.19554" lon="3.3592">
        <ele>156</ele>
        <time>2014-05-04T08:47:58.000Z</time>
      </trkpt>
      <trkpt lat="48.19552" lon="3.35922">
        <ele>156</ele>
        <time>2014-05-04T08:47:59.000Z</time>
      </trkpt>
      <trkpt lat="48.1955" lon="3.35924">
        <ele>156</ele>
        <time>2014-05-04T08:48:00.000Z</time>
      </trkpt>
      <trkpt lat="48.19548" lon="3.35928">
        <ele>156</ele>
        <time>2014-05-04T08:48:01.000Z</time>
      </trkpt>
      <trkpt lat="48.19546" lon="3.35931">
        <ele>156</ele>
        <time>2014-05-04T08:48:02.000Z</time>
      </trkpt>
      <trkpt lat="48.19543" lon="3.35933">
        <ele>156</ele>
        <time>2014-05-04T08:48:03.000Z</time>
      </trkpt>
      <trkpt lat="48.19541" lon="3.35935">
        <ele>157</ele>
        <time>2014-05-04T08:48:04.000Z</time>
      </trkpt>
      <trkpt lat="48.19539" lon="3.35937">
        <ele>157</ele>
        <time>2014-05-04T08:48:05.000Z</time>
      </trkpt>
      <trkpt lat="48.19537" lon="3.35941">
        <ele>157</ele>
        <time>2014-05-04T08:48:06.000Z</time>
      </trkpt>
      <trkpt lat="48.19534" lon="3.35946">
        <ele>157</ele>
        <time>2014-05-04T08:48:08.000Z</time>
      </trkpt>
      <trkpt lat="48.19532" lon="3.35948">
        <ele>157</ele>
        <time>2014-05-04T08:48:09.000Z</time>
      </trkpt>
      <trkpt lat="48.19529" lon="3.35952">
        <ele>157</ele>
        <time>2014-05-04T08:48:10.000Z</time>
      </trkpt>
      <trkpt lat="48.19528" lon="3.35954">
        <ele>157</ele>
        <time>2014-05-04T08:48:11.000Z</time>
      </trkpt>
      <trkpt lat="48.19526" lon="3.35956">
        <ele>157</ele>
        <time>2014-05-04T08:48:12.000Z</time>
      </trkpt>
      <trkpt lat="48.19524" lon="3.35961">
        <ele>157</ele>
        <time>2014-05-04T08:48:13.000Z</time>
      </trkpt>
      <trkpt lat="48.19521" lon="3.35965">
        <ele>157</ele>
        <time>2014-05-04T08:48:15.000Z</time>
      </trkpt>
      <trkpt lat="48.19519" lon="3.35967">
        <ele>158</ele>
        <time>2014-05-04T08:48:16.000Z</time>
      </trkpt>
      <trkpt lat="48.19517" lon="3.35971">
        <ele>158</ele>
        <time>2014-05-04T08:48:17.000Z</time>
      </trkpt>
      <trkpt lat="48.19515" lon="3.35974">
        <ele>158</ele>
        <time>2014-05-04T08:48:18.000Z</time>
      </trkpt>
      <trkpt lat="48.19513" lon="3.35976">
        <ele>158</ele>
        <time>2014-05-04T08:48:19.000Z</time>
      </trkpt>
      <trkpt lat="48.19511" lon="3.35978">
        <ele>158</ele>
        <time>2014-05-04T08:48:20.000Z</time>
      </trkpt>
      <trkpt lat="48.19507" lon="3.3598">
        <ele>159</ele>
        <time>2014-05-04T08:48:22.000Z</time>
      </trkpt>
      <trkpt lat="48.19505" lon="3.35982">
        <ele>159</ele>
        <time>2014-05-04T08:48:23.000Z</time>
      </trkpt>
      <trkpt lat="48.19503" lon="3.35984">
        <ele>159</ele>
        <time>2014-05-04T08:48:24.000Z</time>
      </trkpt>
      <trkpt lat="48.195" lon="3.35986">
        <ele>159</ele>
        <time>2014-05-04T08:48:25.000Z</time>
      </trkpt>
      <trkpt lat="48.19497" lon="3.35991">
        <ele>162</ele>
        <time>2014-05-04T08:48:27.000Z</time>
      </trkpt>
      <trkpt lat="48.19495" lon="3.35993">
        <ele>162</ele>
        <time>2014-05-04T08:48:28.000Z</time>
      </trkpt>
      <trkpt lat="48.19492" lon="3.35997">
        <ele>162</ele>
        <time>2014-05-04T08:48:30.000Z</time>
      </trkpt>
      <trkpt lat="48.19491" lon="3.35999">
        <ele>162</ele>
        <time>2014-05-04T08:48:31.000Z</time>
      </trkpt>
      <trkpt lat="48.1949" lon="3.36004">
        <ele>163</ele>
        <time>2014-05-04T08:48:32.000Z</time>
      </trkpt>
      <trkpt lat="48.19489" lon="3.36006">
        <ele>163</ele>
        <time>2014-05-04T08:48:33.000Z</time>
      </trkpt>
      <trkpt lat="48.19485" lon="3.36008">
        <ele>164</ele>
        <time>2014-05-04T08:48:35.000Z</time>
      </trkpt>
      <trkpt lat="48.19484" lon="3.3601">
        <ele>164</ele>
        <time>2014-05-04T08:48:36.000Z</time>
      </trkpt>
      <trkpt lat="48.1948" lon="3.3601">
        <ele>164</ele>
        <time>2014-05-04T08:48:41.000Z</time>
      </trkpt>
      <trkpt lat="48.19479" lon="3.3601">
        <ele>165</ele>
        <time>2014-05-04T08:48:42.000Z</time>
      </trkpt>
      <trkpt lat="48.19477" lon="3.36006">
        <ele>165</ele>
        <time>2014-05-04T08:48:45.000Z</time>
      </trkpt>
      <trkpt lat="48.19477" lon="3.36004">
        <ele>165</ele>
        <time>2014-05-04T08:48:46.000Z</time>
      </trkpt>
      <trkpt lat="48.19475" lon="3.35999">
        <ele>164</ele>
        <time>2014-05-04T08:48:50.000Z</time>
      </trkpt>
      <trkpt lat="48.19474" lon="3.35997">
        <ele>164</ele>
        <time>2014-05-04T08:48:51.000Z</time>
      </trkpt>
      <trkpt lat="48.19473" lon="3.35993">
        <ele>164</ele>
        <time>2014-05-04T08:48:54.000Z</time>
      </trkpt>
      <trkpt lat="48.19471" lon="3.35991">
        <ele>164</ele>
        <time>2014-05-04T08:48:55.000Z</time>
      </trkpt>
      <trkpt lat="48.1947" lon="3.35986">
        <ele>164</ele>
        <time>2014-05-04T08:48:57.000Z</time>
      </trkpt>
      <trkpt lat="48.19469" lon="3.35984">
        <ele>164</ele>
        <time>2014-05-04T08:48:58.000Z</time>
      </trkpt>
      <trkpt lat="48.19467" lon="3.3598">
        <ele>164</ele>
        <time>2014-05-04T08:49:00.000Z</time>
      </trkpt>
      <trkpt lat="48.19466" lon="3.35978">
        <ele>164</ele>
        <time>2014-05-04T08:49:01.000Z</time>
      </trkpt>
      <trkpt lat="48.19463" lon="3.35974">
        <ele>165</ele>
        <time>2014-05-04T08:49:04.000Z</time>
      </trkpt>
      <trkpt lat="48.19462" lon="3.35971">
        <ele>165</ele>
        <time>2014-05-04T08:49:05.000Z</time>
      </trkpt>
      <trkpt lat="48.19459" lon="3.35967">
        <ele>165</ele>
        <time>2014-05-04T08:49:08.000Z</time>
      </trkpt>
      <trkpt lat="48.19456" lon="3.35965">
        <ele>165</ele>
        <time>2014-05-04T08:49:09.000Z</time>
      </trkpt>
      <trkpt lat="48.19453" lon="3.35961">
        <ele>165</ele>
        <time>2014-05-04T08:49:12.000Z</time>
      </trkpt>
      <trkpt lat="48.19451" lon="3.35961">
        <ele>165</ele>
        <time>2014-05-04T08:49:13.000Z</time>
      </trkpt>
      <trkpt lat="48.19448" lon="3.35958">
        <ele>165</ele>
        <time>2014-05-04T08:49:15.000Z</time>
      </trkpt>
      <trkpt lat="48.19446" lon="3.35956">
        <ele>165</ele>
        <time>2014-05-04T08:49:16.000Z</time>
      </trkpt>
      <trkpt lat="48.19441" lon="3.35956">
        <ele>166</ele>
        <time>2014-05-04T08:49:18.000Z</time>
      </trkpt>
      <trkpt lat="48.19439" lon="3.35956">
        <ele>166</ele>
        <time>2014-05-04T08:49:19.000Z</time>
      </trkpt>
      <trkpt lat="48.19435" lon="3.35954">
        <ele>166</ele>
        <time>2014-05-04T08:49:21.000Z</time>
      </trkpt>
      <trkpt lat="48.19433" lon="3.35954">
        <ele>166</ele>
        <time>2014-05-04T08:49:22.000Z</time>
      </trkpt>
      <trkpt lat="48.1943" lon="3.35954">
        <ele>166</ele>
        <time>2014-05-04T08:49:23.000Z</time>
      </trkpt>
      <trkpt lat="48.19427" lon="3.35954">
        <ele>166</ele>
        <time>2014-05-04T08:49:24.000Z</time>
      </trkpt>
      <trkpt lat="48.19424" lon="3.35952">
        <ele>166</ele>
        <time>2014-05-04T08:49:25.000Z</time>
      </trkpt>
      <trkpt lat="48.19421" lon="3.35952">
        <ele>166</ele>
        <time>2014-05-04T08:49:26.000Z</time>
      </trkpt>
      <trkpt lat="48.19419" lon="3.35952">
        <ele>166</ele>
        <time>2014-05-04T08:49:27.000Z</time>
      </trkpt>
      <trkpt lat="48.19416" lon="3.35952">
        <ele>169</ele>
        <time>2014-05-04T08:49:28.000Z</time>
      </trkpt>
      <trkpt lat="48.19412" lon="3.35952">
        <ele>169</ele>
        <time>2014-05-04T08:49:29.000Z</time>
      </trkpt>
      <trkpt lat="48.19409" lon="3.35952">
        <ele>169</ele>
        <time>2014-05-04T08:49:30.000Z</time>
      </trkpt>
      <trkpt lat="48.19405" lon="3.3595">
        <ele>169</ele>
        <time>2014-05-04T08:49:31.000Z</time>
      </trkpt>
      <trkpt lat="48.19401" lon="3.3595">
        <ele>169</ele>
        <time>2014-05-04T08:49:32.000Z</time>
      </trkpt>
      <trkpt lat="48.19396" lon="3.3595">
        <ele>169</ele>
        <time>2014-05-04T08:49:33.000Z</time>
      </trkpt>
      <trkpt lat="48.19392" lon="3.3595">
        <ele>169</ele>
        <time>2014-05-04T08:49:34.000Z</time>
      </trkpt>
      <trkpt lat="48.19388" lon="3.3595">
        <ele>169</ele>
        <time>2014-05-04T08:49:35.000Z</time>
      </trkpt>
      <trkpt lat="48.19384" lon="3.3595">
        <ele>169</ele>
        <time>2014-05-04T08:49:36.000Z</time>
      </trkpt>
      <trkpt lat="48.1938" lon="3.3595">
        <ele>169</ele>
        <time>2014-05-04T08:49:37.000Z</time>
      </trkpt>
      <trkpt lat="48.19376" lon="3.3595">
        <ele>169</ele>
        <time>2014-05-04T08:49:38.000Z</time>
      </trkpt>
      <trkpt lat="48.19372" lon="3.3595">
        <ele>169</ele>
        <time>2014-05-04T08:49:39.000Z</time>
      </trkpt>
      <trkpt lat="48.19368" lon="3.3595">
        <ele>169</ele>
        <time>2014-05-04T08:49:40.000Z</time>
      </trkpt>
      <trkpt lat="48.19364" lon="3.3595">
        <ele>169</ele>
        <time>2014-05-04T08:49:41.000Z</time>
      </trkpt>
      <trkpt lat="48.19361" lon="3.3595">
        <ele>169</ele>
        <time>2014-05-04T08:49:42.000Z</time>
      </trkpt>
      <trkpt lat="48.19358" lon="3.35952">
        <ele>169</ele>
        <time>2014-05-04T08:49:43.000Z</time>
      </trkpt>
      <trkpt lat="48.19355" lon="3.35952">
        <ele>169</ele>
        <time>2014-05-04T08:49:44.000Z</time>
      </trkpt>
      <trkpt lat="48.1935" lon="3.35952">
        <ele>169</ele>
        <time>2014-05-04T08:49:45.000Z</time>
      </trkpt>
      <trkpt lat="48.19347" lon="3.35952">
        <ele>169</ele>
        <time>2014-05-04T08:49:46.000Z</time>
      </trkpt>
      <trkpt lat="48.19344" lon="3.35952">
        <ele>169</ele>
        <time>2014-05-04T08:49:47.000Z</time>
      </trkpt>
      <trkpt lat="48.19342" lon="3.35954">
        <ele>169</ele>
        <time>2014-05-04T08:49:48.000Z</time>
      </trkpt>
      <trkpt lat="48.19338" lon="3.35954">
        <ele>169</ele>
        <time>2014-05-04T08:49:49.000Z</time>
      </trkpt>
      <trkpt lat="48.19335" lon="3.35954">
        <ele>169</ele>
        <time>2014-05-04T08:49:50.000Z</time>
      </trkpt>
      <trkpt lat="48.19332" lon="3.35954">
        <ele>171</ele>
        <time>2014-05-04T08:49:51.000Z</time>
      </trkpt>
      <trkpt lat="48.19329" lon="3.35954">
        <ele>171</ele>
        <time>2014-05-04T08:49:52.000Z</time>
      </trkpt>
      <trkpt lat="48.19327" lon="3.35954">
        <ele>171</ele>
        <time>2014-05-04T08:49:53.000Z</time>
      </trkpt>
      <trkpt lat="48.19323" lon="3.35954">
        <ele>171</ele>
        <time>2014-05-04T08:49:54.000Z</time>
      </trkpt>
      <trkpt lat="48.1932" lon="3.35954">
        <ele>171</ele>
        <time>2014-05-04T08:49:55.000Z</time>
      </trkpt>
      <trkpt lat="48.19316" lon="3.35952">
        <ele>171</ele>
        <time>2014-05-04T08:49:56.000Z</time>
      </trkpt>
      <trkpt lat="48.19311" lon="3.35952">
        <ele>171</ele>
        <time>2014-05-04T08:49:57.000Z</time>
      </trkpt>
      <trkpt lat="48.19306" lon="3.3595">
        <ele>171</ele>
        <time>2014-05-04T08:49:58.000Z</time>
      </trkpt>
      <trkpt lat="48.19302" lon="3.3595">
        <ele>171</ele>
        <time>2014-05-04T08:49:59.000Z</time>
      </trkpt>
      <trkpt lat="48.19298" lon="3.35948">
        <ele>171</ele>
        <time>2014-05-04T08:50:00.000Z</time>
      </trkpt>
      <trkpt lat="48.19294" lon="3.35948">
        <ele>171</ele>
        <time>2014-05-04T08:50:01.000Z</time>
      </trkpt>
      <trkpt lat="48.1929" lon="3.35948">
        <ele>172</ele>
        <time>2014-05-04T08:50:02.000Z</time>
      </trkpt>
      <trkpt lat="48.19286" lon="3.35948">
        <ele>172</ele>
        <time>2014-05-04T08:50:03.000Z</time>
      </trkpt>
      <trkpt lat="48.19282" lon="3.35948">
        <ele>172</ele>
        <time>2014-05-04T08:50:04.000Z</time>
      </trkpt>
      <trkpt lat="48.19277" lon="3.35948">
        <ele>172</ele>
        <time>2014-05-04T08:50:05.000Z</time>
      </trkpt>
      <trkpt lat="48.19273" lon="3.35948">
        <ele>172</ele>
        <time>2014-05-04T08:50:06.000Z</time>
      </trkpt>
      <trkpt lat="48.19269" lon="3.3595">
        <ele>172</ele>
        <time>2014-05-04T08:50:07.000Z</time>
      </trkpt>
      <trkpt lat="48.19264" lon="3.3595">
        <ele>172</ele>
        <time>2014-05-04T08:50:08.000Z</time>
      </trkpt>
      <trkpt lat="48.1926" lon="3.3595">
        <ele>172</ele>
        <time>2014-05-04T08:50:09.000Z</time>
      </trkpt>
      <trkpt lat="48.19256" lon="3.35952">
        <ele>172</ele>
        <time>2014-05-04T08:50:10.000Z</time>
      </trkpt>
      <trkpt lat="48.19252" lon="3.35952">
        <ele>172</ele>
        <time>2014-05-04T08:50:11.000Z</time>
      </trkpt>
      <trkpt lat="48.19247" lon="3.35954">
        <ele>176</ele>
        <time>2014-05-04T08:50:12.000Z</time>
      </trkpt>
      <trkpt lat="48.19244" lon="3.35954">
        <ele>176</ele>
        <time>2014-05-04T08:50:13.000Z</time>
      </trkpt>
      <trkpt lat="48.1924" lon="3.35954">
        <ele>176</ele>
        <time>2014-05-04T08:50:14.000Z</time>
      </trkpt>
      <trkpt lat="48.19235" lon="3.35956">
        <ele>176</ele>
        <time>2014-05-04T08:50:15.000Z</time>
      </trkpt>
      <trkpt lat="48.19232" lon="3.35956">
        <ele>176</ele>
        <time>2014-05-04T08:50:16.000Z</time>
      </trkpt>
      <trkpt lat="48.19228" lon="3.35958">
        <ele>176</ele>
        <time>2014-05-04T08:50:17.000Z</time>
      </trkpt>
      <trkpt lat="48.19225" lon="3.35958">
        <ele>176</ele>
        <time>2014-05-04T08:50:18.000Z</time>
      </trkpt>
      <trkpt lat="48.19221" lon="3.35958">
        <ele>176</ele>
        <time>2014-05-04T08:50:19.000Z</time>
      </trkpt>
      <trkpt lat="48.19217" lon="3.35958">
        <ele>177</ele>
        <time>2014-05-04T08:50:20.000Z</time>
      </trkpt>
      <trkpt lat="48.19214" lon="3.35958">
        <ele>177</ele>
        <time>2014-05-04T08:50:21.000Z</time>
      </trkpt>
      <trkpt lat="48.19211" lon="3.35961">
        <ele>177</ele>
        <time>2014-05-04T08:50:22.000Z</time>
      </trkpt>
      <trkpt lat="48.19208" lon="3.35961">
        <ele>177</ele>
        <time>2014-05-04T08:50:23.000Z</time>
      </trkpt>
      <trkpt lat="48.19204" lon="3.35961">
        <ele>177</ele>
        <time>2014-05-04T08:50:24.000Z</time>
      </trkpt>
      <trkpt lat="48.19201" lon="3.35961">
        <ele>177</ele>
        <time>2014-05-04T08:50:25.000Z</time>
      </trkpt>
      <trkpt lat="48.19199" lon="3.35961">
        <ele>177</ele>
        <time>2014-05-04T08:50:26.000Z</time>
      </trkpt>
      <trkpt lat="48.19196" lon="3.35961">
        <ele>178</ele>
        <time>2014-05-04T08:50:27.000Z</time>
      </trkpt>
      <trkpt lat="48.19193" lon="3.35961">
        <ele>178</ele>
        <time>2014-05-04T08:50:28.000Z</time>
      </trkpt>
      <trkpt lat="48.19189" lon="3.35961">
        <ele>178</ele>
        <time>2014-05-04T08:50:29.000Z</time>
      </trkpt>
      <trkpt lat="48.19187" lon="3.35961">
        <ele>178</ele>
        <time>2014-05-04T08:50:30.000Z</time>
      </trkpt>
      <trkpt lat="48.19184" lon="3.35961">
        <ele>178</ele>
        <time>2014-05-04T08:50:31.000Z</time>
      </trkpt>
      <trkpt lat="48.19181" lon="3.35961">
        <ele>178</ele>
        <time>2014-05-04T08:50:32.000Z</time>
      </trkpt>
      <trkpt lat="48.19179" lon="3.35961">
        <ele>178</ele>
        <time>2014-05-04T08:50:33.000Z</time>
      </trkpt>
      <trkpt lat="48.19175" lon="3.35961">
        <ele>178</ele>
        <time>2014-05-04T08:50:34.000Z</time>
      </trkpt>
      <trkpt lat="48.19172" lon="3.35961">
        <ele>178</ele>
        <time>2014-05-04T08:50:35.000Z</time>
      </trkpt>
      <trkpt lat="48.1917" lon="3.35961">
        <ele>178</ele>
        <time>2014-05-04T08:50:36.000Z</time>
      </trkpt>
      <trkpt lat="48.19167" lon="3.35961">
        <ele>178</ele>
        <time>2014-05-04T08:50:37.000Z</time>
      </trkpt>
      <trkpt lat="48.19165" lon="3.35961">
        <ele>181</ele>
        <time>2014-05-04T08:50:38.000Z</time>
      </trkpt>
      <trkpt lat="48.19161" lon="3.35961">
        <ele>181</ele>
        <time>2014-05-04T08:50:39.000Z</time>
      </trkpt>
      <trkpt lat="48.19157" lon="3.35961">
        <ele>181</ele>
        <time>2014-05-04T08:50:41.000Z</time>
      </trkpt>
      <trkpt lat="48.19155" lon="3.35961">
        <ele>181</ele>
        <time>2014-05-04T08:50:42.000Z</time>
      </trkpt>
      <trkpt lat="48.19152" lon="3.35961">
        <ele>181</ele>
        <time>2014-05-04T08:50:43.000Z</time>
      </trkpt>
      <trkpt lat="48.1915" lon="3.35961">
        <ele>181</ele>
        <time>2014-05-04T08:50:44.000Z</time>
      </trkpt>
      <trkpt lat="48.19145" lon="3.35961">
        <ele>182</ele>
        <time>2014-05-04T08:50:46.000Z</time>
      </trkpt>
      <trkpt lat="48.19143" lon="3.35961">
        <ele>182</ele>
        <time>2014-05-04T08:50:47.000Z</time>
      </trkpt>
      <trkpt lat="48.1914" lon="3.35961">
        <ele>182</ele>
        <time>2014-05-04T08:50:48.000Z</time>
      </trkpt>
      <trkpt lat="48.19138" lon="3.35961">
        <ele>182</ele>
        <time>2014-05-04T08:50:49.000Z</time>
      </trkpt>
      <trkpt lat="48.19134" lon="3.35961">
        <ele>182</ele>
        <time>2014-05-04T08:50:51.000Z</time>
      </trkpt>
      <trkpt lat="48.19131" lon="3.35961">
        <ele>182</ele>
        <time>2014-05-04T08:50:52.000Z</time>
      </trkpt>
      <trkpt lat="48.19127" lon="3.35958">
        <ele>182</ele>
        <time>2014-05-04T08:50:54.000Z</time>
      </trkpt>
      <trkpt lat="48.19125" lon="3.35958">
        <ele>182</ele>
        <time>2014-05-04T08:50:55.000Z</time>
      </trkpt>
      <trkpt lat="48.19121" lon="3.35958">
        <ele>182</ele>
        <time>2014-05-04T08:50:57.000Z</time>
      </trkpt>
      <trkpt lat="48.19118" lon="3.35958">
        <ele>182</ele>
        <time>2014-05-04T08:50:58.000Z</time>
      </trkpt>
      <trkpt lat="48.19114" lon="3.35956">
        <ele>182</ele>
        <time>2014-05-04T08:51:00.000Z</time>
      </trkpt>
      <trkpt lat="48.19112" lon="3.35956">
        <ele>182</ele>
        <time>2014-05-04T08:51:01.000Z</time>
      </trkpt>
      <trkpt lat="48.19108" lon="3.35956">
        <ele>182</ele>
        <time>2014-05-04T08:51:03.000Z</time>
      </trkpt>
      <trkpt lat="48.19106" lon="3.35954">
        <ele>182</ele>
        <time>2014-05-04T08:51:04.000Z</time>
      </trkpt>
      <trkpt lat="48.19102" lon="3.35954">
        <ele>182</ele>
        <time>2014-05-04T08:51:06.000Z</time>
      </trkpt>
      <trkpt lat="48.191" lon="3.35954">
        <ele>182</ele>
        <time>2014-05-04T08:51:07.000Z</time>
      </trkpt>
      <trkpt lat="48.19096" lon="3.35954">
        <ele>182</ele>
        <time>2014-05-04T08:51:09.000Z</time>
      </trkpt>
      <trkpt lat="48.19094" lon="3.35954">
        <ele>182</ele>
        <time>2014-05-04T08:51:10.000Z</time>
      </trkpt>
      <trkpt lat="48.1909" lon="3.35954">
        <ele>182</ele>
        <time>2014-05-04T08:51:12.000Z</time>
      </trkpt>
      <trkpt lat="48.19088" lon="3.35954">
        <ele>182</ele>
        <time>2014-05-04T08:51:13.000Z</time>
      </trkpt>
      <trkpt lat="48.19084" lon="3.35954">
        <ele>182</ele>
        <time>2014-05-04T08:51:15.000Z</time>
      </trkpt>
      <trkpt lat="48.19083" lon="3.35954">
        <ele>182</ele>
        <time>2014-05-04T08:51:16.000Z</time>
      </trkpt>
      <trkpt lat="48.19079" lon="3.35954">
        <ele>182</ele>
        <time>2014-05-04T08:51:18.000Z</time>
      </trkpt>
      <trkpt lat="48.19078" lon="3.35954">
        <ele>182</ele>
        <time>2014-05-04T08:51:19.000Z</time>
      </trkpt>
      <trkpt lat="48.19073" lon="3.35954">
        <ele>182</ele>
        <time>2014-05-04T08:51:22.000Z</time>
      </trkpt>
      <trkpt lat="48.19072" lon="3.35954">
        <ele>182</ele>
        <time>2014-05-04T08:51:23.000Z</time>
      </trkpt>
      <trkpt lat="48.19068" lon="3.35954">
        <ele>182</ele>
        <time>2014-05-04T08:51:26.000Z</time>
      </trkpt>
      <trkpt lat="48.19066" lon="3.35954">
        <ele>182</ele>
        <time>2014-05-04T08:51:27.000Z</time>
      </trkpt>
      <trkpt lat="48.19062" lon="3.35952">
        <ele>182</ele>
        <time>2014-05-04T08:51:30.000Z</time>
      </trkpt>
      <trkpt lat="48.19061" lon="3.3595">
        <ele>182</ele>
        <time>2014-05-04T08:51:31.000Z</time>
      </trkpt>
      <trkpt lat="48.19056" lon="3.35948">
        <ele>182</ele>
        <time>2014-05-04T08:51:34.000Z</time>
      </trkpt>
      <trkpt lat="48.19054" lon="3.35948">
        <ele>182</ele>
        <time>2014-05-04T08:51:35.000Z</time>
      </trkpt>
      <trkpt lat="48.1905" lon="3.35946">
        <ele>182</ele>
        <time>2014-05-04T08:51:38.000Z</time>
      </trkpt>
      <trkpt lat="48.19048" lon="3.35946">
        <ele>182</ele>
        <time>2014-05-04T08:51:39.000Z</time>
      </trkpt>
      <trkpt lat="48.19044" lon="3.35943">
        <ele>182</ele>
        <time>2014-05-04T08:51:41.000Z</time>
      </trkpt>
      <trkpt lat="48.19042" lon="3.35943">
        <ele>182</ele>
        <time>2014-05-04T08:51:42.000Z</time>
      </trkpt>
      <trkpt lat="48.19038" lon="3.35941">
        <ele>182</ele>
        <time>2014-05-04T08:51:44.000Z</time>
      </trkpt>
      <trkpt lat="48.19036" lon="3.35939">
        <ele>182</ele>
        <time>2014-05-04T08:51:45.000Z</time>
      </trkpt>
      <trkpt lat="48.19032" lon="3.35939">
        <ele>182</ele>
        <time>2014-05-04T08:51:47.000Z</time>
      </trkpt>
      <trkpt lat="48.19029" lon="3.35937">
        <ele>182</ele>
        <time>2014-05-04T08:51:48.000Z</time>
      </trkpt>
      <trkpt lat="48.19025" lon="3.35935">
        <ele>182</ele>
        <time>2014-05-04T08:51:50.000Z</time>
      </trkpt>
      <trkpt lat="48.19023" lon="3.35933">
        <ele>182</ele>
        <time>2014-05-04T08:51:51.000Z</time>
      </trkpt>
      <trkpt lat="48.19021" lon="3.35931">
        <ele>181</ele>
        <time>2014-05-04T08:51:52.000Z</time>
      </trkpt>
      <trkpt lat="48.19019" lon="3.35928">
        <ele>181</ele>
        <time>2014-05-04T08:51:53.000Z</time>
      </trkpt>
      <trkpt lat="48.19017" lon="3.35928">
        <ele>181</ele>
        <time>2014-05-04T08:51:54.000Z</time>
      </trkpt>
      <trkpt lat="48.19013" lon="3.35926">
        <ele>181</ele>
        <time>2014-05-04T08:51:55.000Z</time>
      </trkpt>
      <trkpt lat="48.19009" lon="3.35924">
        <ele>181</ele>
        <time>2014-05-04T08:51:57.000Z</time>
      </trkpt>
      <trkpt lat="48.19006" lon="3.35922">
        <ele>181</ele>
        <time>2014-05-04T08:51:58.000Z</time>
      </trkpt>
      <trkpt lat="48.19004" lon="3.35922">
        <ele>181</ele>
        <time>2014-05-04T08:51:59.000Z</time>
      </trkpt>
      <trkpt lat="48.19" lon="3.3592">
        <ele>180</ele>
        <time>2014-05-04T08:52:00.000Z</time>
      </trkpt>
      <trkpt lat="48.18998" lon="3.35918">
        <ele>180</ele>
        <time>2014-05-04T08:52:01.000Z</time>
      </trkpt>
      <trkpt lat="48.18996" lon="3.35916">
        <ele>180</ele>
        <time>2014-05-04T08:52:02.000Z</time>
      </trkpt>
      <trkpt lat="48.18993" lon="3.35913">
        <ele>180</ele>
        <time>2014-05-04T08:52:03.000Z</time>
      </trkpt>
      <trkpt lat="48.18991" lon="3.35911">
        <ele>180</ele>
        <time>2014-05-04T08:52:04.000Z</time>
      </trkpt>
      <trkpt lat="48.18988" lon="3.35911">
        <ele>180</ele>
        <time>2014-05-04T08:52:05.000Z</time>
      </trkpt>
      <trkpt lat="48.18984" lon="3.35909">
        <ele>180</ele>
        <time>2014-05-04T08:52:06.000Z</time>
      </trkpt>
      <trkpt lat="48.18981" lon="3.35907">
        <ele>180</ele>
        <time>2014-05-04T08:52:07.000Z</time>
      </trkpt>
      <trkpt lat="48.18978" lon="3.35905">
        <ele>180</ele>
        <time>2014-05-04T08:52:08.000Z</time>
      </trkpt>
      <trkpt lat="48.18974" lon="3.35903">
        <ele>180</ele>
        <time>2014-05-04T08:52:10.000Z</time>
      </trkpt>
      <trkpt lat="48.1897" lon="3.35901">
        <ele>180</ele>
        <time>2014-05-04T08:52:11.000Z</time>
      </trkpt>
      <trkpt lat="48.18966" lon="3.35898">
        <ele>180</ele>
        <time>2014-05-04T08:52:13.000Z</time>
      </trkpt>
      <trkpt lat="48.18963" lon="3.35896">
        <ele>180</ele>
        <time>2014-05-04T08:52:14.000Z</time>
      </trkpt>
      <trkpt lat="48.1896" lon="3.35896">
        <ele>179</ele>
        <time>2014-05-04T08:52:15.000Z</time>
      </trkpt>
      <trkpt lat="48.18958" lon="3.35894">
        <ele>179</ele>
        <time>2014-05-04T08:52:16.000Z</time>
      </trkpt>
      <trkpt lat="48.18954" lon="3.35892">
        <ele>179</ele>
        <time>2014-05-04T08:52:17.000Z</time>
      </trkpt>
      <trkpt lat="48.18951" lon="3.3589">
        <ele>179</ele>
        <time>2014-05-04T08:52:18.000Z</time>
      </trkpt>
      <trkpt lat="48.18949" lon="3.35886">
        <ele>179</ele>
        <time>2014-05-04T08:52:19.000Z</time>
      </trkpt>
      <trkpt lat="48.18946" lon="3.35883">
        <ele>179</ele>
        <time>2014-05-04T08:52:20.000Z</time>
      </trkpt>
      <trkpt lat="48.18944" lon="3.35881">
        <ele>179</ele>
        <time>2014-05-04T08:52:21.000Z</time>
      </trkpt>
      <trkpt lat="48.1894" lon="3.35877">
        <ele>179</ele>
        <time>2014-05-04T08:52:22.000Z</time>
      </trkpt>
      <trkpt lat="48.18938" lon="3.35875">
        <ele>179</ele>
        <time>2014-05-04T08:52:23.000Z</time>
      </trkpt>
      <trkpt lat="48.18935" lon="3.35873">
        <ele>179</ele>
        <time>2014-05-04T08:52:24.000Z</time>
      </trkpt>
      <trkpt lat="48.18933" lon="3.35868">
        <ele>180</ele>
        <time>2014-05-04T08:52:25.000Z</time>
      </trkpt>
      <trkpt lat="48.18931" lon="3.35866">
        <ele>180</ele>
        <time>2014-05-04T08:52:26.000Z</time>
      </trkpt>
      <trkpt lat="48.18928" lon="3.35862">
        <ele>180</ele>
        <time>2014-05-04T08:52:27.000Z</time>
      </trkpt>
      <trkpt lat="48.18925" lon="3.3586">
        <ele>180</ele>
        <time>2014-05-04T08:52:28.000Z</time>
      </trkpt>
      <trkpt lat="48.18922" lon="3.35855">
        <ele>180</ele>
        <time>2014-05-04T08:52:29.000Z</time>
      </trkpt>
      <trkpt lat="48.18919" lon="3.35851">
        <ele>180</ele>
        <time>2014-05-04T08:52:30.000Z</time>
      </trkpt>
      <trkpt lat="48.18916" lon="3.35847">
        <ele>178</ele>
        <time>2014-05-04T08:52:31.000Z</time>
      </trkpt>
      <trkpt lat="48.18913" lon="3.35845">
        <ele>178</ele>
        <time>2014-05-04T08:52:32.000Z</time>
      </trkpt>
      <trkpt lat="48.18909" lon="3.3584">
        <ele>178</ele>
        <time>2014-05-04T08:52:33.000Z</time>
      </trkpt>
      <trkpt lat="48.18906" lon="3.35836">
        <ele>178</ele>
        <time>2014-05-04T08:52:34.000Z</time>
      </trkpt>
      <trkpt lat="48.18903" lon="3.35834">
        <ele>178</ele>
        <time>2014-05-04T08:52:35.000Z</time>
      </trkpt>
      <trkpt lat="48.18901" lon="3.3583">
        <ele>178</ele>
        <time>2014-05-04T08:52:36.000Z</time>
      </trkpt>
      <trkpt lat="48.18899" lon="3.35828">
        <ele>178</ele>
        <time>2014-05-04T08:52:37.000Z</time>
      </trkpt>
      <trkpt lat="48.18896" lon="3.35823">
        <ele>178</ele>
        <time>2014-05-04T08:52:38.000Z</time>
      </trkpt>
      <trkpt lat="48.18894" lon="3.35819">
        <ele>178</ele>
        <time>2014-05-04T08:52:39.000Z</time>
      </trkpt>
      <trkpt lat="48.18891" lon="3.35815">
        <ele>178</ele>
        <time>2014-05-04T08:52:40.000Z</time>
      </trkpt>
      <trkpt lat="48.18888" lon="3.3581">
        <ele>177</ele>
        <time>2014-05-04T08:52:41.000Z</time>
      </trkpt>
      <trkpt lat="48.18885" lon="3.35806">
        <ele>177</ele>
        <time>2014-05-04T08:52:42.000Z</time>
      </trkpt>
      <trkpt lat="48.18881" lon="3.358">
        <ele>177</ele>
        <time>2014-05-04T08:52:43.000Z</time>
      </trkpt>
      <trkpt lat="48.18877" lon="3.35795">
        <ele>177</ele>
        <time>2014-05-04T08:52:44.000Z</time>
      </trkpt>
      <trkpt lat="48.18874" lon="3.35789">
        <ele>177</ele>
        <time>2014-05-04T08:52:45.000Z</time>
      </trkpt>
      <trkpt lat="48.1887" lon="3.35783">
        <ele>177</ele>
        <time>2014-05-04T08:52:46.000Z</time>
      </trkpt>
      <trkpt lat="48.18866" lon="3.35776">
        <ele>176</ele>
        <time>2014-05-04T08:52:47.000Z</time>
      </trkpt>
      <trkpt lat="48.18863" lon="3.3577">
        <ele>176</ele>
        <time>2014-05-04T08:52:48.000Z</time>
      </trkpt>
      <trkpt lat="48.18859" lon="3.35763">
        <ele>176</ele>
        <time>2014-05-04T08:52:49.000Z</time>
      </trkpt>
      <trkpt lat="48.18856" lon="3.35757">
        <ele>175</ele>
        <time>2014-05-04T08:52:50.000Z</time>
      </trkpt>
      <trkpt lat="48.18852" lon="3.3575">
        <ele>175</ele>
        <time>2014-05-04T08:52:51.000Z</time>
      </trkpt>
      <trkpt lat="48.18849" lon="3.35744">
        <ele>176</ele>
        <time>2014-05-04T08:52:52.000Z</time>
      </trkpt>
      <trkpt lat="48.18846" lon="3.35737">
        <ele>176</ele>
        <time>2014-05-04T08:52:53.000Z</time>
      </trkpt>
      <trkpt lat="48.18843" lon="3.35731">
        <ele>176</ele>
        <time>2014-05-04T08:52:54.000Z</time>
      </trkpt>
      <trkpt lat="48.1884" lon="3.35727">
        <ele>177</ele>
        <time>2014-05-04T08:52:55.000Z</time>
      </trkpt>
      <trkpt lat="48.18836" lon="3.3572">
        <ele>177</ele>
        <time>2014-05-04T08:52:56.000Z</time>
      </trkpt>
      <trkpt lat="48.18832" lon="3.35714">
        <ele>171</ele>
        <time>2014-05-04T08:52:57.000Z</time>
      </trkpt>
      <trkpt lat="48.18828" lon="3.35707">
        <ele>171</ele>
        <time>2014-05-04T08:52:58.000Z</time>
      </trkpt>
      <trkpt lat="48.18823" lon="3.35703">
        <ele>171</ele>
        <time>2014-05-04T08:52:59.000Z</time>
      </trkpt>
      <trkpt lat="48.18818" lon="3.35697">
        <ele>171</ele>
        <time>2014-05-04T08:53:00.000Z</time>
      </trkpt>
      <trkpt lat="48.18813" lon="3.3569">
        <ele>171</ele>
        <time>2014-05-04T08:53:01.000Z</time>
      </trkpt>
      <trkpt lat="48.1881" lon="3.35684">
        <ele>171</ele>
        <time>2014-05-04T08:53:02.000Z</time>
      </trkpt>
      <trkpt lat="48.18807" lon="3.35677">
        <ele>171</ele>
        <time>2014-05-04T08:53:03.000Z</time>
      </trkpt>
      <trkpt lat="48.18804" lon="3.35671">
        <ele>171</ele>
        <time>2014-05-04T08:53:04.000Z</time>
      </trkpt>
      <trkpt lat="48.18801" lon="3.35667">
        <ele>173</ele>
        <time>2014-05-04T08:53:05.000Z</time>
      </trkpt>
      <trkpt lat="48.18798" lon="3.35662">
        <ele>173</ele>
        <time>2014-05-04T08:53:06.000Z</time>
      </trkpt>
      <trkpt lat="48.18794" lon="3.35656">
        <ele>173</ele>
        <time>2014-05-04T08:53:07.000Z</time>
      </trkpt>
      <trkpt lat="48.18791" lon="3.35652">
        <ele>172</ele>
        <time>2014-05-04T08:53:08.000Z</time>
      </trkpt>
      <trkpt lat="48.18789" lon="3.35647">
        <ele>172</ele>
        <time>2014-05-04T08:53:09.000Z</time>
      </trkpt>
      <trkpt lat="48.18786" lon="3.35643">
        <ele>172</ele>
        <time>2014-05-04T08:53:10.000Z</time>
      </trkpt>
      <trkpt lat="48.18783" lon="3.35639">
        <ele>172</ele>
        <time>2014-05-04T08:53:11.000Z</time>
      </trkpt>
      <trkpt lat="48.18778" lon="3.35634">
        <ele>172</ele>
        <time>2014-05-04T08:53:12.000Z</time>
      </trkpt>
      <trkpt lat="48.18775" lon="3.35632">
        <ele>172</ele>
        <time>2014-05-04T08:53:13.000Z</time>
      </trkpt>
      <trkpt lat="48.18771" lon="3.35628">
        <ele>172</ele>
        <time>2014-05-04T08:53:14.000Z</time>
      </trkpt>
      <trkpt lat="48.18769" lon="3.35624">
        <ele>172</ele>
        <time>2014-05-04T08:53:15.000Z</time>
      </trkpt>
      <trkpt lat="48.18766" lon="3.35619">
        <ele>172</ele>
        <time>2014-05-04T08:53:16.000Z</time>
      </trkpt>
      <trkpt lat="48.18762" lon="3.35615">
        <ele>172</ele>
        <time>2014-05-04T08:53:17.000Z</time>
      </trkpt>
      <trkpt lat="48.18759" lon="3.35611">
        <ele>172</ele>
        <time>2014-05-04T08:53:18.000Z</time>
      </trkpt>
      <trkpt lat="48.18756" lon="3.35609">
        <ele>172</ele>
        <time>2014-05-04T08:53:19.000Z</time>
      </trkpt>
      <trkpt lat="48.18753" lon="3.35604">
        <ele>172</ele>
        <time>2014-05-04T08:53:20.000Z</time>
      </trkpt>
      <trkpt lat="48.18748" lon="3.35602">
        <ele>166</ele>
        <time>2014-05-04T08:53:21.000Z</time>
      </trkpt>
      <trkpt lat="48.18744" lon="3.35598">
        <ele>166</ele>
        <time>2014-05-04T08:53:22.000Z</time>
      </trkpt>
      <trkpt lat="48.1874" lon="3.35596">
        <ele>166</ele>
        <time>2014-05-04T08:53:23.000Z</time>
      </trkpt>
      <trkpt lat="48.18735" lon="3.35592">
        <ele>166</ele>
        <time>2014-05-04T08:53:24.000Z</time>
      </trkpt>
      <trkpt lat="48.1873" lon="3.35587">
        <ele>165</ele>
        <time>2014-05-04T08:53:25.000Z</time>
      </trkpt>
      <trkpt lat="48.18727" lon="3.35583">
        <ele>168</ele>
        <time>2014-05-04T08:53:26.000Z</time>
      </trkpt>
      <trkpt lat="48.18722" lon="3.35581">
        <ele>168</ele>
        <time>2014-05-04T08:53:27.000Z</time>
      </trkpt>
      <trkpt lat="48.18717" lon="3.35577">
        <ele>168</ele>
        <time>2014-05-04T08:53:28.000Z</time>
      </trkpt>
      <trkpt lat="48.18713" lon="3.35572">
        <ele>167</ele>
        <time>2014-05-04T08:53:29.000Z</time>
      </trkpt>
      <trkpt lat="48.18709" lon="3.35568">
        <ele>167</ele>
        <time>2014-05-04T08:53:30.000Z</time>
      </trkpt>
      <trkpt lat="48.18705" lon="3.35564">
        <ele>167</ele>
        <time>2014-05-04T08:53:31.000Z</time>
      </trkpt>
      <trkpt lat="48.18701" lon="3.35559">
        <ele>166</ele>
        <time>2014-05-04T08:53:32.000Z</time>
      </trkpt>
      <trkpt lat="48.18698" lon="3.35553">
        <ele>166</ele>
        <time>2014-05-04T08:53:33.000Z</time>
      </trkpt>
      <trkpt lat="48.18695" lon="3.35549">
        <ele>166</ele>
        <time>2014-05-04T08:53:34.000Z</time>
      </trkpt>
      <trkpt lat="48.1869" lon="3.35544">
        <ele>166</ele>
        <time>2014-05-04T08:53:35.000Z</time>
      </trkpt>
      <trkpt lat="48.18687" lon="3.35538">
        <ele>166</ele>
        <time>2014-05-04T08:53:36.000Z</time>
      </trkpt>
      <trkpt lat="48.18683" lon="3.35534">
        <ele>166</ele>
        <time>2014-05-04T08:53:37.000Z</time>
      </trkpt>
      <trkpt lat="48.1868" lon="3.35531">
        <ele>166</ele>
        <time>2014-05-04T08:53:38.000Z</time>
      </trkpt>
      <trkpt lat="48.18675" lon="3.35527">
        <ele>166</ele>
        <time>2014-05-04T08:53:39.000Z</time>
      </trkpt>
      <trkpt lat="48.18671" lon="3.35523">
        <ele>166</ele>
        <time>2014-05-04T08:53:40.000Z</time>
      </trkpt>
      <trkpt lat="48.18667" lon="3.35519">
        <ele>166</ele>
        <time>2014-05-04T08:53:41.000Z</time>
      </trkpt>
      <trkpt lat="48.18664" lon="3.35514">
        <ele>160</ele>
        <time>2014-05-04T08:53:42.000Z</time>
      </trkpt>
      <trkpt lat="48.1866" lon="3.3551">
        <ele>160</ele>
        <time>2014-05-04T08:53:43.000Z</time>
      </trkpt>
      <trkpt lat="48.18657" lon="3.35506">
        <ele>160</ele>
        <time>2014-05-04T08:53:44.000Z</time>
      </trkpt>
      <trkpt lat="48.18654" lon="3.35501">
        <ele>160</ele>
        <time>2014-05-04T08:53:45.000Z</time>
      </trkpt>
      <trkpt lat="48.1865" lon="3.35497">
        <ele>162</ele>
        <time>2014-05-04T08:53:46.000Z</time>
      </trkpt>
      <trkpt lat="48.18645" lon="3.35495">
        <ele>161</ele>
        <time>2014-05-04T08:53:47.000Z</time>
      </trkpt>
      <trkpt lat="48.18643" lon="3.35491">
        <ele>161</ele>
        <time>2014-05-04T08:53:48.000Z</time>
      </trkpt>
      <trkpt lat="48.1864" lon="3.35489">
        <ele>161</ele>
        <time>2014-05-04T08:53:49.000Z</time>
      </trkpt>
      <trkpt lat="48.18637" lon="3.35486">
        <ele>160</ele>
        <time>2014-05-04T08:53:50.000Z</time>
      </trkpt>
      <trkpt lat="48.18632" lon="3.35484">
        <ele>160</ele>
        <time>2014-05-04T08:53:51.000Z</time>
      </trkpt>
      <trkpt lat="48.18629" lon="3.35482">
        <ele>160</ele>
        <time>2014-05-04T08:53:52.000Z</time>
      </trkpt>
      <trkpt lat="48.18626" lon="3.3548">
        <ele>159</ele>
        <time>2014-05-04T08:53:53.000Z</time>
      </trkpt>
      <trkpt lat="48.18623" lon="3.35476">
        <ele>159</ele>
        <time>2014-05-04T08:53:54.000Z</time>
      </trkpt>
      <trkpt lat="48.18621" lon="3.35474">
        <ele>159</ele>
        <time>2014-05-04T08:53:55.000Z</time>
      </trkpt>
      <trkpt lat="48.18617" lon="3.35474">
        <ele>159</ele>
        <time>2014-05-04T08:53:56.000Z</time>
      </trkpt>
      <trkpt lat="48.18614" lon="3.35469">
        <ele>159</ele>
        <time>2014-05-04T08:54:01.000Z</time>
      </trkpt>
      <trkpt lat="48.18606" lon="3.35463">
        <ele>158</ele>
        <time>2014-05-04T08:54:02.000Z</time>
      </trkpt>
      <trkpt lat="48.18606" lon="3.35463">
        <ele>158</ele>
        <time>2014-05-04T08:54:06.000Z</time>
      </trkpt>
      <trkpt lat="48.18594" lon="3.35456">
        <ele>158</ele>
        <time>2014-05-04T08:54:07.000Z</time>
      </trkpt>
      <trkpt lat="48.18594" lon="3.35456">
        <ele>158</ele>
        <time>2014-05-04T08:54:09.000Z</time>
      </trkpt>
      <trkpt lat="48.18584" lon="3.3545">
        <ele>158</ele>
        <time>2014-05-04T08:54:10.000Z</time>
      </trkpt>
      <trkpt lat="48.18584" lon="3.3545">
        <ele>158</ele>
        <time>2014-05-04T08:54:12.000Z</time>
      </trkpt>
      <trkpt lat="48.18571" lon="3.35448">
        <ele>150</ele>
        <time>2014-05-04T08:54:13.000Z</time>
      </trkpt>
      <trkpt lat="48.18571" lon="3.35448">
        <ele>150</ele>
        <time>2014-05-04T08:54:14.000Z</time>
      </trkpt>
      <trkpt lat="48.18562" lon="3.35443">
        <ele>150</ele>
        <time>2014-05-04T08:54:15.000Z</time>
      </trkpt>
      <trkpt lat="48.18562" lon="3.35443">
        <ele>150</ele>
        <time>2014-05-04T08:54:16.000Z</time>
      </trkpt>
      <trkpt lat="48.18551" lon="3.35441">
        <ele>149</ele>
        <time>2014-05-04T08:54:17.000Z</time>
      </trkpt>
      <trkpt lat="48.18547" lon="3.35439">
        <ele>149</ele>
        <time>2014-05-04T08:54:18.000Z</time>
      </trkpt>
      <trkpt lat="48.18542" lon="3.35437">
        <ele>148</ele>
        <time>2014-05-04T08:54:19.000Z</time>
      </trkpt>
      <trkpt lat="48.18542" lon="3.35437">
        <ele>148</ele>
        <time>2014-05-04T08:54:20.000Z</time>
      </trkpt>
      <trkpt lat="48.18533" lon="3.35433">
        <ele>148</ele>
        <time>2014-05-04T08:54:21.000Z</time>
      </trkpt>
      <trkpt lat="48.18533" lon="3.35433">
        <ele>148</ele>
        <time>2014-05-04T08:54:22.000Z</time>
      </trkpt>
      <trkpt lat="48.18525" lon="3.35428">
        <ele>147</ele>
        <time>2014-05-04T08:54:23.000Z</time>
      </trkpt>
      <trkpt lat="48.18521" lon="3.35426">
        <ele>147</ele>
        <time>2014-05-04T08:54:24.000Z</time>
      </trkpt>
      <trkpt lat="48.18518" lon="3.35424">
        <ele>147</ele>
        <time>2014-05-04T08:54:25.000Z</time>
      </trkpt>
      <trkpt lat="48.18513" lon="3.35422">
        <ele>147</ele>
        <time>2014-05-04T08:54:26.000Z</time>
      </trkpt>
      <trkpt lat="48.18509" lon="3.3542">
        <ele>146</ele>
        <time>2014-05-04T08:54:27.000Z</time>
      </trkpt>
      <trkpt lat="48.18506" lon="3.35418">
        <ele>146</ele>
        <time>2014-05-04T08:54:28.000Z</time>
      </trkpt>
      <trkpt lat="48.18502" lon="3.35416">
        <ele>147</ele>
        <time>2014-05-04T08:54:29.000Z</time>
      </trkpt>
      <trkpt lat="48.18498" lon="3.35416">
        <ele>146</ele>
        <time>2014-05-04T08:54:30.000Z</time>
      </trkpt>
      <trkpt lat="48.18495" lon="3.35413">
        <ele>145</ele>
        <time>2014-05-04T08:54:31.000Z</time>
      </trkpt>
      <trkpt lat="48.18492" lon="3.35413">
        <ele>145</ele>
        <time>2014-05-04T08:54:32.000Z</time>
      </trkpt>
      <trkpt lat="48.18489" lon="3.35411">
        <ele>144</ele>
        <time>2014-05-04T08:54:33.000Z</time>
      </trkpt>
      <trkpt lat="48.18485" lon="3.35411">
        <ele>144</ele>
        <time>2014-05-04T08:54:34.000Z</time>
      </trkpt>
      <trkpt lat="48.18482" lon="3.35409">
        <ele>144</ele>
        <time>2014-05-04T08:54:35.000Z</time>
      </trkpt>
      <trkpt lat="48.18478" lon="3.35407">
        <ele>143</ele>
        <time>2014-05-04T08:54:36.000Z</time>
      </trkpt>
      <trkpt lat="48.18475" lon="3.35407">
        <ele>143</ele>
        <time>2014-05-04T08:54:37.000Z</time>
      </trkpt>
      <trkpt lat="48.18472" lon="3.35405">
        <ele>143</ele>
        <time>2014-05-04T08:54:38.000Z</time>
      </trkpt>
      <trkpt lat="48.18467" lon="3.35403">
        <ele>142</ele>
        <time>2014-05-04T08:54:39.000Z</time>
      </trkpt>
      <trkpt lat="48.18464" lon="3.35403">
        <ele>142</ele>
        <time>2014-05-04T08:54:40.000Z</time>
      </trkpt>
      <trkpt lat="48.18461" lon="3.35401">
        <ele>142</ele>
        <time>2014-05-04T08:54:41.000Z</time>
      </trkpt>
      <trkpt lat="48.18457" lon="3.35398">
        <ele>141</ele>
        <time>2014-05-04T08:54:42.000Z</time>
      </trkpt>
      <trkpt lat="48.18452" lon="3.35396">
        <ele>141</ele>
        <time>2014-05-04T08:54:43.000Z</time>
      </trkpt>
      <trkpt lat="48.18448" lon="3.35394">
        <ele>141</ele>
        <time>2014-05-04T08:54:44.000Z</time>
      </trkpt>
      <trkpt lat="48.18444" lon="3.35392">
        <ele>140</ele>
        <time>2014-05-04T08:54:45.000Z</time>
      </trkpt>
      <trkpt lat="48.18438" lon="3.35392">
        <ele>140</ele>
        <time>2014-05-04T08:54:46.000Z</time>
      </trkpt>
      <trkpt lat="48.18434" lon="3.3539">
        <ele>140</ele>
        <time>2014-05-04T08:54:47.000Z</time>
      </trkpt>
      <trkpt lat="48.18429" lon="3.35388">
        <ele>140</ele>
        <time>2014-05-04T08:54:48.000Z</time>
      </trkpt>
      <trkpt lat="48.18423" lon="3.35386">
        <ele>139</ele>
        <time>2014-05-04T08:54:49.000Z</time>
      </trkpt>
      <trkpt lat="48.18417" lon="3.35386">
        <ele>139</ele>
        <time>2014-05-04T08:54:50.000Z</time>
      </trkpt>
      <trkpt lat="48.18411" lon="3.35386">
        <ele>133</ele>
        <time>2014-05-04T08:54:51.000Z</time>
      </trkpt>
      <trkpt lat="48.18406" lon="3.35386">
        <ele>132</ele>
        <time>2014-05-04T08:54:52.000Z</time>
      </trkpt>
      <trkpt lat="48.184" lon="3.35386">
        <ele>132</ele>
        <time>2014-05-04T08:54:53.000Z</time>
      </trkpt>
      <trkpt lat="48.18394" lon="3.35386">
        <ele>132</ele>
        <time>2014-05-04T08:54:54.000Z</time>
      </trkpt>
      <trkpt lat="48.18388" lon="3.35386">
        <ele>131</ele>
        <time>2014-05-04T08:54:55.000Z</time>
      </trkpt>
      <trkpt lat="48.1838" lon="3.35386">
        <ele>131</ele>
        <time>2014-05-04T08:54:56.000Z</time>
      </trkpt>
      <trkpt lat="48.18374" lon="3.35383">
        <ele>131</ele>
        <time>2014-05-04T08:54:57.000Z</time>
      </trkpt>
      <trkpt lat="48.18366" lon="3.35383">
        <ele>130</ele>
        <time>2014-05-04T08:54:58.000Z</time>
      </trkpt>
      <trkpt lat="48.18359" lon="3.35383">
        <ele>130</ele>
        <time>2014-05-04T08:54:59.000Z</time>
      </trkpt>
      <trkpt lat="48.18351" lon="3.35381">
        <ele>129</ele>
        <time>2014-05-04T08:55:00.000Z</time>
      </trkpt>
      <trkpt lat="48.18345" lon="3.35381">
        <ele>129</ele>
        <time>2014-05-04T08:55:01.000Z</time>
      </trkpt>
      <trkpt lat="48.18339" lon="3.35379">
        <ele>129</ele>
        <time>2014-05-04T08:55:02.000Z</time>
      </trkpt>
      <trkpt lat="48.18332" lon="3.35377">
        <ele>123</ele>
        <time>2014-05-04T08:55:03.000Z</time>
      </trkpt>
      <trkpt lat="48.18326" lon="3.35375">
        <ele>123</ele>
        <time>2014-05-04T08:55:04.000Z</time>
      </trkpt>
      <trkpt lat="48.18319" lon="3.35373">
        <ele>123</ele>
        <time>2014-05-04T08:55:05.000Z</time>
      </trkpt>
      <trkpt lat="48.18314" lon="3.35373">
        <ele>123</ele>
        <time>2014-05-04T08:55:06.000Z</time>
      </trkpt>
      <trkpt lat="48.18308" lon="3.35371">
        <ele>123</ele>
        <time>2014-05-04T08:55:07.000Z</time>
      </trkpt>
      <trkpt lat="48.18303" lon="3.35368">
        <ele>123</ele>
        <time>2014-05-04T08:55:08.000Z</time>
      </trkpt>
      <trkpt lat="48.18298" lon="3.35366">
        <ele>122</ele>
        <time>2014-05-04T08:55:09.000Z</time>
      </trkpt>
      <trkpt lat="48.18292" lon="3.35364">
        <ele>122</ele>
        <time>2014-05-04T08:55:10.000Z</time>
      </trkpt>
      <trkpt lat="48.18287" lon="3.35362">
        <ele>122</ele>
        <time>2014-05-04T08:55:11.000Z</time>
      </trkpt>
      <trkpt lat="48.18282" lon="3.3536">
        <ele>121</ele>
        <time>2014-05-04T08:55:12.000Z</time>
      </trkpt>
      <trkpt lat="48.18277" lon="3.35358">
        <ele>121</ele>
        <time>2014-05-04T08:55:13.000Z</time>
      </trkpt>
      <trkpt lat="48.18271" lon="3.35353">
        <ele>121</ele>
        <time>2014-05-04T08:55:14.000Z</time>
      </trkpt>
      <trkpt lat="48.18264" lon="3.35351">
        <ele>120</ele>
        <time>2014-05-04T08:55:15.000Z</time>
      </trkpt>
      <trkpt lat="48.18257" lon="3.35349">
        <ele>120</ele>
        <time>2014-05-04T08:55:16.000Z</time>
      </trkpt>
      <trkpt lat="48.18249" lon="3.35345">
        <ele>117</ele>
        <time>2014-05-04T08:55:17.000Z</time>
      </trkpt>
      <trkpt lat="48.18243" lon="3.35343">
        <ele>116</ele>
        <time>2014-05-04T08:55:18.000Z</time>
      </trkpt>
      <trkpt lat="48.18236" lon="3.3534">
        <ele>116</ele>
        <time>2014-05-04T08:55:19.000Z</time>
      </trkpt>
      <trkpt lat="48.18228" lon="3.35338">
        <ele>115</ele>
        <time>2014-05-04T08:55:20.000Z</time>
      </trkpt>
      <trkpt lat="48.18222" lon="3.35336">
        <ele>115</ele>
        <time>2014-05-04T08:55:21.000Z</time>
      </trkpt>
      <trkpt lat="48.18214" lon="3.35332">
        <ele>114</ele>
        <time>2014-05-04T08:55:22.000Z</time>
      </trkpt>
      <trkpt lat="48.18208" lon="3.3533">
        <ele>113</ele>
        <time>2014-05-04T08:55:23.000Z</time>
      </trkpt>
      <trkpt lat="48.18201" lon="3.35328">
        <ele>113</ele>
        <time>2014-05-04T08:55:24.000Z</time>
      </trkpt>
      <trkpt lat="48.18194" lon="3.35325">
        <ele>112</ele>
        <time>2014-05-04T08:55:25.000Z</time>
      </trkpt>
      <trkpt lat="48.18187" lon="3.35323">
        <ele>112</ele>
        <time>2014-05-04T08:55:26.000Z</time>
      </trkpt>
      <trkpt lat="48.18181" lon="3.35319">
        <ele>111</ele>
        <time>2014-05-04T08:55:27.000Z</time>
      </trkpt>
      <trkpt lat="48.18173" lon="3.35317">
        <ele>111</ele>
        <time>2014-05-04T08:55:28.000Z</time>
      </trkpt>
      <trkpt lat="48.18167" lon="3.35313">
        <ele>111</ele>
        <time>2014-05-04T08:55:29.000Z</time>
      </trkpt>
      <trkpt lat="48.1816" lon="3.3531">
        <ele>107</ele>
        <time>2014-05-04T08:55:30.000Z</time>
      </trkpt>
      <trkpt lat="48.18153" lon="3.35308">
        <ele>107</ele>
        <time>2014-05-04T08:55:31.000Z</time>
      </trkpt>
      <trkpt lat="48.18146" lon="3.35306">
        <ele>106</ele>
        <time>2014-05-04T08:55:32.000Z</time>
      </trkpt>
      <trkpt lat="48.18139" lon="3.35304">
        <ele>106</ele>
        <time>2014-05-04T08:55:33.000Z</time>
      </trkpt>
      <trkpt lat="48.18133" lon="3.353">
        <ele>106</ele>
        <time>2014-05-04T08:55:34.000Z</time>
      </trkpt>
      <trkpt lat="48.18126" lon="3.35298">
        <ele>105</ele>
        <time>2014-05-04T08:55:35.000Z</time>
      </trkpt>
      <trkpt lat="48.1812" lon="3.35295">
        <ele>105</ele>
        <time>2014-05-04T08:55:36.000Z</time>
      </trkpt>
      <trkpt lat="48.18114" lon="3.35295">
        <ele>105</ele>
        <time>2014-05-04T08:55:37.000Z</time>
      </trkpt>
      <trkpt lat="48.1811" lon="3.35293">
        <ele>105</ele>
        <time>2014-05-04T08:55:38.000Z</time>
      </trkpt>
      <trkpt lat="48.18106" lon="3.35291">
        <ele>105</ele>
        <time>2014-05-04T08:55:39.000Z</time>
      </trkpt>
      <trkpt lat="48.18102" lon="3.35289">
        <ele>104</ele>
        <time>2014-05-04T08:55:40.000Z</time>
      </trkpt>
      <trkpt lat="48.18099" lon="3.35289">
        <ele>104</ele>
        <time>2014-05-04T08:55:41.000Z</time>
      </trkpt>
      <trkpt lat="48.18097" lon="3.35289">
        <ele>104</ele>
        <time>2014-05-04T08:55:42.000Z</time>
      </trkpt>
      <trkpt lat="48.18096" lon="3.35295">
        <ele>104</ele>
        <time>2014-05-04T08:55:43.000Z</time>
      </trkpt>
      <trkpt lat="48.18096" lon="3.353">
        <ele>104</ele>
        <time>2014-05-04T08:55:44.000Z</time>
      </trkpt>
      <trkpt lat="48.18095" lon="3.35304">
        <ele>104</ele>
        <time>2014-05-04T08:55:45.000Z</time>
      </trkpt>
      <trkpt lat="48.18095" lon="3.35308">
        <ele>104</ele>
        <time>2014-05-04T08:55:46.000Z</time>
      </trkpt>
      <trkpt lat="48.18095" lon="3.35315">
        <ele>104</ele>
        <time>2014-05-04T08:55:47.000Z</time>
      </trkpt>
      <trkpt lat="48.18095" lon="3.35319">
        <ele>104</ele>
        <time>2014-05-04T08:56:54.000Z</time>
      </trkpt>
      <trkpt lat="48.18096" lon="3.35328">
        <ele>103</ele>
        <time>2014-05-04T08:56:55.000Z</time>
      </trkpt>
      <trkpt lat="48.18097" lon="3.35332">
        <ele>103</ele>
        <time>2014-05-04T08:56:59.000Z</time>
      </trkpt>
      <trkpt lat="48.18099" lon="3.3534">
        <ele>104</ele>
        <time>2014-05-04T08:57:00.000Z</time>
      </trkpt>
      <trkpt lat="48.18099" lon="3.3534">
        <ele>104</ele>
        <time>2014-05-04T08:57:02.000Z</time>
      </trkpt>
      <trkpt lat="48.181" lon="3.35349">
        <ele>104</ele>
        <time>2014-05-04T08:57:03.000Z</time>
      </trkpt>
      <trkpt lat="48.181" lon="3.35349">
        <ele>104</ele>
        <time>2014-05-04T08:57:05.000Z</time>
      </trkpt>
      <trkpt lat="48.18101" lon="3.3536">
        <ele>104</ele>
        <time>2014-05-04T08:57:06.000Z</time>
      </trkpt>
      <trkpt lat="48.18102" lon="3.35364">
        <ele>104</ele>
        <time>2014-05-04T08:57:07.000Z</time>
      </trkpt>
      <trkpt lat="48.18102" lon="3.35368">
        <ele>104</ele>
        <time>2014-05-04T08:57:08.000Z</time>
      </trkpt>
      <trkpt lat="48.18102" lon="3.35368">
        <ele>104</ele>
        <time>2014-05-04T08:57:09.000Z</time>
      </trkpt>
      <trkpt lat="48.18104" lon="3.35375">
        <ele>104</ele>
        <time>2014-05-04T08:57:10.000Z</time>
      </trkpt>
      <trkpt lat="48.18104" lon="3.35379">
        <ele>104</ele>
        <time>2014-05-04T08:57:11.000Z</time>
      </trkpt>
      <trkpt lat="48.18104" lon="3.35383">
        <ele>104</ele>
        <time>2014-05-04T08:57:12.000Z</time>
      </trkpt>
      <trkpt lat="48.18105" lon="3.3539">
        <ele>104</ele>
        <time>2014-05-04T08:57:13.000Z</time>
      </trkpt>
      <trkpt lat="48.18105" lon="3.35394">
        <ele>104</ele>
        <time>2014-05-04T08:57:14.000Z</time>
      </trkpt>
      <trkpt lat="48.18105" lon="3.35398">
        <ele>104</ele>
        <time>2014-05-04T08:57:15.000Z</time>
      </trkpt>
      <trkpt lat="48.18106" lon="3.35405">
        <ele>104</ele>
        <time>2014-05-04T08:57:16.000Z</time>
      </trkpt>
      <trkpt lat="48.18106" lon="3.35411">
        <ele>104</ele>
        <time>2014-05-04T08:57:17.000Z</time>
      </trkpt>
      <trkpt lat="48.18107" lon="3.35418">
        <ele>103</ele>
        <time>2014-05-04T08:57:18.000Z</time>
      </trkpt>
      <trkpt lat="48.18108" lon="3.35422">
        <ele>104</ele>
        <time>2014-05-04T08:57:19.000Z</time>
      </trkpt>
      <trkpt lat="48.1811" lon="3.35428">
        <ele>104</ele>
        <time>2014-05-04T08:57:20.000Z</time>
      </trkpt>
      <trkpt lat="48.18111" lon="3.35435">
        <ele>104</ele>
        <time>2014-05-04T08:57:21.000Z</time>
      </trkpt>
      <trkpt lat="48.18112" lon="3.35443">
        <ele>104</ele>
        <time>2014-05-04T08:57:22.000Z</time>
      </trkpt>
      <trkpt lat="48.18113" lon="3.3545">
        <ele>104</ele>
        <time>2014-05-04T08:57:23.000Z</time>
      </trkpt>
      <trkpt lat="48.18114" lon="3.35459">
        <ele>104</ele>
        <time>2014-05-04T08:57:24.000Z</time>
      </trkpt>
      <trkpt lat="48.18115" lon="3.35465">
        <ele>104</ele>
        <time>2014-05-04T08:57:25.000Z</time>
      </trkpt>
      <trkpt lat="48.18115" lon="3.35474">
        <ele>104</ele>
        <time>2014-05-04T08:57:26.000Z</time>
      </trkpt>
      <trkpt lat="48.18116" lon="3.3548">
        <ele>104</ele>
        <time>2014-05-04T08:57:27.000Z</time>
      </trkpt>
      <trkpt lat="48.18117" lon="3.35486">
        <ele>104</ele>
        <time>2014-05-04T08:57:28.000Z</time>
      </trkpt>
      <trkpt lat="48.18119" lon="3.35493">
        <ele>104</ele>
        <time>2014-05-04T08:57:29.000Z</time>
      </trkpt>
      <trkpt lat="48.1812" lon="3.35499">
        <ele>104</ele>
        <time>2014-05-04T08:57:30.000Z</time>
      </trkpt>
      <trkpt lat="48.18121" lon="3.35506">
        <ele>104</ele>
        <time>2014-05-04T08:57:31.000Z</time>
      </trkpt>
      <trkpt lat="48.18122" lon="3.35512">
        <ele>104</ele>
        <time>2014-05-04T08:57:32.000Z</time>
      </trkpt>
      <trkpt lat="48.18123" lon="3.35521">
        <ele>104</ele>
        <time>2014-05-04T08:57:33.000Z</time>
      </trkpt>
      <trkpt lat="48.18124" lon="3.35527">
        <ele>104</ele>
        <time>2014-05-04T08:57:34.000Z</time>
      </trkpt>
      <trkpt lat="48.18126" lon="3.35534">
        <ele>104</ele>
        <time>2014-05-04T08:57:35.000Z</time>
      </trkpt>
      <trkpt lat="48.18127" lon="3.3554">
        <ele>104</ele>
        <time>2014-05-04T08:57:36.000Z</time>
      </trkpt>
      <trkpt lat="48.18128" lon="3.35546">
        <ele>104</ele>
        <time>2014-05-04T08:57:37.000Z</time>
      </trkpt>
      <trkpt lat="48.1813" lon="3.35553">
        <ele>104</ele>
        <time>2014-05-04T08:57:38.000Z</time>
      </trkpt>
      <trkpt lat="48.18131" lon="3.35559">
        <ele>104</ele>
        <time>2014-05-04T08:57:39.000Z</time>
      </trkpt>
      <trkpt lat="48.18133" lon="3.35566">
        <ele>105</ele>
        <time>2014-05-04T08:57:40.000Z</time>
      </trkpt>
      <trkpt lat="48.18134" lon="3.35572">
        <ele>105</ele>
        <time>2014-05-04T08:57:41.000Z</time>
      </trkpt>
      <trkpt lat="48.18135" lon="3.35579">
        <ele>105</ele>
        <time>2014-05-04T08:57:42.000Z</time>
      </trkpt>
      <trkpt lat="48.18136" lon="3.35585">
        <ele>104</ele>
        <time>2014-05-04T08:57:43.000Z</time>
      </trkpt>
      <trkpt lat="48.18137" lon="3.35589">
        <ele>104</ele>
        <time>2014-05-04T08:57:44.000Z</time>
      </trkpt>
      <trkpt lat="48.18138" lon="3.35592">
        <ele>105</ele>
        <time>2014-05-04T08:57:45.000Z</time>
      </trkpt>
      <trkpt lat="48.18138" lon="3.35592">
        <ele>105</ele>
        <time>2014-05-04T08:57:47.000Z</time>
      </trkpt>
      <trkpt lat="48.1814" lon="3.356">
        <ele>105</ele>
        <time>2014-05-04T08:57:48.000Z</time>
      </trkpt>
      <trkpt lat="48.18143" lon="3.35604">
        <ele>105</ele>
        <time>2014-05-04T08:57:50.000Z</time>
      </trkpt>
      <trkpt lat="48.18145" lon="3.35607">
        <ele>105</ele>
        <time>2014-05-04T08:57:51.000Z</time>
      </trkpt>
      <trkpt lat="48.18149" lon="3.35607">
        <ele>105</ele>
        <time>2014-05-04T08:57:52.000Z</time>
      </trkpt>
      <trkpt lat="48.18151" lon="3.35609">
        <ele>105</ele>
        <time>2014-05-04T08:57:53.000Z</time>
      </trkpt>
      <trkpt lat="48.18153" lon="3.35609">
        <ele>105</ele>
        <time>2014-05-04T08:57:54.000Z</time>
      </trkpt>
      <trkpt lat="48.18156" lon="3.35611">
        <ele>105</ele>
        <time>2014-05-04T08:57:55.000Z</time>
      </trkpt>
      <trkpt lat="48.18158" lon="3.35611">
        <ele>105</ele>
        <time>2014-05-04T08:57:56.000Z</time>
      </trkpt>
      <trkpt lat="48.18161" lon="3.35613">
        <ele>105</ele>
        <time>2014-05-04T08:57:57.000Z</time>
      </trkpt>
      <trkpt lat="48.18164" lon="3.35613">
        <ele>105</ele>
        <time>2014-05-04T08:57:58.000Z</time>
      </trkpt>
      <trkpt lat="48.18167" lon="3.35615">
        <ele>108</ele>
        <time>2014-05-04T08:57:59.000Z</time>
      </trkpt>
      <trkpt lat="48.1817" lon="3.35617">
        <ele>108</ele>
        <time>2014-05-04T08:58:00.000Z</time>
      </trkpt>
      <trkpt lat="48.18173" lon="3.35617">
        <ele>108</ele>
        <time>2014-05-04T08:58:01.000Z</time>
      </trkpt>
      <trkpt lat="48.18177" lon="3.35619">
        <ele>109</ele>
        <time>2014-05-04T08:58:02.000Z</time>
      </trkpt>
      <trkpt lat="48.1818" lon="3.35622">
        <ele>109</ele>
        <time>2014-05-04T08:58:03.000Z</time>
      </trkpt>
      <trkpt lat="48.18182" lon="3.35622">
        <ele>109</ele>
        <time>2014-05-04T08:58:04.000Z</time>
      </trkpt>
      <trkpt lat="48.18185" lon="3.35624">
        <ele>109</ele>
        <time>2014-05-04T08:58:05.000Z</time>
      </trkpt>
      <trkpt lat="48.18188" lon="3.35624">
        <ele>109</ele>
        <time>2014-05-04T08:58:06.000Z</time>
      </trkpt>
      <trkpt lat="48.18192" lon="3.35626">
        <ele>109</ele>
        <time>2014-05-04T08:58:07.000Z</time>
      </trkpt>
      <trkpt lat="48.18195" lon="3.35628">
        <ele>109</ele>
        <time>2014-05-04T08:58:08.000Z</time>
      </trkpt>
      <trkpt lat="48.18198" lon="3.35628">
        <ele>109</ele>
        <time>2014-05-04T08:58:09.000Z</time>
      </trkpt>
      <trkpt lat="48.18201" lon="3.3563">
        <ele>109</ele>
        <time>2014-05-04T08:58:10.000Z</time>
      </trkpt>
      <trkpt lat="48.18204" lon="3.3563">
        <ele>109</ele>
        <time>2014-05-04T08:58:11.000Z</time>
      </trkpt>
      <trkpt lat="48.18207" lon="3.35632">
        <ele>109</ele>
        <time>2014-05-04T08:58:12.000Z</time>
      </trkpt>
      <trkpt lat="48.1821" lon="3.35632">
        <ele>109</ele>
        <time>2014-05-04T08:58:13.000Z</time>
      </trkpt>
      <trkpt lat="48.18213" lon="3.35634">
        <ele>110</ele>
        <time>2014-05-04T08:58:14.000Z</time>
      </trkpt>
      <trkpt lat="48.18216" lon="3.35634">
        <ele>110</ele>
        <time>2014-05-04T08:58:15.000Z</time>
      </trkpt>
      <trkpt lat="48.18219" lon="3.35637">
        <ele>110</ele>
        <time>2014-05-04T08:58:16.000Z</time>
      </trkpt>
      <trkpt lat="48.18223" lon="3.35639">
        <ele>110</ele>
        <time>2014-05-04T08:58:17.000Z</time>
      </trkpt>
      <trkpt lat="48.18226" lon="3.35639">
        <ele>110</ele>
        <time>2014-05-04T08:58:18.000Z</time>
      </trkpt>
      <trkpt lat="48.18229" lon="3.35641">
        <ele>110</ele>
        <time>2014-05-04T08:58:19.000Z</time>
      </trkpt>
      <trkpt lat="48.18232" lon="3.35641">
        <ele>110</ele>
        <time>2014-05-04T08:58:20.000Z</time>
      </trkpt>
      <trkpt lat="48.18234" lon="3.35643">
        <ele>110</ele>
        <time>2014-05-04T08:58:21.000Z</time>
      </trkpt>
      <trkpt lat="48.18238" lon="3.35645">
        <ele>110</ele>
        <time>2014-05-04T08:58:22.000Z</time>
      </trkpt>
      <trkpt lat="48.18241" lon="3.35645">
        <ele>110</ele>
        <time>2014-05-04T08:58:23.000Z</time>
      </trkpt>
      <trkpt lat="48.18244" lon="3.35647">
        <ele>110</ele>
        <time>2014-05-04T08:58:24.000Z</time>
      </trkpt>
      <trkpt lat="48.18247" lon="3.35647">
        <ele>110</ele>
        <time>2014-05-04T08:58:25.000Z</time>
      </trkpt>
      <trkpt lat="48.18249" lon="3.35649">
        <ele>110</ele>
        <time>2014-05-04T08:58:26.000Z</time>
      </trkpt>
      <trkpt lat="48.18253" lon="3.35652">
        <ele>113</ele>
        <time>2014-05-04T08:58:27.000Z</time>
      </trkpt>
      <trkpt lat="48.18257" lon="3.35652">
        <ele>113</ele>
        <time>2014-05-04T08:58:29.000Z</time>
      </trkpt>
      <trkpt lat="48.18259" lon="3.35654">
        <ele>113</ele>
        <time>2014-05-04T08:58:30.000Z</time>
      </trkpt>
      <trkpt lat="48.18262" lon="3.35654">
        <ele>113</ele>
        <time>2014-05-04T08:58:31.000Z</time>
      </trkpt>
      <trkpt lat="48.18264" lon="3.35656">
        <ele>113</ele>
        <time>2014-05-04T08:58:32.000Z</time>
      </trkpt>
      <trkpt lat="48.18267" lon="3.35656">
        <ele>113</ele>
        <time>2014-05-04T08:58:33.000Z</time>
      </trkpt>
      <trkpt lat="48.18269" lon="3.35658">
        <ele>114</ele>
        <time>2014-05-04T08:58:34.000Z</time>
      </trkpt>
      <trkpt lat="48.18271" lon="3.35658">
        <ele>114</ele>
        <time>2014-05-04T08:58:35.000Z</time>
      </trkpt>
      <trkpt lat="48.18273" lon="3.3566">
        <ele>114</ele>
        <time>2014-05-04T08:58:36.000Z</time>
      </trkpt>
      <trkpt lat="48.18276" lon="3.3566">
        <ele>114</ele>
        <time>2014-05-04T08:58:37.000Z</time>
      </trkpt>
      <trkpt lat="48.18278" lon="3.35662">
        <ele>114</ele>
        <time>2014-05-04T08:58:38.000Z</time>
      </trkpt>
      <trkpt lat="48.18281" lon="3.35662">
        <ele>114</ele>
        <time>2014-05-04T08:58:39.000Z</time>
      </trkpt>
      <trkpt lat="48.18284" lon="3.35665">
        <ele>114</ele>
        <time>2014-05-04T08:58:40.000Z</time>
      </trkpt>
      <trkpt lat="48.18286" lon="3.35665">
        <ele>115</ele>
        <time>2014-05-04T08:58:41.000Z</time>
      </trkpt>
      <trkpt lat="48.18289" lon="3.35667">
        <ele>115</ele>
        <time>2014-05-04T08:58:42.000Z</time>
      </trkpt>
      <trkpt lat="48.18291" lon="3.35667">
        <ele>115</ele>
        <time>2014-05-04T08:58:43.000Z</time>
      </trkpt>
      <trkpt lat="48.18295" lon="3.35669">
        <ele>113</ele>
        <time>2014-05-04T08:58:44.000Z</time>
      </trkpt>
      <trkpt lat="48.18298" lon="3.35671">
        <ele>114</ele>
        <time>2014-05-04T08:58:45.000Z</time>
      </trkpt>
      <trkpt lat="48.183" lon="3.35671">
        <ele>114</ele>
        <time>2014-05-04T08:58:46.000Z</time>
      </trkpt>
      <trkpt lat="48.18303" lon="3.35673">
        <ele>114</ele>
        <time>2014-05-04T08:58:47.000Z</time>
      </trkpt>
      <trkpt lat="48.18305" lon="3.35673">
        <ele>114</ele>
        <time>2014-05-04T08:58:48.000Z</time>
      </trkpt>
      <trkpt lat="48.18308" lon="3.35675">
        <ele>114</ele>
        <time>2014-05-04T08:58:49.000Z</time>
      </trkpt>
      <trkpt lat="48.18311" lon="3.35677">
        <ele>114</ele>
        <time>2014-05-04T08:58:50.000Z</time>
      </trkpt>
      <trkpt lat="48.18314" lon="3.35677">
        <ele>114</ele>
        <time>2014-05-04T08:58:51.000Z</time>
      </trkpt>
      <trkpt lat="48.18317" lon="3.3568">
        <ele>115</ele>
        <time>2014-05-04T08:58:52.000Z</time>
      </trkpt>
      <trkpt lat="48.18319" lon="3.35682">
        <ele>115</ele>
        <time>2014-05-04T08:58:53.000Z</time>
      </trkpt>
      <trkpt lat="48.18322" lon="3.35682">
        <ele>115</ele>
        <time>2014-05-04T08:58:54.000Z</time>
      </trkpt>
      <trkpt lat="48.18325" lon="3.35684">
        <ele>115</ele>
        <time>2014-05-04T08:58:55.000Z</time>
      </trkpt>
      <trkpt lat="48.18328" lon="3.35686">
        <ele>115</ele>
        <time>2014-05-04T08:58:56.000Z</time>
      </trkpt>
      <trkpt lat="48.18331" lon="3.35686">
        <ele>115</ele>
        <time>2014-05-04T08:58:57.000Z</time>
      </trkpt>
      <trkpt lat="48.18333" lon="3.35688">
        <ele>115</ele>
        <time>2014-05-04T08:58:58.000Z</time>
      </trkpt>
      <trkpt lat="48.18336" lon="3.3569">
        <ele>118</ele>
        <time>2014-05-04T08:58:59.000Z</time>
      </trkpt>
      <trkpt lat="48.18339" lon="3.3569">
        <ele>118</ele>
        <time>2014-05-04T08:59:00.000Z</time>
      </trkpt>
      <trkpt lat="48.18341" lon="3.35692">
        <ele>118</ele>
        <time>2014-05-04T08:59:01.000Z</time>
      </trkpt>
      <trkpt lat="48.18344" lon="3.35692">
        <ele>118</ele>
        <time>2014-05-04T08:59:02.000Z</time>
      </trkpt>
      <trkpt lat="48.18346" lon="3.35695">
        <ele>118</ele>
        <time>2014-05-04T08:59:03.000Z</time>
      </trkpt>
      <trkpt lat="48.18348" lon="3.35695">
        <ele>118</ele>
        <time>2014-05-04T08:59:04.000Z</time>
      </trkpt>
      <trkpt lat="48.18351" lon="3.35697">
        <ele>119</ele>
        <time>2014-05-04T08:59:05.000Z</time>
      </trkpt>
      <trkpt lat="48.18354" lon="3.35697">
        <ele>119</ele>
        <time>2014-05-04T08:59:06.000Z</time>
      </trkpt>
      <trkpt lat="48.18356" lon="3.35699">
        <ele>119</ele>
        <time>2014-05-04T08:59:07.000Z</time>
      </trkpt>
      <trkpt lat="48.18358" lon="3.35701">
        <ele>119</ele>
        <time>2014-05-04T08:59:08.000Z</time>
      </trkpt>
      <trkpt lat="48.1836" lon="3.35701">
        <ele>119</ele>
        <time>2014-05-04T08:59:10.000Z</time>
      </trkpt>
      <trkpt lat="48.18364" lon="3.35703">
        <ele>119</ele>
        <time>2014-05-04T08:59:11.000Z</time>
      </trkpt>
      <trkpt lat="48.18367" lon="3.35707">
        <ele>119</ele>
        <time>2014-05-04T08:59:13.000Z</time>
      </trkpt>
      <trkpt lat="48.1837" lon="3.35707">
        <ele>119</ele>
        <time>2014-05-04T08:59:14.000Z</time>
      </trkpt>
      <trkpt lat="48.18372" lon="3.3571">
        <ele>119</ele>
        <time>2014-05-04T08:59:15.000Z</time>
      </trkpt>
      <trkpt lat="48.18374" lon="3.3571">
        <ele>119</ele>
        <time>2014-05-04T08:59:16.000Z</time>
      </trkpt>
      <trkpt lat="48.18377" lon="3.35712">
        <ele>120</ele>
        <time>2014-05-04T08:59:20.000Z</time>
      </trkpt>
      <trkpt lat="48.18383" lon="3.35714">
        <ele>120</ele>
        <time>2014-05-04T08:59:21.000Z</time>
      </trkpt>
      <trkpt lat="48.18383" lon="3.35714">
        <ele>120</ele>
        <time>2014-05-04T08:59:23.000Z</time>
      </trkpt>
      <trkpt lat="48.18388" lon="3.35718">
        <ele>120</ele>
        <time>2014-05-04T08:59:24.000Z</time>
      </trkpt>
      <trkpt lat="48.18392" lon="3.35718">
        <ele>120</ele>
        <time>2014-05-04T08:59:26.000Z</time>
      </trkpt>
      <trkpt lat="48.18394" lon="3.3572">
        <ele>121</ele>
        <time>2014-05-04T08:59:27.000Z</time>
      </trkpt>
      <trkpt lat="48.18396" lon="3.3572">
        <ele>121</ele>
        <time>2014-05-04T08:59:30.000Z</time>
      </trkpt>
      <trkpt lat="48.18402" lon="3.35722">
        <ele>121</ele>
        <time>2014-05-04T08:59:31.000Z</time>
      </trkpt>
      <trkpt lat="48.18402" lon="3.35722">
        <ele>121</ele>
        <time>2014-05-04T08:59:33.000Z</time>
      </trkpt>
      <trkpt lat="48.18407" lon="3.35725">
        <ele>121</ele>
        <time>2014-05-04T08:59:34.000Z</time>
      </trkpt>
      <trkpt lat="48.18407" lon="3.35725">
        <ele>121</ele>
        <time>2014-05-04T08:59:36.000Z</time>
      </trkpt>
      <trkpt lat="48.18414" lon="3.35727">
        <ele>122</ele>
        <time>2014-05-04T08:59:37.000Z</time>
      </trkpt>
      <trkpt lat="48.18414" lon="3.35727">
        <ele>122</ele>
        <time>2014-05-04T08:59:39.000Z</time>
      </trkpt>
      <trkpt lat="48.18419" lon="3.35729">
        <ele>128</ele>
        <time>2014-05-04T08:59:40.000Z</time>
      </trkpt>
      <trkpt lat="48.18419" lon="3.35729">
        <ele>128</ele>
        <time>2014-05-04T08:59:42.000Z</time>
      </trkpt>
      <trkpt lat="48.18424" lon="3.35731">
        <ele>128</ele>
        <time>2014-05-04T08:59:43.000Z</time>
      </trkpt>
      <trkpt lat="48.18428" lon="3.35731">
        <ele>128</ele>
        <time>2014-05-04T08:59:48.000Z</time>
      </trkpt>
      <trkpt lat="48.18433" lon="3.35733">
        <ele>129</ele>
        <time>2014-05-04T08:59:49.000Z</time>
      </trkpt>
      <trkpt lat="48.18436" lon="3.35733">
        <ele>129</ele>
        <time>2014-05-04T08:59:54.000Z</time>
      </trkpt>
      <trkpt lat="48.1844" lon="3.35731">
        <ele>129</ele>
        <time>2014-05-04T08:59:55.000Z</time>
      </trkpt>
      <trkpt lat="48.18444" lon="3.35731">
        <ele>130</ele>
        <time>2014-05-04T09:00:01.000Z</time>
      </trkpt>
      <trkpt lat="48.18448" lon="3.35735">
        <ele>130</ele>
        <time>2014-05-04T09:00:02.000Z</time>
      </trkpt>
      <trkpt lat="48.18448" lon="3.35735">
        <ele>130</ele>
        <time>2014-05-04T09:00:05.000Z</time>
      </trkpt>
      <trkpt lat="48.1845" lon="3.35742">
        <ele>130</ele>
        <time>2014-05-04T09:00:06.000Z</time>
      </trkpt>
      <trkpt lat="48.1845" lon="3.35742">
        <ele>130</ele>
        <time>2014-05-04T09:00:07.000Z</time>
      </trkpt>
      <trkpt lat="48.18448" lon="3.35748">
        <ele>130</ele>
        <time>2014-05-04T09:00:08.000Z</time>
      </trkpt>
      <trkpt lat="48.18447" lon="3.35755">
        <ele>131</ele>
        <time>2014-05-04T09:00:09.000Z</time>
      </trkpt>
      <trkpt lat="48.18445" lon="3.35759">
        <ele>131</ele>
        <time>2014-05-04T09:00:10.000Z</time>
      </trkpt>
      <trkpt lat="48.18443" lon="3.35765">
        <ele>130</ele>
        <time>2014-05-04T09:00:11.000Z</time>
      </trkpt>
      <trkpt lat="48.1844" lon="3.35772">
        <ele>130</ele>
        <time>2014-05-04T09:00:12.000Z</time>
      </trkpt>
      <trkpt lat="48.18437" lon="3.35778">
        <ele>130</ele>
        <time>2014-05-04T09:00:13.000Z</time>
      </trkpt>
      <trkpt lat="48.18434" lon="3.35785">
        <ele>130</ele>
        <time>2014-05-04T09:00:14.000Z</time>
      </trkpt>
      <trkpt lat="48.18432" lon="3.35791">
        <ele>130</ele>
        <time>2014-05-04T09:00:15.000Z</time>
      </trkpt>
      <trkpt lat="48.18429" lon="3.358">
        <ele>130</ele>
        <time>2014-05-04T09:00:16.000Z</time>
      </trkpt>
      <trkpt lat="48.18425" lon="3.35806">
        <ele>130</ele>
        <time>2014-05-04T09:00:17.000Z</time>
      </trkpt>
      <trkpt lat="48.18422" lon="3.35815">
        <ele>129</ele>
        <time>2014-05-04T09:00:18.000Z</time>
      </trkpt>
      <trkpt lat="48.18419" lon="3.35821">
        <ele>128</ele>
        <time>2014-05-04T09:00:19.000Z</time>
      </trkpt>
      <trkpt lat="48.18416" lon="3.35828">
        <ele>125</ele>
        <time>2014-05-04T09:00:20.000Z</time>
      </trkpt>
      <trkpt lat="48.18413" lon="3.35836">
        <ele>125</ele>
        <time>2014-05-04T09:00:21.000Z</time>
      </trkpt>
      <trkpt lat="48.1841" lon="3.35845">
        <ele>124</ele>
        <time>2014-05-04T09:00:22.000Z</time>
      </trkpt>
      <trkpt lat="48.18409" lon="3.35851">
        <ele>124</ele>
        <time>2014-05-04T09:00:23.000Z</time>
      </trkpt>
      <trkpt lat="48.18409" lon="3.35858">
        <ele>123</ele>
        <time>2014-05-04T09:00:24.000Z</time>
      </trkpt>
      <trkpt lat="48.18409" lon="3.35862">
        <ele>123</ele>
        <time>2014-05-04T09:00:25.000Z</time>
      </trkpt>
      <trkpt lat="48.1841" lon="3.35866">
        <ele>123</ele>
        <time>2014-05-04T09:00:26.000Z</time>
      </trkpt>
      <trkpt lat="48.1841" lon="3.35866">
        <ele>123</ele>
        <time>2014-05-04T09:00:28.000Z</time>
      </trkpt>
      <trkpt lat="48.18414" lon="3.35873">
        <ele>123</ele>
        <time>2014-05-04T09:00:29.000Z</time>
      </trkpt>
      <trkpt lat="48.18414" lon="3.35873">
        <ele>123</ele>
        <time>2014-05-04T09:00:31.000Z</time>
      </trkpt>
      <trkpt lat="48.18418" lon="3.35879">
        <ele>129</ele>
        <time>2014-05-04T09:00:32.000Z</time>
      </trkpt>
      <trkpt lat="48.18418" lon="3.35879">
        <ele>129</ele>
        <time>2014-05-04T09:00:34.000Z</time>
      </trkpt>
      <trkpt lat="48.18423" lon="3.35883">
        <ele>129</ele>
        <time>2014-05-04T09:00:35.000Z</time>
      </trkpt>
      <trkpt lat="48.18423" lon="3.35883">
        <ele>129</ele>
        <time>2014-05-04T09:00:36.000Z</time>
      </trkpt>
      <trkpt lat="48.18428" lon="3.35886">
        <ele>129</ele>
        <time>2014-05-04T09:00:37.000Z</time>
      </trkpt>
      <trkpt lat="48.18431" lon="3.35886">
        <ele>130</ele>
        <time>2014-05-04T09:00:41.000Z</time>
      </trkpt>
      <trkpt lat="48.18437" lon="3.35888">
        <ele>130</ele>
        <time>2014-05-04T09:00:42.000Z</time>
      </trkpt>
      <trkpt lat="48.18437" lon="3.35888">
        <ele>130</ele>
        <time>2014-05-04T09:00:44.000Z</time>
      </trkpt>
      <trkpt lat="48.18443" lon="3.3589">
        <ele>130</ele>
        <time>2014-05-04T09:00:45.000Z</time>
      </trkpt>
      <trkpt lat="48.18443" lon="3.3589">
        <ele>130</ele>
        <time>2014-05-04T09:00:47.000Z</time>
      </trkpt>
      <trkpt lat="48.18448" lon="3.35892">
        <ele>131</ele>
        <time>2014-05-04T09:00:48.000Z</time>
      </trkpt>
      <trkpt lat="48.18448" lon="3.35892">
        <ele>131</ele>
        <time>2014-05-04T09:00:50.000Z</time>
      </trkpt>
      <trkpt lat="48.18453" lon="3.35896">
        <ele>131</ele>
        <time>2014-05-04T09:00:51.000Z</time>
      </trkpt>
      <trkpt lat="48.18453" lon="3.35896">
        <ele>131</ele>
        <time>2014-05-04T09:00:53.000Z</time>
      </trkpt>
      <trkpt lat="48.18459" lon="3.35898">
        <ele>131</ele>
        <time>2014-05-04T09:00:54.000Z</time>
      </trkpt>
      <trkpt lat="48.18459" lon="3.35898">
        <ele>131</ele>
        <time>2014-05-04T09:00:56.000Z</time>
      </trkpt>
      <trkpt lat="48.18463" lon="3.35903">
        <ele>132</ele>
        <time>2014-05-04T09:00:57.000Z</time>
      </trkpt>
      <trkpt lat="48.18463" lon="3.35903">
        <ele>132</ele>
        <time>2014-05-04T09:00:59.000Z</time>
      </trkpt>
      <trkpt lat="48.18468" lon="3.35907">
        <ele>132</ele>
        <time>2014-05-04T09:01:00.000Z</time>
      </trkpt>
      <trkpt lat="48.18468" lon="3.35907">
        <ele>132</ele>
        <time>2014-05-04T09:01:02.000Z</time>
      </trkpt>
      <trkpt lat="48.18473" lon="3.35911">
        <ele>133</ele>
        <time>2014-05-04T09:01:03.000Z</time>
      </trkpt>
      <trkpt lat="48.18473" lon="3.35911">
        <ele>133</ele>
        <time>2014-05-04T09:01:05.000Z</time>
      </trkpt>
      <trkpt lat="48.18478" lon="3.35916">
        <ele>133</ele>
        <time>2014-05-04T09:01:06.000Z</time>
      </trkpt>
      <trkpt lat="48.18478" lon="3.35916">
        <ele>133</ele>
        <time>2014-05-04T09:01:08.000Z</time>
      </trkpt>
      <trkpt lat="48.18483" lon="3.35922">
        <ele>134</ele>
        <time>2014-05-04T09:01:09.000Z</time>
      </trkpt>
      <trkpt lat="48.18483" lon="3.35922">
        <ele>134</ele>
        <time>2014-05-04T09:01:11.000Z</time>
      </trkpt>
      <trkpt lat="48.18489" lon="3.35926">
        <ele>135</ele>
        <time>2014-05-04T09:01:12.000Z</time>
      </trkpt>
      <trkpt lat="48.18489" lon="3.35926">
        <ele>135</ele>
        <time>2014-05-04T09:01:14.000Z</time>
      </trkpt>
      <trkpt lat="48.18494" lon="3.35931">
        <ele>135</ele>
        <time>2014-05-04T09:01:15.000Z</time>
      </trkpt>
      <trkpt lat="48.18494" lon="3.35931">
        <ele>135</ele>
        <time>2014-05-04T09:01:17.000Z</time>
      </trkpt>
      <trkpt lat="48.18499" lon="3.35935">
        <ele>135</ele>
        <time>2014-05-04T09:01:18.000Z</time>
      </trkpt>
      <trkpt lat="48.18499" lon="3.35935">
        <ele>135</ele>
        <time>2014-05-04T09:01:21.000Z</time>
      </trkpt>
      <trkpt lat="48.18504" lon="3.35939">
        <ele>140</ele>
        <time>2014-05-04T09:01:22.000Z</time>
      </trkpt>
      <trkpt lat="48.18504" lon="3.35939">
        <ele>140</ele>
        <time>2014-05-04T09:01:25.000Z</time>
      </trkpt>
      <trkpt lat="48.18508" lon="3.35943">
        <ele>140</ele>
        <time>2014-05-04T09:01:26.000Z</time>
      </trkpt>
      <trkpt lat="48.18512" lon="3.35943">
        <ele>141</ele>
        <time>2014-05-04T09:01:34.000Z</time>
      </trkpt>
      <trkpt lat="48.18517" lon="3.35941">
        <ele>141</ele>
        <time>2014-05-04T09:01:35.000Z</time>
      </trkpt>
      <trkpt lat="48.18517" lon="3.35941">
        <ele>141</ele>
        <time>2014-05-04T09:01:42.000Z</time>
      </trkpt>
      <trkpt lat="48.18521" lon="3.35931">
        <ele>141</ele>
        <time>2014-05-04T09:01:43.000Z</time>
      </trkpt>
      <trkpt lat="48.18521" lon="3.35931">
        <ele>141</ele>
        <time>2014-05-04T09:01:49.000Z</time>
      </trkpt>
      <trkpt lat="48.18523" lon="3.35913">
        <ele>141</ele>
        <time>2014-05-04T09:01:50.000Z</time>
      </trkpt>
      <trkpt lat="48.18523" lon="3.35913">
        <ele>141</ele>
        <time>2014-05-04T09:01:53.000Z</time>
      </trkpt>
      <trkpt lat="48.18523" lon="3.35898">
        <ele>142</ele>
        <time>2014-05-04T09:01:54.000Z</time>
      </trkpt>
      <trkpt lat="48.18524" lon="3.35892">
        <ele>142</ele>
        <time>2014-05-04T09:01:57.000Z</time>
      </trkpt>
      <trkpt lat="48.18526" lon="3.35886">
        <ele>142</ele>
        <time>2014-05-04T09:01:58.000Z</time>
      </trkpt>
      <trkpt lat="48.18526" lon="3.35886">
        <ele>142</ele>
        <time>2014-05-04T09:02:05.000Z</time>
      </trkpt>
      <trkpt lat="48.18526" lon="3.35894">
        <ele>142</ele>
        <time>2014-05-04T09:02:06.000Z</time>
      </trkpt>
      <trkpt lat="48.18525" lon="3.35896">
        <ele>142</ele>
        <time>2014-05-04T09:02:07.000Z</time>
      </trkpt>
      <trkpt lat="48.18523" lon="3.35901">
        <ele>142</ele>
        <time>2014-05-04T09:02:08.000Z</time>
      </trkpt>
      <trkpt lat="48.18522" lon="3.35905">
        <ele>141</ele>
        <time>2014-05-04T09:02:09.000Z</time>
      </trkpt>
      <trkpt lat="48.18522" lon="3.35909">
        <ele>141</ele>
        <time>2014-05-04T09:02:10.000Z</time>
      </trkpt>
      <trkpt lat="48.18522" lon="3.35916">
        <ele>141</ele>
        <time>2014-05-04T09:02:12.000Z</time>
      </trkpt>
      <trkpt lat="48.18522" lon="3.35918">
        <ele>140</ele>
        <time>2014-05-04T09:02:13.000Z</time>
      </trkpt>
      <trkpt lat="48.18522" lon="3.35922">
        <ele>140</ele>
        <time>2014-05-04T09:02:18.000Z</time>
      </trkpt>
      <trkpt lat="48.18521" lon="3.35937">
        <ele>141</ele>
        <time>2014-05-04T09:02:19.000Z</time>
      </trkpt>
      <trkpt lat="48.18521" lon="3.35937">
        <ele>141</ele>
        <time>2014-05-04T09:02:22.000Z</time>
      </trkpt>
      <trkpt lat="48.18519" lon="3.35948">
        <ele>141</ele>
        <time>2014-05-04T09:02:23.000Z</time>
      </trkpt>
      <trkpt lat="48.1852" lon="3.35954">
        <ele>141</ele>
        <time>2014-05-04T09:02:26.000Z</time>
      </trkpt>
      <trkpt lat="48.18522" lon="3.35956">
        <ele>141</ele>
        <time>2014-05-04T09:02:27.000Z</time>
      </trkpt>
      <trkpt lat="48.18523" lon="3.35956">
        <ele>141</ele>
        <time>2014-05-04T09:03:19.000Z</time>
      </trkpt>
      <trkpt lat="48.18526" lon="3.35961">
        <ele>142</ele>
        <time>2014-05-04T09:03:20.000Z</time>
      </trkpt>
      <trkpt lat="48.18526" lon="3.35961">
        <ele>142</ele>
        <time>2014-05-04T09:03:23.000Z</time>
      </trkpt>
      <trkpt lat="48.18529" lon="3.35967">
        <ele>142</ele>
        <time>2014-05-04T09:03:24.000Z</time>
      </trkpt>
      <trkpt lat="48.18533" lon="3.35971">
        <ele>142</ele>
        <time>2014-05-04T09:03:28.000Z</time>
      </trkpt>
      <trkpt lat="48.18534" lon="3.35974">
        <ele>142</ele>
        <time>2014-05-04T09:03:29.000Z</time>
      </trkpt>
      <trkpt lat="48.18537" lon="3.35978">
        <ele>142</ele>
        <time>2014-05-04T09:03:33.000Z</time>
      </trkpt>
      <trkpt lat="48.18538" lon="3.3598">
        <ele>142</ele>
        <time>2014-05-04T09:03:34.000Z</time>
      </trkpt>
      <trkpt lat="48.18541" lon="3.35982">
        <ele>142</ele>
        <time>2014-05-04T09:03:41.000Z</time>
      </trkpt>
      <trkpt lat="48.18542" lon="3.35982">
        <ele>143</ele>
        <time>2014-05-04T09:03:42.000Z</time>
      </trkpt>
      <trkpt lat="48.18546" lon="3.35986">
        <ele>143</ele>
        <time>2014-05-04T09:03:48.000Z</time>
      </trkpt>
      <trkpt lat="48.18547" lon="3.35986">
        <ele>143</ele>
        <time>2014-05-04T09:03:49.000Z</time>
      </trkpt>
      <trkpt lat="48.1855" lon="3.35989">
        <ele>143</ele>
        <time>2014-05-04T09:03:51.000Z</time>
      </trkpt>
      <trkpt lat="48.18551" lon="3.35989">
        <ele>143</ele>
        <time>2014-05-04T09:03:52.000Z</time>
      </trkpt>
      <trkpt lat="48.18554" lon="3.35991">
        <ele>144</ele>
        <time>2014-05-04T09:03:55.000Z</time>
      </trkpt>
      <trkpt lat="48.18555" lon="3.35993">
        <ele>144</ele>
        <time>2014-05-04T09:03:56.000Z</time>
      </trkpt>
      <trkpt lat="48.18558" lon="3.35995">
        <ele>144</ele>
        <time>2014-05-04T09:03:59.000Z</time>
      </trkpt>
      <trkpt lat="48.1856" lon="3.35995">
        <ele>144</ele>
        <time>2014-05-04T09:04:00.000Z</time>
      </trkpt>
      <trkpt lat="48.18563" lon="3.35999">
        <ele>145</ele>
        <time>2014-05-04T09:04:03.000Z</time>
      </trkpt>
      <trkpt lat="48.18564" lon="3.35999">
        <ele>145</ele>
        <time>2014-05-04T09:04:04.000Z</time>
      </trkpt>
      <trkpt lat="48.18567" lon="3.36004">
        <ele>146</ele>
        <time>2014-05-04T09:04:08.000Z</time>
      </trkpt>
      <trkpt lat="48.18568" lon="3.36004">
        <ele>146</ele>
        <time>2014-05-04T09:04:09.000Z</time>
      </trkpt>
      <trkpt lat="48.18571" lon="3.36006">
        <ele>146</ele>
        <time>2014-05-04T09:04:13.000Z</time>
      </trkpt>
      <trkpt lat="48.18572" lon="3.36006">
        <ele>147</ele>
        <time>2014-05-04T09:04:14.000Z</time>
      </trkpt>
      <trkpt lat="48.18576" lon="3.36008">
        <ele>147</ele>
        <time>2014-05-04T09:04:17.000Z</time>
      </trkpt>
      <trkpt lat="48.18577" lon="3.3601">
        <ele>147</ele>
        <time>2014-05-04T09:04:18.000Z</time>
      </trkpt>
      <trkpt lat="48.1858" lon="3.3601">
        <ele>147</ele>
        <time>2014-05-04T09:04:21.000Z</time>
      </trkpt>
      <trkpt lat="48.18581" lon="3.36012">
        <ele>147</ele>
        <time>2014-05-04T09:04:22.000Z</time>
      </trkpt>
      <trkpt lat="48.18584" lon="3.36014">
        <ele>152</ele>
        <time>2014-05-04T09:04:26.000Z</time>
      </trkpt>
      <trkpt lat="48.18585" lon="3.36014">
        <ele>152</ele>
        <time>2014-05-04T09:04:27.000Z</time>
      </trkpt>
      <trkpt lat="48.18588" lon="3.36014">
        <ele>152</ele>
        <time>2014-05-04T09:04:30.000Z</time>
      </trkpt>
      <trkpt lat="48.1859" lon="3.36016">
        <ele>153</ele>
        <time>2014-05-04T09:04:31.000Z</time>
      </trkpt>
      <trkpt lat="48.18593" lon="3.36019">
        <ele>153</ele>
        <time>2014-05-04T09:04:35.000Z</time>
      </trkpt>
      <trkpt lat="48.18594" lon="3.36019">
        <ele>153</ele>
        <time>2014-05-04T09:04:36.000Z</time>
      </trkpt>
      <trkpt lat="48.18597" lon="3.36021">
        <ele>154</ele>
        <time>2014-05-04T09:04:40.000Z</time>
      </trkpt>
      <trkpt lat="48.18598" lon="3.36021">
        <ele>154</ele>
        <time>2014-05-04T09:04:41.000Z</time>
      </trkpt>
      <trkpt lat="48.18601" lon="3.36023">
        <ele>155</ele>
        <time>2014-05-04T09:04:45.000Z</time>
      </trkpt>
      <trkpt lat="48.18602" lon="3.36023">
        <ele>155</ele>
        <time>2014-05-04T09:04:46.000Z</time>
      </trkpt>
      <trkpt lat="48.18606" lon="3.36025">
        <ele>155</ele>
        <time>2014-05-04T09:04:50.000Z</time>
      </trkpt>
      <trkpt lat="48.18607" lon="3.36025">
        <ele>155</ele>
        <time>2014-05-04T09:04:51.000Z</time>
      </trkpt>
      <trkpt lat="48.1861" lon="3.36027">
        <ele>156</ele>
        <time>2014-05-04T09:04:55.000Z</time>
      </trkpt>
      <trkpt lat="48.18611" lon="3.36027">
        <ele>156</ele>
        <time>2014-05-04T09:04:56.000Z</time>
      </trkpt>
      <trkpt lat="48.18614" lon="3.36029">
        <ele>156</ele>
        <time>2014-05-04T09:05:00.000Z</time>
      </trkpt>
      <trkpt lat="48.18615" lon="3.36029">
        <ele>156</ele>
        <time>2014-05-04T09:05:01.000Z</time>
      </trkpt>
      <trkpt lat="48.18619" lon="3.36031">
        <ele>157</ele>
        <time>2014-05-04T09:05:04.000Z</time>
      </trkpt>
      <trkpt lat="48.1862" lon="3.36031">
        <ele>157</ele>
        <time>2014-05-04T09:05:05.000Z</time>
      </trkpt>
      <trkpt lat="48.18623" lon="3.36034">
        <ele>157</ele>
        <time>2014-05-04T09:05:08.000Z</time>
      </trkpt>
      <trkpt lat="48.18624" lon="3.36034">
        <ele>157</ele>
        <time>2014-05-04T09:05:09.000Z</time>
      </trkpt>
      <trkpt lat="48.18627" lon="3.36034">
        <ele>158</ele>
        <time>2014-05-04T09:05:13.000Z</time>
      </trkpt>
      <trkpt lat="48.18628" lon="3.36036">
        <ele>158</ele>
        <time>2014-05-04T09:05:14.000Z</time>
      </trkpt>
      <trkpt lat="48.18631" lon="3.36036">
        <ele>158</ele>
        <time>2014-05-04T09:05:17.000Z</time>
      </trkpt>
      <trkpt lat="48.18632" lon="3.36038">
        <ele>158</ele>
        <time>2014-05-04T09:05:18.000Z</time>
      </trkpt>
      <trkpt lat="48.18636" lon="3.3604">
        <ele>159</ele>
        <time>2014-05-04T09:05:24.000Z</time>
      </trkpt>
      <trkpt lat="48.18637" lon="3.3604">
        <ele>159</ele>
        <time>2014-05-04T09:05:25.000Z</time>
      </trkpt>
      <trkpt lat="48.1864" lon="3.36042">
        <ele>159</ele>
        <time>2014-05-04T09:05:31.000Z</time>
      </trkpt>
      <trkpt lat="48.18641" lon="3.36042">
        <ele>159</ele>
        <time>2014-05-04T09:05:32.000Z</time>
      </trkpt>
      <trkpt lat="48.18644" lon="3.36042">
        <ele>159</ele>
        <time>2014-05-04T09:05:36.000Z</time>
      </trkpt>
      <trkpt lat="48.18645" lon="3.36044">
        <ele>160</ele>
        <time>2014-05-04T09:05:37.000Z</time>
      </trkpt>
      <trkpt lat="48.1865" lon="3.36044">
        <ele>160</ele>
        <time>2014-05-04T09:05:42.000Z</time>
      </trkpt>
      <trkpt lat="48.18651" lon="3.36044">
        <ele>160</ele>
        <time>2014-05-04T09:05:43.000Z</time>
      </trkpt>
      <trkpt lat="48.18655" lon="3.36044">
        <ele>160</ele>
        <time>2014-05-04T09:05:47.000Z</time>
      </trkpt>
      <trkpt lat="48.18656" lon="3.36046">
        <ele>160</ele>
        <time>2014-05-04T09:05:48.000Z</time>
      </trkpt>
      <trkpt lat="48.1866" lon="3.36046">
        <ele>161</ele>
        <time>2014-05-04T09:05:53.000Z</time>
      </trkpt>
      <trkpt lat="48.18661" lon="3.36046">
        <ele>161</ele>
        <time>2014-05-04T09:05:54.000Z</time>
      </trkpt>
      <trkpt lat="48.18665" lon="3.36049">
        <ele>161</ele>
        <time>2014-05-04T09:05:59.000Z</time>
      </trkpt>
      <trkpt lat="48.18666" lon="3.36049">
        <ele>161</ele>
        <time>2014-05-04T09:06:00.000Z</time>
      </trkpt>
      <trkpt lat="48.18669" lon="3.36051">
        <ele>170</ele>
        <time>2014-05-04T09:06:04.000Z</time>
      </trkpt>
      <trkpt lat="48.1867" lon="3.36051">
        <ele>171</ele>
        <time>2014-05-04T09:06:05.000Z</time>
      </trkpt>
      <trkpt lat="48.18673" lon="3.36053">
        <ele>171</ele>
        <time>2014-05-04T09:06:09.000Z</time>
      </trkpt>
      <trkpt lat="48.18674" lon="3.36053">
        <ele>171</ele>
        <time>2014-05-04T09:06:10.000Z</time>
      </trkpt>
      <trkpt lat="48.18678" lon="3.36055">
        <ele>171</ele>
        <time>2014-05-04T09:06:14.000Z</time>
      </trkpt>
      <trkpt lat="48.18679" lon="3.36055">
        <ele>171</ele>
        <time>2014-05-04T09:06:15.000Z</time>
      </trkpt>
      <trkpt lat="48.18682" lon="3.36057">
        <ele>171</ele>
        <time>2014-05-04T09:06:19.000Z</time>
      </trkpt>
      <trkpt lat="48.18683" lon="3.36057">
        <ele>171</ele>
        <time>2014-05-04T09:06:20.000Z</time>
      </trkpt>
      <trkpt lat="48.18686" lon="3.36059">
        <ele>171</ele>
        <time>2014-05-04T09:06:24.000Z</time>
      </trkpt>
      <trkpt lat="48.18687" lon="3.36059">
        <ele>172</ele>
        <time>2014-05-04T09:06:25.000Z</time>
      </trkpt>
      <trkpt lat="48.1869" lon="3.36061">
        <ele>172</ele>
        <time>2014-05-04T09:06:28.000Z</time>
      </trkpt>
      <trkpt lat="48.18691" lon="3.36061">
        <ele>172</ele>
        <time>2014-05-04T09:06:29.000Z</time>
      </trkpt>
      <trkpt lat="48.18695" lon="3.36064">
        <ele>172</ele>
        <time>2014-05-04T09:06:33.000Z</time>
      </trkpt>
      <trkpt lat="48.18696" lon="3.36064">
        <ele>172</ele>
        <time>2014-05-04T09:06:34.000Z</time>
      </trkpt>
      <trkpt lat="48.18699" lon="3.36066">
        <ele>173</ele>
        <time>2014-05-04T09:06:37.000Z</time>
      </trkpt>
      <trkpt lat="48.187" lon="3.36066">
        <ele>173</ele>
        <time>2014-05-04T09:06:38.000Z</time>
      </trkpt>
      <trkpt lat="48.18703" lon="3.36068">
        <ele>173</ele>
        <time>2014-05-04T09:06:42.000Z</time>
      </trkpt>
      <trkpt lat="48.18704" lon="3.3607">
        <ele>173</ele>
        <time>2014-05-04T09:06:43.000Z</time>
      </trkpt>
      <trkpt lat="48.18705" lon="3.36076">
        <ele>174</ele>
        <time>2014-05-04T09:06:48.000Z</time>
      </trkpt>
      <trkpt lat="48.18704" lon="3.36079">
        <ele>174</ele>
        <time>2014-05-04T09:06:49.000Z</time>
      </trkpt>
      <trkpt lat="48.18703" lon="3.36085">
        <ele>177</ele>
        <time>2014-05-04T09:06:54.000Z</time>
      </trkpt>
      <trkpt lat="48.18703" lon="3.36087">
        <ele>177</ele>
        <time>2014-05-04T09:06:55.000Z</time>
      </trkpt>
      <trkpt lat="48.18702" lon="3.36094">
        <ele>177</ele>
        <time>2014-05-04T09:07:00.000Z</time>
      </trkpt>
      <trkpt lat="48.18701" lon="3.36094">
        <ele>177</ele>
        <time>2014-05-04T09:07:01.000Z</time>
      </trkpt>
      <trkpt lat="48.187" lon="3.361">
        <ele>177</ele>
        <time>2014-05-04T09:07:05.000Z</time>
      </trkpt>
      <trkpt lat="48.187" lon="3.36102">
        <ele>177</ele>
        <time>2014-05-04T09:07:06.000Z</time>
      </trkpt>
      <trkpt lat="48.18698" lon="3.36107">
        <ele>177</ele>
        <time>2014-05-04T09:07:09.000Z</time>
      </trkpt>
      <trkpt lat="48.18697" lon="3.36109">
        <ele>177</ele>
        <time>2014-05-04T09:07:10.000Z</time>
      </trkpt>
      <trkpt lat="48.18695" lon="3.36113">
        <ele>177</ele>
        <time>2014-05-04T09:07:13.000Z</time>
      </trkpt>
      <trkpt lat="48.18695" lon="3.36115">
        <ele>178</ele>
        <time>2014-05-04T09:07:14.000Z</time>
      </trkpt>
      <trkpt lat="48.18694" lon="3.36119">
        <ele>178</ele>
        <time>2014-05-04T09:07:17.000Z</time>
      </trkpt>
      <trkpt lat="48.18693" lon="3.36122">
        <ele>178</ele>
        <time>2014-05-04T09:07:18.000Z</time>
      </trkpt>
      <trkpt lat="48.18691" lon="3.36128">
        <ele>178</ele>
        <time>2014-05-04T09:07:23.000Z</time>
      </trkpt>
      <trkpt lat="48.18691" lon="3.3613">
        <ele>178</ele>
        <time>2014-05-04T09:07:24.000Z</time>
      </trkpt>
      <trkpt lat="48.1869" lon="3.36137">
        <ele>178</ele>
        <time>2014-05-04T09:07:29.000Z</time>
      </trkpt>
      <trkpt lat="48.18689" lon="3.36139">
        <ele>178</ele>
        <time>2014-05-04T09:07:30.000Z</time>
      </trkpt>
      <trkpt lat="48.18688" lon="3.36145">
        <ele>178</ele>
        <time>2014-05-04T09:07:35.000Z</time>
      </trkpt>
      <trkpt lat="48.18688" lon="3.36147">
        <ele>178</ele>
        <time>2014-05-04T09:07:36.000Z</time>
      </trkpt>
      <trkpt lat="48.18687" lon="3.36154">
        <ele>178</ele>
        <time>2014-05-04T09:07:44.000Z</time>
      </trkpt>
      <trkpt lat="48.18687" lon="3.36156">
        <ele>178</ele>
        <time>2014-05-04T09:07:45.000Z</time>
      </trkpt>
      <trkpt lat="48.18689" lon="3.3616">
        <ele>178</ele>
        <time>2014-05-04T09:07:53.000Z</time>
      </trkpt>
      <trkpt lat="48.18689" lon="3.36162">
        <ele>178</ele>
        <time>2014-05-04T09:07:54.000Z</time>
      </trkpt>
      <trkpt lat="48.18687" lon="3.36167">
        <ele>178</ele>
        <time>2014-05-04T09:08:50.000Z</time>
      </trkpt>
      <trkpt lat="48.18687" lon="3.36169">
        <ele>180</ele>
        <time>2014-05-04T09:08:51.000Z</time>
      </trkpt>
      <trkpt lat="48.18685" lon="3.36173">
        <ele>179</ele>
        <time>2014-05-04T09:08:58.000Z</time>
      </trkpt>
      <trkpt lat="48.18685" lon="3.36175">
        <ele>180</ele>
        <time>2014-05-04T09:08:59.000Z</time>
      </trkpt>
      <trkpt lat="48.18684" lon="3.36179">
        <ele>180</ele>
        <time>2014-05-04T09:09:01.000Z</time>
      </trkpt>
      <trkpt lat="48.18683" lon="3.36182">
        <ele>180</ele>
        <time>2014-05-04T09:09:02.000Z</time>
      </trkpt>
      <trkpt lat="48.18682" lon="3.36188">
        <ele>180</ele>
        <time>2014-05-04T09:09:04.000Z</time>
      </trkpt>
      <trkpt lat="48.18682" lon="3.3619">
        <ele>180</ele>
        <time>2014-05-04T09:09:05.000Z</time>
      </trkpt>
      <trkpt lat="48.18681" lon="3.36197">
        <ele>180</ele>
        <time>2014-05-04T09:09:07.000Z</time>
      </trkpt>
      <trkpt lat="48.1868" lon="3.36199">
        <ele>180</ele>
        <time>2014-05-04T09:09:08.000Z</time>
      </trkpt>
      <trkpt lat="48.18679" lon="3.36205">
        <ele>181</ele>
        <time>2014-05-04T09:09:10.000Z</time>
      </trkpt>
      <trkpt lat="48.18678" lon="3.3621">
        <ele>181</ele>
        <time>2014-05-04T09:09:11.000Z</time>
      </trkpt>
      <trkpt lat="48.18676" lon="3.36216">
        <ele>181</ele>
        <time>2014-05-04T09:09:13.000Z</time>
      </trkpt>
      <trkpt lat="48.18675" lon="3.3622">
        <ele>180</ele>
        <time>2014-05-04T09:09:14.000Z</time>
      </trkpt>
      <trkpt lat="48.18674" lon="3.36227">
        <ele>180</ele>
        <time>2014-05-04T09:09:16.000Z</time>
      </trkpt>
      <trkpt lat="48.18673" lon="3.36231">
        <ele>180</ele>
        <time>2014-05-04T09:09:17.000Z</time>
      </trkpt>
      <trkpt lat="48.18672" lon="3.36233">
        <ele>179</ele>
        <time>2014-05-04T09:09:18.000Z</time>
      </trkpt>
      <trkpt lat="48.18671" lon="3.36237">
        <ele>179</ele>
        <time>2014-05-04T09:09:19.000Z</time>
      </trkpt>
      <trkpt lat="48.1867" lon="3.36244">
        <ele>178</ele>
        <time>2014-05-04T09:09:21.000Z</time>
      </trkpt>
      <trkpt lat="48.18669" lon="3.36246">
        <ele>177</ele>
        <time>2014-05-04T09:09:22.000Z</time>
      </trkpt>
      <trkpt lat="48.18669" lon="3.3625">
        <ele>177</ele>
        <time>2014-05-04T09:09:23.000Z</time>
      </trkpt>
      <trkpt lat="48.18668" lon="3.36255">
        <ele>177</ele>
        <time>2014-05-04T09:09:24.000Z</time>
      </trkpt>
      <trkpt lat="48.18667" lon="3.36261">
        <ele>179</ele>
        <time>2014-05-04T09:09:26.000Z</time>
      </trkpt>
      <trkpt lat="48.18666" lon="3.36265">
        <ele>173</ele>
        <time>2014-05-04T09:09:27.000Z</time>
      </trkpt>
      <trkpt lat="48.18666" lon="3.3627">
        <ele>173</ele>
        <time>2014-05-04T09:09:28.000Z</time>
      </trkpt>
      <trkpt lat="48.18665" lon="3.36274">
        <ele>173</ele>
        <time>2014-05-04T09:09:29.000Z</time>
      </trkpt>
      <trkpt lat="48.18665" lon="3.36278">
        <ele>172</ele>
        <time>2014-05-04T09:09:30.000Z</time>
      </trkpt>
      <trkpt lat="48.18664" lon="3.36282">
        <ele>172</ele>
        <time>2014-05-04T09:09:31.000Z</time>
      </trkpt>
      <trkpt lat="48.18663" lon="3.36289">
        <ele>172</ele>
        <time>2014-05-04T09:09:33.000Z</time>
      </trkpt>
      <trkpt lat="48.18661" lon="3.36293">
        <ele>172</ele>
        <time>2014-05-04T09:09:34.000Z</time>
      </trkpt>
      <trkpt lat="48.1866" lon="3.36298">
        <ele>172</ele>
        <time>2014-05-04T09:09:35.000Z</time>
      </trkpt>
      <trkpt lat="48.1866" lon="3.36302">
        <ele>172</ele>
        <time>2014-05-04T09:09:36.000Z</time>
      </trkpt>
      <trkpt lat="48.18659" lon="3.36308">
        <ele>173</ele>
        <time>2014-05-04T09:09:38.000Z</time>
      </trkpt>
      <trkpt lat="48.18658" lon="3.3631">
        <ele>173</ele>
        <time>2014-05-04T09:09:39.000Z</time>
      </trkpt>
      <trkpt lat="48.18659" lon="3.36315">
        <ele>173</ele>
        <time>2014-05-04T09:09:41.000Z</time>
      </trkpt>
      <trkpt lat="48.18659" lon="3.36317">
        <ele>173</ele>
        <time>2014-05-04T09:09:42.000Z</time>
      </trkpt>
      <trkpt lat="48.18663" lon="3.36321">
        <ele>174</ele>
        <time>2014-05-04T09:09:46.000Z</time>
      </trkpt>
      <trkpt lat="48.18664" lon="3.36321">
        <ele>174</ele>
        <time>2014-05-04T09:09:47.000Z</time>
      </trkpt>
      <trkpt lat="48.18667" lon="3.36325">
        <ele>179</ele>
        <time>2014-05-04T09:09:51.000Z</time>
      </trkpt>
      <trkpt lat="48.18669" lon="3.36328">
        <ele>179</ele>
        <time>2014-05-04T09:09:52.000Z</time>
      </trkpt>
      <trkpt lat="48.18672" lon="3.3633">
        <ele>179</ele>
        <time>2014-05-04T09:09:55.000Z</time>
      </trkpt>
      <trkpt lat="48.18673" lon="3.36332">
        <ele>179</ele>
        <time>2014-05-04T09:09:56.000Z</time>
      </trkpt>
      <trkpt lat="48.18676" lon="3.36334">
        <ele>179</ele>
        <time>2014-05-04T09:09:59.000Z</time>
      </trkpt>
      <trkpt lat="48.18678" lon="3.36336">
        <ele>179</ele>
        <time>2014-05-04T09:10:00.000Z</time>
      </trkpt>
      <trkpt lat="48.18681" lon="3.36338">
        <ele>180</ele>
        <time>2014-05-04T09:10:03.000Z</time>
      </trkpt>
      <trkpt lat="48.18682" lon="3.3634">
        <ele>180</ele>
        <time>2014-05-04T09:10:04.000Z</time>
      </trkpt>
      <trkpt lat="48.18685" lon="3.36343">
        <ele>181</ele>
        <time>2014-05-04T09:10:06.000Z</time>
      </trkpt>
      <trkpt lat="48.18686" lon="3.36343">
        <ele>181</ele>
        <time>2014-05-04T09:10:07.000Z</time>
      </trkpt>
      <trkpt lat="48.18689" lon="3.36347">
        <ele>182</ele>
        <time>2014-05-04T09:10:10.000Z</time>
      </trkpt>
      <trkpt lat="48.1869" lon="3.36347">
        <ele>182</ele>
        <time>2014-05-04T09:10:11.000Z</time>
      </trkpt>
      <trkpt lat="48.18693" lon="3.36349">
        <ele>182</ele>
        <time>2014-05-04T09:10:13.000Z</time>
      </trkpt>
      <trkpt lat="48.18695" lon="3.36351">
        <ele>182</ele>
        <time>2014-05-04T09:10:14.000Z</time>
      </trkpt>
      <trkpt lat="48.18698" lon="3.36353">
        <ele>183</ele>
        <time>2014-05-04T09:10:17.000Z</time>
      </trkpt>
      <trkpt lat="48.18699" lon="3.36355">
        <ele>183</ele>
        <time>2014-05-04T09:10:18.000Z</time>
      </trkpt>
      <trkpt lat="48.18702" lon="3.36358">
        <ele>183</ele>
        <time>2014-05-04T09:10:22.000Z</time>
      </trkpt>
      <trkpt lat="48.18703" lon="3.36358">
        <ele>183</ele>
        <time>2014-05-04T09:10:23.000Z</time>
      </trkpt>
      <trkpt lat="48.187" lon="3.36362">
        <ele>183</ele>
        <time>2014-05-04T09:10:55.000Z</time>
      </trkpt>
      <trkpt lat="48.18699" lon="3.36366">
        <ele>183</ele>
        <time>2014-05-04T09:10:56.000Z</time>
      </trkpt>
      <trkpt lat="48.18698" lon="3.3637">
        <ele>183</ele>
        <time>2014-05-04T09:10:58.000Z</time>
      </trkpt>
      <trkpt lat="48.18698" lon="3.36375">
        <ele>183</ele>
        <time>2014-05-04T09:10:59.000Z</time>
      </trkpt>
      <trkpt lat="48.18697" lon="3.36379">
        <ele>183</ele>
        <time>2014-05-04T09:11:00.000Z</time>
      </trkpt>
      <trkpt lat="48.18696" lon="3.36381">
        <ele>182</ele>
        <time>2014-05-04T09:11:01.000Z</time>
      </trkpt>
      <trkpt lat="48.18695" lon="3.36385">
        <ele>182</ele>
        <time>2014-05-04T09:11:03.000Z</time>
      </trkpt>
      <trkpt lat="48.18694" lon="3.36388">
        <ele>182</ele>
        <time>2014-05-04T09:11:04.000Z</time>
      </trkpt>
      <trkpt lat="48.18691" lon="3.36392">
        <ele>182</ele>
        <time>2014-05-04T09:11:06.000Z</time>
      </trkpt>
      <trkpt lat="48.18691" lon="3.36394">
        <ele>182</ele>
        <time>2014-05-04T09:11:07.000Z</time>
      </trkpt>
      <trkpt lat="48.1869" lon="3.36401">
        <ele>182</ele>
        <time>2014-05-04T09:11:11.000Z</time>
      </trkpt>
      <trkpt lat="48.1869" lon="3.36403">
        <ele>181</ele>
        <time>2014-05-04T09:11:12.000Z</time>
      </trkpt>
      <trkpt lat="48.18691" lon="3.36409">
        <ele>181</ele>
        <time>2014-05-04T09:11:17.000Z</time>
      </trkpt>
      <trkpt lat="48.18691" lon="3.36411">
        <ele>181</ele>
        <time>2014-05-04T09:11:18.000Z</time>
      </trkpt>
      <trkpt lat="48.18691" lon="3.36418">
        <ele>180</ele>
        <time>2014-05-04T09:11:22.000Z</time>
      </trkpt>
      <trkpt lat="48.18691" lon="3.3642">
        <ele>180</ele>
        <time>2014-05-04T09:11:23.000Z</time>
      </trkpt>
      <trkpt lat="48.18691" lon="3.36426">
        <ele>180</ele>
        <time>2014-05-04T09:11:27.000Z</time>
      </trkpt>
      <trkpt lat="48.18693" lon="3.36428">
        <ele>180</ele>
        <time>2014-05-04T09:11:28.000Z</time>
      </trkpt>
      <trkpt lat="48.18694" lon="3.36435">
        <ele>180</ele>
        <time>2014-05-04T09:11:39.000Z</time>
      </trkpt>
      <trkpt lat="48.18695" lon="3.36435">
        <ele>180</ele>
        <time>2014-05-04T09:11:40.000Z</time>
      </trkpt>
      <trkpt lat="48.18695" lon="3.36441">
        <ele>180</ele>
        <time>2014-05-04T09:11:46.000Z</time>
      </trkpt>
      <trkpt lat="48.18695" lon="3.36443">
        <ele>180</ele>
        <time>2014-05-04T09:11:47.000Z</time>
      </trkpt>
      <trkpt lat="48.18696" lon="3.36448">
        <ele>180</ele>
        <time>2014-05-04T09:11:51.000Z</time>
      </trkpt>
      <trkpt lat="48.18697" lon="3.3645">
        <ele>180</ele>
        <time>2014-05-04T09:11:52.000Z</time>
      </trkpt>
      <trkpt lat="48.18698" lon="3.36456">
        <ele>180</ele>
        <time>2014-05-04T09:11:56.000Z</time>
      </trkpt>
      <trkpt lat="48.18699" lon="3.36458">
        <ele>180</ele>
        <time>2014-05-04T09:11:57.000Z</time>
      </trkpt>
      <trkpt lat="48.187" lon="3.36465">
        <ele>180</ele>
        <time>2014-05-04T09:12:01.000Z</time>
      </trkpt>
      <trkpt lat="48.187" lon="3.36467">
        <ele>180</ele>
        <time>2014-05-04T09:12:02.000Z</time>
      </trkpt>
      <trkpt lat="48.18702" lon="3.36471">
        <ele>180</ele>
        <time>2014-05-04T09:12:06.000Z</time>
      </trkpt>
      <trkpt lat="48.18702" lon="3.36473">
        <ele>180</ele>
        <time>2014-05-04T09:12:07.000Z</time>
      </trkpt>
      <trkpt lat="48.18704" lon="3.36478">
        <ele>180</ele>
        <time>2014-05-04T09:12:14.000Z</time>
      </trkpt>
      <trkpt lat="48.18705" lon="3.3648">
        <ele>180</ele>
        <time>2014-05-04T09:12:15.000Z</time>
      </trkpt>
      <trkpt lat="48.18709" lon="3.36484">
        <ele>180</ele>
        <time>2014-05-04T09:12:23.000Z</time>
      </trkpt>
      <trkpt lat="48.1871" lon="3.36484">
        <ele>180</ele>
        <time>2014-05-04T09:12:24.000Z</time>
      </trkpt>
      <trkpt lat="48.18712" lon="3.36488">
        <ele>180</ele>
        <time>2014-05-04T09:12:29.000Z</time>
      </trkpt>
      <trkpt lat="48.18713" lon="3.36491">
        <ele>180</ele>
        <time>2014-05-04T09:12:30.000Z</time>
      </trkpt>
      <trkpt lat="48.18716" lon="3.36495">
        <ele>180</ele>
        <time>2014-05-04T09:12:36.000Z</time>
      </trkpt>
      <trkpt lat="48.18716" lon="3.36497">
        <ele>180</ele>
        <time>2014-05-04T09:12:37.000Z</time>
      </trkpt>
      <trkpt lat="48.18717" lon="3.36501">
        <ele>177</ele>
        <time>2014-05-04T09:12:45.000Z</time>
      </trkpt>
      <trkpt lat="48.18717" lon="3.36504">
        <ele>176</ele>
        <time>2014-05-04T09:12:46.000Z</time>
      </trkpt>
      <trkpt lat="48.18718" lon="3.36508">
        <ele>176</ele>
        <time>2014-05-04T09:12:52.000Z</time>
      </trkpt>
      <trkpt lat="48.18719" lon="3.3651">
        <ele>176</ele>
        <time>2014-05-04T09:12:53.000Z</time>
      </trkpt>
      <trkpt lat="48.1872" lon="3.36516">
        <ele>176</ele>
        <time>2014-05-04T09:12:58.000Z</time>
      </trkpt>
      <trkpt lat="48.18722" lon="3.36516">
        <ele>176</ele>
        <time>2014-05-04T09:12:59.000Z</time>
      </trkpt>
      <trkpt lat="48.18724" lon="3.36521">
        <ele>176</ele>
        <time>2014-05-04T09:13:02.000Z</time>
      </trkpt>
      <trkpt lat="48.18725" lon="3.36523">
        <ele>176</ele>
        <time>2014-05-04T09:13:03.000Z</time>
      </trkpt>
      <trkpt lat="48.18727" lon="3.36527">
        <ele>176</ele>
        <time>2014-05-04T09:13:06.000Z</time>
      </trkpt>
      <trkpt lat="48.18728" lon="3.36529">
        <ele>176</ele>
        <time>2014-05-04T09:13:07.000Z</time>
      </trkpt>
      <trkpt lat="48.18731" lon="3.36534">
        <ele>176</ele>
        <time>2014-05-04T09:13:11.000Z</time>
      </trkpt>
      <trkpt lat="48.18731" lon="3.36536">
        <ele>176</ele>
        <time>2014-05-04T09:13:12.000Z</time>
      </trkpt>
      <trkpt lat="48.18734" lon="3.3654">
        <ele>175</ele>
        <time>2014-05-04T09:13:16.000Z</time>
      </trkpt>
      <trkpt lat="48.18735" lon="3.3654">
        <ele>175</ele>
        <time>2014-05-04T09:13:17.000Z</time>
      </trkpt>
      <trkpt lat="48.18739" lon="3.36544">
        <ele>175</ele>
        <time>2014-05-04T09:13:19.000Z</time>
      </trkpt>
      <trkpt lat="48.1874" lon="3.36546">
        <ele>175</ele>
        <time>2014-05-04T09:13:20.000Z</time>
      </trkpt>
      <trkpt lat="48.18743" lon="3.36549">
        <ele>175</ele>
        <time>2014-05-04T09:13:22.000Z</time>
      </trkpt>
      <trkpt lat="48.18744" lon="3.36551">
        <ele>175</ele>
        <time>2014-05-04T09:13:23.000Z</time>
      </trkpt>
      <trkpt lat="48.18747" lon="3.36555">
        <ele>175</ele>
        <time>2014-05-04T09:13:27.000Z</time>
      </trkpt>
      <trkpt lat="48.18748" lon="3.36555">
        <ele>175</ele>
        <time>2014-05-04T09:13:28.000Z</time>
      </trkpt>
      <trkpt lat="48.18752" lon="3.36559">
        <ele>178</ele>
        <time>2014-05-04T09:13:31.000Z</time>
      </trkpt>
      <trkpt lat="48.18753" lon="3.36559">
        <ele>178</ele>
        <time>2014-05-04T09:13:32.000Z</time>
      </trkpt>
      <trkpt lat="48.18756" lon="3.36561">
        <ele>178</ele>
        <time>2014-05-04T09:13:36.000Z</time>
      </trkpt>
      <trkpt lat="48.18757" lon="3.36561">
        <ele>178</ele>
        <time>2014-05-04T09:13:37.000Z</time>
      </trkpt>
      <trkpt lat="48.1876" lon="3.36566">
        <ele>178</ele>
        <time>2014-05-04T09:13:41.000Z</time>
      </trkpt>
      <trkpt lat="48.18761" lon="3.36566">
        <ele>178</ele>
        <time>2014-05-04T09:13:42.000Z</time>
      </trkpt>
      <trkpt lat="48.18764" lon="3.36568">
        <ele>178</ele>
        <time>2014-05-04T09:13:49.000Z</time>
      </trkpt>
      <trkpt lat="48.18766" lon="3.36568">
        <ele>178</ele>
        <time>2014-05-04T09:13:50.000Z</time>
      </trkpt>
      <trkpt lat="48.18769" lon="3.36572">
        <ele>178</ele>
        <time>2014-05-04T09:13:59.000Z</time>
      </trkpt>
      <trkpt lat="48.18769" lon="3.36574">
        <ele>178</ele>
        <time>2014-05-04T09:14:00.000Z</time>
      </trkpt>
      <trkpt lat="48.18772" lon="3.36576">
        <ele>178</ele>
        <time>2014-05-04T09:14:05.000Z</time>
      </trkpt>
      <trkpt lat="48.18773" lon="3.36576">
        <ele>178</ele>
        <time>2014-05-04T09:14:06.000Z</time>
      </trkpt>
      <trkpt lat="48.18776" lon="3.36581">
        <ele>179</ele>
        <time>2014-05-04T09:14:11.000Z</time>
      </trkpt>
      <trkpt lat="48.18777" lon="3.36581">
        <ele>179</ele>
        <time>2014-05-04T09:14:12.000Z</time>
      </trkpt>
      <trkpt lat="48.18781" lon="3.36585">
        <ele>173</ele>
        <time>2014-05-04T09:14:16.000Z</time>
      </trkpt>
      <trkpt lat="48.18782" lon="3.36585">
        <ele>173</ele>
        <time>2014-05-04T09:14:17.000Z</time>
      </trkpt>
      <trkpt lat="48.18785" lon="3.36587">
        <ele>173</ele>
        <time>2014-05-04T09:14:20.000Z</time>
      </trkpt>
      <trkpt lat="48.18786" lon="3.36587">
        <ele>173</ele>
        <time>2014-05-04T09:14:21.000Z</time>
      </trkpt>
      <trkpt lat="48.18789" lon="3.36591">
        <ele>173</ele>
        <time>2014-05-04T09:14:26.000Z</time>
      </trkpt>
      <trkpt lat="48.1879" lon="3.36591">
        <ele>173</ele>
        <time>2014-05-04T09:14:27.000Z</time>
      </trkpt>
      <trkpt lat="48.18792" lon="3.36596">
        <ele>173</ele>
        <time>2014-05-04T09:14:32.000Z</time>
      </trkpt>
      <trkpt lat="48.18793" lon="3.36598">
        <ele>173</ele>
        <time>2014-05-04T09:14:33.000Z</time>
      </trkpt>
      <trkpt lat="48.18796" lon="3.36602">
        <ele>173</ele>
        <time>2014-05-04T09:14:40.000Z</time>
      </trkpt>
      <trkpt lat="48.18797" lon="3.36604">
        <ele>173</ele>
        <time>2014-05-04T09:14:41.000Z</time>
      </trkpt>
      <trkpt lat="48.18798" lon="3.36611">
        <ele>172</ele>
        <time>2014-05-04T09:14:48.000Z</time>
      </trkpt>
      <trkpt lat="48.18798" lon="3.36613">
        <ele>172</ele>
        <time>2014-05-04T09:14:49.000Z</time>
      </trkpt>
      <trkpt lat="48.18799" lon="3.36619">
        <ele>172</ele>
        <time>2014-05-04T09:14:55.000Z</time>
      </trkpt>
      <trkpt lat="48.18799" lon="3.36622">
        <ele>171</ele>
        <time>2014-05-04T09:14:56.000Z</time>
      </trkpt>
      <trkpt lat="48.18799" lon="3.36628">
        <ele>171</ele>
        <time>2014-05-04T09:15:01.000Z</time>
      </trkpt>
      <trkpt lat="48.18799" lon="3.3663">
        <ele>171</ele>
        <time>2014-05-04T09:15:02.000Z</time>
      </trkpt>
      <trkpt lat="48.188" lon="3.36637">
        <ele>171</ele>
        <time>2014-05-04T09:15:07.000Z</time>
      </trkpt>
      <trkpt lat="48.188" lon="3.36639">
        <ele>170</ele>
        <time>2014-05-04T09:15:08.000Z</time>
      </trkpt>
      <trkpt lat="48.18802" lon="3.36643">
        <ele>170</ele>
        <time>2014-05-04T09:15:13.000Z</time>
      </trkpt>
      <trkpt lat="48.18802" lon="3.36645">
        <ele>170</ele>
        <time>2014-05-04T09:15:14.000Z</time>
      </trkpt>
      <trkpt lat="48.18804" lon="3.36649">
        <ele>170</ele>
        <time>2014-05-04T09:15:18.000Z</time>
      </trkpt>
      <trkpt lat="48.18804" lon="3.36652">
        <ele>170</ele>
        <time>2014-05-04T09:15:19.000Z</time>
      </trkpt>
      <trkpt lat="48.18805" lon="3.36656">
        <ele>170</ele>
        <time>2014-05-04T09:15:22.000Z</time>
      </trkpt>
      <trkpt lat="48.18806" lon="3.36658">
        <ele>170</ele>
        <time>2014-05-04T09:15:23.000Z</time>
      </trkpt>
      <trkpt lat="48.18807" lon="3.36664">
        <ele>170</ele>
        <time>2014-05-04T09:15:28.000Z</time>
      </trkpt>
      <trkpt lat="48.18807" lon="3.36667">
        <ele>170</ele>
        <time>2014-05-04T09:15:29.000Z</time>
      </trkpt>
      <trkpt lat="48.1881" lon="3.36671">
        <ele>165</ele>
        <time>2014-05-04T09:15:32.000Z</time>
      </trkpt>
      <trkpt lat="48.1881" lon="3.36673">
        <ele>165</ele>
        <time>2014-05-04T09:15:33.000Z</time>
      </trkpt>
      <trkpt lat="48.18812" lon="3.36677">
        <ele>165</ele>
        <time>2014-05-04T09:15:45.000Z</time>
      </trkpt>
      <trkpt lat="48.18812" lon="3.36679">
        <ele>165</ele>
        <time>2014-05-04T09:15:46.000Z</time>
      </trkpt>
      <trkpt lat="48.18815" lon="3.36684">
        <ele>165</ele>
        <time>2014-05-04T09:15:55.000Z</time>
      </trkpt>
      <trkpt lat="48.18816" lon="3.36686">
        <ele>165</ele>
        <time>2014-05-04T09:15:56.000Z</time>
      </trkpt>
      <trkpt lat="48.18815" lon="3.36692">
        <ele>164</ele>
        <time>2014-05-04T09:16:15.000Z</time>
      </trkpt>
      <trkpt lat="48.18815" lon="3.36694">
        <ele>164</ele>
        <time>2014-05-04T09:16:16.000Z</time>
      </trkpt>
      <trkpt lat="48.18818" lon="3.36697">
        <ele>164</ele>
        <time>2014-05-04T09:16:25.000Z</time>
      </trkpt>
      <trkpt lat="48.18819" lon="3.36699">
        <ele>164</ele>
        <time>2014-05-04T09:16:26.000Z</time>
      </trkpt>
      <trkpt lat="48.18822" lon="3.36703">
        <ele>164</ele>
        <time>2014-05-04T09:16:37.000Z</time>
      </trkpt>
      <trkpt lat="48.18823" lon="3.36705">
        <ele>164</ele>
        <time>2014-05-04T09:16:38.000Z</time>
      </trkpt>
      <trkpt lat="48.18826" lon="3.36709">
        <ele>164</ele>
        <time>2014-05-04T09:16:49.000Z</time>
      </trkpt>
      <trkpt lat="48.18826" lon="3.36712">
        <ele>164</ele>
        <time>2014-05-04T09:16:50.000Z</time>
      </trkpt>
      <trkpt lat="48.18822" lon="3.36709">
        <ele>163</ele>
        <time>2014-05-04T09:17:16.000Z</time>
      </trkpt>
      <trkpt lat="48.18821" lon="3.36709">
        <ele>163</ele>
        <time>2014-05-04T09:17:17.000Z</time>
      </trkpt>
      <trkpt lat="48.18817" lon="3.36709">
        <ele>163</ele>
        <time>2014-05-04T09:17:18.000Z</time>
      </trkpt>
      <trkpt lat="48.18812" lon="3.36712">
        <ele>163</ele>
        <time>2014-05-04T09:17:19.000Z</time>
      </trkpt>
      <trkpt lat="48.18805" lon="3.36714">
        <ele>162</ele>
        <time>2014-05-04T09:17:20.000Z</time>
      </trkpt>
      <trkpt lat="48.18798" lon="3.36718">
        <ele>161</ele>
        <time>2014-05-04T09:17:21.000Z</time>
      </trkpt>
      <trkpt lat="48.18791" lon="3.36725">
        <ele>160</ele>
        <time>2014-05-04T09:17:22.000Z</time>
      </trkpt>
      <trkpt lat="48.18784" lon="3.36731">
        <ele>159</ele>
        <time>2014-05-04T09:17:23.000Z</time>
      </trkpt>
      <trkpt lat="48.18778" lon="3.36733">
        <ele>158</ele>
        <time>2014-05-04T09:17:24.000Z</time>
      </trkpt>
      <trkpt lat="48.18773" lon="3.36735">
        <ele>156</ele>
        <time>2014-05-04T09:17:25.000Z</time>
      </trkpt>
      <trkpt lat="48.18768" lon="3.36737">
        <ele>155</ele>
        <time>2014-05-04T09:17:26.000Z</time>
      </trkpt>
      <trkpt lat="48.18763" lon="3.36742">
        <ele>154</ele>
        <time>2014-05-04T09:17:27.000Z</time>
      </trkpt>
      <trkpt lat="48.18759" lon="3.36744">
        <ele>152</ele>
        <time>2014-05-04T09:17:28.000Z</time>
      </trkpt>
      <trkpt lat="48.18755" lon="3.36746">
        <ele>150</ele>
        <time>2014-05-04T09:17:29.000Z</time>
      </trkpt>
      <trkpt lat="48.18751" lon="3.3675">
        <ele>147</ele>
        <time>2014-05-04T09:17:30.000Z</time>
      </trkpt>
      <trkpt lat="48.18746" lon="3.36755">
        <ele>146</ele>
        <time>2014-05-04T09:17:31.000Z</time>
      </trkpt>
      <trkpt lat="48.18744" lon="3.36757">
        <ele>145</ele>
        <time>2014-05-04T09:17:32.000Z</time>
      </trkpt>
      <trkpt lat="48.18741" lon="3.36761">
        <ele>145</ele>
        <time>2014-05-04T09:17:33.000Z</time>
      </trkpt>
      <trkpt lat="48.18739" lon="3.36763">
        <ele>144</ele>
        <time>2014-05-04T09:17:34.000Z</time>
      </trkpt>
      <trkpt lat="48.18737" lon="3.36767">
        <ele>144</ele>
        <time>2014-05-04T09:17:35.000Z</time>
      </trkpt>
      <trkpt lat="48.18733" lon="3.3677">
        <ele>144</ele>
        <time>2014-05-04T09:17:36.000Z</time>
      </trkpt>
      <trkpt lat="48.18731" lon="3.36772">
        <ele>143</ele>
        <time>2014-05-04T09:17:37.000Z</time>
      </trkpt>
      <trkpt lat="48.18729" lon="3.36774">
        <ele>143</ele>
        <time>2014-05-04T09:17:40.000Z</time>
      </trkpt>
      <trkpt lat="48.18725" lon="3.3678">
        <ele>143</ele>
        <time>2014-05-04T09:17:41.000Z</time>
      </trkpt>
      <trkpt lat="48.18725" lon="3.3678">
        <ele>143</ele>
        <time>2014-05-04T09:17:43.000Z</time>
      </trkpt>
      <trkpt lat="48.1872" lon="3.36785">
        <ele>142</ele>
        <time>2014-05-04T09:17:44.000Z</time>
      </trkpt>
      <trkpt lat="48.1872" lon="3.36785">
        <ele>142</ele>
        <time>2014-05-04T09:17:46.000Z</time>
      </trkpt>
      <trkpt lat="48.18715" lon="3.36789">
        <ele>142</ele>
        <time>2014-05-04T09:17:47.000Z</time>
      </trkpt>
      <trkpt lat="48.18713" lon="3.36791">
        <ele>142</ele>
        <time>2014-05-04T09:17:48.000Z</time>
      </trkpt>
      <trkpt lat="48.1871" lon="3.36795">
        <ele>141</ele>
        <time>2014-05-04T09:17:49.000Z</time>
      </trkpt>
      <trkpt lat="48.18708" lon="3.36797">
        <ele>141</ele>
        <time>2014-05-04T09:17:50.000Z</time>
      </trkpt>
      <trkpt lat="48.18704" lon="3.368">
        <ele>141</ele>
        <time>2014-05-04T09:17:51.000Z</time>
      </trkpt>
      <trkpt lat="48.18702" lon="3.36802">
        <ele>141</ele>
        <time>2014-05-04T09:17:52.000Z</time>
      </trkpt>
      <trkpt lat="48.187" lon="3.36804">
        <ele>140</ele>
        <time>2014-05-04T09:17:53.000Z</time>
      </trkpt>
      <trkpt lat="48.18697" lon="3.36808">
        <ele>140</ele>
        <time>2014-05-04T09:17:54.000Z</time>
      </trkpt>
      <trkpt lat="48.18694" lon="3.3681">
        <ele>139</ele>
        <time>2014-05-04T09:17:55.000Z</time>
      </trkpt>
      <trkpt lat="48.18691" lon="3.36812">
        <ele>139</ele>
        <time>2014-05-04T09:17:56.000Z</time>
      </trkpt>
      <trkpt lat="48.18688" lon="3.36815">
        <ele>138</ele>
        <time>2014-05-04T09:17:57.000Z</time>
      </trkpt>
      <trkpt lat="48.18686" lon="3.36817">
        <ele>138</ele>
        <time>2014-05-04T09:17:58.000Z</time>
      </trkpt>
      <trkpt lat="48.18684" lon="3.36819">
        <ele>137</ele>
        <time>2014-05-04T09:17:59.000Z</time>
      </trkpt>
      <trkpt lat="48.18682" lon="3.36821">
        <ele>137</ele>
        <time>2014-05-04T09:18:00.000Z</time>
      </trkpt>
      <trkpt lat="48.18679" lon="3.36823">
        <ele>136</ele>
        <time>2014-05-04T09:18:01.000Z</time>
      </trkpt>
      <trkpt lat="48.18679" lon="3.36823">
        <ele>136</ele>
        <time>2014-05-04T09:18:08.000Z</time>
      </trkpt>
      <trkpt lat="48.18674" lon="3.36832">
        <ele>134</ele>
        <time>2014-05-04T09:18:09.000Z</time>
      </trkpt>
      <trkpt lat="48.18675" lon="3.36838">
        <ele>135</ele>
        <time>2014-05-04T09:18:16.000Z</time>
      </trkpt>
      <trkpt lat="48.18679" lon="3.36851">
        <ele>137</ele>
        <time>2014-05-04T09:18:17.000Z</time>
      </trkpt>
      <trkpt lat="48.18679" lon="3.36851">
        <ele>137</ele>
        <time>2014-05-04T09:18:19.000Z</time>
      </trkpt>
      <trkpt lat="48.18681" lon="3.3686">
        <ele>138</ele>
        <time>2014-05-04T09:18:20.000Z</time>
      </trkpt>
      <trkpt lat="48.18681" lon="3.3686">
        <ele>138</ele>
        <time>2014-05-04T09:18:22.000Z</time>
      </trkpt>
      <trkpt lat="48.18684" lon="3.36868">
        <ele>139</ele>
        <time>2014-05-04T09:18:23.000Z</time>
      </trkpt>
      <trkpt lat="48.18684" lon="3.36868">
        <ele>139</ele>
        <time>2014-05-04T09:18:25.000Z</time>
      </trkpt>
      <trkpt lat="48.18687" lon="3.36875">
        <ele>139</ele>
        <time>2014-05-04T09:18:26.000Z</time>
      </trkpt>
      <trkpt lat="48.18687" lon="3.36875">
        <ele>139</ele>
        <time>2014-05-04T09:18:28.000Z</time>
      </trkpt>
      <trkpt lat="48.1869" lon="3.36883">
        <ele>140</ele>
        <time>2014-05-04T09:18:29.000Z</time>
      </trkpt>
      <trkpt lat="48.18694" lon="3.36888">
        <ele>140</ele>
        <time>2014-05-04T09:18:34.000Z</time>
      </trkpt>
      <trkpt lat="48.18696" lon="3.36896">
        <ele>140</ele>
        <time>2014-05-04T09:18:35.000Z</time>
      </trkpt>
      <trkpt lat="48.18699" lon="3.369">
        <ele>141</ele>
        <time>2014-05-04T09:18:40.000Z</time>
      </trkpt>
      <trkpt lat="48.18701" lon="3.36909">
        <ele>141</ele>
        <time>2014-05-04T09:18:41.000Z</time>
      </trkpt>
      <trkpt lat="48.18701" lon="3.36909">
        <ele>141</ele>
        <time>2014-05-04T09:18:43.000Z</time>
      </trkpt>
      <trkpt lat="48.18703" lon="3.36915">
        <ele>141</ele>
        <time>2014-05-04T09:18:44.000Z</time>
      </trkpt>
      <trkpt lat="48.18703" lon="3.36915">
        <ele>141</ele>
        <time>2014-05-04T09:18:46.000Z</time>
      </trkpt>
      <trkpt lat="48.18707" lon="3.36922">
        <ele>142</ele>
        <time>2014-05-04T09:18:47.000Z</time>
      </trkpt>
      <trkpt lat="48.18707" lon="3.36922">
        <ele>142</ele>
        <time>2014-05-04T09:18:49.000Z</time>
      </trkpt>
      <trkpt lat="48.18709" lon="3.36928">
        <ele>142</ele>
        <time>2014-05-04T09:18:50.000Z</time>
      </trkpt>
      <trkpt lat="48.18709" lon="3.36928">
        <ele>142</ele>
        <time>2014-05-04T09:18:52.000Z</time>
      </trkpt>
      <trkpt lat="48.18712" lon="3.36935">
        <ele>143</ele>
        <time>2014-05-04T09:18:53.000Z</time>
      </trkpt>
      <trkpt lat="48.18712" lon="3.36935">
        <ele>143</ele>
        <time>2014-05-04T09:18:55.000Z</time>
      </trkpt>
      <trkpt lat="48.18714" lon="3.36941">
        <ele>143</ele>
        <time>2014-05-04T09:18:56.000Z</time>
      </trkpt>
      <trkpt lat="48.18714" lon="3.36941">
        <ele>143</ele>
        <time>2014-05-04T09:18:58.000Z</time>
      </trkpt>
      <trkpt lat="48.18717" lon="3.36948">
        <ele>143</ele>
        <time>2014-05-04T09:18:59.000Z</time>
      </trkpt>
      <trkpt lat="48.18717" lon="3.36948">
        <ele>143</ele>
        <time>2014-05-04T09:19:01.000Z</time>
      </trkpt>
      <trkpt lat="48.1872" lon="3.36954">
        <ele>144</ele>
        <time>2014-05-04T09:19:02.000Z</time>
      </trkpt>
      <trkpt lat="48.1872" lon="3.36954">
        <ele>144</ele>
        <time>2014-05-04T09:19:04.000Z</time>
      </trkpt>
      <trkpt lat="48.18724" lon="3.36961">
        <ele>144</ele>
        <time>2014-05-04T09:19:05.000Z</time>
      </trkpt>
      <trkpt lat="48.18724" lon="3.36961">
        <ele>144</ele>
        <time>2014-05-04T09:19:07.000Z</time>
      </trkpt>
      <trkpt lat="48.18726" lon="3.36967">
        <ele>144</ele>
        <time>2014-05-04T09:19:08.000Z</time>
      </trkpt>
      <trkpt lat="48.18726" lon="3.36967">
        <ele>144</ele>
        <time>2014-05-04T09:19:10.000Z</time>
      </trkpt>
      <trkpt lat="48.1873" lon="3.36976">
        <ele>145</ele>
        <time>2014-05-04T09:19:11.000Z</time>
      </trkpt>
      <trkpt lat="48.18733" lon="3.3698">
        <ele>145</ele>
        <time>2014-05-04T09:19:16.000Z</time>
      </trkpt>
      <trkpt lat="48.18737" lon="3.36986">
        <ele>146</ele>
        <time>2014-05-04T09:19:17.000Z</time>
      </trkpt>
      <trkpt lat="48.18735" lon="3.36993">
        <ele>146</ele>
        <time>2014-05-04T09:19:24.000Z</time>
      </trkpt>
      <trkpt lat="48.18734" lon="3.37001">
        <ele>146</ele>
        <time>2014-05-04T09:19:25.000Z</time>
      </trkpt>
      <trkpt lat="48.18733" lon="3.37008">
        <ele>146</ele>
        <time>2014-05-04T09:19:31.000Z</time>
      </trkpt>
      <trkpt lat="48.18733" lon="3.37018">
        <ele>145</ele>
        <time>2014-05-04T09:19:32.000Z</time>
      </trkpt>
      <trkpt lat="48.18733" lon="3.37018">
        <ele>145</ele>
        <time>2014-05-04T09:19:34.000Z</time>
      </trkpt>
      <trkpt lat="48.18731" lon="3.37025">
        <ele>144</ele>
        <time>2014-05-04T09:19:35.000Z</time>
      </trkpt>
      <trkpt lat="48.18731" lon="3.37025">
        <ele>144</ele>
        <time>2014-05-04T09:19:38.000Z</time>
      </trkpt>
      <trkpt lat="48.18725" lon="3.37031">
        <ele>144</ele>
        <time>2014-05-04T09:19:39.000Z</time>
      </trkpt>
      <trkpt lat="48.18725" lon="3.37031">
        <ele>144</ele>
        <time>2014-05-04T09:19:41.000Z</time>
      </trkpt>
      <trkpt lat="48.18719" lon="3.37036">
        <ele>143</ele>
        <time>2014-05-04T09:19:42.000Z</time>
      </trkpt>
      <trkpt lat="48.18719" lon="3.37036">
        <ele>143</ele>
        <time>2014-05-04T09:19:44.000Z</time>
      </trkpt>
      <trkpt lat="48.18714" lon="3.37038">
        <ele>143</ele>
        <time>2014-05-04T09:19:45.000Z</time>
      </trkpt>
      <trkpt lat="48.18714" lon="3.37038">
        <ele>143</ele>
        <time>2014-05-04T09:19:49.000Z</time>
      </trkpt>
      <trkpt lat="48.18705" lon="3.37044">
        <ele>142</ele>
        <time>2014-05-04T09:19:50.000Z</time>
      </trkpt>
      <trkpt lat="48.18705" lon="3.37044">
        <ele>142</ele>
        <time>2014-05-04T09:19:52.000Z</time>
      </trkpt>
      <trkpt lat="48.187" lon="3.37046">
        <ele>142</ele>
        <time>2014-05-04T09:19:53.000Z</time>
      </trkpt>
      <trkpt lat="48.187" lon="3.37046">
        <ele>142</ele>
        <time>2014-05-04T09:19:55.000Z</time>
      </trkpt>
      <trkpt lat="48.18695" lon="3.37051">
        <ele>141</ele>
        <time>2014-05-04T09:19:56.000Z</time>
      </trkpt>
      <trkpt lat="48.18695" lon="3.37051">
        <ele>141</ele>
        <time>2014-05-04T09:19:57.000Z</time>
      </trkpt>
      <trkpt lat="48.1869" lon="3.37055">
        <ele>141</ele>
        <time>2014-05-04T09:19:58.000Z</time>
      </trkpt>
      <trkpt lat="48.18688" lon="3.37057">
        <ele>141</ele>
        <time>2014-05-04T09:19:59.000Z</time>
      </trkpt>
      <trkpt lat="48.18686" lon="3.37057">
        <ele>140</ele>
        <time>2014-05-04T09:20:00.000Z</time>
      </trkpt>
      <trkpt lat="48.18684" lon="3.37059">
        <ele>140</ele>
        <time>2014-05-04T09:20:01.000Z</time>
      </trkpt>
      <trkpt lat="48.18682" lon="3.37061">
        <ele>140</ele>
        <time>2014-05-04T09:20:02.000Z</time>
      </trkpt>
      <trkpt lat="48.18678" lon="3.37064">
        <ele>139</ele>
        <time>2014-05-04T09:20:04.000Z</time>
      </trkpt>
      <trkpt lat="48.18675" lon="3.37064">
        <ele>139</ele>
        <time>2014-05-04T09:20:05.000Z</time>
      </trkpt>
      <trkpt lat="48.18673" lon="3.37066">
        <ele>139</ele>
        <time>2014-05-04T09:20:08.000Z</time>
      </trkpt>
      <trkpt lat="48.18667" lon="3.3707">
        <ele>138</ele>
        <time>2014-05-04T09:20:09.000Z</time>
      </trkpt>
      <trkpt lat="48.18667" lon="3.3707">
        <ele>138</ele>
        <time>2014-05-04T09:20:11.000Z</time>
      </trkpt>
      <trkpt lat="48.18661" lon="3.37072">
        <ele>134</ele>
        <time>2014-05-04T09:20:12.000Z</time>
      </trkpt>
      <trkpt lat="48.18661" lon="3.37072">
        <ele>134</ele>
        <time>2014-05-04T09:20:17.000Z</time>
      </trkpt>
      <trkpt lat="48.18652" lon="3.37079">
        <ele>133</ele>
        <time>2014-05-04T09:20:18.000Z</time>
      </trkpt>
      <trkpt lat="48.18652" lon="3.37079">
        <ele>133</ele>
        <time>2014-05-04T09:20:20.000Z</time>
      </trkpt>
      <trkpt lat="48.18646" lon="3.37083">
        <ele>132</ele>
        <time>2014-05-04T09:20:21.000Z</time>
      </trkpt>
      <trkpt lat="48.18646" lon="3.37083">
        <ele>132</ele>
        <time>2014-05-04T09:20:25.000Z</time>
      </trkpt>
      <trkpt lat="48.18638" lon="3.37087">
        <ele>132</ele>
        <time>2014-05-04T09:20:26.000Z</time>
      </trkpt>
      <trkpt lat="48.18634" lon="3.37089">
        <ele>132</ele>
        <time>2014-05-04T09:20:31.000Z</time>
      </trkpt>
      <trkpt lat="48.18629" lon="3.37098">
        <ele>131</ele>
        <time>2014-05-04T09:20:32.000Z</time>
      </trkpt>
      <trkpt lat="48.18629" lon="3.37104">
        <ele>131</ele>
        <time>2014-05-04T09:20:35.000Z</time>
      </trkpt>
      <trkpt lat="48.18629" lon="3.37106">
        <ele>131</ele>
        <time>2014-05-04T09:20:36.000Z</time>
      </trkpt>
      <trkpt lat="48.1863" lon="3.37111">
        <ele>131</ele>
        <time>2014-05-04T09:20:38.000Z</time>
      </trkpt>
      <trkpt lat="48.18631" lon="3.37113">
        <ele>132</ele>
        <time>2014-05-04T09:20:39.000Z</time>
      </trkpt>
      <trkpt lat="48.18634" lon="3.37117">
        <ele>132</ele>
        <time>2014-05-04T09:20:43.000Z</time>
      </trkpt>
      <trkpt lat="48.18635" lon="3.37119">
        <ele>132</ele>
        <time>2014-05-04T09:20:44.000Z</time>
      </trkpt>
      <trkpt lat="48.18638" lon="3.37121">
        <ele>132</ele>
        <time>2014-05-04T09:20:46.000Z</time>
      </trkpt>
      <trkpt lat="48.1864" lon="3.37124">
        <ele>132</ele>
        <time>2014-05-04T09:20:47.000Z</time>
      </trkpt>
      <trkpt lat="48.18642" lon="3.37126">
        <ele>132</ele>
        <time>2014-05-04T09:20:48.000Z</time>
      </trkpt>
      <trkpt lat="48.18644" lon="3.37128">
        <ele>132</ele>
        <time>2014-05-04T09:20:49.000Z</time>
      </trkpt>
      <trkpt lat="48.18648" lon="3.37132">
        <ele>132</ele>
        <time>2014-05-04T09:20:51.000Z</time>
      </trkpt>
      <trkpt lat="48.1865" lon="3.37134">
        <ele>132</ele>
        <time>2014-05-04T09:20:52.000Z</time>
      </trkpt>
      <trkpt lat="48.18652" lon="3.37134">
        <ele>132</ele>
        <time>2014-05-04T09:20:53.000Z</time>
      </trkpt>
      <trkpt lat="48.18654" lon="3.37137">
        <ele>132</ele>
        <time>2014-05-04T09:20:54.000Z</time>
      </trkpt>
      <trkpt lat="48.18656" lon="3.37139">
        <ele>132</ele>
        <time>2014-05-04T09:20:55.000Z</time>
      </trkpt>
      <trkpt lat="48.18658" lon="3.37141">
        <ele>133</ele>
        <time>2014-05-04T09:20:56.000Z</time>
      </trkpt>
      <trkpt lat="48.1866" lon="3.37143">
        <ele>133</ele>
        <time>2014-05-04T09:20:57.000Z</time>
      </trkpt>
      <trkpt lat="48.18663" lon="3.37145">
        <ele>133</ele>
        <time>2014-05-04T09:20:58.000Z</time>
      </trkpt>
      <trkpt lat="48.18665" lon="3.37147">
        <ele>133</ele>
        <time>2014-05-04T09:20:59.000Z</time>
      </trkpt>
      <trkpt lat="48.18667" lon="3.37147">
        <ele>138</ele>
        <time>2014-05-04T09:21:00.000Z</time>
      </trkpt>
      <trkpt lat="48.18669" lon="3.37149">
        <ele>137</ele>
        <time>2014-05-04T09:21:01.000Z</time>
      </trkpt>
      <trkpt lat="48.18671" lon="3.37152">
        <ele>137</ele>
        <time>2014-05-04T09:21:02.000Z</time>
      </trkpt>
      <trkpt lat="48.18674" lon="3.37156">
        <ele>137</ele>
        <time>2014-05-04T09:21:04.000Z</time>
      </trkpt>
      <trkpt lat="48.18676" lon="3.37158">
        <ele>137</ele>
        <time>2014-05-04T09:21:05.000Z</time>
      </trkpt>
      <trkpt lat="48.1868" lon="3.37158">
        <ele>137</ele>
        <time>2014-05-04T09:21:06.000Z</time>
      </trkpt>
      <trkpt lat="48.18682" lon="3.3716">
        <ele>138</ele>
        <time>2014-05-04T09:21:07.000Z</time>
      </trkpt>
      <trkpt lat="48.18684" lon="3.37162">
        <ele>138</ele>
        <time>2014-05-04T09:21:08.000Z</time>
      </trkpt>
      <trkpt lat="48.18686" lon="3.37162">
        <ele>138</ele>
        <time>2014-05-04T09:21:09.000Z</time>
      </trkpt>
      <trkpt lat="48.18688" lon="3.37164">
        <ele>138</ele>
        <time>2014-05-04T09:21:10.000Z</time>
      </trkpt>
      <trkpt lat="48.1869" lon="3.37167">
        <ele>139</ele>
        <time>2014-05-04T09:21:11.000Z</time>
      </trkpt>
      <trkpt lat="48.18693" lon="3.37169">
        <ele>139</ele>
        <time>2014-05-04T09:21:12.000Z</time>
      </trkpt>
      <trkpt lat="48.18695" lon="3.37169">
        <ele>139</ele>
        <time>2014-05-04T09:21:13.000Z</time>
      </trkpt>
      <trkpt lat="48.18697" lon="3.37171">
        <ele>140</ele>
        <time>2014-05-04T09:21:14.000Z</time>
      </trkpt>
      <trkpt lat="48.18699" lon="3.37173">
        <ele>140</ele>
        <time>2014-05-04T09:21:15.000Z</time>
      </trkpt>
      <trkpt lat="48.18701" lon="3.37173">
        <ele>140</ele>
        <time>2014-05-04T09:21:16.000Z</time>
      </trkpt>
      <trkpt lat="48.18703" lon="3.37175">
        <ele>140</ele>
        <time>2014-05-04T09:21:17.000Z</time>
      </trkpt>
      <trkpt lat="48.18707" lon="3.37175">
        <ele>141</ele>
        <time>2014-05-04T09:21:19.000Z</time>
      </trkpt>
      <trkpt lat="48.18709" lon="3.37175">
        <ele>141</ele>
        <time>2014-05-04T09:21:20.000Z</time>
      </trkpt>
      <trkpt lat="48.18711" lon="3.37177">
        <ele>141</ele>
        <time>2014-05-04T09:21:21.000Z</time>
      </trkpt>
      <trkpt lat="48.18713" lon="3.37177">
        <ele>141</ele>
        <time>2014-05-04T09:21:22.000Z</time>
      </trkpt>
      <trkpt lat="48.18717" lon="3.37177">
        <ele>142</ele>
        <time>2014-05-04T09:21:24.000Z</time>
      </trkpt>
      <trkpt lat="48.18719" lon="3.37179">
        <ele>142</ele>
        <time>2014-05-04T09:21:25.000Z</time>
      </trkpt>
      <trkpt lat="48.18723" lon="3.37179">
        <ele>142</ele>
        <time>2014-05-04T09:21:27.000Z</time>
      </trkpt>
      <trkpt lat="48.18725" lon="3.37182">
        <ele>142</ele>
        <time>2014-05-04T09:21:28.000Z</time>
      </trkpt>
      <trkpt lat="48.18728" lon="3.37184">
        <ele>142</ele>
        <time>2014-05-04T09:21:30.000Z</time>
      </trkpt>
      <trkpt lat="48.18729" lon="3.37184">
        <ele>143</ele>
        <time>2014-05-04T09:21:31.000Z</time>
      </trkpt>
      <trkpt lat="48.18731" lon="3.37186">
        <ele>143</ele>
        <time>2014-05-04T09:21:32.000Z</time>
      </trkpt>
      <trkpt lat="48.18733" lon="3.37186">
        <ele>143</ele>
        <time>2014-05-04T09:21:33.000Z</time>
      </trkpt>
      <trkpt lat="48.18737" lon="3.37188">
        <ele>143</ele>
        <time>2014-05-04T09:21:35.000Z</time>
      </trkpt>
      <trkpt lat="48.18738" lon="3.37188">
        <ele>143</ele>
        <time>2014-05-04T09:21:36.000Z</time>
      </trkpt>
      <trkpt lat="48.18741" lon="3.3719">
        <ele>143</ele>
        <time>2014-05-04T09:21:38.000Z</time>
      </trkpt>
      <trkpt lat="48.18743" lon="3.37192">
        <ele>143</ele>
        <time>2014-05-04T09:21:39.000Z</time>
      </trkpt>
      <trkpt lat="48.18746" lon="3.37194">
        <ele>143</ele>
        <time>2014-05-04T09:21:41.000Z</time>
      </trkpt>
      <trkpt lat="48.18748" lon="3.37194">
        <ele>143</ele>
        <time>2014-05-04T09:21:42.000Z</time>
      </trkpt>
      <trkpt lat="48.18752" lon="3.37197">
        <ele>147</ele>
        <time>2014-05-04T09:21:44.000Z</time>
      </trkpt>
      <trkpt lat="48.18753" lon="3.37197">
        <ele>147</ele>
        <time>2014-05-04T09:21:45.000Z</time>
      </trkpt>
      <trkpt lat="48.18755" lon="3.37199">
        <ele>147</ele>
        <time>2014-05-04T09:21:46.000Z</time>
      </trkpt>
      <trkpt lat="48.18757" lon="3.37199">
        <ele>147</ele>
        <time>2014-05-04T09:21:47.000Z</time>
      </trkpt>
      <trkpt lat="48.1876" lon="3.37201">
        <ele>147</ele>
        <time>2014-05-04T09:21:49.000Z</time>
      </trkpt>
      <trkpt lat="48.18761" lon="3.37203">
        <ele>147</ele>
        <time>2014-05-04T09:21:50.000Z</time>
      </trkpt>
      <trkpt lat="48.18766" lon="3.37203">
        <ele>148</ele>
        <time>2014-05-04T09:21:52.000Z</time>
      </trkpt>
      <trkpt lat="48.18767" lon="3.37205">
        <ele>148</ele>
        <time>2014-05-04T09:21:53.000Z</time>
      </trkpt>
      <trkpt lat="48.18769" lon="3.37205">
        <ele>148</ele>
        <time>2014-05-04T09:21:54.000Z</time>
      </trkpt>
      <trkpt lat="48.18771" lon="3.37207">
        <ele>148</ele>
        <time>2014-05-04T09:21:55.000Z</time>
      </trkpt>
      <trkpt lat="48.18774" lon="3.37209">
        <ele>148</ele>
        <time>2014-05-04T09:21:57.000Z</time>
      </trkpt>
      <trkpt lat="48.18776" lon="3.37209">
        <ele>148</ele>
        <time>2014-05-04T09:21:58.000Z</time>
      </trkpt>
      <trkpt lat="48.18779" lon="3.37212">
        <ele>148</ele>
        <time>2014-05-04T09:22:00.000Z</time>
      </trkpt>
      <trkpt lat="48.18781" lon="3.37214">
        <ele>148</ele>
        <time>2014-05-04T09:22:01.000Z</time>
      </trkpt>
      <trkpt lat="48.18783" lon="3.37216">
        <ele>148</ele>
        <time>2014-05-04T09:22:02.000Z</time>
      </trkpt>
      <trkpt lat="48.18785" lon="3.37216">
        <ele>148</ele>
        <time>2014-05-04T09:22:03.000Z</time>
      </trkpt>
      <trkpt lat="48.18788" lon="3.3722">
        <ele>148</ele>
        <time>2014-05-04T09:22:05.000Z</time>
      </trkpt>
      <trkpt lat="48.1879" lon="3.3722">
        <ele>148</ele>
        <time>2014-05-04T09:22:06.000Z</time>
      </trkpt>
      <trkpt lat="48.18793" lon="3.37222">
        <ele>148</ele>
        <time>2014-05-04T09:22:08.000Z</time>
      </trkpt>
      <trkpt lat="48.18794" lon="3.37222">
        <ele>148</ele>
        <time>2014-05-04T09:22:09.000Z</time>
      </trkpt>
      <trkpt lat="48.18797" lon="3.37222">
        <ele>148</ele>
        <time>2014-05-04T09:22:10.000Z</time>
      </trkpt>
      <trkpt lat="48.18799" lon="3.37224">
        <ele>148</ele>
        <time>2014-05-04T09:22:11.000Z</time>
      </trkpt>
      <trkpt lat="48.18803" lon="3.37224">
        <ele>148</ele>
        <time>2014-05-04T09:22:13.000Z</time>
      </trkpt>
      <trkpt lat="48.18804" lon="3.37227">
        <ele>148</ele>
        <time>2014-05-04T09:22:14.000Z</time>
      </trkpt>
      <trkpt lat="48.18808" lon="3.37227">
        <ele>148</ele>
        <time>2014-05-04T09:22:16.000Z</time>
      </trkpt>
      <trkpt lat="48.18811" lon="3.37229">
        <ele>149</ele>
        <time>2014-05-04T09:22:17.000Z</time>
      </trkpt>
      <trkpt lat="48.18813" lon="3.37229">
        <ele>149</ele>
        <time>2014-05-04T09:22:18.000Z</time>
      </trkpt>
      <trkpt lat="48.18815" lon="3.37231">
        <ele>149</ele>
        <time>2014-05-04T09:22:19.000Z</time>
      </trkpt>
      <trkpt lat="48.18818" lon="3.37233">
        <ele>149</ele>
        <time>2014-05-04T09:22:21.000Z</time>
      </trkpt>
      <trkpt lat="48.1882" lon="3.37233">
        <ele>149</ele>
        <time>2014-05-04T09:22:22.000Z</time>
      </trkpt>
      <trkpt lat="48.18822" lon="3.37235">
        <ele>149</ele>
        <time>2014-05-04T09:22:23.000Z</time>
      </trkpt>
      <trkpt lat="48.18825" lon="3.37235">
        <ele>149</ele>
        <time>2014-05-04T09:22:24.000Z</time>
      </trkpt>
      <trkpt lat="48.18827" lon="3.37237">
        <ele>149</ele>
        <time>2014-05-04T09:22:25.000Z</time>
      </trkpt>
      <trkpt lat="48.18829" lon="3.37237">
        <ele>149</ele>
        <time>2014-05-04T09:22:26.000Z</time>
      </trkpt>
      <trkpt lat="48.18831" lon="3.3724">
        <ele>149</ele>
        <time>2014-05-04T09:22:27.000Z</time>
      </trkpt>
      <trkpt lat="48.18834" lon="3.37242">
        <ele>151</ele>
        <time>2014-05-04T09:22:28.000Z</time>
      </trkpt>
      <trkpt lat="48.18836" lon="3.37244">
        <ele>150</ele>
        <time>2014-05-04T09:22:29.000Z</time>
      </trkpt>
      <trkpt lat="48.18838" lon="3.37244">
        <ele>151</ele>
        <time>2014-05-04T09:22:30.000Z</time>
      </trkpt>
      <trkpt lat="48.18842" lon="3.37246">
        <ele>151</ele>
        <time>2014-05-04T09:22:31.000Z</time>
      </trkpt>
      <trkpt lat="48.18844" lon="3.37246">
        <ele>151</ele>
        <time>2014-05-04T09:22:32.000Z</time>
      </trkpt>
      <trkpt lat="48.18846" lon="3.37248">
        <ele>151</ele>
        <time>2014-05-04T09:22:33.000Z</time>
      </trkpt>
      <trkpt lat="48.18848" lon="3.37248">
        <ele>152</ele>
        <time>2014-05-04T09:22:34.000Z</time>
      </trkpt>
      <trkpt lat="48.1885" lon="3.3725">
        <ele>152</ele>
        <time>2014-05-04T09:22:35.000Z</time>
      </trkpt>
      <trkpt lat="48.18853" lon="3.37252">
        <ele>152</ele>
        <time>2014-05-04T09:22:36.000Z</time>
      </trkpt>
      <trkpt lat="48.18856" lon="3.37252">
        <ele>152</ele>
        <time>2014-05-04T09:22:37.000Z</time>
      </trkpt>
      <trkpt lat="48.18858" lon="3.37255">
        <ele>152</ele>
        <time>2014-05-04T09:22:38.000Z</time>
      </trkpt>
      <trkpt lat="48.1886" lon="3.37257">
        <ele>153</ele>
        <time>2014-05-04T09:22:39.000Z</time>
      </trkpt>
      <trkpt lat="48.18863" lon="3.37257">
        <ele>153</ele>
        <time>2014-05-04T09:22:40.000Z</time>
      </trkpt>
      <trkpt lat="48.18865" lon="3.37259">
        <ele>153</ele>
        <time>2014-05-04T09:22:41.000Z</time>
      </trkpt>
      <trkpt lat="48.18867" lon="3.37259">
        <ele>153</ele>
        <time>2014-05-04T09:22:42.000Z</time>
      </trkpt>
      <trkpt lat="48.1887" lon="3.37261">
        <ele>153</ele>
        <time>2014-05-04T09:22:43.000Z</time>
      </trkpt>
      <trkpt lat="48.18872" lon="3.37261">
        <ele>154</ele>
        <time>2014-05-04T09:22:44.000Z</time>
      </trkpt>
      <trkpt lat="48.18874" lon="3.37263">
        <ele>154</ele>
        <time>2014-05-04T09:22:45.000Z</time>
      </trkpt>
      <trkpt lat="48.18876" lon="3.37265">
        <ele>154</ele>
        <time>2014-05-04T09:22:46.000Z</time>
      </trkpt>
      <trkpt lat="48.18879" lon="3.37267">
        <ele>154</ele>
        <time>2014-05-04T09:22:48.000Z</time>
      </trkpt>
      <trkpt lat="48.1888" lon="3.3727">
        <ele>154</ele>
        <time>2014-05-04T09:22:49.000Z</time>
      </trkpt>
      <trkpt lat="48.18882" lon="3.37272">
        <ele>154</ele>
        <time>2014-05-04T09:22:50.000Z</time>
      </trkpt>
      <trkpt lat="48.18885" lon="3.37274">
        <ele>154</ele>
        <time>2014-05-04T09:22:51.000Z</time>
      </trkpt>
      <trkpt lat="48.18888" lon="3.37276">
        <ele>154</ele>
        <time>2014-05-04T09:22:53.000Z</time>
      </trkpt>
      <trkpt lat="48.1889" lon="3.37278">
        <ele>154</ele>
        <time>2014-05-04T09:22:54.000Z</time>
      </trkpt>
      <trkpt lat="48.18893" lon="3.3728">
        <ele>155</ele>
        <time>2014-05-04T09:22:56.000Z</time>
      </trkpt>
      <trkpt lat="48.18895" lon="3.37282">
        <ele>155</ele>
        <time>2014-05-04T09:22:57.000Z</time>
      </trkpt>
      <trkpt lat="48.189" lon="3.37282">
        <ele>155</ele>
        <time>2014-05-04T09:22:59.000Z</time>
      </trkpt>
      <trkpt lat="48.18902" lon="3.37285">
        <ele>155</ele>
        <time>2014-05-04T09:23:00.000Z</time>
      </trkpt>
      <trkpt lat="48.18904" lon="3.37285">
        <ele>155</ele>
        <time>2014-05-04T09:23:01.000Z</time>
      </trkpt>
      <trkpt lat="48.18906" lon="3.37287">
        <ele>155</ele>
        <time>2014-05-04T09:23:02.000Z</time>
      </trkpt>
      <trkpt lat="48.18908" lon="3.37287">
        <ele>155</ele>
        <time>2014-05-04T09:23:03.000Z</time>
      </trkpt>
      <trkpt lat="48.1891" lon="3.37289">
        <ele>155</ele>
        <time>2014-05-04T09:23:04.000Z</time>
      </trkpt>
      <trkpt lat="48.18913" lon="3.37291">
        <ele>155</ele>
        <time>2014-05-04T09:23:05.000Z</time>
      </trkpt>
      <trkpt lat="48.18915" lon="3.37291">
        <ele>155</ele>
        <time>2014-05-04T09:23:06.000Z</time>
      </trkpt>
      <trkpt lat="48.18917" lon="3.37293">
        <ele>159</ele>
        <time>2014-05-04T09:23:07.000Z</time>
      </trkpt>
      <trkpt lat="48.18919" lon="3.37295">
        <ele>159</ele>
        <time>2014-05-04T09:23:08.000Z</time>
      </trkpt>
      <trkpt lat="48.18921" lon="3.37297">
        <ele>159</ele>
        <time>2014-05-04T09:23:09.000Z</time>
      </trkpt>
      <trkpt lat="48.18923" lon="3.37297">
        <ele>159</ele>
        <time>2014-05-04T09:23:10.000Z</time>
      </trkpt>
      <trkpt lat="48.18926" lon="3.37302">
        <ele>159</ele>
        <time>2014-05-04T09:23:12.000Z</time>
      </trkpt>
      <trkpt lat="48.18928" lon="3.37304">
        <ele>159</ele>
        <time>2014-05-04T09:23:13.000Z</time>
      </trkpt>
      <trkpt lat="48.1893" lon="3.37306">
        <ele>159</ele>
        <time>2014-05-04T09:23:14.000Z</time>
      </trkpt>
      <trkpt lat="48.18932" lon="3.37306">
        <ele>159</ele>
        <time>2014-05-04T09:23:15.000Z</time>
      </trkpt>
      <trkpt lat="48.18934" lon="3.37308">
        <ele>159</ele>
        <time>2014-05-04T09:23:16.000Z</time>
      </trkpt>
      <trkpt lat="48.18936" lon="3.3731">
        <ele>159</ele>
        <time>2014-05-04T09:23:17.000Z</time>
      </trkpt>
      <trkpt lat="48.18939" lon="3.37315">
        <ele>159</ele>
        <time>2014-05-04T09:23:19.000Z</time>
      </trkpt>
      <trkpt lat="48.1894" lon="3.37317">
        <ele>159</ele>
        <time>2014-05-04T09:23:20.000Z</time>
      </trkpt>
      <trkpt lat="48.18943" lon="3.37321">
        <ele>160</ele>
        <time>2014-05-04T09:23:22.000Z</time>
      </trkpt>
      <trkpt lat="48.18943" lon="3.37323">
        <ele>160</ele>
        <time>2014-05-04T09:23:23.000Z</time>
      </trkpt>
      <trkpt lat="48.18945" lon="3.37327">
        <ele>160</ele>
        <time>2014-05-04T09:23:28.000Z</time>
      </trkpt>
      <trkpt lat="48.18945" lon="3.3733">
        <ele>160</ele>
        <time>2014-05-04T09:23:29.000Z</time>
      </trkpt>
      <trkpt lat="48.18946" lon="3.37336">
        <ele>161</ele>
        <time>2014-05-04T09:23:41.000Z</time>
      </trkpt>
      <trkpt lat="48.18947" lon="3.37336">
        <ele>161</ele>
        <time>2014-05-04T09:23:42.000Z</time>
      </trkpt>
      <trkpt lat="48.18949" lon="3.3734">
        <ele>161</ele>
        <time>2014-05-04T09:23:57.000Z</time>
      </trkpt>
      <trkpt lat="48.18949" lon="3.37343">
        <ele>161</ele>
        <time>2014-05-04T09:23:58.000Z</time>
      </trkpt>
      <trkpt lat="48.18949" lon="3.37349">
        <ele>161</ele>
        <time>2014-05-04T09:24:05.000Z</time>
      </trkpt>
      <trkpt lat="48.18949" lon="3.37351">
        <ele>161</ele>
        <time>2014-05-04T09:24:06.000Z</time>
      </trkpt>
      <trkpt lat="48.18949" lon="3.37358">
        <ele>162</ele>
        <time>2014-05-04T09:24:09.000Z</time>
      </trkpt>
      <trkpt lat="48.18949" lon="3.3736">
        <ele>162</ele>
        <time>2014-05-04T09:24:10.000Z</time>
      </trkpt>
      <trkpt lat="48.18949" lon="3.37364">
        <ele>162</ele>
        <time>2014-05-04T09:24:12.000Z</time>
      </trkpt>
      <trkpt lat="48.1895" lon="3.37366">
        <ele>162</ele>
        <time>2014-05-04T09:24:13.000Z</time>
      </trkpt>
      <trkpt lat="48.1895" lon="3.37373">
        <ele>162</ele>
        <time>2014-05-04T09:24:15.000Z</time>
      </trkpt>
      <trkpt lat="48.18951" lon="3.37375">
        <ele>162</ele>
        <time>2014-05-04T09:24:16.000Z</time>
      </trkpt>
      <trkpt lat="48.18951" lon="3.37377">
        <ele>162</ele>
        <time>2014-05-04T09:24:17.000Z</time>
      </trkpt>
      <trkpt lat="48.18952" lon="3.37381">
        <ele>162</ele>
        <time>2014-05-04T09:24:18.000Z</time>
      </trkpt>
      <trkpt lat="48.18952" lon="3.37385">
        <ele>163</ele>
        <time>2014-05-04T09:24:20.000Z</time>
      </trkpt>
      <trkpt lat="48.18953" lon="3.3739">
        <ele>163</ele>
        <time>2014-05-04T09:24:21.000Z</time>
      </trkpt>
      <trkpt lat="48.18953" lon="3.37396">
        <ele>163</ele>
        <time>2014-05-04T09:24:23.000Z</time>
      </trkpt>
      <trkpt lat="48.18953" lon="3.37398">
        <ele>163</ele>
        <time>2014-05-04T09:24:24.000Z</time>
      </trkpt>
      <trkpt lat="48.18953" lon="3.374">
        <ele>163</ele>
        <time>2014-05-04T09:24:25.000Z</time>
      </trkpt>
      <trkpt lat="48.18954" lon="3.37405">
        <ele>163</ele>
        <time>2014-05-04T09:24:26.000Z</time>
      </trkpt>
      <trkpt lat="48.18954" lon="3.37411">
        <ele>163</ele>
        <time>2014-05-04T09:24:28.000Z</time>
      </trkpt>
      <trkpt lat="48.18954" lon="3.37413">
        <ele>163</ele>
        <time>2014-05-04T09:24:29.000Z</time>
      </trkpt>
      <trkpt lat="48.18955" lon="3.3742">
        <ele>166</ele>
        <time>2014-05-04T09:24:31.000Z</time>
      </trkpt>
      <trkpt lat="48.18955" lon="3.37422">
        <ele>166</ele>
        <time>2014-05-04T09:24:32.000Z</time>
      </trkpt>
      <trkpt lat="48.18955" lon="3.37428">
        <ele>166</ele>
        <time>2014-05-04T09:24:34.000Z</time>
      </trkpt>
      <trkpt lat="48.18955" lon="3.37433">
        <ele>167</ele>
        <time>2014-05-04T09:24:35.000Z</time>
      </trkpt>
      <trkpt lat="48.18955" lon="3.37439">
        <ele>167</ele>
        <time>2014-05-04T09:24:37.000Z</time>
      </trkpt>
      <trkpt lat="48.18955" lon="3.37443">
        <ele>167</ele>
        <time>2014-05-04T09:24:38.000Z</time>
      </trkpt>
      <trkpt lat="48.18955" lon="3.3745">
        <ele>167</ele>
        <time>2014-05-04T09:24:40.000Z</time>
      </trkpt>
      <trkpt lat="48.18955" lon="3.37454">
        <ele>167</ele>
        <time>2014-05-04T09:24:41.000Z</time>
      </trkpt>
      <trkpt lat="48.18955" lon="3.37461">
        <ele>168</ele>
        <time>2014-05-04T09:24:43.000Z</time>
      </trkpt>
      <trkpt lat="48.18954" lon="3.37465">
        <ele>168</ele>
        <time>2014-05-04T09:24:44.000Z</time>
      </trkpt>
      <trkpt lat="48.18954" lon="3.37469">
        <ele>168</ele>
        <time>2014-05-04T09:24:45.000Z</time>
      </trkpt>
      <trkpt lat="48.18954" lon="3.37473">
        <ele>168</ele>
        <time>2014-05-04T09:24:46.000Z</time>
      </trkpt>
      <trkpt lat="48.18954" lon="3.3748">
        <ele>168</ele>
        <time>2014-05-04T09:24:48.000Z</time>
      </trkpt>
      <trkpt lat="48.18954" lon="3.37484">
        <ele>168</ele>
        <time>2014-05-04T09:24:49.000Z</time>
      </trkpt>
      <trkpt lat="48.18954" lon="3.37491">
        <ele>168</ele>
        <time>2014-05-04T09:24:51.000Z</time>
      </trkpt>
      <trkpt lat="48.18955" lon="3.37493">
        <ele>169</ele>
        <time>2014-05-04T09:24:52.000Z</time>
      </trkpt>
      <trkpt lat="48.18955" lon="3.37499">
        <ele>169</ele>
        <time>2014-05-04T09:24:54.000Z</time>
      </trkpt>
      <trkpt lat="48.18956" lon="3.37501">
        <ele>172</ele>
        <time>2014-05-04T09:24:55.000Z</time>
      </trkpt>
      <trkpt lat="48.18956" lon="3.37508">
        <ele>172</ele>
        <time>2014-05-04T09:24:57.000Z</time>
      </trkpt>
      <trkpt lat="48.18958" lon="3.3751">
        <ele>172</ele>
        <time>2014-05-04T09:24:58.000Z</time>
      </trkpt>
      <trkpt lat="48.18958" lon="3.37514">
        <ele>172</ele>
        <time>2014-05-04T09:24:59.000Z</time>
      </trkpt>
      <trkpt lat="48.18959" lon="3.37516">
        <ele>172</ele>
        <time>2014-05-04T09:25:00.000Z</time>
      </trkpt>
      <trkpt lat="48.18959" lon="3.37523">
        <ele>172</ele>
        <time>2014-05-04T09:25:02.000Z</time>
      </trkpt>
      <trkpt lat="48.1896" lon="3.37525">
        <ele>172</ele>
        <time>2014-05-04T09:25:03.000Z</time>
      </trkpt>
      <trkpt lat="48.1896" lon="3.37531">
        <ele>172</ele>
        <time>2014-05-04T09:25:05.000Z</time>
      </trkpt>
      <trkpt lat="48.1896" lon="3.37533">
        <ele>173</ele>
        <time>2014-05-04T09:25:06.000Z</time>
      </trkpt>
      <trkpt lat="48.18961" lon="3.3754">
        <ele>173</ele>
        <time>2014-05-04T09:25:09.000Z</time>
      </trkpt>
      <trkpt lat="48.18961" lon="3.37544">
        <ele>173</ele>
        <time>2014-05-04T09:25:10.000Z</time>
      </trkpt>
      <trkpt lat="48.18962" lon="3.37551">
        <ele>173</ele>
        <time>2014-05-04T09:25:13.000Z</time>
      </trkpt>
      <trkpt lat="48.18962" lon="3.37555">
        <ele>173</ele>
        <time>2014-05-04T09:25:14.000Z</time>
      </trkpt>
      <trkpt lat="48.18963" lon="3.37561">
        <ele>173</ele>
        <time>2014-05-04T09:25:17.000Z</time>
      </trkpt>
      <trkpt lat="48.18963" lon="3.37564">
        <ele>173</ele>
        <time>2014-05-04T09:25:18.000Z</time>
      </trkpt>
      <trkpt lat="48.18964" lon="3.3757">
        <ele>174</ele>
        <time>2014-05-04T09:25:21.000Z</time>
      </trkpt>
      <trkpt lat="48.18965" lon="3.37572">
        <ele>174</ele>
        <time>2014-05-04T09:25:22.000Z</time>
      </trkpt>
      <trkpt lat="48.18966" lon="3.37576">
        <ele>174</ele>
        <time>2014-05-04T09:25:24.000Z</time>
      </trkpt>
      <trkpt lat="48.18967" lon="3.37579">
        <ele>174</ele>
        <time>2014-05-04T09:25:25.000Z</time>
      </trkpt>
      <trkpt lat="48.18969" lon="3.37583">
        <ele>174</ele>
        <time>2014-05-04T09:25:28.000Z</time>
      </trkpt>
      <trkpt lat="48.18969" lon="3.37585">
        <ele>177</ele>
        <time>2014-05-04T09:25:29.000Z</time>
      </trkpt>
      <trkpt lat="48.1897" lon="3.37589">
        <ele>177</ele>
        <time>2014-05-04T09:25:34.000Z</time>
      </trkpt>
      <trkpt lat="48.18972" lon="3.37591">
        <ele>177</ele>
        <time>2014-05-04T09:25:35.000Z</time>
      </trkpt>
      <trkpt lat="48.18973" lon="3.37596">
        <ele>178</ele>
        <time>2014-05-04T09:25:38.000Z</time>
      </trkpt>
      <trkpt lat="48.18974" lon="3.37598">
        <ele>178</ele>
        <time>2014-05-04T09:25:39.000Z</time>
      </trkpt>
      <trkpt lat="48.18975" lon="3.37602">
        <ele>178</ele>
        <time>2014-05-04T09:25:42.000Z</time>
      </trkpt>
      <trkpt lat="48.18976" lon="3.37604">
        <ele>178</ele>
        <time>2014-05-04T09:25:43.000Z</time>
      </trkpt>
      <trkpt lat="48.18978" lon="3.37609">
        <ele>178</ele>
        <time>2014-05-04T09:25:45.000Z</time>
      </trkpt>
      <trkpt lat="48.18979" lon="3.37611">
        <ele>178</ele>
        <time>2014-05-04T09:25:46.000Z</time>
      </trkpt>
      <trkpt lat="48.1898" lon="3.37615">
        <ele>178</ele>
        <time>2014-05-04T09:25:48.000Z</time>
      </trkpt>
      <trkpt lat="48.18981" lon="3.37617">
        <ele>178</ele>
        <time>2014-05-04T09:25:49.000Z</time>
      </trkpt>
      <trkpt lat="48.18984" lon="3.37621">
        <ele>179</ele>
        <time>2014-05-04T09:25:51.000Z</time>
      </trkpt>
      <trkpt lat="48.18985" lon="3.37624">
        <ele>179</ele>
        <time>2014-05-04T09:25:52.000Z</time>
      </trkpt>
      <trkpt lat="48.18988" lon="3.37628">
        <ele>179</ele>
        <time>2014-05-04T09:25:54.000Z</time>
      </trkpt>
      <trkpt lat="48.18989" lon="3.3763">
        <ele>179</ele>
        <time>2014-05-04T09:25:55.000Z</time>
      </trkpt>
      <trkpt lat="48.18992" lon="3.37634">
        <ele>179</ele>
        <time>2014-05-04T09:25:57.000Z</time>
      </trkpt>
      <trkpt lat="48.18993" lon="3.37636">
        <ele>180</ele>
        <time>2014-05-04T09:25:58.000Z</time>
      </trkpt>
      <trkpt lat="48.18994" lon="3.37641">
        <ele>180</ele>
        <time>2014-05-04T09:25:59.000Z</time>
      </trkpt>
      <trkpt lat="48.18995" lon="3.37643">
        <ele>180</ele>
        <time>2014-05-04T09:26:00.000Z</time>
      </trkpt>
      <trkpt lat="48.18998" lon="3.37647">
        <ele>180</ele>
        <time>2014-05-04T09:26:02.000Z</time>
      </trkpt>
      <trkpt lat="48.18999" lon="3.37649">
        <ele>181</ele>
        <time>2014-05-04T09:26:03.000Z</time>
      </trkpt>
      <trkpt lat="48.19" lon="3.37651">
        <ele>184</ele>
        <time>2014-05-04T09:26:04.000Z</time>
      </trkpt>
      <trkpt lat="48.19002" lon="3.37656">
        <ele>184</ele>
        <time>2014-05-04T09:26:05.000Z</time>
      </trkpt>
      <trkpt lat="48.19004" lon="3.3766">
        <ele>184</ele>
        <time>2014-05-04T09:26:07.000Z</time>
      </trkpt>
      <trkpt lat="48.19006" lon="3.37662">
        <ele>184</ele>
        <time>2014-05-04T09:26:08.000Z</time>
      </trkpt>
      <trkpt lat="48.19009" lon="3.37667">
        <ele>184</ele>
        <time>2014-05-04T09:26:10.000Z</time>
      </trkpt>
      <trkpt lat="48.1901" lon="3.37667">
        <ele>184</ele>
        <time>2014-05-04T09:26:11.000Z</time>
      </trkpt>
      <trkpt lat="48.19013" lon="3.37671">
        <ele>186</ele>
        <time>2014-05-04T09:26:13.000Z</time>
      </trkpt>
      <trkpt lat="48.19016" lon="3.37673">
        <ele>187</ele>
        <time>2014-05-04T09:26:14.000Z</time>
      </trkpt>
      <trkpt lat="48.19019" lon="3.37677">
        <ele>188</ele>
        <time>2014-05-04T09:26:16.000Z</time>
      </trkpt>
      <trkpt lat="48.19021" lon="3.37679">
        <ele>188</ele>
        <time>2014-05-04T09:26:17.000Z</time>
      </trkpt>
      <trkpt lat="48.19024" lon="3.37684">
        <ele>189</ele>
        <time>2014-05-04T09:26:19.000Z</time>
      </trkpt>
      <trkpt lat="48.19025" lon="3.37686">
        <ele>189</ele>
        <time>2014-05-04T09:26:20.000Z</time>
      </trkpt>
      <trkpt lat="48.19028" lon="3.3769">
        <ele>189</ele>
        <time>2014-05-04T09:26:22.000Z</time>
      </trkpt>
      <trkpt lat="48.19029" lon="3.37692">
        <ele>189</ele>
        <time>2014-05-04T09:26:23.000Z</time>
      </trkpt>
      <trkpt lat="48.19033" lon="3.37697">
        <ele>190</ele>
        <time>2014-05-04T09:26:25.000Z</time>
      </trkpt>
      <trkpt lat="48.19034" lon="3.37699">
        <ele>190</ele>
        <time>2014-05-04T09:26:26.000Z</time>
      </trkpt>
      <trkpt lat="48.19036" lon="3.37703">
        <ele>190</ele>
        <time>2014-05-04T09:26:28.000Z</time>
      </trkpt>
      <trkpt lat="48.19037" lon="3.37705">
        <ele>190</ele>
        <time>2014-05-04T09:26:29.000Z</time>
      </trkpt>
      <trkpt lat="48.19039" lon="3.37707">
        <ele>191</ele>
        <time>2014-05-04T09:26:31.000Z</time>
      </trkpt>
      <trkpt lat="48.19041" lon="3.37709">
        <ele>191</ele>
        <time>2014-05-04T09:26:32.000Z</time>
      </trkpt>
      <trkpt lat="48.19043" lon="3.37714">
        <ele>191</ele>
        <time>2014-05-04T09:26:34.000Z</time>
      </trkpt>
      <trkpt lat="48.19044" lon="3.37716">
        <ele>191</ele>
        <time>2014-05-04T09:26:35.000Z</time>
      </trkpt>
      <trkpt lat="48.19047" lon="3.3772">
        <ele>191</ele>
        <time>2014-05-04T09:26:37.000Z</time>
      </trkpt>
      <trkpt lat="48.19048" lon="3.37722">
        <ele>192</ele>
        <time>2014-05-04T09:26:38.000Z</time>
      </trkpt>
      <trkpt lat="48.1905" lon="3.37724">
        <ele>192</ele>
        <time>2014-05-04T09:26:40.000Z</time>
      </trkpt>
      <trkpt lat="48.19052" lon="3.37727">
        <ele>192</ele>
        <time>2014-05-04T09:26:41.000Z</time>
      </trkpt>
      <trkpt lat="48.19054" lon="3.37731">
        <ele>192</ele>
        <time>2014-05-04T09:26:43.000Z</time>
      </trkpt>
      <trkpt lat="48.19055" lon="3.37733">
        <ele>192</ele>
        <time>2014-05-04T09:26:44.000Z</time>
      </trkpt>
      <trkpt lat="48.19057" lon="3.37735">
        <ele>193</ele>
        <time>2014-05-04T09:26:46.000Z</time>
      </trkpt>
      <trkpt lat="48.19059" lon="3.37737">
        <ele>193</ele>
        <time>2014-05-04T09:26:47.000Z</time>
      </trkpt>
      <trkpt lat="48.19062" lon="3.37739">
        <ele>193</ele>
        <time>2014-05-04T09:26:49.000Z</time>
      </trkpt>
      <trkpt lat="48.19064" lon="3.37742">
        <ele>193</ele>
        <time>2014-05-04T09:26:50.000Z</time>
      </trkpt>
      <trkpt lat="48.19066" lon="3.37744">
        <ele>194</ele>
        <time>2014-05-04T09:26:52.000Z</time>
      </trkpt>
      <trkpt lat="48.19068" lon="3.37746">
        <ele>194</ele>
        <time>2014-05-04T09:26:53.000Z</time>
      </trkpt>
      <trkpt lat="48.19071" lon="3.3775">
        <ele>196</ele>
        <time>2014-05-04T09:26:56.000Z</time>
      </trkpt>
      <trkpt lat="48.19072" lon="3.37752">
        <ele>196</ele>
        <time>2014-05-04T09:26:57.000Z</time>
      </trkpt>
      <trkpt lat="48.19076" lon="3.37757">
        <ele>196</ele>
        <time>2014-05-04T09:27:00.000Z</time>
      </trkpt>
      <trkpt lat="48.19077" lon="3.37757">
        <ele>197</ele>
        <time>2014-05-04T09:27:01.000Z</time>
      </trkpt>
      <trkpt lat="48.1908" lon="3.37757">
        <ele>197</ele>
        <time>2014-05-04T09:27:08.000Z</time>
      </trkpt>
      <trkpt lat="48.19081" lon="3.37754">
        <ele>197</ele>
        <time>2014-05-04T09:27:09.000Z</time>
      </trkpt>
      <trkpt lat="48.19084" lon="3.3775">
        <ele>197</ele>
        <time>2014-05-04T09:27:17.000Z</time>
      </trkpt>
      <trkpt lat="48.19085" lon="3.37748">
        <ele>197</ele>
        <time>2014-05-04T09:27:18.000Z</time>
      </trkpt>
      <trkpt lat="48.19088" lon="3.37748">
        <ele>197</ele>
        <time>2014-05-04T09:27:46.000Z</time>
      </trkpt>
      <trkpt lat="48.1909" lon="3.3775">
        <ele>198</ele>
        <time>2014-05-04T09:27:47.000Z</time>
      </trkpt>
      <trkpt lat="48.19091" lon="3.37754">
        <ele>198</ele>
        <time>2014-05-04T09:27:52.000Z</time>
      </trkpt>
      <trkpt lat="48.19092" lon="3.37757">
        <ele>198</ele>
        <time>2014-05-04T09:27:53.000Z</time>
      </trkpt>
      <trkpt lat="48.19093" lon="3.37761">
        <ele>199</ele>
        <time>2014-05-04T09:27:57.000Z</time>
      </trkpt>
      <trkpt lat="48.19094" lon="3.37763">
        <ele>199</ele>
        <time>2014-05-04T09:27:58.000Z</time>
      </trkpt>
      <trkpt lat="48.19095" lon="3.37767">
        <ele>199</ele>
        <time>2014-05-04T09:28:02.000Z</time>
      </trkpt>
      <trkpt lat="48.19096" lon="3.3777">
        <ele>199</ele>
        <time>2014-05-04T09:28:03.000Z</time>
      </trkpt>
      <trkpt lat="48.19099" lon="3.37774">
        <ele>200</ele>
        <time>2014-05-04T09:28:07.000Z</time>
      </trkpt>
      <trkpt lat="48.19101" lon="3.37776">
        <ele>200</ele>
        <time>2014-05-04T09:28:08.000Z</time>
      </trkpt>
      <trkpt lat="48.19103" lon="3.37778">
        <ele>200</ele>
        <time>2014-05-04T09:28:09.000Z</time>
      </trkpt>
      <trkpt lat="48.19107" lon="3.3778">
        <ele>200</ele>
        <time>2014-05-04T09:28:10.000Z</time>
      </trkpt>
      <trkpt lat="48.19109" lon="3.37782">
        <ele>200</ele>
        <time>2014-05-04T09:28:11.000Z</time>
      </trkpt>
      <trkpt lat="48.19112" lon="3.37785">
        <ele>200</ele>
        <time>2014-05-04T09:28:12.000Z</time>
      </trkpt>
      <trkpt lat="48.19115" lon="3.37787">
        <ele>200</ele>
        <time>2014-05-04T09:28:13.000Z</time>
      </trkpt>
      <trkpt lat="48.19117" lon="3.37789">
        <ele>200</ele>
        <time>2014-05-04T09:28:14.000Z</time>
      </trkpt>
      <trkpt lat="48.1912" lon="3.37791">
        <ele>201</ele>
        <time>2014-05-04T09:28:15.000Z</time>
      </trkpt>
      <trkpt lat="48.19123" lon="3.37793">
        <ele>201</ele>
        <time>2014-05-04T09:28:16.000Z</time>
      </trkpt>
      <trkpt lat="48.19125" lon="3.37795">
        <ele>201</ele>
        <time>2014-05-04T09:28:17.000Z</time>
      </trkpt>
      <trkpt lat="48.19127" lon="3.37797">
        <ele>201</ele>
        <time>2014-05-04T09:28:18.000Z</time>
      </trkpt>
      <trkpt lat="48.19129" lon="3.378">
        <ele>201</ele>
        <time>2014-05-04T09:28:19.000Z</time>
      </trkpt>
      <trkpt lat="48.19131" lon="3.37802">
        <ele>201</ele>
        <time>2014-05-04T09:28:20.000Z</time>
      </trkpt>
      <trkpt lat="48.19135" lon="3.37804">
        <ele>201</ele>
        <time>2014-05-04T09:28:22.000Z</time>
      </trkpt>
      <trkpt lat="48.19137" lon="3.37804">
        <ele>201</ele>
        <time>2014-05-04T09:28:23.000Z</time>
      </trkpt>
      <trkpt lat="48.1914" lon="3.37806">
        <ele>201</ele>
        <time>2014-05-04T09:28:25.000Z</time>
      </trkpt>
      <trkpt lat="48.19142" lon="3.37808">
        <ele>202</ele>
        <time>2014-05-04T09:28:26.000Z</time>
      </trkpt>
      <trkpt lat="48.19146" lon="3.37808">
        <ele>202</ele>
        <time>2014-05-04T09:28:29.000Z</time>
      </trkpt>
      <trkpt lat="48.19149" lon="3.3781">
        <ele>202</ele>
        <time>2014-05-04T09:28:30.000Z</time>
      </trkpt>
      <trkpt lat="48.19152" lon="3.37815">
        <ele>202</ele>
        <time>2014-05-04T09:28:33.000Z</time>
      </trkpt>
      <trkpt lat="48.19152" lon="3.37817">
        <ele>202</ele>
        <time>2014-05-04T09:28:34.000Z</time>
      </trkpt>
      <trkpt lat="48.19153" lon="3.37823">
        <ele>202</ele>
        <time>2014-05-04T09:28:36.000Z</time>
      </trkpt>
      <trkpt lat="48.19154" lon="3.37825">
        <ele>203</ele>
        <time>2014-05-04T09:28:37.000Z</time>
      </trkpt>
      <trkpt lat="48.19154" lon="3.37832">
        <ele>203</ele>
        <time>2014-05-04T09:28:40.000Z</time>
      </trkpt>
      <trkpt lat="48.19154" lon="3.37836">
        <ele>203</ele>
        <time>2014-05-04T09:28:41.000Z</time>
      </trkpt>
      <trkpt lat="48.19155" lon="3.37842">
        <ele>203</ele>
        <time>2014-05-04T09:28:45.000Z</time>
      </trkpt>
      <trkpt lat="48.19155" lon="3.37845">
        <ele>203</ele>
        <time>2014-05-04T09:28:46.000Z</time>
      </trkpt>
      <trkpt lat="48.19155" lon="3.37851">
        <ele>203</ele>
        <time>2014-05-04T09:28:49.000Z</time>
      </trkpt>
      <trkpt lat="48.19155" lon="3.37853">
        <ele>203</ele>
        <time>2014-05-04T09:28:50.000Z</time>
      </trkpt>
      <trkpt lat="48.19154" lon="3.3786">
        <ele>203</ele>
        <time>2014-05-04T09:29:04.000Z</time>
      </trkpt>
      <trkpt lat="48.19154" lon="3.37862">
        <ele>203</ele>
        <time>2014-05-04T09:29:05.000Z</time>
      </trkpt>
      <trkpt lat="48.19154" lon="3.37855">
        <ele>203</ele>
        <time>2014-05-04T09:29:36.000Z</time>
      </trkpt>
      <trkpt lat="48.19154" lon="3.37853">
        <ele>203</ele>
        <time>2014-05-04T09:29:37.000Z</time>
      </trkpt>
      <trkpt lat="48.19157" lon="3.37849">
        <ele>203</ele>
        <time>2014-05-04T09:29:47.000Z</time>
      </trkpt>
      <trkpt lat="48.19157" lon="3.37847">
        <ele>203</ele>
        <time>2014-05-04T09:29:48.000Z</time>
      </trkpt>
      <trkpt lat="48.19161" lon="3.37847">
        <ele>203</ele>
        <time>2014-05-04T09:29:57.000Z</time>
      </trkpt>
      <trkpt lat="48.19162" lon="3.37847">
        <ele>203</ele>
        <time>2014-05-04T09:29:58.000Z</time>
      </trkpt>
      <trkpt lat="48.19166" lon="3.37849">
        <ele>203</ele>
        <time>2014-05-04T09:30:06.000Z</time>
      </trkpt>
      <trkpt lat="48.19167" lon="3.37851">
        <ele>204</ele>
        <time>2014-05-04T09:30:07.000Z</time>
      </trkpt>
      <trkpt lat="48.1917" lon="3.37851">
        <ele>204</ele>
        <time>2014-05-04T09:30:11.000Z</time>
      </trkpt>
      <trkpt lat="48.19171" lon="3.37853">
        <ele>204</ele>
        <time>2014-05-04T09:30:12.000Z</time>
      </trkpt>
      <trkpt lat="48.19175" lon="3.37853">
        <ele>204</ele>
        <time>2014-05-04T09:30:15.000Z</time>
      </trkpt>
      <trkpt lat="48.19176" lon="3.37853">
        <ele>204</ele>
        <time>2014-05-04T09:30:16.000Z</time>
      </trkpt>
      <trkpt lat="48.1918" lon="3.37851">
        <ele>204</ele>
        <time>2014-05-04T09:30:19.000Z</time>
      </trkpt>
      <trkpt lat="48.19181" lon="3.37851">
        <ele>204</ele>
        <time>2014-05-04T09:30:20.000Z</time>
      </trkpt>
      <trkpt lat="48.19184" lon="3.37849">
        <ele>204</ele>
        <time>2014-05-04T09:30:22.000Z</time>
      </trkpt>
      <trkpt lat="48.19185" lon="3.37849">
        <ele>204</ele>
        <time>2014-05-04T09:30:23.000Z</time>
      </trkpt>
      <trkpt lat="48.19187" lon="3.37847">
        <ele>204</ele>
        <time>2014-05-04T09:30:25.000Z</time>
      </trkpt>
      <trkpt lat="48.19189" lon="3.37847">
        <ele>204</ele>
        <time>2014-05-04T09:30:26.000Z</time>
      </trkpt>
      <trkpt lat="48.1919" lon="3.37851">
        <ele>204</ele>
        <time>2014-05-04T09:30:29.000Z</time>
      </trkpt>
      <trkpt lat="48.19191" lon="3.37853">
        <ele>204</ele>
        <time>2014-05-04T09:30:30.000Z</time>
      </trkpt>
      <trkpt lat="48.19191" lon="3.37857">
        <ele>204</ele>
        <time>2014-05-04T09:30:32.000Z</time>
      </trkpt>
      <trkpt lat="48.19193" lon="3.37862">
        <ele>204</ele>
        <time>2014-05-04T09:30:33.000Z</time>
      </trkpt>
      <trkpt lat="48.19193" lon="3.37868">
        <ele>204</ele>
        <time>2014-05-04T09:30:35.000Z</time>
      </trkpt>
      <trkpt lat="48.19191" lon="3.3787">
        <ele>204</ele>
        <time>2014-05-04T09:30:36.000Z</time>
      </trkpt>
      <trkpt lat="48.1919" lon="3.37875">
        <ele>204</ele>
        <time>2014-05-04T09:30:37.000Z</time>
      </trkpt>
      <trkpt lat="48.19189" lon="3.37879">
        <ele>203</ele>
        <time>2014-05-04T09:30:38.000Z</time>
      </trkpt>
      <trkpt lat="48.19188" lon="3.37885">
        <ele>203</ele>
        <time>2014-05-04T09:30:40.000Z</time>
      </trkpt>
      <trkpt lat="48.19187" lon="3.3789">
        <ele>203</ele>
        <time>2014-05-04T09:30:41.000Z</time>
      </trkpt>
      <trkpt lat="48.19186" lon="3.37896">
        <ele>203</ele>
        <time>2014-05-04T09:30:43.000Z</time>
      </trkpt>
      <trkpt lat="48.19185" lon="3.379">
        <ele>203</ele>
        <time>2014-05-04T09:30:44.000Z</time>
      </trkpt>
      <trkpt lat="48.19185" lon="3.37905">
        <ele>203</ele>
        <time>2014-05-04T09:30:45.000Z</time>
      </trkpt>
      <trkpt lat="48.19184" lon="3.37909">
        <ele>203</ele>
        <time>2014-05-04T09:30:46.000Z</time>
      </trkpt>
      <trkpt lat="48.19183" lon="3.37915">
        <ele>203</ele>
        <time>2014-05-04T09:30:48.000Z</time>
      </trkpt>
      <trkpt lat="48.19183" lon="3.3792">
        <ele>203</ele>
        <time>2014-05-04T09:30:49.000Z</time>
      </trkpt>
      <trkpt lat="48.19183" lon="3.37924">
        <ele>203</ele>
        <time>2014-05-04T09:30:50.000Z</time>
      </trkpt>
      <trkpt lat="48.19183" lon="3.37928">
        <ele>203</ele>
        <time>2014-05-04T09:30:51.000Z</time>
      </trkpt>
      <trkpt lat="48.19183" lon="3.37933">
        <ele>203</ele>
        <time>2014-05-04T09:30:52.000Z</time>
      </trkpt>
      <trkpt lat="48.19184" lon="3.37937">
        <ele>203</ele>
        <time>2014-05-04T09:30:53.000Z</time>
      </trkpt>
      <trkpt lat="48.19184" lon="3.37943">
        <ele>203</ele>
        <time>2014-05-04T09:30:55.000Z</time>
      </trkpt>
      <trkpt lat="48.19184" lon="3.37948">
        <ele>203</ele>
        <time>2014-05-04T09:30:56.000Z</time>
      </trkpt>
      <trkpt lat="48.19183" lon="3.37954">
        <ele>203</ele>
        <time>2014-05-04T09:30:59.000Z</time>
      </trkpt>
      <trkpt lat="48.19183" lon="3.37956">
        <ele>203</ele>
        <time>2014-05-04T09:31:00.000Z</time>
      </trkpt>
      <trkpt lat="48.19183" lon="3.3796">
        <ele>203</ele>
        <time>2014-05-04T09:31:16.000Z</time>
      </trkpt>
      <trkpt lat="48.19184" lon="3.37963">
        <ele>203</ele>
        <time>2014-05-04T09:31:17.000Z</time>
      </trkpt>
      <trkpt lat="48.19187" lon="3.37965">
        <ele>203</ele>
        <time>2014-05-04T09:31:22.000Z</time>
      </trkpt>
      <trkpt lat="48.19188" lon="3.37965">
        <ele>203</ele>
        <time>2014-05-04T09:31:23.000Z</time>
      </trkpt>
      <trkpt lat="48.19191" lon="3.37967">
        <ele>203</ele>
        <time>2014-05-04T09:31:28.000Z</time>
      </trkpt>
      <trkpt lat="48.19193" lon="3.37967">
        <ele>203</ele>
        <time>2014-05-04T09:31:29.000Z</time>
      </trkpt>
      <trkpt lat="48.1919" lon="3.37963">
        <ele>203</ele>
        <time>2014-05-04T09:31:57.000Z</time>
      </trkpt>
      <trkpt lat="48.19189" lon="3.37958">
        <ele>203</ele>
        <time>2014-05-04T09:31:58.000Z</time>
      </trkpt>
      <trkpt lat="48.19188" lon="3.37952">
        <ele>203</ele>
        <time>2014-05-04T09:32:00.000Z</time>
      </trkpt>
      <trkpt lat="48.19187" lon="3.3795">
        <ele>203</ele>
        <time>2014-05-04T09:32:01.000Z</time>
      </trkpt>
      <trkpt lat="48.19187" lon="3.37943">
        <ele>203</ele>
        <time>2014-05-04T09:32:03.000Z</time>
      </trkpt>
      <trkpt lat="48.19187" lon="3.37939">
        <ele>203</ele>
        <time>2014-05-04T09:32:04.000Z</time>
      </trkpt>
      <trkpt lat="48.19186" lon="3.37935">
        <ele>203</ele>
        <time>2014-05-04T09:32:06.000Z</time>
      </trkpt>
      <trkpt lat="48.19185" lon="3.3793">
        <ele>203</ele>
        <time>2014-05-04T09:32:07.000Z</time>
      </trkpt>
      <trkpt lat="48.19184" lon="3.37924">
        <ele>203</ele>
        <time>2014-05-04T09:32:10.000Z</time>
      </trkpt>
      <trkpt lat="48.19184" lon="3.37922">
        <ele>203</ele>
        <time>2014-05-04T09:32:11.000Z</time>
      </trkpt>
      <trkpt lat="48.19183" lon="3.37915">
        <ele>203</ele>
        <time>2014-05-04T09:32:14.000Z</time>
      </trkpt>
      <trkpt lat="48.19183" lon="3.37911">
        <ele>203</ele>
        <time>2014-05-04T09:32:15.000Z</time>
      </trkpt>
      <trkpt lat="48.19182" lon="3.37905">
        <ele>203</ele>
        <time>2014-05-04T09:32:18.000Z</time>
      </trkpt>
      <trkpt lat="48.19182" lon="3.37903">
        <ele>203</ele>
        <time>2014-05-04T09:32:19.000Z</time>
      </trkpt>
      <trkpt lat="48.19181" lon="3.37896">
        <ele>203</ele>
        <time>2014-05-04T09:32:21.000Z</time>
      </trkpt>
      <trkpt lat="48.1918" lon="3.37894">
        <ele>203</ele>
        <time>2014-05-04T09:32:22.000Z</time>
      </trkpt>
      <trkpt lat="48.1918" lon="3.3789">
        <ele>203</ele>
        <time>2014-05-04T09:32:24.000Z</time>
      </trkpt>
      <trkpt lat="48.1918" lon="3.37885">
        <ele>203</ele>
        <time>2014-05-04T09:32:25.000Z</time>
      </trkpt>
      <trkpt lat="48.1918" lon="3.37881">
        <ele>203</ele>
        <time>2014-05-04T09:32:27.000Z</time>
      </trkpt>
      <trkpt lat="48.19181" lon="3.37877">
        <ele>203</ele>
        <time>2014-05-04T09:32:28.000Z</time>
      </trkpt>
      <trkpt lat="48.19184" lon="3.37875">
        <ele>204</ele>
        <time>2014-05-04T09:32:29.000Z</time>
      </trkpt>
      <trkpt lat="48.19187" lon="3.37873">
        <ele>204</ele>
        <time>2014-05-04T09:32:30.000Z</time>
      </trkpt>
      <trkpt lat="48.19191" lon="3.3787">
        <ele>204</ele>
        <time>2014-05-04T09:32:31.000Z</time>
      </trkpt>
      <trkpt lat="48.19195" lon="3.3787">
        <ele>204</ele>
        <time>2014-05-04T09:32:32.000Z</time>
      </trkpt>
      <trkpt lat="48.19199" lon="3.3787">
        <ele>204</ele>
        <time>2014-05-04T09:32:33.000Z</time>
      </trkpt>
      <trkpt lat="48.19202" lon="3.37868">
        <ele>204</ele>
        <time>2014-05-04T09:32:34.000Z</time>
      </trkpt>
      <trkpt lat="48.19204" lon="3.37868">
        <ele>204</ele>
        <time>2014-05-04T09:32:35.000Z</time>
      </trkpt>
      <trkpt lat="48.19208" lon="3.37866">
        <ele>204</ele>
        <time>2014-05-04T09:32:36.000Z</time>
      </trkpt>
      <trkpt lat="48.1921" lon="3.37866">
        <ele>204</ele>
        <time>2014-05-04T09:32:37.000Z</time>
      </trkpt>
      <trkpt lat="48.19212" lon="3.37864">
        <ele>204</ele>
        <time>2014-05-04T09:32:38.000Z</time>
      </trkpt>
      <trkpt lat="48.19215" lon="3.37864">
        <ele>204</ele>
        <time>2014-05-04T09:32:39.000Z</time>
      </trkpt>
      <trkpt lat="48.19218" lon="3.3786">
        <ele>204</ele>
        <time>2014-05-04T09:32:41.000Z</time>
      </trkpt>
      <trkpt lat="48.1922" lon="3.3786">
        <ele>204</ele>
        <time>2014-05-04T09:32:42.000Z</time>
      </trkpt>
      <trkpt lat="48.19224" lon="3.37855">
        <ele>204</ele>
        <time>2014-05-04T09:32:44.000Z</time>
      </trkpt>
      <trkpt lat="48.19226" lon="3.37855">
        <ele>204</ele>
        <time>2014-05-04T09:32:45.000Z</time>
      </trkpt>
      <trkpt lat="48.19229" lon="3.37851">
        <ele>204</ele>
        <time>2014-05-04T09:32:47.000Z</time>
      </trkpt>
      <trkpt lat="48.19231" lon="3.37851">
        <ele>204</ele>
        <time>2014-05-04T09:32:48.000Z</time>
      </trkpt>
      <trkpt lat="48.19234" lon="3.37847">
        <ele>204</ele>
        <time>2014-05-04T09:32:50.000Z</time>
      </trkpt>
      <trkpt lat="48.19237" lon="3.37845">
        <ele>204</ele>
        <time>2014-05-04T09:32:51.000Z</time>
      </trkpt>
      <trkpt lat="48.1924" lon="3.37842">
        <ele>204</ele>
        <time>2014-05-04T09:32:53.000Z</time>
      </trkpt>
      <trkpt lat="48.19241" lon="3.3784">
        <ele>204</ele>
        <time>2014-05-04T09:32:54.000Z</time>
      </trkpt>
      <trkpt lat="48.19243" lon="3.37838">
        <ele>205</ele>
        <time>2014-05-04T09:32:55.000Z</time>
      </trkpt>
      <trkpt lat="48.19245" lon="3.37836">
        <ele>205</ele>
        <time>2014-05-04T09:32:56.000Z</time>
      </trkpt>
      <trkpt lat="48.19248" lon="3.37834">
        <ele>205</ele>
        <time>2014-05-04T09:32:58.000Z</time>
      </trkpt>
      <trkpt lat="48.1925" lon="3.37832">
        <ele>205</ele>
        <time>2014-05-04T09:32:59.000Z</time>
      </trkpt>
      <trkpt lat="48.19255" lon="3.37832">
        <ele>206</ele>
        <time>2014-05-04T09:33:01.000Z</time>
      </trkpt>
      <trkpt lat="48.19257" lon="3.37832">
        <ele>206</ele>
        <time>2014-05-04T09:33:02.000Z</time>
      </trkpt>
      <trkpt lat="48.1926" lon="3.3783">
        <ele>206</ele>
        <time>2014-05-04T09:33:04.000Z</time>
      </trkpt>
      <trkpt lat="48.19262" lon="3.3783">
        <ele>206</ele>
        <time>2014-05-04T09:33:05.000Z</time>
      </trkpt>
      <trkpt lat="48.19267" lon="3.3783">
        <ele>206</ele>
        <time>2014-05-04T09:33:07.000Z</time>
      </trkpt>
      <trkpt lat="48.19269" lon="3.3783">
        <ele>207</ele>
        <time>2014-05-04T09:33:08.000Z</time>
      </trkpt>
      <trkpt lat="48.19272" lon="3.3783">
        <ele>207</ele>
        <time>2014-05-04T09:33:09.000Z</time>
      </trkpt>
      <trkpt lat="48.19274" lon="3.3783">
        <ele>207</ele>
        <time>2014-05-04T09:33:10.000Z</time>
      </trkpt>
      <trkpt lat="48.19278" lon="3.3783">
        <ele>207</ele>
        <time>2014-05-04T09:33:12.000Z</time>
      </trkpt>
      <trkpt lat="48.19282" lon="3.37832">
        <ele>207</ele>
        <time>2014-05-04T09:33:13.000Z</time>
      </trkpt>
      <trkpt lat="48.19284" lon="3.37832">
        <ele>207</ele>
        <time>2014-05-04T09:33:14.000Z</time>
      </trkpt>
      <trkpt lat="48.19287" lon="3.37832">
        <ele>207</ele>
        <time>2014-05-04T09:33:15.000Z</time>
      </trkpt>
      <trkpt lat="48.1929" lon="3.37832">
        <ele>207</ele>
        <time>2014-05-04T09:33:16.000Z</time>
      </trkpt>
      <trkpt lat="48.19293" lon="3.37832">
        <ele>207</ele>
        <time>2014-05-04T09:33:17.000Z</time>
      </trkpt>
      <trkpt lat="48.19297" lon="3.37832">
        <ele>208</ele>
        <time>2014-05-04T09:33:18.000Z</time>
      </trkpt>
      <trkpt lat="48.193" lon="3.37832">
        <ele>208</ele>
        <time>2014-05-04T09:33:19.000Z</time>
      </trkpt>
      <trkpt lat="48.19303" lon="3.37832">
        <ele>208</ele>
        <time>2014-05-04T09:33:20.000Z</time>
      </trkpt>
      <trkpt lat="48.19307" lon="3.37832">
        <ele>208</ele>
        <time>2014-05-04T09:33:21.000Z</time>
      </trkpt>
      <trkpt lat="48.19312" lon="3.37832">
        <ele>208</ele>
        <time>2014-05-04T09:33:22.000Z</time>
      </trkpt>
      <trkpt lat="48.19316" lon="3.3783">
        <ele>208</ele>
        <time>2014-05-04T09:33:23.000Z</time>
      </trkpt>
      <trkpt lat="48.1932" lon="3.3783">
        <ele>208</ele>
        <time>2014-05-04T09:33:24.000Z</time>
      </trkpt>
      <trkpt lat="48.19324" lon="3.3783">
        <ele>208</ele>
        <time>2014-05-04T09:33:25.000Z</time>
      </trkpt>
      <trkpt lat="48.19329" lon="3.3783">
        <ele>208</ele>
        <time>2014-05-04T09:33:26.000Z</time>
      </trkpt>
      <trkpt lat="48.19333" lon="3.3783">
        <ele>208</ele>
        <time>2014-05-04T09:33:27.000Z</time>
      </trkpt>
      <trkpt lat="48.19337" lon="3.3783">
        <ele>209</ele>
        <time>2014-05-04T09:33:28.000Z</time>
      </trkpt>
      <trkpt lat="48.19342" lon="3.3783">
        <ele>209</ele>
        <time>2014-05-04T09:33:29.000Z</time>
      </trkpt>
      <trkpt lat="48.19346" lon="3.3783">
        <ele>209</ele>
        <time>2014-05-04T09:33:30.000Z</time>
      </trkpt>
      <trkpt lat="48.1935" lon="3.37827">
        <ele>210</ele>
        <time>2014-05-04T09:33:31.000Z</time>
      </trkpt>
      <trkpt lat="48.19353" lon="3.37827">
        <ele>210</ele>
        <time>2014-05-04T09:33:32.000Z</time>
      </trkpt>
      <trkpt lat="48.19358" lon="3.37825">
        <ele>210</ele>
        <time>2014-05-04T09:33:33.000Z</time>
      </trkpt>
      <trkpt lat="48.19361" lon="3.37825">
        <ele>210</ele>
        <time>2014-05-04T09:33:34.000Z</time>
      </trkpt>
      <trkpt lat="48.19364" lon="3.37823">
        <ele>210</ele>
        <time>2014-05-04T09:33:35.000Z</time>
      </trkpt>
      <trkpt lat="48.19368" lon="3.37821">
        <ele>210</ele>
        <time>2014-05-04T09:33:36.000Z</time>
      </trkpt>
      <trkpt lat="48.19372" lon="3.37821">
        <ele>210</ele>
        <time>2014-05-04T09:33:37.000Z</time>
      </trkpt>
      <trkpt lat="48.19376" lon="3.37819">
        <ele>211</ele>
        <time>2014-05-04T09:33:38.000Z</time>
      </trkpt>
      <trkpt lat="48.19379" lon="3.37819">
        <ele>211</ele>
        <time>2014-05-04T09:33:39.000Z</time>
      </trkpt>
      <trkpt lat="48.19382" lon="3.37817">
        <ele>211</ele>
        <time>2014-05-04T09:33:40.000Z</time>
      </trkpt>
      <trkpt lat="48.19386" lon="3.37817">
        <ele>211</ele>
        <time>2014-05-04T09:33:41.000Z</time>
      </trkpt>
      <trkpt lat="48.19389" lon="3.37815">
        <ele>211</ele>
        <time>2014-05-04T09:33:42.000Z</time>
      </trkpt>
      <trkpt lat="48.19392" lon="3.37815">
        <ele>211</ele>
        <time>2014-05-04T09:33:43.000Z</time>
      </trkpt>
      <trkpt lat="48.19395" lon="3.37812">
        <ele>211</ele>
        <time>2014-05-04T09:33:44.000Z</time>
      </trkpt>
      <trkpt lat="48.19399" lon="3.37812">
        <ele>211</ele>
        <time>2014-05-04T09:33:45.000Z</time>
      </trkpt>
      <trkpt lat="48.19402" lon="3.37812">
        <ele>211</ele>
        <time>2014-05-04T09:33:46.000Z</time>
      </trkpt>
      <trkpt lat="48.19405" lon="3.37812">
        <ele>211</ele>
        <time>2014-05-04T09:33:47.000Z</time>
      </trkpt>
      <trkpt lat="48.19408" lon="3.37812">
        <ele>211</ele>
        <time>2014-05-04T09:33:48.000Z</time>
      </trkpt>
      <trkpt lat="48.19411" lon="3.37812">
        <ele>211</ele>
        <time>2014-05-04T09:33:49.000Z</time>
      </trkpt>
      <trkpt lat="48.19415" lon="3.3781">
        <ele>211</ele>
        <time>2014-05-04T09:33:50.000Z</time>
      </trkpt>
      <trkpt lat="48.19418" lon="3.3781">
        <ele>212</ele>
        <time>2014-05-04T09:33:51.000Z</time>
      </trkpt>
      <trkpt lat="48.19421" lon="3.3781">
        <ele>212</ele>
        <time>2014-05-04T09:33:52.000Z</time>
      </trkpt>
      <trkpt lat="48.19424" lon="3.3781">
        <ele>212</ele>
        <time>2014-05-04T09:33:53.000Z</time>
      </trkpt>
      <trkpt lat="48.19426" lon="3.37808">
        <ele>212</ele>
        <time>2014-05-04T09:33:54.000Z</time>
      </trkpt>
      <trkpt lat="48.19429" lon="3.37808">
        <ele>212</ele>
        <time>2014-05-04T09:33:55.000Z</time>
      </trkpt>
      <trkpt lat="48.19432" lon="3.37808">
        <ele>212</ele>
        <time>2014-05-04T09:33:56.000Z</time>
      </trkpt>
      <trkpt lat="48.19434" lon="3.37806">
        <ele>212</ele>
        <time>2014-05-04T09:33:57.000Z</time>
      </trkpt>
      <trkpt lat="48.19436" lon="3.37806">
        <ele>212</ele>
        <time>2014-05-04T09:33:58.000Z</time>
      </trkpt>
      <trkpt lat="48.19438" lon="3.37804">
        <ele>212</ele>
        <time>2014-05-04T09:33:59.000Z</time>
      </trkpt>
      <trkpt lat="48.1944" lon="3.37804">
        <ele>212</ele>
        <time>2014-05-04T09:34:00.000Z</time>
      </trkpt>
      <trkpt lat="48.19443" lon="3.37802">
        <ele>212</ele>
        <time>2014-05-04T09:34:01.000Z</time>
      </trkpt>
      <trkpt lat="48.19445" lon="3.37802">
        <ele>212</ele>
        <time>2014-05-04T09:34:02.000Z</time>
      </trkpt>
      <trkpt lat="48.19447" lon="3.378">
        <ele>212</ele>
        <time>2014-05-04T09:34:03.000Z</time>
      </trkpt>
      <trkpt lat="48.1945" lon="3.378">
        <ele>212</ele>
        <time>2014-05-04T09:34:04.000Z</time>
      </trkpt>
      <trkpt lat="48.19454" lon="3.378">
        <ele>212</ele>
        <time>2014-05-04T09:34:06.000Z</time>
      </trkpt>
      <trkpt lat="48.19456" lon="3.378">
        <ele>212</ele>
        <time>2014-05-04T09:34:07.000Z</time>
      </trkpt>
      <trkpt lat="48.19461" lon="3.378">
        <ele>212</ele>
        <time>2014-05-04T09:34:09.000Z</time>
      </trkpt>
      <trkpt lat="48.19463" lon="3.378">
        <ele>212</ele>
        <time>2014-05-04T09:34:10.000Z</time>
      </trkpt>
      <trkpt lat="48.19467" lon="3.378">
        <ele>212</ele>
        <time>2014-05-04T09:34:12.000Z</time>
      </trkpt>
      <trkpt lat="48.19469" lon="3.378">
        <ele>212</ele>
        <time>2014-05-04T09:34:13.000Z</time>
      </trkpt>
      <trkpt lat="48.19473" lon="3.378">
        <ele>212</ele>
        <time>2014-05-04T09:34:15.000Z</time>
      </trkpt>
      <trkpt lat="48.19475" lon="3.378">
        <ele>212</ele>
        <time>2014-05-04T09:34:16.000Z</time>
      </trkpt>
      <trkpt lat="48.19478" lon="3.37802">
        <ele>212</ele>
        <time>2014-05-04T09:34:17.000Z</time>
      </trkpt>
      <trkpt lat="48.1948" lon="3.37802">
        <ele>212</ele>
        <time>2014-05-04T09:34:18.000Z</time>
      </trkpt>
      <trkpt lat="48.19482" lon="3.37802">
        <ele>212</ele>
        <time>2014-05-04T09:34:19.000Z</time>
      </trkpt>
      <trkpt lat="48.19485" lon="3.37802">
        <ele>211</ele>
        <time>2014-05-04T09:34:20.000Z</time>
      </trkpt>
      <trkpt lat="48.1949" lon="3.37802">
        <ele>211</ele>
        <time>2014-05-04T09:34:22.000Z</time>
      </trkpt>
      <trkpt lat="48.19493" lon="3.37804">
        <ele>211</ele>
        <time>2014-05-04T09:34:23.000Z</time>
      </trkpt>
      <trkpt lat="48.19495" lon="3.37804">
        <ele>211</ele>
        <time>2014-05-04T09:34:24.000Z</time>
      </trkpt>
      <trkpt lat="48.19498" lon="3.37804">
        <ele>211</ele>
        <time>2014-05-04T09:34:25.000Z</time>
      </trkpt>
      <trkpt lat="48.19502" lon="3.37804">
        <ele>211</ele>
        <time>2014-05-04T09:34:26.000Z</time>
      </trkpt>
      <trkpt lat="48.19505" lon="3.37804">
        <ele>211</ele>
        <time>2014-05-04T09:34:27.000Z</time>
      </trkpt>
      <trkpt lat="48.19507" lon="3.37806">
        <ele>211</ele>
        <time>2014-05-04T09:34:28.000Z</time>
      </trkpt>
      <trkpt lat="48.1951" lon="3.37806">
        <ele>211</ele>
        <time>2014-05-04T09:34:29.000Z</time>
      </trkpt>
      <trkpt lat="48.19513" lon="3.37806">
        <ele>210</ele>
        <time>2014-05-04T09:34:30.000Z</time>
      </trkpt>
      <trkpt lat="48.19517" lon="3.37806">
        <ele>210</ele>
        <time>2014-05-04T09:34:31.000Z</time>
      </trkpt>
      <trkpt lat="48.19521" lon="3.37808">
        <ele>210</ele>
        <time>2014-05-04T09:34:32.000Z</time>
      </trkpt>
      <trkpt lat="48.19524" lon="3.37808">
        <ele>210</ele>
        <time>2014-05-04T09:34:33.000Z</time>
      </trkpt>
      <trkpt lat="48.19528" lon="3.3781">
        <ele>210</ele>
        <time>2014-05-04T09:34:34.000Z</time>
      </trkpt>
      <trkpt lat="48.19534" lon="3.3781">
        <ele>210</ele>
        <time>2014-05-04T09:34:35.000Z</time>
      </trkpt>
      <trkpt lat="48.19539" lon="3.37812">
        <ele>210</ele>
        <time>2014-05-04T09:34:36.000Z</time>
      </trkpt>
      <trkpt lat="48.19544" lon="3.37815">
        <ele>210</ele>
        <time>2014-05-04T09:34:37.000Z</time>
      </trkpt>
      <trkpt lat="48.1955" lon="3.37817">
        <ele>210</ele>
        <time>2014-05-04T09:34:38.000Z</time>
      </trkpt>
      <trkpt lat="48.19555" lon="3.37819">
        <ele>210</ele>
        <time>2014-05-04T09:34:39.000Z</time>
      </trkpt>
      <trkpt lat="48.19561" lon="3.37821">
        <ele>210</ele>
        <time>2014-05-04T09:34:40.000Z</time>
      </trkpt>
      <trkpt lat="48.19565" lon="3.37823">
        <ele>210</ele>
        <time>2014-05-04T09:34:41.000Z</time>
      </trkpt>
      <trkpt lat="48.1957" lon="3.37825">
        <ele>210</ele>
        <time>2014-05-04T09:34:42.000Z</time>
      </trkpt>
      <trkpt lat="48.19574" lon="3.37825">
        <ele>209</ele>
        <time>2014-05-04T09:34:43.000Z</time>
      </trkpt>
      <trkpt lat="48.19579" lon="3.37825">
        <ele>209</ele>
        <time>2014-05-04T09:34:44.000Z</time>
      </trkpt>
      <trkpt lat="48.19584" lon="3.37827">
        <ele>209</ele>
        <time>2014-05-04T09:34:45.000Z</time>
      </trkpt>
      <trkpt lat="48.19588" lon="3.37827">
        <ele>209</ele>
        <time>2014-05-04T09:34:46.000Z</time>
      </trkpt>
      <trkpt lat="48.19593" lon="3.37827">
        <ele>209</ele>
        <time>2014-05-04T09:34:47.000Z</time>
      </trkpt>
      <trkpt lat="48.19597" lon="3.3783">
        <ele>209</ele>
        <time>2014-05-04T09:34:48.000Z</time>
      </trkpt>
      <trkpt lat="48.19601" lon="3.3783">
        <ele>209</ele>
        <time>2014-05-04T09:34:49.000Z</time>
      </trkpt>
      <trkpt lat="48.19606" lon="3.37832">
        <ele>210</ele>
        <time>2014-05-04T09:34:50.000Z</time>
      </trkpt>
      <trkpt lat="48.19611" lon="3.37832">
        <ele>210</ele>
        <time>2014-05-04T09:34:51.000Z</time>
      </trkpt>
      <trkpt lat="48.19615" lon="3.37834">
        <ele>210</ele>
        <time>2014-05-04T09:34:52.000Z</time>
      </trkpt>
      <trkpt lat="48.1962" lon="3.37834">
        <ele>210</ele>
        <time>2014-05-04T09:34:53.000Z</time>
      </trkpt>
      <trkpt lat="48.19624" lon="3.37834">
        <ele>210</ele>
        <time>2014-05-04T09:34:54.000Z</time>
      </trkpt>
      <trkpt lat="48.19629" lon="3.37836">
        <ele>210</ele>
        <time>2014-05-04T09:34:55.000Z</time>
      </trkpt>
      <trkpt lat="48.19633" lon="3.37836">
        <ele>210</ele>
        <time>2014-05-04T09:34:56.000Z</time>
      </trkpt>
      <trkpt lat="48.19637" lon="3.37838">
        <ele>210</ele>
        <time>2014-05-04T09:34:57.000Z</time>
      </trkpt>
      <trkpt lat="48.19641" lon="3.37838">
        <ele>210</ele>
        <time>2014-05-04T09:34:58.000Z</time>
      </trkpt>
      <trkpt lat="48.19644" lon="3.3784">
        <ele>210</ele>
        <time>2014-05-04T09:34:59.000Z</time>
      </trkpt>
      <trkpt lat="48.19649" lon="3.37842">
        <ele>210</ele>
        <time>2014-05-04T09:35:00.000Z</time>
      </trkpt>
      <trkpt lat="48.19651" lon="3.37845">
        <ele>210</ele>
        <time>2014-05-04T09:35:01.000Z</time>
      </trkpt>
      <trkpt lat="48.19654" lon="3.37847">
        <ele>210</ele>
        <time>2014-05-04T09:35:02.000Z</time>
      </trkpt>
      <trkpt lat="48.19657" lon="3.37849">
        <ele>210</ele>
        <time>2014-05-04T09:35:03.000Z</time>
      </trkpt>
      <trkpt lat="48.19659" lon="3.37853">
        <ele>210</ele>
        <time>2014-05-04T09:35:04.000Z</time>
      </trkpt>
      <trkpt lat="48.19662" lon="3.37855">
        <ele>210</ele>
        <time>2014-05-04T09:35:05.000Z</time>
      </trkpt>
      <trkpt lat="48.19665" lon="3.37857">
        <ele>210</ele>
        <time>2014-05-04T09:35:06.000Z</time>
      </trkpt>
      <trkpt lat="48.19668" lon="3.3786">
        <ele>211</ele>
        <time>2014-05-04T09:35:07.000Z</time>
      </trkpt>
      <trkpt lat="48.19671" lon="3.37862">
        <ele>211</ele>
        <time>2014-05-04T09:35:08.000Z</time>
      </trkpt>
      <trkpt lat="48.19674" lon="3.37864">
        <ele>211</ele>
        <time>2014-05-04T09:35:09.000Z</time>
      </trkpt>
      <trkpt lat="48.19677" lon="3.37866">
        <ele>211</ele>
        <time>2014-05-04T09:35:10.000Z</time>
      </trkpt>
      <trkpt lat="48.19681" lon="3.37868">
        <ele>211</ele>
        <time>2014-05-04T09:35:11.000Z</time>
      </trkpt>
      <trkpt lat="48.19685" lon="3.3787">
        <ele>211</ele>
        <time>2014-05-04T09:35:12.000Z</time>
      </trkpt>
      <trkpt lat="48.19688" lon="3.37873">
        <ele>211</ele>
        <time>2014-05-04T09:35:13.000Z</time>
      </trkpt>
      <trkpt lat="48.19692" lon="3.37873">
        <ele>211</ele>
        <time>2014-05-04T09:35:14.000Z</time>
      </trkpt>
      <trkpt lat="48.19696" lon="3.37875">
        <ele>211</ele>
        <time>2014-05-04T09:35:15.000Z</time>
      </trkpt>
      <trkpt lat="48.197" lon="3.37877">
        <ele>211</ele>
        <time>2014-05-04T09:35:16.000Z</time>
      </trkpt>
      <trkpt lat="48.19704" lon="3.37879">
        <ele>211</ele>
        <time>2014-05-04T09:35:17.000Z</time>
      </trkpt>
      <trkpt lat="48.19709" lon="3.37881">
        <ele>211</ele>
        <time>2014-05-04T09:35:18.000Z</time>
      </trkpt>
      <trkpt lat="48.19712" lon="3.37883">
        <ele>211</ele>
        <time>2014-05-04T09:35:19.000Z</time>
      </trkpt>
      <trkpt lat="48.19717" lon="3.37885">
        <ele>211</ele>
        <time>2014-05-04T09:35:20.000Z</time>
      </trkpt>
      <trkpt lat="48.19723" lon="3.37888">
        <ele>211</ele>
        <time>2014-05-04T09:35:21.000Z</time>
      </trkpt>
      <trkpt lat="48.19727" lon="3.3789">
        <ele>211</ele>
        <time>2014-05-04T09:35:22.000Z</time>
      </trkpt>
      <trkpt lat="48.19732" lon="3.37892">
        <ele>211</ele>
        <time>2014-05-04T09:35:23.000Z</time>
      </trkpt>
      <trkpt lat="48.19736" lon="3.37894">
        <ele>211</ele>
        <time>2014-05-04T09:35:24.000Z</time>
      </trkpt>
      <trkpt lat="48.19741" lon="3.37894">
        <ele>211</ele>
        <time>2014-05-04T09:35:25.000Z</time>
      </trkpt>
      <trkpt lat="48.19744" lon="3.37896">
        <ele>211</ele>
        <time>2014-05-04T09:35:26.000Z</time>
      </trkpt>
      <trkpt lat="48.19748" lon="3.37898">
        <ele>211</ele>
        <time>2014-05-04T09:35:27.000Z</time>
      </trkpt>
      <trkpt lat="48.19752" lon="3.379">
        <ele>210</ele>
        <time>2014-05-04T09:35:28.000Z</time>
      </trkpt>
      <trkpt lat="48.19755" lon="3.37903">
        <ele>210</ele>
        <time>2014-05-04T09:35:29.000Z</time>
      </trkpt>
      <trkpt lat="48.19758" lon="3.37903">
        <ele>210</ele>
        <time>2014-05-04T09:35:30.000Z</time>
      </trkpt>
      <trkpt lat="48.19761" lon="3.37905">
        <ele>210</ele>
        <time>2014-05-04T09:35:31.000Z</time>
      </trkpt>
      <trkpt lat="48.19764" lon="3.37907">
        <ele>210</ele>
        <time>2014-05-04T09:35:36.000Z</time>
      </trkpt>
      <trkpt lat="48.19774" lon="3.37911">
        <ele>210</ele>
        <time>2014-05-04T09:35:37.000Z</time>
      </trkpt>
      <trkpt lat="48.19774" lon="3.37911">
        <ele>210</ele>
        <time>2014-05-04T09:35:40.000Z</time>
      </trkpt>
      <trkpt lat="48.19785" lon="3.37911">
        <ele>210</ele>
        <time>2014-05-04T09:35:41.000Z</time>
      </trkpt>
      <trkpt lat="48.19785" lon="3.37911">
        <ele>210</ele>
        <time>2014-05-04T09:35:43.000Z</time>
      </trkpt>
      <trkpt lat="48.19794" lon="3.37913">
        <ele>209</ele>
        <time>2014-05-04T09:35:44.000Z</time>
      </trkpt>
      <trkpt lat="48.19794" lon="3.37913">
        <ele>209</ele>
        <time>2014-05-04T09:35:47.000Z</time>
      </trkpt>
      <trkpt lat="48.19804" lon="3.37913">
        <ele>209</ele>
        <time>2014-05-04T09:35:48.000Z</time>
      </trkpt>
      <trkpt lat="48.19804" lon="3.37913">
        <ele>209</ele>
        <time>2014-05-04T09:35:51.000Z</time>
      </trkpt>
      <trkpt lat="48.19815" lon="3.37915">
        <ele>209</ele>
        <time>2014-05-04T09:35:52.000Z</time>
      </trkpt>
      <trkpt lat="48.19818" lon="3.37915">
        <ele>209</ele>
        <time>2014-05-04T09:35:53.000Z</time>
      </trkpt>
      <trkpt lat="48.19821" lon="3.37915">
        <ele>209</ele>
        <time>2014-05-04T09:35:54.000Z</time>
      </trkpt>
      <trkpt lat="48.19824" lon="3.37918">
        <ele>208</ele>
        <time>2014-05-04T09:35:55.000Z</time>
      </trkpt>
      <trkpt lat="48.19827" lon="3.37918">
        <ele>208</ele>
        <time>2014-05-04T09:35:56.000Z</time>
      </trkpt>
      <trkpt lat="48.19827" lon="3.37918">
        <ele>208</ele>
        <time>2014-05-04T09:36:00.000Z</time>
      </trkpt>
      <trkpt lat="48.19836" lon="3.37918">
        <ele>208</ele>
        <time>2014-05-04T09:36:01.000Z</time>
      </trkpt>
      <trkpt lat="48.19836" lon="3.37918">
        <ele>208</ele>
        <time>2014-05-04T09:36:04.000Z</time>
      </trkpt>
      <trkpt lat="48.19846" lon="3.3792">
        <ele>207</ele>
        <time>2014-05-04T09:36:05.000Z</time>
      </trkpt>
      <trkpt lat="48.19846" lon="3.3792">
        <ele>207</ele>
        <time>2014-05-04T09:36:07.000Z</time>
      </trkpt>
      <trkpt lat="48.19853" lon="3.37907">
        <ele>207</ele>
        <time>2014-05-04T09:36:08.000Z</time>
      </trkpt>
      <trkpt lat="48.19853" lon="3.37907">
        <ele>207</ele>
        <time>2014-05-04T09:36:10.000Z</time>
      </trkpt>
      <trkpt lat="48.19857" lon="3.37894">
        <ele>206</ele>
        <time>2014-05-04T09:36:11.000Z</time>
      </trkpt>
      <trkpt lat="48.19857" lon="3.37894">
        <ele>206</ele>
        <time>2014-05-04T09:36:12.000Z</time>
      </trkpt>
      <trkpt lat="48.19857" lon="3.37885">
        <ele>206</ele>
        <time>2014-05-04T09:36:13.000Z</time>
      </trkpt>
      <trkpt lat="48.19857" lon="3.37885">
        <ele>206</ele>
        <time>2014-05-04T09:36:14.000Z</time>
      </trkpt>
      <trkpt lat="48.19858" lon="3.37877">
        <ele>206</ele>
        <time>2014-05-04T09:36:15.000Z</time>
      </trkpt>
      <trkpt lat="48.19858" lon="3.37873">
        <ele>206</ele>
        <time>2014-05-04T09:36:16.000Z</time>
      </trkpt>
      <trkpt lat="48.19859" lon="3.37868">
        <ele>206</ele>
        <time>2014-05-04T09:36:17.000Z</time>
      </trkpt>
      <trkpt lat="48.1986" lon="3.37862">
        <ele>206</ele>
        <time>2014-05-04T09:36:18.000Z</time>
      </trkpt>
      <trkpt lat="48.19861" lon="3.37857">
        <ele>206</ele>
        <time>2014-05-04T09:36:19.000Z</time>
      </trkpt>
      <trkpt lat="48.19861" lon="3.37853">
        <ele>206</ele>
        <time>2014-05-04T09:36:20.000Z</time>
      </trkpt>
      <trkpt lat="48.19862" lon="3.37849">
        <ele>206</ele>
        <time>2014-05-04T09:36:21.000Z</time>
      </trkpt>
      <trkpt lat="48.19863" lon="3.37842">
        <ele>207</ele>
        <time>2014-05-04T09:36:22.000Z</time>
      </trkpt>
      <trkpt lat="48.19864" lon="3.37838">
        <ele>207</ele>
        <time>2014-05-04T09:36:23.000Z</time>
      </trkpt>
      <trkpt lat="48.19864" lon="3.37832">
        <ele>207</ele>
        <time>2014-05-04T09:36:24.000Z</time>
      </trkpt>
      <trkpt lat="48.19865" lon="3.37825">
        <ele>207</ele>
        <time>2014-05-04T09:36:25.000Z</time>
      </trkpt>
      <trkpt lat="48.19866" lon="3.37819">
        <ele>207</ele>
        <time>2014-05-04T09:36:26.000Z</time>
      </trkpt>
      <trkpt lat="48.19866" lon="3.37815">
        <ele>207</ele>
        <time>2014-05-04T09:36:27.000Z</time>
      </trkpt>
      <trkpt lat="48.19867" lon="3.37808">
        <ele>207</ele>
        <time>2014-05-04T09:36:28.000Z</time>
      </trkpt>
      <trkpt lat="48.19868" lon="3.37802">
        <ele>207</ele>
        <time>2014-05-04T09:36:29.000Z</time>
      </trkpt>
      <trkpt lat="48.1987" lon="3.37795">
        <ele>207</ele>
        <time>2014-05-04T09:36:30.000Z</time>
      </trkpt>
      <trkpt lat="48.19871" lon="3.37791">
        <ele>207</ele>
        <time>2014-05-04T09:36:31.000Z</time>
      </trkpt>
      <trkpt lat="48.19872" lon="3.37785">
        <ele>207</ele>
        <time>2014-05-04T09:36:32.000Z</time>
      </trkpt>
      <trkpt lat="48.19872" lon="3.37778">
        <ele>207</ele>
        <time>2014-05-04T09:36:33.000Z</time>
      </trkpt>
      <trkpt lat="48.19873" lon="3.37774">
        <ele>207</ele>
        <time>2014-05-04T09:36:34.000Z</time>
      </trkpt>
      <trkpt lat="48.19874" lon="3.37767">
        <ele>207</ele>
        <time>2014-05-04T09:36:35.000Z</time>
      </trkpt>
      <trkpt lat="48.19874" lon="3.37763">
        <ele>207</ele>
        <time>2014-05-04T09:36:36.000Z</time>
      </trkpt>
      <trkpt lat="48.19875" lon="3.37759">
        <ele>207</ele>
        <time>2014-05-04T09:36:37.000Z</time>
      </trkpt>
      <trkpt lat="48.19876" lon="3.37752">
        <ele>207</ele>
        <time>2014-05-04T09:36:38.000Z</time>
      </trkpt>
      <trkpt lat="48.19876" lon="3.37748">
        <ele>208</ele>
        <time>2014-05-04T09:36:39.000Z</time>
      </trkpt>
      <trkpt lat="48.19877" lon="3.37742">
        <ele>208</ele>
        <time>2014-05-04T09:36:40.000Z</time>
      </trkpt>
      <trkpt lat="48.19878" lon="3.37737">
        <ele>208</ele>
        <time>2014-05-04T09:36:41.000Z</time>
      </trkpt>
      <trkpt lat="48.19878" lon="3.37733">
        <ele>208</ele>
        <time>2014-05-04T09:36:42.000Z</time>
      </trkpt>
      <trkpt lat="48.19878" lon="3.37727">
        <ele>208</ele>
        <time>2014-05-04T09:36:43.000Z</time>
      </trkpt>
      <trkpt lat="48.19879" lon="3.37722">
        <ele>208</ele>
        <time>2014-05-04T09:36:44.000Z</time>
      </trkpt>
      <trkpt lat="48.19879" lon="3.37718">
        <ele>208</ele>
        <time>2014-05-04T09:36:45.000Z</time>
      </trkpt>
      <trkpt lat="48.19879" lon="3.37714">
        <ele>208</ele>
        <time>2014-05-04T09:36:46.000Z</time>
      </trkpt>
      <trkpt lat="48.19879" lon="3.37709">
        <ele>208</ele>
        <time>2014-05-04T09:36:47.000Z</time>
      </trkpt>
      <trkpt lat="48.19879" lon="3.37703">
        <ele>209</ele>
        <time>2014-05-04T09:36:48.000Z</time>
      </trkpt>
      <trkpt lat="48.1988" lon="3.37699">
        <ele>209</ele>
        <time>2014-05-04T09:36:49.000Z</time>
      </trkpt>
      <trkpt lat="48.1988" lon="3.37692">
        <ele>209</ele>
        <time>2014-05-04T09:36:50.000Z</time>
      </trkpt>
      <trkpt lat="48.19881" lon="3.37686">
        <ele>209</ele>
        <time>2014-05-04T09:36:51.000Z</time>
      </trkpt>
      <trkpt lat="48.19881" lon="3.37682">
        <ele>209</ele>
        <time>2014-05-04T09:36:52.000Z</time>
      </trkpt>
      <trkpt lat="48.19881" lon="3.37675">
        <ele>209</ele>
        <time>2014-05-04T09:36:53.000Z</time>
      </trkpt>
      <trkpt lat="48.19882" lon="3.37669">
        <ele>209</ele>
        <time>2014-05-04T09:36:54.000Z</time>
      </trkpt>
      <trkpt lat="48.19882" lon="3.37664">
        <ele>210</ele>
        <time>2014-05-04T09:36:55.000Z</time>
      </trkpt>
      <trkpt lat="48.19882" lon="3.37658">
        <ele>210</ele>
        <time>2014-05-04T09:36:56.000Z</time>
      </trkpt>
      <trkpt lat="48.19883" lon="3.37654">
        <ele>210</ele>
        <time>2014-05-04T09:36:57.000Z</time>
      </trkpt>
      <trkpt lat="48.19883" lon="3.37647">
        <ele>210</ele>
        <time>2014-05-04T09:36:58.000Z</time>
      </trkpt>
      <trkpt lat="48.19885" lon="3.37643">
        <ele>210</ele>
        <time>2014-05-04T09:36:59.000Z</time>
      </trkpt>
      <trkpt lat="48.19885" lon="3.37636">
        <ele>210</ele>
        <time>2014-05-04T09:37:00.000Z</time>
      </trkpt>
      <trkpt lat="48.19886" lon="3.37632">
        <ele>210</ele>
        <time>2014-05-04T09:37:01.000Z</time>
      </trkpt>
      <trkpt lat="48.19886" lon="3.37626">
        <ele>210</ele>
        <time>2014-05-04T09:37:02.000Z</time>
      </trkpt>
      <trkpt lat="48.19887" lon="3.37619">
        <ele>210</ele>
        <time>2014-05-04T09:37:03.000Z</time>
      </trkpt>
      <trkpt lat="48.19888" lon="3.37615">
        <ele>210</ele>
        <time>2014-05-04T09:37:04.000Z</time>
      </trkpt>
      <trkpt lat="48.19889" lon="3.37609">
        <ele>210</ele>
        <time>2014-05-04T09:37:05.000Z</time>
      </trkpt>
      <trkpt lat="48.19889" lon="3.37604">
        <ele>211</ele>
        <time>2014-05-04T09:37:06.000Z</time>
      </trkpt>
      <trkpt lat="48.1989" lon="3.37598">
        <ele>211</ele>
        <time>2014-05-04T09:37:07.000Z</time>
      </trkpt>
      <trkpt lat="48.1989" lon="3.37594">
        <ele>211</ele>
        <time>2014-05-04T09:37:08.000Z</time>
      </trkpt>
      <trkpt lat="48.1989" lon="3.37589">
        <ele>211</ele>
        <time>2014-05-04T09:37:09.000Z</time>
      </trkpt>
      <trkpt lat="48.1989" lon="3.37583">
        <ele>212</ele>
        <time>2014-05-04T09:37:10.000Z</time>
      </trkpt>
      <trkpt lat="48.19891" lon="3.37579">
        <ele>212</ele>
        <time>2014-05-04T09:37:11.000Z</time>
      </trkpt>
      <trkpt lat="48.19891" lon="3.37574">
        <ele>212</ele>
        <time>2014-05-04T09:37:12.000Z</time>
      </trkpt>
      <trkpt lat="48.19891" lon="3.37568">
        <ele>212</ele>
        <time>2014-05-04T09:37:13.000Z</time>
      </trkpt>
      <trkpt lat="48.19891" lon="3.37564">
        <ele>212</ele>
        <time>2014-05-04T09:37:14.000Z</time>
      </trkpt>
      <trkpt lat="48.19892" lon="3.37557">
        <ele>212</ele>
        <time>2014-05-04T09:37:15.000Z</time>
      </trkpt>
      <trkpt lat="48.19892" lon="3.37553">
        <ele>212</ele>
        <time>2014-05-04T09:37:16.000Z</time>
      </trkpt>
      <trkpt lat="48.19892" lon="3.37548">
        <ele>212</ele>
        <time>2014-05-04T09:37:17.000Z</time>
      </trkpt>
      <trkpt lat="48.19892" lon="3.37542">
        <ele>212</ele>
        <time>2014-05-04T09:37:18.000Z</time>
      </trkpt>
      <trkpt lat="48.19893" lon="3.37536">
        <ele>212</ele>
        <time>2014-05-04T09:37:19.000Z</time>
      </trkpt>
      <trkpt lat="48.19893" lon="3.37531">
        <ele>212</ele>
        <time>2014-05-04T09:37:20.000Z</time>
      </trkpt>
      <trkpt lat="48.19894" lon="3.37525">
        <ele>212</ele>
        <time>2014-05-04T09:37:21.000Z</time>
      </trkpt>
      <trkpt lat="48.19894" lon="3.37521">
        <ele>212</ele>
        <time>2014-05-04T09:37:22.000Z</time>
      </trkpt>
      <trkpt lat="48.19894" lon="3.37514">
        <ele>212</ele>
        <time>2014-05-04T09:37:23.000Z</time>
      </trkpt>
      <trkpt lat="48.19895" lon="3.3751">
        <ele>212</ele>
        <time>2014-05-04T09:37:24.000Z</time>
      </trkpt>
      <trkpt lat="48.19895" lon="3.37503">
        <ele>212</ele>
        <time>2014-05-04T09:37:25.000Z</time>
      </trkpt>
      <trkpt lat="48.19895" lon="3.37499">
        <ele>213</ele>
        <time>2014-05-04T09:37:26.000Z</time>
      </trkpt>
      <trkpt lat="48.19896" lon="3.37493">
        <ele>213</ele>
        <time>2014-05-04T09:37:27.000Z</time>
      </trkpt>
      <trkpt lat="48.19896" lon="3.37488">
        <ele>213</ele>
        <time>2014-05-04T09:37:28.000Z</time>
      </trkpt>
      <trkpt lat="48.19896" lon="3.37482">
        <ele>213</ele>
        <time>2014-05-04T09:37:29.000Z</time>
      </trkpt>
      <trkpt lat="48.19897" lon="3.37478">
        <ele>213</ele>
        <time>2014-05-04T09:37:30.000Z</time>
      </trkpt>
      <trkpt lat="48.19897" lon="3.37471">
        <ele>213</ele>
        <time>2014-05-04T09:37:31.000Z</time>
      </trkpt>
      <trkpt lat="48.19897" lon="3.37467">
        <ele>213</ele>
        <time>2014-05-04T09:37:32.000Z</time>
      </trkpt>
      <trkpt lat="48.19898" lon="3.37461">
        <ele>213</ele>
        <time>2014-05-04T09:37:33.000Z</time>
      </trkpt>
      <trkpt lat="48.19898" lon="3.37456">
        <ele>213</ele>
        <time>2014-05-04T09:37:34.000Z</time>
      </trkpt>
      <trkpt lat="48.19898" lon="3.3745">
        <ele>213</ele>
        <time>2014-05-04T09:37:35.000Z</time>
      </trkpt>
      <trkpt lat="48.199" lon="3.37445">
        <ele>213</ele>
        <time>2014-05-04T09:37:36.000Z</time>
      </trkpt>
      <trkpt lat="48.199" lon="3.37441">
        <ele>213</ele>
        <time>2014-05-04T09:37:37.000Z</time>
      </trkpt>
      <trkpt lat="48.199" lon="3.37435">
        <ele>214</ele>
        <time>2014-05-04T09:37:38.000Z</time>
      </trkpt>
      <trkpt lat="48.19901" lon="3.3743">
        <ele>214</ele>
        <time>2014-05-04T09:37:39.000Z</time>
      </trkpt>
      <trkpt lat="48.19901" lon="3.37426">
        <ele>214</ele>
        <time>2014-05-04T09:37:40.000Z</time>
      </trkpt>
      <trkpt lat="48.19901" lon="3.3742">
        <ele>214</ele>
        <time>2014-05-04T09:37:41.000Z</time>
      </trkpt>
      <trkpt lat="48.19901" lon="3.37415">
        <ele>214</ele>
        <time>2014-05-04T09:37:42.000Z</time>
      </trkpt>
      <trkpt lat="48.19902" lon="3.37409">
        <ele>214</ele>
        <time>2014-05-04T09:37:43.000Z</time>
      </trkpt>
      <trkpt lat="48.19902" lon="3.37405">
        <ele>214</ele>
        <time>2014-05-04T09:37:44.000Z</time>
      </trkpt>
      <trkpt lat="48.19903" lon="3.37398">
        <ele>214</ele>
        <time>2014-05-04T09:37:45.000Z</time>
      </trkpt>
      <trkpt lat="48.19903" lon="3.37394">
        <ele>214</ele>
        <time>2014-05-04T09:37:46.000Z</time>
      </trkpt>
      <trkpt lat="48.19903" lon="3.37388">
        <ele>214</ele>
        <time>2014-05-04T09:37:47.000Z</time>
      </trkpt>
      <trkpt lat="48.19904" lon="3.37381">
        <ele>214</ele>
        <time>2014-05-04T09:37:48.000Z</time>
      </trkpt>
      <trkpt lat="48.19904" lon="3.37377">
        <ele>214</ele>
        <time>2014-05-04T09:37:49.000Z</time>
      </trkpt>
      <trkpt lat="48.19904" lon="3.3737">
        <ele>214</ele>
        <time>2014-05-04T09:37:50.000Z</time>
      </trkpt>
      <trkpt lat="48.19905" lon="3.37364">
        <ele>214</ele>
        <time>2014-05-04T09:37:51.000Z</time>
      </trkpt>
      <trkpt lat="48.19905" lon="3.3736">
        <ele>214</ele>
        <time>2014-05-04T09:37:52.000Z</time>
      </trkpt>
      <trkpt lat="48.19906" lon="3.37353">
        <ele>214</ele>
        <time>2014-05-04T09:37:53.000Z</time>
      </trkpt>
      <trkpt lat="48.19906" lon="3.37349">
        <ele>214</ele>
        <time>2014-05-04T09:37:54.000Z</time>
      </trkpt>
      <trkpt lat="48.19906" lon="3.37345">
        <ele>214</ele>
        <time>2014-05-04T09:37:55.000Z</time>
      </trkpt>
      <trkpt lat="48.19907" lon="3.37338">
        <ele>215</ele>
        <time>2014-05-04T09:37:56.000Z</time>
      </trkpt>
      <trkpt lat="48.19907" lon="3.37334">
        <ele>215</ele>
        <time>2014-05-04T09:37:57.000Z</time>
      </trkpt>
      <trkpt lat="48.19908" lon="3.37327">
        <ele>215</ele>
        <time>2014-05-04T09:37:58.000Z</time>
      </trkpt>
      <trkpt lat="48.19908" lon="3.37323">
        <ele>214</ele>
        <time>2014-05-04T09:37:59.000Z</time>
      </trkpt>
      <trkpt lat="48.19909" lon="3.37319">
        <ele>214</ele>
        <time>2014-05-04T09:38:00.000Z</time>
      </trkpt>
      <trkpt lat="48.19909" lon="3.37312">
        <ele>214</ele>
        <time>2014-05-04T09:38:01.000Z</time>
      </trkpt>
      <trkpt lat="48.1991" lon="3.37306">
        <ele>214</ele>
        <time>2014-05-04T09:38:03.000Z</time>
      </trkpt>
      <trkpt lat="48.1991" lon="3.37302">
        <ele>214</ele>
        <time>2014-05-04T09:38:04.000Z</time>
      </trkpt>
      <trkpt lat="48.1991" lon="3.37297">
        <ele>214</ele>
        <time>2014-05-04T09:38:05.000Z</time>
      </trkpt>
      <trkpt lat="48.1991" lon="3.37293">
        <ele>214</ele>
        <time>2014-05-04T09:38:06.000Z</time>
      </trkpt>
      <trkpt lat="48.1991" lon="3.37289">
        <ele>214</ele>
        <time>2014-05-04T09:38:07.000Z</time>
      </trkpt>
      <trkpt lat="48.1991" lon="3.37285">
        <ele>214</ele>
        <time>2014-05-04T09:38:08.000Z</time>
      </trkpt>
      <trkpt lat="48.1991" lon="3.3728">
        <ele>214</ele>
        <time>2014-05-04T09:38:09.000Z</time>
      </trkpt>
      <trkpt lat="48.1991" lon="3.37276">
        <ele>214</ele>
        <time>2014-05-04T09:38:10.000Z</time>
      </trkpt>
      <trkpt lat="48.19911" lon="3.37272">
        <ele>214</ele>
        <time>2014-05-04T09:38:11.000Z</time>
      </trkpt>
      <trkpt lat="48.19911" lon="3.37267">
        <ele>214</ele>
        <time>2014-05-04T09:38:12.000Z</time>
      </trkpt>
      <trkpt lat="48.19911" lon="3.37263">
        <ele>214</ele>
        <time>2014-05-04T09:38:13.000Z</time>
      </trkpt>
      <trkpt lat="48.19912" lon="3.37257">
        <ele>214</ele>
        <time>2014-05-04T09:38:14.000Z</time>
      </trkpt>
      <trkpt lat="48.19912" lon="3.37252">
        <ele>214</ele>
        <time>2014-05-04T09:38:15.000Z</time>
      </trkpt>
      <trkpt lat="48.19914" lon="3.37246">
        <ele>214</ele>
        <time>2014-05-04T09:38:16.000Z</time>
      </trkpt>
      <trkpt lat="48.19914" lon="3.3724">
        <ele>214</ele>
        <time>2014-05-04T09:38:17.000Z</time>
      </trkpt>
      <trkpt lat="48.19915" lon="3.37235">
        <ele>214</ele>
        <time>2014-05-04T09:38:18.000Z</time>
      </trkpt>
      <trkpt lat="48.19915" lon="3.37229">
        <ele>214</ele>
        <time>2014-05-04T09:38:19.000Z</time>
      </trkpt>
      <trkpt lat="48.19916" lon="3.37222">
        <ele>214</ele>
        <time>2014-05-04T09:38:20.000Z</time>
      </trkpt>
      <trkpt lat="48.19916" lon="3.37218">
        <ele>214</ele>
        <time>2014-05-04T09:38:21.000Z</time>
      </trkpt>
      <trkpt lat="48.19916" lon="3.37212">
        <ele>214</ele>
        <time>2014-05-04T09:38:22.000Z</time>
      </trkpt>
      <trkpt lat="48.19917" lon="3.37207">
        <ele>214</ele>
        <time>2014-05-04T09:38:23.000Z</time>
      </trkpt>
      <trkpt lat="48.19917" lon="3.37201">
        <ele>214</ele>
        <time>2014-05-04T09:38:24.000Z</time>
      </trkpt>
      <trkpt lat="48.19918" lon="3.37194">
        <ele>214</ele>
        <time>2014-05-04T09:38:25.000Z</time>
      </trkpt>
      <trkpt lat="48.19918" lon="3.37188">
        <ele>214</ele>
        <time>2014-05-04T09:38:26.000Z</time>
      </trkpt>
      <trkpt lat="48.19919" lon="3.37179">
        <ele>214</ele>
        <time>2014-05-04T09:38:27.000Z</time>
      </trkpt>
      <trkpt lat="48.19919" lon="3.37173">
        <ele>214</ele>
        <time>2014-05-04T09:38:28.000Z</time>
      </trkpt>
      <trkpt lat="48.1992" lon="3.37167">
        <ele>214</ele>
        <time>2014-05-04T09:38:29.000Z</time>
      </trkpt>
      <trkpt lat="48.1992" lon="3.3716">
        <ele>213</ele>
        <time>2014-05-04T09:38:30.000Z</time>
      </trkpt>
      <trkpt lat="48.1992" lon="3.37154">
        <ele>213</ele>
        <time>2014-05-04T09:38:31.000Z</time>
      </trkpt>
      <trkpt lat="48.19921" lon="3.37147">
        <ele>213</ele>
        <time>2014-05-04T09:38:32.000Z</time>
      </trkpt>
      <trkpt lat="48.19921" lon="3.37141">
        <ele>213</ele>
        <time>2014-05-04T09:38:33.000Z</time>
      </trkpt>
      <trkpt lat="48.19921" lon="3.37134">
        <ele>213</ele>
        <time>2014-05-04T09:38:34.000Z</time>
      </trkpt>
      <trkpt lat="48.19922" lon="3.37128">
        <ele>212</ele>
        <time>2014-05-04T09:38:35.000Z</time>
      </trkpt>
      <trkpt lat="48.19922" lon="3.37119">
        <ele>212</ele>
        <time>2014-05-04T09:38:36.000Z</time>
      </trkpt>
      <trkpt lat="48.19923" lon="3.37113">
        <ele>212</ele>
        <time>2014-05-04T09:38:37.000Z</time>
      </trkpt>
      <trkpt lat="48.19923" lon="3.37106">
        <ele>212</ele>
        <time>2014-05-04T09:38:38.000Z</time>
      </trkpt>
      <trkpt lat="48.19924" lon="3.371">
        <ele>212</ele>
        <time>2014-05-04T09:38:39.000Z</time>
      </trkpt>
      <trkpt lat="48.19924" lon="3.37091">
        <ele>212</ele>
        <time>2014-05-04T09:38:40.000Z</time>
      </trkpt>
      <trkpt lat="48.19925" lon="3.37085">
        <ele>212</ele>
        <time>2014-05-04T09:38:41.000Z</time>
      </trkpt>
      <trkpt lat="48.19925" lon="3.37079">
        <ele>211</ele>
        <time>2014-05-04T09:38:42.000Z</time>
      </trkpt>
      <trkpt lat="48.19926" lon="3.3707">
        <ele>211</ele>
        <time>2014-05-04T09:38:43.000Z</time>
      </trkpt>
      <trkpt lat="48.19926" lon="3.37064">
        <ele>211</ele>
        <time>2014-05-04T09:38:44.000Z</time>
      </trkpt>
      <trkpt lat="48.19927" lon="3.37057">
        <ele>211</ele>
        <time>2014-05-04T09:38:45.000Z</time>
      </trkpt>
      <trkpt lat="48.19929" lon="3.37051">
        <ele>210</ele>
        <time>2014-05-04T09:38:46.000Z</time>
      </trkpt>
      <trkpt lat="48.19931" lon="3.37044">
        <ele>210</ele>
        <time>2014-05-04T09:38:47.000Z</time>
      </trkpt>
      <trkpt lat="48.19933" lon="3.37038">
        <ele>210</ele>
        <time>2014-05-04T09:38:48.000Z</time>
      </trkpt>
      <trkpt lat="48.19936" lon="3.37034">
        <ele>210</ele>
        <time>2014-05-04T09:38:49.000Z</time>
      </trkpt>
      <trkpt lat="48.19938" lon="3.37034">
        <ele>210</ele>
        <time>2014-05-04T09:38:50.000Z</time>
      </trkpt>
      <trkpt lat="48.19938" lon="3.37034">
        <ele>210</ele>
        <time>2014-05-04T09:38:51.000Z</time>
      </trkpt>
      <trkpt lat="48.19942" lon="3.37036">
        <ele>210</ele>
        <time>2014-05-04T09:38:52.000Z</time>
      </trkpt>
      <trkpt lat="48.19942" lon="3.37036">
        <ele>210</ele>
        <time>2014-05-04T09:38:53.000Z</time>
      </trkpt>
      <trkpt lat="48.19947" lon="3.37038">
        <ele>210</ele>
        <time>2014-05-04T09:38:54.000Z</time>
      </trkpt>
      <trkpt lat="48.19947" lon="3.37038">
        <ele>210</ele>
        <time>2014-05-04T09:38:55.000Z</time>
      </trkpt>
      <trkpt lat="48.19951" lon="3.37042">
        <ele>210</ele>
        <time>2014-05-04T09:38:56.000Z</time>
      </trkpt>
      <trkpt lat="48.19951" lon="3.37042">
        <ele>210</ele>
        <time>2014-05-04T09:38:57.000Z</time>
      </trkpt>
      <trkpt lat="48.19955" lon="3.37044">
        <ele>210</ele>
        <time>2014-05-04T09:38:58.000Z</time>
      </trkpt>
      <trkpt lat="48.19955" lon="3.37044">
        <ele>210</ele>
        <time>2014-05-04T09:39:00.000Z</time>
      </trkpt>
      <trkpt lat="48.19962" lon="3.37046">
        <ele>210</ele>
        <time>2014-05-04T09:39:01.000Z</time>
      </trkpt>
      <trkpt lat="48.19962" lon="3.37046">
        <ele>210</ele>
        <time>2014-05-04T09:39:03.000Z</time>
      </trkpt>
      <trkpt lat="48.19967" lon="3.37049">
        <ele>210</ele>
        <time>2014-05-04T09:39:04.000Z</time>
      </trkpt>
      <trkpt lat="48.19967" lon="3.37049">
        <ele>210</ele>
        <time>2014-05-04T09:39:05.000Z</time>
      </trkpt>
      <trkpt lat="48.19973" lon="3.37051">
        <ele>210</ele>
        <time>2014-05-04T09:39:06.000Z</time>
      </trkpt>
      <trkpt lat="48.19975" lon="3.37051">
        <ele>210</ele>
        <time>2014-05-04T09:39:07.000Z</time>
      </trkpt>
      <trkpt lat="48.19978" lon="3.37053">
        <ele>210</ele>
        <time>2014-05-04T09:39:08.000Z</time>
      </trkpt>
      <trkpt lat="48.1998" lon="3.37053">
        <ele>210</ele>
        <time>2014-05-04T09:39:09.000Z</time>
      </trkpt>
      <trkpt lat="48.19983" lon="3.37053">
        <ele>210</ele>
        <time>2014-05-04T09:39:10.000Z</time>
      </trkpt>
      <trkpt lat="48.19985" lon="3.37055">
        <ele>210</ele>
        <time>2014-05-04T09:39:11.000Z</time>
      </trkpt>
      <trkpt lat="48.19989" lon="3.37055">
        <ele>210</ele>
        <time>2014-05-04T09:39:12.000Z</time>
      </trkpt>
      <trkpt lat="48.19993" lon="3.37055">
        <ele>210</ele>
        <time>2014-05-04T09:39:13.000Z</time>
      </trkpt>
      <trkpt lat="48.19996" lon="3.37057">
        <ele>210</ele>
        <time>2014-05-04T09:39:14.000Z</time>
      </trkpt>
      <trkpt lat="48.19999" lon="3.37057">
        <ele>210</ele>
        <time>2014-05-04T09:39:15.000Z</time>
      </trkpt>
      <trkpt lat="48.20003" lon="3.37059">
        <ele>208</ele>
        <time>2014-05-04T09:39:16.000Z</time>
      </trkpt>
      <trkpt lat="48.20007" lon="3.37059">
        <ele>207</ele>
        <time>2014-05-04T09:39:17.000Z</time>
      </trkpt>
      <trkpt lat="48.2001" lon="3.37059">
        <ele>207</ele>
        <time>2014-05-04T09:39:18.000Z</time>
      </trkpt>
      <trkpt lat="48.20014" lon="3.37061">
        <ele>207</ele>
        <time>2014-05-04T09:39:19.000Z</time>
      </trkpt>
      <trkpt lat="48.20019" lon="3.37061">
        <ele>207</ele>
        <time>2014-05-04T09:39:20.000Z</time>
      </trkpt>
      <trkpt lat="48.20023" lon="3.37061">
        <ele>207</ele>
        <time>2014-05-04T09:39:21.000Z</time>
      </trkpt>
      <trkpt lat="48.20027" lon="3.37064">
        <ele>207</ele>
        <time>2014-05-04T09:39:22.000Z</time>
      </trkpt>
      <trkpt lat="48.20032" lon="3.37064">
        <ele>206</ele>
        <time>2014-05-04T09:39:23.000Z</time>
      </trkpt>
      <trkpt lat="48.20037" lon="3.37064">
        <ele>206</ele>
        <time>2014-05-04T09:39:24.000Z</time>
      </trkpt>
      <trkpt lat="48.20041" lon="3.37066">
        <ele>206</ele>
        <time>2014-05-04T09:39:25.000Z</time>
      </trkpt>
      <trkpt lat="48.20047" lon="3.37066">
        <ele>206</ele>
        <time>2014-05-04T09:39:26.000Z</time>
      </trkpt>
      <trkpt lat="48.20051" lon="3.37066">
        <ele>205</ele>
        <time>2014-05-04T09:39:27.000Z</time>
      </trkpt>
      <trkpt lat="48.20056" lon="3.37068">
        <ele>205</ele>
        <time>2014-05-04T09:39:28.000Z</time>
      </trkpt>
      <trkpt lat="48.20062" lon="3.37068">
        <ele>205</ele>
        <time>2014-05-04T09:39:29.000Z</time>
      </trkpt>
      <trkpt lat="48.20067" lon="3.3707">
        <ele>205</ele>
        <time>2014-05-04T09:39:30.000Z</time>
      </trkpt>
      <trkpt lat="48.20072" lon="3.3707">
        <ele>204</ele>
        <time>2014-05-04T09:39:31.000Z</time>
      </trkpt>
      <trkpt lat="48.20079" lon="3.37072">
        <ele>204</ele>
        <time>2014-05-04T09:39:32.000Z</time>
      </trkpt>
      <trkpt lat="48.20085" lon="3.37072">
        <ele>202</ele>
        <time>2014-05-04T09:39:33.000Z</time>
      </trkpt>
      <trkpt lat="48.20092" lon="3.37074">
        <ele>202</ele>
        <time>2014-05-04T09:39:34.000Z</time>
      </trkpt>
      <trkpt lat="48.20098" lon="3.37074">
        <ele>202</ele>
        <time>2014-05-04T09:39:35.000Z</time>
      </trkpt>
      <trkpt lat="48.20104" lon="3.37076">
        <ele>202</ele>
        <time>2014-05-04T09:39:36.000Z</time>
      </trkpt>
      <trkpt lat="48.20111" lon="3.37076">
        <ele>201</ele>
        <time>2014-05-04T09:39:37.000Z</time>
      </trkpt>
      <trkpt lat="48.20117" lon="3.37076">
        <ele>201</ele>
        <time>2014-05-04T09:39:38.000Z</time>
      </trkpt>
      <trkpt lat="48.20125" lon="3.37076">
        <ele>201</ele>
        <time>2014-05-04T09:39:39.000Z</time>
      </trkpt>
      <trkpt lat="48.20131" lon="3.37079">
        <ele>201</ele>
        <time>2014-05-04T09:39:40.000Z</time>
      </trkpt>
      <trkpt lat="48.20138" lon="3.37079">
        <ele>201</ele>
        <time>2014-05-04T09:39:41.000Z</time>
      </trkpt>
      <trkpt lat="48.20143" lon="3.37079">
        <ele>201</ele>
        <time>2014-05-04T09:39:42.000Z</time>
      </trkpt>
      <trkpt lat="48.2015" lon="3.37079">
        <ele>200</ele>
        <time>2014-05-04T09:39:43.000Z</time>
      </trkpt>
      <trkpt lat="48.20155" lon="3.37079">
        <ele>200</ele>
        <time>2014-05-04T09:39:44.000Z</time>
      </trkpt>
      <trkpt lat="48.2016" lon="3.37081">
        <ele>200</ele>
        <time>2014-05-04T09:39:45.000Z</time>
      </trkpt>
      <trkpt lat="48.20166" lon="3.37081">
        <ele>200</ele>
        <time>2014-05-04T09:39:46.000Z</time>
      </trkpt>
      <trkpt lat="48.20171" lon="3.37081">
        <ele>200</ele>
        <time>2014-05-04T09:39:47.000Z</time>
      </trkpt>
      <trkpt lat="48.20176" lon="3.37081">
        <ele>199</ele>
        <time>2014-05-04T09:39:48.000Z</time>
      </trkpt>
      <trkpt lat="48.20182" lon="3.37081">
        <ele>199</ele>
        <time>2014-05-04T09:39:49.000Z</time>
      </trkpt>
      <trkpt lat="48.20187" lon="3.37083">
        <ele>199</ele>
        <time>2014-05-04T09:39:50.000Z</time>
      </trkpt>
      <trkpt lat="48.20191" lon="3.37083">
        <ele>199</ele>
        <time>2014-05-04T09:39:51.000Z</time>
      </trkpt>
      <trkpt lat="48.20197" lon="3.37083">
        <ele>199</ele>
        <time>2014-05-04T09:39:52.000Z</time>
      </trkpt>
      <trkpt lat="48.20201" lon="3.37083">
        <ele>199</ele>
        <time>2014-05-04T09:39:53.000Z</time>
      </trkpt>
      <trkpt lat="48.20206" lon="3.37083">
        <ele>199</ele>
        <time>2014-05-04T09:39:54.000Z</time>
      </trkpt>
      <trkpt lat="48.20211" lon="3.37085">
        <ele>201</ele>
        <time>2014-05-04T09:39:55.000Z</time>
      </trkpt>
      <trkpt lat="48.20216" lon="3.37085">
        <ele>201</ele>
        <time>2014-05-04T09:39:56.000Z</time>
      </trkpt>
      <trkpt lat="48.2022" lon="3.37085">
        <ele>201</ele>
        <time>2014-05-04T09:39:57.000Z</time>
      </trkpt>
      <trkpt lat="48.20225" lon="3.37085">
        <ele>200</ele>
        <time>2014-05-04T09:39:58.000Z</time>
      </trkpt>
      <trkpt lat="48.2023" lon="3.37087">
        <ele>200</ele>
        <time>2014-05-04T09:39:59.000Z</time>
      </trkpt>
      <trkpt lat="48.20234" lon="3.37087">
        <ele>200</ele>
        <time>2014-05-04T09:40:00.000Z</time>
      </trkpt>
      <trkpt lat="48.2024" lon="3.37087">
        <ele>200</ele>
        <time>2014-05-04T09:40:01.000Z</time>
      </trkpt>
      <trkpt lat="48.20244" lon="3.37089">
        <ele>200</ele>
        <time>2014-05-04T09:40:02.000Z</time>
      </trkpt>
      <trkpt lat="48.20248" lon="3.37089">
        <ele>200</ele>
        <time>2014-05-04T09:40:03.000Z</time>
      </trkpt>
      <trkpt lat="48.20253" lon="3.37089">
        <ele>200</ele>
        <time>2014-05-04T09:40:04.000Z</time>
      </trkpt>
      <trkpt lat="48.20256" lon="3.37091">
        <ele>201</ele>
        <time>2014-05-04T09:40:05.000Z</time>
      </trkpt>
      <trkpt lat="48.20259" lon="3.37091">
        <ele>201</ele>
        <time>2014-05-04T09:40:06.000Z</time>
      </trkpt>
      <trkpt lat="48.20262" lon="3.37091">
        <ele>201</ele>
        <time>2014-05-04T09:40:07.000Z</time>
      </trkpt>
      <trkpt lat="48.20265" lon="3.37091">
        <ele>201</ele>
        <time>2014-05-04T09:40:08.000Z</time>
      </trkpt>
      <trkpt lat="48.20269" lon="3.37094">
        <ele>202</ele>
        <time>2014-05-04T09:40:09.000Z</time>
      </trkpt>
      <trkpt lat="48.20272" lon="3.37094">
        <ele>202</ele>
        <time>2014-05-04T09:40:10.000Z</time>
      </trkpt>
      <trkpt lat="48.20274" lon="3.37094">
        <ele>202</ele>
        <time>2014-05-04T09:40:11.000Z</time>
      </trkpt>
      <trkpt lat="48.20277" lon="3.37094">
        <ele>202</ele>
        <time>2014-05-04T09:40:12.000Z</time>
      </trkpt>
      <trkpt lat="48.2028" lon="3.37094">
        <ele>203</ele>
        <time>2014-05-04T09:40:13.000Z</time>
      </trkpt>
      <trkpt lat="48.20284" lon="3.37094">
        <ele>203</ele>
        <time>2014-05-04T09:40:14.000Z</time>
      </trkpt>
      <trkpt lat="48.20286" lon="3.37098">
        <ele>203</ele>
        <time>2014-05-04T09:40:15.000Z</time>
      </trkpt>
      <trkpt lat="48.20289" lon="3.371">
        <ele>203</ele>
        <time>2014-05-04T09:40:16.000Z</time>
      </trkpt>
      <trkpt lat="48.20291" lon="3.37104">
        <ele>203</ele>
        <time>2014-05-04T09:40:17.000Z</time>
      </trkpt>
      <trkpt lat="48.20294" lon="3.37109">
        <ele>204</ele>
        <time>2014-05-04T09:40:18.000Z</time>
      </trkpt>
      <trkpt lat="48.20297" lon="3.37113">
        <ele>204</ele>
        <time>2014-05-04T09:40:19.000Z</time>
      </trkpt>
      <trkpt lat="48.20299" lon="3.37117">
        <ele>204</ele>
        <time>2014-05-04T09:40:20.000Z</time>
      </trkpt>
      <trkpt lat="48.20302" lon="3.37121">
        <ele>204</ele>
        <time>2014-05-04T09:40:21.000Z</time>
      </trkpt>
      <trkpt lat="48.20304" lon="3.37126">
        <ele>204</ele>
        <time>2014-05-04T09:40:22.000Z</time>
      </trkpt>
      <trkpt lat="48.20307" lon="3.37132">
        <ele>204</ele>
        <time>2014-05-04T09:40:23.000Z</time>
      </trkpt>
      <trkpt lat="48.20309" lon="3.37137">
        <ele>204</ele>
        <time>2014-05-04T09:40:24.000Z</time>
      </trkpt>
      <trkpt lat="48.20313" lon="3.37141">
        <ele>205</ele>
        <time>2014-05-04T09:40:25.000Z</time>
      </trkpt>
      <trkpt lat="48.20315" lon="3.37145">
        <ele>205</ele>
        <time>2014-05-04T09:40:26.000Z</time>
      </trkpt>
      <trkpt lat="48.20318" lon="3.37149">
        <ele>205</ele>
        <time>2014-05-04T09:40:27.000Z</time>
      </trkpt>
      <trkpt lat="48.20321" lon="3.37156">
        <ele>206</ele>
        <time>2014-05-04T09:40:28.000Z</time>
      </trkpt>
      <trkpt lat="48.20323" lon="3.3716">
        <ele>206</ele>
        <time>2014-05-04T09:40:29.000Z</time>
      </trkpt>
      <trkpt lat="48.20327" lon="3.37164">
        <ele>206</ele>
        <time>2014-05-04T09:40:30.000Z</time>
      </trkpt>
      <trkpt lat="48.20329" lon="3.37171">
        <ele>207</ele>
        <time>2014-05-04T09:40:31.000Z</time>
      </trkpt>
      <trkpt lat="48.20331" lon="3.37177">
        <ele>207</ele>
        <time>2014-05-04T09:40:32.000Z</time>
      </trkpt>
      <trkpt lat="48.20334" lon="3.37184">
        <ele>207</ele>
        <time>2014-05-04T09:40:33.000Z</time>
      </trkpt>
      <trkpt lat="48.20336" lon="3.37188">
        <ele>208</ele>
        <time>2014-05-04T09:40:34.000Z</time>
      </trkpt>
      <trkpt lat="48.20338" lon="3.37194">
        <ele>208</ele>
        <time>2014-05-04T09:40:35.000Z</time>
      </trkpt>
      <trkpt lat="48.20339" lon="3.37201">
        <ele>208</ele>
        <time>2014-05-04T09:40:36.000Z</time>
      </trkpt>
      <trkpt lat="48.20342" lon="3.37207">
        <ele>208</ele>
        <time>2014-05-04T09:40:37.000Z</time>
      </trkpt>
      <trkpt lat="48.20343" lon="3.37214">
        <ele>208</ele>
        <time>2014-05-04T09:40:38.000Z</time>
      </trkpt>
      <trkpt lat="48.20345" lon="3.37218">
        <ele>208</ele>
        <time>2014-05-04T09:40:39.000Z</time>
      </trkpt>
      <trkpt lat="48.20347" lon="3.37222">
        <ele>208</ele>
        <time>2014-05-04T09:40:40.000Z</time>
      </trkpt>
      <trkpt lat="48.20349" lon="3.37227">
        <ele>208</ele>
        <time>2014-05-04T09:40:41.000Z</time>
      </trkpt>
      <trkpt lat="48.20351" lon="3.37227">
        <ele>208</ele>
        <time>2014-05-04T09:40:42.000Z</time>
      </trkpt>
      <trkpt lat="48.20353" lon="3.37229">
        <ele>208</ele>
        <time>2014-05-04T09:40:43.000Z</time>
      </trkpt>
      <trkpt lat="48.20357" lon="3.37227">
        <ele>208</ele>
        <time>2014-05-04T09:40:44.000Z</time>
      </trkpt>
      <trkpt lat="48.20358" lon="3.3722">
        <ele>208</ele>
        <time>2014-05-04T09:40:45.000Z</time>
      </trkpt>
      <trkpt lat="48.20359" lon="3.37216">
        <ele>208</ele>
        <time>2014-05-04T09:40:46.000Z</time>
      </trkpt>
      <trkpt lat="48.2036" lon="3.37212">
        <ele>208</ele>
        <time>2014-05-04T09:40:47.000Z</time>
      </trkpt>
      <trkpt lat="48.20362" lon="3.37207">
        <ele>208</ele>
        <time>2014-05-04T09:40:48.000Z</time>
      </trkpt>
      <trkpt lat="48.20362" lon="3.37201">
        <ele>208</ele>
        <time>2014-05-04T09:40:49.000Z</time>
      </trkpt>
      <trkpt lat="48.20363" lon="3.37197">
        <ele>208</ele>
        <time>2014-05-04T09:40:50.000Z</time>
      </trkpt>
      <trkpt lat="48.20364" lon="3.37192">
        <ele>208</ele>
        <time>2014-05-04T09:40:51.000Z</time>
      </trkpt>
      <trkpt lat="48.20365" lon="3.37186">
        <ele>208</ele>
        <time>2014-05-04T09:40:52.000Z</time>
      </trkpt>
      <trkpt lat="48.20365" lon="3.37182">
        <ele>208</ele>
        <time>2014-05-04T09:40:53.000Z</time>
      </trkpt>
      <trkpt lat="48.20366" lon="3.37175">
        <ele>208</ele>
        <time>2014-05-04T09:40:54.000Z</time>
      </trkpt>
      <trkpt lat="48.20366" lon="3.37171">
        <ele>208</ele>
        <time>2014-05-04T09:40:55.000Z</time>
      </trkpt>
      <trkpt lat="48.20367" lon="3.37164">
        <ele>207</ele>
        <time>2014-05-04T09:40:56.000Z</time>
      </trkpt>
      <trkpt lat="48.20368" lon="3.3716">
        <ele>207</ele>
        <time>2014-05-04T09:40:57.000Z</time>
      </trkpt>
      <trkpt lat="48.20369" lon="3.37154">
        <ele>207</ele>
        <time>2014-05-04T09:40:58.000Z</time>
      </trkpt>
      <trkpt lat="48.20369" lon="3.37149">
        <ele>207</ele>
        <time>2014-05-04T09:40:59.000Z</time>
      </trkpt>
      <trkpt lat="48.20369" lon="3.37143">
        <ele>207</ele>
        <time>2014-05-04T09:41:00.000Z</time>
      </trkpt>
      <trkpt lat="48.20371" lon="3.37139">
        <ele>207</ele>
        <time>2014-05-04T09:41:01.000Z</time>
      </trkpt>
      <trkpt lat="48.20371" lon="3.37132">
        <ele>207</ele>
        <time>2014-05-04T09:41:02.000Z</time>
      </trkpt>
      <trkpt lat="48.20372" lon="3.37128">
        <ele>207</ele>
        <time>2014-05-04T09:41:03.000Z</time>
      </trkpt>
      <trkpt lat="48.20372" lon="3.37121">
        <ele>207</ele>
        <time>2014-05-04T09:41:04.000Z</time>
      </trkpt>
      <trkpt lat="48.20373" lon="3.37117">
        <ele>207</ele>
        <time>2014-05-04T09:41:05.000Z</time>
      </trkpt>
      <trkpt lat="48.20373" lon="3.37113">
        <ele>207</ele>
        <time>2014-05-04T09:41:06.000Z</time>
      </trkpt>
      <trkpt lat="48.20375" lon="3.37111">
        <ele>207</ele>
        <time>2014-05-04T09:41:07.000Z</time>
      </trkpt>
      <trkpt lat="48.20376" lon="3.37106">
        <ele>207</ele>
        <time>2014-05-04T09:41:08.000Z</time>
      </trkpt>
      <trkpt lat="48.20377" lon="3.37102">
        <ele>207</ele>
        <time>2014-05-04T09:41:09.000Z</time>
      </trkpt>
      <trkpt lat="48.20379" lon="3.37098">
        <ele>207</ele>
        <time>2014-05-04T09:41:10.000Z</time>
      </trkpt>
      <trkpt lat="48.2038" lon="3.37094">
        <ele>207</ele>
        <time>2014-05-04T09:41:11.000Z</time>
      </trkpt>
      <trkpt lat="48.20381" lon="3.37091">
        <ele>206</ele>
        <time>2014-05-04T09:41:12.000Z</time>
      </trkpt>
      <trkpt lat="48.20383" lon="3.37087">
        <ele>206</ele>
        <time>2014-05-04T09:41:13.000Z</time>
      </trkpt>
      <trkpt lat="48.20385" lon="3.37083">
        <ele>205</ele>
        <time>2014-05-04T09:41:14.000Z</time>
      </trkpt>
      <trkpt lat="48.20386" lon="3.37081">
        <ele>205</ele>
        <time>2014-05-04T09:41:15.000Z</time>
      </trkpt>
      <trkpt lat="48.20388" lon="3.37076">
        <ele>205</ele>
        <time>2014-05-04T09:41:16.000Z</time>
      </trkpt>
      <trkpt lat="48.20389" lon="3.37072">
        <ele>205</ele>
        <time>2014-05-04T09:41:17.000Z</time>
      </trkpt>
      <trkpt lat="48.20391" lon="3.37066">
        <ele>205</ele>
        <time>2014-05-04T09:41:18.000Z</time>
      </trkpt>
      <trkpt lat="48.20392" lon="3.37061">
        <ele>205</ele>
        <time>2014-05-04T09:41:19.000Z</time>
      </trkpt>
      <trkpt lat="48.20393" lon="3.37057">
        <ele>205</ele>
        <time>2014-05-04T09:41:20.000Z</time>
      </trkpt>
      <trkpt lat="48.20395" lon="3.37053">
        <ele>205</ele>
        <time>2014-05-04T09:41:21.000Z</time>
      </trkpt>
      <trkpt lat="48.20396" lon="3.37049">
        <ele>205</ele>
        <time>2014-05-04T09:41:22.000Z</time>
      </trkpt>
      <trkpt lat="48.20396" lon="3.37049">
        <ele>205</ele>
        <time>2014-05-04T09:41:24.000Z</time>
      </trkpt>
      <trkpt lat="48.20401" lon="3.37031">
        <ele>205</ele>
        <time>2014-05-04T09:41:25.000Z</time>
      </trkpt>
      <trkpt lat="48.20401" lon="3.37031">
        <ele>205</ele>
        <time>2014-05-04T09:41:26.000Z</time>
      </trkpt>
      <trkpt lat="48.20404" lon="3.37018">
        <ele>204</ele>
        <time>2014-05-04T09:41:27.000Z</time>
      </trkpt>
      <trkpt lat="48.20404" lon="3.37018">
        <ele>204</ele>
        <time>2014-05-04T09:41:29.000Z</time>
      </trkpt>
      <trkpt lat="48.20407" lon="3.37003">
        <ele>204</ele>
        <time>2014-05-04T09:41:30.000Z</time>
      </trkpt>
      <trkpt lat="48.20407" lon="3.37003">
        <ele>204</ele>
        <time>2014-05-04T09:41:32.000Z</time>
      </trkpt>
      <trkpt lat="48.20411" lon="3.36988">
        <ele>203</ele>
        <time>2014-05-04T09:41:33.000Z</time>
      </trkpt>
      <trkpt lat="48.20413" lon="3.36984">
        <ele>203</ele>
        <time>2014-05-04T09:41:34.000Z</time>
      </trkpt>
      <trkpt lat="48.20415" lon="3.3698">
        <ele>203</ele>
        <time>2014-05-04T09:41:35.000Z</time>
      </trkpt>
      <trkpt lat="48.20417" lon="3.36976">
        <ele>203</ele>
        <time>2014-05-04T09:41:36.000Z</time>
      </trkpt>
      <trkpt lat="48.20418" lon="3.36971">
        <ele>204</ele>
        <time>2014-05-04T09:41:37.000Z</time>
      </trkpt>
      <trkpt lat="48.2042" lon="3.36967">
        <ele>204</ele>
        <time>2014-05-04T09:41:38.000Z</time>
      </trkpt>
      <trkpt lat="48.20421" lon="3.36963">
        <ele>204</ele>
        <time>2014-05-04T09:41:39.000Z</time>
      </trkpt>
      <trkpt lat="48.20423" lon="3.36961">
        <ele>204</ele>
        <time>2014-05-04T09:41:40.000Z</time>
      </trkpt>
      <trkpt lat="48.20424" lon="3.36956">
        <ele>204</ele>
        <time>2014-05-04T09:41:41.000Z</time>
      </trkpt>
      <trkpt lat="48.20426" lon="3.36952">
        <ele>204</ele>
        <time>2014-05-04T09:41:42.000Z</time>
      </trkpt>
      <trkpt lat="48.20428" lon="3.36948">
        <ele>204</ele>
        <time>2014-05-04T09:41:43.000Z</time>
      </trkpt>
      <trkpt lat="48.2043" lon="3.36946">
        <ele>203</ele>
        <time>2014-05-04T09:41:47.000Z</time>
      </trkpt>
      <trkpt lat="48.20435" lon="3.36933">
        <ele>203</ele>
        <time>2014-05-04T09:41:48.000Z</time>
      </trkpt>
      <trkpt lat="48.20435" lon="3.36933">
        <ele>203</ele>
        <time>2014-05-04T09:41:49.000Z</time>
      </trkpt>
      <trkpt lat="48.20438" lon="3.36926">
        <ele>203</ele>
        <time>2014-05-04T09:41:50.000Z</time>
      </trkpt>
      <trkpt lat="48.20438" lon="3.36926">
        <ele>203</ele>
        <time>2014-05-04T09:41:53.000Z</time>
      </trkpt>
      <trkpt lat="48.20445" lon="3.36915">
        <ele>204</ele>
        <time>2014-05-04T09:41:54.000Z</time>
      </trkpt>
      <trkpt lat="48.20445" lon="3.36915">
        <ele>204</ele>
        <time>2014-05-04T09:41:58.000Z</time>
      </trkpt>
      <trkpt lat="48.2045" lon="3.36903">
        <ele>204</ele>
        <time>2014-05-04T09:41:59.000Z</time>
      </trkpt>
      <trkpt lat="48.2045" lon="3.36903">
        <ele>204</ele>
        <time>2014-05-04T09:42:01.000Z</time>
      </trkpt>
      <trkpt lat="48.20453" lon="3.36896">
        <ele>205</ele>
        <time>2014-05-04T09:42:02.000Z</time>
      </trkpt>
      <trkpt lat="48.20454" lon="3.3689">
        <ele>205</ele>
        <time>2014-05-04T09:42:03.000Z</time>
      </trkpt>
      <trkpt lat="48.20456" lon="3.36883">
        <ele>205</ele>
        <time>2014-05-04T09:42:04.000Z</time>
      </trkpt>
      <trkpt lat="48.20457" lon="3.36879">
        <ele>205</ele>
        <time>2014-05-04T09:42:05.000Z</time>
      </trkpt>
      <trkpt lat="48.20459" lon="3.36873">
        <ele>205</ele>
        <time>2014-05-04T09:42:06.000Z</time>
      </trkpt>
      <trkpt lat="48.2046" lon="3.36866">
        <ele>205</ele>
        <time>2014-05-04T09:42:07.000Z</time>
      </trkpt>
      <trkpt lat="48.20461" lon="3.36862">
        <ele>205</ele>
        <time>2014-05-04T09:42:08.000Z</time>
      </trkpt>
      <trkpt lat="48.20462" lon="3.36855">
        <ele>205</ele>
        <time>2014-05-04T09:42:09.000Z</time>
      </trkpt>
      <trkpt lat="48.20462" lon="3.36849">
        <ele>205</ele>
        <time>2014-05-04T09:42:10.000Z</time>
      </trkpt>
      <trkpt lat="48.20463" lon="3.36845">
        <ele>206</ele>
        <time>2014-05-04T09:42:11.000Z</time>
      </trkpt>
      <trkpt lat="48.20464" lon="3.36838">
        <ele>206</ele>
        <time>2014-05-04T09:42:12.000Z</time>
      </trkpt>
      <trkpt lat="48.20464" lon="3.36834">
        <ele>206</ele>
        <time>2014-05-04T09:42:13.000Z</time>
      </trkpt>
      <trkpt lat="48.20465" lon="3.36828">
        <ele>207</ele>
        <time>2014-05-04T09:42:14.000Z</time>
      </trkpt>
      <trkpt lat="48.20465" lon="3.36823">
        <ele>207</ele>
        <time>2014-05-04T09:42:15.000Z</time>
      </trkpt>
      <trkpt lat="48.20465" lon="3.36817">
        <ele>207</ele>
        <time>2014-05-04T09:42:16.000Z</time>
      </trkpt>
      <trkpt lat="48.20466" lon="3.36812">
        <ele>207</ele>
        <time>2014-05-04T09:42:17.000Z</time>
      </trkpt>
      <trkpt lat="48.20466" lon="3.36808">
        <ele>207</ele>
        <time>2014-05-04T09:42:18.000Z</time>
      </trkpt>
      <trkpt lat="48.20466" lon="3.36802">
        <ele>207</ele>
        <time>2014-05-04T09:42:19.000Z</time>
      </trkpt>
      <trkpt lat="48.20466" lon="3.36797">
        <ele>207</ele>
        <time>2014-05-04T09:42:20.000Z</time>
      </trkpt>
      <trkpt lat="48.20466" lon="3.36791">
        <ele>207</ele>
        <time>2014-05-04T09:42:21.000Z</time>
      </trkpt>
      <trkpt lat="48.20466" lon="3.36787">
        <ele>207</ele>
        <time>2014-05-04T09:42:22.000Z</time>
      </trkpt>
      <trkpt lat="48.20465" lon="3.3678">
        <ele>207</ele>
        <time>2014-05-04T09:42:23.000Z</time>
      </trkpt>
      <trkpt lat="48.20465" lon="3.36776">
        <ele>207</ele>
        <time>2014-05-04T09:42:24.000Z</time>
      </trkpt>
      <trkpt lat="48.20464" lon="3.3677">
        <ele>207</ele>
        <time>2014-05-04T09:42:25.000Z</time>
      </trkpt>
      <trkpt lat="48.20464" lon="3.36763">
        <ele>207</ele>
        <time>2014-05-04T09:42:26.000Z</time>
      </trkpt>
      <trkpt lat="48.20464" lon="3.36759">
        <ele>207</ele>
        <time>2014-05-04T09:42:27.000Z</time>
      </trkpt>
      <trkpt lat="48.20463" lon="3.36752">
        <ele>207</ele>
        <time>2014-05-04T09:42:28.000Z</time>
      </trkpt>
      <trkpt lat="48.20463" lon="3.36748">
        <ele>207</ele>
        <time>2014-05-04T09:42:29.000Z</time>
      </trkpt>
      <trkpt lat="48.20463" lon="3.36742">
        <ele>207</ele>
        <time>2014-05-04T09:42:30.000Z</time>
      </trkpt>
      <trkpt lat="48.20463" lon="3.36737">
        <ele>207</ele>
        <time>2014-05-04T09:42:33.000Z</time>
      </trkpt>
      <trkpt lat="48.20464" lon="3.36722">
        <ele>207</ele>
        <time>2014-05-04T09:42:34.000Z</time>
      </trkpt>
      <trkpt lat="48.20464" lon="3.36722">
        <ele>207</ele>
        <time>2014-05-04T09:42:38.000Z</time>
      </trkpt>
      <trkpt lat="48.20466" lon="3.36709">
        <ele>207</ele>
        <time>2014-05-04T09:42:39.000Z</time>
      </trkpt>
      <trkpt lat="48.20466" lon="3.36709">
        <ele>207</ele>
        <time>2014-05-04T09:42:42.000Z</time>
      </trkpt>
      <trkpt lat="48.2047" lon="3.36697">
        <ele>208</ele>
        <time>2014-05-04T09:42:43.000Z</time>
      </trkpt>
      <trkpt lat="48.2047" lon="3.36697">
        <ele>208</ele>
        <time>2014-05-04T09:42:46.000Z</time>
      </trkpt>
      <trkpt lat="48.20474" lon="3.36679">
        <ele>208</ele>
        <time>2014-05-04T09:42:47.000Z</time>
      </trkpt>
      <trkpt lat="48.20474" lon="3.36679">
        <ele>208</ele>
        <time>2014-05-04T09:42:49.000Z</time>
      </trkpt>
      <trkpt lat="48.20475" lon="3.36669">
        <ele>208</ele>
        <time>2014-05-04T09:42:50.000Z</time>
      </trkpt>
      <trkpt lat="48.20475" lon="3.36669">
        <ele>208</ele>
        <time>2014-05-04T09:42:53.000Z</time>
      </trkpt>
      <trkpt lat="48.20477" lon="3.36654">
        <ele>208</ele>
        <time>2014-05-04T09:42:54.000Z</time>
      </trkpt>
      <trkpt lat="48.20477" lon="3.36654">
        <ele>208</ele>
        <time>2014-05-04T09:42:57.000Z</time>
      </trkpt>
      <trkpt lat="48.20476" lon="3.36639">
        <ele>207</ele>
        <time>2014-05-04T09:42:58.000Z</time>
      </trkpt>
      <trkpt lat="48.20476" lon="3.36639">
        <ele>207</ele>
        <time>2014-05-04T09:42:59.000Z</time>
      </trkpt>
      <trkpt lat="48.20475" lon="3.36628">
        <ele>207</ele>
        <time>2014-05-04T09:43:00.000Z</time>
      </trkpt>
      <trkpt lat="48.20475" lon="3.36624">
        <ele>207</ele>
        <time>2014-05-04T09:43:01.000Z</time>
      </trkpt>
      <trkpt lat="48.20472" lon="3.36619">
        <ele>207</ele>
        <time>2014-05-04T09:43:02.000Z</time>
      </trkpt>
      <trkpt lat="48.20471" lon="3.36613">
        <ele>207</ele>
        <time>2014-05-04T09:43:03.000Z</time>
      </trkpt>
      <trkpt lat="48.2047" lon="3.36609">
        <ele>207</ele>
        <time>2014-05-04T09:43:04.000Z</time>
      </trkpt>
      <trkpt lat="48.20468" lon="3.36607">
        <ele>207</ele>
        <time>2014-05-04T09:43:05.000Z</time>
      </trkpt>
      <trkpt lat="48.20467" lon="3.36602">
        <ele>207</ele>
        <time>2014-05-04T09:43:06.000Z</time>
      </trkpt>
      <trkpt lat="48.20465" lon="3.36598">
        <ele>206</ele>
        <time>2014-05-04T09:43:07.000Z</time>
      </trkpt>
      <trkpt lat="48.20463" lon="3.36591">
        <ele>206</ele>
        <time>2014-05-04T09:43:08.000Z</time>
      </trkpt>
      <trkpt lat="48.20461" lon="3.36587">
        <ele>206</ele>
        <time>2014-05-04T09:43:09.000Z</time>
      </trkpt>
      <trkpt lat="48.20457" lon="3.36583">
        <ele>205</ele>
        <time>2014-05-04T09:43:10.000Z</time>
      </trkpt>
      <trkpt lat="48.20455" lon="3.36576">
        <ele>205</ele>
        <time>2014-05-04T09:43:11.000Z</time>
      </trkpt>
      <trkpt lat="48.20452" lon="3.3657">
        <ele>205</ele>
        <time>2014-05-04T09:43:12.000Z</time>
      </trkpt>
      <trkpt lat="48.2045" lon="3.36566">
        <ele>205</ele>
        <time>2014-05-04T09:43:13.000Z</time>
      </trkpt>
      <trkpt lat="48.20448" lon="3.36561">
        <ele>205</ele>
        <time>2014-05-04T09:43:14.000Z</time>
      </trkpt>
      <trkpt lat="48.20446" lon="3.36555">
        <ele>205</ele>
        <time>2014-05-04T09:43:15.000Z</time>
      </trkpt>
      <trkpt lat="48.20445" lon="3.36551">
        <ele>205</ele>
        <time>2014-05-04T09:43:16.000Z</time>
      </trkpt>
      <trkpt lat="48.20444" lon="3.36546">
        <ele>205</ele>
        <time>2014-05-04T09:43:17.000Z</time>
      </trkpt>
      <trkpt lat="48.20444" lon="3.36542">
        <ele>205</ele>
        <time>2014-05-04T09:43:18.000Z</time>
      </trkpt>
      <trkpt lat="48.20442" lon="3.36538">
        <ele>205</ele>
        <time>2014-05-04T09:43:19.000Z</time>
      </trkpt>
      <trkpt lat="48.20442" lon="3.36534">
        <ele>205</ele>
        <time>2014-05-04T09:43:20.000Z</time>
      </trkpt>
      <trkpt lat="48.20441" lon="3.36529">
        <ele>205</ele>
        <time>2014-05-04T09:43:21.000Z</time>
      </trkpt>
      <trkpt lat="48.20441" lon="3.36529">
        <ele>205</ele>
        <time>2014-05-04T09:43:25.000Z</time>
      </trkpt>
      <trkpt lat="48.20437" lon="3.36516">
        <ele>205</ele>
        <time>2014-05-04T09:43:26.000Z</time>
      </trkpt>
      <trkpt lat="48.20437" lon="3.36516">
        <ele>205</ele>
        <time>2014-05-04T09:43:33.000Z</time>
      </trkpt>
      <trkpt lat="48.20432" lon="3.36506">
        <ele>205</ele>
        <time>2014-05-04T09:43:34.000Z</time>
      </trkpt>
      <trkpt lat="48.20432" lon="3.36506">
        <ele>205</ele>
        <time>2014-05-04T09:43:35.000Z</time>
      </trkpt>
      <trkpt lat="48.20425" lon="3.36501">
        <ele>205</ele>
        <time>2014-05-04T09:43:36.000Z</time>
      </trkpt>
      <trkpt lat="48.20422" lon="3.36497">
        <ele>205</ele>
        <time>2014-05-04T09:43:37.000Z</time>
      </trkpt>
      <trkpt lat="48.2042" lon="3.36491">
        <ele>204</ele>
        <time>2014-05-04T09:43:38.000Z</time>
      </trkpt>
      <trkpt lat="48.20418" lon="3.36486">
        <ele>204</ele>
        <time>2014-05-04T09:43:39.000Z</time>
      </trkpt>
      <trkpt lat="48.20416" lon="3.3648">
        <ele>202</ele>
        <time>2014-05-04T09:43:40.000Z</time>
      </trkpt>
      <trkpt lat="48.20413" lon="3.36473">
        <ele>202</ele>
        <time>2014-05-04T09:43:41.000Z</time>
      </trkpt>
      <trkpt lat="48.20412" lon="3.36467">
        <ele>201</ele>
        <time>2014-05-04T09:43:42.000Z</time>
      </trkpt>
      <trkpt lat="48.2041" lon="3.36463">
        <ele>201</ele>
        <time>2014-05-04T09:43:43.000Z</time>
      </trkpt>
      <trkpt lat="48.20409" lon="3.36456">
        <ele>201</ele>
        <time>2014-05-04T09:43:44.000Z</time>
      </trkpt>
      <trkpt lat="48.20407" lon="3.3645">
        <ele>201</ele>
        <time>2014-05-04T09:43:45.000Z</time>
      </trkpt>
      <trkpt lat="48.20405" lon="3.36446">
        <ele>201</ele>
        <time>2014-05-04T09:43:46.000Z</time>
      </trkpt>
      <trkpt lat="48.20404" lon="3.36439">
        <ele>201</ele>
        <time>2014-05-04T09:43:47.000Z</time>
      </trkpt>
      <trkpt lat="48.20402" lon="3.36435">
        <ele>201</ele>
        <time>2014-05-04T09:43:48.000Z</time>
      </trkpt>
      <trkpt lat="48.20401" lon="3.36428">
        <ele>202</ele>
        <time>2014-05-04T09:43:49.000Z</time>
      </trkpt>
      <trkpt lat="48.204" lon="3.36424">
        <ele>202</ele>
        <time>2014-05-04T09:43:50.000Z</time>
      </trkpt>
      <trkpt lat="48.20397" lon="3.36418">
        <ele>201</ele>
        <time>2014-05-04T09:43:51.000Z</time>
      </trkpt>
      <trkpt lat="48.20396" lon="3.36411">
        <ele>201</ele>
        <time>2014-05-04T09:43:52.000Z</time>
      </trkpt>
      <trkpt lat="48.20395" lon="3.36407">
        <ele>201</ele>
        <time>2014-05-04T09:43:53.000Z</time>
      </trkpt>
      <trkpt lat="48.20394" lon="3.36403">
        <ele>201</ele>
        <time>2014-05-04T09:43:54.000Z</time>
      </trkpt>
      <trkpt lat="48.20393" lon="3.36398">
        <ele>200</ele>
        <time>2014-05-04T09:43:55.000Z</time>
      </trkpt>
      <trkpt lat="48.20392" lon="3.36392">
        <ele>200</ele>
        <time>2014-05-04T09:43:56.000Z</time>
      </trkpt>
      <trkpt lat="48.20391" lon="3.36388">
        <ele>200</ele>
        <time>2014-05-04T09:43:57.000Z</time>
      </trkpt>
      <trkpt lat="48.2039" lon="3.36383">
        <ele>200</ele>
        <time>2014-05-04T09:43:58.000Z</time>
      </trkpt>
      <trkpt lat="48.20389" lon="3.36379">
        <ele>200</ele>
        <time>2014-05-04T09:43:59.000Z</time>
      </trkpt>
      <trkpt lat="48.20388" lon="3.36375">
        <ele>200</ele>
        <time>2014-05-04T09:44:00.000Z</time>
      </trkpt>
      <trkpt lat="48.20387" lon="3.3637">
        <ele>200</ele>
        <time>2014-05-04T09:44:01.000Z</time>
      </trkpt>
      <trkpt lat="48.20386" lon="3.36364">
        <ele>200</ele>
        <time>2014-05-04T09:44:02.000Z</time>
      </trkpt>
      <trkpt lat="48.20386" lon="3.3636">
        <ele>200</ele>
        <time>2014-05-04T09:44:03.000Z</time>
      </trkpt>
      <trkpt lat="48.20385" lon="3.36355">
        <ele>200</ele>
        <time>2014-05-04T09:44:04.000Z</time>
      </trkpt>
      <trkpt lat="48.20385" lon="3.36349">
        <ele>200</ele>
        <time>2014-05-04T09:44:05.000Z</time>
      </trkpt>
      <trkpt lat="48.20383" lon="3.36343">
        <ele>200</ele>
        <time>2014-05-04T09:44:06.000Z</time>
      </trkpt>
      <trkpt lat="48.20383" lon="3.36336">
        <ele>200</ele>
        <time>2014-05-04T09:44:07.000Z</time>
      </trkpt>
      <trkpt lat="48.20383" lon="3.3633">
        <ele>199</ele>
        <time>2014-05-04T09:44:08.000Z</time>
      </trkpt>
      <trkpt lat="48.20383" lon="3.36323">
        <ele>199</ele>
        <time>2014-05-04T09:44:09.000Z</time>
      </trkpt>
      <trkpt lat="48.20382" lon="3.36317">
        <ele>199</ele>
        <time>2014-05-04T09:44:10.000Z</time>
      </trkpt>
      <trkpt lat="48.20382" lon="3.3631">
        <ele>199</ele>
        <time>2014-05-04T09:44:11.000Z</time>
      </trkpt>
      <trkpt lat="48.20383" lon="3.36304">
        <ele>199</ele>
        <time>2014-05-04T09:44:12.000Z</time>
      </trkpt>
      <trkpt lat="48.20385" lon="3.36298">
        <ele>199</ele>
        <time>2014-05-04T09:44:13.000Z</time>
      </trkpt>
      <trkpt lat="48.20386" lon="3.36291">
        <ele>199</ele>
        <time>2014-05-04T09:44:14.000Z</time>
      </trkpt>
      <trkpt lat="48.20386" lon="3.36285">
        <ele>199</ele>
        <time>2014-05-04T09:44:15.000Z</time>
      </trkpt>
      <trkpt lat="48.20386" lon="3.36278">
        <ele>199</ele>
        <time>2014-05-04T09:44:16.000Z</time>
      </trkpt>
      <trkpt lat="48.20387" lon="3.36272">
        <ele>199</ele>
        <time>2014-05-04T09:44:17.000Z</time>
      </trkpt>
      <trkpt lat="48.20387" lon="3.36265">
        <ele>199</ele>
        <time>2014-05-04T09:44:18.000Z</time>
      </trkpt>
      <trkpt lat="48.20387" lon="3.36259">
        <ele>199</ele>
        <time>2014-05-04T09:44:19.000Z</time>
      </trkpt>
      <trkpt lat="48.20387" lon="3.36252">
        <ele>199</ele>
        <time>2014-05-04T09:44:20.000Z</time>
      </trkpt>
      <trkpt lat="48.20387" lon="3.36246">
        <ele>198</ele>
        <time>2014-05-04T09:44:21.000Z</time>
      </trkpt>
      <trkpt lat="48.20387" lon="3.36242">
        <ele>198</ele>
        <time>2014-05-04T09:44:29.000Z</time>
      </trkpt>
      <trkpt lat="48.20383" lon="3.36227">
        <ele>198</ele>
        <time>2014-05-04T09:44:30.000Z</time>
      </trkpt>
      <trkpt lat="48.20383" lon="3.36227">
        <ele>198</ele>
        <time>2014-05-04T09:44:53.000Z</time>
      </trkpt>
      <trkpt lat="48.20391" lon="3.3622">
        <ele>198</ele>
        <time>2014-05-04T09:44:54.000Z</time>
      </trkpt>
      <trkpt lat="48.20391" lon="3.3622">
        <ele>198</ele>
        <time>2014-05-04T09:44:59.000Z</time>
      </trkpt>
      <trkpt lat="48.20401" lon="3.36218">
        <ele>198</ele>
        <time>2014-05-04T09:45:00.000Z</time>
      </trkpt>
      <trkpt lat="48.20401" lon="3.36218">
        <ele>198</ele>
        <time>2014-05-04T09:45:02.000Z</time>
      </trkpt>
      <trkpt lat="48.20405" lon="3.36225">
        <ele>199</ele>
        <time>2014-05-04T09:45:03.000Z</time>
      </trkpt>
      <trkpt lat="48.20405" lon="3.36225">
        <ele>199</ele>
        <time>2014-05-04T09:45:04.000Z</time>
      </trkpt>
      <trkpt lat="48.20409" lon="3.36229">
        <ele>199</ele>
        <time>2014-05-04T09:45:05.000Z</time>
      </trkpt>
      <trkpt lat="48.20412" lon="3.36231">
        <ele>199</ele>
        <time>2014-05-04T09:45:06.000Z</time>
      </trkpt>
      <trkpt lat="48.20415" lon="3.36233">
        <ele>199</ele>
        <time>2014-05-04T09:45:07.000Z</time>
      </trkpt>
      <trkpt lat="48.20417" lon="3.36235">
        <ele>200</ele>
        <time>2014-05-04T09:45:08.000Z</time>
      </trkpt>
      <trkpt lat="48.2042" lon="3.36235">
        <ele>199</ele>
        <time>2014-05-04T09:45:09.000Z</time>
      </trkpt>
      <trkpt lat="48.20424" lon="3.36233">
        <ele>199</ele>
        <time>2014-05-04T09:45:10.000Z</time>
      </trkpt>
      <trkpt lat="48.20428" lon="3.36231">
        <ele>199</ele>
        <time>2014-05-04T09:45:11.000Z</time>
      </trkpt>
      <trkpt lat="48.20433" lon="3.36229">
        <ele>198</ele>
        <time>2014-05-04T09:45:12.000Z</time>
      </trkpt>
      <trkpt lat="48.20437" lon="3.36227">
        <ele>198</ele>
        <time>2014-05-04T09:45:13.000Z</time>
      </trkpt>
      <trkpt lat="48.20441" lon="3.36225">
        <ele>198</ele>
        <time>2014-05-04T09:45:14.000Z</time>
      </trkpt>
      <trkpt lat="48.20445" lon="3.36222">
        <ele>198</ele>
        <time>2014-05-04T09:45:15.000Z</time>
      </trkpt>
      <trkpt lat="48.20448" lon="3.36222">
        <ele>198</ele>
        <time>2014-05-04T09:45:16.000Z</time>
      </trkpt>
      <trkpt lat="48.20451" lon="3.3622">
        <ele>197</ele>
        <time>2014-05-04T09:45:21.000Z</time>
      </trkpt>
      <trkpt lat="48.20456" lon="3.36231">
        <ele>197</ele>
        <time>2014-05-04T09:45:22.000Z</time>
      </trkpt>
      <trkpt lat="48.20459" lon="3.36235">
        <ele>197</ele>
        <time>2014-05-04T09:45:32.000Z</time>
      </trkpt>
      <trkpt lat="48.20469" lon="3.3624">
        <ele>197</ele>
        <time>2014-05-04T09:45:33.000Z</time>
      </trkpt>
      <trkpt lat="48.20469" lon="3.3624">
        <ele>197</ele>
        <time>2014-05-04T09:45:37.000Z</time>
      </trkpt>
      <trkpt lat="48.20478" lon="3.36244">
        <ele>196</ele>
        <time>2014-05-04T09:45:38.000Z</time>
      </trkpt>
      <trkpt lat="48.20478" lon="3.36244">
        <ele>196</ele>
        <time>2014-05-04T09:45:39.000Z</time>
      </trkpt>
      <trkpt lat="48.20483" lon="3.36244">
        <ele>196</ele>
        <time>2014-05-04T09:45:40.000Z</time>
      </trkpt>
      <trkpt lat="48.20487" lon="3.36244">
        <ele>195</ele>
        <time>2014-05-04T09:45:41.000Z</time>
      </trkpt>
      <trkpt lat="48.20492" lon="3.36244">
        <ele>195</ele>
        <time>2014-05-04T09:45:42.000Z</time>
      </trkpt>
      <trkpt lat="48.20495" lon="3.36248">
        <ele>195</ele>
        <time>2014-05-04T09:45:43.000Z</time>
      </trkpt>
      <trkpt lat="48.20499" lon="3.3625">
        <ele>194</ele>
        <time>2014-05-04T09:45:44.000Z</time>
      </trkpt>
      <trkpt lat="48.20501" lon="3.36252">
        <ele>194</ele>
        <time>2014-05-04T09:45:45.000Z</time>
      </trkpt>
      <trkpt lat="48.20505" lon="3.36252">
        <ele>194</ele>
        <time>2014-05-04T09:45:46.000Z</time>
      </trkpt>
      <trkpt lat="48.20507" lon="3.36255">
        <ele>194</ele>
        <time>2014-05-04T09:45:51.000Z</time>
      </trkpt>
      <trkpt lat="48.20515" lon="3.36248">
        <ele>192</ele>
        <time>2014-05-04T09:45:52.000Z</time>
      </trkpt>
      <trkpt lat="48.20515" lon="3.36248">
        <ele>192</ele>
        <time>2014-05-04T09:45:54.000Z</time>
      </trkpt>
      <trkpt lat="48.20523" lon="3.36244">
        <ele>192</ele>
        <time>2014-05-04T09:45:55.000Z</time>
      </trkpt>
      <trkpt lat="48.20528" lon="3.3624">
        <ele>191</ele>
        <time>2014-05-04T09:45:56.000Z</time>
      </trkpt>
      <trkpt lat="48.20533" lon="3.3624">
        <ele>191</ele>
        <time>2014-05-04T09:45:57.000Z</time>
      </trkpt>
      <trkpt lat="48.20538" lon="3.36237">
        <ele>191</ele>
        <time>2014-05-04T09:45:58.000Z</time>
      </trkpt>
      <trkpt lat="48.20544" lon="3.36235">
        <ele>190</ele>
        <time>2014-05-04T09:45:59.000Z</time>
      </trkpt>
      <trkpt lat="48.20551" lon="3.36233">
        <ele>190</ele>
        <time>2014-05-04T09:46:00.000Z</time>
      </trkpt>
      <trkpt lat="48.20557" lon="3.36231">
        <ele>190</ele>
        <time>2014-05-04T09:46:01.000Z</time>
      </trkpt>
      <trkpt lat="48.20564" lon="3.36229">
        <ele>189</ele>
        <time>2014-05-04T09:46:02.000Z</time>
      </trkpt>
      <trkpt lat="48.20571" lon="3.36229">
        <ele>189</ele>
        <time>2014-05-04T09:46:03.000Z</time>
      </trkpt>
      <trkpt lat="48.20579" lon="3.36227">
        <ele>189</ele>
        <time>2014-05-04T09:46:04.000Z</time>
      </trkpt>
      <trkpt lat="48.20585" lon="3.36227">
        <ele>186</ele>
        <time>2014-05-04T09:46:05.000Z</time>
      </trkpt>
      <trkpt lat="48.20592" lon="3.36225">
        <ele>186</ele>
        <time>2014-05-04T09:46:06.000Z</time>
      </trkpt>
      <trkpt lat="48.20598" lon="3.36225">
        <ele>186</ele>
        <time>2014-05-04T09:46:07.000Z</time>
      </trkpt>
      <trkpt lat="48.20603" lon="3.36225">
        <ele>186</ele>
        <time>2014-05-04T09:46:08.000Z</time>
      </trkpt>
      <trkpt lat="48.20609" lon="3.36225">
        <ele>185</ele>
        <time>2014-05-04T09:46:09.000Z</time>
      </trkpt>
      <trkpt lat="48.20614" lon="3.36227">
        <ele>185</ele>
        <time>2014-05-04T09:46:10.000Z</time>
      </trkpt>
      <trkpt lat="48.20618" lon="3.36229">
        <ele>185</ele>
        <time>2014-05-04T09:46:11.000Z</time>
      </trkpt>
      <trkpt lat="48.20623" lon="3.36231">
        <ele>185</ele>
        <time>2014-05-04T09:46:12.000Z</time>
      </trkpt>
      <trkpt lat="48.20627" lon="3.36231">
        <ele>185</ele>
        <time>2014-05-04T09:46:13.000Z</time>
      </trkpt>
      <trkpt lat="48.20629" lon="3.36231">
        <ele>185</ele>
        <time>2014-05-04T09:46:14.000Z</time>
      </trkpt>
      <trkpt lat="48.20632" lon="3.36233">
        <ele>185</ele>
        <time>2014-05-04T09:46:15.000Z</time>
      </trkpt>
      <trkpt lat="48.20634" lon="3.36233">
        <ele>185</ele>
        <time>2014-05-04T09:46:16.000Z</time>
      </trkpt>
      <trkpt lat="48.20638" lon="3.36233">
        <ele>185</ele>
        <time>2014-05-04T09:46:18.000Z</time>
      </trkpt>
      <trkpt lat="48.2064" lon="3.36233">
        <ele>185</ele>
        <time>2014-05-04T09:46:19.000Z</time>
      </trkpt>
      <trkpt lat="48.20642" lon="3.36233">
        <ele>185</ele>
        <time>2014-05-04T09:46:20.000Z</time>
      </trkpt>
      <trkpt lat="48.20644" lon="3.36235">
        <ele>185</ele>
        <time>2014-05-04T09:46:21.000Z</time>
      </trkpt>
      <trkpt lat="48.20646" lon="3.36235">
        <ele>185</ele>
        <time>2014-05-04T09:46:22.000Z</time>
      </trkpt>
      <trkpt lat="48.20651" lon="3.36237">
        <ele>185</ele>
        <time>2014-05-04T09:46:23.000Z</time>
      </trkpt>
      <trkpt lat="48.20655" lon="3.36237">
        <ele>185</ele>
        <time>2014-05-04T09:46:24.000Z</time>
      </trkpt>
      <trkpt lat="48.20658" lon="3.3624">
        <ele>185</ele>
        <time>2014-05-04T09:46:25.000Z</time>
      </trkpt>
      <trkpt lat="48.20661" lon="3.3624">
        <ele>185</ele>
        <time>2014-05-04T09:46:26.000Z</time>
      </trkpt>
      <trkpt lat="48.20665" lon="3.36242">
        <ele>185</ele>
        <time>2014-05-04T09:46:27.000Z</time>
      </trkpt>
      <trkpt lat="48.20668" lon="3.36244">
        <ele>183</ele>
        <time>2014-05-04T09:46:28.000Z</time>
      </trkpt>
      <trkpt lat="48.20671" lon="3.36246">
        <ele>183</ele>
        <time>2014-05-04T09:46:29.000Z</time>
      </trkpt>
      <trkpt lat="48.20674" lon="3.36248">
        <ele>183</ele>
        <time>2014-05-04T09:46:30.000Z</time>
      </trkpt>
      <trkpt lat="48.20676" lon="3.3625">
        <ele>183</ele>
        <time>2014-05-04T09:46:31.000Z</time>
      </trkpt>
      <trkpt lat="48.2068" lon="3.36255">
        <ele>183</ele>
        <time>2014-05-04T09:46:32.000Z</time>
      </trkpt>
      <trkpt lat="48.20683" lon="3.36257">
        <ele>182</ele>
        <time>2014-05-04T09:46:33.000Z</time>
      </trkpt>
      <trkpt lat="48.20686" lon="3.36259">
        <ele>182</ele>
        <time>2014-05-04T09:46:34.000Z</time>
      </trkpt>
      <trkpt lat="48.20689" lon="3.36263">
        <ele>181</ele>
        <time>2014-05-04T09:46:35.000Z</time>
      </trkpt>
      <trkpt lat="48.20693" lon="3.36265">
        <ele>181</ele>
        <time>2014-05-04T09:46:36.000Z</time>
      </trkpt>
      <trkpt lat="48.20698" lon="3.3627">
        <ele>180</ele>
        <time>2014-05-04T09:46:37.000Z</time>
      </trkpt>
      <trkpt lat="48.20702" lon="3.36272">
        <ele>180</ele>
        <time>2014-05-04T09:46:38.000Z</time>
      </trkpt>
      <trkpt lat="48.20707" lon="3.36274">
        <ele>180</ele>
        <time>2014-05-04T09:46:39.000Z</time>
      </trkpt>
      <trkpt lat="48.20712" lon="3.36276">
        <ele>179</ele>
        <time>2014-05-04T09:46:40.000Z</time>
      </trkpt>
      <trkpt lat="48.20717" lon="3.3628">
        <ele>179</ele>
        <time>2014-05-04T09:46:41.000Z</time>
      </trkpt>
      <trkpt lat="48.20721" lon="3.36282">
        <ele>179</ele>
        <time>2014-05-04T09:46:42.000Z</time>
      </trkpt>
      <trkpt lat="48.20727" lon="3.36287">
        <ele>178</ele>
        <time>2014-05-04T09:46:43.000Z</time>
      </trkpt>
      <trkpt lat="48.20731" lon="3.36289">
        <ele>178</ele>
        <time>2014-05-04T09:46:44.000Z</time>
      </trkpt>
      <trkpt lat="48.20736" lon="3.36291">
        <ele>178</ele>
        <time>2014-05-04T09:46:45.000Z</time>
      </trkpt>
      <trkpt lat="48.20742" lon="3.36293">
        <ele>178</ele>
        <time>2014-05-04T09:46:46.000Z</time>
      </trkpt>
      <trkpt lat="48.20746" lon="3.36295">
        <ele>178</ele>
        <time>2014-05-04T09:46:47.000Z</time>
      </trkpt>
      <trkpt lat="48.20751" lon="3.36298">
        <ele>170</ele>
        <time>2014-05-04T09:46:48.000Z</time>
      </trkpt>
      <trkpt lat="48.20757" lon="3.363">
        <ele>170</ele>
        <time>2014-05-04T09:46:49.000Z</time>
      </trkpt>
      <trkpt lat="48.20762" lon="3.363">
        <ele>170</ele>
        <time>2014-05-04T09:46:50.000Z</time>
      </trkpt>
      <trkpt lat="48.20768" lon="3.36302">
        <ele>170</ele>
        <time>2014-05-04T09:46:51.000Z</time>
      </trkpt>
      <trkpt lat="48.20772" lon="3.36304">
        <ele>170</ele>
        <time>2014-05-04T09:46:52.000Z</time>
      </trkpt>
      <trkpt lat="48.20777" lon="3.36306">
        <ele>170</ele>
        <time>2014-05-04T09:46:53.000Z</time>
      </trkpt>
      <trkpt lat="48.20784" lon="3.36306">
        <ele>169</ele>
        <time>2014-05-04T09:46:54.000Z</time>
      </trkpt>
      <trkpt lat="48.20789" lon="3.36308">
        <ele>169</ele>
        <time>2014-05-04T09:46:55.000Z</time>
      </trkpt>
      <trkpt lat="48.20795" lon="3.36308">
        <ele>168</ele>
        <time>2014-05-04T09:46:56.000Z</time>
      </trkpt>
      <trkpt lat="48.20803" lon="3.36308">
        <ele>168</ele>
        <time>2014-05-04T09:46:57.000Z</time>
      </trkpt>
      <trkpt lat="48.2081" lon="3.3631">
        <ele>167</ele>
        <time>2014-05-04T09:46:58.000Z</time>
      </trkpt>
      <trkpt lat="48.20818" lon="3.3631">
        <ele>167</ele>
        <time>2014-05-04T09:46:59.000Z</time>
      </trkpt>
      <trkpt lat="48.20824" lon="3.36313">
        <ele>167</ele>
        <time>2014-05-04T09:47:00.000Z</time>
      </trkpt>
      <trkpt lat="48.20832" lon="3.36313">
        <ele>166</ele>
        <time>2014-05-04T09:47:01.000Z</time>
      </trkpt>
      <trkpt lat="48.20838" lon="3.36315">
        <ele>162</ele>
        <time>2014-05-04T09:47:02.000Z</time>
      </trkpt>
      <trkpt lat="48.20845" lon="3.36317">
        <ele>162</ele>
        <time>2014-05-04T09:47:03.000Z</time>
      </trkpt>
      <trkpt lat="48.20851" lon="3.36317">
        <ele>162</ele>
        <time>2014-05-04T09:47:04.000Z</time>
      </trkpt>
      <trkpt lat="48.20857" lon="3.36319">
        <ele>162</ele>
        <time>2014-05-04T09:47:05.000Z</time>
      </trkpt>
      <trkpt lat="48.20863" lon="3.36321">
        <ele>161</ele>
        <time>2014-05-04T09:47:06.000Z</time>
      </trkpt>
      <trkpt lat="48.20867" lon="3.36323">
        <ele>161</ele>
        <time>2014-05-04T09:47:07.000Z</time>
      </trkpt>
      <trkpt lat="48.20873" lon="3.36325">
        <ele>161</ele>
        <time>2014-05-04T09:47:08.000Z</time>
      </trkpt>
      <trkpt lat="48.20877" lon="3.36325">
        <ele>160</ele>
        <time>2014-05-04T09:47:09.000Z</time>
      </trkpt>
      <trkpt lat="48.20881" lon="3.36325">
        <ele>160</ele>
        <time>2014-05-04T09:47:10.000Z</time>
      </trkpt>
      <trkpt lat="48.20883" lon="3.36325">
        <ele>160</ele>
        <time>2014-05-04T09:47:11.000Z</time>
      </trkpt>
      <trkpt lat="48.20887" lon="3.36325">
        <ele>160</ele>
        <time>2014-05-04T09:47:12.000Z</time>
      </trkpt>
      <trkpt lat="48.20889" lon="3.36323">
        <ele>160</ele>
        <time>2014-05-04T09:47:13.000Z</time>
      </trkpt>
      <trkpt lat="48.20893" lon="3.36321">
        <ele>160</ele>
        <time>2014-05-04T09:47:14.000Z</time>
      </trkpt>
      <trkpt lat="48.20897" lon="3.36319">
        <ele>159</ele>
        <time>2014-05-04T09:47:15.000Z</time>
      </trkpt>
      <trkpt lat="48.20901" lon="3.36313">
        <ele>159</ele>
        <time>2014-05-04T09:47:16.000Z</time>
      </trkpt>
      <trkpt lat="48.20905" lon="3.36306">
        <ele>159</ele>
        <time>2014-05-04T09:47:17.000Z</time>
      </trkpt>
      <trkpt lat="48.2091" lon="3.36302">
        <ele>159</ele>
        <time>2014-05-04T09:47:18.000Z</time>
      </trkpt>
      <trkpt lat="48.20915" lon="3.36295">
        <ele>159</ele>
        <time>2014-05-04T09:47:19.000Z</time>
      </trkpt>
      <trkpt lat="48.20918" lon="3.36289">
        <ele>153</ele>
        <time>2014-05-04T09:47:20.000Z</time>
      </trkpt>
      <trkpt lat="48.20921" lon="3.36282">
        <ele>153</ele>
        <time>2014-05-04T09:47:21.000Z</time>
      </trkpt>
      <trkpt lat="48.20924" lon="3.36278">
        <ele>153</ele>
        <time>2014-05-04T09:47:22.000Z</time>
      </trkpt>
      <trkpt lat="48.20926" lon="3.36272">
        <ele>153</ele>
        <time>2014-05-04T09:47:23.000Z</time>
      </trkpt>
      <trkpt lat="48.2093" lon="3.36267">
        <ele>153</ele>
        <time>2014-05-04T09:47:24.000Z</time>
      </trkpt>
      <trkpt lat="48.20932" lon="3.36263">
        <ele>153</ele>
        <time>2014-05-04T09:47:25.000Z</time>
      </trkpt>
      <trkpt lat="48.20934" lon="3.36257">
        <ele>153</ele>
        <time>2014-05-04T09:47:26.000Z</time>
      </trkpt>
      <trkpt lat="48.20936" lon="3.36252">
        <ele>153</ele>
        <time>2014-05-04T09:47:27.000Z</time>
      </trkpt>
      <trkpt lat="48.20938" lon="3.36248">
        <ele>153</ele>
        <time>2014-05-04T09:47:28.000Z</time>
      </trkpt>
      <trkpt lat="48.2094" lon="3.36244">
        <ele>153</ele>
        <time>2014-05-04T09:47:29.000Z</time>
      </trkpt>
      <trkpt lat="48.20941" lon="3.36237">
        <ele>153</ele>
        <time>2014-05-04T09:47:30.000Z</time>
      </trkpt>
      <trkpt lat="48.20943" lon="3.36233">
        <ele>153</ele>
        <time>2014-05-04T09:47:31.000Z</time>
      </trkpt>
      <trkpt lat="48.20947" lon="3.36231">
        <ele>152</ele>
        <time>2014-05-04T09:47:32.000Z</time>
      </trkpt>
      <trkpt lat="48.20949" lon="3.36229">
        <ele>152</ele>
        <time>2014-05-04T09:47:33.000Z</time>
      </trkpt>
      <trkpt lat="48.20952" lon="3.36227">
        <ele>152</ele>
        <time>2014-05-04T09:47:34.000Z</time>
      </trkpt>
      <trkpt lat="48.20954" lon="3.36225">
        <ele>152</ele>
        <time>2014-05-04T09:47:35.000Z</time>
      </trkpt>
      <trkpt lat="48.20957" lon="3.36222">
        <ele>152</ele>
        <time>2014-05-04T09:47:36.000Z</time>
      </trkpt>
      <trkpt lat="48.20957" lon="3.36222">
        <ele>152</ele>
        <time>2014-05-04T09:47:39.000Z</time>
      </trkpt>
      <trkpt lat="48.20967" lon="3.36214">
        <ele>151</ele>
        <time>2014-05-04T09:47:40.000Z</time>
      </trkpt>
      <trkpt lat="48.20967" lon="3.36214">
        <ele>151</ele>
        <time>2014-05-04T09:47:42.000Z</time>
      </trkpt>
      <trkpt lat="48.20979" lon="3.3621">
        <ele>151</ele>
        <time>2014-05-04T09:47:43.000Z</time>
      </trkpt>
      <trkpt lat="48.20984" lon="3.36207">
        <ele>150</ele>
        <time>2014-05-04T09:47:44.000Z</time>
      </trkpt>
      <trkpt lat="48.20991" lon="3.36205">
        <ele>150</ele>
        <time>2014-05-04T09:47:45.000Z</time>
      </trkpt>
      <trkpt lat="48.20997" lon="3.36203">
        <ele>150</ele>
        <time>2014-05-04T09:47:46.000Z</time>
      </trkpt>
      <trkpt lat="48.21002" lon="3.36201">
        <ele>142</ele>
        <time>2014-05-04T09:47:47.000Z</time>
      </trkpt>
      <trkpt lat="48.21008" lon="3.36199">
        <ele>142</ele>
        <time>2014-05-04T09:47:48.000Z</time>
      </trkpt>
      <trkpt lat="48.21013" lon="3.36197">
        <ele>142</ele>
        <time>2014-05-04T09:47:49.000Z</time>
      </trkpt>
      <trkpt lat="48.21018" lon="3.36195">
        <ele>142</ele>
        <time>2014-05-04T09:47:50.000Z</time>
      </trkpt>
      <trkpt lat="48.21022" lon="3.36195">
        <ele>142</ele>
        <time>2014-05-04T09:47:51.000Z</time>
      </trkpt>
      <trkpt lat="48.21026" lon="3.36192">
        <ele>141</ele>
        <time>2014-05-04T09:47:52.000Z</time>
      </trkpt>
      <trkpt lat="48.2103" lon="3.36192">
        <ele>141</ele>
        <time>2014-05-04T09:47:53.000Z</time>
      </trkpt>
      <trkpt lat="48.21035" lon="3.3619">
        <ele>141</ele>
        <time>2014-05-04T09:47:54.000Z</time>
      </trkpt>
      <trkpt lat="48.21039" lon="3.36188">
        <ele>140</ele>
        <time>2014-05-04T09:47:55.000Z</time>
      </trkpt>
      <trkpt lat="48.21042" lon="3.36186">
        <ele>140</ele>
        <time>2014-05-04T09:47:56.000Z</time>
      </trkpt>
      <trkpt lat="48.21046" lon="3.36186">
        <ele>139</ele>
        <time>2014-05-04T09:47:57.000Z</time>
      </trkpt>
      <trkpt lat="48.2105" lon="3.36184">
        <ele>139</ele>
        <time>2014-05-04T09:47:58.000Z</time>
      </trkpt>
      <trkpt lat="48.21054" lon="3.36182">
        <ele>138</ele>
        <time>2014-05-04T09:47:59.000Z</time>
      </trkpt>
      <trkpt lat="48.21057" lon="3.36182">
        <ele>138</ele>
        <time>2014-05-04T09:48:00.000Z</time>
      </trkpt>
      <trkpt lat="48.21061" lon="3.36179">
        <ele>138</ele>
        <time>2014-05-04T09:48:01.000Z</time>
      </trkpt>
      <trkpt lat="48.21065" lon="3.36177">
        <ele>137</ele>
        <time>2014-05-04T09:48:02.000Z</time>
      </trkpt>
      <trkpt lat="48.21069" lon="3.36175">
        <ele>136</ele>
        <time>2014-05-04T09:48:03.000Z</time>
      </trkpt>
      <trkpt lat="48.21072" lon="3.36175">
        <ele>136</ele>
        <time>2014-05-04T09:48:04.000Z</time>
      </trkpt>
      <trkpt lat="48.21077" lon="3.36173">
        <ele>135</ele>
        <time>2014-05-04T09:48:05.000Z</time>
      </trkpt>
      <trkpt lat="48.21081" lon="3.36171">
        <ele>134</ele>
        <time>2014-05-04T09:48:06.000Z</time>
      </trkpt>
      <trkpt lat="48.21085" lon="3.36169">
        <ele>133</ele>
        <time>2014-05-04T09:48:07.000Z</time>
      </trkpt>
      <trkpt lat="48.2109" lon="3.36164">
        <ele>132</ele>
        <time>2014-05-04T09:48:08.000Z</time>
      </trkpt>
      <trkpt lat="48.21096" lon="3.36162">
        <ele>132</ele>
        <time>2014-05-04T09:48:09.000Z</time>
      </trkpt>
      <trkpt lat="48.21101" lon="3.3616">
        <ele>131</ele>
        <time>2014-05-04T09:48:10.000Z</time>
      </trkpt>
      <trkpt lat="48.21107" lon="3.36158">
        <ele>131</ele>
        <time>2014-05-04T09:48:11.000Z</time>
      </trkpt>
      <trkpt lat="48.21113" lon="3.36154">
        <ele>131</ele>
        <time>2014-05-04T09:48:12.000Z</time>
      </trkpt>
      <trkpt lat="48.21118" lon="3.36149">
        <ele>130</ele>
        <time>2014-05-04T09:48:13.000Z</time>
      </trkpt>
      <trkpt lat="48.21125" lon="3.36145">
        <ele>130</ele>
        <time>2014-05-04T09:48:14.000Z</time>
      </trkpt>
      <trkpt lat="48.21132" lon="3.36141">
        <ele>130</ele>
        <time>2014-05-04T09:48:15.000Z</time>
      </trkpt>
      <trkpt lat="48.21139" lon="3.36137">
        <ele>129</ele>
        <time>2014-05-04T09:48:16.000Z</time>
      </trkpt>
      <trkpt lat="48.21146" lon="3.3613">
        <ele>129</ele>
        <time>2014-05-04T09:48:17.000Z</time>
      </trkpt>
      <trkpt lat="48.21154" lon="3.36126">
        <ele>129</ele>
        <time>2014-05-04T09:48:18.000Z</time>
      </trkpt>
      <trkpt lat="48.21162" lon="3.36122">
        <ele>129</ele>
        <time>2014-05-04T09:48:19.000Z</time>
      </trkpt>
      <trkpt lat="48.2117" lon="3.36117">
        <ele>124</ele>
        <time>2014-05-04T09:48:20.000Z</time>
      </trkpt>
      <trkpt lat="48.21178" lon="3.36113">
        <ele>123</ele>
        <time>2014-05-04T09:48:21.000Z</time>
      </trkpt>
      <trkpt lat="48.21187" lon="3.36107">
        <ele>123</ele>
        <time>2014-05-04T09:48:22.000Z</time>
      </trkpt>
      <trkpt lat="48.21196" lon="3.36102">
        <ele>123</ele>
        <time>2014-05-04T09:48:23.000Z</time>
      </trkpt>
      <trkpt lat="48.21204" lon="3.36098">
        <ele>122</ele>
        <time>2014-05-04T09:48:24.000Z</time>
      </trkpt>
      <trkpt lat="48.21214" lon="3.36094">
        <ele>121</ele>
        <time>2014-05-04T09:48:25.000Z</time>
      </trkpt>
      <trkpt lat="48.21223" lon="3.36089">
        <ele>120</ele>
        <time>2014-05-04T09:48:26.000Z</time>
      </trkpt>
      <trkpt lat="48.21234" lon="3.36085">
        <ele>119</ele>
        <time>2014-05-04T09:48:27.000Z</time>
      </trkpt>
      <trkpt lat="48.21244" lon="3.36083">
        <ele>117</ele>
        <time>2014-05-04T09:48:28.000Z</time>
      </trkpt>
      <trkpt lat="48.21254" lon="3.36079">
        <ele>115</ele>
        <time>2014-05-04T09:48:29.000Z</time>
      </trkpt>
      <trkpt lat="48.21264" lon="3.36074">
        <ele>114</ele>
        <time>2014-05-04T09:48:30.000Z</time>
      </trkpt>
      <trkpt lat="48.21274" lon="3.3607">
        <ele>113</ele>
        <time>2014-05-04T09:48:31.000Z</time>
      </trkpt>
      <trkpt lat="48.21285" lon="3.36066">
        <ele>113</ele>
        <time>2014-05-04T09:48:32.000Z</time>
      </trkpt>
      <trkpt lat="48.21294" lon="3.36059">
        <ele>112</ele>
        <time>2014-05-04T09:48:33.000Z</time>
      </trkpt>
      <trkpt lat="48.21304" lon="3.36055">
        <ele>112</ele>
        <time>2014-05-04T09:48:34.000Z</time>
      </trkpt>
      <trkpt lat="48.21315" lon="3.36051">
        <ele>112</ele>
        <time>2014-05-04T09:48:35.000Z</time>
      </trkpt>
      <trkpt lat="48.21324" lon="3.36046">
        <ele>112</ele>
        <time>2014-05-04T09:48:36.000Z</time>
      </trkpt>
      <trkpt lat="48.21334" lon="3.36042">
        <ele>109</ele>
        <time>2014-05-04T09:48:37.000Z</time>
      </trkpt>
      <trkpt lat="48.21344" lon="3.36038">
        <ele>109</ele>
        <time>2014-05-04T09:48:38.000Z</time>
      </trkpt>
      <trkpt lat="48.21354" lon="3.36036">
        <ele>109</ele>
        <time>2014-05-04T09:48:39.000Z</time>
      </trkpt>
      <trkpt lat="48.21364" lon="3.36031">
        <ele>109</ele>
        <time>2014-05-04T09:48:40.000Z</time>
      </trkpt>
      <trkpt lat="48.21373" lon="3.36027">
        <ele>108</ele>
        <time>2014-05-04T09:48:41.000Z</time>
      </trkpt>
      <trkpt lat="48.21382" lon="3.36025">
        <ele>108</ele>
        <time>2014-05-04T09:48:42.000Z</time>
      </trkpt>
      <trkpt lat="48.2139" lon="3.36023">
        <ele>108</ele>
        <time>2014-05-04T09:48:43.000Z</time>
      </trkpt>
      <trkpt lat="48.21396" lon="3.36021">
        <ele>108</ele>
        <time>2014-05-04T09:48:44.000Z</time>
      </trkpt>
      <trkpt lat="48.21403" lon="3.36019">
        <ele>108</ele>
        <time>2014-05-04T09:48:45.000Z</time>
      </trkpt>
      <trkpt lat="48.21407" lon="3.36014">
        <ele>107</ele>
        <time>2014-05-04T09:48:46.000Z</time>
      </trkpt>
      <trkpt lat="48.21409" lon="3.3601">
        <ele>107</ele>
        <time>2014-05-04T09:48:47.000Z</time>
      </trkpt>
      <trkpt lat="48.2141" lon="3.36001">
        <ele>107</ele>
        <time>2014-05-04T09:48:48.000Z</time>
      </trkpt>
      <trkpt lat="48.2141" lon="3.35993">
        <ele>106</ele>
        <time>2014-05-04T09:48:49.000Z</time>
      </trkpt>
      <trkpt lat="48.21409" lon="3.35984">
        <ele>106</ele>
        <time>2014-05-04T09:48:50.000Z</time>
      </trkpt>
      <trkpt lat="48.21408" lon="3.35976">
        <ele>106</ele>
        <time>2014-05-04T09:48:51.000Z</time>
      </trkpt>
      <trkpt lat="48.21407" lon="3.35967">
        <ele>106</ele>
        <time>2014-05-04T09:48:52.000Z</time>
      </trkpt>
      <trkpt lat="48.21404" lon="3.35958">
        <ele>106</ele>
        <time>2014-05-04T09:48:53.000Z</time>
      </trkpt>
      <trkpt lat="48.21399" lon="3.35952">
        <ele>106</ele>
        <time>2014-05-04T09:48:54.000Z</time>
      </trkpt>
      <trkpt lat="48.21396" lon="3.35943">
        <ele>105</ele>
        <time>2014-05-04T09:48:55.000Z</time>
      </trkpt>
      <trkpt lat="48.21392" lon="3.35937">
        <ele>105</ele>
        <time>2014-05-04T09:48:56.000Z</time>
      </trkpt>
      <trkpt lat="48.21389" lon="3.35928">
        <ele>105</ele>
        <time>2014-05-04T09:48:57.000Z</time>
      </trkpt>
      <trkpt lat="48.21386" lon="3.35922">
        <ele>105</ele>
        <time>2014-05-04T09:48:58.000Z</time>
      </trkpt>
      <trkpt lat="48.21382" lon="3.35916">
        <ele>105</ele>
        <time>2014-05-04T09:48:59.000Z</time>
      </trkpt>
      <trkpt lat="48.21379" lon="3.35909">
        <ele>105</ele>
        <time>2014-05-04T09:49:00.000Z</time>
      </trkpt>
      <trkpt lat="48.21376" lon="3.35901">
        <ele>105</ele>
        <time>2014-05-04T09:49:01.000Z</time>
      </trkpt>
      <trkpt lat="48.21373" lon="3.35894">
        <ele>105</ele>
        <time>2014-05-04T09:49:02.000Z</time>
      </trkpt>
      <trkpt lat="48.21369" lon="3.3589">
        <ele>105</ele>
        <time>2014-05-04T09:49:03.000Z</time>
      </trkpt>
      <trkpt lat="48.21366" lon="3.35883">
        <ele>105</ele>
        <time>2014-05-04T09:49:04.000Z</time>
      </trkpt>
      <trkpt lat="48.21363" lon="3.35877">
        <ele>105</ele>
        <time>2014-05-04T09:49:05.000Z</time>
      </trkpt>
      <trkpt lat="48.21359" lon="3.35873">
        <ele>105</ele>
        <time>2014-05-04T09:49:06.000Z</time>
      </trkpt>
      <trkpt lat="48.21355" lon="3.35868">
        <ele>105</ele>
        <time>2014-05-04T09:49:07.000Z</time>
      </trkpt>
      <trkpt lat="48.21351" lon="3.35862">
        <ele>105</ele>
        <time>2014-05-04T09:49:08.000Z</time>
      </trkpt>
      <trkpt lat="48.21347" lon="3.35858">
        <ele>105</ele>
        <time>2014-05-04T09:49:09.000Z</time>
      </trkpt>
      <trkpt lat="48.21343" lon="3.35851">
        <ele>105</ele>
        <time>2014-05-04T09:49:10.000Z</time>
      </trkpt>
      <trkpt lat="48.21339" lon="3.35847">
        <ele>105</ele>
        <time>2014-05-04T09:49:11.000Z</time>
      </trkpt>
      <trkpt lat="48.21335" lon="3.3584">
        <ele>106</ele>
        <time>2014-05-04T09:49:12.000Z</time>
      </trkpt>
      <trkpt lat="48.21332" lon="3.35834">
        <ele>106</ele>
        <time>2014-05-04T09:49:13.000Z</time>
      </trkpt>
      <trkpt lat="48.21329" lon="3.35828">
        <ele>106</ele>
        <time>2014-05-04T09:49:14.000Z</time>
      </trkpt>
      <trkpt lat="48.21324" lon="3.35821">
        <ele>106</ele>
        <time>2014-05-04T09:49:15.000Z</time>
      </trkpt>
      <trkpt lat="48.21321" lon="3.35815">
        <ele>106</ele>
        <time>2014-05-04T09:49:16.000Z</time>
      </trkpt>
      <trkpt lat="48.21317" lon="3.3581">
        <ele>106</ele>
        <time>2014-05-04T09:49:17.000Z</time>
      </trkpt>
      <trkpt lat="48.21314" lon="3.35804">
        <ele>106</ele>
        <time>2014-05-04T09:49:18.000Z</time>
      </trkpt>
      <trkpt lat="48.21309" lon="3.35798">
        <ele>106</ele>
        <time>2014-05-04T09:49:19.000Z</time>
      </trkpt>
      <trkpt lat="48.21305" lon="3.35791">
        <ele>106</ele>
        <time>2014-05-04T09:49:20.000Z</time>
      </trkpt>
      <trkpt lat="48.21302" lon="3.35785">
        <ele>106</ele>
        <time>2014-05-04T09:49:21.000Z</time>
      </trkpt>
      <trkpt lat="48.21298" lon="3.35778">
        <ele>106</ele>
        <time>2014-05-04T09:49:22.000Z</time>
      </trkpt>
      <trkpt lat="48.21294" lon="3.3577">
        <ele>106</ele>
        <time>2014-05-04T09:49:23.000Z</time>
      </trkpt>
      <trkpt lat="48.2129" lon="3.35763">
        <ele>106</ele>
        <time>2014-05-04T09:49:24.000Z</time>
      </trkpt>
      <trkpt lat="48.21286" lon="3.35755">
        <ele>106</ele>
        <time>2014-05-04T09:49:25.000Z</time>
      </trkpt>
      <trkpt lat="48.21281" lon="3.35746">
        <ele>104</ele>
        <time>2014-05-04T09:49:26.000Z</time>
      </trkpt>
      <trkpt lat="48.21277" lon="3.35735">
        <ele>105</ele>
        <time>2014-05-04T09:49:27.000Z</time>
      </trkpt>
      <trkpt lat="48.21274" lon="3.35727">
        <ele>104</ele>
        <time>2014-05-04T09:49:28.000Z</time>
      </trkpt>
      <trkpt lat="48.2127" lon="3.35718">
        <ele>104</ele>
        <time>2014-05-04T09:49:29.000Z</time>
      </trkpt>
      <trkpt lat="48.21266" lon="3.3571">
        <ele>104</ele>
        <time>2014-05-04T09:49:30.000Z</time>
      </trkpt>
      <trkpt lat="48.21263" lon="3.35701">
        <ele>104</ele>
        <time>2014-05-04T09:49:31.000Z</time>
      </trkpt>
      <trkpt lat="48.2126" lon="3.35692">
        <ele>104</ele>
        <time>2014-05-04T09:49:32.000Z</time>
      </trkpt>
      <trkpt lat="48.21257" lon="3.35684">
        <ele>105</ele>
        <time>2014-05-04T09:49:33.000Z</time>
      </trkpt>
      <trkpt lat="48.21254" lon="3.35673">
        <ele>105</ele>
        <time>2014-05-04T09:49:34.000Z</time>
      </trkpt>
      <trkpt lat="48.2125" lon="3.35665">
        <ele>105</ele>
        <time>2014-05-04T09:49:35.000Z</time>
      </trkpt>
      <trkpt lat="48.21246" lon="3.35656">
        <ele>106</ele>
        <time>2014-05-04T09:49:36.000Z</time>
      </trkpt>
      <trkpt lat="48.21242" lon="3.35647">
        <ele>107</ele>
        <time>2014-05-04T09:49:37.000Z</time>
      </trkpt>
      <trkpt lat="48.21237" lon="3.35639">
        <ele>107</ele>
        <time>2014-05-04T09:49:38.000Z</time>
      </trkpt>
      <trkpt lat="48.21233" lon="3.3563">
        <ele>108</ele>
        <time>2014-05-04T09:49:39.000Z</time>
      </trkpt>
      <trkpt lat="48.21229" lon="3.35622">
        <ele>108</ele>
        <time>2014-05-04T09:49:40.000Z</time>
      </trkpt>
      <trkpt lat="48.21223" lon="3.35613">
        <ele>108</ele>
        <time>2014-05-04T09:49:41.000Z</time>
      </trkpt>
      <trkpt lat="48.21219" lon="3.35604">
        <ele>108</ele>
        <time>2014-05-04T09:49:42.000Z</time>
      </trkpt>
      <trkpt lat="48.21215" lon="3.35594">
        <ele>108</ele>
        <time>2014-05-04T09:49:43.000Z</time>
      </trkpt>
      <trkpt lat="48.21211" lon="3.35585">
        <ele>108</ele>
        <time>2014-05-04T09:49:44.000Z</time>
      </trkpt>
      <trkpt lat="48.21206" lon="3.35579">
        <ele>108</ele>
        <time>2014-05-04T09:49:45.000Z</time>
      </trkpt>
      <trkpt lat="48.21202" lon="3.3557">
        <ele>108</ele>
        <time>2014-05-04T09:49:46.000Z</time>
      </trkpt>
      <trkpt lat="48.21198" lon="3.35564">
        <ele>108</ele>
        <time>2014-05-04T09:49:47.000Z</time>
      </trkpt>
      <trkpt lat="48.21195" lon="3.35555">
        <ele>108</ele>
        <time>2014-05-04T09:49:48.000Z</time>
      </trkpt>
      <trkpt lat="48.21191" lon="3.35546">
        <ele>108</ele>
        <time>2014-05-04T09:49:49.000Z</time>
      </trkpt>
      <trkpt lat="48.21189" lon="3.3554">
        <ele>108</ele>
        <time>2014-05-04T09:49:50.000Z</time>
      </trkpt>
      <trkpt lat="48.21187" lon="3.35534">
        <ele>107</ele>
        <time>2014-05-04T09:49:51.000Z</time>
      </trkpt>
      <trkpt lat="48.21184" lon="3.35525">
        <ele>107</ele>
        <time>2014-05-04T09:49:52.000Z</time>
      </trkpt>
      <trkpt lat="48.21182" lon="3.35519">
        <ele>107</ele>
        <time>2014-05-04T09:49:53.000Z</time>
      </trkpt>
      <trkpt lat="48.2118" lon="3.3551">
        <ele>107</ele>
        <time>2014-05-04T09:49:54.000Z</time>
      </trkpt>
      <trkpt lat="48.21177" lon="3.35504">
        <ele>107</ele>
        <time>2014-05-04T09:49:55.000Z</time>
      </trkpt>
      <trkpt lat="48.21175" lon="3.35495">
        <ele>106</ele>
        <time>2014-05-04T09:49:56.000Z</time>
      </trkpt>
      <trkpt lat="48.21173" lon="3.35489">
        <ele>106</ele>
        <time>2014-05-04T09:49:57.000Z</time>
      </trkpt>
      <trkpt lat="48.21171" lon="3.35482">
        <ele>106</ele>
        <time>2014-05-04T09:49:58.000Z</time>
      </trkpt>
      <trkpt lat="48.21169" lon="3.35474">
        <ele>105</ele>
        <time>2014-05-04T09:49:59.000Z</time>
      </trkpt>
      <trkpt lat="48.21168" lon="3.35467">
        <ele>105</ele>
        <time>2014-05-04T09:50:00.000Z</time>
      </trkpt>
      <trkpt lat="48.21166" lon="3.35461">
        <ele>106</ele>
        <time>2014-05-04T09:50:01.000Z</time>
      </trkpt>
      <trkpt lat="48.21163" lon="3.35452">
        <ele>106</ele>
        <time>2014-05-04T09:50:02.000Z</time>
      </trkpt>
      <trkpt lat="48.21161" lon="3.35446">
        <ele>106</ele>
        <time>2014-05-04T09:50:03.000Z</time>
      </trkpt>
      <trkpt lat="48.21159" lon="3.35439">
        <ele>106</ele>
        <time>2014-05-04T09:50:04.000Z</time>
      </trkpt>
      <trkpt lat="48.21157" lon="3.35431">
        <ele>105</ele>
        <time>2014-05-04T09:50:05.000Z</time>
      </trkpt>
      <trkpt lat="48.21155" lon="3.35424">
        <ele>105</ele>
        <time>2014-05-04T09:50:06.000Z</time>
      </trkpt>
      <trkpt lat="48.21153" lon="3.35418">
        <ele>105</ele>
        <time>2014-05-04T09:50:07.000Z</time>
      </trkpt>
      <trkpt lat="48.21151" lon="3.35409">
        <ele>104</ele>
        <time>2014-05-04T09:50:08.000Z</time>
      </trkpt>
      <trkpt lat="48.21149" lon="3.35403">
        <ele>104</ele>
        <time>2014-05-04T09:50:09.000Z</time>
      </trkpt>
      <trkpt lat="48.21147" lon="3.35396">
        <ele>105</ele>
        <time>2014-05-04T09:50:10.000Z</time>
      </trkpt>
      <trkpt lat="48.21145" lon="3.35388">
        <ele>105</ele>
        <time>2014-05-04T09:50:11.000Z</time>
      </trkpt>
      <trkpt lat="48.21143" lon="3.35381">
        <ele>105</ele>
        <time>2014-05-04T09:50:12.000Z</time>
      </trkpt>
      <trkpt lat="48.21141" lon="3.35373">
        <ele>105</ele>
        <time>2014-05-04T09:50:13.000Z</time>
      </trkpt>
      <trkpt lat="48.2114" lon="3.35366">
        <ele>104</ele>
        <time>2014-05-04T09:50:14.000Z</time>
      </trkpt>
      <trkpt lat="48.21139" lon="3.35358">
        <ele>104</ele>
        <time>2014-05-04T09:50:15.000Z</time>
      </trkpt>
      <trkpt lat="48.21138" lon="3.35349">
        <ele>104</ele>
        <time>2014-05-04T09:50:16.000Z</time>
      </trkpt>
      <trkpt lat="48.21137" lon="3.3534">
        <ele>104</ele>
        <time>2014-05-04T09:50:17.000Z</time>
      </trkpt>
      <trkpt lat="48.21137" lon="3.35332">
        <ele>104</ele>
        <time>2014-05-04T09:50:18.000Z</time>
      </trkpt>
      <trkpt lat="48.21136" lon="3.35323">
        <ele>104</ele>
        <time>2014-05-04T09:50:19.000Z</time>
      </trkpt>
      <trkpt lat="48.21134" lon="3.35317">
        <ele>104</ele>
        <time>2014-05-04T09:50:20.000Z</time>
      </trkpt>
      <trkpt lat="48.21134" lon="3.35306">
        <ele>104</ele>
        <time>2014-05-04T09:50:21.000Z</time>
      </trkpt>
      <trkpt lat="48.21133" lon="3.35298">
        <ele>104</ele>
        <time>2014-05-04T09:50:22.000Z</time>
      </trkpt>
      <trkpt lat="48.21133" lon="3.35289">
        <ele>104</ele>
        <time>2014-05-04T09:50:23.000Z</time>
      </trkpt>
      <trkpt lat="48.21133" lon="3.3528">
        <ele>104</ele>
        <time>2014-05-04T09:50:24.000Z</time>
      </trkpt>
      <trkpt lat="48.21132" lon="3.35272">
        <ele>104</ele>
        <time>2014-05-04T09:50:25.000Z</time>
      </trkpt>
      <trkpt lat="48.21131" lon="3.35263">
        <ele>104</ele>
        <time>2014-05-04T09:50:26.000Z</time>
      </trkpt>
      <trkpt lat="48.21131" lon="3.35255">
        <ele>104</ele>
        <time>2014-05-04T09:50:27.000Z</time>
      </trkpt>
      <trkpt lat="48.2113" lon="3.35246">
        <ele>103</ele>
        <time>2014-05-04T09:50:28.000Z</time>
      </trkpt>
      <trkpt lat="48.21129" lon="3.35238">
        <ele>103</ele>
        <time>2014-05-04T09:50:29.000Z</time>
      </trkpt>
      <trkpt lat="48.21128" lon="3.35229">
        <ele>103</ele>
        <time>2014-05-04T09:50:30.000Z</time>
      </trkpt>
      <trkpt lat="48.21127" lon="3.35218">
        <ele>103</ele>
        <time>2014-05-04T09:50:31.000Z</time>
      </trkpt>
      <trkpt lat="48.21125" lon="3.3521">
        <ele>103</ele>
        <time>2014-05-04T09:50:32.000Z</time>
      </trkpt>
      <trkpt lat="48.21124" lon="3.35199">
        <ele>102</ele>
        <time>2014-05-04T09:50:33.000Z</time>
      </trkpt>
      <trkpt lat="48.21122" lon="3.3519">
        <ele>102</ele>
        <time>2014-05-04T09:50:34.000Z</time>
      </trkpt>
      <trkpt lat="48.21121" lon="3.35182">
        <ele>102</ele>
        <time>2014-05-04T09:50:35.000Z</time>
      </trkpt>
      <trkpt lat="48.21118" lon="3.35171">
        <ele>102</ele>
        <time>2014-05-04T09:50:36.000Z</time>
      </trkpt>
      <trkpt lat="48.21116" lon="3.35162">
        <ele>101</ele>
        <time>2014-05-04T09:50:37.000Z</time>
      </trkpt>
      <trkpt lat="48.21114" lon="3.35154">
        <ele>101</ele>
        <time>2014-05-04T09:50:38.000Z</time>
      </trkpt>
      <trkpt lat="48.21111" lon="3.35143">
        <ele>101</ele>
        <time>2014-05-04T09:50:39.000Z</time>
      </trkpt>
      <trkpt lat="48.21109" lon="3.35135">
        <ele>101</ele>
        <time>2014-05-04T09:50:40.000Z</time>
      </trkpt>
      <trkpt lat="48.21105" lon="3.35126">
        <ele>101</ele>
        <time>2014-05-04T09:50:41.000Z</time>
      </trkpt>
      <trkpt lat="48.21103" lon="3.35115">
        <ele>101</ele>
        <time>2014-05-04T09:50:42.000Z</time>
      </trkpt>
      <trkpt lat="48.211" lon="3.35107">
        <ele>101</ele>
        <time>2014-05-04T09:50:43.000Z</time>
      </trkpt>
      <trkpt lat="48.21097" lon="3.35096">
        <ele>101</ele>
        <time>2014-05-04T09:50:44.000Z</time>
      </trkpt>
      <trkpt lat="48.21095" lon="3.35087">
        <ele>101</ele>
        <time>2014-05-04T09:50:45.000Z</time>
      </trkpt>
      <trkpt lat="48.21092" lon="3.35077">
        <ele>100</ele>
        <time>2014-05-04T09:50:46.000Z</time>
      </trkpt>
      <trkpt lat="48.21088" lon="3.35068">
        <ele>100</ele>
        <time>2014-05-04T09:50:47.000Z</time>
      </trkpt>
      <trkpt lat="48.21085" lon="3.35057">
        <ele>100</ele>
        <time>2014-05-04T09:50:48.000Z</time>
      </trkpt>
      <trkpt lat="48.21083" lon="3.35049">
        <ele>101</ele>
        <time>2014-05-04T09:50:49.000Z</time>
      </trkpt>
      <trkpt lat="48.2108" lon="3.35038">
        <ele>101</ele>
        <time>2014-05-04T09:50:50.000Z</time>
      </trkpt>
      <trkpt lat="48.21077" lon="3.35029">
        <ele>101</ele>
        <time>2014-05-04T09:50:51.000Z</time>
      </trkpt>
      <trkpt lat="48.21073" lon="3.35019">
        <ele>101</ele>
        <time>2014-05-04T09:50:52.000Z</time>
      </trkpt>
      <trkpt lat="48.2107" lon="3.3501">
        <ele>100</ele>
        <time>2014-05-04T09:50:53.000Z</time>
      </trkpt>
      <trkpt lat="48.21067" lon="3.35001">
        <ele>100</ele>
        <time>2014-05-04T09:50:54.000Z</time>
      </trkpt>
      <trkpt lat="48.21064" lon="3.34991">
        <ele>100</ele>
        <time>2014-05-04T09:50:55.000Z</time>
      </trkpt>
      <trkpt lat="48.2106" lon="3.34982">
        <ele>100</ele>
        <time>2014-05-04T09:50:56.000Z</time>
      </trkpt>
      <trkpt lat="48.21058" lon="3.34974">
        <ele>100</ele>
        <time>2014-05-04T09:50:57.000Z</time>
      </trkpt>
      <trkpt lat="48.21055" lon="3.34965">
        <ele>100</ele>
        <time>2014-05-04T09:50:58.000Z</time>
      </trkpt>
      <trkpt lat="48.21052" lon="3.34956">
        <ele>100</ele>
        <time>2014-05-04T09:50:59.000Z</time>
      </trkpt>
      <trkpt lat="48.21049" lon="3.34948">
        <ele>100</ele>
        <time>2014-05-04T09:51:00.000Z</time>
      </trkpt>
      <trkpt lat="48.21045" lon="3.34941">
        <ele>100</ele>
        <time>2014-05-04T09:51:01.000Z</time>
      </trkpt>
      <trkpt lat="48.21043" lon="3.34933">
        <ele>100</ele>
        <time>2014-05-04T09:51:02.000Z</time>
      </trkpt>
      <trkpt lat="48.2104" lon="3.34924">
        <ele>100</ele>
        <time>2014-05-04T09:51:03.000Z</time>
      </trkpt>
      <trkpt lat="48.21038" lon="3.34916">
        <ele>100</ele>
        <time>2014-05-04T09:51:04.000Z</time>
      </trkpt>
      <trkpt lat="48.21035" lon="3.34907">
        <ele>100</ele>
        <time>2014-05-04T09:51:05.000Z</time>
      </trkpt>
      <trkpt lat="48.21031" lon="3.34898">
        <ele>100</ele>
        <time>2014-05-04T09:51:06.000Z</time>
      </trkpt>
      <trkpt lat="48.21029" lon="3.3489">
        <ele>100</ele>
        <time>2014-05-04T09:51:07.000Z</time>
      </trkpt>
      <trkpt lat="48.21026" lon="3.34881">
        <ele>100</ele>
        <time>2014-05-04T09:51:08.000Z</time>
      </trkpt>
      <trkpt lat="48.21023" lon="3.34875">
        <ele>100</ele>
        <time>2014-05-04T09:51:09.000Z</time>
      </trkpt>
      <trkpt lat="48.2102" lon="3.34866">
        <ele>101</ele>
        <time>2014-05-04T09:51:10.000Z</time>
      </trkpt>
      <trkpt lat="48.21016" lon="3.34858">
        <ele>101</ele>
        <time>2014-05-04T09:51:11.000Z</time>
      </trkpt>
      <trkpt lat="48.21013" lon="3.34849">
        <ele>101</ele>
        <time>2014-05-04T09:51:12.000Z</time>
      </trkpt>
      <trkpt lat="48.2101" lon="3.34841">
        <ele>101</ele>
        <time>2014-05-04T09:51:13.000Z</time>
      </trkpt>
      <trkpt lat="48.21007" lon="3.34832">
        <ele>101</ele>
        <time>2014-05-04T09:51:14.000Z</time>
      </trkpt>
      <trkpt lat="48.21004" lon="3.34823">
        <ele>101</ele>
        <time>2014-05-04T09:51:15.000Z</time>
      </trkpt>
      <trkpt lat="48.21" lon="3.34817">
        <ele>101</ele>
        <time>2014-05-04T09:51:16.000Z</time>
      </trkpt>
      <trkpt lat="48.20998" lon="3.34808">
        <ele>102</ele>
        <time>2014-05-04T09:51:17.000Z</time>
      </trkpt>
      <trkpt lat="48.20995" lon="3.348">
        <ele>102</ele>
        <time>2014-05-04T09:51:18.000Z</time>
      </trkpt>
      <trkpt lat="48.20992" lon="3.34791">
        <ele>102</ele>
        <time>2014-05-04T09:51:19.000Z</time>
      </trkpt>
      <trkpt lat="48.20989" lon="3.34785">
        <ele>102</ele>
        <time>2014-05-04T09:51:20.000Z</time>
      </trkpt>
      <trkpt lat="48.20985" lon="3.34776">
        <ele>102</ele>
        <time>2014-05-04T09:51:21.000Z</time>
      </trkpt>
      <trkpt lat="48.20983" lon="3.34768">
        <ele>101</ele>
        <time>2014-05-04T09:51:22.000Z</time>
      </trkpt>
      <trkpt lat="48.2098" lon="3.34761">
        <ele>101</ele>
        <time>2014-05-04T09:51:23.000Z</time>
      </trkpt>
      <trkpt lat="48.20977" lon="3.34753">
        <ele>101</ele>
        <time>2014-05-04T09:51:24.000Z</time>
      </trkpt>
      <trkpt lat="48.20974" lon="3.34744">
        <ele>100</ele>
        <time>2014-05-04T09:51:25.000Z</time>
      </trkpt>
      <trkpt lat="48.2097" lon="3.34735">
        <ele>100</ele>
        <time>2014-05-04T09:51:26.000Z</time>
      </trkpt>
      <trkpt lat="48.20968" lon="3.34727">
        <ele>100</ele>
        <time>2014-05-04T09:51:27.000Z</time>
      </trkpt>
      <trkpt lat="48.20965" lon="3.34718">
        <ele>100</ele>
        <time>2014-05-04T09:51:28.000Z</time>
      </trkpt>
      <trkpt lat="48.20962" lon="3.3471">
        <ele>99</ele>
        <time>2014-05-04T09:51:29.000Z</time>
      </trkpt>
      <trkpt lat="48.20958" lon="3.34701">
        <ele>99</ele>
        <time>2014-05-04T09:51:30.000Z</time>
      </trkpt>
      <trkpt lat="48.20955" lon="3.34692">
        <ele>99</ele>
        <time>2014-05-04T09:51:31.000Z</time>
      </trkpt>
      <trkpt lat="48.20952" lon="3.34684">
        <ele>99</ele>
        <time>2014-05-04T09:51:32.000Z</time>
      </trkpt>
      <trkpt lat="48.20949" lon="3.34675">
        <ele>99</ele>
        <time>2014-05-04T09:51:33.000Z</time>
      </trkpt>
      <trkpt lat="48.20946" lon="3.34665">
        <ele>98</ele>
        <time>2014-05-04T09:51:34.000Z</time>
      </trkpt>
      <trkpt lat="48.20942" lon="3.34656">
        <ele>98</ele>
        <time>2014-05-04T09:51:35.000Z</time>
      </trkpt>
      <trkpt lat="48.20939" lon="3.34647">
        <ele>98</ele>
        <time>2014-05-04T09:51:36.000Z</time>
      </trkpt>
      <trkpt lat="48.20935" lon="3.34637">
        <ele>98</ele>
        <time>2014-05-04T09:51:37.000Z</time>
      </trkpt>
      <trkpt lat="48.20932" lon="3.34628">
        <ele>98</ele>
        <time>2014-05-04T09:51:38.000Z</time>
      </trkpt>
      <trkpt lat="48.20928" lon="3.34617">
        <ele>98</ele>
        <time>2014-05-04T09:51:39.000Z</time>
      </trkpt>
      <trkpt lat="48.20925" lon="3.34609">
        <ele>98</ele>
        <time>2014-05-04T09:51:40.000Z</time>
      </trkpt>
      <trkpt lat="48.20922" lon="3.34598">
        <ele>98</ele>
        <time>2014-05-04T09:51:41.000Z</time>
      </trkpt>
      <trkpt lat="48.20919" lon="3.34589">
        <ele>98</ele>
        <time>2014-05-04T09:51:42.000Z</time>
      </trkpt>
      <trkpt lat="48.20915" lon="3.34579">
        <ele>98</ele>
        <time>2014-05-04T09:51:43.000Z</time>
      </trkpt>
      <trkpt lat="48.20911" lon="3.34568">
        <ele>99</ele>
        <time>2014-05-04T09:51:44.000Z</time>
      </trkpt>
      <trkpt lat="48.20908" lon="3.34557">
        <ele>99</ele>
        <time>2014-05-04T09:51:45.000Z</time>
      </trkpt>
      <trkpt lat="48.20904" lon="3.34547">
        <ele>99</ele>
        <time>2014-05-04T09:51:46.000Z</time>
      </trkpt>
      <trkpt lat="48.20901" lon="3.34538">
        <ele>99</ele>
        <time>2014-05-04T09:51:47.000Z</time>
      </trkpt>
      <trkpt lat="48.20897" lon="3.34527">
        <ele>99</ele>
        <time>2014-05-04T09:51:48.000Z</time>
      </trkpt>
      <trkpt lat="48.20893" lon="3.34517">
        <ele>99</ele>
        <time>2014-05-04T09:51:49.000Z</time>
      </trkpt>
      <trkpt lat="48.2089" lon="3.34506">
        <ele>99</ele>
        <time>2014-05-04T09:51:50.000Z</time>
      </trkpt>
      <trkpt lat="48.20887" lon="3.34497">
        <ele>98</ele>
        <time>2014-05-04T09:51:51.000Z</time>
      </trkpt>
      <trkpt lat="48.20882" lon="3.34486">
        <ele>98</ele>
        <time>2014-05-04T09:51:52.000Z</time>
      </trkpt>
      <trkpt lat="48.20879" lon="3.34478">
        <ele>98</ele>
        <time>2014-05-04T09:51:53.000Z</time>
      </trkpt>
      <trkpt lat="48.20876" lon="3.34467">
        <ele>98</ele>
        <time>2014-05-04T09:51:54.000Z</time>
      </trkpt>
      <trkpt lat="48.20872" lon="3.34456">
        <ele>98</ele>
        <time>2014-05-04T09:51:55.000Z</time>
      </trkpt>
      <trkpt lat="48.20868" lon="3.34446">
        <ele>98</ele>
        <time>2014-05-04T09:51:56.000Z</time>
      </trkpt>
      <trkpt lat="48.20865" lon="3.34433">
        <ele>98</ele>
        <time>2014-05-04T09:51:57.000Z</time>
      </trkpt>
      <trkpt lat="48.20861" lon="3.3442">
        <ele>99</ele>
        <time>2014-05-04T09:51:58.000Z</time>
      </trkpt>
      <trkpt lat="48.20858" lon="3.34407">
        <ele>98</ele>
        <time>2014-05-04T09:51:59.000Z</time>
      </trkpt>
      <trkpt lat="48.20853" lon="3.34394">
        <ele>97</ele>
        <time>2014-05-04T09:52:00.000Z</time>
      </trkpt>
      <trkpt lat="48.20849" lon="3.34381">
        <ele>97</ele>
        <time>2014-05-04T09:52:01.000Z</time>
      </trkpt>
      <trkpt lat="48.20845" lon="3.34368">
        <ele>97</ele>
        <time>2014-05-04T09:52:02.000Z</time>
      </trkpt>
      <trkpt lat="48.20842" lon="3.34356">
        <ele>97</ele>
        <time>2014-05-04T09:52:03.000Z</time>
      </trkpt>
      <trkpt lat="48.20837" lon="3.34341">
        <ele>97</ele>
        <time>2014-05-04T09:52:04.000Z</time>
      </trkpt>
      <trkpt lat="48.20834" lon="3.34328">
        <ele>97</ele>
        <time>2014-05-04T09:52:05.000Z</time>
      </trkpt>
      <trkpt lat="48.2083" lon="3.34313">
        <ele>99</ele>
        <time>2014-05-04T09:52:06.000Z</time>
      </trkpt>
      <trkpt lat="48.20827" lon="3.34298">
        <ele>99</ele>
        <time>2014-05-04T09:52:07.000Z</time>
      </trkpt>
      <trkpt lat="48.20823" lon="3.34283">
        <ele>99</ele>
        <time>2014-05-04T09:52:08.000Z</time>
      </trkpt>
      <trkpt lat="48.2082" lon="3.34268">
        <ele>99</ele>
        <time>2014-05-04T09:52:09.000Z</time>
      </trkpt>
      <trkpt lat="48.20817" lon="3.34255">
        <ele>98</ele>
        <time>2014-05-04T09:52:10.000Z</time>
      </trkpt>
      <trkpt lat="48.20814" lon="3.3424">
        <ele>98</ele>
        <time>2014-05-04T09:52:11.000Z</time>
      </trkpt>
      <trkpt lat="48.2081" lon="3.34227">
        <ele>98</ele>
        <time>2014-05-04T09:52:12.000Z</time>
      </trkpt>
      <trkpt lat="48.20807" lon="3.34214">
        <ele>98</ele>
        <time>2014-05-04T09:52:13.000Z</time>
      </trkpt>
      <trkpt lat="48.20804" lon="3.34201">
        <ele>98</ele>
        <time>2014-05-04T09:52:14.000Z</time>
      </trkpt>
      <trkpt lat="48.20801" lon="3.3419">
        <ele>98</ele>
        <time>2014-05-04T09:52:15.000Z</time>
      </trkpt>
      <trkpt lat="48.20798" lon="3.34177">
        <ele>98</ele>
        <time>2014-05-04T09:52:16.000Z</time>
      </trkpt>
      <trkpt lat="48.20794" lon="3.34167">
        <ele>98</ele>
        <time>2014-05-04T09:52:17.000Z</time>
      </trkpt>
      <trkpt lat="48.20792" lon="3.34156">
        <ele>97</ele>
        <time>2014-05-04T09:52:18.000Z</time>
      </trkpt>
      <trkpt lat="48.20789" lon="3.34145">
        <ele>97</ele>
        <time>2014-05-04T09:52:19.000Z</time>
      </trkpt>
      <trkpt lat="48.20787" lon="3.34137">
        <ele>97</ele>
        <time>2014-05-04T09:52:20.000Z</time>
      </trkpt>
      <trkpt lat="48.20784" lon="3.34126">
        <ele>98</ele>
        <time>2014-05-04T09:52:21.000Z</time>
      </trkpt>
      <trkpt lat="48.20781" lon="3.34117">
        <ele>98</ele>
        <time>2014-05-04T09:52:22.000Z</time>
      </trkpt>
      <trkpt lat="48.20779" lon="3.34107">
        <ele>98</ele>
        <time>2014-05-04T09:52:23.000Z</time>
      </trkpt>
      <trkpt lat="48.20777" lon="3.34098">
        <ele>98</ele>
        <time>2014-05-04T09:52:24.000Z</time>
      </trkpt>
      <trkpt lat="48.20775" lon="3.3409">
        <ele>98</ele>
        <time>2014-05-04T09:52:25.000Z</time>
      </trkpt>
      <trkpt lat="48.20772" lon="3.34081">
        <ele>98</ele>
        <time>2014-05-04T09:52:26.000Z</time>
      </trkpt>
      <trkpt lat="48.2077" lon="3.34072">
        <ele>98</ele>
        <time>2014-05-04T09:52:27.000Z</time>
      </trkpt>
      <trkpt lat="48.20768" lon="3.34064">
        <ele>98</ele>
        <time>2014-05-04T09:52:28.000Z</time>
      </trkpt>
      <trkpt lat="48.20765" lon="3.34055">
        <ele>98</ele>
        <time>2014-05-04T09:52:29.000Z</time>
      </trkpt>
      <trkpt lat="48.20763" lon="3.34047">
        <ele>98</ele>
        <time>2014-05-04T09:52:30.000Z</time>
      </trkpt>
      <trkpt lat="48.20761" lon="3.3404">
        <ele>98</ele>
        <time>2014-05-04T09:52:31.000Z</time>
      </trkpt>
      <trkpt lat="48.20759" lon="3.34032">
        <ele>98</ele>
        <time>2014-05-04T09:52:32.000Z</time>
      </trkpt>
      <trkpt lat="48.20758" lon="3.34025">
        <ele>99</ele>
        <time>2014-05-04T09:52:33.000Z</time>
      </trkpt>
      <trkpt lat="48.20756" lon="3.34017">
        <ele>99</ele>
        <time>2014-05-04T09:52:34.000Z</time>
      </trkpt>
      <trkpt lat="48.20754" lon="3.34008">
        <ele>99</ele>
        <time>2014-05-04T09:52:35.000Z</time>
      </trkpt>
      <trkpt lat="48.20753" lon="3.34002">
        <ele>100</ele>
        <time>2014-05-04T09:52:36.000Z</time>
      </trkpt>
      <trkpt lat="48.20751" lon="3.33995">
        <ele>100</ele>
        <time>2014-05-04T09:52:37.000Z</time>
      </trkpt>
      <trkpt lat="48.20749" lon="3.33987">
        <ele>102</ele>
        <time>2014-05-04T09:52:38.000Z</time>
      </trkpt>
      <trkpt lat="48.20748" lon="3.3398">
        <ele>103</ele>
        <time>2014-05-04T09:52:39.000Z</time>
      </trkpt>
      <trkpt lat="48.20747" lon="3.33972">
        <ele>104</ele>
        <time>2014-05-04T09:52:40.000Z</time>
      </trkpt>
      <trkpt lat="48.20746" lon="3.33965">
        <ele>104</ele>
        <time>2014-05-04T09:52:41.000Z</time>
      </trkpt>
      <trkpt lat="48.20745" lon="3.33959">
        <ele>104</ele>
        <time>2014-05-04T09:52:42.000Z</time>
      </trkpt>
      <trkpt lat="48.20744" lon="3.3395">
        <ele>104</ele>
        <time>2014-05-04T09:52:43.000Z</time>
      </trkpt>
      <trkpt lat="48.20744" lon="3.33944">
        <ele>104</ele>
        <time>2014-05-04T09:52:44.000Z</time>
      </trkpt>
      <trkpt lat="48.20743" lon="3.33935">
        <ele>104</ele>
        <time>2014-05-04T09:52:45.000Z</time>
      </trkpt>
      <trkpt lat="48.20742" lon="3.33929">
        <ele>103</ele>
        <time>2014-05-04T09:52:46.000Z</time>
      </trkpt>
      <trkpt lat="48.20742" lon="3.3392">
        <ele>103</ele>
        <time>2014-05-04T09:52:47.000Z</time>
      </trkpt>
      <trkpt lat="48.20741" lon="3.33914">
        <ele>103</ele>
        <time>2014-05-04T09:52:48.000Z</time>
      </trkpt>
      <trkpt lat="48.20741" lon="3.33905">
        <ele>104</ele>
        <time>2014-05-04T09:52:49.000Z</time>
      </trkpt>
      <trkpt lat="48.2074" lon="3.33899">
        <ele>105</ele>
        <time>2014-05-04T09:52:50.000Z</time>
      </trkpt>
      <trkpt lat="48.2074" lon="3.3389">
        <ele>105</ele>
        <time>2014-05-04T09:52:51.000Z</time>
      </trkpt>
      <trkpt lat="48.2074" lon="3.33884">
        <ele>106</ele>
        <time>2014-05-04T09:52:52.000Z</time>
      </trkpt>
      <trkpt lat="48.2074" lon="3.33877">
        <ele>106</ele>
        <time>2014-05-04T09:52:53.000Z</time>
      </trkpt>
      <trkpt lat="48.2074" lon="3.33869">
        <ele>106</ele>
        <time>2014-05-04T09:52:54.000Z</time>
      </trkpt>
      <trkpt lat="48.20739" lon="3.33862">
        <ele>106</ele>
        <time>2014-05-04T09:52:55.000Z</time>
      </trkpt>
      <trkpt lat="48.20739" lon="3.33856">
        <ele>106</ele>
        <time>2014-05-04T09:52:56.000Z</time>
      </trkpt>
      <trkpt lat="48.20739" lon="3.33849">
        <ele>105</ele>
        <time>2014-05-04T09:52:57.000Z</time>
      </trkpt>
      <trkpt lat="48.2074" lon="3.33843">
        <ele>105</ele>
        <time>2014-05-04T09:52:58.000Z</time>
      </trkpt>
      <trkpt lat="48.2074" lon="3.33834">
        <ele>105</ele>
        <time>2014-05-04T09:52:59.000Z</time>
      </trkpt>
      <trkpt lat="48.20741" lon="3.33828">
        <ele>105</ele>
        <time>2014-05-04T09:53:00.000Z</time>
      </trkpt>
      <trkpt lat="48.20741" lon="3.33821">
        <ele>105</ele>
        <time>2014-05-04T09:53:01.000Z</time>
      </trkpt>
      <trkpt lat="48.20742" lon="3.33813">
        <ele>105</ele>
        <time>2014-05-04T09:53:02.000Z</time>
      </trkpt>
      <trkpt lat="48.20742" lon="3.33806">
        <ele>106</ele>
        <time>2014-05-04T09:53:03.000Z</time>
      </trkpt>
      <trkpt lat="48.20743" lon="3.338">
        <ele>106</ele>
        <time>2014-05-04T09:53:04.000Z</time>
      </trkpt>
      <trkpt lat="48.20743" lon="3.33791">
        <ele>106</ele>
        <time>2014-05-04T09:53:05.000Z</time>
      </trkpt>
      <trkpt lat="48.20744" lon="3.33785">
        <ele>105</ele>
        <time>2014-05-04T09:53:06.000Z</time>
      </trkpt>
      <trkpt lat="48.20744" lon="3.33776">
        <ele>105</ele>
        <time>2014-05-04T09:53:07.000Z</time>
      </trkpt>
      <trkpt lat="48.20744" lon="3.33768">
        <ele>105</ele>
        <time>2014-05-04T09:53:08.000Z</time>
      </trkpt>
      <trkpt lat="48.20744" lon="3.33761">
        <ele>104</ele>
        <time>2014-05-04T09:53:09.000Z</time>
      </trkpt>
      <trkpt lat="48.20744" lon="3.33753">
        <ele>103</ele>
        <time>2014-05-04T09:53:10.000Z</time>
      </trkpt>
      <trkpt lat="48.20744" lon="3.33744">
        <ele>103</ele>
        <time>2014-05-04T09:53:11.000Z</time>
      </trkpt>
      <trkpt lat="48.20744" lon="3.33738">
        <ele>104</ele>
        <time>2014-05-04T09:53:12.000Z</time>
      </trkpt>
      <trkpt lat="48.20744" lon="3.33729">
        <ele>104</ele>
        <time>2014-05-04T09:53:13.000Z</time>
      </trkpt>
      <trkpt lat="48.20743" lon="3.33723">
        <ele>105</ele>
        <time>2014-05-04T09:53:14.000Z</time>
      </trkpt>
      <trkpt lat="48.20743" lon="3.33714">
        <ele>105</ele>
        <time>2014-05-04T09:53:15.000Z</time>
      </trkpt>
      <trkpt lat="48.20743" lon="3.33705">
        <ele>105</ele>
        <time>2014-05-04T09:53:16.000Z</time>
      </trkpt>
      <trkpt lat="48.20742" lon="3.33699">
        <ele>105</ele>
        <time>2014-05-04T09:53:17.000Z</time>
      </trkpt>
      <trkpt lat="48.20742" lon="3.3369">
        <ele>104</ele>
        <time>2014-05-04T09:53:18.000Z</time>
      </trkpt>
      <trkpt lat="48.20741" lon="3.33684">
        <ele>104</ele>
        <time>2014-05-04T09:53:19.000Z</time>
      </trkpt>
      <trkpt lat="48.2074" lon="3.33675">
        <ele>104</ele>
        <time>2014-05-04T09:53:20.000Z</time>
      </trkpt>
      <trkpt lat="48.2074" lon="3.33667">
        <ele>103</ele>
        <time>2014-05-04T09:53:21.000Z</time>
      </trkpt>
      <trkpt lat="48.20739" lon="3.3366">
        <ele>103</ele>
        <time>2014-05-04T09:53:22.000Z</time>
      </trkpt>
      <trkpt lat="48.20737" lon="3.33654">
        <ele>104</ele>
        <time>2014-05-04T09:53:23.000Z</time>
      </trkpt>
      <trkpt lat="48.20736" lon="3.33645">
        <ele>104</ele>
        <time>2014-05-04T09:53:24.000Z</time>
      </trkpt>
      <trkpt lat="48.20735" lon="3.33639">
        <ele>104</ele>
        <time>2014-05-04T09:53:25.000Z</time>
      </trkpt>
      <trkpt lat="48.20734" lon="3.33632">
        <ele>104</ele>
        <time>2014-05-04T09:53:26.000Z</time>
      </trkpt>
      <trkpt lat="48.20733" lon="3.33624">
        <ele>104</ele>
        <time>2014-05-04T09:53:27.000Z</time>
      </trkpt>
      <trkpt lat="48.20732" lon="3.33617">
        <ele>104</ele>
        <time>2014-05-04T09:53:28.000Z</time>
      </trkpt>
      <trkpt lat="48.20732" lon="3.33609">
        <ele>104</ele>
        <time>2014-05-04T09:53:29.000Z</time>
      </trkpt>
      <trkpt lat="48.20731" lon="3.33602">
        <ele>104</ele>
        <time>2014-05-04T09:53:30.000Z</time>
      </trkpt>
      <trkpt lat="48.2073" lon="3.33594">
        <ele>103</ele>
        <time>2014-05-04T09:53:31.000Z</time>
      </trkpt>
      <trkpt lat="48.2073" lon="3.33587">
        <ele>103</ele>
        <time>2014-05-04T09:53:32.000Z</time>
      </trkpt>
      <trkpt lat="48.20729" lon="3.33579">
        <ele>103</ele>
        <time>2014-05-04T09:53:33.000Z</time>
      </trkpt>
      <trkpt lat="48.20728" lon="3.3357">
        <ele>103</ele>
        <time>2014-05-04T09:53:34.000Z</time>
      </trkpt>
      <trkpt lat="48.20728" lon="3.33564">
        <ele>103</ele>
        <time>2014-05-04T09:53:35.000Z</time>
      </trkpt>
      <trkpt lat="48.20728" lon="3.33555">
        <ele>103</ele>
        <time>2014-05-04T09:53:36.000Z</time>
      </trkpt>
      <trkpt lat="48.20727" lon="3.33547">
        <ele>103</ele>
        <time>2014-05-04T09:53:37.000Z</time>
      </trkpt>
      <trkpt lat="48.20727" lon="3.33538">
        <ele>103</ele>
        <time>2014-05-04T09:53:38.000Z</time>
      </trkpt>
      <trkpt lat="48.20727" lon="3.33529">
        <ele>103</ele>
        <time>2014-05-04T09:53:39.000Z</time>
      </trkpt>
      <trkpt lat="48.20727" lon="3.33521">
        <ele>103</ele>
        <time>2014-05-04T09:53:40.000Z</time>
      </trkpt>
      <trkpt lat="48.20727" lon="3.33512">
        <ele>102</ele>
        <time>2014-05-04T09:53:41.000Z</time>
      </trkpt>
      <trkpt lat="48.20727" lon="3.33502">
        <ele>102</ele>
        <time>2014-05-04T09:53:42.000Z</time>
      </trkpt>
      <trkpt lat="48.20727" lon="3.33493">
        <ele>102</ele>
        <time>2014-05-04T09:53:43.000Z</time>
      </trkpt>
      <trkpt lat="48.20727" lon="3.33484">
        <ele>102</ele>
        <time>2014-05-04T09:53:44.000Z</time>
      </trkpt>
      <trkpt lat="48.20727" lon="3.33476">
        <ele>102</ele>
        <time>2014-05-04T09:53:45.000Z</time>
      </trkpt>
      <trkpt lat="48.20726" lon="3.33467">
        <ele>102</ele>
        <time>2014-05-04T09:53:46.000Z</time>
      </trkpt>
      <trkpt lat="48.20726" lon="3.33459">
        <ele>102</ele>
        <time>2014-05-04T09:53:47.000Z</time>
      </trkpt>
      <trkpt lat="48.20726" lon="3.33448">
        <ele>102</ele>
        <time>2014-05-04T09:53:48.000Z</time>
      </trkpt>
      <trkpt lat="48.20725" lon="3.33439">
        <ele>102</ele>
        <time>2014-05-04T09:53:49.000Z</time>
      </trkpt>
      <trkpt lat="48.20725" lon="3.33429">
        <ele>101</ele>
        <time>2014-05-04T09:53:50.000Z</time>
      </trkpt>
      <trkpt lat="48.20724" lon="3.3342">
        <ele>101</ele>
        <time>2014-05-04T09:53:51.000Z</time>
      </trkpt>
      <trkpt lat="48.20724" lon="3.33409">
        <ele>101</ele>
        <time>2014-05-04T09:53:52.000Z</time>
      </trkpt>
      <trkpt lat="48.20722" lon="3.33401">
        <ele>101</ele>
        <time>2014-05-04T09:53:53.000Z</time>
      </trkpt>
      <trkpt lat="48.20722" lon="3.3339">
        <ele>101</ele>
        <time>2014-05-04T09:53:54.000Z</time>
      </trkpt>
      <trkpt lat="48.20721" lon="3.33381">
        <ele>101</ele>
        <time>2014-05-04T09:53:55.000Z</time>
      </trkpt>
      <trkpt lat="48.20721" lon="3.33373">
        <ele>101</ele>
        <time>2014-05-04T09:53:56.000Z</time>
      </trkpt>
      <trkpt lat="48.20721" lon="3.33364">
        <ele>101</ele>
        <time>2014-05-04T09:53:57.000Z</time>
      </trkpt>
      <trkpt lat="48.20721" lon="3.33354">
        <ele>101</ele>
        <time>2014-05-04T09:53:58.000Z</time>
      </trkpt>
      <trkpt lat="48.20721" lon="3.33345">
        <ele>100</ele>
        <time>2014-05-04T09:53:59.000Z</time>
      </trkpt>
      <trkpt lat="48.2072" lon="3.33338">
        <ele>100</ele>
        <time>2014-05-04T09:54:00.000Z</time>
      </trkpt>
      <trkpt lat="48.2072" lon="3.3333">
        <ele>100</ele>
        <time>2014-05-04T09:54:01.000Z</time>
      </trkpt>
      <trkpt lat="48.2072" lon="3.33321">
        <ele>100</ele>
        <time>2014-05-04T09:54:02.000Z</time>
      </trkpt>
      <trkpt lat="48.2072" lon="3.33313">
        <ele>100</ele>
        <time>2014-05-04T09:54:03.000Z</time>
      </trkpt>
      <trkpt lat="48.2072" lon="3.33304">
        <ele>100</ele>
        <time>2014-05-04T09:54:04.000Z</time>
      </trkpt>
      <trkpt lat="48.2072" lon="3.33296">
        <ele>100</ele>
        <time>2014-05-04T09:54:05.000Z</time>
      </trkpt>
      <trkpt lat="48.2072" lon="3.33287">
        <ele>100</ele>
        <time>2014-05-04T09:54:06.000Z</time>
      </trkpt>
      <trkpt lat="48.2072" lon="3.33278">
        <ele>100</ele>
        <time>2014-05-04T09:54:07.000Z</time>
      </trkpt>
      <trkpt lat="48.2072" lon="3.3327">
        <ele>100</ele>
        <time>2014-05-04T09:54:08.000Z</time>
      </trkpt>
      <trkpt lat="48.2072" lon="3.33261">
        <ele>100</ele>
        <time>2014-05-04T09:54:09.000Z</time>
      </trkpt>
      <trkpt lat="48.2072" lon="3.33251">
        <ele>99</ele>
        <time>2014-05-04T09:54:10.000Z</time>
      </trkpt>
      <trkpt lat="48.2072" lon="3.33242">
        <ele>99</ele>
        <time>2014-05-04T09:54:11.000Z</time>
      </trkpt>
      <trkpt lat="48.2072" lon="3.33231">
        <ele>99</ele>
        <time>2014-05-04T09:54:12.000Z</time>
      </trkpt>
      <trkpt lat="48.2072" lon="3.33223">
        <ele>100</ele>
        <time>2014-05-04T09:54:13.000Z</time>
      </trkpt>
      <trkpt lat="48.2072" lon="3.33212">
        <ele>100</ele>
        <time>2014-05-04T09:54:14.000Z</time>
      </trkpt>
      <trkpt lat="48.2072" lon="3.33203">
        <ele>100</ele>
        <time>2014-05-04T09:54:15.000Z</time>
      </trkpt>
      <trkpt lat="48.2072" lon="3.33193">
        <ele>100</ele>
        <time>2014-05-04T09:54:16.000Z</time>
      </trkpt>
      <trkpt lat="48.2072" lon="3.33182">
        <ele>99</ele>
        <time>2014-05-04T09:54:17.000Z</time>
      </trkpt>
      <trkpt lat="48.2072" lon="3.33171">
        <ele>99</ele>
        <time>2014-05-04T09:54:18.000Z</time>
      </trkpt>
      <trkpt lat="48.2072" lon="3.33158">
        <ele>99</ele>
        <time>2014-05-04T09:54:19.000Z</time>
      </trkpt>
      <trkpt lat="48.20719" lon="3.33148">
        <ele>99</ele>
        <time>2014-05-04T09:54:20.000Z</time>
      </trkpt>
      <trkpt lat="48.2072" lon="3.33137">
        <ele>99</ele>
        <time>2014-05-04T09:54:21.000Z</time>
      </trkpt>
      <trkpt lat="48.20721" lon="3.33124">
        <ele>99</ele>
        <time>2014-05-04T09:54:22.000Z</time>
      </trkpt>
      <trkpt lat="48.20721" lon="3.33111">
        <ele>98</ele>
        <time>2014-05-04T09:54:23.000Z</time>
      </trkpt>
      <trkpt lat="48.20722" lon="3.33096">
        <ele>98</ele>
        <time>2014-05-04T09:54:24.000Z</time>
      </trkpt>
      <trkpt lat="48.20722" lon="3.33083">
        <ele>97</ele>
        <time>2014-05-04T09:54:25.000Z</time>
      </trkpt>
      <trkpt lat="48.20722" lon="3.33068">
        <ele>97</ele>
        <time>2014-05-04T09:54:26.000Z</time>
      </trkpt>
      <trkpt lat="48.20722" lon="3.33055">
        <ele>97</ele>
        <time>2014-05-04T09:54:27.000Z</time>
      </trkpt>
      <trkpt lat="48.20722" lon="3.33042">
        <ele>97</ele>
        <time>2014-05-04T09:54:28.000Z</time>
      </trkpt>
      <trkpt lat="48.20722" lon="3.3303">
        <ele>97</ele>
        <time>2014-05-04T09:54:29.000Z</time>
      </trkpt>
      <trkpt lat="48.20721" lon="3.33017">
        <ele>97</ele>
        <time>2014-05-04T09:54:30.000Z</time>
      </trkpt>
      <trkpt lat="48.20721" lon="3.33006">
        <ele>97</ele>
        <time>2014-05-04T09:54:31.000Z</time>
      </trkpt>
      <trkpt lat="48.2072" lon="3.32993">
        <ele>97</ele>
        <time>2014-05-04T09:54:32.000Z</time>
      </trkpt>
      <trkpt lat="48.2072" lon="3.32982">
        <ele>97</ele>
        <time>2014-05-04T09:54:33.000Z</time>
      </trkpt>
      <trkpt lat="48.20719" lon="3.32972">
        <ele>98</ele>
        <time>2014-05-04T09:54:34.000Z</time>
      </trkpt>
      <trkpt lat="48.2072" lon="3.32961">
        <ele>98</ele>
        <time>2014-05-04T09:54:35.000Z</time>
      </trkpt>
      <trkpt lat="48.20724" lon="3.32952">
        <ele>98</ele>
        <time>2014-05-04T09:54:36.000Z</time>
      </trkpt>
      <trkpt lat="48.20727" lon="3.32942">
        <ele>97</ele>
        <time>2014-05-04T09:54:37.000Z</time>
      </trkpt>
      <trkpt lat="48.20732" lon="3.32935">
        <ele>97</ele>
        <time>2014-05-04T09:54:38.000Z</time>
      </trkpt>
      <trkpt lat="48.20737" lon="3.32927">
        <ele>97</ele>
        <time>2014-05-04T09:54:39.000Z</time>
      </trkpt>
      <trkpt lat="48.20743" lon="3.3292">
        <ele>97</ele>
        <time>2014-05-04T09:54:40.000Z</time>
      </trkpt>
      <trkpt lat="48.20747" lon="3.32916">
        <ele>96</ele>
        <time>2014-05-04T09:54:41.000Z</time>
      </trkpt>
      <trkpt lat="48.2075" lon="3.32911">
        <ele>96</ele>
        <time>2014-05-04T09:54:43.000Z</time>
      </trkpt>
      <trkpt lat="48.20755" lon="3.32907">
        <ele>95</ele>
        <time>2014-05-04T09:54:44.000Z</time>
      </trkpt>
      <trkpt lat="48.20757" lon="3.32905">
        <ele>95</ele>
        <time>2014-05-04T09:54:45.000Z</time>
      </trkpt>
      <trkpt lat="48.20759" lon="3.32903">
        <ele>95</ele>
        <time>2014-05-04T09:54:46.000Z</time>
      </trkpt>
      <trkpt lat="48.20761" lon="3.32899">
        <ele>95</ele>
        <time>2014-05-04T09:54:48.000Z</time>
      </trkpt>
      <trkpt lat="48.20762" lon="3.32892">
        <ele>94</ele>
        <time>2014-05-04T09:54:49.000Z</time>
      </trkpt>
      <trkpt lat="48.20762" lon="3.32888">
        <ele>94</ele>
        <time>2014-05-04T09:54:50.000Z</time>
      </trkpt>
      <trkpt lat="48.2076" lon="3.32881">
        <ele>94</ele>
        <time>2014-05-04T09:54:51.000Z</time>
      </trkpt>
      <trkpt lat="48.20759" lon="3.32877">
        <ele>94</ele>
        <time>2014-05-04T09:54:52.000Z</time>
      </trkpt>
      <trkpt lat="48.20757" lon="3.32873">
        <ele>94</ele>
        <time>2014-05-04T09:54:53.000Z</time>
      </trkpt>
      <trkpt lat="48.20755" lon="3.32869">
        <ele>94</ele>
        <time>2014-05-04T09:54:54.000Z</time>
      </trkpt>
      <trkpt lat="48.20754" lon="3.32862">
        <ele>94</ele>
        <time>2014-05-04T09:54:55.000Z</time>
      </trkpt>
      <trkpt lat="48.20751" lon="3.32858">
        <ele>94</ele>
        <time>2014-05-04T09:54:56.000Z</time>
      </trkpt>
      <trkpt lat="48.20749" lon="3.32854">
        <ele>96</ele>
        <time>2014-05-04T09:54:57.000Z</time>
      </trkpt>
      <trkpt lat="48.20747" lon="3.32849">
        <ele>96</ele>
        <time>2014-05-04T09:54:58.000Z</time>
      </trkpt>
      <trkpt lat="48.20745" lon="3.32843">
        <ele>96</ele>
        <time>2014-05-04T09:54:59.000Z</time>
      </trkpt>
      <trkpt lat="48.20743" lon="3.32839">
        <ele>96</ele>
        <time>2014-05-04T09:55:00.000Z</time>
      </trkpt>
      <trkpt lat="48.2074" lon="3.32834">
        <ele>96</ele>
        <time>2014-05-04T09:55:01.000Z</time>
      </trkpt>
      <trkpt lat="48.20737" lon="3.32828">
        <ele>96</ele>
        <time>2014-05-04T09:55:02.000Z</time>
      </trkpt>
      <trkpt lat="48.20735" lon="3.32824">
        <ele>96</ele>
        <time>2014-05-04T09:55:03.000Z</time>
      </trkpt>
      <trkpt lat="48.20733" lon="3.32817">
        <ele>97</ele>
        <time>2014-05-04T09:55:04.000Z</time>
      </trkpt>
      <trkpt lat="48.2073" lon="3.32813">
        <ele>97</ele>
        <time>2014-05-04T09:55:05.000Z</time>
      </trkpt>
      <trkpt lat="48.20728" lon="3.32806">
        <ele>97</ele>
        <time>2014-05-04T09:55:06.000Z</time>
      </trkpt>
      <trkpt lat="48.20726" lon="3.328">
        <ele>97</ele>
        <time>2014-05-04T09:55:07.000Z</time>
      </trkpt>
      <trkpt lat="48.20722" lon="3.32793">
        <ele>98</ele>
        <time>2014-05-04T09:55:08.000Z</time>
      </trkpt>
      <trkpt lat="48.2072" lon="3.32787">
        <ele>98</ele>
        <time>2014-05-04T09:55:09.000Z</time>
      </trkpt>
      <trkpt lat="48.20718" lon="3.32781">
        <ele>98</ele>
        <time>2014-05-04T09:55:10.000Z</time>
      </trkpt>
      <trkpt lat="48.20715" lon="3.32776">
        <ele>98</ele>
        <time>2014-05-04T09:55:11.000Z</time>
      </trkpt>
      <trkpt lat="48.20713" lon="3.3277">
        <ele>98</ele>
        <time>2014-05-04T09:55:12.000Z</time>
      </trkpt>
      <trkpt lat="48.20711" lon="3.32763">
        <ele>98</ele>
        <time>2014-05-04T09:55:13.000Z</time>
      </trkpt>
      <trkpt lat="48.20709" lon="3.32755">
        <ele>98</ele>
        <time>2014-05-04T09:55:14.000Z</time>
      </trkpt>
      <trkpt lat="48.20706" lon="3.32748">
        <ele>99</ele>
        <time>2014-05-04T09:55:15.000Z</time>
      </trkpt>
      <trkpt lat="48.20704" lon="3.32742">
        <ele>99</ele>
        <time>2014-05-04T09:55:16.000Z</time>
      </trkpt>
      <trkpt lat="48.20702" lon="3.32736">
        <ele>99</ele>
        <time>2014-05-04T09:55:17.000Z</time>
      </trkpt>
      <trkpt lat="48.207" lon="3.32727">
        <ele>99</ele>
        <time>2014-05-04T09:55:18.000Z</time>
      </trkpt>
      <trkpt lat="48.20698" lon="3.32721">
        <ele>99</ele>
        <time>2014-05-04T09:55:19.000Z</time>
      </trkpt>
      <trkpt lat="48.20696" lon="3.32714">
        <ele>99</ele>
        <time>2014-05-04T09:55:20.000Z</time>
      </trkpt>
      <trkpt lat="48.20695" lon="3.32708">
        <ele>99</ele>
        <time>2014-05-04T09:55:21.000Z</time>
      </trkpt>
      <trkpt lat="48.20692" lon="3.32701">
        <ele>99</ele>
        <time>2014-05-04T09:55:22.000Z</time>
      </trkpt>
      <trkpt lat="48.20691" lon="3.32695">
        <ele>99</ele>
        <time>2014-05-04T09:55:23.000Z</time>
      </trkpt>
      <trkpt lat="48.2069" lon="3.32688">
        <ele>99</ele>
        <time>2014-05-04T09:55:24.000Z</time>
      </trkpt>
      <trkpt lat="48.20689" lon="3.32682">
        <ele>99</ele>
        <time>2014-05-04T09:55:25.000Z</time>
      </trkpt>
      <trkpt lat="48.20688" lon="3.32675">
        <ele>100</ele>
        <time>2014-05-04T09:55:26.000Z</time>
      </trkpt>
      <trkpt lat="48.20687" lon="3.32669">
        <ele>100</ele>
        <time>2014-05-04T09:55:27.000Z</time>
      </trkpt>
      <trkpt lat="48.20686" lon="3.32663">
        <ele>100</ele>
        <time>2014-05-04T09:55:28.000Z</time>
      </trkpt>
      <trkpt lat="48.20685" lon="3.32658">
        <ele>100</ele>
        <time>2014-05-04T09:55:29.000Z</time>
      </trkpt>
      <trkpt lat="48.20684" lon="3.32652">
        <ele>99</ele>
        <time>2014-05-04T09:55:30.000Z</time>
      </trkpt>
      <trkpt lat="48.20683" lon="3.32645">
        <ele>99</ele>
        <time>2014-05-04T09:55:31.000Z</time>
      </trkpt>
      <trkpt lat="48.20682" lon="3.32639">
        <ele>99</ele>
        <time>2014-05-04T09:55:32.000Z</time>
      </trkpt>
      <trkpt lat="48.20681" lon="3.32633">
        <ele>99</ele>
        <time>2014-05-04T09:55:33.000Z</time>
      </trkpt>
      <trkpt lat="48.2068" lon="3.32626">
        <ele>99</ele>
        <time>2014-05-04T09:55:34.000Z</time>
      </trkpt>
      <trkpt lat="48.20678" lon="3.3262">
        <ele>99</ele>
        <time>2014-05-04T09:55:35.000Z</time>
      </trkpt>
      <trkpt lat="48.20677" lon="3.32613">
        <ele>99</ele>
        <time>2014-05-04T09:55:36.000Z</time>
      </trkpt>
      <trkpt lat="48.20676" lon="3.32607">
        <ele>100</ele>
        <time>2014-05-04T09:55:37.000Z</time>
      </trkpt>
      <trkpt lat="48.20675" lon="3.326">
        <ele>100</ele>
        <time>2014-05-04T09:55:38.000Z</time>
      </trkpt>
      <trkpt lat="48.20674" lon="3.32594">
        <ele>100</ele>
        <time>2014-05-04T09:55:39.000Z</time>
      </trkpt>
      <trkpt lat="48.20673" lon="3.32585">
        <ele>100</ele>
        <time>2014-05-04T09:55:40.000Z</time>
      </trkpt>
      <trkpt lat="48.20672" lon="3.32581">
        <ele>101</ele>
        <time>2014-05-04T09:55:41.000Z</time>
      </trkpt>
      <trkpt lat="48.20671" lon="3.32575">
        <ele>100</ele>
        <time>2014-05-04T09:55:42.000Z</time>
      </trkpt>
      <trkpt lat="48.2067" lon="3.32568">
        <ele>100</ele>
        <time>2014-05-04T09:55:43.000Z</time>
      </trkpt>
      <trkpt lat="48.20669" lon="3.32562">
        <ele>100</ele>
        <time>2014-05-04T09:55:44.000Z</time>
      </trkpt>
      <trkpt lat="48.20668" lon="3.32555">
        <ele>100</ele>
        <time>2014-05-04T09:55:45.000Z</time>
      </trkpt>
      <trkpt lat="48.20667" lon="3.32551">
        <ele>102</ele>
        <time>2014-05-04T09:55:46.000Z</time>
      </trkpt>
      <trkpt lat="48.20666" lon="3.32547">
        <ele>102</ele>
        <time>2014-05-04T09:55:47.000Z</time>
      </trkpt>
      <trkpt lat="48.20666" lon="3.3254">
        <ele>102</ele>
        <time>2014-05-04T09:55:48.000Z</time>
      </trkpt>
      <trkpt lat="48.20665" lon="3.32536">
        <ele>103</ele>
        <time>2014-05-04T09:55:49.000Z</time>
      </trkpt>
      <trkpt lat="48.20663" lon="3.3253">
        <ele>103</ele>
        <time>2014-05-04T09:55:50.000Z</time>
      </trkpt>
      <trkpt lat="48.20662" lon="3.32525">
        <ele>103</ele>
        <time>2014-05-04T09:55:51.000Z</time>
      </trkpt>
      <trkpt lat="48.20661" lon="3.32519">
        <ele>103</ele>
        <time>2014-05-04T09:55:52.000Z</time>
      </trkpt>
      <trkpt lat="48.2066" lon="3.32512">
        <ele>103</ele>
        <time>2014-05-04T09:55:53.000Z</time>
      </trkpt>
      <trkpt lat="48.20659" lon="3.32508">
        <ele>103</ele>
        <time>2014-05-04T09:55:54.000Z</time>
      </trkpt>
      <trkpt lat="48.20658" lon="3.32502">
        <ele>103</ele>
        <time>2014-05-04T09:55:55.000Z</time>
      </trkpt>
      <trkpt lat="48.20657" lon="3.32495">
        <ele>103</ele>
        <time>2014-05-04T09:55:56.000Z</time>
      </trkpt>
      <trkpt lat="48.20656" lon="3.32489">
        <ele>103</ele>
        <time>2014-05-04T09:55:57.000Z</time>
      </trkpt>
      <trkpt lat="48.20655" lon="3.32482">
        <ele>103</ele>
        <time>2014-05-04T09:55:58.000Z</time>
      </trkpt>
      <trkpt lat="48.20654" lon="3.32476">
        <ele>103</ele>
        <time>2014-05-04T09:55:59.000Z</time>
      </trkpt>
      <trkpt lat="48.20653" lon="3.32469">
        <ele>103</ele>
        <time>2014-05-04T09:56:00.000Z</time>
      </trkpt>
      <trkpt lat="48.20652" lon="3.32463">
        <ele>103</ele>
        <time>2014-05-04T09:56:01.000Z</time>
      </trkpt>
      <trkpt lat="48.20651" lon="3.32457">
        <ele>103</ele>
        <time>2014-05-04T09:56:02.000Z</time>
      </trkpt>
      <trkpt lat="48.20648" lon="3.32452">
        <ele>103</ele>
        <time>2014-05-04T09:56:03.000Z</time>
      </trkpt>
      <trkpt lat="48.20647" lon="3.32446">
        <ele>103</ele>
        <time>2014-05-04T09:56:04.000Z</time>
      </trkpt>
      <trkpt lat="48.20646" lon="3.32439">
        <ele>103</ele>
        <time>2014-05-04T09:56:05.000Z</time>
      </trkpt>
      <trkpt lat="48.20645" lon="3.32433">
        <ele>103</ele>
        <time>2014-05-04T09:56:06.000Z</time>
      </trkpt>
      <trkpt lat="48.20644" lon="3.32429">
        <ele>103</ele>
        <time>2014-05-04T09:56:07.000Z</time>
      </trkpt>
      <trkpt lat="48.20642" lon="3.32422">
        <ele>103</ele>
        <time>2014-05-04T09:56:08.000Z</time>
      </trkpt>
      <trkpt lat="48.20641" lon="3.32416">
        <ele>103</ele>
        <time>2014-05-04T09:56:09.000Z</time>
      </trkpt>
      <trkpt lat="48.2064" lon="3.32412">
        <ele>103</ele>
        <time>2014-05-04T09:56:10.000Z</time>
      </trkpt>
      <trkpt lat="48.20638" lon="3.32405">
        <ele>103</ele>
        <time>2014-05-04T09:56:11.000Z</time>
      </trkpt>
      <trkpt lat="48.20637" lon="3.32401">
        <ele>103</ele>
        <time>2014-05-04T09:56:12.000Z</time>
      </trkpt>
      <trkpt lat="48.20634" lon="3.32394">
        <ele>103</ele>
        <time>2014-05-04T09:56:13.000Z</time>
      </trkpt>
      <trkpt lat="48.20633" lon="3.3239">
        <ele>103</ele>
        <time>2014-05-04T09:56:14.000Z</time>
      </trkpt>
      <trkpt lat="48.20632" lon="3.32384">
        <ele>103</ele>
        <time>2014-05-04T09:56:15.000Z</time>
      </trkpt>
      <trkpt lat="48.20631" lon="3.32379">
        <ele>103</ele>
        <time>2014-05-04T09:56:16.000Z</time>
      </trkpt>
      <trkpt lat="48.2063" lon="3.32375">
        <ele>103</ele>
        <time>2014-05-04T09:56:17.000Z</time>
      </trkpt>
      <trkpt lat="48.20629" lon="3.32369">
        <ele>103</ele>
        <time>2014-05-04T09:56:18.000Z</time>
      </trkpt>
      <trkpt lat="48.20627" lon="3.32364">
        <ele>103</ele>
        <time>2014-05-04T09:56:19.000Z</time>
      </trkpt>
      <trkpt lat="48.20626" lon="3.3236">
        <ele>103</ele>
        <time>2014-05-04T09:56:20.000Z</time>
      </trkpt>
      <trkpt lat="48.20625" lon="3.32356">
        <ele>103</ele>
        <time>2014-05-04T09:56:21.000Z</time>
      </trkpt>
      <trkpt lat="48.20624" lon="3.32349">
        <ele>103</ele>
        <time>2014-05-04T09:56:22.000Z</time>
      </trkpt>
      <trkpt lat="48.20623" lon="3.32345">
        <ele>103</ele>
        <time>2014-05-04T09:56:23.000Z</time>
      </trkpt>
      <trkpt lat="48.20622" lon="3.32343">
        <ele>103</ele>
        <time>2014-05-04T09:56:24.000Z</time>
      </trkpt>
      <trkpt lat="48.20621" lon="3.32339">
        <ele>103</ele>
        <time>2014-05-04T09:56:25.000Z</time>
      </trkpt>
      <trkpt lat="48.20619" lon="3.32332">
        <ele>102</ele>
        <time>2014-05-04T09:57:58.000Z</time>
      </trkpt>
      <trkpt lat="48.20616" lon="3.32324">
        <ele>102</ele>
        <time>2014-05-04T09:57:59.000Z</time>
      </trkpt>
      <trkpt lat="48.20615" lon="3.32319">
        <ele>102</ele>
        <time>2014-05-04T09:58:00.000Z</time>
      </trkpt>
      <trkpt lat="48.20614" lon="3.32317">
        <ele>102</ele>
        <time>2014-05-04T09:58:01.000Z</time>
      </trkpt>
      <trkpt lat="48.20613" lon="3.32313">
        <ele>102</ele>
        <time>2014-05-04T09:58:02.000Z</time>
      </trkpt>
      <trkpt lat="48.20612" lon="3.32311">
        <ele>102</ele>
        <time>2014-05-04T09:58:03.000Z</time>
      </trkpt>
      <trkpt lat="48.20611" lon="3.32306">
        <ele>102</ele>
        <time>2014-05-04T09:58:04.000Z</time>
      </trkpt>
      <trkpt lat="48.2061" lon="3.32304">
        <ele>102</ele>
        <time>2014-05-04T09:58:05.000Z</time>
      </trkpt>
      <trkpt lat="48.20609" lon="3.323">
        <ele>102</ele>
        <time>2014-05-04T09:58:06.000Z</time>
      </trkpt>
      <trkpt lat="48.20608" lon="3.32296">
        <ele>102</ele>
        <time>2014-05-04T09:58:07.000Z</time>
      </trkpt>
      <trkpt lat="48.20607" lon="3.32291">
        <ele>102</ele>
        <time>2014-05-04T09:58:08.000Z</time>
      </trkpt>
      <trkpt lat="48.20606" lon="3.32287">
        <ele>102</ele>
        <time>2014-05-04T09:58:09.000Z</time>
      </trkpt>
      <trkpt lat="48.20604" lon="3.32283">
        <ele>102</ele>
        <time>2014-05-04T09:58:10.000Z</time>
      </trkpt>
      <trkpt lat="48.20602" lon="3.32278">
        <ele>102</ele>
        <time>2014-05-04T09:58:11.000Z</time>
      </trkpt>
      <trkpt lat="48.20601" lon="3.32272">
        <ele>102</ele>
        <time>2014-05-04T09:58:12.000Z</time>
      </trkpt>
      <trkpt lat="48.206" lon="3.32268">
        <ele>101</ele>
        <time>2014-05-04T09:58:13.000Z</time>
      </trkpt>
      <trkpt lat="48.20598" lon="3.32261">
        <ele>101</ele>
        <time>2014-05-04T09:58:14.000Z</time>
      </trkpt>
      <trkpt lat="48.20597" lon="3.32255">
        <ele>101</ele>
        <time>2014-05-04T09:58:15.000Z</time>
      </trkpt>
      <trkpt lat="48.20596" lon="3.32248">
        <ele>101</ele>
        <time>2014-05-04T09:58:16.000Z</time>
      </trkpt>
      <trkpt lat="48.20595" lon="3.32242">
        <ele>101</ele>
        <time>2014-05-04T09:58:17.000Z</time>
      </trkpt>
      <trkpt lat="48.20593" lon="3.32236">
        <ele>101</ele>
        <time>2014-05-04T09:58:18.000Z</time>
      </trkpt>
      <trkpt lat="48.20592" lon="3.32229">
        <ele>100</ele>
        <time>2014-05-04T09:58:19.000Z</time>
      </trkpt>
      <trkpt lat="48.2059" lon="3.32221">
        <ele>100</ele>
        <time>2014-05-04T09:58:20.000Z</time>
      </trkpt>
      <trkpt lat="48.20588" lon="3.32214">
        <ele>100</ele>
        <time>2014-05-04T09:58:21.000Z</time>
      </trkpt>
      <trkpt lat="48.20586" lon="3.32206">
        <ele>100</ele>
        <time>2014-05-04T09:58:22.000Z</time>
      </trkpt>
      <trkpt lat="48.20584" lon="3.32197">
        <ele>100</ele>
        <time>2014-05-04T09:58:23.000Z</time>
      </trkpt>
      <trkpt lat="48.20582" lon="3.32191">
        <ele>101</ele>
        <time>2014-05-04T09:58:24.000Z</time>
      </trkpt>
      <trkpt lat="48.2058" lon="3.32182">
        <ele>101</ele>
        <time>2014-05-04T09:58:25.000Z</time>
      </trkpt>
      <trkpt lat="48.20577" lon="3.32171">
        <ele>101</ele>
        <time>2014-05-04T09:58:26.000Z</time>
      </trkpt>
      <trkpt lat="48.20574" lon="3.32163">
        <ele>101</ele>
        <time>2014-05-04T09:58:27.000Z</time>
      </trkpt>
      <trkpt lat="48.20571" lon="3.32152">
        <ele>101</ele>
        <time>2014-05-04T09:58:28.000Z</time>
      </trkpt>
      <trkpt lat="48.20568" lon="3.32141">
        <ele>100</ele>
        <time>2014-05-04T09:58:29.000Z</time>
      </trkpt>
      <trkpt lat="48.20565" lon="3.3213">
        <ele>100</ele>
        <time>2014-05-04T09:58:30.000Z</time>
      </trkpt>
      <trkpt lat="48.20562" lon="3.3212">
        <ele>100</ele>
        <time>2014-05-04T09:58:31.000Z</time>
      </trkpt>
      <trkpt lat="48.20558" lon="3.32109">
        <ele>100</ele>
        <time>2014-05-04T09:58:32.000Z</time>
      </trkpt>
      <trkpt lat="48.20555" lon="3.32098">
        <ele>100</ele>
        <time>2014-05-04T09:58:33.000Z</time>
      </trkpt>
      <trkpt lat="48.20552" lon="3.32085">
        <ele>100</ele>
        <time>2014-05-04T09:58:34.000Z</time>
      </trkpt>
      <trkpt lat="48.20549" lon="3.32075">
        <ele>100</ele>
        <time>2014-05-04T09:58:35.000Z</time>
      </trkpt>
      <trkpt lat="48.20545" lon="3.32064">
        <ele>100</ele>
        <time>2014-05-04T09:58:36.000Z</time>
      </trkpt>
      <trkpt lat="48.20542" lon="3.32053">
        <ele>100</ele>
        <time>2014-05-04T09:58:37.000Z</time>
      </trkpt>
      <trkpt lat="48.20539" lon="3.3204">
        <ele>100</ele>
        <time>2014-05-04T09:58:38.000Z</time>
      </trkpt>
      <trkpt lat="48.20537" lon="3.3203">
        <ele>100</ele>
        <time>2014-05-04T09:58:39.000Z</time>
      </trkpt>
      <trkpt lat="48.20534" lon="3.32019">
        <ele>100</ele>
        <time>2014-05-04T09:58:40.000Z</time>
      </trkpt>
      <trkpt lat="48.2053" lon="3.32008">
        <ele>100</ele>
        <time>2014-05-04T09:58:41.000Z</time>
      </trkpt>
      <trkpt lat="48.20527" lon="3.31995">
        <ele>100</ele>
        <time>2014-05-04T09:58:42.000Z</time>
      </trkpt>
      <trkpt lat="48.20524" lon="3.31985">
        <ele>100</ele>
        <time>2014-05-04T09:58:43.000Z</time>
      </trkpt>
      <trkpt lat="48.20521" lon="3.31974">
        <ele>100</ele>
        <time>2014-05-04T09:58:44.000Z</time>
      </trkpt>
      <trkpt lat="48.20518" lon="3.31963">
        <ele>100</ele>
        <time>2014-05-04T09:58:45.000Z</time>
      </trkpt>
      <trkpt lat="48.20514" lon="3.31952">
        <ele>101</ele>
        <time>2014-05-04T09:58:46.000Z</time>
      </trkpt>
      <trkpt lat="48.20511" lon="3.31942">
        <ele>101</ele>
        <time>2014-05-04T09:58:47.000Z</time>
      </trkpt>
      <trkpt lat="48.20508" lon="3.31929">
        <ele>101</ele>
        <time>2014-05-04T09:58:48.000Z</time>
      </trkpt>
      <trkpt lat="48.20505" lon="3.31918">
        <ele>101</ele>
        <time>2014-05-04T09:58:49.000Z</time>
      </trkpt>
      <trkpt lat="48.20501" lon="3.31907">
        <ele>101</ele>
        <time>2014-05-04T09:58:50.000Z</time>
      </trkpt>
      <trkpt lat="48.20498" lon="3.31894">
        <ele>102</ele>
        <time>2014-05-04T09:58:51.000Z</time>
      </trkpt>
      <trkpt lat="48.20495" lon="3.31884">
        <ele>102</ele>
        <time>2014-05-04T09:58:52.000Z</time>
      </trkpt>
      <trkpt lat="48.20492" lon="3.31873">
        <ele>102</ele>
        <time>2014-05-04T09:58:53.000Z</time>
      </trkpt>
      <trkpt lat="48.20489" lon="3.3186">
        <ele>102</ele>
        <time>2014-05-04T09:58:54.000Z</time>
      </trkpt>
      <trkpt lat="48.20485" lon="3.31849">
        <ele>102</ele>
        <time>2014-05-04T09:58:55.000Z</time>
      </trkpt>
      <trkpt lat="48.20482" lon="3.31839">
        <ele>102</ele>
        <time>2014-05-04T09:58:56.000Z</time>
      </trkpt>
      <trkpt lat="48.2048" lon="3.31828">
        <ele>102</ele>
        <time>2014-05-04T09:58:57.000Z</time>
      </trkpt>
      <trkpt lat="48.20477" lon="3.31817">
        <ele>102</ele>
        <time>2014-05-04T09:58:58.000Z</time>
      </trkpt>
      <trkpt lat="48.20474" lon="3.31806">
        <ele>102</ele>
        <time>2014-05-04T09:58:59.000Z</time>
      </trkpt>
      <trkpt lat="48.2047" lon="3.31796">
        <ele>102</ele>
        <time>2014-05-04T09:59:00.000Z</time>
      </trkpt>
      <trkpt lat="48.20468" lon="3.31785">
        <ele>102</ele>
        <time>2014-05-04T09:59:01.000Z</time>
      </trkpt>
      <trkpt lat="48.20465" lon="3.31772">
        <ele>101</ele>
        <time>2014-05-04T09:59:02.000Z</time>
      </trkpt>
      <trkpt lat="48.20462" lon="3.31761">
        <ele>101</ele>
        <time>2014-05-04T09:59:03.000Z</time>
      </trkpt>
      <trkpt lat="48.20459" lon="3.31751">
        <ele>101</ele>
        <time>2014-05-04T09:59:04.000Z</time>
      </trkpt>
      <trkpt lat="48.20455" lon="3.31738">
        <ele>100</ele>
        <time>2014-05-04T09:59:05.000Z</time>
      </trkpt>
      <trkpt lat="48.20452" lon="3.31727">
        <ele>100</ele>
        <time>2014-05-04T09:59:06.000Z</time>
      </trkpt>
      <trkpt lat="48.20449" lon="3.31714">
        <ele>100</ele>
        <time>2014-05-04T09:59:07.000Z</time>
      </trkpt>
      <trkpt lat="48.20447" lon="3.31701">
        <ele>99</ele>
        <time>2014-05-04T09:59:08.000Z</time>
      </trkpt>
      <trkpt lat="48.20444" lon="3.31686">
        <ele>99</ele>
        <time>2014-05-04T09:59:09.000Z</time>
      </trkpt>
      <trkpt lat="48.2044" lon="3.31673">
        <ele>99</ele>
        <time>2014-05-04T09:59:10.000Z</time>
      </trkpt>
      <trkpt lat="48.20438" lon="3.31658">
        <ele>97</ele>
        <time>2014-05-04T09:59:11.000Z</time>
      </trkpt>
      <trkpt lat="48.20435" lon="3.31645">
        <ele>97</ele>
        <time>2014-05-04T09:59:12.000Z</time>
      </trkpt>
      <trkpt lat="48.20432" lon="3.3163">
        <ele>97</ele>
        <time>2014-05-04T09:59:13.000Z</time>
      </trkpt>
      <trkpt lat="48.20428" lon="3.31615">
        <ele>96</ele>
        <time>2014-05-04T09:59:14.000Z</time>
      </trkpt>
      <trkpt lat="48.20425" lon="3.31603">
        <ele>96</ele>
        <time>2014-05-04T09:59:15.000Z</time>
      </trkpt>
      <trkpt lat="48.20423" lon="3.31588">
        <ele>95</ele>
        <time>2014-05-04T09:59:16.000Z</time>
      </trkpt>
      <trkpt lat="48.2042" lon="3.31573">
        <ele>95</ele>
        <time>2014-05-04T09:59:17.000Z</time>
      </trkpt>
      <trkpt lat="48.20418" lon="3.31558">
        <ele>94</ele>
        <time>2014-05-04T09:59:18.000Z</time>
      </trkpt>
      <trkpt lat="48.20416" lon="3.31542">
        <ele>93</ele>
        <time>2014-05-04T09:59:19.000Z</time>
      </trkpt>
      <trkpt lat="48.20413" lon="3.31527">
        <ele>93</ele>
        <time>2014-05-04T09:59:20.000Z</time>
      </trkpt>
      <trkpt lat="48.20411" lon="3.31512">
        <ele>92</ele>
        <time>2014-05-04T09:59:21.000Z</time>
      </trkpt>
      <trkpt lat="48.20409" lon="3.31497">
        <ele>91</ele>
        <time>2014-05-04T09:59:22.000Z</time>
      </trkpt>
      <trkpt lat="48.20407" lon="3.31482">
        <ele>91</ele>
        <time>2014-05-04T09:59:23.000Z</time>
      </trkpt>
      <trkpt lat="48.20406" lon="3.31467">
        <ele>90</ele>
        <time>2014-05-04T09:59:24.000Z</time>
      </trkpt>
      <trkpt lat="48.20405" lon="3.31452">
        <ele>90</ele>
        <time>2014-05-04T09:59:25.000Z</time>
      </trkpt>
      <trkpt lat="48.20407" lon="3.31439">
        <ele>90</ele>
        <time>2014-05-04T09:59:26.000Z</time>
      </trkpt>
      <trkpt lat="48.20409" lon="3.31424">
        <ele>89</ele>
        <time>2014-05-04T09:59:27.000Z</time>
      </trkpt>
      <trkpt lat="48.20407" lon="3.31412">
        <ele>89</ele>
        <time>2014-05-04T09:59:28.000Z</time>
      </trkpt>
      <trkpt lat="48.20405" lon="3.31399">
        <ele>88</ele>
        <time>2014-05-04T09:59:29.000Z</time>
      </trkpt>
      <trkpt lat="48.20402" lon="3.31386">
        <ele>88</ele>
        <time>2014-05-04T09:59:30.000Z</time>
      </trkpt>
      <trkpt lat="48.20398" lon="3.31373">
        <ele>88</ele>
        <time>2014-05-04T09:59:31.000Z</time>
      </trkpt>
      <trkpt lat="48.20396" lon="3.3136">
        <ele>88</ele>
        <time>2014-05-04T09:59:32.000Z</time>
      </trkpt>
      <trkpt lat="48.20395" lon="3.31347">
        <ele>88</ele>
        <time>2014-05-04T09:59:33.000Z</time>
      </trkpt>
      <trkpt lat="48.20393" lon="3.31332">
        <ele>86</ele>
        <time>2014-05-04T09:59:34.000Z</time>
      </trkpt>
      <trkpt lat="48.20392" lon="3.31319">
        <ele>86</ele>
        <time>2014-05-04T09:59:35.000Z</time>
      </trkpt>
      <trkpt lat="48.2039" lon="3.31306">
        <ele>86</ele>
        <time>2014-05-04T09:59:36.000Z</time>
      </trkpt>
      <trkpt lat="48.20389" lon="3.31291">
        <ele>86</ele>
        <time>2014-05-04T09:59:37.000Z</time>
      </trkpt>
      <trkpt lat="48.20388" lon="3.31276">
        <ele>85</ele>
        <time>2014-05-04T09:59:38.000Z</time>
      </trkpt>
      <trkpt lat="48.20387" lon="3.31264">
        <ele>85</ele>
        <time>2014-05-04T09:59:39.000Z</time>
      </trkpt>
      <trkpt lat="48.20386" lon="3.31249">
        <ele>84</ele>
        <time>2014-05-04T09:59:40.000Z</time>
      </trkpt>
      <trkpt lat="48.20385" lon="3.31234">
        <ele>84</ele>
        <time>2014-05-04T09:59:41.000Z</time>
      </trkpt>
      <trkpt lat="48.20382" lon="3.31221">
        <ele>84</ele>
        <time>2014-05-04T09:59:42.000Z</time>
      </trkpt>
      <trkpt lat="48.20381" lon="3.31206">
        <ele>83</ele>
        <time>2014-05-04T09:59:43.000Z</time>
      </trkpt>
      <trkpt lat="48.20379" lon="3.31191">
        <ele>83</ele>
        <time>2014-05-04T09:59:44.000Z</time>
      </trkpt>
      <trkpt lat="48.20377" lon="3.31178">
        <ele>83</ele>
        <time>2014-05-04T09:59:45.000Z</time>
      </trkpt>
      <trkpt lat="48.20376" lon="3.31165">
        <ele>82</ele>
        <time>2014-05-04T09:59:46.000Z</time>
      </trkpt>
      <trkpt lat="48.20374" lon="3.31152">
        <ele>83</ele>
        <time>2014-05-04T09:59:47.000Z</time>
      </trkpt>
      <trkpt lat="48.20373" lon="3.31139">
        <ele>83</ele>
        <time>2014-05-04T09:59:48.000Z</time>
      </trkpt>
      <trkpt lat="48.20372" lon="3.31126">
        <ele>83</ele>
        <time>2014-05-04T09:59:49.000Z</time>
      </trkpt>
      <trkpt lat="48.20369" lon="3.31113">
        <ele>83</ele>
        <time>2014-05-04T09:59:50.000Z</time>
      </trkpt>
      <trkpt lat="48.20368" lon="3.31103">
        <ele>82</ele>
        <time>2014-05-04T09:59:51.000Z</time>
      </trkpt>
      <trkpt lat="48.20367" lon="3.3109">
        <ele>82</ele>
        <time>2014-05-04T09:59:52.000Z</time>
      </trkpt>
      <trkpt lat="48.20367" lon="3.31079">
        <ele>82</ele>
        <time>2014-05-04T09:59:53.000Z</time>
      </trkpt>
      <trkpt lat="48.20366" lon="3.31068">
        <ele>82</ele>
        <time>2014-05-04T09:59:54.000Z</time>
      </trkpt>
      <trkpt lat="48.20367" lon="3.31055">
        <ele>82</ele>
        <time>2014-05-04T09:59:55.000Z</time>
      </trkpt>
      <trkpt lat="48.20368" lon="3.31045">
        <ele>81</ele>
        <time>2014-05-04T09:59:56.000Z</time>
      </trkpt>
      <trkpt lat="48.20369" lon="3.31032">
        <ele>81</ele>
        <time>2014-05-04T09:59:57.000Z</time>
      </trkpt>
      <trkpt lat="48.20373" lon="3.31021">
        <ele>81</ele>
        <time>2014-05-04T09:59:58.000Z</time>
      </trkpt>
      <trkpt lat="48.20376" lon="3.31008">
        <ele>81</ele>
        <time>2014-05-04T09:59:59.000Z</time>
      </trkpt>
      <trkpt lat="48.20381" lon="3.31">
        <ele>80</ele>
        <time>2014-05-04T10:00:00.000Z</time>
      </trkpt>
      <trkpt lat="48.20387" lon="3.30991">
        <ele>80</ele>
        <time>2014-05-04T10:00:01.000Z</time>
      </trkpt>
      <trkpt lat="48.20388" lon="3.30978">
        <ele>80</ele>
        <time>2014-05-04T10:00:02.000Z</time>
      </trkpt>
      <trkpt lat="48.20388" lon="3.30967">
        <ele>80</ele>
        <time>2014-05-04T10:00:03.000Z</time>
      </trkpt>
      <trkpt lat="48.20385" lon="3.30957">
        <ele>80</ele>
        <time>2014-05-04T10:00:04.000Z</time>
      </trkpt>
      <trkpt lat="48.20381" lon="3.30946">
        <ele>80</ele>
        <time>2014-05-04T10:00:05.000Z</time>
      </trkpt>
      <trkpt lat="48.20378" lon="3.30937">
        <ele>80</ele>
        <time>2014-05-04T10:00:06.000Z</time>
      </trkpt>
      <trkpt lat="48.20375" lon="3.30927">
        <ele>80</ele>
        <time>2014-05-04T10:00:07.000Z</time>
      </trkpt>
      <trkpt lat="48.20372" lon="3.30916">
        <ele>80</ele>
        <time>2014-05-04T10:00:08.000Z</time>
      </trkpt>
      <trkpt lat="48.20369" lon="3.30905">
        <ele>80</ele>
        <time>2014-05-04T10:00:09.000Z</time>
      </trkpt>
      <trkpt lat="48.20367" lon="3.30894">
        <ele>80</ele>
        <time>2014-05-04T10:00:10.000Z</time>
      </trkpt>
      <trkpt lat="48.20366" lon="3.30882">
        <ele>80</ele>
        <time>2014-05-04T10:00:11.000Z</time>
      </trkpt>
      <trkpt lat="48.20365" lon="3.30871">
        <ele>80</ele>
        <time>2014-05-04T10:00:12.000Z</time>
      </trkpt>
      <trkpt lat="48.20364" lon="3.30858">
        <ele>80</ele>
        <time>2014-05-04T10:00:13.000Z</time>
      </trkpt>
      <trkpt lat="48.20364" lon="3.30847">
        <ele>80</ele>
        <time>2014-05-04T10:00:14.000Z</time>
      </trkpt>
      <trkpt lat="48.20364" lon="3.30837">
        <ele>80</ele>
        <time>2014-05-04T10:00:15.000Z</time>
      </trkpt>
      <trkpt lat="48.20363" lon="3.30826">
        <ele>81</ele>
        <time>2014-05-04T10:00:16.000Z</time>
      </trkpt>
      <trkpt lat="48.20363" lon="3.30815">
        <ele>81</ele>
        <time>2014-05-04T10:00:17.000Z</time>
      </trkpt>
      <trkpt lat="48.20363" lon="3.30804">
        <ele>81</ele>
        <time>2014-05-04T10:00:18.000Z</time>
      </trkpt>
      <trkpt lat="48.20364" lon="3.30794">
        <ele>81</ele>
        <time>2014-05-04T10:00:19.000Z</time>
      </trkpt>
      <trkpt lat="48.20364" lon="3.30783">
        <ele>81</ele>
        <time>2014-05-04T10:00:20.000Z</time>
      </trkpt>
      <trkpt lat="48.20364" lon="3.30774">
        <ele>81</ele>
        <time>2014-05-04T10:00:21.000Z</time>
      </trkpt>
      <trkpt lat="48.20364" lon="3.30766">
        <ele>81</ele>
        <time>2014-05-04T10:00:22.000Z</time>
      </trkpt>
      <trkpt lat="48.20364" lon="3.30755">
        <ele>81</ele>
        <time>2014-05-04T10:00:23.000Z</time>
      </trkpt>
      <trkpt lat="48.20364" lon="3.30746">
        <ele>80</ele>
        <time>2014-05-04T10:00:24.000Z</time>
      </trkpt>
      <trkpt lat="48.20365" lon="3.30738">
        <ele>80</ele>
        <time>2014-05-04T10:00:25.000Z</time>
      </trkpt>
      <trkpt lat="48.20365" lon="3.30729">
        <ele>80</ele>
        <time>2014-05-04T10:00:26.000Z</time>
      </trkpt>
      <trkpt lat="48.20364" lon="3.30719">
        <ele>80</ele>
        <time>2014-05-04T10:00:27.000Z</time>
      </trkpt>
      <trkpt lat="48.20364" lon="3.3071">
        <ele>80</ele>
        <time>2014-05-04T10:00:28.000Z</time>
      </trkpt>
      <trkpt lat="48.20364" lon="3.30699">
        <ele>80</ele>
        <time>2014-05-04T10:00:29.000Z</time>
      </trkpt>
      <trkpt lat="48.20364" lon="3.30691">
        <ele>80</ele>
        <time>2014-05-04T10:00:30.000Z</time>
      </trkpt>
      <trkpt lat="48.20363" lon="3.3068">
        <ele>79</ele>
        <time>2014-05-04T10:00:31.000Z</time>
      </trkpt>
      <trkpt lat="48.20362" lon="3.30671">
        <ele>79</ele>
        <time>2014-05-04T10:00:32.000Z</time>
      </trkpt>
      <trkpt lat="48.20362" lon="3.30661">
        <ele>79</ele>
        <time>2014-05-04T10:00:33.000Z</time>
      </trkpt>
      <trkpt lat="48.20361" lon="3.3065">
        <ele>79</ele>
        <time>2014-05-04T10:00:34.000Z</time>
      </trkpt>
      <trkpt lat="48.20361" lon="3.30639">
        <ele>79</ele>
        <time>2014-05-04T10:00:35.000Z</time>
      </trkpt>
      <trkpt lat="48.2036" lon="3.30631">
        <ele>79</ele>
        <time>2014-05-04T10:00:36.000Z</time>
      </trkpt>
      <trkpt lat="48.2036" lon="3.3062">
        <ele>79</ele>
        <time>2014-05-04T10:00:37.000Z</time>
      </trkpt>
      <trkpt lat="48.20359" lon="3.30609">
        <ele>79</ele>
        <time>2014-05-04T10:00:38.000Z</time>
      </trkpt>
      <trkpt lat="48.20359" lon="3.30601">
        <ele>79</ele>
        <time>2014-05-04T10:00:39.000Z</time>
      </trkpt>
      <trkpt lat="48.20359" lon="3.3059">
        <ele>79</ele>
        <time>2014-05-04T10:00:40.000Z</time>
      </trkpt>
      <trkpt lat="48.20359" lon="3.30579">
        <ele>79</ele>
        <time>2014-05-04T10:00:41.000Z</time>
      </trkpt>
      <trkpt lat="48.20358" lon="3.30568">
        <ele>79</ele>
        <time>2014-05-04T10:00:42.000Z</time>
      </trkpt>
      <trkpt lat="48.20358" lon="3.30555">
        <ele>79</ele>
        <time>2014-05-04T10:00:43.000Z</time>
      </trkpt>
      <trkpt lat="48.20358" lon="3.30545">
        <ele>79</ele>
        <time>2014-05-04T10:00:44.000Z</time>
      </trkpt>
      <trkpt lat="48.20357" lon="3.30534">
        <ele>79</ele>
        <time>2014-05-04T10:00:45.000Z</time>
      </trkpt>
      <trkpt lat="48.20356" lon="3.30523">
        <ele>79</ele>
        <time>2014-05-04T10:00:46.000Z</time>
      </trkpt>
      <trkpt lat="48.20352" lon="3.30513">
        <ele>79</ele>
        <time>2014-05-04T10:00:47.000Z</time>
      </trkpt>
      <trkpt lat="48.20349" lon="3.30502">
        <ele>79</ele>
        <time>2014-05-04T10:00:48.000Z</time>
      </trkpt>
      <trkpt lat="48.20345" lon="3.30493">
        <ele>79</ele>
        <time>2014-05-04T10:00:49.000Z</time>
      </trkpt>
      <trkpt lat="48.20341" lon="3.30485">
        <ele>79</ele>
        <time>2014-05-04T10:00:50.000Z</time>
      </trkpt>
      <trkpt lat="48.20335" lon="3.30478">
        <ele>79</ele>
        <time>2014-05-04T10:00:51.000Z</time>
      </trkpt>
      <trkpt lat="48.20331" lon="3.3047">
        <ele>80</ele>
        <time>2014-05-04T10:00:52.000Z</time>
      </trkpt>
      <trkpt lat="48.20325" lon="3.30459">
        <ele>80</ele>
        <time>2014-05-04T10:00:53.000Z</time>
      </trkpt>
      <trkpt lat="48.20322" lon="3.3045">
        <ele>80</ele>
        <time>2014-05-04T10:00:54.000Z</time>
      </trkpt>
      <trkpt lat="48.20319" lon="3.3044">
        <ele>80</ele>
        <time>2014-05-04T10:00:55.000Z</time>
      </trkpt>
      <trkpt lat="48.20317" lon="3.30429">
        <ele>80</ele>
        <time>2014-05-04T10:00:56.000Z</time>
      </trkpt>
      <trkpt lat="48.20315" lon="3.30418">
        <ele>80</ele>
        <time>2014-05-04T10:00:57.000Z</time>
      </trkpt>
      <trkpt lat="48.20313" lon="3.3041">
        <ele>80</ele>
        <time>2014-05-04T10:00:58.000Z</time>
      </trkpt>
      <trkpt lat="48.20309" lon="3.30399">
        <ele>79</ele>
        <time>2014-05-04T10:00:59.000Z</time>
      </trkpt>
      <trkpt lat="48.20308" lon="3.3039">
        <ele>79</ele>
        <time>2014-05-04T10:01:00.000Z</time>
      </trkpt>
      <trkpt lat="48.20306" lon="3.30379">
        <ele>79</ele>
        <time>2014-05-04T10:01:01.000Z</time>
      </trkpt>
      <trkpt lat="48.20305" lon="3.30371">
        <ele>79</ele>
        <time>2014-05-04T10:01:02.000Z</time>
      </trkpt>
      <trkpt lat="48.20303" lon="3.3036">
        <ele>79</ele>
        <time>2014-05-04T10:01:03.000Z</time>
      </trkpt>
      <trkpt lat="48.20302" lon="3.30352">
        <ele>79</ele>
        <time>2014-05-04T10:01:04.000Z</time>
      </trkpt>
      <trkpt lat="48.20301" lon="3.30341">
        <ele>79</ele>
        <time>2014-05-04T10:01:05.000Z</time>
      </trkpt>
      <trkpt lat="48.20299" lon="3.30332">
        <ele>78</ele>
        <time>2014-05-04T10:01:06.000Z</time>
      </trkpt>
      <trkpt lat="48.20298" lon="3.30322">
        <ele>78</ele>
        <time>2014-05-04T10:01:07.000Z</time>
      </trkpt>
      <trkpt lat="48.20295" lon="3.30313">
        <ele>78</ele>
        <time>2014-05-04T10:01:08.000Z</time>
      </trkpt>
      <trkpt lat="48.20293" lon="3.30302">
        <ele>78</ele>
        <time>2014-05-04T10:01:09.000Z</time>
      </trkpt>
      <trkpt lat="48.20291" lon="3.30294">
        <ele>78</ele>
        <time>2014-05-04T10:01:10.000Z</time>
      </trkpt>
      <trkpt lat="48.20288" lon="3.30272">
        <ele>78</ele>
        <time>2014-05-04T10:01:12.000Z</time>
      </trkpt>
      <trkpt lat="48.20286" lon="3.30264">
        <ele>78</ele>
        <time>2014-05-04T10:01:13.000Z</time>
      </trkpt>
      <trkpt lat="48.20283" lon="3.30253">
        <ele>78</ele>
        <time>2014-05-04T10:01:14.000Z</time>
      </trkpt>
      <trkpt lat="48.2028" lon="3.30242">
        <ele>78</ele>
        <time>2014-05-04T10:01:15.000Z</time>
      </trkpt>
      <trkpt lat="48.20278" lon="3.30234">
        <ele>78</ele>
        <time>2014-05-04T10:01:16.000Z</time>
      </trkpt>
      <trkpt lat="48.20276" lon="3.30223">
        <ele>78</ele>
        <time>2014-05-04T10:01:17.000Z</time>
      </trkpt>
      <trkpt lat="48.20274" lon="3.30214">
        <ele>78</ele>
        <time>2014-05-04T10:01:18.000Z</time>
      </trkpt>
      <trkpt lat="48.20272" lon="3.30204">
        <ele>78</ele>
        <time>2014-05-04T10:01:19.000Z</time>
      </trkpt>
      <trkpt lat="48.2027" lon="3.30193">
        <ele>78</ele>
        <time>2014-05-04T10:01:20.000Z</time>
      </trkpt>
      <trkpt lat="48.20266" lon="3.30184">
        <ele>78</ele>
        <time>2014-05-04T10:01:21.000Z</time>
      </trkpt>
      <trkpt lat="48.20264" lon="3.30173">
        <ele>78</ele>
        <time>2014-05-04T10:01:22.000Z</time>
      </trkpt>
      <trkpt lat="48.20262" lon="3.30163">
        <ele>79</ele>
        <time>2014-05-04T10:01:23.000Z</time>
      </trkpt>
      <trkpt lat="48.2026" lon="3.30154">
        <ele>79</ele>
        <time>2014-05-04T10:01:24.000Z</time>
      </trkpt>
      <trkpt lat="48.20257" lon="3.30143">
        <ele>78</ele>
        <time>2014-05-04T10:01:25.000Z</time>
      </trkpt>
      <trkpt lat="48.20255" lon="3.30133">
        <ele>78</ele>
        <time>2014-05-04T10:01:26.000Z</time>
      </trkpt>
      <trkpt lat="48.20253" lon="3.30124">
        <ele>78</ele>
        <time>2014-05-04T10:01:27.000Z</time>
      </trkpt>
      <trkpt lat="48.2025" lon="3.30113">
        <ele>78</ele>
        <time>2014-05-04T10:01:28.000Z</time>
      </trkpt>
      <trkpt lat="48.20248" lon="3.30105">
        <ele>80</ele>
        <time>2014-05-04T10:01:29.000Z</time>
      </trkpt>
      <trkpt lat="48.20246" lon="3.30094">
        <ele>80</ele>
        <time>2014-05-04T10:01:30.000Z</time>
      </trkpt>
      <trkpt lat="48.20244" lon="3.30086">
        <ele>79</ele>
        <time>2014-05-04T10:01:31.000Z</time>
      </trkpt>
      <trkpt lat="48.20242" lon="3.30075">
        <ele>79</ele>
        <time>2014-05-04T10:01:32.000Z</time>
      </trkpt>
      <trkpt lat="48.2024" lon="3.30066">
        <ele>80</ele>
        <time>2014-05-04T10:01:33.000Z</time>
      </trkpt>
      <trkpt lat="48.20238" lon="3.30058">
        <ele>80</ele>
        <time>2014-05-04T10:01:34.000Z</time>
      </trkpt>
      <trkpt lat="48.20235" lon="3.30047">
        <ele>80</ele>
        <time>2014-05-04T10:01:35.000Z</time>
      </trkpt>
      <trkpt lat="48.20233" lon="3.30038">
        <ele>80</ele>
        <time>2014-05-04T10:01:36.000Z</time>
      </trkpt>
      <trkpt lat="48.20231" lon="3.30028">
        <ele>79</ele>
        <time>2014-05-04T10:01:37.000Z</time>
      </trkpt>
      <trkpt lat="48.20229" lon="3.30017">
        <ele>79</ele>
        <time>2014-05-04T10:01:38.000Z</time>
      </trkpt>
      <trkpt lat="48.20227" lon="3.30006">
        <ele>79</ele>
        <time>2014-05-04T10:01:39.000Z</time>
      </trkpt>
      <trkpt lat="48.20224" lon="3.29995">
        <ele>79</ele>
        <time>2014-05-04T10:01:40.000Z</time>
      </trkpt>
      <trkpt lat="48.20221" lon="3.29983">
        <ele>79</ele>
        <time>2014-05-04T10:01:41.000Z</time>
      </trkpt>
      <trkpt lat="48.20219" lon="3.29972">
        <ele>79</ele>
        <time>2014-05-04T10:01:42.000Z</time>
      </trkpt>
      <trkpt lat="48.20217" lon="3.29959">
        <ele>79</ele>
        <time>2014-05-04T10:01:43.000Z</time>
      </trkpt>
      <trkpt lat="48.20215" lon="3.29946">
        <ele>79</ele>
        <time>2014-05-04T10:01:44.000Z</time>
      </trkpt>
      <trkpt lat="48.20212" lon="3.29935">
        <ele>79</ele>
        <time>2014-05-04T10:01:45.000Z</time>
      </trkpt>
      <trkpt lat="48.2021" lon="3.29922">
        <ele>79</ele>
        <time>2014-05-04T10:01:46.000Z</time>
      </trkpt>
      <trkpt lat="48.20207" lon="3.2991">
        <ele>80</ele>
        <time>2014-05-04T10:01:47.000Z</time>
      </trkpt>
      <trkpt lat="48.20205" lon="3.29899">
        <ele>80</ele>
        <time>2014-05-04T10:01:48.000Z</time>
      </trkpt>
      <trkpt lat="48.20203" lon="3.29888">
        <ele>80</ele>
        <time>2014-05-04T10:01:49.000Z</time>
      </trkpt>
      <trkpt lat="48.20201" lon="3.29877">
        <ele>80</ele>
        <time>2014-05-04T10:01:50.000Z</time>
      </trkpt>
      <trkpt lat="48.20199" lon="3.29867">
        <ele>80</ele>
        <time>2014-05-04T10:01:51.000Z</time>
      </trkpt>
      <trkpt lat="48.20197" lon="3.29858">
        <ele>80</ele>
        <time>2014-05-04T10:01:52.000Z</time>
      </trkpt>
      <trkpt lat="48.20195" lon="3.29849">
        <ele>80</ele>
        <time>2014-05-04T10:01:53.000Z</time>
      </trkpt>
      <trkpt lat="48.20194" lon="3.29843">
        <ele>80</ele>
        <time>2014-05-04T10:01:54.000Z</time>
      </trkpt>
      <trkpt lat="48.20191" lon="3.29837">
        <ele>80</ele>
        <time>2014-05-04T10:01:55.000Z</time>
      </trkpt>
      <trkpt lat="48.2019" lon="3.2983">
        <ele>80</ele>
        <time>2014-05-04T10:01:56.000Z</time>
      </trkpt>
      <trkpt lat="48.20189" lon="3.29826">
        <ele>80</ele>
        <time>2014-05-04T10:01:57.000Z</time>
      </trkpt>
      <trkpt lat="48.20188" lon="3.29822">
        <ele>80</ele>
        <time>2014-05-04T10:01:58.000Z</time>
      </trkpt>
      <trkpt lat="48.20188" lon="3.29817">
        <ele>80</ele>
        <time>2014-05-04T10:01:59.000Z</time>
      </trkpt>
      <trkpt lat="48.20187" lon="3.29811">
        <ele>80</ele>
        <time>2014-05-04T10:02:02.000Z</time>
      </trkpt>
      <trkpt lat="48.20186" lon="3.29809">
        <ele>80</ele>
        <time>2014-05-04T10:02:03.000Z</time>
      </trkpt>
      <trkpt lat="48.20185" lon="3.29802">
        <ele>80</ele>
        <time>2014-05-04T10:02:06.000Z</time>
      </trkpt>
      <trkpt lat="48.20184" lon="3.29796">
        <ele>80</ele>
        <time>2014-05-04T10:02:07.000Z</time>
      </trkpt>
      <trkpt lat="48.20182" lon="3.29792">
        <ele>80</ele>
        <time>2014-05-04T10:02:08.000Z</time>
      </trkpt>
      <trkpt lat="48.20181" lon="3.29785">
        <ele>80</ele>
        <time>2014-05-04T10:02:09.000Z</time>
      </trkpt>
      <trkpt lat="48.2018" lon="3.29777">
        <ele>80</ele>
        <time>2014-05-04T10:02:10.000Z</time>
      </trkpt>
      <trkpt lat="48.20179" lon="3.2977">
        <ele>80</ele>
        <time>2014-05-04T10:02:11.000Z</time>
      </trkpt>
      <trkpt lat="48.20177" lon="3.29762">
        <ele>80</ele>
        <time>2014-05-04T10:02:12.000Z</time>
      </trkpt>
      <trkpt lat="48.20176" lon="3.29755">
        <ele>80</ele>
        <time>2014-05-04T10:02:13.000Z</time>
      </trkpt>
      <trkpt lat="48.20174" lon="3.29746">
        <ele>80</ele>
        <time>2014-05-04T10:02:14.000Z</time>
      </trkpt>
      <trkpt lat="48.20173" lon="3.29738">
        <ele>80</ele>
        <time>2014-05-04T10:02:15.000Z</time>
      </trkpt>
      <trkpt lat="48.20171" lon="3.29729">
        <ele>80</ele>
        <time>2014-05-04T10:02:16.000Z</time>
      </trkpt>
      <trkpt lat="48.2017" lon="3.29721">
        <ele>80</ele>
        <time>2014-05-04T10:02:17.000Z</time>
      </trkpt>
      <trkpt lat="48.20168" lon="3.2971">
        <ele>79</ele>
        <time>2014-05-04T10:02:18.000Z</time>
      </trkpt>
      <trkpt lat="48.20167" lon="3.29701">
        <ele>79</ele>
        <time>2014-05-04T10:02:19.000Z</time>
      </trkpt>
      <trkpt lat="48.20166" lon="3.29691">
        <ele>80</ele>
        <time>2014-05-04T10:02:20.000Z</time>
      </trkpt>
      <trkpt lat="48.20163" lon="3.29682">
        <ele>80</ele>
        <time>2014-05-04T10:02:21.000Z</time>
      </trkpt>
      <trkpt lat="48.20161" lon="3.29671">
        <ele>80</ele>
        <time>2014-05-04T10:02:22.000Z</time>
      </trkpt>
      <trkpt lat="48.2016" lon="3.29661">
        <ele>80</ele>
        <time>2014-05-04T10:02:23.000Z</time>
      </trkpt>
      <trkpt lat="48.20158" lon="3.29652">
        <ele>80</ele>
        <time>2014-05-04T10:02:24.000Z</time>
      </trkpt>
      <trkpt lat="48.20157" lon="3.29641">
        <ele>80</ele>
        <time>2014-05-04T10:02:25.000Z</time>
      </trkpt>
      <trkpt lat="48.20155" lon="3.29631">
        <ele>80</ele>
        <time>2014-05-04T10:02:26.000Z</time>
      </trkpt>
      <trkpt lat="48.20153" lon="3.2962">
        <ele>80</ele>
        <time>2014-05-04T10:02:27.000Z</time>
      </trkpt>
      <trkpt lat="48.20152" lon="3.29609">
        <ele>80</ele>
        <time>2014-05-04T10:02:28.000Z</time>
      </trkpt>
      <trkpt lat="48.20151" lon="3.29598">
        <ele>80</ele>
        <time>2014-05-04T10:02:29.000Z</time>
      </trkpt>
      <trkpt lat="48.20148" lon="3.29588">
        <ele>80</ele>
        <time>2014-05-04T10:02:30.000Z</time>
      </trkpt>
      <trkpt lat="48.20147" lon="3.29579">
        <ele>80</ele>
        <time>2014-05-04T10:02:31.000Z</time>
      </trkpt>
      <trkpt lat="48.20145" lon="3.29568">
        <ele>80</ele>
        <time>2014-05-04T10:02:32.000Z</time>
      </trkpt>
      <trkpt lat="48.20144" lon="3.29558">
        <ele>80</ele>
        <time>2014-05-04T10:02:33.000Z</time>
      </trkpt>
      <trkpt lat="48.20142" lon="3.29549">
        <ele>80</ele>
        <time>2014-05-04T10:02:34.000Z</time>
      </trkpt>
      <trkpt lat="48.2014" lon="3.29538">
        <ele>79</ele>
        <time>2014-05-04T10:02:35.000Z</time>
      </trkpt>
      <trkpt lat="48.20138" lon="3.29528">
        <ele>79</ele>
        <time>2014-05-04T10:02:36.000Z</time>
      </trkpt>
      <trkpt lat="48.20136" lon="3.29519">
        <ele>79</ele>
        <time>2014-05-04T10:02:37.000Z</time>
      </trkpt>
      <trkpt lat="48.20132" lon="3.29508">
        <ele>79</ele>
        <time>2014-05-04T10:02:38.000Z</time>
      </trkpt>
      <trkpt lat="48.2013" lon="3.29498">
        <ele>79</ele>
        <time>2014-05-04T10:02:39.000Z</time>
      </trkpt>
      <trkpt lat="48.20127" lon="3.29489">
        <ele>79</ele>
        <time>2014-05-04T10:02:40.000Z</time>
      </trkpt>
      <trkpt lat="48.20125" lon="3.29478">
        <ele>79</ele>
        <time>2014-05-04T10:02:41.000Z</time>
      </trkpt>
      <trkpt lat="48.20122" lon="3.29468">
        <ele>79</ele>
        <time>2014-05-04T10:02:42.000Z</time>
      </trkpt>
      <trkpt lat="48.20118" lon="3.29459">
        <ele>79</ele>
        <time>2014-05-04T10:02:43.000Z</time>
      </trkpt>
      <trkpt lat="48.20116" lon="3.29448">
        <ele>78</ele>
        <time>2014-05-04T10:02:44.000Z</time>
      </trkpt>
      <trkpt lat="48.20113" lon="3.2944">
        <ele>78</ele>
        <time>2014-05-04T10:02:45.000Z</time>
      </trkpt>
      <trkpt lat="48.2011" lon="3.29429">
        <ele>78</ele>
        <time>2014-05-04T10:02:46.000Z</time>
      </trkpt>
      <trkpt lat="48.20108" lon="3.2942">
        <ele>78</ele>
        <time>2014-05-04T10:02:47.000Z</time>
      </trkpt>
      <trkpt lat="48.20104" lon="3.2941">
        <ele>78</ele>
        <time>2014-05-04T10:02:48.000Z</time>
      </trkpt>
      <trkpt lat="48.20102" lon="3.29401">
        <ele>78</ele>
        <time>2014-05-04T10:02:49.000Z</time>
      </trkpt>
      <trkpt lat="48.201" lon="3.2939">
        <ele>78</ele>
        <time>2014-05-04T10:02:50.000Z</time>
      </trkpt>
      <trkpt lat="48.20099" lon="3.29382">
        <ele>78</ele>
        <time>2014-05-04T10:02:51.000Z</time>
      </trkpt>
      <trkpt lat="48.20098" lon="3.29371">
        <ele>77</ele>
        <time>2014-05-04T10:02:52.000Z</time>
      </trkpt>
      <trkpt lat="48.20097" lon="3.2936">
        <ele>77</ele>
        <time>2014-05-04T10:02:53.000Z</time>
      </trkpt>
      <trkpt lat="48.20097" lon="3.2935">
        <ele>77</ele>
        <time>2014-05-04T10:02:54.000Z</time>
      </trkpt>
      <trkpt lat="48.20097" lon="3.29339">
        <ele>77</ele>
        <time>2014-05-04T10:02:55.000Z</time>
      </trkpt>
      <trkpt lat="48.20096" lon="3.29328">
        <ele>76</ele>
        <time>2014-05-04T10:02:56.000Z</time>
      </trkpt>
      <trkpt lat="48.20096" lon="3.29315">
        <ele>76</ele>
        <time>2014-05-04T10:02:57.000Z</time>
      </trkpt>
      <trkpt lat="48.20096" lon="3.29302">
        <ele>76</ele>
        <time>2014-05-04T10:02:58.000Z</time>
      </trkpt>
      <trkpt lat="48.20095" lon="3.29289">
        <ele>76</ele>
        <time>2014-05-04T10:02:59.000Z</time>
      </trkpt>
      <trkpt lat="48.20094" lon="3.29277">
        <ele>76</ele>
        <time>2014-05-04T10:03:00.000Z</time>
      </trkpt>
      <trkpt lat="48.20093" lon="3.29264">
        <ele>76</ele>
        <time>2014-05-04T10:03:01.000Z</time>
      </trkpt>
      <trkpt lat="48.20092" lon="3.29251">
        <ele>75</ele>
        <time>2014-05-04T10:03:02.000Z</time>
      </trkpt>
      <trkpt lat="48.20091" lon="3.29238">
        <ele>75</ele>
        <time>2014-05-04T10:03:03.000Z</time>
      </trkpt>
      <trkpt lat="48.20091" lon="3.29225">
        <ele>75</ele>
        <time>2014-05-04T10:03:04.000Z</time>
      </trkpt>
      <trkpt lat="48.20091" lon="3.29212">
        <ele>75</ele>
        <time>2014-05-04T10:03:05.000Z</time>
      </trkpt>
      <trkpt lat="48.20091" lon="3.29201">
        <ele>75</ele>
        <time>2014-05-04T10:03:06.000Z</time>
      </trkpt>
      <trkpt lat="48.20091" lon="3.29189">
        <ele>74</ele>
        <time>2014-05-04T10:03:07.000Z</time>
      </trkpt>
      <trkpt lat="48.20092" lon="3.29178">
        <ele>74</ele>
        <time>2014-05-04T10:03:08.000Z</time>
      </trkpt>
      <trkpt lat="48.20092" lon="3.29165">
        <ele>74</ele>
        <time>2014-05-04T10:03:09.000Z</time>
      </trkpt>
      <trkpt lat="48.20093" lon="3.29152">
        <ele>74</ele>
        <time>2014-05-04T10:03:10.000Z</time>
      </trkpt>
      <trkpt lat="48.20094" lon="3.29141">
        <ele>73</ele>
        <time>2014-05-04T10:03:11.000Z</time>
      </trkpt>
      <trkpt lat="48.20095" lon="3.29131">
        <ele>73</ele>
        <time>2014-05-04T10:03:12.000Z</time>
      </trkpt>
      <trkpt lat="48.20095" lon="3.2912">
        <ele>73</ele>
        <time>2014-05-04T10:03:13.000Z</time>
      </trkpt>
      <trkpt lat="48.20095" lon="3.29109">
        <ele>73</ele>
        <time>2014-05-04T10:03:14.000Z</time>
      </trkpt>
      <trkpt lat="48.20095" lon="3.29098">
        <ele>73</ele>
        <time>2014-05-04T10:03:15.000Z</time>
      </trkpt>
      <trkpt lat="48.20095" lon="3.2909">
        <ele>73</ele>
        <time>2014-05-04T10:03:16.000Z</time>
      </trkpt>
      <trkpt lat="48.20095" lon="3.29079">
        <ele>73</ele>
        <time>2014-05-04T10:03:17.000Z</time>
      </trkpt>
      <trkpt lat="48.20094" lon="3.29071">
        <ele>73</ele>
        <time>2014-05-04T10:03:18.000Z</time>
      </trkpt>
      <trkpt lat="48.20094" lon="3.29062">
        <ele>73</ele>
        <time>2014-05-04T10:03:19.000Z</time>
      </trkpt>
      <trkpt lat="48.20093" lon="3.29053">
        <ele>73</ele>
        <time>2014-05-04T10:03:20.000Z</time>
      </trkpt>
      <trkpt lat="48.20093" lon="3.29045">
        <ele>73</ele>
        <time>2014-05-04T10:03:21.000Z</time>
      </trkpt>
      <trkpt lat="48.20093" lon="3.29036">
        <ele>72</ele>
        <time>2014-05-04T10:03:22.000Z</time>
      </trkpt>
      <trkpt lat="48.20093" lon="3.29028">
        <ele>72</ele>
        <time>2014-05-04T10:03:23.000Z</time>
      </trkpt>
      <trkpt lat="48.20093" lon="3.29019">
        <ele>72</ele>
        <time>2014-05-04T10:03:24.000Z</time>
      </trkpt>
      <trkpt lat="48.20093" lon="3.29008">
        <ele>72</ele>
        <time>2014-05-04T10:03:25.000Z</time>
      </trkpt>
      <trkpt lat="48.20092" lon="3.29">
        <ele>72</ele>
        <time>2014-05-04T10:03:26.000Z</time>
      </trkpt>
      <trkpt lat="48.20091" lon="3.28991">
        <ele>72</ele>
        <time>2014-05-04T10:03:27.000Z</time>
      </trkpt>
      <trkpt lat="48.20091" lon="3.28983">
        <ele>72</ele>
        <time>2014-05-04T10:03:28.000Z</time>
      </trkpt>
      <trkpt lat="48.20089" lon="3.28972">
        <ele>72</ele>
        <time>2014-05-04T10:03:29.000Z</time>
      </trkpt>
      <trkpt lat="48.20089" lon="3.28963">
        <ele>72</ele>
        <time>2014-05-04T10:03:30.000Z</time>
      </trkpt>
      <trkpt lat="48.20089" lon="3.28955">
        <ele>71</ele>
        <time>2014-05-04T10:03:31.000Z</time>
      </trkpt>
      <trkpt lat="48.20089" lon="3.28946">
        <ele>71</ele>
        <time>2014-05-04T10:03:32.000Z</time>
      </trkpt>
      <trkpt lat="48.20089" lon="3.28935">
        <ele>71</ele>
        <time>2014-05-04T10:03:33.000Z</time>
      </trkpt>
      <trkpt lat="48.20089" lon="3.28927">
        <ele>71</ele>
        <time>2014-05-04T10:03:34.000Z</time>
      </trkpt>
      <trkpt lat="48.20088" lon="3.28916">
        <ele>71</ele>
        <time>2014-05-04T10:03:35.000Z</time>
      </trkpt>
      <trkpt lat="48.20088" lon="3.28907">
        <ele>71</ele>
        <time>2014-05-04T10:03:36.000Z</time>
      </trkpt>
      <trkpt lat="48.20089" lon="3.28897">
        <ele>71</ele>
        <time>2014-05-04T10:03:37.000Z</time>
      </trkpt>
      <trkpt lat="48.20091" lon="3.28888">
        <ele>71</ele>
        <time>2014-05-04T10:03:38.000Z</time>
      </trkpt>
      <trkpt lat="48.20093" lon="3.2888">
        <ele>71</ele>
        <time>2014-05-04T10:03:39.000Z</time>
      </trkpt>
      <trkpt lat="48.20094" lon="3.28869">
        <ele>71</ele>
        <time>2014-05-04T10:03:40.000Z</time>
      </trkpt>
      <trkpt lat="48.20096" lon="3.2886">
        <ele>71</ele>
        <time>2014-05-04T10:03:41.000Z</time>
      </trkpt>
      <trkpt lat="48.20097" lon="3.2885">
        <ele>71</ele>
        <time>2014-05-04T10:03:42.000Z</time>
      </trkpt>
      <trkpt lat="48.20099" lon="3.28841">
        <ele>71</ele>
        <time>2014-05-04T10:03:43.000Z</time>
      </trkpt>
      <trkpt lat="48.201" lon="3.2883">
        <ele>71</ele>
        <time>2014-05-04T10:03:44.000Z</time>
      </trkpt>
      <trkpt lat="48.20101" lon="3.2882">
        <ele>71</ele>
        <time>2014-05-04T10:03:45.000Z</time>
      </trkpt>
      <trkpt lat="48.20103" lon="3.28811">
        <ele>71</ele>
        <time>2014-05-04T10:03:46.000Z</time>
      </trkpt>
      <trkpt lat="48.20104" lon="3.288">
        <ele>71</ele>
        <time>2014-05-04T10:03:47.000Z</time>
      </trkpt>
      <trkpt lat="48.20107" lon="3.28789">
        <ele>71</ele>
        <time>2014-05-04T10:03:48.000Z</time>
      </trkpt>
      <trkpt lat="48.20108" lon="3.28781">
        <ele>72</ele>
        <time>2014-05-04T10:03:49.000Z</time>
      </trkpt>
      <trkpt lat="48.20109" lon="3.2877">
        <ele>72</ele>
        <time>2014-05-04T10:03:50.000Z</time>
      </trkpt>
      <trkpt lat="48.2011" lon="3.28762">
        <ele>72</ele>
        <time>2014-05-04T10:03:51.000Z</time>
      </trkpt>
      <trkpt lat="48.20111" lon="3.28753">
        <ele>72</ele>
        <time>2014-05-04T10:03:52.000Z</time>
      </trkpt>
      <trkpt lat="48.20112" lon="3.28744">
        <ele>71</ele>
        <time>2014-05-04T10:03:53.000Z</time>
      </trkpt>
      <trkpt lat="48.20113" lon="3.28736">
        <ele>71</ele>
        <time>2014-05-04T10:03:54.000Z</time>
      </trkpt>
      <trkpt lat="48.20114" lon="3.28727">
        <ele>71</ele>
        <time>2014-05-04T10:03:55.000Z</time>
      </trkpt>
      <trkpt lat="48.20115" lon="3.28719">
        <ele>71</ele>
        <time>2014-05-04T10:03:56.000Z</time>
      </trkpt>
      <trkpt lat="48.20116" lon="3.2871">
        <ele>71</ele>
        <time>2014-05-04T10:03:57.000Z</time>
      </trkpt>
      <trkpt lat="48.20116" lon="3.28701">
        <ele>71</ele>
        <time>2014-05-04T10:03:58.000Z</time>
      </trkpt>
      <trkpt lat="48.20116" lon="3.28695">
        <ele>71</ele>
        <time>2014-05-04T10:03:59.000Z</time>
      </trkpt>
      <trkpt lat="48.20117" lon="3.28686">
        <ele>71</ele>
        <time>2014-05-04T10:04:00.000Z</time>
      </trkpt>
      <trkpt lat="48.20118" lon="3.28678">
        <ele>71</ele>
        <time>2014-05-04T10:04:01.000Z</time>
      </trkpt>
      <trkpt lat="48.2012" lon="3.28667">
        <ele>71</ele>
        <time>2014-05-04T10:04:02.000Z</time>
      </trkpt>
      <trkpt lat="48.20121" lon="3.28659">
        <ele>70</ele>
        <time>2014-05-04T10:04:03.000Z</time>
      </trkpt>
      <trkpt lat="48.20122" lon="3.28648">
        <ele>70</ele>
        <time>2014-05-04T10:04:04.000Z</time>
      </trkpt>
      <trkpt lat="48.20122" lon="3.28639">
        <ele>70</ele>
        <time>2014-05-04T10:04:05.000Z</time>
      </trkpt>
      <trkpt lat="48.20123" lon="3.28629">
        <ele>70</ele>
        <time>2014-05-04T10:04:06.000Z</time>
      </trkpt>
      <trkpt lat="48.20124" lon="3.2862">
        <ele>70</ele>
        <time>2014-05-04T10:04:07.000Z</time>
      </trkpt>
      <trkpt lat="48.20125" lon="3.28609">
        <ele>70</ele>
        <time>2014-05-04T10:04:08.000Z</time>
      </trkpt>
      <trkpt lat="48.20126" lon="3.28598">
        <ele>70</ele>
        <time>2014-05-04T10:04:09.000Z</time>
      </trkpt>
      <trkpt lat="48.20127" lon="3.2859">
        <ele>70</ele>
        <time>2014-05-04T10:04:10.000Z</time>
      </trkpt>
      <trkpt lat="48.20128" lon="3.28579">
        <ele>71</ele>
        <time>2014-05-04T10:04:11.000Z</time>
      </trkpt>
      <trkpt lat="48.20129" lon="3.28571">
        <ele>71</ele>
        <time>2014-05-04T10:04:12.000Z</time>
      </trkpt>
      <trkpt lat="48.2013" lon="3.28562">
        <ele>71</ele>
        <time>2014-05-04T10:04:13.000Z</time>
      </trkpt>
      <trkpt lat="48.20131" lon="3.28553">
        <ele>71</ele>
        <time>2014-05-04T10:04:14.000Z</time>
      </trkpt>
      <trkpt lat="48.20132" lon="3.28545">
        <ele>71</ele>
        <time>2014-05-04T10:04:15.000Z</time>
      </trkpt>
      <trkpt lat="48.20133" lon="3.28536">
        <ele>71</ele>
        <time>2014-05-04T10:04:16.000Z</time>
      </trkpt>
      <trkpt lat="48.20135" lon="3.28528">
        <ele>71</ele>
        <time>2014-05-04T10:04:17.000Z</time>
      </trkpt>
      <trkpt lat="48.20136" lon="3.28519">
        <ele>71</ele>
        <time>2014-05-04T10:04:18.000Z</time>
      </trkpt>
      <trkpt lat="48.20137" lon="3.28513">
        <ele>71</ele>
        <time>2014-05-04T10:04:19.000Z</time>
      </trkpt>
      <trkpt lat="48.20138" lon="3.28504">
        <ele>71</ele>
        <time>2014-05-04T10:04:20.000Z</time>
      </trkpt>
      <trkpt lat="48.20138" lon="3.28496">
        <ele>72</ele>
        <time>2014-05-04T10:04:21.000Z</time>
      </trkpt>
      <trkpt lat="48.20138" lon="3.28489">
        <ele>72</ele>
        <time>2014-05-04T10:04:22.000Z</time>
      </trkpt>
      <trkpt lat="48.20138" lon="3.2848">
        <ele>72</ele>
        <time>2014-05-04T10:04:23.000Z</time>
      </trkpt>
      <trkpt lat="48.20139" lon="3.28474">
        <ele>72</ele>
        <time>2014-05-04T10:04:24.000Z</time>
      </trkpt>
      <trkpt lat="48.20139" lon="3.28468">
        <ele>72</ele>
        <time>2014-05-04T10:04:25.000Z</time>
      </trkpt>
      <trkpt lat="48.2014" lon="3.28459">
        <ele>73</ele>
        <time>2014-05-04T10:04:26.000Z</time>
      </trkpt>
      <trkpt lat="48.20141" lon="3.28453">
        <ele>73</ele>
        <time>2014-05-04T10:04:27.000Z</time>
      </trkpt>
      <trkpt lat="48.20141" lon="3.28446">
        <ele>73</ele>
        <time>2014-05-04T10:04:28.000Z</time>
      </trkpt>
      <trkpt lat="48.20142" lon="3.2844">
        <ele>73</ele>
        <time>2014-05-04T10:04:46.000Z</time>
      </trkpt>
      <trkpt lat="48.20136" lon="3.28427">
        <ele>73</ele>
        <time>2014-05-04T10:04:47.000Z</time>
      </trkpt>
      <trkpt lat="48.20133" lon="3.2842">
        <ele>73</ele>
        <time>2014-05-04T10:04:48.000Z</time>
      </trkpt>
      <trkpt lat="48.20132" lon="3.28414">
        <ele>73</ele>
        <time>2014-05-04T10:04:49.000Z</time>
      </trkpt>
      <trkpt lat="48.20132" lon="3.28408">
        <ele>73</ele>
        <time>2014-05-04T10:04:50.000Z</time>
      </trkpt>
      <trkpt lat="48.20132" lon="3.28399">
        <ele>73</ele>
        <time>2014-05-04T10:04:51.000Z</time>
      </trkpt>
      <trkpt lat="48.20132" lon="3.28393">
        <ele>73</ele>
        <time>2014-05-04T10:04:52.000Z</time>
      </trkpt>
      <trkpt lat="48.20132" lon="3.28384">
        <ele>72</ele>
        <time>2014-05-04T10:04:53.000Z</time>
      </trkpt>
      <trkpt lat="48.20131" lon="3.28375">
        <ele>72</ele>
        <time>2014-05-04T10:04:54.000Z</time>
      </trkpt>
      <trkpt lat="48.20131" lon="3.28367">
        <ele>72</ele>
        <time>2014-05-04T10:04:55.000Z</time>
      </trkpt>
      <trkpt lat="48.20131" lon="3.28358">
        <ele>72</ele>
        <time>2014-05-04T10:04:56.000Z</time>
      </trkpt>
      <trkpt lat="48.20131" lon="3.2835">
        <ele>72</ele>
        <time>2014-05-04T10:04:57.000Z</time>
      </trkpt>
      <trkpt lat="48.2013" lon="3.28339">
        <ele>72</ele>
        <time>2014-05-04T10:04:58.000Z</time>
      </trkpt>
      <trkpt lat="48.2013" lon="3.2833">
        <ele>72</ele>
        <time>2014-05-04T10:04:59.000Z</time>
      </trkpt>
      <trkpt lat="48.20129" lon="3.2832">
        <ele>72</ele>
        <time>2014-05-04T10:05:00.000Z</time>
      </trkpt>
      <trkpt lat="48.20129" lon="3.28311">
        <ele>72</ele>
        <time>2014-05-04T10:05:01.000Z</time>
      </trkpt>
      <trkpt lat="48.20128" lon="3.283">
        <ele>72</ele>
        <time>2014-05-04T10:05:02.000Z</time>
      </trkpt>
      <trkpt lat="48.20128" lon="3.28292">
        <ele>72</ele>
        <time>2014-05-04T10:05:03.000Z</time>
      </trkpt>
      <trkpt lat="48.20127" lon="3.28283">
        <ele>72</ele>
        <time>2014-05-04T10:05:04.000Z</time>
      </trkpt>
      <trkpt lat="48.20126" lon="3.28272">
        <ele>72</ele>
        <time>2014-05-04T10:05:05.000Z</time>
      </trkpt>
      <trkpt lat="48.20125" lon="3.28264">
        <ele>72</ele>
        <time>2014-05-04T10:05:06.000Z</time>
      </trkpt>
      <trkpt lat="48.20124" lon="3.28255">
        <ele>72</ele>
        <time>2014-05-04T10:05:07.000Z</time>
      </trkpt>
      <trkpt lat="48.20123" lon="3.28249">
        <ele>71</ele>
        <time>2014-05-04T10:05:08.000Z</time>
      </trkpt>
      <trkpt lat="48.20123" lon="3.28244">
        <ele>71</ele>
        <time>2014-05-04T10:05:09.000Z</time>
      </trkpt>
      <trkpt lat="48.20123" lon="3.2824">
        <ele>71</ele>
        <time>2014-05-04T10:05:10.000Z</time>
      </trkpt>
      <trkpt lat="48.20125" lon="3.28236">
        <ele>71</ele>
        <time>2014-05-04T10:05:11.000Z</time>
      </trkpt>
      <trkpt lat="48.20127" lon="3.28229">
        <ele>71</ele>
        <time>2014-05-04T10:05:12.000Z</time>
      </trkpt>
      <trkpt lat="48.20128" lon="3.28223">
        <ele>71</ele>
        <time>2014-05-04T10:05:13.000Z</time>
      </trkpt>
      <trkpt lat="48.20129" lon="3.28219">
        <ele>71</ele>
        <time>2014-05-04T10:05:14.000Z</time>
      </trkpt>
      <trkpt lat="48.20131" lon="3.28212">
        <ele>71</ele>
        <time>2014-05-04T10:05:15.000Z</time>
      </trkpt>
      <trkpt lat="48.20135" lon="3.28208">
        <ele>71</ele>
        <time>2014-05-04T10:05:16.000Z</time>
      </trkpt>
      <trkpt lat="48.20137" lon="3.28204">
        <ele>71</ele>
        <time>2014-05-04T10:05:17.000Z</time>
      </trkpt>
      <trkpt lat="48.2014" lon="3.28197">
        <ele>71</ele>
        <time>2014-05-04T10:05:18.000Z</time>
      </trkpt>
      <trkpt lat="48.20144" lon="3.28191">
        <ele>71</ele>
        <time>2014-05-04T10:05:19.000Z</time>
      </trkpt>
      <trkpt lat="48.20148" lon="3.28187">
        <ele>71</ele>
        <time>2014-05-04T10:05:20.000Z</time>
      </trkpt>
      <trkpt lat="48.20153" lon="3.2818">
        <ele>71</ele>
        <time>2014-05-04T10:05:21.000Z</time>
      </trkpt>
      <trkpt lat="48.20157" lon="3.28174">
        <ele>71</ele>
        <time>2014-05-04T10:05:22.000Z</time>
      </trkpt>
      <trkpt lat="48.20161" lon="3.28167">
        <ele>71</ele>
        <time>2014-05-04T10:05:23.000Z</time>
      </trkpt>
      <trkpt lat="48.20166" lon="3.28163">
        <ele>71</ele>
        <time>2014-05-04T10:05:24.000Z</time>
      </trkpt>
      <trkpt lat="48.20171" lon="3.28156">
        <ele>70</ele>
        <time>2014-05-04T10:05:25.000Z</time>
      </trkpt>
      <trkpt lat="48.20175" lon="3.28152">
        <ele>70</ele>
        <time>2014-05-04T10:05:26.000Z</time>
      </trkpt>
      <trkpt lat="48.2018" lon="3.28146">
        <ele>70</ele>
        <time>2014-05-04T10:05:27.000Z</time>
      </trkpt>
      <trkpt lat="48.20185" lon="3.28141">
        <ele>69</ele>
        <time>2014-05-04T10:05:28.000Z</time>
      </trkpt>
      <trkpt lat="48.2019" lon="3.28137">
        <ele>69</ele>
        <time>2014-05-04T10:05:29.000Z</time>
      </trkpt>
      <trkpt lat="48.20196" lon="3.28133">
        <ele>69</ele>
        <time>2014-05-04T10:05:30.000Z</time>
      </trkpt>
      <trkpt lat="48.202" lon="3.28129">
        <ele>69</ele>
        <time>2014-05-04T10:05:31.000Z</time>
      </trkpt>
      <trkpt lat="48.20205" lon="3.28124">
        <ele>69</ele>
        <time>2014-05-04T10:05:32.000Z</time>
      </trkpt>
      <trkpt lat="48.20211" lon="3.28118">
        <ele>69</ele>
        <time>2014-05-04T10:05:33.000Z</time>
      </trkpt>
      <trkpt lat="48.20215" lon="3.28114">
        <ele>69</ele>
        <time>2014-05-04T10:05:34.000Z</time>
      </trkpt>
      <trkpt lat="48.2022" lon="3.28109">
        <ele>68</ele>
        <time>2014-05-04T10:05:35.000Z</time>
      </trkpt>
      <trkpt lat="48.20225" lon="3.28105">
        <ele>68</ele>
        <time>2014-05-04T10:05:36.000Z</time>
      </trkpt>
      <trkpt lat="48.2023" lon="3.28099">
        <ele>68</ele>
        <time>2014-05-04T10:05:37.000Z</time>
      </trkpt>
      <trkpt lat="48.20234" lon="3.28094">
        <ele>68</ele>
        <time>2014-05-04T10:05:38.000Z</time>
      </trkpt>
      <trkpt lat="48.20239" lon="3.28088">
        <ele>68</ele>
        <time>2014-05-04T10:05:39.000Z</time>
      </trkpt>
      <trkpt lat="48.20244" lon="3.28084">
        <ele>67</ele>
        <time>2014-05-04T10:05:40.000Z</time>
      </trkpt>
      <trkpt lat="48.20248" lon="3.28079">
        <ele>67</ele>
        <time>2014-05-04T10:05:41.000Z</time>
      </trkpt>
      <trkpt lat="48.20253" lon="3.28075">
        <ele>67</ele>
        <time>2014-05-04T10:05:42.000Z</time>
      </trkpt>
      <trkpt lat="48.20256" lon="3.28073">
        <ele>67</ele>
        <time>2014-05-04T10:05:43.000Z</time>
      </trkpt>
      <trkpt lat="48.20259" lon="3.28071">
        <ele>67</ele>
        <time>2014-05-04T10:05:44.000Z</time>
      </trkpt>
      <trkpt lat="48.20262" lon="3.28068">
        <ele>67</ele>
        <time>2014-05-04T10:08:48.000Z</time>
      </trkpt>
      <trkpt lat="48.20263" lon="3.28068">
        <ele>67</ele>
        <time>2014-05-04T10:08:49.000Z</time>
      </trkpt>
      <trkpt lat="48.20266" lon="3.28071">
        <ele>67</ele>
        <time>2014-05-04T10:08:57.000Z</time>
      </trkpt>
      <trkpt lat="48.20268" lon="3.28073">
        <ele>67</ele>
        <time>2014-05-04T10:08:58.000Z</time>
      </trkpt>
      <trkpt lat="48.20271" lon="3.28075">
        <ele>67</ele>
        <time>2014-05-04T10:09:06.000Z</time>
      </trkpt>
      <trkpt lat="48.20272" lon="3.28075">
        <ele>67</ele>
        <time>2014-05-04T10:09:07.000Z</time>
      </trkpt>
      <trkpt lat="48.20275" lon="3.28079">
        <ele>67</ele>
        <time>2014-05-04T10:09:18.000Z</time>
      </trkpt>
      <trkpt lat="48.20276" lon="3.28079">
        <ele>67</ele>
        <time>2014-05-04T10:09:19.000Z</time>
      </trkpt>
      <trkpt lat="48.20277" lon="3.28079">
        <ele>67</ele>
        <time>2014-05-04T10:09:29.000Z</time>
      </trkpt>
    </trkseg>
  </trk>
</gpx>